<?xml version="1.0" encoding="UTF-8" standalone="no" ?>
<gpx xmlns="http://www.topografix.com/GPX/1/1" xmlns:xsi="http://www.w3.org/2001/XMLSchema-instance" xsi:schemaLocation="http://www.topografix.com/GPX/1/1 http://www.topografix.com/GPX/1/1/gpx.xsd" version="1.1" creator="VisuGPX - https://www.visugpx.com">
  <metadata>
    <name>ULTRA CANFRANC-COLLARADA-TENA</name>
    <desc><![CDATA[ULTRA CANFRANC-COLLARADA- TENA]]></desc>
  </metadata>
  <trk>
    <name><![CDATA[ULTRA CANFRANC-COLLARADA- TENA]]></name>
    <trkseg>
      <trkpt lat="42.75143" lon="-0.51514">
        <ele>1198</ele>
        <time>2018-12-26T23:14:14Z</time>
      </trkpt>
      <trkpt lat="42.75139" lon="-0.51522">
        <ele>1199</ele>
        <time>2018-12-26T23:14:16Z</time>
      </trkpt>
      <trkpt lat="42.75132" lon="-0.51528">
        <ele>1200</ele>
        <time>2018-12-26T23:14:18Z</time>
      </trkpt>
      <trkpt lat="42.75111" lon="-0.51542">
        <ele>1203</ele>
        <time>2018-12-26T23:14:24Z</time>
      </trkpt>
      <trkpt lat="42.75095" lon="-0.51549">
        <ele>1204</ele>
        <time>2018-12-26T23:14:28Z</time>
      </trkpt>
      <trkpt lat="42.7508" lon="-0.51552">
        <ele>1204</ele>
        <time>2018-12-26T23:14:32Z</time>
      </trkpt>
      <trkpt lat="42.7504" lon="-0.51552">
        <ele>1201</ele>
        <time>2018-12-26T23:14:43Z</time>
      </trkpt>
      <trkpt lat="42.75018" lon="-0.51558">
        <ele>1201</ele>
        <time>2018-12-26T23:14:49Z</time>
      </trkpt>
      <trkpt lat="42.75003" lon="-0.51565">
        <ele>1201</ele>
        <time>2018-12-26T23:14:53Z</time>
      </trkpt>
      <trkpt lat="42.7498" lon="-0.51568">
        <ele>1203</ele>
        <time>2018-12-26T23:15:00Z</time>
      </trkpt>
      <trkpt lat="42.74974" lon="-0.51575">
        <ele>1204</ele>
        <time>2018-12-26T23:15:02Z</time>
      </trkpt>
      <trkpt lat="42.74973" lon="-0.51585">
        <ele>1206</ele>
        <time>2018-12-26T23:15:04Z</time>
      </trkpt>
      <trkpt lat="42.74968" lon="-0.51593">
        <ele>1207</ele>
        <time>2018-12-26T23:15:06Z</time>
      </trkpt>
      <trkpt lat="42.74961" lon="-0.51597">
        <ele>1207</ele>
        <time>2018-12-26T23:15:08Z</time>
      </trkpt>
      <trkpt lat="42.74937" lon="-0.51599">
        <ele>1207</ele>
        <time>2018-12-26T23:15:14Z</time>
      </trkpt>
      <trkpt lat="42.7493" lon="-0.51601">
        <ele>1206</ele>
        <time>2018-12-26T23:15:16Z</time>
      </trkpt>
      <trkpt lat="42.74893" lon="-0.51619">
        <ele>1204</ele>
        <time>2018-12-26T23:15:26Z</time>
      </trkpt>
      <trkpt lat="42.74886" lon="-0.51624">
        <ele>1204</ele>
        <time>2018-12-26T23:15:29Z</time>
      </trkpt>
      <trkpt lat="42.74885" lon="-0.51633">
        <ele>1205</ele>
        <time>2018-12-26T23:15:30Z</time>
      </trkpt>
      <trkpt lat="42.74901" lon="-0.51635">
        <ele>1209</ele>
        <time>2018-12-26T23:15:35Z</time>
      </trkpt>
      <trkpt lat="42.74923" lon="-0.5165">
        <ele>1218</ele>
        <time>2018-12-26T23:15:41Z</time>
      </trkpt>
      <trkpt lat="42.74931" lon="-0.51652">
        <ele>1220</ele>
        <time>2018-12-26T23:15:43Z</time>
      </trkpt>
      <trkpt lat="42.74948" lon="-0.51652">
        <ele>1222</ele>
        <time>2018-12-26T23:15:48Z</time>
      </trkpt>
      <trkpt lat="42.74979" lon="-0.51639">
        <ele>1219</ele>
        <time>2018-12-26T23:15:56Z</time>
      </trkpt>
      <trkpt lat="42.75012" lon="-0.51638">
        <ele>1222</ele>
        <time>2018-12-26T23:16:05Z</time>
      </trkpt>
      <trkpt lat="42.75018" lon="-0.5164">
        <ele>1223</ele>
        <time>2018-12-26T23:16:07Z</time>
      </trkpt>
      <trkpt lat="42.75025" lon="-0.51646">
        <ele>1225</ele>
        <time>2018-12-26T23:16:09Z</time>
      </trkpt>
      <trkpt lat="42.75041" lon="-0.5165">
        <ele>1225</ele>
        <time>2018-12-26T23:16:13Z</time>
      </trkpt>
      <trkpt lat="42.75048" lon="-0.51655">
        <ele>1226</ele>
        <time>2018-12-26T23:16:16Z</time>
      </trkpt>
      <trkpt lat="42.75034" lon="-0.51658">
        <ele>1229</ele>
        <time>2018-12-26T23:16:19Z</time>
      </trkpt>
      <trkpt lat="42.75021" lon="-0.51663">
        <ele>1232</ele>
        <time>2018-12-26T23:16:23Z</time>
      </trkpt>
      <trkpt lat="42.75011" lon="-0.51656">
        <ele>1229</ele>
        <time>2018-12-26T23:16:26Z</time>
      </trkpt>
      <trkpt lat="42.74998" lon="-0.51656">
        <ele>1229</ele>
        <time>2018-12-26T23:16:29Z</time>
      </trkpt>
      <trkpt lat="42.7498" lon="-0.51664">
        <ele>1230</ele>
        <time>2018-12-26T23:16:35Z</time>
      </trkpt>
      <trkpt lat="42.74964" lon="-0.51672">
        <ele>1231</ele>
        <time>2018-12-26T23:16:39Z</time>
      </trkpt>
      <trkpt lat="42.7497" lon="-0.51681">
        <ele>1235</ele>
        <time>2018-12-26T23:16:41Z</time>
      </trkpt>
      <trkpt lat="42.74962" lon="-0.51686">
        <ele>1236</ele>
        <time>2018-12-26T23:16:44Z</time>
      </trkpt>
      <trkpt lat="42.74971" lon="-0.51692">
        <ele>1238</ele>
        <time>2018-12-26T23:16:46Z</time>
      </trkpt>
      <trkpt lat="42.74973" lon="-0.51706">
        <ele>1241</ele>
        <time>2018-12-26T23:16:49Z</time>
      </trkpt>
      <trkpt lat="42.74988" lon="-0.51726">
        <ele>1246</ele>
        <time>2018-12-26T23:16:55Z</time>
      </trkpt>
      <trkpt lat="42.75003" lon="-0.51749">
        <ele>1248</ele>
        <time>2018-12-26T23:17:01Z</time>
      </trkpt>
      <trkpt lat="42.75031" lon="-0.51766">
        <ele>1252</ele>
        <time>2018-12-26T23:17:09Z</time>
      </trkpt>
      <trkpt lat="42.75014" lon="-0.5177">
        <ele>1254</ele>
        <time>2018-12-26T23:17:14Z</time>
      </trkpt>
      <trkpt lat="42.75003" lon="-0.51765">
        <ele>1252</ele>
        <time>2018-12-26T23:17:17Z</time>
      </trkpt>
      <trkpt lat="42.74976" lon="-0.51749">
        <ele>1247</ele>
        <time>2018-12-26T23:17:25Z</time>
      </trkpt>
      <trkpt lat="42.74965" lon="-0.51748">
        <ele>1247</ele>
        <time>2018-12-26T23:17:28Z</time>
      </trkpt>
      <trkpt lat="42.74959" lon="-0.51756">
        <ele>1248</ele>
        <time>2018-12-26T23:17:30Z</time>
      </trkpt>
      <trkpt lat="42.74964" lon="-0.51759">
        <ele>1249</ele>
        <time>2018-12-26T23:17:31Z</time>
      </trkpt>
      <trkpt lat="42.74989" lon="-0.51782">
        <ele>1257</ele>
        <time>2018-12-26T23:17:39Z</time>
      </trkpt>
      <trkpt lat="42.74964" lon="-0.5178">
        <ele>1254</ele>
        <time>2018-12-26T23:17:46Z</time>
      </trkpt>
      <trkpt lat="42.74945" lon="-0.51803">
        <ele>1262</ele>
        <time>2018-12-26T23:17:53Z</time>
      </trkpt>
      <trkpt lat="42.74924" lon="-0.51816">
        <ele>1266</ele>
        <time>2018-12-26T23:17:59Z</time>
      </trkpt>
      <trkpt lat="42.74898" lon="-0.5184">
        <ele>1273</ele>
        <time>2018-12-26T23:18:07Z</time>
      </trkpt>
      <trkpt lat="42.74929" lon="-0.51828">
        <ele>1272</ele>
        <time>2018-12-26T23:18:16Z</time>
      </trkpt>
      <trkpt lat="42.74968" lon="-0.51821">
        <ele>1276</ele>
        <time>2018-12-26T23:18:26Z</time>
      </trkpt>
      <trkpt lat="42.74965" lon="-0.51829">
        <ele>1279</ele>
        <time>2018-12-26T23:18:28Z</time>
      </trkpt>
      <trkpt lat="42.74959" lon="-0.51832">
        <ele>1279</ele>
        <time>2018-12-26T23:18:30Z</time>
      </trkpt>
      <trkpt lat="42.74908" lon="-0.51874">
        <ele>1289</ele>
        <time>2018-12-26T23:18:46Z</time>
      </trkpt>
      <trkpt lat="42.74898" lon="-0.51907">
        <ele>1299</ele>
        <time>2018-12-26T23:18:53Z</time>
      </trkpt>
      <trkpt lat="42.74876" lon="-0.51919">
        <ele>1300</ele>
        <time>2018-12-26T23:18:59Z</time>
      </trkpt>
      <trkpt lat="42.74875" lon="-0.51926">
        <ele>1301</ele>
        <time>2018-12-26T23:19:00Z</time>
      </trkpt>
      <trkpt lat="42.74885" lon="-0.51928">
        <ele>1301</ele>
        <time>2018-12-26T23:19:03Z</time>
      </trkpt>
      <trkpt lat="42.74895" lon="-0.51918">
        <ele>1301</ele>
        <time>2018-12-26T23:19:06Z</time>
      </trkpt>
      <trkpt lat="42.74926" lon="-0.51904">
        <ele>1302</ele>
        <time>2018-12-26T23:19:15Z</time>
      </trkpt>
      <trkpt lat="42.74965" lon="-0.5191">
        <ele>1303</ele>
        <time>2018-12-26T23:19:26Z</time>
      </trkpt>
      <trkpt lat="42.74991" lon="-0.51919">
        <ele>1305</ele>
        <time>2018-12-26T23:19:33Z</time>
      </trkpt>
      <trkpt lat="42.7499" lon="-0.51937">
        <ele>1310</ele>
        <time>2018-12-26T23:19:36Z</time>
      </trkpt>
      <trkpt lat="42.74975" lon="-0.51931">
        <ele>1307</ele>
        <time>2018-12-26T23:19:41Z</time>
      </trkpt>
      <trkpt lat="42.74944" lon="-0.51939">
        <ele>1310</ele>
        <time>2018-12-26T23:19:49Z</time>
      </trkpt>
      <trkpt lat="42.74894" lon="-0.51966">
        <ele>1313</ele>
        <time>2018-12-26T23:20:03Z</time>
      </trkpt>
      <trkpt lat="42.74892" lon="-0.51971">
        <ele>1316</ele>
        <time>2018-12-26T23:20:05Z</time>
      </trkpt>
      <trkpt lat="42.74909" lon="-0.51964">
        <ele>1314</ele>
        <time>2018-12-26T23:20:09Z</time>
      </trkpt>
      <trkpt lat="42.74933" lon="-0.51966">
        <ele>1318</ele>
        <time>2018-12-26T23:20:16Z</time>
      </trkpt>
      <trkpt lat="42.74949" lon="-0.51966">
        <ele>1319</ele>
        <time>2018-12-26T23:20:20Z</time>
      </trkpt>
      <trkpt lat="42.7495" lon="-0.51974">
        <ele>1323</ele>
        <time>2018-12-26T23:20:22Z</time>
      </trkpt>
      <trkpt lat="42.74945" lon="-0.51974">
        <ele>1323</ele>
        <time>2018-12-26T23:20:23Z</time>
      </trkpt>
      <trkpt lat="42.74922" lon="-0.51987">
        <ele>1325</ele>
        <time>2018-12-26T23:20:30Z</time>
      </trkpt>
      <trkpt lat="42.7491" lon="-0.51998">
        <ele>1328</ele>
        <time>2018-12-26T23:20:33Z</time>
      </trkpt>
      <trkpt lat="42.74935" lon="-0.5199">
        <ele>1329</ele>
        <time>2018-12-26T23:20:40Z</time>
      </trkpt>
      <trkpt lat="42.74887" lon="-0.5204">
        <ele>1353</ele>
        <time>2018-12-26T23:20:56Z</time>
      </trkpt>
      <trkpt lat="42.74862" lon="-0.5205">
        <ele>1354</ele>
        <time>2018-12-26T23:21:04Z</time>
      </trkpt>
      <trkpt lat="42.74832" lon="-0.52067">
        <ele>1361</ele>
        <time>2018-12-26T23:21:12Z</time>
      </trkpt>
      <trkpt lat="42.74802" lon="-0.52072">
        <ele>1367</ele>
        <time>2018-12-26T23:21:20Z</time>
      </trkpt>
      <trkpt lat="42.74776" lon="-0.5206">
        <ele>1366</ele>
        <time>2018-12-26T23:21:27Z</time>
      </trkpt>
      <trkpt lat="42.74734" lon="-0.52048">
        <ele>1365</ele>
        <time>2018-12-26T23:21:39Z</time>
      </trkpt>
      <trkpt lat="42.74686" lon="-0.52047">
        <ele>1353</ele>
        <time>2018-12-26T23:21:52Z</time>
      </trkpt>
      <trkpt lat="42.74678" lon="-0.52041">
        <ele>1351</ele>
        <time>2018-12-26T23:21:54Z</time>
      </trkpt>
      <trkpt lat="42.74655" lon="-0.5201">
        <ele>1355</ele>
        <time>2018-12-26T23:22:03Z</time>
      </trkpt>
      <trkpt lat="42.74632" lon="-0.51989">
        <ele>1359</ele>
        <time>2018-12-26T23:22:10Z</time>
      </trkpt>
      <trkpt lat="42.74618" lon="-0.51974">
        <ele>1359</ele>
        <time>2018-12-26T23:22:15Z</time>
      </trkpt>
      <trkpt lat="42.74623" lon="-0.51987">
        <ele>1363</ele>
        <time>2018-12-26T23:22:18Z</time>
      </trkpt>
      <trkpt lat="42.74601" lon="-0.51976">
        <ele>1368</ele>
        <time>2018-12-26T23:22:24Z</time>
      </trkpt>
      <trkpt lat="42.74571" lon="-0.51965">
        <ele>1361</ele>
        <time>2018-12-26T23:22:32Z</time>
      </trkpt>
      <trkpt lat="42.74574" lon="-0.51975">
        <ele>1369</ele>
        <time>2018-12-26T23:22:34Z</time>
      </trkpt>
      <trkpt lat="42.74597" lon="-0.51985">
        <ele>1376</ele>
        <time>2018-12-26T23:22:40Z</time>
      </trkpt>
      <trkpt lat="42.74619" lon="-0.52005">
        <ele>1376</ele>
        <time>2018-12-26T23:22:47Z</time>
      </trkpt>
      <trkpt lat="42.74639" lon="-0.5203">
        <ele>1373</ele>
        <time>2018-12-26T23:22:55Z</time>
      </trkpt>
      <trkpt lat="42.74607" lon="-0.52009">
        <ele>1386</ele>
        <time>2018-12-26T23:23:04Z</time>
      </trkpt>
      <trkpt lat="42.74587" lon="-0.52004">
        <ele>1395</ele>
        <time>2018-12-26T23:23:10Z</time>
      </trkpt>
      <trkpt lat="42.74605" lon="-0.52022">
        <ele>1394</ele>
        <time>2018-12-26T23:23:16Z</time>
      </trkpt>
      <trkpt lat="42.74622" lon="-0.52041">
        <ele>1395</ele>
        <time>2018-12-26T23:23:21Z</time>
      </trkpt>
      <trkpt lat="42.74615" lon="-0.52045">
        <ele>1403</ele>
        <time>2018-12-26T23:23:23Z</time>
      </trkpt>
      <trkpt lat="42.74601" lon="-0.52024">
        <ele>1397</ele>
        <time>2018-12-26T23:23:29Z</time>
      </trkpt>
      <trkpt lat="42.74607" lon="-0.52039">
        <ele>1403</ele>
        <time>2018-12-26T23:23:32Z</time>
      </trkpt>
      <trkpt lat="42.74583" lon="-0.52024">
        <ele>1404</ele>
        <time>2018-12-26T23:23:39Z</time>
      </trkpt>
      <trkpt lat="42.74587" lon="-0.52034">
        <ele>1407</ele>
        <time>2018-12-26T23:23:42Z</time>
      </trkpt>
      <trkpt lat="42.74573" lon="-0.5202">
        <ele>1399</ele>
        <time>2018-12-26T23:23:46Z</time>
      </trkpt>
      <trkpt lat="42.7456" lon="-0.5201">
        <ele>1388</ele>
        <time>2018-12-26T23:23:50Z</time>
      </trkpt>
      <trkpt lat="42.74567" lon="-0.52024">
        <ele>1400</ele>
        <time>2018-12-26T23:23:54Z</time>
      </trkpt>
      <trkpt lat="42.74551" lon="-0.52018">
        <ele>1389</ele>
        <time>2018-12-26T23:23:58Z</time>
      </trkpt>
      <trkpt lat="42.74546" lon="-0.52023">
        <ele>1388</ele>
        <time>2018-12-26T23:24:00Z</time>
      </trkpt>
      <trkpt lat="42.74557" lon="-0.52028">
        <ele>1400</ele>
        <time>2018-12-26T23:24:03Z</time>
      </trkpt>
      <trkpt lat="42.74579" lon="-0.5205">
        <ele>1416</ele>
        <time>2018-12-26T23:24:10Z</time>
      </trkpt>
      <trkpt lat="42.74596" lon="-0.52059">
        <ele>1418</ele>
        <time>2018-12-26T23:24:15Z</time>
      </trkpt>
      <trkpt lat="42.74627" lon="-0.52066">
        <ele>1418</ele>
        <time>2018-12-26T23:24:23Z</time>
      </trkpt>
      <trkpt lat="42.74613" lon="-0.52068">
        <ele>1423</ele>
        <time>2018-12-26T23:24:27Z</time>
      </trkpt>
      <trkpt lat="42.74619" lon="-0.52076">
        <ele>1433</ele>
        <time>2018-12-26T23:24:29Z</time>
      </trkpt>
      <trkpt lat="42.74598" lon="-0.52079">
        <ele>1435</ele>
        <time>2018-12-26T23:24:35Z</time>
      </trkpt>
      <trkpt lat="42.74589" lon="-0.52078">
        <ele>1435</ele>
        <time>2018-12-26T23:24:37Z</time>
      </trkpt>
      <trkpt lat="42.74561" lon="-0.52071">
        <ele>1426</ele>
        <time>2018-12-26T23:24:45Z</time>
      </trkpt>
      <trkpt lat="42.74551" lon="-0.52094">
        <ele>1433</ele>
        <time>2018-12-26T23:24:50Z</time>
      </trkpt>
      <trkpt lat="42.74596" lon="-0.52101">
        <ele>1450</ele>
        <time>2018-12-26T23:25:02Z</time>
      </trkpt>
      <trkpt lat="42.74574" lon="-0.5211">
        <ele>1450</ele>
        <time>2018-12-26T23:25:08Z</time>
      </trkpt>
      <trkpt lat="42.74609" lon="-0.52117">
        <ele>1462</ele>
        <time>2018-12-26T23:25:18Z</time>
      </trkpt>
      <trkpt lat="42.74647" lon="-0.52131">
        <ele>1470</ele>
        <time>2018-12-26T23:25:28Z</time>
      </trkpt>
      <trkpt lat="42.7467" lon="-0.52155">
        <ele>1481</ele>
        <time>2018-12-26T23:25:36Z</time>
      </trkpt>
      <trkpt lat="42.74629" lon="-0.52141">
        <ele>1472</ele>
        <time>2018-12-26T23:25:47Z</time>
      </trkpt>
      <trkpt lat="42.74612" lon="-0.52143">
        <ele>1472</ele>
        <time>2018-12-26T23:25:52Z</time>
      </trkpt>
      <trkpt lat="42.74644" lon="-0.52154">
        <ele>1477</ele>
        <time>2018-12-26T23:26:00Z</time>
      </trkpt>
      <trkpt lat="42.74664" lon="-0.52175">
        <ele>1486</ele>
        <time>2018-12-26T23:26:07Z</time>
      </trkpt>
      <trkpt lat="42.7468" lon="-0.522">
        <ele>1501</ele>
        <time>2018-12-26T23:26:14Z</time>
      </trkpt>
      <trkpt lat="42.74698" lon="-0.52215">
        <ele>1517</ele>
        <time>2018-12-26T23:26:19Z</time>
      </trkpt>
      <trkpt lat="42.7472" lon="-0.52223">
        <ele>1506</ele>
        <time>2018-12-26T23:26:25Z</time>
      </trkpt>
      <trkpt lat="42.74743" lon="-0.52223">
        <ele>1498</ele>
        <time>2018-12-26T23:26:31Z</time>
      </trkpt>
      <trkpt lat="42.7477" lon="-0.52241">
        <ele>1511</ele>
        <time>2018-12-26T23:26:40Z</time>
      </trkpt>
      <trkpt lat="42.7475" lon="-0.52252">
        <ele>1516</ele>
        <time>2018-12-26T23:26:45Z</time>
      </trkpt>
      <trkpt lat="42.74771" lon="-0.52251">
        <ele>1518</ele>
        <time>2018-12-26T23:26:51Z</time>
      </trkpt>
      <trkpt lat="42.74765" lon="-0.5226">
        <ele>1527</ele>
        <time>2018-12-26T23:26:54Z</time>
      </trkpt>
      <trkpt lat="42.74746" lon="-0.52264">
        <ele>1528</ele>
        <time>2018-12-26T23:26:59Z</time>
      </trkpt>
      <trkpt lat="42.74769" lon="-0.5227">
        <ele>1538</ele>
        <time>2018-12-26T23:27:05Z</time>
      </trkpt>
      <trkpt lat="42.74787" lon="-0.52265">
        <ele>1536</ele>
        <time>2018-12-26T23:27:10Z</time>
      </trkpt>
      <trkpt lat="42.74791" lon="-0.52276">
        <ele>1546</ele>
        <time>2018-12-26T23:27:12Z</time>
      </trkpt>
      <trkpt lat="42.74767" lon="-0.52286">
        <ele>1551</ele>
        <time>2018-12-26T23:27:19Z</time>
      </trkpt>
      <trkpt lat="42.74758" lon="-0.52293">
        <ele>1555</ele>
        <time>2018-12-26T23:27:22Z</time>
      </trkpt>
      <trkpt lat="42.74784" lon="-0.52289">
        <ele>1554</ele>
        <time>2018-12-26T23:27:29Z</time>
      </trkpt>
      <trkpt lat="42.74809" lon="-0.52279">
        <ele>1549</ele>
        <time>2018-12-26T23:27:36Z</time>
      </trkpt>
      <trkpt lat="42.748" lon="-0.52289">
        <ele>1556</ele>
        <time>2018-12-26T23:27:39Z</time>
      </trkpt>
      <trkpt lat="42.74772" lon="-0.52302">
        <ele>1562</ele>
        <time>2018-12-26T23:27:47Z</time>
      </trkpt>
      <trkpt lat="42.74792" lon="-0.52304">
        <ele>1565</ele>
        <time>2018-12-26T23:27:52Z</time>
      </trkpt>
      <trkpt lat="42.74807" lon="-0.52298">
        <ele>1562</ele>
        <time>2018-12-26T23:27:56Z</time>
      </trkpt>
      <trkpt lat="42.74832" lon="-0.52295">
        <ele>1558</ele>
        <time>2018-12-26T23:28:03Z</time>
      </trkpt>
      <trkpt lat="42.74813" lon="-0.52312">
        <ele>1569</ele>
        <time>2018-12-26T23:28:09Z</time>
      </trkpt>
      <trkpt lat="42.74797" lon="-0.52334">
        <ele>1580</ele>
        <time>2018-12-26T23:28:15Z</time>
      </trkpt>
      <trkpt lat="42.74808" lon="-0.52329">
        <ele>1578</ele>
        <time>2018-12-26T23:28:18Z</time>
      </trkpt>
      <trkpt lat="42.74828" lon="-0.52316">
        <ele>1570</ele>
        <time>2018-12-26T23:28:24Z</time>
      </trkpt>
      <trkpt lat="42.74837" lon="-0.52315">
        <ele>1569</ele>
        <time>2018-12-26T23:28:27Z</time>
      </trkpt>
      <trkpt lat="42.74836" lon="-0.52322">
        <ele>1572</ele>
        <time>2018-12-26T23:28:28Z</time>
      </trkpt>
      <trkpt lat="42.74787" lon="-0.52356">
        <ele>1586</ele>
        <time>2018-12-26T23:28:43Z</time>
      </trkpt>
      <trkpt lat="42.74761" lon="-0.52357">
        <ele>1582</ele>
        <time>2018-12-26T23:28:49Z</time>
      </trkpt>
      <trkpt lat="42.74708" lon="-0.52332">
        <ele>1574</ele>
        <time>2018-12-26T23:29:04Z</time>
      </trkpt>
      <trkpt lat="42.74714" lon="-0.52346">
        <ele>1575</ele>
        <time>2018-12-26T23:29:07Z</time>
      </trkpt>
      <trkpt lat="42.74738" lon="-0.52371">
        <ele>1583</ele>
        <time>2018-12-26T23:29:15Z</time>
      </trkpt>
      <trkpt lat="42.74761" lon="-0.52371">
        <ele>1587</ele>
        <time>2018-12-26T23:29:21Z</time>
      </trkpt>
      <trkpt lat="42.74755" lon="-0.52383">
        <ele>1591</ele>
        <time>2018-12-26T23:29:24Z</time>
      </trkpt>
      <trkpt lat="42.74731" lon="-0.52386">
        <ele>1586</ele>
        <time>2018-12-26T23:29:31Z</time>
      </trkpt>
      <trkpt lat="42.74722" lon="-0.52383">
        <ele>1583</ele>
        <time>2018-12-26T23:29:33Z</time>
      </trkpt>
      <trkpt lat="42.74714" lon="-0.52391">
        <ele>1584</ele>
        <time>2018-12-26T23:29:36Z</time>
      </trkpt>
      <trkpt lat="42.74704" lon="-0.52417">
        <ele>1591</ele>
        <time>2018-12-26T23:29:42Z</time>
      </trkpt>
      <trkpt lat="42.74703" lon="-0.5244">
        <ele>1597</ele>
        <time>2018-12-26T23:29:46Z</time>
      </trkpt>
      <trkpt lat="42.74705" lon="-0.52452">
        <ele>1602</ele>
        <time>2018-12-26T23:29:48Z</time>
      </trkpt>
      <trkpt lat="42.74701" lon="-0.52479">
        <ele>1609</ele>
        <time>2018-12-26T23:29:54Z</time>
      </trkpt>
      <trkpt lat="42.74686" lon="-0.525">
        <ele>1607</ele>
        <time>2018-12-26T23:30:00Z</time>
      </trkpt>
      <trkpt lat="42.74681" lon="-0.52518">
        <ele>1610</ele>
        <time>2018-12-26T23:30:03Z</time>
      </trkpt>
      <trkpt lat="42.74665" lon="-0.52557">
        <ele>1611</ele>
        <time>2018-12-26T23:30:12Z</time>
      </trkpt>
      <trkpt lat="42.74665" lon="-0.52569">
        <ele>1614</ele>
        <time>2018-12-26T23:30:15Z</time>
      </trkpt>
      <trkpt lat="42.74684" lon="-0.52541">
        <ele>1617</ele>
        <time>2018-12-26T23:30:22Z</time>
      </trkpt>
      <trkpt lat="42.74712" lon="-0.52504">
        <ele>1625</ele>
        <time>2018-12-26T23:30:32Z</time>
      </trkpt>
      <trkpt lat="42.74736" lon="-0.52461">
        <ele>1625</ele>
        <time>2018-12-26T23:30:43Z</time>
      </trkpt>
      <trkpt lat="42.74764" lon="-0.52468">
        <ele>1637</ele>
        <time>2018-12-26T23:30:50Z</time>
      </trkpt>
      <trkpt lat="42.74768" lon="-0.52481">
        <ele>1642</ele>
        <time>2018-12-26T23:30:53Z</time>
      </trkpt>
      <trkpt lat="42.74754" lon="-0.52501">
        <ele>1643</ele>
        <time>2018-12-26T23:30:59Z</time>
      </trkpt>
      <trkpt lat="42.74746" lon="-0.52539">
        <ele>1648</ele>
        <time>2018-12-26T23:31:06Z</time>
      </trkpt>
      <trkpt lat="42.74727" lon="-0.5257">
        <ele>1646</ele>
        <time>2018-12-26T23:31:14Z</time>
      </trkpt>
      <trkpt lat="42.74714" lon="-0.52597">
        <ele>1648</ele>
        <time>2018-12-26T23:31:21Z</time>
      </trkpt>
      <trkpt lat="42.74724" lon="-0.52588">
        <ele>1650</ele>
        <time>2018-12-26T23:31:24Z</time>
      </trkpt>
      <trkpt lat="42.74738" lon="-0.52566">
        <ele>1650</ele>
        <time>2018-12-26T23:31:29Z</time>
      </trkpt>
      <trkpt lat="42.74751" lon="-0.52553">
        <ele>1653</ele>
        <time>2018-12-26T23:31:34Z</time>
      </trkpt>
      <trkpt lat="42.74754" lon="-0.52547">
        <ele>1653</ele>
        <time>2018-12-26T23:31:35Z</time>
      </trkpt>
      <trkpt lat="42.74776" lon="-0.5253">
        <ele>1656</ele>
        <time>2018-12-26T23:31:42Z</time>
      </trkpt>
      <trkpt lat="42.74797" lon="-0.52519">
        <ele>1658</ele>
        <time>2018-12-26T23:31:48Z</time>
      </trkpt>
      <trkpt lat="42.74815" lon="-0.52497">
        <ele>1657</ele>
        <time>2018-12-26T23:31:55Z</time>
      </trkpt>
      <trkpt lat="42.74831" lon="-0.52483">
        <ele>1658</ele>
        <time>2018-12-26T23:32:00Z</time>
      </trkpt>
      <trkpt lat="42.74825" lon="-0.52513">
        <ele>1664</ele>
        <time>2018-12-26T23:32:06Z</time>
      </trkpt>
      <trkpt lat="42.7481" lon="-0.52545">
        <ele>1670</ele>
        <time>2018-12-26T23:32:13Z</time>
      </trkpt>
      <trkpt lat="42.74796" lon="-0.5256">
        <ele>1671</ele>
        <time>2018-12-26T23:32:18Z</time>
      </trkpt>
      <trkpt lat="42.7479" lon="-0.52574">
        <ele>1674</ele>
        <time>2018-12-26T23:32:21Z</time>
      </trkpt>
      <trkpt lat="42.74853" lon="-0.52534">
        <ele>1679</ele>
        <time>2018-12-26T23:32:40Z</time>
      </trkpt>
      <trkpt lat="42.74878" lon="-0.52541">
        <ele>1687</ele>
        <time>2018-12-26T23:32:47Z</time>
      </trkpt>
      <trkpt lat="42.749" lon="-0.52534">
        <ele>1689</ele>
        <time>2018-12-26T23:32:53Z</time>
      </trkpt>
      <trkpt lat="42.74925" lon="-0.52537">
        <ele>1692</ele>
        <time>2018-12-26T23:32:59Z</time>
      </trkpt>
      <trkpt lat="42.74943" lon="-0.52548">
        <ele>1697</ele>
        <time>2018-12-26T23:33:05Z</time>
      </trkpt>
      <trkpt lat="42.74954" lon="-0.5257">
        <ele>1702</ele>
        <time>2018-12-26T23:33:10Z</time>
      </trkpt>
      <trkpt lat="42.74925" lon="-0.52565">
        <ele>1701</ele>
        <time>2018-12-26T23:33:17Z</time>
      </trkpt>
      <trkpt lat="42.74941" lon="-0.52574">
        <ele>1705</ele>
        <time>2018-12-26T23:33:22Z</time>
      </trkpt>
      <trkpt lat="42.74966" lon="-0.52611">
        <ele>1708</ele>
        <time>2018-12-26T23:33:32Z</time>
      </trkpt>
      <trkpt lat="42.74989" lon="-0.52615">
        <ele>1703</ele>
        <time>2018-12-26T23:33:38Z</time>
      </trkpt>
      <trkpt lat="42.74999" lon="-0.52626">
        <ele>1704</ele>
        <time>2018-12-26T23:33:41Z</time>
      </trkpt>
      <trkpt lat="42.75011" lon="-0.52659">
        <ele>1710</ele>
        <time>2018-12-26T23:33:49Z</time>
      </trkpt>
      <trkpt lat="42.75022" lon="-0.52668">
        <ele>1712</ele>
        <time>2018-12-26T23:33:52Z</time>
      </trkpt>
      <trkpt lat="42.75042" lon="-0.52668">
        <ele>1710</ele>
        <time>2018-12-26T23:33:57Z</time>
      </trkpt>
      <trkpt lat="42.75057" lon="-0.52675">
        <ele>1715</ele>
        <time>2018-12-26T23:34:02Z</time>
      </trkpt>
      <trkpt lat="42.75062" lon="-0.52679">
        <ele>1718</ele>
        <time>2018-12-26T23:34:03Z</time>
      </trkpt>
      <trkpt lat="42.75083" lon="-0.52687">
        <ele>1724</ele>
        <time>2018-12-26T23:34:09Z</time>
      </trkpt>
      <trkpt lat="42.75099" lon="-0.52685">
        <ele>1718</ele>
        <time>2018-12-26T23:34:13Z</time>
      </trkpt>
      <trkpt lat="42.75109" lon="-0.52686">
        <ele>1715</ele>
        <time>2018-12-26T23:34:16Z</time>
      </trkpt>
      <trkpt lat="42.75144" lon="-0.527">
        <ele>1710</ele>
        <time>2018-12-26T23:34:26Z</time>
      </trkpt>
      <trkpt lat="42.75158" lon="-0.52729">
        <ele>1712</ele>
        <time>2018-12-26T23:34:32Z</time>
      </trkpt>
      <trkpt lat="42.75159" lon="-0.52746">
        <ele>1715</ele>
        <time>2018-12-26T23:34:36Z</time>
      </trkpt>
      <trkpt lat="42.75175" lon="-0.52795">
        <ele>1713</ele>
        <time>2018-12-26T23:34:46Z</time>
      </trkpt>
      <trkpt lat="42.75197" lon="-0.52828">
        <ele>1702</ele>
        <time>2018-12-26T23:34:55Z</time>
      </trkpt>
      <trkpt lat="42.75203" lon="-0.52868">
        <ele>1707</ele>
        <time>2018-12-26T23:35:03Z</time>
      </trkpt>
      <trkpt lat="42.75226" lon="-0.52885">
        <ele>1703</ele>
        <time>2018-12-26T23:35:10Z</time>
      </trkpt>
      <trkpt lat="42.75242" lon="-0.52893">
        <ele>1709</ele>
        <time>2018-12-26T23:35:14Z</time>
      </trkpt>
      <trkpt lat="42.75264" lon="-0.52893">
        <ele>1714</ele>
        <time>2018-12-26T23:35:20Z</time>
      </trkpt>
      <trkpt lat="42.75278" lon="-0.52888">
        <ele>1716</ele>
        <time>2018-12-26T23:35:24Z</time>
      </trkpt>
      <trkpt lat="42.75285" lon="-0.52888">
        <ele>1717</ele>
        <time>2018-12-26T23:35:26Z</time>
      </trkpt>
      <trkpt lat="42.75299" lon="-0.52894">
        <ele>1720</ele>
        <time>2018-12-26T23:35:30Z</time>
      </trkpt>
      <trkpt lat="42.75311" lon="-0.52904">
        <ele>1723</ele>
        <time>2018-12-26T23:35:34Z</time>
      </trkpt>
      <trkpt lat="42.75324" lon="-0.52927">
        <ele>1723</ele>
        <time>2018-12-26T23:35:40Z</time>
      </trkpt>
      <trkpt lat="42.75332" lon="-0.52944">
        <ele>1721</ele>
        <time>2018-12-26T23:35:43Z</time>
      </trkpt>
      <trkpt lat="42.7534" lon="-0.52953">
        <ele>1721</ele>
        <time>2018-12-26T23:35:46Z</time>
      </trkpt>
      <trkpt lat="42.75346" lon="-0.52962">
        <ele>1723</ele>
        <time>2018-12-26T23:35:49Z</time>
      </trkpt>
      <trkpt lat="42.75339" lon="-0.52968">
        <ele>1724</ele>
        <time>2018-12-26T23:35:51Z</time>
      </trkpt>
      <trkpt lat="42.75323" lon="-0.52947">
        <ele>1725</ele>
        <time>2018-12-26T23:35:57Z</time>
      </trkpt>
      <trkpt lat="42.75298" lon="-0.52929">
        <ele>1730</ele>
        <time>2018-12-26T23:36:04Z</time>
      </trkpt>
      <trkpt lat="42.75333" lon="-0.52997">
        <ele>1734</ele>
        <time>2018-12-26T23:36:21Z</time>
      </trkpt>
      <trkpt lat="42.75332" lon="-0.53004">
        <ele>1738</ele>
        <time>2018-12-26T23:36:22Z</time>
      </trkpt>
      <trkpt lat="42.75319" lon="-0.52979">
        <ele>1735</ele>
        <time>2018-12-26T23:36:28Z</time>
      </trkpt>
      <trkpt lat="42.75299" lon="-0.52954">
        <ele>1736</ele>
        <time>2018-12-26T23:36:35Z</time>
      </trkpt>
      <trkpt lat="42.75297" lon="-0.52962">
        <ele>1740</ele>
        <time>2018-12-26T23:36:37Z</time>
      </trkpt>
      <trkpt lat="42.75305" lon="-0.52994">
        <ele>1750</ele>
        <time>2018-12-26T23:36:44Z</time>
      </trkpt>
      <trkpt lat="42.75315" lon="-0.53019">
        <ele>1753</ele>
        <time>2018-12-26T23:36:49Z</time>
      </trkpt>
      <trkpt lat="42.753" lon="-0.52997">
        <ele>1755</ele>
        <time>2018-12-26T23:36:55Z</time>
      </trkpt>
      <trkpt lat="42.75287" lon="-0.52972">
        <ele>1750</ele>
        <time>2018-12-26T23:37:01Z</time>
      </trkpt>
      <trkpt lat="42.75293" lon="-0.53008">
        <ele>1763</ele>
        <time>2018-12-26T23:37:08Z</time>
      </trkpt>
      <trkpt lat="42.75314" lon="-0.53059">
        <ele>1758</ele>
        <time>2018-12-26T23:37:20Z</time>
      </trkpt>
      <trkpt lat="42.75304" lon="-0.53043">
        <ele>1759</ele>
        <time>2018-12-26T23:37:24Z</time>
      </trkpt>
      <trkpt lat="42.7529" lon="-0.53008">
        <ele>1764</ele>
        <time>2018-12-26T23:37:32Z</time>
      </trkpt>
      <trkpt lat="42.75277" lon="-0.52986">
        <ele>1764</ele>
        <time>2018-12-26T23:37:37Z</time>
      </trkpt>
      <trkpt lat="42.75299" lon="-0.53063">
        <ele>1764</ele>
        <time>2018-12-26T23:37:53Z</time>
      </trkpt>
      <trkpt lat="42.75288" lon="-0.53038">
        <ele>1768</ele>
        <time>2018-12-26T23:37:59Z</time>
      </trkpt>
      <trkpt lat="42.75276" lon="-0.53004">
        <ele>1771</ele>
        <time>2018-12-26T23:38:07Z</time>
      </trkpt>
      <trkpt lat="42.75278" lon="-0.53038">
        <ele>1774</ele>
        <time>2018-12-26T23:38:13Z</time>
      </trkpt>
      <trkpt lat="42.75284" lon="-0.53071">
        <ele>1775</ele>
        <time>2018-12-26T23:38:20Z</time>
      </trkpt>
      <trkpt lat="42.75291" lon="-0.53084">
        <ele>1776</ele>
        <time>2018-12-26T23:38:23Z</time>
      </trkpt>
      <trkpt lat="42.75304" lon="-0.53101">
        <ele>1778</ele>
        <time>2018-12-26T23:38:28Z</time>
      </trkpt>
      <trkpt lat="42.75298" lon="-0.53107">
        <ele>1782</ele>
        <time>2018-12-26T23:38:30Z</time>
      </trkpt>
      <trkpt lat="42.75279" lon="-0.53079">
        <ele>1778</ele>
        <time>2018-12-26T23:38:37Z</time>
      </trkpt>
      <trkpt lat="42.75273" lon="-0.53077">
        <ele>1781</ele>
        <time>2018-12-26T23:38:39Z</time>
      </trkpt>
      <trkpt lat="42.75266" lon="-0.53078">
        <ele>1785</ele>
        <time>2018-12-26T23:38:41Z</time>
      </trkpt>
      <trkpt lat="42.75253" lon="-0.53071">
        <ele>1791</ele>
        <time>2018-12-26T23:38:45Z</time>
      </trkpt>
      <trkpt lat="42.75258" lon="-0.53091">
        <ele>1794</ele>
        <time>2018-12-26T23:38:49Z</time>
      </trkpt>
      <trkpt lat="42.75262" lon="-0.53098">
        <ele>1795</ele>
        <time>2018-12-26T23:38:50Z</time>
      </trkpt>
      <trkpt lat="42.75275" lon="-0.53113">
        <ele>1794</ele>
        <time>2018-12-26T23:38:55Z</time>
      </trkpt>
      <trkpt lat="42.75278" lon="-0.5312">
        <ele>1795</ele>
        <time>2018-12-26T23:38:57Z</time>
      </trkpt>
      <trkpt lat="42.75295" lon="-0.53136">
        <ele>1796</ele>
        <time>2018-12-26T23:39:02Z</time>
      </trkpt>
      <trkpt lat="42.75309" lon="-0.53163">
        <ele>1804</ele>
        <time>2018-12-26T23:39:09Z</time>
      </trkpt>
      <trkpt lat="42.75308" lon="-0.53172">
        <ele>1808</ele>
        <time>2018-12-26T23:39:10Z</time>
      </trkpt>
      <trkpt lat="42.75303" lon="-0.53174">
        <ele>1810</ele>
        <time>2018-12-26T23:39:12Z</time>
      </trkpt>
      <trkpt lat="42.75296" lon="-0.53167">
        <ele>1809</ele>
        <time>2018-12-26T23:39:14Z</time>
      </trkpt>
      <trkpt lat="42.75289" lon="-0.53167">
        <ele>1811</ele>
        <time>2018-12-26T23:39:16Z</time>
      </trkpt>
      <trkpt lat="42.75282" lon="-0.53183">
        <ele>1819</ele>
        <time>2018-12-26T23:39:20Z</time>
      </trkpt>
      <trkpt lat="42.75276" lon="-0.53187">
        <ele>1823</ele>
        <time>2018-12-26T23:39:21Z</time>
      </trkpt>
      <trkpt lat="42.75273" lon="-0.53192">
        <ele>1826</ele>
        <time>2018-12-26T23:39:23Z</time>
      </trkpt>
      <trkpt lat="42.75261" lon="-0.532">
        <ele>1833</ele>
        <time>2018-12-26T23:39:26Z</time>
      </trkpt>
      <trkpt lat="42.75254" lon="-0.53228">
        <ele>1846</ele>
        <time>2018-12-26T23:39:32Z</time>
      </trkpt>
      <trkpt lat="42.75248" lon="-0.53219">
        <ele>1845</ele>
        <time>2018-12-26T23:39:35Z</time>
      </trkpt>
      <trkpt lat="42.75237" lon="-0.53235">
        <ele>1854</ele>
        <time>2018-12-26T23:39:39Z</time>
      </trkpt>
      <trkpt lat="42.75227" lon="-0.53234">
        <ele>1855</ele>
        <time>2018-12-26T23:39:41Z</time>
      </trkpt>
      <trkpt lat="42.75222" lon="-0.53237">
        <ele>1857</ele>
        <time>2018-12-26T23:39:43Z</time>
      </trkpt>
      <trkpt lat="42.75205" lon="-0.53248">
        <ele>1868</ele>
        <time>2018-12-26T23:39:48Z</time>
      </trkpt>
      <trkpt lat="42.75203" lon="-0.53256">
        <ele>1874</ele>
        <time>2018-12-26T23:39:50Z</time>
      </trkpt>
      <trkpt lat="42.75196" lon="-0.53255">
        <ele>1876</ele>
        <time>2018-12-26T23:39:51Z</time>
      </trkpt>
      <trkpt lat="42.75195" lon="-0.53267">
        <ele>1883</ele>
        <time>2018-12-26T23:39:54Z</time>
      </trkpt>
      <trkpt lat="42.75183" lon="-0.53263">
        <ele>1887</ele>
        <time>2018-12-26T23:39:57Z</time>
      </trkpt>
      <trkpt lat="42.75173" lon="-0.53268">
        <ele>1894</ele>
        <time>2018-12-26T23:40:00Z</time>
      </trkpt>
      <trkpt lat="42.75166" lon="-0.53278">
        <ele>1901</ele>
        <time>2018-12-26T23:40:03Z</time>
      </trkpt>
      <trkpt lat="42.75165" lon="-0.53287">
        <ele>1907</ele>
        <time>2018-12-26T23:40:04Z</time>
      </trkpt>
      <trkpt lat="42.75161" lon="-0.53283">
        <ele>1908</ele>
        <time>2018-12-26T23:40:06Z</time>
      </trkpt>
      <trkpt lat="42.75154" lon="-0.53281">
        <ele>1912</ele>
        <time>2018-12-26T23:40:08Z</time>
      </trkpt>
      <trkpt lat="42.75145" lon="-0.53288">
        <ele>1921</ele>
        <time>2018-12-26T23:40:10Z</time>
      </trkpt>
      <trkpt lat="42.75143" lon="-0.53298">
        <ele>1924</ele>
        <time>2018-12-26T23:40:12Z</time>
      </trkpt>
      <trkpt lat="42.75134" lon="-0.53306">
        <ele>1929</ele>
        <time>2018-12-26T23:40:15Z</time>
      </trkpt>
      <trkpt lat="42.75128" lon="-0.53317">
        <ele>1941</ele>
        <time>2018-12-26T23:40:18Z</time>
      </trkpt>
      <trkpt lat="42.7512" lon="-0.53318">
        <ele>1946</ele>
        <time>2018-12-26T23:40:20Z</time>
      </trkpt>
      <trkpt lat="42.75113" lon="-0.53316">
        <ele>1948</ele>
        <time>2018-12-26T23:40:22Z</time>
      </trkpt>
      <trkpt lat="42.75111" lon="-0.53322">
        <ele>1953</ele>
        <time>2018-12-26T23:40:23Z</time>
      </trkpt>
      <trkpt lat="42.75111" lon="-0.53338">
        <ele>1961</ele>
        <time>2018-12-26T23:40:26Z</time>
      </trkpt>
      <trkpt lat="42.75106" lon="-0.53351">
        <ele>1965</ele>
        <time>2018-12-26T23:40:29Z</time>
      </trkpt>
      <trkpt lat="42.75096" lon="-0.53354">
        <ele>1969</ele>
        <time>2018-12-26T23:40:32Z</time>
      </trkpt>
      <trkpt lat="42.75094" lon="-0.53362">
        <ele>1973</ele>
        <time>2018-12-26T23:40:33Z</time>
      </trkpt>
      <trkpt lat="42.7509" lon="-0.53368">
        <ele>1978</ele>
        <time>2018-12-26T23:40:35Z</time>
      </trkpt>
      <trkpt lat="42.75082" lon="-0.5337">
        <ele>1983</ele>
        <time>2018-12-26T23:40:37Z</time>
      </trkpt>
      <trkpt lat="42.75074" lon="-0.53364">
        <ele>1985</ele>
        <time>2018-12-26T23:40:40Z</time>
      </trkpt>
      <trkpt lat="42.75069" lon="-0.53363">
        <ele>1988</ele>
        <time>2018-12-26T23:40:41Z</time>
      </trkpt>
      <trkpt lat="42.75064" lon="-0.53369">
        <ele>1994</ele>
        <time>2018-12-26T23:40:43Z</time>
      </trkpt>
      <trkpt lat="42.75058" lon="-0.53372">
        <ele>1998</ele>
        <time>2018-12-26T23:40:44Z</time>
      </trkpt>
      <trkpt lat="42.7505" lon="-0.53373">
        <ele>2005</ele>
        <time>2018-12-26T23:40:47Z</time>
      </trkpt>
      <trkpt lat="42.75044" lon="-0.53375">
        <ele>2010</ele>
        <time>2018-12-26T23:40:48Z</time>
      </trkpt>
      <trkpt lat="42.75041" lon="-0.53392">
        <ele>2015</ele>
        <time>2018-12-26T23:40:52Z</time>
      </trkpt>
      <trkpt lat="42.75044" lon="-0.5341">
        <ele>2021</ele>
        <time>2018-12-26T23:40:55Z</time>
      </trkpt>
      <trkpt lat="42.75037" lon="-0.53411">
        <ele>2025</ele>
        <time>2018-12-26T23:40:57Z</time>
      </trkpt>
      <trkpt lat="42.75036" lon="-0.53421">
        <ele>2030</ele>
        <time>2018-12-26T23:40:59Z</time>
      </trkpt>
      <trkpt lat="42.75037" lon="-0.5344">
        <ele>2034</ele>
        <time>2018-12-26T23:41:03Z</time>
      </trkpt>
      <trkpt lat="42.75027" lon="-0.53436">
        <ele>2044</ele>
        <time>2018-12-26T23:41:06Z</time>
      </trkpt>
      <trkpt lat="42.75021" lon="-0.53442">
        <ele>2051</ele>
        <time>2018-12-26T23:41:08Z</time>
      </trkpt>
      <trkpt lat="42.75014" lon="-0.53439">
        <ele>2053</ele>
        <time>2018-12-26T23:41:10Z</time>
      </trkpt>
      <trkpt lat="42.75008" lon="-0.53443">
        <ele>2059</ele>
        <time>2018-12-26T23:41:12Z</time>
      </trkpt>
      <trkpt lat="42.75003" lon="-0.53442">
        <ele>2062</ele>
        <time>2018-12-26T23:41:13Z</time>
      </trkpt>
      <trkpt lat="42.74994" lon="-0.53438">
        <ele>2064</ele>
        <time>2018-12-26T23:41:15Z</time>
      </trkpt>
      <trkpt lat="42.7499" lon="-0.53442">
        <ele>2067</ele>
        <time>2018-12-26T23:41:17Z</time>
      </trkpt>
      <trkpt lat="42.74979" lon="-0.53449">
        <ele>2074</ele>
        <time>2018-12-26T23:41:20Z</time>
      </trkpt>
      <trkpt lat="42.74971" lon="-0.53452">
        <ele>2077</ele>
        <time>2018-12-26T23:41:22Z</time>
      </trkpt>
      <trkpt lat="42.74965" lon="-0.53453">
        <ele>2078</ele>
        <time>2018-12-26T23:41:24Z</time>
      </trkpt>
      <trkpt lat="42.7496" lon="-0.53452">
        <ele>2079</ele>
        <time>2018-12-26T23:41:25Z</time>
      </trkpt>
      <trkpt lat="42.74955" lon="-0.53457">
        <ele>2081</ele>
        <time>2018-12-26T23:41:27Z</time>
      </trkpt>
      <trkpt lat="42.74941" lon="-0.53468">
        <ele>2087</ele>
        <time>2018-12-26T23:41:31Z</time>
      </trkpt>
      <trkpt lat="42.74936" lon="-0.53458">
        <ele>2084</ele>
        <time>2018-12-26T23:41:33Z</time>
      </trkpt>
      <trkpt lat="42.74937" lon="-0.53437">
        <ele>2075</ele>
        <time>2018-12-26T23:41:38Z</time>
      </trkpt>
      <trkpt lat="42.74931" lon="-0.53441">
        <ele>2078</ele>
        <time>2018-12-26T23:41:39Z</time>
      </trkpt>
      <trkpt lat="42.74928" lon="-0.53449">
        <ele>2081</ele>
        <time>2018-12-26T23:41:41Z</time>
      </trkpt>
      <trkpt lat="42.74919" lon="-0.53463">
        <ele>2085</ele>
        <time>2018-12-26T23:41:45Z</time>
      </trkpt>
      <trkpt lat="42.7492" lon="-0.5347">
        <ele>2087</ele>
        <time>2018-12-26T23:41:46Z</time>
      </trkpt>
      <trkpt lat="42.74897" lon="-0.53499">
        <ele>2088</ele>
        <time>2018-12-26T23:41:54Z</time>
      </trkpt>
      <trkpt lat="42.74888" lon="-0.53499">
        <ele>2084</ele>
        <time>2018-12-26T23:41:57Z</time>
      </trkpt>
      <trkpt lat="42.74865" lon="-0.53514">
        <ele>2080</ele>
        <time>2018-12-26T23:42:04Z</time>
      </trkpt>
      <trkpt lat="42.74871" lon="-0.53527">
        <ele>2084</ele>
        <time>2018-12-26T23:42:07Z</time>
      </trkpt>
      <trkpt lat="42.74871" lon="-0.53537">
        <ele>2093</ele>
        <time>2018-12-26T23:42:09Z</time>
      </trkpt>
      <trkpt lat="42.74857" lon="-0.53523">
        <ele>2078</ele>
        <time>2018-12-26T23:42:13Z</time>
      </trkpt>
      <trkpt lat="42.74849" lon="-0.5352">
        <ele>2074</ele>
        <time>2018-12-26T23:42:16Z</time>
      </trkpt>
      <trkpt lat="42.74845" lon="-0.53524">
        <ele>2074</ele>
        <time>2018-12-26T23:42:17Z</time>
      </trkpt>
      <trkpt lat="42.74832" lon="-0.53528">
        <ele>2072</ele>
        <time>2018-12-26T23:42:21Z</time>
      </trkpt>
      <trkpt lat="42.74818" lon="-0.53543">
        <ele>2085</ele>
        <time>2018-12-26T23:42:25Z</time>
      </trkpt>
      <trkpt lat="42.74808" lon="-0.53545">
        <ele>2086</ele>
        <time>2018-12-26T23:42:28Z</time>
      </trkpt>
      <trkpt lat="42.74804" lon="-0.53557">
        <ele>2099</ele>
        <time>2018-12-26T23:42:30Z</time>
      </trkpt>
      <trkpt lat="42.74803" lon="-0.53564">
        <ele>2107</ele>
        <time>2018-12-26T23:42:32Z</time>
      </trkpt>
      <trkpt lat="42.74789" lon="-0.53567">
        <ele>2103</ele>
        <time>2018-12-26T23:42:36Z</time>
      </trkpt>
      <trkpt lat="42.74786" lon="-0.53576">
        <ele>2110</ele>
        <time>2018-12-26T23:42:37Z</time>
      </trkpt>
      <trkpt lat="42.74781" lon="-0.53584">
        <ele>2114</ele>
        <time>2018-12-26T23:42:40Z</time>
      </trkpt>
      <trkpt lat="42.74772" lon="-0.53594">
        <ele>2121</ele>
        <time>2018-12-26T23:42:43Z</time>
      </trkpt>
      <trkpt lat="42.74758" lon="-0.5359">
        <ele>2103</ele>
        <time>2018-12-26T23:42:47Z</time>
      </trkpt>
      <trkpt lat="42.74747" lon="-0.53591">
        <ele>2100</ele>
        <time>2018-12-26T23:42:49Z</time>
      </trkpt>
      <trkpt lat="42.74743" lon="-0.53596">
        <ele>2109</ele>
        <time>2018-12-26T23:42:51Z</time>
      </trkpt>
      <trkpt lat="42.74736" lon="-0.53594">
        <ele>2107</ele>
        <time>2018-12-26T23:42:53Z</time>
      </trkpt>
      <trkpt lat="42.74734" lon="-0.536">
        <ele>2116</ele>
        <time>2018-12-26T23:42:54Z</time>
      </trkpt>
      <trkpt lat="42.74728" lon="-0.53598">
        <ele>2114</ele>
        <time>2018-12-26T23:42:56Z</time>
      </trkpt>
      <trkpt lat="42.74716" lon="-0.53598">
        <ele>2116</ele>
        <time>2018-12-26T23:42:59Z</time>
      </trkpt>
      <trkpt lat="42.74703" lon="-0.53615">
        <ele>2134</ele>
        <time>2018-12-26T23:43:04Z</time>
      </trkpt>
      <trkpt lat="42.74693" lon="-0.53624">
        <ele>2140</ele>
        <time>2018-12-26T23:43:07Z</time>
      </trkpt>
      <trkpt lat="42.74682" lon="-0.53619">
        <ele>2142</ele>
        <time>2018-12-26T23:43:10Z</time>
      </trkpt>
      <trkpt lat="42.74676" lon="-0.53626">
        <ele>2149</ele>
        <time>2018-12-26T23:43:12Z</time>
      </trkpt>
      <trkpt lat="42.74673" lon="-0.5362">
        <ele>2147</ele>
        <time>2018-12-26T23:43:14Z</time>
      </trkpt>
      <trkpt lat="42.74663" lon="-0.53617">
        <ele>2147</ele>
        <time>2018-12-26T23:43:16Z</time>
      </trkpt>
      <trkpt lat="42.74654" lon="-0.53618">
        <ele>2146</ele>
        <time>2018-12-26T23:43:19Z</time>
      </trkpt>
      <trkpt lat="42.74623" lon="-0.53646">
        <ele>2153</ele>
        <time>2018-12-26T23:43:29Z</time>
      </trkpt>
      <trkpt lat="42.74607" lon="-0.53654">
        <ele>2150</ele>
        <time>2018-12-26T23:43:33Z</time>
      </trkpt>
      <trkpt lat="42.74605" lon="-0.53659">
        <ele>2150</ele>
        <time>2018-12-26T23:43:34Z</time>
      </trkpt>
      <trkpt lat="42.74611" lon="-0.53663">
        <ele>2151</ele>
        <time>2018-12-26T23:43:36Z</time>
      </trkpt>
      <trkpt lat="42.74604" lon="-0.53666">
        <ele>2151</ele>
        <time>2018-12-26T23:43:38Z</time>
      </trkpt>
      <trkpt lat="42.746" lon="-0.53677">
        <ele>2151</ele>
        <time>2018-12-26T23:43:41Z</time>
      </trkpt>
      <trkpt lat="42.74595" lon="-0.53677">
        <ele>2149</ele>
        <time>2018-12-26T23:43:42Z</time>
      </trkpt>
      <trkpt lat="42.74591" lon="-0.53683">
        <ele>2148</ele>
        <time>2018-12-26T23:43:43Z</time>
      </trkpt>
      <trkpt lat="42.74593" lon="-0.53689">
        <ele>2147</ele>
        <time>2018-12-26T23:43:45Z</time>
      </trkpt>
      <trkpt lat="42.74586" lon="-0.53695">
        <ele>2144</ele>
        <time>2018-12-26T23:43:47Z</time>
      </trkpt>
      <trkpt lat="42.74578" lon="-0.53692">
        <ele>2142</ele>
        <time>2018-12-26T23:43:49Z</time>
      </trkpt>
      <trkpt lat="42.74569" lon="-0.53696">
        <ele>2138</ele>
        <time>2018-12-26T23:43:52Z</time>
      </trkpt>
      <trkpt lat="42.7456" lon="-0.53704">
        <ele>2135</ele>
        <time>2018-12-26T23:43:55Z</time>
      </trkpt>
      <trkpt lat="42.74552" lon="-0.53704">
        <ele>2133</ele>
        <time>2018-12-26T23:43:57Z</time>
      </trkpt>
      <trkpt lat="42.74548" lon="-0.53714">
        <ele>2132</ele>
        <time>2018-12-26T23:43:59Z</time>
      </trkpt>
      <trkpt lat="42.74531" lon="-0.53744">
        <ele>2116</ele>
        <time>2018-12-26T23:44:06Z</time>
      </trkpt>
      <trkpt lat="42.74506" lon="-0.53771">
        <ele>2100</ele>
        <time>2018-12-26T23:44:15Z</time>
      </trkpt>
      <trkpt lat="42.74494" lon="-0.53772">
        <ele>2098</ele>
        <time>2018-12-26T23:44:18Z</time>
      </trkpt>
      <trkpt lat="42.74484" lon="-0.53794">
        <ele>2086</ele>
        <time>2018-12-26T23:44:23Z</time>
      </trkpt>
      <trkpt lat="42.74484" lon="-0.53802">
        <ele>2081</ele>
        <time>2018-12-26T23:44:25Z</time>
      </trkpt>
      <trkpt lat="42.74476" lon="-0.5382">
        <ele>2074</ele>
        <time>2018-12-26T23:44:29Z</time>
      </trkpt>
      <trkpt lat="42.74472" lon="-0.53824">
        <ele>2073</ele>
        <time>2018-12-26T23:44:30Z</time>
      </trkpt>
      <trkpt lat="42.74471" lon="-0.53831">
        <ele>2071</ele>
        <time>2018-12-26T23:44:31Z</time>
      </trkpt>
      <trkpt lat="42.74467" lon="-0.53836">
        <ele>2070</ele>
        <time>2018-12-26T23:44:33Z</time>
      </trkpt>
      <trkpt lat="42.7447" lon="-0.53848">
        <ele>2068</ele>
        <time>2018-12-26T23:44:36Z</time>
      </trkpt>
      <trkpt lat="42.74471" lon="-0.53859">
        <ele>2067</ele>
        <time>2018-12-26T23:44:38Z</time>
      </trkpt>
      <trkpt lat="42.74466" lon="-0.53865">
        <ele>2065</ele>
        <time>2018-12-26T23:44:39Z</time>
      </trkpt>
      <trkpt lat="42.74466" lon="-0.53877">
        <ele>2061</ele>
        <time>2018-12-26T23:44:42Z</time>
      </trkpt>
      <trkpt lat="42.74471" lon="-0.53893">
        <ele>2058</ele>
        <time>2018-12-26T23:44:45Z</time>
      </trkpt>
      <trkpt lat="42.74483" lon="-0.53898">
        <ele>2061</ele>
        <time>2018-12-26T23:44:49Z</time>
      </trkpt>
      <trkpt lat="42.74496" lon="-0.53908">
        <ele>2062</ele>
        <time>2018-12-26T23:44:53Z</time>
      </trkpt>
      <trkpt lat="42.74539" lon="-0.53902">
        <ele>2069</ele>
        <time>2018-12-26T23:45:04Z</time>
      </trkpt>
      <trkpt lat="42.7455" lon="-0.53903">
        <ele>2071</ele>
        <time>2018-12-26T23:45:07Z</time>
      </trkpt>
      <trkpt lat="42.74564" lon="-0.53907">
        <ele>2073</ele>
        <time>2018-12-26T23:45:11Z</time>
      </trkpt>
      <trkpt lat="42.74571" lon="-0.53902">
        <ele>2075</ele>
        <time>2018-12-26T23:45:13Z</time>
      </trkpt>
      <trkpt lat="42.74582" lon="-0.53911">
        <ele>2075</ele>
        <time>2018-12-26T23:45:17Z</time>
      </trkpt>
      <trkpt lat="42.74592" lon="-0.53914">
        <ele>2077</ele>
        <time>2018-12-26T23:45:19Z</time>
      </trkpt>
      <trkpt lat="42.74598" lon="-0.53922">
        <ele>2078</ele>
        <time>2018-12-26T23:45:22Z</time>
      </trkpt>
      <trkpt lat="42.74615" lon="-0.53932">
        <ele>2083</ele>
        <time>2018-12-26T23:45:26Z</time>
      </trkpt>
      <trkpt lat="42.74619" lon="-0.53941">
        <ele>2083</ele>
        <time>2018-12-26T23:45:28Z</time>
      </trkpt>
      <trkpt lat="42.74641" lon="-0.53972">
        <ele>2086</ele>
        <time>2018-12-26T23:45:37Z</time>
      </trkpt>
      <trkpt lat="42.74651" lon="-0.53971">
        <ele>2086</ele>
        <time>2018-12-26T23:45:40Z</time>
      </trkpt>
      <trkpt lat="42.74678" lon="-0.53985">
        <ele>2093</ele>
        <time>2018-12-26T23:45:47Z</time>
      </trkpt>
      <trkpt lat="42.74698" lon="-0.53985">
        <ele>2094</ele>
        <time>2018-12-26T23:45:53Z</time>
      </trkpt>
      <trkpt lat="42.74714" lon="-0.53976">
        <ele>2095</ele>
        <time>2018-12-26T23:45:57Z</time>
      </trkpt>
      <trkpt lat="42.74721" lon="-0.53969">
        <ele>2097</ele>
        <time>2018-12-26T23:46:00Z</time>
      </trkpt>
      <trkpt lat="42.7473" lon="-0.53975">
        <ele>2100</ele>
        <time>2018-12-26T23:46:02Z</time>
      </trkpt>
      <trkpt lat="42.74748" lon="-0.53977">
        <ele>2107</ele>
        <time>2018-12-26T23:46:07Z</time>
      </trkpt>
      <trkpt lat="42.74756" lon="-0.53994">
        <ele>2111</ele>
        <time>2018-12-26T23:46:11Z</time>
      </trkpt>
      <trkpt lat="42.74765" lon="-0.53998">
        <ele>2116</ele>
        <time>2018-12-26T23:46:14Z</time>
      </trkpt>
      <trkpt lat="42.74779" lon="-0.54009">
        <ele>2123</ele>
        <time>2018-12-26T23:46:18Z</time>
      </trkpt>
      <trkpt lat="42.74787" lon="-0.54009">
        <ele>2126</ele>
        <time>2018-12-26T23:46:20Z</time>
      </trkpt>
      <trkpt lat="42.74796" lon="-0.54019">
        <ele>2129</ele>
        <time>2018-12-26T23:46:23Z</time>
      </trkpt>
      <trkpt lat="42.74808" lon="-0.54022">
        <ele>2133</ele>
        <time>2018-12-26T23:46:27Z</time>
      </trkpt>
      <trkpt lat="42.74817" lon="-0.54021">
        <ele>2135</ele>
        <time>2018-12-26T23:46:29Z</time>
      </trkpt>
      <trkpt lat="42.74829" lon="-0.54027">
        <ele>2139</ele>
        <time>2018-12-26T23:46:32Z</time>
      </trkpt>
      <trkpt lat="42.74853" lon="-0.54015">
        <ele>2145</ele>
        <time>2018-12-26T23:46:39Z</time>
      </trkpt>
      <trkpt lat="42.74858" lon="-0.54014">
        <ele>2147</ele>
        <time>2018-12-26T23:46:41Z</time>
      </trkpt>
      <trkpt lat="42.74875" lon="-0.5402">
        <ele>2158</ele>
        <time>2018-12-26T23:46:45Z</time>
      </trkpt>
      <trkpt lat="42.74888" lon="-0.54013">
        <ele>2169</ele>
        <time>2018-12-26T23:46:49Z</time>
      </trkpt>
      <trkpt lat="42.74918" lon="-0.54016">
        <ele>2181</ele>
        <time>2018-12-26T23:46:57Z</time>
      </trkpt>
      <trkpt lat="42.7493" lon="-0.54026">
        <ele>2180</ele>
        <time>2018-12-26T23:47:01Z</time>
      </trkpt>
      <trkpt lat="42.74943" lon="-0.54049">
        <ele>2183</ele>
        <time>2018-12-26T23:47:07Z</time>
      </trkpt>
      <trkpt lat="42.74946" lon="-0.54058">
        <ele>2185</ele>
        <time>2018-12-26T23:47:08Z</time>
      </trkpt>
      <trkpt lat="42.7496" lon="-0.54079">
        <ele>2200</ele>
        <time>2018-12-26T23:47:14Z</time>
      </trkpt>
      <trkpt lat="42.7497" lon="-0.54082">
        <ele>2204</ele>
        <time>2018-12-26T23:47:16Z</time>
      </trkpt>
      <trkpt lat="42.74977" lon="-0.54081">
        <ele>2207</ele>
        <time>2018-12-26T23:47:18Z</time>
      </trkpt>
      <trkpt lat="42.74975" lon="-0.54093">
        <ele>2208</ele>
        <time>2018-12-26T23:47:21Z</time>
      </trkpt>
      <trkpt lat="42.74982" lon="-0.54119">
        <ele>2212</ele>
        <time>2018-12-26T23:47:26Z</time>
      </trkpt>
      <trkpt lat="42.74984" lon="-0.54129">
        <ele>2210</ele>
        <time>2018-12-26T23:47:28Z</time>
      </trkpt>
      <trkpt lat="42.74983" lon="-0.54143">
        <ele>2207</ele>
        <time>2018-12-26T23:47:31Z</time>
      </trkpt>
      <trkpt lat="42.74979" lon="-0.54161">
        <ele>2199</ele>
        <time>2018-12-26T23:47:35Z</time>
      </trkpt>
      <trkpt lat="42.74966" lon="-0.54204">
        <ele>2180</ele>
        <time>2018-12-26T23:47:44Z</time>
      </trkpt>
      <trkpt lat="42.74968" lon="-0.54214">
        <ele>2174</ele>
        <time>2018-12-26T23:47:46Z</time>
      </trkpt>
      <trkpt lat="42.74972" lon="-0.54222">
        <ele>2170</ele>
        <time>2018-12-26T23:47:48Z</time>
      </trkpt>
      <trkpt lat="42.74971" lon="-0.5423">
        <ele>2167</ele>
        <time>2018-12-26T23:47:49Z</time>
      </trkpt>
      <trkpt lat="42.74958" lon="-0.54257">
        <ele>2156</ele>
        <time>2018-12-26T23:47:56Z</time>
      </trkpt>
      <trkpt lat="42.74958" lon="-0.54268">
        <ele>2152</ele>
        <time>2018-12-26T23:47:58Z</time>
      </trkpt>
      <trkpt lat="42.74955" lon="-0.54274">
        <ele>2149</ele>
        <time>2018-12-26T23:47:59Z</time>
      </trkpt>
      <trkpt lat="42.7495" lon="-0.54301">
        <ele>2136</ele>
        <time>2018-12-26T23:48:05Z</time>
      </trkpt>
      <trkpt lat="42.74946" lon="-0.54305">
        <ele>2133</ele>
        <time>2018-12-26T23:48:06Z</time>
      </trkpt>
      <trkpt lat="42.7494" lon="-0.54322">
        <ele>2122</ele>
        <time>2018-12-26T23:48:10Z</time>
      </trkpt>
      <trkpt lat="42.74938" lon="-0.54348">
        <ele>2109</ele>
        <time>2018-12-26T23:48:15Z</time>
      </trkpt>
      <trkpt lat="42.74939" lon="-0.54357">
        <ele>2104</ele>
        <time>2018-12-26T23:48:17Z</time>
      </trkpt>
      <trkpt lat="42.74932" lon="-0.54379">
        <ele>2096</ele>
        <time>2018-12-26T23:48:21Z</time>
      </trkpt>
      <trkpt lat="42.7493" lon="-0.54396">
        <ele>2091</ele>
        <time>2018-12-26T23:48:25Z</time>
      </trkpt>
      <trkpt lat="42.74927" lon="-0.544">
        <ele>2089</ele>
        <time>2018-12-26T23:48:26Z</time>
      </trkpt>
      <trkpt lat="42.74927" lon="-0.54414">
        <ele>2085</ele>
        <time>2018-12-26T23:48:29Z</time>
      </trkpt>
      <trkpt lat="42.74925" lon="-0.54426">
        <ele>2082</ele>
        <time>2018-12-26T23:48:31Z</time>
      </trkpt>
      <trkpt lat="42.74919" lon="-0.5445">
        <ele>2074</ele>
        <time>2018-12-26T23:48:36Z</time>
      </trkpt>
      <trkpt lat="42.74913" lon="-0.54504">
        <ele>2070</ele>
        <time>2018-12-26T23:48:47Z</time>
      </trkpt>
      <trkpt lat="42.74908" lon="-0.54507">
        <ele>2067</ele>
        <time>2018-12-26T23:48:48Z</time>
      </trkpt>
      <trkpt lat="42.74903" lon="-0.54508">
        <ele>2062</ele>
        <time>2018-12-26T23:48:50Z</time>
      </trkpt>
      <trkpt lat="42.74898" lon="-0.54506">
        <ele>2058</ele>
        <time>2018-12-26T23:48:51Z</time>
      </trkpt>
      <trkpt lat="42.74893" lon="-0.545">
        <ele>2054</ele>
        <time>2018-12-26T23:48:53Z</time>
      </trkpt>
      <trkpt lat="42.74887" lon="-0.54495">
        <ele>2050</ele>
        <time>2018-12-26T23:48:55Z</time>
      </trkpt>
      <trkpt lat="42.74875" lon="-0.54498">
        <ele>2040</ele>
        <time>2018-12-26T23:48:58Z</time>
      </trkpt>
      <trkpt lat="42.74867" lon="-0.54498">
        <ele>2033</ele>
        <time>2018-12-26T23:49:00Z</time>
      </trkpt>
      <trkpt lat="42.7486" lon="-0.54503">
        <ele>2027</ele>
        <time>2018-12-26T23:49:02Z</time>
      </trkpt>
      <trkpt lat="42.74856" lon="-0.54504">
        <ele>2026</ele>
        <time>2018-12-26T23:49:03Z</time>
      </trkpt>
      <trkpt lat="42.74842" lon="-0.54512">
        <ele>2021</ele>
        <time>2018-12-26T23:49:07Z</time>
      </trkpt>
      <trkpt lat="42.74835" lon="-0.54514">
        <ele>2018</ele>
        <time>2018-12-26T23:49:09Z</time>
      </trkpt>
      <trkpt lat="42.7483" lon="-0.54518">
        <ele>2017</ele>
        <time>2018-12-26T23:49:11Z</time>
      </trkpt>
      <trkpt lat="42.74816" lon="-0.54509">
        <ele>2016</ele>
        <time>2018-12-26T23:49:15Z</time>
      </trkpt>
      <trkpt lat="42.74811" lon="-0.54512">
        <ele>2016</ele>
        <time>2018-12-26T23:49:16Z</time>
      </trkpt>
      <trkpt lat="42.748" lon="-0.54513">
        <ele>2015</ele>
        <time>2018-12-26T23:49:19Z</time>
      </trkpt>
      <trkpt lat="42.74789" lon="-0.54526">
        <ele>2008</ele>
        <time>2018-12-26T23:49:23Z</time>
      </trkpt>
      <trkpt lat="42.74783" lon="-0.54526">
        <ele>2006</ele>
        <time>2018-12-26T23:49:25Z</time>
      </trkpt>
      <trkpt lat="42.74778" lon="-0.54534">
        <ele>2001</ele>
        <time>2018-12-26T23:49:27Z</time>
      </trkpt>
      <trkpt lat="42.74778" lon="-0.54542">
        <ele>2000</ele>
        <time>2018-12-26T23:49:29Z</time>
      </trkpt>
      <trkpt lat="42.74771" lon="-0.54545">
        <ele>2000</ele>
        <time>2018-12-26T23:49:31Z</time>
      </trkpt>
      <trkpt lat="42.74764" lon="-0.54552">
        <ele>1998</ele>
        <time>2018-12-26T23:49:33Z</time>
      </trkpt>
      <trkpt lat="42.74756" lon="-0.54569">
        <ele>1992</ele>
        <time>2018-12-26T23:49:37Z</time>
      </trkpt>
      <trkpt lat="42.74752" lon="-0.54572">
        <ele>1991</ele>
        <time>2018-12-26T23:49:38Z</time>
      </trkpt>
      <trkpt lat="42.74746" lon="-0.54592">
        <ele>1987</ele>
        <time>2018-12-26T23:49:42Z</time>
      </trkpt>
      <trkpt lat="42.74739" lon="-0.54604">
        <ele>1983</ele>
        <time>2018-12-26T23:49:46Z</time>
      </trkpt>
      <trkpt lat="42.7473" lon="-0.54609">
        <ele>1976</ele>
        <time>2018-12-26T23:49:48Z</time>
      </trkpt>
      <trkpt lat="42.74717" lon="-0.54611">
        <ele>1967</ele>
        <time>2018-12-26T23:49:52Z</time>
      </trkpt>
      <trkpt lat="42.74688" lon="-0.54626">
        <ele>1957</ele>
        <time>2018-12-26T23:50:00Z</time>
      </trkpt>
      <trkpt lat="42.74646" lon="-0.54639">
        <ele>1937</ele>
        <time>2018-12-26T23:50:11Z</time>
      </trkpt>
      <trkpt lat="42.74631" lon="-0.54645">
        <ele>1934</ele>
        <time>2018-12-26T23:50:15Z</time>
      </trkpt>
      <trkpt lat="42.7461" lon="-0.54648">
        <ele>1929</ele>
        <time>2018-12-26T23:50:21Z</time>
      </trkpt>
      <trkpt lat="42.74601" lon="-0.54654">
        <ele>1930</ele>
        <time>2018-12-26T23:50:24Z</time>
      </trkpt>
      <trkpt lat="42.74568" lon="-0.54659">
        <ele>1934</ele>
        <time>2018-12-26T23:50:33Z</time>
      </trkpt>
      <trkpt lat="42.74552" lon="-0.54666">
        <ele>1933</ele>
        <time>2018-12-26T23:50:37Z</time>
      </trkpt>
      <trkpt lat="42.74544" lon="-0.54667">
        <ele>1933</ele>
        <time>2018-12-26T23:50:39Z</time>
      </trkpt>
      <trkpt lat="42.74536" lon="-0.54673">
        <ele>1933</ele>
        <time>2018-12-26T23:50:42Z</time>
      </trkpt>
      <trkpt lat="42.74534" lon="-0.5469">
        <ele>1936</ele>
        <time>2018-12-26T23:50:45Z</time>
      </trkpt>
      <trkpt lat="42.74534" lon="-0.547">
        <ele>1940</ele>
        <time>2018-12-26T23:50:47Z</time>
      </trkpt>
      <trkpt lat="42.74549" lon="-0.54701">
        <ele>1946</ele>
        <time>2018-12-26T23:50:51Z</time>
      </trkpt>
      <trkpt lat="42.74546" lon="-0.54709">
        <ele>1951</ele>
        <time>2018-12-26T23:50:53Z</time>
      </trkpt>
      <trkpt lat="42.7454" lon="-0.54712">
        <ele>1951</ele>
        <time>2018-12-26T23:50:54Z</time>
      </trkpt>
      <trkpt lat="42.74533" lon="-0.54719">
        <ele>1952</ele>
        <time>2018-12-26T23:50:57Z</time>
      </trkpt>
      <trkpt lat="42.74532" lon="-0.54731">
        <ele>1957</ele>
        <time>2018-12-26T23:50:59Z</time>
      </trkpt>
      <trkpt lat="42.7452" lon="-0.54743">
        <ele>1956</ele>
        <time>2018-12-26T23:51:03Z</time>
      </trkpt>
      <trkpt lat="42.74513" lon="-0.54755">
        <ele>1956</ele>
        <time>2018-12-26T23:51:06Z</time>
      </trkpt>
      <trkpt lat="42.74509" lon="-0.54761">
        <ele>1955</ele>
        <time>2018-12-26T23:51:08Z</time>
      </trkpt>
      <trkpt lat="42.74503" lon="-0.54783">
        <ele>1953</ele>
        <time>2018-12-26T23:51:12Z</time>
      </trkpt>
      <trkpt lat="42.74501" lon="-0.54796">
        <ele>1952</ele>
        <time>2018-12-26T23:51:15Z</time>
      </trkpt>
      <trkpt lat="42.74493" lon="-0.54822">
        <ele>1950</ele>
        <time>2018-12-26T23:51:20Z</time>
      </trkpt>
      <trkpt lat="42.74493" lon="-0.54831">
        <ele>1951</ele>
        <time>2018-12-26T23:51:22Z</time>
      </trkpt>
      <trkpt lat="42.74488" lon="-0.54852">
        <ele>1950</ele>
        <time>2018-12-26T23:51:26Z</time>
      </trkpt>
      <trkpt lat="42.7448" lon="-0.54873">
        <ele>1946</ele>
        <time>2018-12-26T23:51:31Z</time>
      </trkpt>
      <trkpt lat="42.74475" lon="-0.54895">
        <ele>1942</ele>
        <time>2018-12-26T23:51:35Z</time>
      </trkpt>
      <trkpt lat="42.74476" lon="-0.54928">
        <ele>1936</ele>
        <time>2018-12-26T23:51:42Z</time>
      </trkpt>
      <trkpt lat="42.74483" lon="-0.54947">
        <ele>1938</ele>
        <time>2018-12-26T23:51:46Z</time>
      </trkpt>
      <trkpt lat="42.74475" lon="-0.54983">
        <ele>1933</ele>
        <time>2018-12-26T23:51:54Z</time>
      </trkpt>
      <trkpt lat="42.74468" lon="-0.55006">
        <ele>1928</ele>
        <time>2018-12-26T23:51:58Z</time>
      </trkpt>
      <trkpt lat="42.74458" lon="-0.55016">
        <ele>1925</ele>
        <time>2018-12-26T23:52:02Z</time>
      </trkpt>
      <trkpt lat="42.7445" lon="-0.55021">
        <ele>1924</ele>
        <time>2018-12-26T23:52:04Z</time>
      </trkpt>
      <trkpt lat="42.74431" lon="-0.55042">
        <ele>1922</ele>
        <time>2018-12-26T23:52:10Z</time>
      </trkpt>
      <trkpt lat="42.74418" lon="-0.55078">
        <ele>1914</ele>
        <time>2018-12-26T23:52:19Z</time>
      </trkpt>
      <trkpt lat="42.7442" lon="-0.55086">
        <ele>1912</ele>
        <time>2018-12-26T23:52:20Z</time>
      </trkpt>
      <trkpt lat="42.74423" lon="-0.55116">
        <ele>1907</ele>
        <time>2018-12-26T23:52:26Z</time>
      </trkpt>
      <trkpt lat="42.7442" lon="-0.55124">
        <ele>1906</ele>
        <time>2018-12-26T23:52:28Z</time>
      </trkpt>
      <trkpt lat="42.74419" lon="-0.55136">
        <ele>1904</ele>
        <time>2018-12-26T23:52:30Z</time>
      </trkpt>
      <trkpt lat="42.74426" lon="-0.55161">
        <ele>1905</ele>
        <time>2018-12-26T23:52:35Z</time>
      </trkpt>
      <trkpt lat="42.74427" lon="-0.55171">
        <ele>1905</ele>
        <time>2018-12-26T23:52:37Z</time>
      </trkpt>
      <trkpt lat="42.74421" lon="-0.55183">
        <ele>1905</ele>
        <time>2018-12-26T23:52:40Z</time>
      </trkpt>
      <trkpt lat="42.74411" lon="-0.55198">
        <ele>1906</ele>
        <time>2018-12-26T23:52:44Z</time>
      </trkpt>
      <trkpt lat="42.7441" lon="-0.55215">
        <ele>1908</ele>
        <time>2018-12-26T23:52:48Z</time>
      </trkpt>
      <trkpt lat="42.74413" lon="-0.55224">
        <ele>1909</ele>
        <time>2018-12-26T23:52:50Z</time>
      </trkpt>
      <trkpt lat="42.74422" lon="-0.55233">
        <ele>1911</ele>
        <time>2018-12-26T23:52:53Z</time>
      </trkpt>
      <trkpt lat="42.74449" lon="-0.55236">
        <ele>1916</ele>
        <time>2018-12-26T23:53:00Z</time>
      </trkpt>
      <trkpt lat="42.7446" lon="-0.5524">
        <ele>1919</ele>
        <time>2018-12-26T23:53:03Z</time>
      </trkpt>
      <trkpt lat="42.74478" lon="-0.55252">
        <ele>1926</ele>
        <time>2018-12-26T23:53:08Z</time>
      </trkpt>
      <trkpt lat="42.74497" lon="-0.55259">
        <ele>1931</ele>
        <time>2018-12-26T23:53:14Z</time>
      </trkpt>
      <trkpt lat="42.74507" lon="-0.55265">
        <ele>1934</ele>
        <time>2018-12-26T23:53:16Z</time>
      </trkpt>
      <trkpt lat="42.74516" lon="-0.55274">
        <ele>1937</ele>
        <time>2018-12-26T23:53:19Z</time>
      </trkpt>
      <trkpt lat="42.74519" lon="-0.5528">
        <ele>1938</ele>
        <time>2018-12-26T23:53:21Z</time>
      </trkpt>
      <trkpt lat="42.74528" lon="-0.55285">
        <ele>1939</ele>
        <time>2018-12-26T23:53:23Z</time>
      </trkpt>
      <trkpt lat="42.74537" lon="-0.55309">
        <ele>1943</ele>
        <time>2018-12-26T23:53:29Z</time>
      </trkpt>
      <trkpt lat="42.74557" lon="-0.55337">
        <ele>1948</ele>
        <time>2018-12-26T23:53:36Z</time>
      </trkpt>
      <trkpt lat="42.74564" lon="-0.55356">
        <ele>1949</ele>
        <time>2018-12-26T23:53:41Z</time>
      </trkpt>
      <trkpt lat="42.74571" lon="-0.55391">
        <ele>1955</ele>
        <time>2018-12-26T23:53:48Z</time>
      </trkpt>
      <trkpt lat="42.74571" lon="-0.55398">
        <ele>1957</ele>
        <time>2018-12-26T23:53:49Z</time>
      </trkpt>
      <trkpt lat="42.74574" lon="-0.55408">
        <ele>1960</ele>
        <time>2018-12-26T23:53:51Z</time>
      </trkpt>
      <trkpt lat="42.74574" lon="-0.55428">
        <ele>1966</ele>
        <time>2018-12-26T23:53:55Z</time>
      </trkpt>
      <trkpt lat="42.74569" lon="-0.55453">
        <ele>1971</ele>
        <time>2018-12-26T23:54:00Z</time>
      </trkpt>
      <trkpt lat="42.74573" lon="-0.55468">
        <ele>1975</ele>
        <time>2018-12-26T23:54:03Z</time>
      </trkpt>
      <trkpt lat="42.74572" lon="-0.55488">
        <ele>1975</ele>
        <time>2018-12-26T23:54:07Z</time>
      </trkpt>
      <trkpt lat="42.74576" lon="-0.55499">
        <ele>1976</ele>
        <time>2018-12-26T23:54:10Z</time>
      </trkpt>
      <trkpt lat="42.74578" lon="-0.55512">
        <ele>1978</ele>
        <time>2018-12-26T23:54:12Z</time>
      </trkpt>
      <trkpt lat="42.74575" lon="-0.55531">
        <ele>1979</ele>
        <time>2018-12-26T23:54:16Z</time>
      </trkpt>
      <trkpt lat="42.74581" lon="-0.55534">
        <ele>1981</ele>
        <time>2018-12-26T23:54:18Z</time>
      </trkpt>
      <trkpt lat="42.7459" lon="-0.55547">
        <ele>1986</ele>
        <time>2018-12-26T23:54:21Z</time>
      </trkpt>
      <trkpt lat="42.74592" lon="-0.55572">
        <ele>1990</ele>
        <time>2018-12-26T23:54:26Z</time>
      </trkpt>
      <trkpt lat="42.7459" lon="-0.5559">
        <ele>1990</ele>
        <time>2018-12-26T23:54:30Z</time>
      </trkpt>
      <trkpt lat="42.74587" lon="-0.55604">
        <ele>1989</ele>
        <time>2018-12-26T23:54:32Z</time>
      </trkpt>
      <trkpt lat="42.74587" lon="-0.55618">
        <ele>1990</ele>
        <time>2018-12-26T23:54:35Z</time>
      </trkpt>
      <trkpt lat="42.74589" lon="-0.55633">
        <ele>1993</ele>
        <time>2018-12-26T23:54:38Z</time>
      </trkpt>
      <trkpt lat="42.74587" lon="-0.55644">
        <ele>1996</ele>
        <time>2018-12-26T23:54:40Z</time>
      </trkpt>
      <trkpt lat="42.74583" lon="-0.55656">
        <ele>1998</ele>
        <time>2018-12-26T23:54:43Z</time>
      </trkpt>
      <trkpt lat="42.74578" lon="-0.55661">
        <ele>1998</ele>
        <time>2018-12-26T23:54:45Z</time>
      </trkpt>
      <trkpt lat="42.74572" lon="-0.55688">
        <ele>2002</ele>
        <time>2018-12-26T23:54:50Z</time>
      </trkpt>
      <trkpt lat="42.7457" lon="-0.55735">
        <ele>2009</ele>
        <time>2018-12-26T23:54:59Z</time>
      </trkpt>
      <trkpt lat="42.74571" lon="-0.55765">
        <ele>2014</ele>
        <time>2018-12-26T23:55:05Z</time>
      </trkpt>
      <trkpt lat="42.74569" lon="-0.55776">
        <ele>2015</ele>
        <time>2018-12-26T23:55:08Z</time>
      </trkpt>
      <trkpt lat="42.74594" lon="-0.55808">
        <ele>2032</ele>
        <time>2018-12-26T23:55:17Z</time>
      </trkpt>
      <trkpt lat="42.74599" lon="-0.55794">
        <ele>2034</ele>
        <time>2018-12-26T23:55:20Z</time>
      </trkpt>
      <trkpt lat="42.74602" lon="-0.55787">
        <ele>2036</ele>
        <time>2018-12-26T23:55:22Z</time>
      </trkpt>
      <trkpt lat="42.74609" lon="-0.5576">
        <ele>2035</ele>
        <time>2018-12-26T23:55:27Z</time>
      </trkpt>
      <trkpt lat="42.74609" lon="-0.55722">
        <ele>2027</ele>
        <time>2018-12-26T23:55:35Z</time>
      </trkpt>
      <trkpt lat="42.74614" lon="-0.55725">
        <ele>2030</ele>
        <time>2018-12-26T23:55:36Z</time>
      </trkpt>
      <trkpt lat="42.74622" lon="-0.5572">
        <ele>2033</ele>
        <time>2018-12-26T23:55:39Z</time>
      </trkpt>
      <trkpt lat="42.74627" lon="-0.5572">
        <ele>2035</ele>
        <time>2018-12-26T23:55:40Z</time>
      </trkpt>
      <trkpt lat="42.74635" lon="-0.55711">
        <ele>2038</ele>
        <time>2018-12-26T23:55:43Z</time>
      </trkpt>
      <trkpt lat="42.74646" lon="-0.55706">
        <ele>2043</ele>
        <time>2018-12-26T23:55:46Z</time>
      </trkpt>
      <trkpt lat="42.7465" lon="-0.55703">
        <ele>2045</ele>
        <time>2018-12-26T23:55:47Z</time>
      </trkpt>
      <trkpt lat="42.74666" lon="-0.55685">
        <ele>2050</ele>
        <time>2018-12-26T23:55:53Z</time>
      </trkpt>
      <trkpt lat="42.7467" lon="-0.55675">
        <ele>2048</ele>
        <time>2018-12-26T23:55:55Z</time>
      </trkpt>
      <trkpt lat="42.74684" lon="-0.55653">
        <ele>2050</ele>
        <time>2018-12-26T23:56:00Z</time>
      </trkpt>
      <trkpt lat="42.74685" lon="-0.55634">
        <ele>2048</ele>
        <time>2018-12-26T23:56:04Z</time>
      </trkpt>
      <trkpt lat="42.74689" lon="-0.55625">
        <ele>2047</ele>
        <time>2018-12-26T23:56:06Z</time>
      </trkpt>
      <trkpt lat="42.74701" lon="-0.55605">
        <ele>2047</ele>
        <time>2018-12-26T23:56:11Z</time>
      </trkpt>
      <trkpt lat="42.74711" lon="-0.55584">
        <ele>2044</ele>
        <time>2018-12-26T23:56:16Z</time>
      </trkpt>
      <trkpt lat="42.74716" lon="-0.55576">
        <ele>2047</ele>
        <time>2018-12-26T23:56:18Z</time>
      </trkpt>
      <trkpt lat="42.74728" lon="-0.55564">
        <ele>2052</ele>
        <time>2018-12-26T23:56:22Z</time>
      </trkpt>
      <trkpt lat="42.74754" lon="-0.55519">
        <ele>2049</ele>
        <time>2018-12-26T23:56:33Z</time>
      </trkpt>
      <trkpt lat="42.74759" lon="-0.55513">
        <ele>2049</ele>
        <time>2018-12-26T23:56:35Z</time>
      </trkpt>
      <trkpt lat="42.7477" lon="-0.55504">
        <ele>2053</ele>
        <time>2018-12-26T23:56:39Z</time>
      </trkpt>
      <trkpt lat="42.74775" lon="-0.55497">
        <ele>2054</ele>
        <time>2018-12-26T23:56:40Z</time>
      </trkpt>
      <trkpt lat="42.74776" lon="-0.5549">
        <ele>2054</ele>
        <time>2018-12-26T23:56:42Z</time>
      </trkpt>
      <trkpt lat="42.74783" lon="-0.55485">
        <ele>2057</ele>
        <time>2018-12-26T23:56:44Z</time>
      </trkpt>
      <trkpt lat="42.74787" lon="-0.55475">
        <ele>2057</ele>
        <time>2018-12-26T23:56:46Z</time>
      </trkpt>
      <trkpt lat="42.748" lon="-0.55452">
        <ele>2059</ele>
        <time>2018-12-26T23:56:52Z</time>
      </trkpt>
      <trkpt lat="42.74819" lon="-0.55434">
        <ele>2064</ele>
        <time>2018-12-26T23:56:58Z</time>
      </trkpt>
      <trkpt lat="42.74826" lon="-0.55422">
        <ele>2066</ele>
        <time>2018-12-26T23:57:01Z</time>
      </trkpt>
      <trkpt lat="42.74835" lon="-0.55412">
        <ele>2068</ele>
        <time>2018-12-26T23:57:04Z</time>
      </trkpt>
      <trkpt lat="42.74843" lon="-0.55397">
        <ele>2072</ele>
        <time>2018-12-26T23:57:08Z</time>
      </trkpt>
      <trkpt lat="42.74845" lon="-0.55392">
        <ele>2073</ele>
        <time>2018-12-26T23:57:09Z</time>
      </trkpt>
      <trkpt lat="42.74846" lon="-0.55374">
        <ele>2072</ele>
        <time>2018-12-26T23:57:12Z</time>
      </trkpt>
      <trkpt lat="42.74847" lon="-0.55372">
        <ele>2073</ele>
        <time>2018-12-26T23:57:13Z</time>
      </trkpt>
      <trkpt lat="42.74852" lon="-0.55375">
        <ele>2075</ele>
        <time>2018-12-26T23:57:15Z</time>
      </trkpt>
      <trkpt lat="42.74858" lon="-0.55372">
        <ele>2077</ele>
        <time>2018-12-26T23:57:16Z</time>
      </trkpt>
      <trkpt lat="42.74861" lon="-0.55375">
        <ele>2078</ele>
        <time>2018-12-26T23:57:17Z</time>
      </trkpt>
      <trkpt lat="42.74864" lon="-0.55372">
        <ele>2079</ele>
        <time>2018-12-26T23:57:18Z</time>
      </trkpt>
      <trkpt lat="42.74887" lon="-0.55362">
        <ele>2091</ele>
        <time>2018-12-26T23:57:25Z</time>
      </trkpt>
      <trkpt lat="42.7489" lon="-0.55369">
        <ele>2093</ele>
        <time>2018-12-26T23:57:26Z</time>
      </trkpt>
      <trkpt lat="42.74892" lon="-0.5537">
        <ele>2094</ele>
        <time>2018-12-26T23:57:27Z</time>
      </trkpt>
      <trkpt lat="42.74896" lon="-0.55368">
        <ele>2096</ele>
        <time>2018-12-26T23:57:28Z</time>
      </trkpt>
      <trkpt lat="42.74897" lon="-0.55371">
        <ele>2098</ele>
        <time>2018-12-26T23:57:28Z</time>
      </trkpt>
      <trkpt lat="42.74909" lon="-0.55361">
        <ele>2105</ele>
        <time>2018-12-26T23:57:32Z</time>
      </trkpt>
      <trkpt lat="42.74913" lon="-0.55361">
        <ele>2107</ele>
        <time>2018-12-26T23:57:33Z</time>
      </trkpt>
      <trkpt lat="42.74917" lon="-0.55359">
        <ele>2110</ele>
        <time>2018-12-26T23:57:34Z</time>
      </trkpt>
      <trkpt lat="42.74919" lon="-0.55361">
        <ele>2112</ele>
        <time>2018-12-26T23:57:35Z</time>
      </trkpt>
      <trkpt lat="42.74923" lon="-0.55358">
        <ele>2116</ele>
        <time>2018-12-26T23:57:36Z</time>
      </trkpt>
      <trkpt lat="42.74929" lon="-0.55375">
        <ele>2126</ele>
        <time>2018-12-26T23:57:40Z</time>
      </trkpt>
      <trkpt lat="42.74931" lon="-0.55375">
        <ele>2128</ele>
        <time>2018-12-26T23:57:40Z</time>
      </trkpt>
      <trkpt lat="42.74935" lon="-0.55371">
        <ele>2131</ele>
        <time>2018-12-26T23:57:42Z</time>
      </trkpt>
      <trkpt lat="42.7494" lon="-0.55359">
        <ele>2133</ele>
        <time>2018-12-26T23:57:44Z</time>
      </trkpt>
      <trkpt lat="42.74943" lon="-0.55356">
        <ele>2135</ele>
        <time>2018-12-26T23:57:46Z</time>
      </trkpt>
      <trkpt lat="42.74947" lon="-0.55342">
        <ele>2137</ele>
        <time>2018-12-26T23:57:48Z</time>
      </trkpt>
      <trkpt lat="42.74955" lon="-0.55327">
        <ele>2141</ele>
        <time>2018-12-26T23:57:52Z</time>
      </trkpt>
      <trkpt lat="42.74955" lon="-0.55323">
        <ele>2141</ele>
        <time>2018-12-26T23:57:53Z</time>
      </trkpt>
      <trkpt lat="42.74956" lon="-0.55321">
        <ele>2142</ele>
        <time>2018-12-26T23:57:53Z</time>
      </trkpt>
      <trkpt lat="42.74959" lon="-0.55322">
        <ele>2144</ele>
        <time>2018-12-26T23:57:54Z</time>
      </trkpt>
      <trkpt lat="42.7496" lon="-0.55314">
        <ele>2144</ele>
        <time>2018-12-26T23:57:56Z</time>
      </trkpt>
      <trkpt lat="42.74963" lon="-0.55306">
        <ele>2146</ele>
        <time>2018-12-26T23:57:57Z</time>
      </trkpt>
      <trkpt lat="42.74968" lon="-0.55307">
        <ele>2150</ele>
        <time>2018-12-26T23:57:59Z</time>
      </trkpt>
      <trkpt lat="42.7497" lon="-0.55306">
        <ele>2151</ele>
        <time>2018-12-26T23:57:59Z</time>
      </trkpt>
      <trkpt lat="42.74975" lon="-0.55277">
        <ele>2152</ele>
        <time>2018-12-26T23:58:05Z</time>
      </trkpt>
      <trkpt lat="42.74977" lon="-0.55278">
        <ele>2154</ele>
        <time>2018-12-26T23:58:06Z</time>
      </trkpt>
      <trkpt lat="42.74983" lon="-0.55288">
        <ele>2159</ele>
        <time>2018-12-26T23:58:08Z</time>
      </trkpt>
      <trkpt lat="42.74988" lon="-0.55285">
        <ele>2161</ele>
        <time>2018-12-26T23:58:10Z</time>
      </trkpt>
      <trkpt lat="42.74989" lon="-0.55287">
        <ele>2163</ele>
        <time>2018-12-26T23:58:10Z</time>
      </trkpt>
      <trkpt lat="42.74992" lon="-0.55286">
        <ele>2164</ele>
        <time>2018-12-26T23:58:11Z</time>
      </trkpt>
      <trkpt lat="42.74993" lon="-0.55287">
        <ele>2165</ele>
        <time>2018-12-26T23:58:11Z</time>
      </trkpt>
      <trkpt lat="42.74997" lon="-0.55284">
        <ele>2167</ele>
        <time>2018-12-26T23:58:12Z</time>
      </trkpt>
      <trkpt lat="42.74999" lon="-0.55287">
        <ele>2169</ele>
        <time>2018-12-26T23:58:13Z</time>
      </trkpt>
      <trkpt lat="42.75013" lon="-0.55287">
        <ele>2177</ele>
        <time>2018-12-26T23:58:17Z</time>
      </trkpt>
      <trkpt lat="42.75019" lon="-0.55289">
        <ele>2181</ele>
        <time>2018-12-26T23:58:19Z</time>
      </trkpt>
      <trkpt lat="42.75021" lon="-0.55288">
        <ele>2182</ele>
        <time>2018-12-26T23:58:19Z</time>
      </trkpt>
      <trkpt lat="42.75025" lon="-0.5529">
        <ele>2184</ele>
        <time>2018-12-26T23:58:20Z</time>
      </trkpt>
      <trkpt lat="42.75027" lon="-0.5529">
        <ele>2185</ele>
        <time>2018-12-26T23:58:21Z</time>
      </trkpt>
      <trkpt lat="42.75029" lon="-0.55286">
        <ele>2185</ele>
        <time>2018-12-26T23:58:22Z</time>
      </trkpt>
      <trkpt lat="42.75033" lon="-0.55287">
        <ele>2187</ele>
        <time>2018-12-26T23:58:23Z</time>
      </trkpt>
      <trkpt lat="42.75035" lon="-0.55284">
        <ele>2188</ele>
        <time>2018-12-26T23:58:24Z</time>
      </trkpt>
      <trkpt lat="42.75039" lon="-0.55286">
        <ele>2190</ele>
        <time>2018-12-26T23:58:25Z</time>
      </trkpt>
      <trkpt lat="42.75041" lon="-0.55285">
        <ele>2191</ele>
        <time>2018-12-26T23:58:25Z</time>
      </trkpt>
      <trkpt lat="42.75042" lon="-0.55283">
        <ele>2191</ele>
        <time>2018-12-26T23:58:26Z</time>
      </trkpt>
      <trkpt lat="42.75054" lon="-0.55287">
        <ele>2197</ele>
        <time>2018-12-26T23:58:29Z</time>
      </trkpt>
      <trkpt lat="42.75055" lon="-0.55285">
        <ele>2197</ele>
        <time>2018-12-26T23:58:30Z</time>
      </trkpt>
      <trkpt lat="42.75059" lon="-0.55283">
        <ele>2199</ele>
        <time>2018-12-26T23:58:31Z</time>
      </trkpt>
      <trkpt lat="42.75065" lon="-0.55276">
        <ele>2201</ele>
        <time>2018-12-26T23:58:33Z</time>
      </trkpt>
      <trkpt lat="42.75068" lon="-0.55268">
        <ele>2201</ele>
        <time>2018-12-26T23:58:35Z</time>
      </trkpt>
      <trkpt lat="42.75073" lon="-0.55265">
        <ele>2204</ele>
        <time>2018-12-26T23:58:36Z</time>
      </trkpt>
      <trkpt lat="42.75079" lon="-0.55272">
        <ele>2208</ele>
        <time>2018-12-26T23:58:38Z</time>
      </trkpt>
      <trkpt lat="42.75081" lon="-0.5527">
        <ele>2209</ele>
        <time>2018-12-26T23:58:39Z</time>
      </trkpt>
      <trkpt lat="42.75082" lon="-0.55271">
        <ele>2210</ele>
        <time>2018-12-26T23:58:39Z</time>
      </trkpt>
      <trkpt lat="42.75089" lon="-0.55279">
        <ele>2215</ele>
        <time>2018-12-26T23:58:42Z</time>
      </trkpt>
      <trkpt lat="42.75094" lon="-0.55281">
        <ele>2218</ele>
        <time>2018-12-26T23:58:43Z</time>
      </trkpt>
      <trkpt lat="42.75106" lon="-0.55282">
        <ele>2224</ele>
        <time>2018-12-26T23:58:46Z</time>
      </trkpt>
      <trkpt lat="42.7511" lon="-0.5528">
        <ele>2226</ele>
        <time>2018-12-26T23:58:47Z</time>
      </trkpt>
      <trkpt lat="42.75113" lon="-0.55275">
        <ele>2227</ele>
        <time>2018-12-26T23:58:49Z</time>
      </trkpt>
      <trkpt lat="42.75119" lon="-0.55272">
        <ele>2229</ele>
        <time>2018-12-26T23:58:50Z</time>
      </trkpt>
      <trkpt lat="42.7512" lon="-0.55273">
        <ele>2229</ele>
        <time>2018-12-26T23:58:51Z</time>
      </trkpt>
      <trkpt lat="42.75121" lon="-0.55277">
        <ele>2230</ele>
        <time>2018-12-26T23:58:52Z</time>
      </trkpt>
      <trkpt lat="42.75128" lon="-0.55273">
        <ele>2232</ele>
        <time>2018-12-26T23:58:54Z</time>
      </trkpt>
      <trkpt lat="42.7513" lon="-0.55274">
        <ele>2233</ele>
        <time>2018-12-26T23:58:54Z</time>
      </trkpt>
      <trkpt lat="42.75136" lon="-0.55287">
        <ele>2237</ele>
        <time>2018-12-26T23:58:57Z</time>
      </trkpt>
      <trkpt lat="42.75139" lon="-0.55288">
        <ele>2238</ele>
        <time>2018-12-26T23:58:58Z</time>
      </trkpt>
      <trkpt lat="42.75143" lon="-0.55285">
        <ele>2240</ele>
        <time>2018-12-26T23:58:59Z</time>
      </trkpt>
      <trkpt lat="42.75149" lon="-0.55299">
        <ele>2247</ele>
        <time>2018-12-26T23:59:02Z</time>
      </trkpt>
      <trkpt lat="42.75152" lon="-0.55299">
        <ele>2248</ele>
        <time>2018-12-26T23:59:03Z</time>
      </trkpt>
      <trkpt lat="42.75154" lon="-0.55307">
        <ele>2251</ele>
        <time>2018-12-26T23:59:05Z</time>
      </trkpt>
      <trkpt lat="42.75159" lon="-0.55309">
        <ele>2254</ele>
        <time>2018-12-26T23:59:06Z</time>
      </trkpt>
      <trkpt lat="42.75163" lon="-0.55305">
        <ele>2256</ele>
        <time>2018-12-26T23:59:07Z</time>
      </trkpt>
      <trkpt lat="42.75167" lon="-0.55304">
        <ele>2258</ele>
        <time>2018-12-26T23:59:08Z</time>
      </trkpt>
      <trkpt lat="42.7517" lon="-0.55298">
        <ele>2259</ele>
        <time>2018-12-26T23:59:10Z</time>
      </trkpt>
      <trkpt lat="42.75172" lon="-0.55301">
        <ele>2260</ele>
        <time>2018-12-26T23:59:11Z</time>
      </trkpt>
      <trkpt lat="42.75174" lon="-0.55301">
        <ele>2261</ele>
        <time>2018-12-26T23:59:11Z</time>
      </trkpt>
      <trkpt lat="42.75177" lon="-0.553">
        <ele>2262</ele>
        <time>2018-12-26T23:59:12Z</time>
      </trkpt>
      <trkpt lat="42.75179" lon="-0.55303">
        <ele>2263</ele>
        <time>2018-12-26T23:59:13Z</time>
      </trkpt>
      <trkpt lat="42.75187" lon="-0.55305">
        <ele>2267</ele>
        <time>2018-12-26T23:59:15Z</time>
      </trkpt>
      <trkpt lat="42.75192" lon="-0.5531">
        <ele>2271</ele>
        <time>2018-12-26T23:59:16Z</time>
      </trkpt>
      <trkpt lat="42.75196" lon="-0.55317">
        <ele>2275</ele>
        <time>2018-12-26T23:59:18Z</time>
      </trkpt>
      <trkpt lat="42.752" lon="-0.55319">
        <ele>2278</ele>
        <time>2018-12-26T23:59:19Z</time>
      </trkpt>
      <trkpt lat="42.75201" lon="-0.55326">
        <ele>2280</ele>
        <time>2018-12-26T23:59:21Z</time>
      </trkpt>
      <trkpt lat="42.75204" lon="-0.55326">
        <ele>2282</ele>
        <time>2018-12-26T23:59:22Z</time>
      </trkpt>
      <trkpt lat="42.75205" lon="-0.5533">
        <ele>2284</ele>
        <time>2018-12-26T23:59:22Z</time>
      </trkpt>
      <trkpt lat="42.75202" lon="-0.55344">
        <ele>2286</ele>
        <time>2018-12-26T23:59:25Z</time>
      </trkpt>
      <trkpt lat="42.75205" lon="-0.55347">
        <ele>2288</ele>
        <time>2018-12-26T23:59:26Z</time>
      </trkpt>
      <trkpt lat="42.75212" lon="-0.55349">
        <ele>2292</ele>
        <time>2018-12-26T23:59:28Z</time>
      </trkpt>
      <trkpt lat="42.75236" lon="-0.55347">
        <ele>2301</ele>
        <time>2018-12-26T23:59:35Z</time>
      </trkpt>
      <trkpt lat="42.7524" lon="-0.55349">
        <ele>2303</ele>
        <time>2018-12-26T23:59:36Z</time>
      </trkpt>
      <trkpt lat="42.7525" lon="-0.55349">
        <ele>2306</ele>
        <time>2018-12-26T23:59:39Z</time>
      </trkpt>
      <trkpt lat="42.75252" lon="-0.5535">
        <ele>2306</ele>
        <time>2018-12-26T23:59:39Z</time>
      </trkpt>
      <trkpt lat="42.75252" lon="-0.55358">
        <ele>2308</ele>
        <time>2018-12-26T23:59:41Z</time>
      </trkpt>
      <trkpt lat="42.75254" lon="-0.55361">
        <ele>2309</ele>
        <time>2018-12-26T23:59:41Z</time>
      </trkpt>
      <trkpt lat="42.75259" lon="-0.5536">
        <ele>2311</ele>
        <time>2018-12-26T23:59:43Z</time>
      </trkpt>
      <trkpt lat="42.75267" lon="-0.55364">
        <ele>2313</ele>
        <time>2018-12-26T23:59:45Z</time>
      </trkpt>
      <trkpt lat="42.7527" lon="-0.55362">
        <ele>2314</ele>
        <time>2018-12-26T23:59:46Z</time>
      </trkpt>
      <trkpt lat="42.75275" lon="-0.55363">
        <ele>2315</ele>
        <time>2018-12-26T23:59:47Z</time>
      </trkpt>
      <trkpt lat="42.75278" lon="-0.55359">
        <ele>2315</ele>
        <time>2018-12-26T23:59:48Z</time>
      </trkpt>
      <trkpt lat="42.75288" lon="-0.55362">
        <ele>2321</ele>
        <time>2018-12-26T23:59:51Z</time>
      </trkpt>
      <trkpt lat="42.75289" lon="-0.55369">
        <ele>2323</ele>
        <time>2018-12-26T23:59:53Z</time>
      </trkpt>
      <trkpt lat="42.75292" lon="-0.55372">
        <ele>2325</ele>
        <time>2018-12-26T23:59:53Z</time>
      </trkpt>
      <trkpt lat="42.75301" lon="-0.55371">
        <ele>2329</ele>
        <time>2018-12-26T23:59:56Z</time>
      </trkpt>
      <trkpt lat="42.75316" lon="-0.55379">
        <ele>2338</ele>
        <time>2018-12-27T00:00:00Z</time>
      </trkpt>
      <trkpt lat="42.75318" lon="-0.55379">
        <ele>2339</ele>
        <time>2018-12-27T00:00:01Z</time>
      </trkpt>
      <trkpt lat="42.75323" lon="-0.55384">
        <ele>2342</ele>
        <time>2018-12-27T00:00:02Z</time>
      </trkpt>
      <trkpt lat="42.75325" lon="-0.5539">
        <ele>2344</ele>
        <time>2018-12-27T00:00:04Z</time>
      </trkpt>
      <trkpt lat="42.75331" lon="-0.55393">
        <ele>2347</ele>
        <time>2018-12-27T00:00:05Z</time>
      </trkpt>
      <trkpt lat="42.75333" lon="-0.55397">
        <ele>2349</ele>
        <time>2018-12-27T00:00:06Z</time>
      </trkpt>
      <trkpt lat="42.75335" lon="-0.55397">
        <ele>2351</ele>
        <time>2018-12-27T00:00:07Z</time>
      </trkpt>
      <trkpt lat="42.75337" lon="-0.55396">
        <ele>2352</ele>
        <time>2018-12-27T00:00:07Z</time>
      </trkpt>
      <trkpt lat="42.7534" lon="-0.554">
        <ele>2354</ele>
        <time>2018-12-27T00:00:08Z</time>
      </trkpt>
      <trkpt lat="42.75345" lon="-0.55403">
        <ele>2358</ele>
        <time>2018-12-27T00:00:10Z</time>
      </trkpt>
      <trkpt lat="42.7535" lon="-0.55404">
        <ele>2360</ele>
        <time>2018-12-27T00:00:11Z</time>
      </trkpt>
      <trkpt lat="42.75358" lon="-0.55401">
        <ele>2365</ele>
        <time>2018-12-27T00:00:14Z</time>
      </trkpt>
      <trkpt lat="42.75361" lon="-0.55404">
        <ele>2367</ele>
        <time>2018-12-27T00:00:14Z</time>
      </trkpt>
      <trkpt lat="42.75365" lon="-0.55404">
        <ele>2369</ele>
        <time>2018-12-27T00:00:15Z</time>
      </trkpt>
      <trkpt lat="42.75363" lon="-0.55412">
        <ele>2370</ele>
        <time>2018-12-27T00:00:17Z</time>
      </trkpt>
      <trkpt lat="42.75364" lon="-0.55417">
        <ele>2371</ele>
        <time>2018-12-27T00:00:18Z</time>
      </trkpt>
      <trkpt lat="42.75369" lon="-0.55416">
        <ele>2373</ele>
        <time>2018-12-27T00:00:19Z</time>
      </trkpt>
      <trkpt lat="42.7537" lon="-0.55417">
        <ele>2374</ele>
        <time>2018-12-27T00:00:20Z</time>
      </trkpt>
      <trkpt lat="42.75372" lon="-0.55415">
        <ele>2374</ele>
        <time>2018-12-27T00:00:20Z</time>
      </trkpt>
      <trkpt lat="42.75377" lon="-0.55418">
        <ele>2377</ele>
        <time>2018-12-27T00:00:22Z</time>
      </trkpt>
      <trkpt lat="42.75379" lon="-0.55417">
        <ele>2378</ele>
        <time>2018-12-27T00:00:22Z</time>
      </trkpt>
      <trkpt lat="42.75381" lon="-0.55423">
        <ele>2379</ele>
        <time>2018-12-27T00:00:23Z</time>
      </trkpt>
      <trkpt lat="42.75385" lon="-0.5542">
        <ele>2381</ele>
        <time>2018-12-27T00:00:25Z</time>
      </trkpt>
      <trkpt lat="42.75388" lon="-0.55426">
        <ele>2382</ele>
        <time>2018-12-27T00:00:26Z</time>
      </trkpt>
      <trkpt lat="42.75391" lon="-0.55427">
        <ele>2383</ele>
        <time>2018-12-27T00:00:27Z</time>
      </trkpt>
      <trkpt lat="42.75394" lon="-0.55424">
        <ele>2385</ele>
        <time>2018-12-27T00:00:28Z</time>
      </trkpt>
      <trkpt lat="42.75396" lon="-0.55427">
        <ele>2385</ele>
        <time>2018-12-27T00:00:29Z</time>
      </trkpt>
      <trkpt lat="42.75398" lon="-0.55426">
        <ele>2386</ele>
        <time>2018-12-27T00:00:29Z</time>
      </trkpt>
      <trkpt lat="42.75399" lon="-0.55427">
        <ele>2386</ele>
        <time>2018-12-27T00:00:30Z</time>
      </trkpt>
      <trkpt lat="42.75402" lon="-0.55425">
        <ele>2388</ele>
        <time>2018-12-27T00:00:30Z</time>
      </trkpt>
      <trkpt lat="42.75405" lon="-0.5543">
        <ele>2389</ele>
        <time>2018-12-27T00:00:32Z</time>
      </trkpt>
      <trkpt lat="42.75406" lon="-0.55438">
        <ele>2389</ele>
        <time>2018-12-27T00:00:33Z</time>
      </trkpt>
      <trkpt lat="42.75408" lon="-0.55437">
        <ele>2390</ele>
        <time>2018-12-27T00:00:34Z</time>
      </trkpt>
      <trkpt lat="42.75412" lon="-0.55442">
        <ele>2391</ele>
        <time>2018-12-27T00:00:35Z</time>
      </trkpt>
      <trkpt lat="42.75416" lon="-0.55444">
        <ele>2392</ele>
        <time>2018-12-27T00:00:36Z</time>
      </trkpt>
      <trkpt lat="42.75418" lon="-0.5545">
        <ele>2389</ele>
        <time>2018-12-27T00:00:38Z</time>
      </trkpt>
      <trkpt lat="42.75417" lon="-0.55448">
        <ele>2390</ele>
        <time>2018-12-27T00:00:38Z</time>
      </trkpt>
      <trkpt lat="42.75419" lon="-0.55449">
        <ele>2390</ele>
        <time>2018-12-27T00:00:39Z</time>
      </trkpt>
      <trkpt lat="42.75426" lon="-0.55445">
        <ele>2395</ele>
        <time>2018-12-27T00:00:40Z</time>
      </trkpt>
      <trkpt lat="42.75425" lon="-0.55464">
        <ele>2383</ele>
        <time>2018-12-27T00:00:44Z</time>
      </trkpt>
      <trkpt lat="42.75423" lon="-0.5547">
        <ele>2379</ele>
        <time>2018-12-27T00:00:45Z</time>
      </trkpt>
      <trkpt lat="42.75414" lon="-0.55485">
        <ele>2370</ele>
        <time>2018-12-27T00:00:49Z</time>
      </trkpt>
      <trkpt lat="42.75404" lon="-0.55494">
        <ele>2367</ele>
        <time>2018-12-27T00:00:52Z</time>
      </trkpt>
      <trkpt lat="42.75395" lon="-0.55498">
        <ele>2366</ele>
        <time>2018-12-27T00:00:55Z</time>
      </trkpt>
      <trkpt lat="42.75386" lon="-0.55505">
        <ele>2364</ele>
        <time>2018-12-27T00:00:58Z</time>
      </trkpt>
      <trkpt lat="42.75382" lon="-0.55512">
        <ele>2362</ele>
        <time>2018-12-27T00:01:00Z</time>
      </trkpt>
      <trkpt lat="42.75383" lon="-0.55514">
        <ele>2360</ele>
        <time>2018-12-27T00:01:00Z</time>
      </trkpt>
      <trkpt lat="42.75383" lon="-0.55516">
        <ele>2360</ele>
        <time>2018-12-27T00:01:01Z</time>
      </trkpt>
      <trkpt lat="42.75376" lon="-0.55525">
        <ele>2357</ele>
        <time>2018-12-27T00:01:03Z</time>
      </trkpt>
      <trkpt lat="42.75371" lon="-0.55536">
        <ele>2353</ele>
        <time>2018-12-27T00:01:06Z</time>
      </trkpt>
      <trkpt lat="42.75372" lon="-0.55537">
        <ele>2353</ele>
        <time>2018-12-27T00:01:06Z</time>
      </trkpt>
      <trkpt lat="42.75369" lon="-0.55546">
        <ele>2349</ele>
        <time>2018-12-27T00:01:08Z</time>
      </trkpt>
      <trkpt lat="42.7537" lon="-0.55556">
        <ele>2345</ele>
        <time>2018-12-27T00:01:10Z</time>
      </trkpt>
      <trkpt lat="42.75369" lon="-0.55559">
        <ele>2343</ele>
        <time>2018-12-27T00:01:11Z</time>
      </trkpt>
      <trkpt lat="42.7537" lon="-0.5557">
        <ele>2338</ele>
        <time>2018-12-27T00:01:13Z</time>
      </trkpt>
      <trkpt lat="42.75374" lon="-0.55577">
        <ele>2334</ele>
        <time>2018-12-27T00:01:14Z</time>
      </trkpt>
      <trkpt lat="42.75382" lon="-0.55579">
        <ele>2331</ele>
        <time>2018-12-27T00:01:16Z</time>
      </trkpt>
      <trkpt lat="42.75383" lon="-0.55588">
        <ele>2327</ele>
        <time>2018-12-27T00:01:18Z</time>
      </trkpt>
      <trkpt lat="42.75388" lon="-0.5559">
        <ele>2325</ele>
        <time>2018-12-27T00:01:20Z</time>
      </trkpt>
      <trkpt lat="42.75397" lon="-0.55601">
        <ele>2319</ele>
        <time>2018-12-27T00:01:23Z</time>
      </trkpt>
      <trkpt lat="42.75405" lon="-0.55605">
        <ele>2316</ele>
        <time>2018-12-27T00:01:25Z</time>
      </trkpt>
      <trkpt lat="42.75411" lon="-0.55616">
        <ele>2310</ele>
        <time>2018-12-27T00:01:28Z</time>
      </trkpt>
      <trkpt lat="42.75408" lon="-0.55619">
        <ele>2310</ele>
        <time>2018-12-27T00:01:29Z</time>
      </trkpt>
      <trkpt lat="42.75412" lon="-0.55622">
        <ele>2308</ele>
        <time>2018-12-27T00:01:30Z</time>
      </trkpt>
      <trkpt lat="42.75409" lon="-0.5563">
        <ele>2306</ele>
        <time>2018-12-27T00:01:32Z</time>
      </trkpt>
      <trkpt lat="42.75414" lon="-0.55637">
        <ele>2303</ele>
        <time>2018-12-27T00:01:33Z</time>
      </trkpt>
      <trkpt lat="42.75414" lon="-0.55646">
        <ele>2300</ele>
        <time>2018-12-27T00:01:35Z</time>
      </trkpt>
      <trkpt lat="42.75418" lon="-0.55653">
        <ele>2297</ele>
        <time>2018-12-27T00:01:37Z</time>
      </trkpt>
      <trkpt lat="42.75421" lon="-0.55663">
        <ele>2294</ele>
        <time>2018-12-27T00:01:39Z</time>
      </trkpt>
      <trkpt lat="42.75413" lon="-0.55693">
        <ele>2283</ele>
        <time>2018-12-27T00:01:45Z</time>
      </trkpt>
      <trkpt lat="42.75418" lon="-0.557">
        <ele>2281</ele>
        <time>2018-12-27T00:01:47Z</time>
      </trkpt>
      <trkpt lat="42.7542" lon="-0.55709">
        <ele>2278</ele>
        <time>2018-12-27T00:01:49Z</time>
      </trkpt>
      <trkpt lat="42.75413" lon="-0.55715">
        <ele>2276</ele>
        <time>2018-12-27T00:01:51Z</time>
      </trkpt>
      <trkpt lat="42.7541" lon="-0.55722">
        <ele>2274</ele>
        <time>2018-12-27T00:01:53Z</time>
      </trkpt>
      <trkpt lat="42.7541" lon="-0.5573">
        <ele>2272</ele>
        <time>2018-12-27T00:01:54Z</time>
      </trkpt>
      <trkpt lat="42.75408" lon="-0.5573">
        <ele>2272</ele>
        <time>2018-12-27T00:01:55Z</time>
      </trkpt>
      <trkpt lat="42.75409" lon="-0.55737">
        <ele>2271</ele>
        <time>2018-12-27T00:01:56Z</time>
      </trkpt>
      <trkpt lat="42.75404" lon="-0.55754">
        <ele>2267</ele>
        <time>2018-12-27T00:02:00Z</time>
      </trkpt>
      <trkpt lat="42.75406" lon="-0.55761">
        <ele>2266</ele>
        <time>2018-12-27T00:02:01Z</time>
      </trkpt>
      <trkpt lat="42.75417" lon="-0.55773">
        <ele>2262</ele>
        <time>2018-12-27T00:02:05Z</time>
      </trkpt>
      <trkpt lat="42.75413" lon="-0.55786">
        <ele>2260</ele>
        <time>2018-12-27T00:02:07Z</time>
      </trkpt>
      <trkpt lat="42.75428" lon="-0.55812">
        <ele>2254</ele>
        <time>2018-12-27T00:02:14Z</time>
      </trkpt>
      <trkpt lat="42.7543" lon="-0.55819">
        <ele>2253</ele>
        <time>2018-12-27T00:02:15Z</time>
      </trkpt>
      <trkpt lat="42.75429" lon="-0.55828">
        <ele>2252</ele>
        <time>2018-12-27T00:02:17Z</time>
      </trkpt>
      <trkpt lat="42.75425" lon="-0.55835">
        <ele>2251</ele>
        <time>2018-12-27T00:02:19Z</time>
      </trkpt>
      <trkpt lat="42.75421" lon="-0.55837">
        <ele>2251</ele>
        <time>2018-12-27T00:02:20Z</time>
      </trkpt>
      <trkpt lat="42.75418" lon="-0.55844">
        <ele>2250</ele>
        <time>2018-12-27T00:02:22Z</time>
      </trkpt>
      <trkpt lat="42.75417" lon="-0.55855">
        <ele>2248</ele>
        <time>2018-12-27T00:02:24Z</time>
      </trkpt>
      <trkpt lat="42.75419" lon="-0.55862">
        <ele>2247</ele>
        <time>2018-12-27T00:02:25Z</time>
      </trkpt>
      <trkpt lat="42.75417" lon="-0.55859">
        <ele>2248</ele>
        <time>2018-12-27T00:02:26Z</time>
      </trkpt>
      <trkpt lat="42.75413" lon="-0.55869">
        <ele>2246</ele>
        <time>2018-12-27T00:02:28Z</time>
      </trkpt>
      <trkpt lat="42.75415" lon="-0.55882">
        <ele>2244</ele>
        <time>2018-12-27T00:02:31Z</time>
      </trkpt>
      <trkpt lat="42.75411" lon="-0.55899">
        <ele>2241</ele>
        <time>2018-12-27T00:02:34Z</time>
      </trkpt>
      <trkpt lat="42.75409" lon="-0.559">
        <ele>2240</ele>
        <time>2018-12-27T00:02:35Z</time>
      </trkpt>
      <trkpt lat="42.75408" lon="-0.55905">
        <ele>2239</ele>
        <time>2018-12-27T00:02:36Z</time>
      </trkpt>
      <trkpt lat="42.75414" lon="-0.55918">
        <ele>2237</ele>
        <time>2018-12-27T00:02:39Z</time>
      </trkpt>
      <trkpt lat="42.75411" lon="-0.55927">
        <ele>2235</ele>
        <time>2018-12-27T00:02:41Z</time>
      </trkpt>
      <trkpt lat="42.7541" lon="-0.55944">
        <ele>2232</ele>
        <time>2018-12-27T00:02:44Z</time>
      </trkpt>
      <trkpt lat="42.75409" lon="-0.55947">
        <ele>2231</ele>
        <time>2018-12-27T00:02:44Z</time>
      </trkpt>
      <trkpt lat="42.75414" lon="-0.55957">
        <ele>2229</ele>
        <time>2018-12-27T00:02:47Z</time>
      </trkpt>
      <trkpt lat="42.7541" lon="-0.55964">
        <ele>2228</ele>
        <time>2018-12-27T00:02:49Z</time>
      </trkpt>
      <trkpt lat="42.75404" lon="-0.55969">
        <ele>2226</ele>
        <time>2018-12-27T00:02:50Z</time>
      </trkpt>
      <trkpt lat="42.75402" lon="-0.55974">
        <ele>2224</ele>
        <time>2018-12-27T00:02:52Z</time>
      </trkpt>
      <trkpt lat="42.75401" lon="-0.55983">
        <ele>2221</ele>
        <time>2018-12-27T00:02:53Z</time>
      </trkpt>
      <trkpt lat="42.75384" lon="-0.56011">
        <ele>2211</ele>
        <time>2018-12-27T00:03:01Z</time>
      </trkpt>
      <trkpt lat="42.7538" lon="-0.56036">
        <ele>2202</ele>
        <time>2018-12-27T00:03:06Z</time>
      </trkpt>
      <trkpt lat="42.75374" lon="-0.56042">
        <ele>2201</ele>
        <time>2018-12-27T00:03:08Z</time>
      </trkpt>
      <trkpt lat="42.7537" lon="-0.56049">
        <ele>2199</ele>
        <time>2018-12-27T00:03:09Z</time>
      </trkpt>
      <trkpt lat="42.75356" lon="-0.56087">
        <ele>2189</ele>
        <time>2018-12-27T00:03:18Z</time>
      </trkpt>
      <trkpt lat="42.75348" lon="-0.56119">
        <ele>2177</ele>
        <time>2018-12-27T00:03:24Z</time>
      </trkpt>
      <trkpt lat="42.75348" lon="-0.56127">
        <ele>2174</ele>
        <time>2018-12-27T00:03:26Z</time>
      </trkpt>
      <trkpt lat="42.75339" lon="-0.56136">
        <ele>2169</ele>
        <time>2018-12-27T00:03:29Z</time>
      </trkpt>
      <trkpt lat="42.75338" lon="-0.56146">
        <ele>2165</ele>
        <time>2018-12-27T00:03:31Z</time>
      </trkpt>
      <trkpt lat="42.75321" lon="-0.56155">
        <ele>2160</ele>
        <time>2018-12-27T00:03:36Z</time>
      </trkpt>
      <trkpt lat="42.75311" lon="-0.56163">
        <ele>2155</ele>
        <time>2018-12-27T00:03:39Z</time>
      </trkpt>
      <trkpt lat="42.75306" lon="-0.56163">
        <ele>2154</ele>
        <time>2018-12-27T00:03:40Z</time>
      </trkpt>
      <trkpt lat="42.75302" lon="-0.56166">
        <ele>2153</ele>
        <time>2018-12-27T00:03:41Z</time>
      </trkpt>
      <trkpt lat="42.75298" lon="-0.56171">
        <ele>2150</ele>
        <time>2018-12-27T00:03:43Z</time>
      </trkpt>
      <trkpt lat="42.75284" lon="-0.56175">
        <ele>2147</ele>
        <time>2018-12-27T00:03:47Z</time>
      </trkpt>
      <trkpt lat="42.75277" lon="-0.56177">
        <ele>2146</ele>
        <time>2018-12-27T00:03:49Z</time>
      </trkpt>
      <trkpt lat="42.75271" lon="-0.56176">
        <ele>2146</ele>
        <time>2018-12-27T00:03:50Z</time>
      </trkpt>
      <trkpt lat="42.75264" lon="-0.56181">
        <ele>2142</ele>
        <time>2018-12-27T00:03:52Z</time>
      </trkpt>
      <trkpt lat="42.75265" lon="-0.56189">
        <ele>2138</ele>
        <time>2018-12-27T00:03:54Z</time>
      </trkpt>
      <trkpt lat="42.75263" lon="-0.56196">
        <ele>2134</ele>
        <time>2018-12-27T00:03:55Z</time>
      </trkpt>
      <trkpt lat="42.75258" lon="-0.56195">
        <ele>2134</ele>
        <time>2018-12-27T00:03:56Z</time>
      </trkpt>
      <trkpt lat="42.75256" lon="-0.56206">
        <ele>2131</ele>
        <time>2018-12-27T00:03:59Z</time>
      </trkpt>
      <trkpt lat="42.75251" lon="-0.56204">
        <ele>2131</ele>
        <time>2018-12-27T00:04:00Z</time>
      </trkpt>
      <trkpt lat="42.7525" lon="-0.56216">
        <ele>2129</ele>
        <time>2018-12-27T00:04:02Z</time>
      </trkpt>
      <trkpt lat="42.75243" lon="-0.56226">
        <ele>2124</ele>
        <time>2018-12-27T00:04:05Z</time>
      </trkpt>
      <trkpt lat="42.75236" lon="-0.5623">
        <ele>2120</ele>
        <time>2018-12-27T00:04:07Z</time>
      </trkpt>
      <trkpt lat="42.75227" lon="-0.56239">
        <ele>2113</ele>
        <time>2018-12-27T00:04:10Z</time>
      </trkpt>
      <trkpt lat="42.75227" lon="-0.56252">
        <ele>2106</ele>
        <time>2018-12-27T00:04:12Z</time>
      </trkpt>
      <trkpt lat="42.75216" lon="-0.56259">
        <ele>2098</ele>
        <time>2018-12-27T00:04:16Z</time>
      </trkpt>
      <trkpt lat="42.75209" lon="-0.56309">
        <ele>2076</ele>
        <time>2018-12-27T00:04:26Z</time>
      </trkpt>
      <trkpt lat="42.75211" lon="-0.56322">
        <ele>2070</ele>
        <time>2018-12-27T00:04:28Z</time>
      </trkpt>
      <trkpt lat="42.75209" lon="-0.56324">
        <ele>2068</ele>
        <time>2018-12-27T00:04:29Z</time>
      </trkpt>
      <trkpt lat="42.75208" lon="-0.56328">
        <ele>2066</ele>
        <time>2018-12-27T00:04:30Z</time>
      </trkpt>
      <trkpt lat="42.75204" lon="-0.56335">
        <ele>2061</ele>
        <time>2018-12-27T00:04:31Z</time>
      </trkpt>
      <trkpt lat="42.75196" lon="-0.56338">
        <ele>2056</ele>
        <time>2018-12-27T00:04:34Z</time>
      </trkpt>
      <trkpt lat="42.75194" lon="-0.5634">
        <ele>2054</ele>
        <time>2018-12-27T00:04:34Z</time>
      </trkpt>
      <trkpt lat="42.7519" lon="-0.56339">
        <ele>2055</ele>
        <time>2018-12-27T00:04:35Z</time>
      </trkpt>
      <trkpt lat="42.75194" lon="-0.56353">
        <ele>2048</ele>
        <time>2018-12-27T00:04:38Z</time>
      </trkpt>
      <trkpt lat="42.75195" lon="-0.56355">
        <ele>2047</ele>
        <time>2018-12-27T00:04:39Z</time>
      </trkpt>
      <trkpt lat="42.75195" lon="-0.56361">
        <ele>2044</ele>
        <time>2018-12-27T00:04:40Z</time>
      </trkpt>
      <trkpt lat="42.75191" lon="-0.56362">
        <ele>2044</ele>
        <time>2018-12-27T00:04:41Z</time>
      </trkpt>
      <trkpt lat="42.75194" lon="-0.5637">
        <ele>2045</ele>
        <time>2018-12-27T00:04:43Z</time>
      </trkpt>
      <trkpt lat="42.75195" lon="-0.56384">
        <ele>2049</ele>
        <time>2018-12-27T00:04:46Z</time>
      </trkpt>
      <trkpt lat="42.75188" lon="-0.56384">
        <ele>2045</ele>
        <time>2018-12-27T00:04:48Z</time>
      </trkpt>
      <trkpt lat="42.75176" lon="-0.56389">
        <ele>2036</ele>
        <time>2018-12-27T00:04:51Z</time>
      </trkpt>
      <trkpt lat="42.75174" lon="-0.56387">
        <ele>2035</ele>
        <time>2018-12-27T00:04:51Z</time>
      </trkpt>
      <trkpt lat="42.75172" lon="-0.56389">
        <ele>2033</ele>
        <time>2018-12-27T00:04:52Z</time>
      </trkpt>
      <trkpt lat="42.75171" lon="-0.56388">
        <ele>2033</ele>
        <time>2018-12-27T00:04:52Z</time>
      </trkpt>
      <trkpt lat="42.75168" lon="-0.56388">
        <ele>2031</ele>
        <time>2018-12-27T00:04:53Z</time>
      </trkpt>
      <trkpt lat="42.75156" lon="-0.56398">
        <ele>2023</ele>
        <time>2018-12-27T00:04:57Z</time>
      </trkpt>
      <trkpt lat="42.75141" lon="-0.56404">
        <ele>2017</ele>
        <time>2018-12-27T00:05:01Z</time>
      </trkpt>
      <trkpt lat="42.75134" lon="-0.5641">
        <ele>2013</ele>
        <time>2018-12-27T00:05:03Z</time>
      </trkpt>
      <trkpt lat="42.75136" lon="-0.56425">
        <ele>2008</ele>
        <time>2018-12-27T00:05:06Z</time>
      </trkpt>
      <trkpt lat="42.75143" lon="-0.56443">
        <ele>2003</ele>
        <time>2018-12-27T00:05:10Z</time>
      </trkpt>
      <trkpt lat="42.75143" lon="-0.56448">
        <ele>2002</ele>
        <time>2018-12-27T00:05:11Z</time>
      </trkpt>
      <trkpt lat="42.75141" lon="-0.5645">
        <ele>2001</ele>
        <time>2018-12-27T00:05:12Z</time>
      </trkpt>
      <trkpt lat="42.75143" lon="-0.56456">
        <ele>2000</ele>
        <time>2018-12-27T00:05:13Z</time>
      </trkpt>
      <trkpt lat="42.75142" lon="-0.56474">
        <ele>1995</ele>
        <time>2018-12-27T00:05:17Z</time>
      </trkpt>
      <trkpt lat="42.75144" lon="-0.56478">
        <ele>1994</ele>
        <time>2018-12-27T00:05:18Z</time>
      </trkpt>
      <trkpt lat="42.75144" lon="-0.56485">
        <ele>1991</ele>
        <time>2018-12-27T00:05:19Z</time>
      </trkpt>
      <trkpt lat="42.75141" lon="-0.56505">
        <ele>1983</ele>
        <time>2018-12-27T00:05:23Z</time>
      </trkpt>
      <trkpt lat="42.75143" lon="-0.56515">
        <ele>1981</ele>
        <time>2018-12-27T00:05:25Z</time>
      </trkpt>
      <trkpt lat="42.75139" lon="-0.56525">
        <ele>1977</ele>
        <time>2018-12-27T00:05:27Z</time>
      </trkpt>
      <trkpt lat="42.7514" lon="-0.56533">
        <ele>1976</ele>
        <time>2018-12-27T00:05:29Z</time>
      </trkpt>
      <trkpt lat="42.75143" lon="-0.5654">
        <ele>1974</ele>
        <time>2018-12-27T00:05:30Z</time>
      </trkpt>
      <trkpt lat="42.75148" lon="-0.56544">
        <ele>1974</ele>
        <time>2018-12-27T00:05:32Z</time>
      </trkpt>
      <trkpt lat="42.75147" lon="-0.56551">
        <ele>1972</ele>
        <time>2018-12-27T00:05:33Z</time>
      </trkpt>
      <trkpt lat="42.7515" lon="-0.56559">
        <ele>1970</ele>
        <time>2018-12-27T00:05:35Z</time>
      </trkpt>
      <trkpt lat="42.75145" lon="-0.56577">
        <ele>1967</ele>
        <time>2018-12-27T00:05:39Z</time>
      </trkpt>
      <trkpt lat="42.75144" lon="-0.5659">
        <ele>1963</ele>
        <time>2018-12-27T00:05:41Z</time>
      </trkpt>
      <trkpt lat="42.75148" lon="-0.56607">
        <ele>1955</ele>
        <time>2018-12-27T00:05:45Z</time>
      </trkpt>
      <trkpt lat="42.75148" lon="-0.56617">
        <ele>1951</ele>
        <time>2018-12-27T00:05:47Z</time>
      </trkpt>
      <trkpt lat="42.75153" lon="-0.56625">
        <ele>1949</ele>
        <time>2018-12-27T00:05:49Z</time>
      </trkpt>
      <trkpt lat="42.75155" lon="-0.56634">
        <ele>1946</ele>
        <time>2018-12-27T00:05:51Z</time>
      </trkpt>
      <trkpt lat="42.75157" lon="-0.5666">
        <ele>1937</ele>
        <time>2018-12-27T00:05:56Z</time>
      </trkpt>
      <trkpt lat="42.75164" lon="-0.5666">
        <ele>1939</ele>
        <time>2018-12-27T00:05:58Z</time>
      </trkpt>
      <trkpt lat="42.75168" lon="-0.56661">
        <ele>1939</ele>
        <time>2018-12-27T00:05:59Z</time>
      </trkpt>
      <trkpt lat="42.75168" lon="-0.56677">
        <ele>1932</ele>
        <time>2018-12-27T00:06:02Z</time>
      </trkpt>
      <trkpt lat="42.75173" lon="-0.56693">
        <ele>1925</ele>
        <time>2018-12-27T00:06:06Z</time>
      </trkpt>
      <trkpt lat="42.75173" lon="-0.56699">
        <ele>1922</ele>
        <time>2018-12-27T00:06:07Z</time>
      </trkpt>
      <trkpt lat="42.75181" lon="-0.56726">
        <ele>1911</ele>
        <time>2018-12-27T00:06:12Z</time>
      </trkpt>
      <trkpt lat="42.75181" lon="-0.56745">
        <ele>1905</ele>
        <time>2018-12-27T00:06:16Z</time>
      </trkpt>
      <trkpt lat="42.75185" lon="-0.56768">
        <ele>1902</ele>
        <time>2018-12-27T00:06:21Z</time>
      </trkpt>
      <trkpt lat="42.75184" lon="-0.56776">
        <ele>1901</ele>
        <time>2018-12-27T00:06:22Z</time>
      </trkpt>
      <trkpt lat="42.75185" lon="-0.56797">
        <ele>1900</ele>
        <time>2018-12-27T00:06:26Z</time>
      </trkpt>
      <trkpt lat="42.75179" lon="-0.56809">
        <ele>1898</ele>
        <time>2018-12-27T00:06:29Z</time>
      </trkpt>
      <trkpt lat="42.75168" lon="-0.56845">
        <ele>1888</ele>
        <time>2018-12-27T00:06:37Z</time>
      </trkpt>
      <trkpt lat="42.75153" lon="-0.56854">
        <ele>1882</ele>
        <time>2018-12-27T00:06:41Z</time>
      </trkpt>
      <trkpt lat="42.75144" lon="-0.56864">
        <ele>1878</ele>
        <time>2018-12-27T00:06:44Z</time>
      </trkpt>
      <trkpt lat="42.75142" lon="-0.56865">
        <ele>1877</ele>
        <time>2018-12-27T00:06:45Z</time>
      </trkpt>
      <trkpt lat="42.75137" lon="-0.56872">
        <ele>1875</ele>
        <time>2018-12-27T00:06:47Z</time>
      </trkpt>
      <trkpt lat="42.75131" lon="-0.56877">
        <ele>1873</ele>
        <time>2018-12-27T00:06:49Z</time>
      </trkpt>
      <trkpt lat="42.75129" lon="-0.56884">
        <ele>1872</ele>
        <time>2018-12-27T00:06:50Z</time>
      </trkpt>
      <trkpt lat="42.75129" lon="-0.56888">
        <ele>1872</ele>
        <time>2018-12-27T00:06:51Z</time>
      </trkpt>
      <trkpt lat="42.75121" lon="-0.56903">
        <ele>1870</ele>
        <time>2018-12-27T00:06:55Z</time>
      </trkpt>
      <trkpt lat="42.75103" lon="-0.56911">
        <ele>1867</ele>
        <time>2018-12-27T00:07:00Z</time>
      </trkpt>
      <trkpt lat="42.75097" lon="-0.56919">
        <ele>1866</ele>
        <time>2018-12-27T00:07:02Z</time>
      </trkpt>
      <trkpt lat="42.7508" lon="-0.56932">
        <ele>1867</ele>
        <time>2018-12-27T00:07:07Z</time>
      </trkpt>
      <trkpt lat="42.75076" lon="-0.56939">
        <ele>1869</ele>
        <time>2018-12-27T00:07:09Z</time>
      </trkpt>
      <trkpt lat="42.75069" lon="-0.56944">
        <ele>1871</ele>
        <time>2018-12-27T00:07:11Z</time>
      </trkpt>
      <trkpt lat="42.75062" lon="-0.56945">
        <ele>1871</ele>
        <time>2018-12-27T00:07:13Z</time>
      </trkpt>
      <trkpt lat="42.7506" lon="-0.56947">
        <ele>1872</ele>
        <time>2018-12-27T00:07:14Z</time>
      </trkpt>
      <trkpt lat="42.7506" lon="-0.56954">
        <ele>1872</ele>
        <time>2018-12-27T00:07:15Z</time>
      </trkpt>
      <trkpt lat="42.75057" lon="-0.56954">
        <ele>1873</ele>
        <time>2018-12-27T00:07:16Z</time>
      </trkpt>
      <trkpt lat="42.75054" lon="-0.56957">
        <ele>1873</ele>
        <time>2018-12-27T00:07:16Z</time>
      </trkpt>
      <trkpt lat="42.75051" lon="-0.56963">
        <ele>1873</ele>
        <time>2018-12-27T00:07:18Z</time>
      </trkpt>
      <trkpt lat="42.75051" lon="-0.56966">
        <ele>1874</ele>
        <time>2018-12-27T00:07:19Z</time>
      </trkpt>
      <trkpt lat="42.75043" lon="-0.5697">
        <ele>1873</ele>
        <time>2018-12-27T00:07:21Z</time>
      </trkpt>
      <trkpt lat="42.75042" lon="-0.56965">
        <ele>1873</ele>
        <time>2018-12-27T00:07:22Z</time>
      </trkpt>
      <trkpt lat="42.75038" lon="-0.56965">
        <ele>1873</ele>
        <time>2018-12-27T00:07:23Z</time>
      </trkpt>
      <trkpt lat="42.75021" lon="-0.56976">
        <ele>1872</ele>
        <time>2018-12-27T00:07:28Z</time>
      </trkpt>
      <trkpt lat="42.75014" lon="-0.56985">
        <ele>1870</ele>
        <time>2018-12-27T00:07:31Z</time>
      </trkpt>
      <trkpt lat="42.75011" lon="-0.56991">
        <ele>1868</ele>
        <time>2018-12-27T00:07:32Z</time>
      </trkpt>
      <trkpt lat="42.75012" lon="-0.57">
        <ele>1866</ele>
        <time>2018-12-27T00:07:34Z</time>
      </trkpt>
      <trkpt lat="42.75009" lon="-0.57008">
        <ele>1863</ele>
        <time>2018-12-27T00:07:35Z</time>
      </trkpt>
      <trkpt lat="42.75003" lon="-0.57009">
        <ele>1862</ele>
        <time>2018-12-27T00:07:37Z</time>
      </trkpt>
      <trkpt lat="42.75" lon="-0.57014">
        <ele>1860</ele>
        <time>2018-12-27T00:07:38Z</time>
      </trkpt>
      <trkpt lat="42.74993" lon="-0.57015">
        <ele>1861</ele>
        <time>2018-12-27T00:07:40Z</time>
      </trkpt>
      <trkpt lat="42.74979" lon="-0.57024">
        <ele>1859</ele>
        <time>2018-12-27T00:07:44Z</time>
      </trkpt>
      <trkpt lat="42.74968" lon="-0.57029">
        <ele>1859</ele>
        <time>2018-12-27T00:07:47Z</time>
      </trkpt>
      <trkpt lat="42.74965" lon="-0.57029">
        <ele>1859</ele>
        <time>2018-12-27T00:07:48Z</time>
      </trkpt>
      <trkpt lat="42.74959" lon="-0.57036">
        <ele>1858</ele>
        <time>2018-12-27T00:07:50Z</time>
      </trkpt>
      <trkpt lat="42.74957" lon="-0.57036">
        <ele>1858</ele>
        <time>2018-12-27T00:07:51Z</time>
      </trkpt>
      <trkpt lat="42.74952" lon="-0.57042">
        <ele>1857</ele>
        <time>2018-12-27T00:07:53Z</time>
      </trkpt>
      <trkpt lat="42.7495" lon="-0.5705">
        <ele>1855</ele>
        <time>2018-12-27T00:07:54Z</time>
      </trkpt>
      <trkpt lat="42.7494" lon="-0.57058">
        <ele>1854</ele>
        <time>2018-12-27T00:07:57Z</time>
      </trkpt>
      <trkpt lat="42.74923" lon="-0.57074">
        <ele>1852</ele>
        <time>2018-12-27T00:08:03Z</time>
      </trkpt>
      <trkpt lat="42.74918" lon="-0.57095">
        <ele>1848</ele>
        <time>2018-12-27T00:08:07Z</time>
      </trkpt>
      <trkpt lat="42.74911" lon="-0.57103">
        <ele>1847</ele>
        <time>2018-12-27T00:08:09Z</time>
      </trkpt>
      <trkpt lat="42.74895" lon="-0.57114">
        <ele>1844</ele>
        <time>2018-12-27T00:08:14Z</time>
      </trkpt>
      <trkpt lat="42.7489" lon="-0.57115">
        <ele>1844</ele>
        <time>2018-12-27T00:08:15Z</time>
      </trkpt>
      <trkpt lat="42.74881" lon="-0.57111">
        <ele>1845</ele>
        <time>2018-12-27T00:08:18Z</time>
      </trkpt>
      <trkpt lat="42.74874" lon="-0.57112">
        <ele>1843</ele>
        <time>2018-12-27T00:08:20Z</time>
      </trkpt>
      <trkpt lat="42.74866" lon="-0.57118">
        <ele>1841</ele>
        <time>2018-12-27T00:08:22Z</time>
      </trkpt>
      <trkpt lat="42.74832" lon="-0.57131">
        <ele>1836</ele>
        <time>2018-12-27T00:08:32Z</time>
      </trkpt>
      <trkpt lat="42.74827" lon="-0.57135">
        <ele>1834</ele>
        <time>2018-12-27T00:08:33Z</time>
      </trkpt>
      <trkpt lat="42.74821" lon="-0.57138">
        <ele>1834</ele>
        <time>2018-12-27T00:08:35Z</time>
      </trkpt>
      <trkpt lat="42.74809" lon="-0.57148">
        <ele>1831</ele>
        <time>2018-12-27T00:08:39Z</time>
      </trkpt>
      <trkpt lat="42.74799" lon="-0.5715">
        <ele>1831</ele>
        <time>2018-12-27T00:08:41Z</time>
      </trkpt>
      <trkpt lat="42.74789" lon="-0.57159">
        <ele>1829</ele>
        <time>2018-12-27T00:08:45Z</time>
      </trkpt>
      <trkpt lat="42.74782" lon="-0.57162">
        <ele>1828</ele>
        <time>2018-12-27T00:08:47Z</time>
      </trkpt>
      <trkpt lat="42.74778" lon="-0.57162">
        <ele>1828</ele>
        <time>2018-12-27T00:08:48Z</time>
      </trkpt>
      <trkpt lat="42.74757" lon="-0.57174">
        <ele>1827</ele>
        <time>2018-12-27T00:08:54Z</time>
      </trkpt>
      <trkpt lat="42.74754" lon="-0.57178">
        <ele>1826</ele>
        <time>2018-12-27T00:08:55Z</time>
      </trkpt>
      <trkpt lat="42.74739" lon="-0.57186">
        <ele>1826</ele>
        <time>2018-12-27T00:08:59Z</time>
      </trkpt>
      <trkpt lat="42.7473" lon="-0.57198">
        <ele>1825</ele>
        <time>2018-12-27T00:09:03Z</time>
      </trkpt>
      <trkpt lat="42.74722" lon="-0.57201">
        <ele>1825</ele>
        <time>2018-12-27T00:09:05Z</time>
      </trkpt>
      <trkpt lat="42.74718" lon="-0.572">
        <ele>1826</ele>
        <time>2018-12-27T00:09:06Z</time>
      </trkpt>
      <trkpt lat="42.74714" lon="-0.57204">
        <ele>1825</ele>
        <time>2018-12-27T00:09:07Z</time>
      </trkpt>
      <trkpt lat="42.74706" lon="-0.57208">
        <ele>1824</ele>
        <time>2018-12-27T00:09:09Z</time>
      </trkpt>
      <trkpt lat="42.74676" lon="-0.57216">
        <ele>1824</ele>
        <time>2018-12-27T00:09:18Z</time>
      </trkpt>
      <trkpt lat="42.74667" lon="-0.57217">
        <ele>1823</ele>
        <time>2018-12-27T00:09:20Z</time>
      </trkpt>
      <trkpt lat="42.74658" lon="-0.57223">
        <ele>1822</ele>
        <time>2018-12-27T00:09:23Z</time>
      </trkpt>
      <trkpt lat="42.74654" lon="-0.57227">
        <ele>1822</ele>
        <time>2018-12-27T00:09:24Z</time>
      </trkpt>
      <trkpt lat="42.74638" lon="-0.57248">
        <ele>1817</ele>
        <time>2018-12-27T00:09:30Z</time>
      </trkpt>
      <trkpt lat="42.74628" lon="-0.57255">
        <ele>1817</ele>
        <time>2018-12-27T00:09:33Z</time>
      </trkpt>
      <trkpt lat="42.74621" lon="-0.57263">
        <ele>1817</ele>
        <time>2018-12-27T00:09:35Z</time>
      </trkpt>
      <trkpt lat="42.74605" lon="-0.57277">
        <ele>1818</ele>
        <time>2018-12-27T00:09:40Z</time>
      </trkpt>
      <trkpt lat="42.74569" lon="-0.57316">
        <ele>1809</ele>
        <time>2018-12-27T00:09:53Z</time>
      </trkpt>
      <trkpt lat="42.74561" lon="-0.57322">
        <ele>1807</ele>
        <time>2018-12-27T00:09:55Z</time>
      </trkpt>
      <trkpt lat="42.74566" lon="-0.57323">
        <ele>1806</ele>
        <time>2018-12-27T00:09:56Z</time>
      </trkpt>
      <trkpt lat="42.74559" lon="-0.57326">
        <ele>1806</ele>
        <time>2018-12-27T00:09:58Z</time>
      </trkpt>
      <trkpt lat="42.74552" lon="-0.57334">
        <ele>1804</ele>
        <time>2018-12-27T00:10:01Z</time>
      </trkpt>
      <trkpt lat="42.7454" lon="-0.57349">
        <ele>1803</ele>
        <time>2018-12-27T00:10:05Z</time>
      </trkpt>
      <trkpt lat="42.74535" lon="-0.5736">
        <ele>1800</ele>
        <time>2018-12-27T00:10:08Z</time>
      </trkpt>
      <trkpt lat="42.74509" lon="-0.57377">
        <ele>1804</ele>
        <time>2018-12-27T00:10:15Z</time>
      </trkpt>
      <trkpt lat="42.74503" lon="-0.57387">
        <ele>1802</ele>
        <time>2018-12-27T00:10:18Z</time>
      </trkpt>
      <trkpt lat="42.74477" lon="-0.57398">
        <ele>1809</ele>
        <time>2018-12-27T00:10:25Z</time>
      </trkpt>
      <trkpt lat="42.74467" lon="-0.57408">
        <ele>1808</ele>
        <time>2018-12-27T00:10:28Z</time>
      </trkpt>
      <trkpt lat="42.74446" lon="-0.5742">
        <ele>1807</ele>
        <time>2018-12-27T00:10:34Z</time>
      </trkpt>
      <trkpt lat="42.74439" lon="-0.57407">
        <ele>1813</ele>
        <time>2018-12-27T00:10:38Z</time>
      </trkpt>
      <trkpt lat="42.74439" lon="-0.574">
        <ele>1815</ele>
        <time>2018-12-27T00:10:39Z</time>
      </trkpt>
      <trkpt lat="42.74436" lon="-0.57385">
        <ele>1821</ele>
        <time>2018-12-27T00:10:42Z</time>
      </trkpt>
      <trkpt lat="42.74436" lon="-0.57382">
        <ele>1822</ele>
        <time>2018-12-27T00:10:43Z</time>
      </trkpt>
      <trkpt lat="42.74438" lon="-0.5738">
        <ele>1823</ele>
        <time>2018-12-27T00:10:43Z</time>
      </trkpt>
      <trkpt lat="42.74425" lon="-0.57352">
        <ele>1833</ele>
        <time>2018-12-27T00:10:50Z</time>
      </trkpt>
      <trkpt lat="42.74424" lon="-0.57344">
        <ele>1835</ele>
        <time>2018-12-27T00:10:52Z</time>
      </trkpt>
      <trkpt lat="42.74417" lon="-0.57342">
        <ele>1835</ele>
        <time>2018-12-27T00:10:54Z</time>
      </trkpt>
      <trkpt lat="42.74409" lon="-0.57343">
        <ele>1835</ele>
        <time>2018-12-27T00:10:56Z</time>
      </trkpt>
      <trkpt lat="42.74403" lon="-0.57338">
        <ele>1837</ele>
        <time>2018-12-27T00:10:57Z</time>
      </trkpt>
      <trkpt lat="42.744" lon="-0.5733">
        <ele>1839</ele>
        <time>2018-12-27T00:10:59Z</time>
      </trkpt>
      <trkpt lat="42.74397" lon="-0.57308">
        <ele>1844</ele>
        <time>2018-12-27T00:11:04Z</time>
      </trkpt>
      <trkpt lat="42.74391" lon="-0.57298">
        <ele>1847</ele>
        <time>2018-12-27T00:11:06Z</time>
      </trkpt>
      <trkpt lat="42.74385" lon="-0.57274">
        <ele>1853</ele>
        <time>2018-12-27T00:11:11Z</time>
      </trkpt>
      <trkpt lat="42.74385" lon="-0.57271">
        <ele>1854</ele>
        <time>2018-12-27T00:11:12Z</time>
      </trkpt>
      <trkpt lat="42.74388" lon="-0.57269">
        <ele>1853</ele>
        <time>2018-12-27T00:11:13Z</time>
      </trkpt>
      <trkpt lat="42.74391" lon="-0.57263">
        <ele>1854</ele>
        <time>2018-12-27T00:11:14Z</time>
      </trkpt>
      <trkpt lat="42.74389" lon="-0.57252">
        <ele>1856</ele>
        <time>2018-12-27T00:11:16Z</time>
      </trkpt>
      <trkpt lat="42.74387" lon="-0.57249">
        <ele>1857</ele>
        <time>2018-12-27T00:11:17Z</time>
      </trkpt>
      <trkpt lat="42.74385" lon="-0.57242">
        <ele>1859</ele>
        <time>2018-12-27T00:11:19Z</time>
      </trkpt>
      <trkpt lat="42.7436" lon="-0.57195">
        <ele>1872</ele>
        <time>2018-12-27T00:11:30Z</time>
      </trkpt>
      <trkpt lat="42.74355" lon="-0.57191">
        <ele>1875</ele>
        <time>2018-12-27T00:11:31Z</time>
      </trkpt>
      <trkpt lat="42.74348" lon="-0.57179">
        <ele>1879</ele>
        <time>2018-12-27T00:11:34Z</time>
      </trkpt>
      <trkpt lat="42.74345" lon="-0.57178">
        <ele>1880</ele>
        <time>2018-12-27T00:11:35Z</time>
      </trkpt>
      <trkpt lat="42.74334" lon="-0.57154">
        <ele>1887</ele>
        <time>2018-12-27T00:11:41Z</time>
      </trkpt>
      <trkpt lat="42.74333" lon="-0.57142">
        <ele>1889</ele>
        <time>2018-12-27T00:11:43Z</time>
      </trkpt>
      <trkpt lat="42.74337" lon="-0.57141">
        <ele>1888</ele>
        <time>2018-12-27T00:11:44Z</time>
      </trkpt>
      <trkpt lat="42.74343" lon="-0.57135">
        <ele>1888</ele>
        <time>2018-12-27T00:11:46Z</time>
      </trkpt>
      <trkpt lat="42.74344" lon="-0.5713">
        <ele>1890</ele>
        <time>2018-12-27T00:11:47Z</time>
      </trkpt>
      <trkpt lat="42.7434" lon="-0.57112">
        <ele>1895</ele>
        <time>2018-12-27T00:11:51Z</time>
      </trkpt>
      <trkpt lat="42.74335" lon="-0.57109">
        <ele>1897</ele>
        <time>2018-12-27T00:11:53Z</time>
      </trkpt>
      <trkpt lat="42.74331" lon="-0.57103">
        <ele>1900</ele>
        <time>2018-12-27T00:11:54Z</time>
      </trkpt>
      <trkpt lat="42.74326" lon="-0.57101">
        <ele>1902</ele>
        <time>2018-12-27T00:11:56Z</time>
      </trkpt>
      <trkpt lat="42.74321" lon="-0.57094">
        <ele>1905</ele>
        <time>2018-12-27T00:11:57Z</time>
      </trkpt>
      <trkpt lat="42.74319" lon="-0.5708">
        <ele>1909</ele>
        <time>2018-12-27T00:12:00Z</time>
      </trkpt>
      <trkpt lat="42.74317" lon="-0.57078">
        <ele>1909</ele>
        <time>2018-12-27T00:12:01Z</time>
      </trkpt>
      <trkpt lat="42.74314" lon="-0.57084">
        <ele>1909</ele>
        <time>2018-12-27T00:12:02Z</time>
      </trkpt>
      <trkpt lat="42.7431" lon="-0.57086">
        <ele>1909</ele>
        <time>2018-12-27T00:12:03Z</time>
      </trkpt>
      <trkpt lat="42.74309" lon="-0.57083">
        <ele>1910</ele>
        <time>2018-12-27T00:12:04Z</time>
      </trkpt>
      <trkpt lat="42.74309" lon="-0.57078">
        <ele>1911</ele>
        <time>2018-12-27T00:12:05Z</time>
      </trkpt>
      <trkpt lat="42.74305" lon="-0.5707">
        <ele>1913</ele>
        <time>2018-12-27T00:12:07Z</time>
      </trkpt>
      <trkpt lat="42.743" lon="-0.57071">
        <ele>1916</ele>
        <time>2018-12-27T00:12:08Z</time>
      </trkpt>
      <trkpt lat="42.74294" lon="-0.57063">
        <ele>1921</ele>
        <time>2018-12-27T00:12:11Z</time>
      </trkpt>
      <trkpt lat="42.74293" lon="-0.57059">
        <ele>1922</ele>
        <time>2018-12-27T00:12:12Z</time>
      </trkpt>
      <trkpt lat="42.74305" lon="-0.57046">
        <ele>1918</ele>
        <time>2018-12-27T00:12:15Z</time>
      </trkpt>
      <trkpt lat="42.74306" lon="-0.5704">
        <ele>1919</ele>
        <time>2018-12-27T00:12:17Z</time>
      </trkpt>
      <trkpt lat="42.74293" lon="-0.57048">
        <ele>1925</ele>
        <time>2018-12-27T00:12:21Z</time>
      </trkpt>
      <trkpt lat="42.7429" lon="-0.57048">
        <ele>1927</ele>
        <time>2018-12-27T00:12:22Z</time>
      </trkpt>
      <trkpt lat="42.74299" lon="-0.57031">
        <ele>1925</ele>
        <time>2018-12-27T00:12:26Z</time>
      </trkpt>
      <trkpt lat="42.74298" lon="-0.57026">
        <ele>1926</ele>
        <time>2018-12-27T00:12:27Z</time>
      </trkpt>
      <trkpt lat="42.74292" lon="-0.57032">
        <ele>1929</ele>
        <time>2018-12-27T00:12:29Z</time>
      </trkpt>
      <trkpt lat="42.74293" lon="-0.5702">
        <ele>1931</ele>
        <time>2018-12-27T00:12:31Z</time>
      </trkpt>
      <trkpt lat="42.74289" lon="-0.56999">
        <ele>1939</ele>
        <time>2018-12-27T00:12:36Z</time>
      </trkpt>
      <trkpt lat="42.74279" lon="-0.57012">
        <ele>1940</ele>
        <time>2018-12-27T00:12:39Z</time>
      </trkpt>
      <trkpt lat="42.74265" lon="-0.57019">
        <ele>1948</ele>
        <time>2018-12-27T00:12:43Z</time>
      </trkpt>
      <trkpt lat="42.74267" lon="-0.57009">
        <ele>1949</ele>
        <time>2018-12-27T00:12:46Z</time>
      </trkpt>
      <trkpt lat="42.7427" lon="-0.57005">
        <ele>1947</ele>
        <time>2018-12-27T00:12:47Z</time>
      </trkpt>
      <trkpt lat="42.74269" lon="-0.57001">
        <ele>1949</ele>
        <time>2018-12-27T00:12:47Z</time>
      </trkpt>
      <trkpt lat="42.74263" lon="-0.57003">
        <ele>1952</ele>
        <time>2018-12-27T00:12:49Z</time>
      </trkpt>
      <trkpt lat="42.74259" lon="-0.57007">
        <ele>1954</ele>
        <time>2018-12-27T00:12:50Z</time>
      </trkpt>
      <trkpt lat="42.74257" lon="-0.57007">
        <ele>1956</ele>
        <time>2018-12-27T00:12:51Z</time>
      </trkpt>
      <trkpt lat="42.7426" lon="-0.56984">
        <ele>1958</ele>
        <time>2018-12-27T00:12:55Z</time>
      </trkpt>
      <trkpt lat="42.7426" lon="-0.5698">
        <ele>1959</ele>
        <time>2018-12-27T00:12:56Z</time>
      </trkpt>
      <trkpt lat="42.74257" lon="-0.56972">
        <ele>1962</ele>
        <time>2018-12-27T00:12:58Z</time>
      </trkpt>
      <trkpt lat="42.74263" lon="-0.56961">
        <ele>1961</ele>
        <time>2018-12-27T00:13:01Z</time>
      </trkpt>
      <trkpt lat="42.74264" lon="-0.56956">
        <ele>1962</ele>
        <time>2018-12-27T00:13:02Z</time>
      </trkpt>
      <trkpt lat="42.74258" lon="-0.56933">
        <ele>1969</ele>
        <time>2018-12-27T00:13:06Z</time>
      </trkpt>
      <trkpt lat="42.74254" lon="-0.56925">
        <ele>1973</ele>
        <time>2018-12-27T00:13:08Z</time>
      </trkpt>
      <trkpt lat="42.74256" lon="-0.56915">
        <ele>1975</ele>
        <time>2018-12-27T00:13:10Z</time>
      </trkpt>
      <trkpt lat="42.74259" lon="-0.5691">
        <ele>1975</ele>
        <time>2018-12-27T00:13:12Z</time>
      </trkpt>
      <trkpt lat="42.74256" lon="-0.56897">
        <ele>1980</ele>
        <time>2018-12-27T00:13:14Z</time>
      </trkpt>
      <trkpt lat="42.74255" lon="-0.56895">
        <ele>1981</ele>
        <time>2018-12-27T00:13:15Z</time>
      </trkpt>
      <trkpt lat="42.74252" lon="-0.56899">
        <ele>1981</ele>
        <time>2018-12-27T00:13:16Z</time>
      </trkpt>
      <trkpt lat="42.7425" lon="-0.56899">
        <ele>1983</ele>
        <time>2018-12-27T00:13:17Z</time>
      </trkpt>
      <trkpt lat="42.74241" lon="-0.5688">
        <ele>1993</ele>
        <time>2018-12-27T00:13:21Z</time>
      </trkpt>
      <trkpt lat="42.74239" lon="-0.56878">
        <ele>1994</ele>
        <time>2018-12-27T00:13:22Z</time>
      </trkpt>
      <trkpt lat="42.74237" lon="-0.56875">
        <ele>1996</ele>
        <time>2018-12-27T00:13:23Z</time>
      </trkpt>
      <trkpt lat="42.74238" lon="-0.56866">
        <ele>1997</ele>
        <time>2018-12-27T00:13:24Z</time>
      </trkpt>
      <trkpt lat="42.74237" lon="-0.56855">
        <ele>2000</ele>
        <time>2018-12-27T00:13:27Z</time>
      </trkpt>
      <trkpt lat="42.74233" lon="-0.56849">
        <ele>2003</ele>
        <time>2018-12-27T00:13:28Z</time>
      </trkpt>
      <trkpt lat="42.74226" lon="-0.56859">
        <ele>2005</ele>
        <time>2018-12-27T00:13:31Z</time>
      </trkpt>
      <trkpt lat="42.7422" lon="-0.56865">
        <ele>2007</ele>
        <time>2018-12-27T00:13:33Z</time>
      </trkpt>
      <trkpt lat="42.74213" lon="-0.56868">
        <ele>2009</ele>
        <time>2018-12-27T00:13:35Z</time>
      </trkpt>
      <trkpt lat="42.74215" lon="-0.56851">
        <ele>2011</ele>
        <time>2018-12-27T00:13:38Z</time>
      </trkpt>
      <trkpt lat="42.74209" lon="-0.56822">
        <ele>2018</ele>
        <time>2018-12-27T00:13:44Z</time>
      </trkpt>
      <trkpt lat="42.74209" lon="-0.56776">
        <ele>2025</ele>
        <time>2018-12-27T00:13:53Z</time>
      </trkpt>
      <trkpt lat="42.74214" lon="-0.5674">
        <ele>2028</ele>
        <time>2018-12-27T00:14:00Z</time>
      </trkpt>
      <trkpt lat="42.74218" lon="-0.56725">
        <ele>2029</ele>
        <time>2018-12-27T00:14:03Z</time>
      </trkpt>
      <trkpt lat="42.7422" lon="-0.56704">
        <ele>2032</ele>
        <time>2018-12-27T00:14:08Z</time>
      </trkpt>
      <trkpt lat="42.74221" lon="-0.5667">
        <ele>2033</ele>
        <time>2018-12-27T00:14:14Z</time>
      </trkpt>
      <trkpt lat="42.74223" lon="-0.56651">
        <ele>2032</ele>
        <time>2018-12-27T00:14:18Z</time>
      </trkpt>
      <trkpt lat="42.74219" lon="-0.56649">
        <ele>2032</ele>
        <time>2018-12-27T00:14:19Z</time>
      </trkpt>
      <trkpt lat="42.74206" lon="-0.56654">
        <ele>2033</ele>
        <time>2018-12-27T00:14:23Z</time>
      </trkpt>
      <trkpt lat="42.74201" lon="-0.56652">
        <ele>2033</ele>
        <time>2018-12-27T00:14:24Z</time>
      </trkpt>
      <trkpt lat="42.74196" lon="-0.56651">
        <ele>2033</ele>
        <time>2018-12-27T00:14:25Z</time>
      </trkpt>
      <trkpt lat="42.74173" lon="-0.56677">
        <ele>2043</ele>
        <time>2018-12-27T00:14:34Z</time>
      </trkpt>
      <trkpt lat="42.74168" lon="-0.56679">
        <ele>2045</ele>
        <time>2018-12-27T00:14:35Z</time>
      </trkpt>
      <trkpt lat="42.74138" lon="-0.56706">
        <ele>2058</ele>
        <time>2018-12-27T00:14:44Z</time>
      </trkpt>
      <trkpt lat="42.74092" lon="-0.56742">
        <ele>2076</ele>
        <time>2018-12-27T00:14:59Z</time>
      </trkpt>
      <trkpt lat="42.74084" lon="-0.5675">
        <ele>2079</ele>
        <time>2018-12-27T00:15:01Z</time>
      </trkpt>
      <trkpt lat="42.74077" lon="-0.56753">
        <ele>2082</ele>
        <time>2018-12-27T00:15:03Z</time>
      </trkpt>
      <trkpt lat="42.74075" lon="-0.56758">
        <ele>2083</ele>
        <time>2018-12-27T00:15:04Z</time>
      </trkpt>
      <trkpt lat="42.74059" lon="-0.56753">
        <ele>2086</ele>
        <time>2018-12-27T00:15:09Z</time>
      </trkpt>
      <trkpt lat="42.74055" lon="-0.56754">
        <ele>2088</ele>
        <time>2018-12-27T00:15:10Z</time>
      </trkpt>
      <trkpt lat="42.74053" lon="-0.56761">
        <ele>2090</ele>
        <time>2018-12-27T00:15:11Z</time>
      </trkpt>
      <trkpt lat="42.74052" lon="-0.56762">
        <ele>2091</ele>
        <time>2018-12-27T00:15:12Z</time>
      </trkpt>
      <trkpt lat="42.74043" lon="-0.56756">
        <ele>2092</ele>
        <time>2018-12-27T00:15:14Z</time>
      </trkpt>
      <trkpt lat="42.74038" lon="-0.56755">
        <ele>2093</ele>
        <time>2018-12-27T00:15:16Z</time>
      </trkpt>
      <trkpt lat="42.74036" lon="-0.56754">
        <ele>2093</ele>
        <time>2018-12-27T00:15:16Z</time>
      </trkpt>
      <trkpt lat="42.74034" lon="-0.56755">
        <ele>2094</ele>
        <time>2018-12-27T00:15:17Z</time>
      </trkpt>
      <trkpt lat="42.74034" lon="-0.56759">
        <ele>2096</ele>
        <time>2018-12-27T00:15:18Z</time>
      </trkpt>
      <trkpt lat="42.74032" lon="-0.56758">
        <ele>2096</ele>
        <time>2018-12-27T00:15:18Z</time>
      </trkpt>
      <trkpt lat="42.74032" lon="-0.56759">
        <ele>2097</ele>
        <time>2018-12-27T00:15:18Z</time>
      </trkpt>
      <trkpt lat="42.74028" lon="-0.56756">
        <ele>2097</ele>
        <time>2018-12-27T00:15:20Z</time>
      </trkpt>
      <trkpt lat="42.74025" lon="-0.56756">
        <ele>2097</ele>
        <time>2018-12-27T00:15:20Z</time>
      </trkpt>
      <trkpt lat="42.74025" lon="-0.56759">
        <ele>2098</ele>
        <time>2018-12-27T00:15:21Z</time>
      </trkpt>
      <trkpt lat="42.74023" lon="-0.56758">
        <ele>2098</ele>
        <time>2018-12-27T00:15:21Z</time>
      </trkpt>
      <trkpt lat="42.74022" lon="-0.56761">
        <ele>2100</ele>
        <time>2018-12-27T00:15:22Z</time>
      </trkpt>
      <trkpt lat="42.74023" lon="-0.56768">
        <ele>2102</ele>
        <time>2018-12-27T00:15:23Z</time>
      </trkpt>
      <trkpt lat="42.74015" lon="-0.56768">
        <ele>2104</ele>
        <time>2018-12-27T00:15:26Z</time>
      </trkpt>
      <trkpt lat="42.74015" lon="-0.56782">
        <ele>2110</ele>
        <time>2018-12-27T00:15:28Z</time>
      </trkpt>
      <trkpt lat="42.74012" lon="-0.56805">
        <ele>2121</ele>
        <time>2018-12-27T00:15:33Z</time>
      </trkpt>
      <trkpt lat="42.74006" lon="-0.56807">
        <ele>2123</ele>
        <time>2018-12-27T00:15:35Z</time>
      </trkpt>
      <trkpt lat="42.73994" lon="-0.56801">
        <ele>2126</ele>
        <time>2018-12-27T00:15:38Z</time>
      </trkpt>
      <trkpt lat="42.73991" lon="-0.56803">
        <ele>2128</ele>
        <time>2018-12-27T00:15:39Z</time>
      </trkpt>
      <trkpt lat="42.73991" lon="-0.56816">
        <ele>2133</ele>
        <time>2018-12-27T00:15:41Z</time>
      </trkpt>
      <trkpt lat="42.73979" lon="-0.56815">
        <ele>2138</ele>
        <time>2018-12-27T00:15:44Z</time>
      </trkpt>
      <trkpt lat="42.73979" lon="-0.56827">
        <ele>2142</ele>
        <time>2018-12-27T00:15:47Z</time>
      </trkpt>
      <trkpt lat="42.73965" lon="-0.56822">
        <ele>2147</ele>
        <time>2018-12-27T00:15:51Z</time>
      </trkpt>
      <trkpt lat="42.73963" lon="-0.56841">
        <ele>2150</ele>
        <time>2018-12-27T00:15:54Z</time>
      </trkpt>
      <trkpt lat="42.73961" lon="-0.56842">
        <ele>2151</ele>
        <time>2018-12-27T00:15:55Z</time>
      </trkpt>
      <trkpt lat="42.73956" lon="-0.56839">
        <ele>2152</ele>
        <time>2018-12-27T00:15:56Z</time>
      </trkpt>
      <trkpt lat="42.73947" lon="-0.56841">
        <ele>2154</ele>
        <time>2018-12-27T00:15:59Z</time>
      </trkpt>
      <trkpt lat="42.73934" lon="-0.56838">
        <ele>2159</ele>
        <time>2018-12-27T00:16:02Z</time>
      </trkpt>
      <trkpt lat="42.73932" lon="-0.56852">
        <ele>2161</ele>
        <time>2018-12-27T00:16:05Z</time>
      </trkpt>
      <trkpt lat="42.73928" lon="-0.56861">
        <ele>2163</ele>
        <time>2018-12-27T00:16:07Z</time>
      </trkpt>
      <trkpt lat="42.73916" lon="-0.5686">
        <ele>2168</ele>
        <time>2018-12-27T00:16:10Z</time>
      </trkpt>
      <trkpt lat="42.73915" lon="-0.56862">
        <ele>2169</ele>
        <time>2018-12-27T00:16:11Z</time>
      </trkpt>
      <trkpt lat="42.73913" lon="-0.56869">
        <ele>2172</ele>
        <time>2018-12-27T00:16:13Z</time>
      </trkpt>
      <trkpt lat="42.73911" lon="-0.56871">
        <ele>2173</ele>
        <time>2018-12-27T00:16:13Z</time>
      </trkpt>
      <trkpt lat="42.73899" lon="-0.56866">
        <ele>2181</ele>
        <time>2018-12-27T00:16:16Z</time>
      </trkpt>
      <trkpt lat="42.73897" lon="-0.56868">
        <ele>2183</ele>
        <time>2018-12-27T00:16:17Z</time>
      </trkpt>
      <trkpt lat="42.73895" lon="-0.56878">
        <ele>2187</ele>
        <time>2018-12-27T00:16:19Z</time>
      </trkpt>
      <trkpt lat="42.73883" lon="-0.56882">
        <ele>2195</ele>
        <time>2018-12-27T00:16:23Z</time>
      </trkpt>
      <trkpt lat="42.73876" lon="-0.56881">
        <ele>2197</ele>
        <time>2018-12-27T00:16:24Z</time>
      </trkpt>
      <trkpt lat="42.73868" lon="-0.56884">
        <ele>2200</ele>
        <time>2018-12-27T00:16:27Z</time>
      </trkpt>
      <trkpt lat="42.73866" lon="-0.56893">
        <ele>2203</ele>
        <time>2018-12-27T00:16:28Z</time>
      </trkpt>
      <trkpt lat="42.73859" lon="-0.56892">
        <ele>2205</ele>
        <time>2018-12-27T00:16:30Z</time>
      </trkpt>
      <trkpt lat="42.73836" lon="-0.56892">
        <ele>2211</ele>
        <time>2018-12-27T00:16:36Z</time>
      </trkpt>
      <trkpt lat="42.73835" lon="-0.56905">
        <ele>2213</ele>
        <time>2018-12-27T00:16:39Z</time>
      </trkpt>
      <trkpt lat="42.73832" lon="-0.56909">
        <ele>2214</ele>
        <time>2018-12-27T00:16:40Z</time>
      </trkpt>
      <trkpt lat="42.7382" lon="-0.56909">
        <ele>2220</ele>
        <time>2018-12-27T00:16:43Z</time>
      </trkpt>
      <trkpt lat="42.73812" lon="-0.56913">
        <ele>2223</ele>
        <time>2018-12-27T00:16:45Z</time>
      </trkpt>
      <trkpt lat="42.73808" lon="-0.56913">
        <ele>2225</ele>
        <time>2018-12-27T00:16:46Z</time>
      </trkpt>
      <trkpt lat="42.73806" lon="-0.56921">
        <ele>2227</ele>
        <time>2018-12-27T00:16:48Z</time>
      </trkpt>
      <trkpt lat="42.73803" lon="-0.56922">
        <ele>2228</ele>
        <time>2018-12-27T00:16:49Z</time>
      </trkpt>
      <trkpt lat="42.73797" lon="-0.5692">
        <ele>2231</ele>
        <time>2018-12-27T00:16:51Z</time>
      </trkpt>
      <trkpt lat="42.73792" lon="-0.56922">
        <ele>2234</ele>
        <time>2018-12-27T00:16:52Z</time>
      </trkpt>
      <trkpt lat="42.73784" lon="-0.56919">
        <ele>2237</ele>
        <time>2018-12-27T00:16:54Z</time>
      </trkpt>
      <trkpt lat="42.73774" lon="-0.56921">
        <ele>2242</ele>
        <time>2018-12-27T00:16:57Z</time>
      </trkpt>
      <trkpt lat="42.73772" lon="-0.56925">
        <ele>2244</ele>
        <time>2018-12-27T00:16:58Z</time>
      </trkpt>
      <trkpt lat="42.73768" lon="-0.56925">
        <ele>2245</ele>
        <time>2018-12-27T00:16:59Z</time>
      </trkpt>
      <trkpt lat="42.73766" lon="-0.56928">
        <ele>2246</ele>
        <time>2018-12-27T00:16:59Z</time>
      </trkpt>
      <trkpt lat="42.73758" lon="-0.5693">
        <ele>2250</ele>
        <time>2018-12-27T00:17:02Z</time>
      </trkpt>
      <trkpt lat="42.73758" lon="-0.56933">
        <ele>2250</ele>
        <time>2018-12-27T00:17:02Z</time>
      </trkpt>
      <trkpt lat="42.73757" lon="-0.56934">
        <ele>2250</ele>
        <time>2018-12-27T00:17:03Z</time>
      </trkpt>
      <trkpt lat="42.73752" lon="-0.5693">
        <ele>2252</ele>
        <time>2018-12-27T00:17:04Z</time>
      </trkpt>
      <trkpt lat="42.73741" lon="-0.56932">
        <ele>2255</ele>
        <time>2018-12-27T00:17:07Z</time>
      </trkpt>
      <trkpt lat="42.7374" lon="-0.56934">
        <ele>2256</ele>
        <time>2018-12-27T00:17:08Z</time>
      </trkpt>
      <trkpt lat="42.73741" lon="-0.56938">
        <ele>2256</ele>
        <time>2018-12-27T00:17:08Z</time>
      </trkpt>
      <trkpt lat="42.7374" lon="-0.56941">
        <ele>2256</ele>
        <time>2018-12-27T00:17:09Z</time>
      </trkpt>
      <trkpt lat="42.73739" lon="-0.5694">
        <ele>2256</ele>
        <time>2018-12-27T00:17:09Z</time>
      </trkpt>
      <trkpt lat="42.73735" lon="-0.56944">
        <ele>2258</ele>
        <time>2018-12-27T00:17:11Z</time>
      </trkpt>
      <trkpt lat="42.73721" lon="-0.56941">
        <ele>2261</ele>
        <time>2018-12-27T00:17:14Z</time>
      </trkpt>
      <trkpt lat="42.73719" lon="-0.56949">
        <ele>2260</ele>
        <time>2018-12-27T00:17:16Z</time>
      </trkpt>
      <trkpt lat="42.73716" lon="-0.56948">
        <ele>2260</ele>
        <time>2018-12-27T00:17:17Z</time>
      </trkpt>
      <trkpt lat="42.73714" lon="-0.56947">
        <ele>2260</ele>
        <time>2018-12-27T00:17:18Z</time>
      </trkpt>
      <trkpt lat="42.73711" lon="-0.56943">
        <ele>2260</ele>
        <time>2018-12-27T00:17:19Z</time>
      </trkpt>
      <trkpt lat="42.73711" lon="-0.56939">
        <ele>2260</ele>
        <time>2018-12-27T00:17:19Z</time>
      </trkpt>
      <trkpt lat="42.73712" lon="-0.5694">
        <ele>2260</ele>
        <time>2018-12-27T00:17:20Z</time>
      </trkpt>
      <trkpt lat="42.73705" lon="-0.56931">
        <ele>2259</ele>
        <time>2018-12-27T00:17:22Z</time>
      </trkpt>
      <trkpt lat="42.73683" lon="-0.56914">
        <ele>2258</ele>
        <time>2018-12-27T00:17:29Z</time>
      </trkpt>
      <trkpt lat="42.7367" lon="-0.56906">
        <ele>2256</ele>
        <time>2018-12-27T00:17:33Z</time>
      </trkpt>
      <trkpt lat="42.73661" lon="-0.56895">
        <ele>2255</ele>
        <time>2018-12-27T00:17:36Z</time>
      </trkpt>
      <trkpt lat="42.73656" lon="-0.56894">
        <ele>2255</ele>
        <time>2018-12-27T00:17:37Z</time>
      </trkpt>
      <trkpt lat="42.73652" lon="-0.56888">
        <ele>2254</ele>
        <time>2018-12-27T00:17:39Z</time>
      </trkpt>
      <trkpt lat="42.73636" lon="-0.5688">
        <ele>2253</ele>
        <time>2018-12-27T00:17:44Z</time>
      </trkpt>
      <trkpt lat="42.73631" lon="-0.56876">
        <ele>2253</ele>
        <time>2018-12-27T00:17:45Z</time>
      </trkpt>
      <trkpt lat="42.73629" lon="-0.56878">
        <ele>2253</ele>
        <time>2018-12-27T00:17:46Z</time>
      </trkpt>
      <trkpt lat="42.73619" lon="-0.5687">
        <ele>2252</ele>
        <time>2018-12-27T00:17:49Z</time>
      </trkpt>
      <trkpt lat="42.73607" lon="-0.56845">
        <ele>2248</ele>
        <time>2018-12-27T00:17:55Z</time>
      </trkpt>
      <trkpt lat="42.73605" lon="-0.56844">
        <ele>2248</ele>
        <time>2018-12-27T00:17:55Z</time>
      </trkpt>
      <trkpt lat="42.73602" lon="-0.56846">
        <ele>2248</ele>
        <time>2018-12-27T00:17:56Z</time>
      </trkpt>
      <trkpt lat="42.73596" lon="-0.56841">
        <ele>2247</ele>
        <time>2018-12-27T00:17:58Z</time>
      </trkpt>
      <trkpt lat="42.73588" lon="-0.56848">
        <ele>2248</ele>
        <time>2018-12-27T00:18:00Z</time>
      </trkpt>
      <trkpt lat="42.73587" lon="-0.56848">
        <ele>2248</ele>
        <time>2018-12-27T00:18:01Z</time>
      </trkpt>
      <trkpt lat="42.73584" lon="-0.56843">
        <ele>2247</ele>
        <time>2018-12-27T00:18:02Z</time>
      </trkpt>
      <trkpt lat="42.73578" lon="-0.56826">
        <ele>2243</ele>
        <time>2018-12-27T00:18:06Z</time>
      </trkpt>
      <trkpt lat="42.7356" lon="-0.56814">
        <ele>2234</ele>
        <time>2018-12-27T00:18:11Z</time>
      </trkpt>
      <trkpt lat="42.73535" lon="-0.56803">
        <ele>2223</ele>
        <time>2018-12-27T00:18:18Z</time>
      </trkpt>
      <trkpt lat="42.73527" lon="-0.56804">
        <ele>2221</ele>
        <time>2018-12-27T00:18:20Z</time>
      </trkpt>
      <trkpt lat="42.73519" lon="-0.56801">
        <ele>2219</ele>
        <time>2018-12-27T00:18:22Z</time>
      </trkpt>
      <trkpt lat="42.73513" lon="-0.56801">
        <ele>2219</ele>
        <time>2018-12-27T00:18:24Z</time>
      </trkpt>
      <trkpt lat="42.73483" lon="-0.56791">
        <ele>2219</ele>
        <time>2018-12-27T00:18:32Z</time>
      </trkpt>
      <trkpt lat="42.73477" lon="-0.56786">
        <ele>2220</ele>
        <time>2018-12-27T00:18:34Z</time>
      </trkpt>
      <trkpt lat="42.73473" lon="-0.56785">
        <ele>2220</ele>
        <time>2018-12-27T00:18:35Z</time>
      </trkpt>
      <trkpt lat="42.73464" lon="-0.56776">
        <ele>2222</ele>
        <time>2018-12-27T00:18:38Z</time>
      </trkpt>
      <trkpt lat="42.73451" lon="-0.56768">
        <ele>2225</ele>
        <time>2018-12-27T00:18:42Z</time>
      </trkpt>
      <trkpt lat="42.7343" lon="-0.5675">
        <ele>2231</ele>
        <time>2018-12-27T00:18:49Z</time>
      </trkpt>
      <trkpt lat="42.73423" lon="-0.56748">
        <ele>2233</ele>
        <time>2018-12-27T00:18:50Z</time>
      </trkpt>
      <trkpt lat="42.73418" lon="-0.56744">
        <ele>2234</ele>
        <time>2018-12-27T00:18:52Z</time>
      </trkpt>
      <trkpt lat="42.73414" lon="-0.56744">
        <ele>2236</ele>
        <time>2018-12-27T00:18:53Z</time>
      </trkpt>
      <trkpt lat="42.73411" lon="-0.56747">
        <ele>2237</ele>
        <time>2018-12-27T00:18:54Z</time>
      </trkpt>
      <trkpt lat="42.73408" lon="-0.56752">
        <ele>2239</ele>
        <time>2018-12-27T00:18:55Z</time>
      </trkpt>
      <trkpt lat="42.734" lon="-0.56759">
        <ele>2243</ele>
        <time>2018-12-27T00:18:58Z</time>
      </trkpt>
      <trkpt lat="42.73383" lon="-0.56767">
        <ele>2249</ele>
        <time>2018-12-27T00:19:03Z</time>
      </trkpt>
      <trkpt lat="42.73375" lon="-0.56774">
        <ele>2252</ele>
        <time>2018-12-27T00:19:05Z</time>
      </trkpt>
      <trkpt lat="42.73371" lon="-0.56774">
        <ele>2252</ele>
        <time>2018-12-27T00:19:06Z</time>
      </trkpt>
      <trkpt lat="42.73367" lon="-0.5677">
        <ele>2253</ele>
        <time>2018-12-27T00:19:08Z</time>
      </trkpt>
      <trkpt lat="42.73361" lon="-0.5677">
        <ele>2254</ele>
        <time>2018-12-27T00:19:09Z</time>
      </trkpt>
      <trkpt lat="42.73353" lon="-0.56764">
        <ele>2255</ele>
        <time>2018-12-27T00:19:12Z</time>
      </trkpt>
      <trkpt lat="42.73342" lon="-0.56763">
        <ele>2258</ele>
        <time>2018-12-27T00:19:14Z</time>
      </trkpt>
      <trkpt lat="42.73341" lon="-0.56775">
        <ele>2261</ele>
        <time>2018-12-27T00:19:17Z</time>
      </trkpt>
      <trkpt lat="42.73336" lon="-0.56775">
        <ele>2262</ele>
        <time>2018-12-27T00:19:18Z</time>
      </trkpt>
      <trkpt lat="42.73334" lon="-0.56783">
        <ele>2264</ele>
        <time>2018-12-27T00:19:20Z</time>
      </trkpt>
      <trkpt lat="42.73329" lon="-0.56787">
        <ele>2265</ele>
        <time>2018-12-27T00:19:22Z</time>
      </trkpt>
      <trkpt lat="42.73322" lon="-0.56796">
        <ele>2266</ele>
        <time>2018-12-27T00:19:24Z</time>
      </trkpt>
      <trkpt lat="42.73315" lon="-0.56793">
        <ele>2267</ele>
        <time>2018-12-27T00:19:26Z</time>
      </trkpt>
      <trkpt lat="42.73305" lon="-0.56795">
        <ele>2268</ele>
        <time>2018-12-27T00:19:29Z</time>
      </trkpt>
      <trkpt lat="42.73299" lon="-0.56799">
        <ele>2269</ele>
        <time>2018-12-27T00:19:30Z</time>
      </trkpt>
      <trkpt lat="42.73279" lon="-0.56806">
        <ele>2272</ele>
        <time>2018-12-27T00:19:36Z</time>
      </trkpt>
      <trkpt lat="42.73272" lon="-0.56804">
        <ele>2273</ele>
        <time>2018-12-27T00:19:38Z</time>
      </trkpt>
      <trkpt lat="42.7326" lon="-0.56788">
        <ele>2273</ele>
        <time>2018-12-27T00:19:43Z</time>
      </trkpt>
      <trkpt lat="42.73251" lon="-0.56782">
        <ele>2273</ele>
        <time>2018-12-27T00:19:45Z</time>
      </trkpt>
      <trkpt lat="42.73245" lon="-0.56772">
        <ele>2272</ele>
        <time>2018-12-27T00:19:48Z</time>
      </trkpt>
      <trkpt lat="42.73233" lon="-0.56761">
        <ele>2270</ele>
        <time>2018-12-27T00:19:52Z</time>
      </trkpt>
      <trkpt lat="42.73226" lon="-0.56756">
        <ele>2271</ele>
        <time>2018-12-27T00:19:54Z</time>
      </trkpt>
      <trkpt lat="42.73218" lon="-0.56737">
        <ele>2269</ele>
        <time>2018-12-27T00:19:58Z</time>
      </trkpt>
      <trkpt lat="42.7321" lon="-0.56728">
        <ele>2266</ele>
        <time>2018-12-27T00:20:01Z</time>
      </trkpt>
      <trkpt lat="42.73203" lon="-0.56725">
        <ele>2265</ele>
        <time>2018-12-27T00:20:03Z</time>
      </trkpt>
      <trkpt lat="42.73189" lon="-0.56709">
        <ele>2260</ele>
        <time>2018-12-27T00:20:08Z</time>
      </trkpt>
      <trkpt lat="42.73152" lon="-0.56676">
        <ele>2260</ele>
        <time>2018-12-27T00:20:19Z</time>
      </trkpt>
      <trkpt lat="42.73137" lon="-0.56664">
        <ele>2262</ele>
        <time>2018-12-27T00:20:24Z</time>
      </trkpt>
      <trkpt lat="42.73115" lon="-0.56649">
        <ele>2258</ele>
        <time>2018-12-27T00:20:31Z</time>
      </trkpt>
      <trkpt lat="42.731" lon="-0.56643">
        <ele>2257</ele>
        <time>2018-12-27T00:20:35Z</time>
      </trkpt>
      <trkpt lat="42.73092" lon="-0.56638">
        <ele>2257</ele>
        <time>2018-12-27T00:20:37Z</time>
      </trkpt>
      <trkpt lat="42.73075" lon="-0.56633">
        <ele>2254</ele>
        <time>2018-12-27T00:20:42Z</time>
      </trkpt>
      <trkpt lat="42.73047" lon="-0.56632">
        <ele>2250</ele>
        <time>2018-12-27T00:20:49Z</time>
      </trkpt>
      <trkpt lat="42.73017" lon="-0.56625">
        <ele>2244</ele>
        <time>2018-12-27T00:20:58Z</time>
      </trkpt>
      <trkpt lat="42.73008" lon="-0.56621">
        <ele>2242</ele>
        <time>2018-12-27T00:21:00Z</time>
      </trkpt>
      <trkpt lat="42.72998" lon="-0.56619">
        <ele>2240</ele>
        <time>2018-12-27T00:21:03Z</time>
      </trkpt>
      <trkpt lat="42.72989" lon="-0.56614">
        <ele>2239</ele>
        <time>2018-12-27T00:21:05Z</time>
      </trkpt>
      <trkpt lat="42.72976" lon="-0.56612">
        <ele>2239</ele>
        <time>2018-12-27T00:21:09Z</time>
      </trkpt>
      <trkpt lat="42.72933" lon="-0.56594">
        <ele>2235</ele>
        <time>2018-12-27T00:21:21Z</time>
      </trkpt>
      <trkpt lat="42.72927" lon="-0.56594">
        <ele>2234</ele>
        <time>2018-12-27T00:21:22Z</time>
      </trkpt>
      <trkpt lat="42.72907" lon="-0.566">
        <ele>2231</ele>
        <time>2018-12-27T00:21:28Z</time>
      </trkpt>
      <trkpt lat="42.72884" lon="-0.5661">
        <ele>2226</ele>
        <time>2018-12-27T00:21:34Z</time>
      </trkpt>
      <trkpt lat="42.72876" lon="-0.56609">
        <ele>2224</ele>
        <time>2018-12-27T00:21:36Z</time>
      </trkpt>
      <trkpt lat="42.72862" lon="-0.56614">
        <ele>2219</ele>
        <time>2018-12-27T00:21:40Z</time>
      </trkpt>
      <trkpt lat="42.72855" lon="-0.56619">
        <ele>2216</ele>
        <time>2018-12-27T00:21:42Z</time>
      </trkpt>
      <trkpt lat="42.72848" lon="-0.56621">
        <ele>2213</ele>
        <time>2018-12-27T00:21:44Z</time>
      </trkpt>
      <trkpt lat="42.7284" lon="-0.56625">
        <ele>2210</ele>
        <time>2018-12-27T00:21:47Z</time>
      </trkpt>
      <trkpt lat="42.72829" lon="-0.56628">
        <ele>2207</ele>
        <time>2018-12-27T00:21:50Z</time>
      </trkpt>
      <trkpt lat="42.72814" lon="-0.56637">
        <ele>2204</ele>
        <time>2018-12-27T00:21:54Z</time>
      </trkpt>
      <trkpt lat="42.72805" lon="-0.5664">
        <ele>2202</ele>
        <time>2018-12-27T00:21:56Z</time>
      </trkpt>
      <trkpt lat="42.72766" lon="-0.56667">
        <ele>2193</ele>
        <time>2018-12-27T00:22:08Z</time>
      </trkpt>
      <trkpt lat="42.72754" lon="-0.56669">
        <ele>2190</ele>
        <time>2018-12-27T00:22:11Z</time>
      </trkpt>
      <trkpt lat="42.72731" lon="-0.56686">
        <ele>2177</ele>
        <time>2018-12-27T00:22:18Z</time>
      </trkpt>
      <trkpt lat="42.72694" lon="-0.56707">
        <ele>2168</ele>
        <time>2018-12-27T00:22:29Z</time>
      </trkpt>
      <trkpt lat="42.72683" lon="-0.56711">
        <ele>2168</ele>
        <time>2018-12-27T00:22:32Z</time>
      </trkpt>
      <trkpt lat="42.72672" lon="-0.56718">
        <ele>2168</ele>
        <time>2018-12-27T00:22:35Z</time>
      </trkpt>
      <trkpt lat="42.72663" lon="-0.56721">
        <ele>2168</ele>
        <time>2018-12-27T00:22:38Z</time>
      </trkpt>
      <trkpt lat="42.72646" lon="-0.56732">
        <ele>2165</ele>
        <time>2018-12-27T00:22:43Z</time>
      </trkpt>
      <trkpt lat="42.72634" lon="-0.56734">
        <ele>2164</ele>
        <time>2018-12-27T00:22:46Z</time>
      </trkpt>
      <trkpt lat="42.72626" lon="-0.5673">
        <ele>2164</ele>
        <time>2018-12-27T00:22:48Z</time>
      </trkpt>
      <trkpt lat="42.72599" lon="-0.56744">
        <ele>2158</ele>
        <time>2018-12-27T00:22:56Z</time>
      </trkpt>
      <trkpt lat="42.72576" lon="-0.56747">
        <ele>2157</ele>
        <time>2018-12-27T00:23:02Z</time>
      </trkpt>
      <trkpt lat="42.72559" lon="-0.56759">
        <ele>2153</ele>
        <time>2018-12-27T00:23:07Z</time>
      </trkpt>
      <trkpt lat="42.72546" lon="-0.56765">
        <ele>2151</ele>
        <time>2018-12-27T00:23:11Z</time>
      </trkpt>
      <trkpt lat="42.72528" lon="-0.56778">
        <ele>2148</ele>
        <time>2018-12-27T00:23:16Z</time>
      </trkpt>
      <trkpt lat="42.72482" lon="-0.56805">
        <ele>2144</ele>
        <time>2018-12-27T00:23:30Z</time>
      </trkpt>
      <trkpt lat="42.72443" lon="-0.56841">
        <ele>2142</ele>
        <time>2018-12-27T00:23:42Z</time>
      </trkpt>
      <trkpt lat="42.72431" lon="-0.56849">
        <ele>2138</ele>
        <time>2018-12-27T00:23:46Z</time>
      </trkpt>
      <trkpt lat="42.72417" lon="-0.56853">
        <ele>2135</ele>
        <time>2018-12-27T00:23:50Z</time>
      </trkpt>
      <trkpt lat="42.72408" lon="-0.56853">
        <ele>2134</ele>
        <time>2018-12-27T00:23:52Z</time>
      </trkpt>
      <trkpt lat="42.72404" lon="-0.56855">
        <ele>2134</ele>
        <time>2018-12-27T00:23:53Z</time>
      </trkpt>
      <trkpt lat="42.72376" lon="-0.56846">
        <ele>2132</ele>
        <time>2018-12-27T00:24:01Z</time>
      </trkpt>
      <trkpt lat="42.72374" lon="-0.56847">
        <ele>2132</ele>
        <time>2018-12-27T00:24:01Z</time>
      </trkpt>
      <trkpt lat="42.72365" lon="-0.56858">
        <ele>2130</ele>
        <time>2018-12-27T00:24:05Z</time>
      </trkpt>
      <trkpt lat="42.72356" lon="-0.5686">
        <ele>2129</ele>
        <time>2018-12-27T00:24:07Z</time>
      </trkpt>
      <trkpt lat="42.7234" lon="-0.56859">
        <ele>2128</ele>
        <time>2018-12-27T00:24:11Z</time>
      </trkpt>
      <trkpt lat="42.72328" lon="-0.56862">
        <ele>2127</ele>
        <time>2018-12-27T00:24:15Z</time>
      </trkpt>
      <trkpt lat="42.72313" lon="-0.56868">
        <ele>2124</ele>
        <time>2018-12-27T00:24:19Z</time>
      </trkpt>
      <trkpt lat="42.72244" lon="-0.5692">
        <ele>2113</ele>
        <time>2018-12-27T00:24:40Z</time>
      </trkpt>
      <trkpt lat="42.72227" lon="-0.56924">
        <ele>2112</ele>
        <time>2018-12-27T00:24:44Z</time>
      </trkpt>
      <trkpt lat="42.72217" lon="-0.56917">
        <ele>2114</ele>
        <time>2018-12-27T00:24:48Z</time>
      </trkpt>
      <trkpt lat="42.72173" lon="-0.56866">
        <ele>2115</ele>
        <time>2018-12-27T00:25:03Z</time>
      </trkpt>
      <trkpt lat="42.72158" lon="-0.56853">
        <ele>2112</ele>
        <time>2018-12-27T00:25:08Z</time>
      </trkpt>
      <trkpt lat="42.72139" lon="-0.56846">
        <ele>2106</ele>
        <time>2018-12-27T00:25:13Z</time>
      </trkpt>
      <trkpt lat="42.72055" lon="-0.5684">
        <ele>2103</ele>
        <time>2018-12-27T00:25:35Z</time>
      </trkpt>
      <trkpt lat="42.72036" lon="-0.56837">
        <ele>2102</ele>
        <time>2018-12-27T00:25:40Z</time>
      </trkpt>
      <trkpt lat="42.71999" lon="-0.56825">
        <ele>2098</ele>
        <time>2018-12-27T00:25:51Z</time>
      </trkpt>
      <trkpt lat="42.71954" lon="-0.56821">
        <ele>2094</ele>
        <time>2018-12-27T00:26:03Z</time>
      </trkpt>
      <trkpt lat="42.71923" lon="-0.56823">
        <ele>2094</ele>
        <time>2018-12-27T00:26:11Z</time>
      </trkpt>
      <trkpt lat="42.71889" lon="-0.56831">
        <ele>2097</ele>
        <time>2018-12-27T00:26:20Z</time>
      </trkpt>
      <trkpt lat="42.71856" lon="-0.5685">
        <ele>2093</ele>
        <time>2018-12-27T00:26:30Z</time>
      </trkpt>
      <trkpt lat="42.71793" lon="-0.56908">
        <ele>2087</ele>
        <time>2018-12-27T00:26:50Z</time>
      </trkpt>
      <trkpt lat="42.71757" lon="-0.56937">
        <ele>2082</ele>
        <time>2018-12-27T00:27:01Z</time>
      </trkpt>
      <trkpt lat="42.71718" lon="-0.56965">
        <ele>2077</ele>
        <time>2018-12-27T00:27:13Z</time>
      </trkpt>
      <trkpt lat="42.71687" lon="-0.56983">
        <ele>2074</ele>
        <time>2018-12-27T00:27:22Z</time>
      </trkpt>
      <trkpt lat="42.71637" lon="-0.57002">
        <ele>2075</ele>
        <time>2018-12-27T00:27:36Z</time>
      </trkpt>
      <trkpt lat="42.71608" lon="-0.57022">
        <ele>2068</ele>
        <time>2018-12-27T00:27:44Z</time>
      </trkpt>
      <trkpt lat="42.71605" lon="-0.57025">
        <ele>2067</ele>
        <time>2018-12-27T00:27:46Z</time>
      </trkpt>
      <trkpt lat="42.71595" lon="-0.5703">
        <ele>2065</ele>
        <time>2018-12-27T00:27:48Z</time>
      </trkpt>
      <trkpt lat="42.71589" lon="-0.5703">
        <ele>2065</ele>
        <time>2018-12-27T00:27:50Z</time>
      </trkpt>
      <trkpt lat="42.71575" lon="-0.57042">
        <ele>2059</ele>
        <time>2018-12-27T00:27:54Z</time>
      </trkpt>
      <trkpt lat="42.71568" lon="-0.57046">
        <ele>2057</ele>
        <time>2018-12-27T00:27:56Z</time>
      </trkpt>
      <trkpt lat="42.71559" lon="-0.57054">
        <ele>2053</ele>
        <time>2018-12-27T00:27:59Z</time>
      </trkpt>
      <trkpt lat="42.7155" lon="-0.57059">
        <ele>2050</ele>
        <time>2018-12-27T00:28:02Z</time>
      </trkpt>
      <trkpt lat="42.71546" lon="-0.57073">
        <ele>2045</ele>
        <time>2018-12-27T00:28:05Z</time>
      </trkpt>
      <trkpt lat="42.71538" lon="-0.57081">
        <ele>2041</ele>
        <time>2018-12-27T00:28:07Z</time>
      </trkpt>
      <trkpt lat="42.71521" lon="-0.57108">
        <ele>2032</ele>
        <time>2018-12-27T00:28:14Z</time>
      </trkpt>
      <trkpt lat="42.71515" lon="-0.57114">
        <ele>2029</ele>
        <time>2018-12-27T00:28:16Z</time>
      </trkpt>
      <trkpt lat="42.71507" lon="-0.57126">
        <ele>2026</ele>
        <time>2018-12-27T00:28:19Z</time>
      </trkpt>
      <trkpt lat="42.71497" lon="-0.57135">
        <ele>2022</ele>
        <time>2018-12-27T00:28:23Z</time>
      </trkpt>
      <trkpt lat="42.71468" lon="-0.57176">
        <ele>2013</ele>
        <time>2018-12-27T00:28:34Z</time>
      </trkpt>
      <trkpt lat="42.71423" lon="-0.57228">
        <ele>2003</ele>
        <time>2018-12-27T00:28:50Z</time>
      </trkpt>
      <trkpt lat="42.71413" lon="-0.57236">
        <ele>2001</ele>
        <time>2018-12-27T00:28:53Z</time>
      </trkpt>
      <trkpt lat="42.71404" lon="-0.57238">
        <ele>2000</ele>
        <time>2018-12-27T00:28:55Z</time>
      </trkpt>
      <trkpt lat="42.71309" lon="-0.57339">
        <ele>1990</ele>
        <time>2018-12-27T00:29:27Z</time>
      </trkpt>
      <trkpt lat="42.71275" lon="-0.57382">
        <ele>1987</ele>
        <time>2018-12-27T00:29:40Z</time>
      </trkpt>
      <trkpt lat="42.71191" lon="-0.57496">
        <ele>1980</ele>
        <time>2018-12-27T00:30:11Z</time>
      </trkpt>
      <trkpt lat="42.7117" lon="-0.57522">
        <ele>1977</ele>
        <time>2018-12-27T00:30:19Z</time>
      </trkpt>
      <trkpt lat="42.71162" lon="-0.57526">
        <ele>1977</ele>
        <time>2018-12-27T00:30:21Z</time>
      </trkpt>
      <trkpt lat="42.71155" lon="-0.57535">
        <ele>1977</ele>
        <time>2018-12-27T00:30:24Z</time>
      </trkpt>
      <trkpt lat="42.71135" lon="-0.57553">
        <ele>1980</ele>
        <time>2018-12-27T00:30:30Z</time>
      </trkpt>
      <trkpt lat="42.71105" lon="-0.57587">
        <ele>1984</ele>
        <time>2018-12-27T00:30:41Z</time>
      </trkpt>
      <trkpt lat="42.71093" lon="-0.57598">
        <ele>1983</ele>
        <time>2018-12-27T00:30:44Z</time>
      </trkpt>
      <trkpt lat="42.71083" lon="-0.57604">
        <ele>1982</ele>
        <time>2018-12-27T00:30:47Z</time>
      </trkpt>
      <trkpt lat="42.71055" lon="-0.57615">
        <ele>1977</ele>
        <time>2018-12-27T00:30:55Z</time>
      </trkpt>
      <trkpt lat="42.7103" lon="-0.5762">
        <ele>1976</ele>
        <time>2018-12-27T00:31:02Z</time>
      </trkpt>
      <trkpt lat="42.7101" lon="-0.57621">
        <ele>1975</ele>
        <time>2018-12-27T00:31:07Z</time>
      </trkpt>
      <trkpt lat="42.70988" lon="-0.5762">
        <ele>1972</ele>
        <time>2018-12-27T00:31:13Z</time>
      </trkpt>
      <trkpt lat="42.70977" lon="-0.57623">
        <ele>1972</ele>
        <time>2018-12-27T00:31:16Z</time>
      </trkpt>
      <trkpt lat="42.70947" lon="-0.57642">
        <ele>1978</ele>
        <time>2018-12-27T00:31:25Z</time>
      </trkpt>
      <trkpt lat="42.70934" lon="-0.57647">
        <ele>1977</ele>
        <time>2018-12-27T00:31:28Z</time>
      </trkpt>
      <trkpt lat="42.70923" lon="-0.57647">
        <ele>1975</ele>
        <time>2018-12-27T00:31:31Z</time>
      </trkpt>
      <trkpt lat="42.70894" lon="-0.57642">
        <ele>1970</ele>
        <time>2018-12-27T00:31:39Z</time>
      </trkpt>
      <trkpt lat="42.70883" lon="-0.57636">
        <ele>1968</ele>
        <time>2018-12-27T00:31:42Z</time>
      </trkpt>
      <trkpt lat="42.70853" lon="-0.57629">
        <ele>1971</ele>
        <time>2018-12-27T00:31:50Z</time>
      </trkpt>
      <trkpt lat="42.70843" lon="-0.57629">
        <ele>1973</ele>
        <time>2018-12-27T00:31:53Z</time>
      </trkpt>
      <trkpt lat="42.7082" lon="-0.57626">
        <ele>1974</ele>
        <time>2018-12-27T00:31:59Z</time>
      </trkpt>
      <trkpt lat="42.7081" lon="-0.57627">
        <ele>1975</ele>
        <time>2018-12-27T00:32:02Z</time>
      </trkpt>
      <trkpt lat="42.70747" lon="-0.57637">
        <ele>1966</ele>
        <time>2018-12-27T00:32:19Z</time>
      </trkpt>
      <trkpt lat="42.70726" lon="-0.57634">
        <ele>1963</ele>
        <time>2018-12-27T00:32:25Z</time>
      </trkpt>
      <trkpt lat="42.70714" lon="-0.57635">
        <ele>1962</ele>
        <time>2018-12-27T00:32:28Z</time>
      </trkpt>
      <trkpt lat="42.70681" lon="-0.57639">
        <ele>1959</ele>
        <time>2018-12-27T00:32:37Z</time>
      </trkpt>
      <trkpt lat="42.70663" lon="-0.57646">
        <ele>1956</ele>
        <time>2018-12-27T00:32:41Z</time>
      </trkpt>
      <trkpt lat="42.7062" lon="-0.57648">
        <ele>1951</ele>
        <time>2018-12-27T00:32:53Z</time>
      </trkpt>
      <trkpt lat="42.70608" lon="-0.57651">
        <ele>1949</ele>
        <time>2018-12-27T00:32:56Z</time>
      </trkpt>
      <trkpt lat="42.70569" lon="-0.57652">
        <ele>1937</ele>
        <time>2018-12-27T00:33:07Z</time>
      </trkpt>
      <trkpt lat="42.70556" lon="-0.57647">
        <ele>1933</ele>
        <time>2018-12-27T00:33:10Z</time>
      </trkpt>
      <trkpt lat="42.70538" lon="-0.57644">
        <ele>1929</ele>
        <time>2018-12-27T00:33:15Z</time>
      </trkpt>
      <trkpt lat="42.70514" lon="-0.57636">
        <ele>1924</ele>
        <time>2018-12-27T00:33:22Z</time>
      </trkpt>
      <trkpt lat="42.70499" lon="-0.57637">
        <ele>1923</ele>
        <time>2018-12-27T00:33:26Z</time>
      </trkpt>
      <trkpt lat="42.70477" lon="-0.57627">
        <ele>1919</ele>
        <time>2018-12-27T00:33:32Z</time>
      </trkpt>
      <trkpt lat="42.70462" lon="-0.57617">
        <ele>1916</ele>
        <time>2018-12-27T00:33:36Z</time>
      </trkpt>
      <trkpt lat="42.70439" lon="-0.57609">
        <ele>1911</ele>
        <time>2018-12-27T00:33:43Z</time>
      </trkpt>
      <trkpt lat="42.70431" lon="-0.576">
        <ele>1909</ele>
        <time>2018-12-27T00:33:46Z</time>
      </trkpt>
      <trkpt lat="42.70395" lon="-0.57573">
        <ele>1905</ele>
        <time>2018-12-27T00:33:56Z</time>
      </trkpt>
      <trkpt lat="42.70364" lon="-0.5756">
        <ele>1897</ele>
        <time>2018-12-27T00:34:05Z</time>
      </trkpt>
      <trkpt lat="42.70351" lon="-0.57552">
        <ele>1894</ele>
        <time>2018-12-27T00:34:09Z</time>
      </trkpt>
      <trkpt lat="42.70342" lon="-0.57545">
        <ele>1891</ele>
        <time>2018-12-27T00:34:12Z</time>
      </trkpt>
      <trkpt lat="42.70334" lon="-0.57535">
        <ele>1888</ele>
        <time>2018-12-27T00:34:14Z</time>
      </trkpt>
      <trkpt lat="42.70326" lon="-0.57531">
        <ele>1885</ele>
        <time>2018-12-27T00:34:17Z</time>
      </trkpt>
      <trkpt lat="42.70317" lon="-0.57529">
        <ele>1882</ele>
        <time>2018-12-27T00:34:19Z</time>
      </trkpt>
      <trkpt lat="42.70296" lon="-0.57529">
        <ele>1876</ele>
        <time>2018-12-27T00:34:25Z</time>
      </trkpt>
      <trkpt lat="42.70271" lon="-0.57519">
        <ele>1870</ele>
        <time>2018-12-27T00:34:32Z</time>
      </trkpt>
      <trkpt lat="42.70263" lon="-0.57512">
        <ele>1869</ele>
        <time>2018-12-27T00:34:34Z</time>
      </trkpt>
      <trkpt lat="42.70243" lon="-0.57503">
        <ele>1865</ele>
        <time>2018-12-27T00:34:40Z</time>
      </trkpt>
      <trkpt lat="42.70236" lon="-0.57497">
        <ele>1864</ele>
        <time>2018-12-27T00:34:42Z</time>
      </trkpt>
      <trkpt lat="42.70234" lon="-0.57497">
        <ele>1864</ele>
        <time>2018-12-27T00:34:43Z</time>
      </trkpt>
      <trkpt lat="42.70233" lon="-0.575">
        <ele>1863</ele>
        <time>2018-12-27T00:34:43Z</time>
      </trkpt>
      <trkpt lat="42.70229" lon="-0.57503">
        <ele>1862</ele>
        <time>2018-12-27T00:34:45Z</time>
      </trkpt>
      <trkpt lat="42.70187" lon="-0.57497">
        <ele>1854</ele>
        <time>2018-12-27T00:34:56Z</time>
      </trkpt>
      <trkpt lat="42.70168" lon="-0.57487">
        <ele>1850</ele>
        <time>2018-12-27T00:35:01Z</time>
      </trkpt>
      <trkpt lat="42.70159" lon="-0.57487">
        <ele>1847</ele>
        <time>2018-12-27T00:35:04Z</time>
      </trkpt>
      <trkpt lat="42.70143" lon="-0.57479">
        <ele>1843</ele>
        <time>2018-12-27T00:35:08Z</time>
      </trkpt>
      <trkpt lat="42.70127" lon="-0.57473">
        <ele>1839</ele>
        <time>2018-12-27T00:35:13Z</time>
      </trkpt>
      <trkpt lat="42.70108" lon="-0.57472">
        <ele>1835</ele>
        <time>2018-12-27T00:35:18Z</time>
      </trkpt>
      <trkpt lat="42.70094" lon="-0.57475">
        <ele>1832</ele>
        <time>2018-12-27T00:35:21Z</time>
      </trkpt>
      <trkpt lat="42.70089" lon="-0.57474">
        <ele>1831</ele>
        <time>2018-12-27T00:35:23Z</time>
      </trkpt>
      <trkpt lat="42.70079" lon="-0.57465">
        <ele>1830</ele>
        <time>2018-12-27T00:35:26Z</time>
      </trkpt>
      <trkpt lat="42.70059" lon="-0.57457">
        <ele>1827</ele>
        <time>2018-12-27T00:35:32Z</time>
      </trkpt>
      <trkpt lat="42.70049" lon="-0.57455">
        <ele>1825</ele>
        <time>2018-12-27T00:35:34Z</time>
      </trkpt>
      <trkpt lat="42.70017" lon="-0.57441">
        <ele>1820</ele>
        <time>2018-12-27T00:35:43Z</time>
      </trkpt>
      <trkpt lat="42.70001" lon="-0.5743">
        <ele>1818</ele>
        <time>2018-12-27T00:35:48Z</time>
      </trkpt>
      <trkpt lat="42.69987" lon="-0.57429">
        <ele>1815</ele>
        <time>2018-12-27T00:35:52Z</time>
      </trkpt>
      <trkpt lat="42.6998" lon="-0.57427">
        <ele>1814</ele>
        <time>2018-12-27T00:35:54Z</time>
      </trkpt>
      <trkpt lat="42.6995" lon="-0.57431">
        <ele>1806</ele>
        <time>2018-12-27T00:36:02Z</time>
      </trkpt>
      <trkpt lat="42.69943" lon="-0.57428">
        <ele>1804</ele>
        <time>2018-12-27T00:36:04Z</time>
      </trkpt>
      <trkpt lat="42.69909" lon="-0.57426">
        <ele>1795</ele>
        <time>2018-12-27T00:36:13Z</time>
      </trkpt>
      <trkpt lat="42.69902" lon="-0.57427">
        <ele>1793</ele>
        <time>2018-12-27T00:36:14Z</time>
      </trkpt>
      <trkpt lat="42.69901" lon="-0.57428">
        <ele>1792</ele>
        <time>2018-12-27T00:36:15Z</time>
      </trkpt>
      <trkpt lat="42.699" lon="-0.57443">
        <ele>1790</ele>
        <time>2018-12-27T00:36:18Z</time>
      </trkpt>
      <trkpt lat="42.69895" lon="-0.57451">
        <ele>1788</ele>
        <time>2018-12-27T00:36:20Z</time>
      </trkpt>
      <trkpt lat="42.69884" lon="-0.57442">
        <ele>1785</ele>
        <time>2018-12-27T00:36:24Z</time>
      </trkpt>
      <trkpt lat="42.69873" lon="-0.57447">
        <ele>1782</ele>
        <time>2018-12-27T00:36:27Z</time>
      </trkpt>
      <trkpt lat="42.69862" lon="-0.57447">
        <ele>1778</ele>
        <time>2018-12-27T00:36:30Z</time>
      </trkpt>
      <trkpt lat="42.69839" lon="-0.57445">
        <ele>1771</ele>
        <time>2018-12-27T00:36:36Z</time>
      </trkpt>
      <trkpt lat="42.69808" lon="-0.57438">
        <ele>1765</ele>
        <time>2018-12-27T00:36:44Z</time>
      </trkpt>
      <trkpt lat="42.6975" lon="-0.57443">
        <ele>1752</ele>
        <time>2018-12-27T00:37:00Z</time>
      </trkpt>
      <trkpt lat="42.69738" lon="-0.5744">
        <ele>1750</ele>
        <time>2018-12-27T00:37:03Z</time>
      </trkpt>
      <trkpt lat="42.69731" lon="-0.57445">
        <ele>1749</ele>
        <time>2018-12-27T00:37:05Z</time>
      </trkpt>
      <trkpt lat="42.6971" lon="-0.57448">
        <ele>1745</ele>
        <time>2018-12-27T00:37:11Z</time>
      </trkpt>
      <trkpt lat="42.69699" lon="-0.57448">
        <ele>1743</ele>
        <time>2018-12-27T00:37:14Z</time>
      </trkpt>
      <trkpt lat="42.69691" lon="-0.57454">
        <ele>1740</ele>
        <time>2018-12-27T00:37:16Z</time>
      </trkpt>
      <trkpt lat="42.69671" lon="-0.57448">
        <ele>1737</ele>
        <time>2018-12-27T00:37:22Z</time>
      </trkpt>
      <trkpt lat="42.69664" lon="-0.57447">
        <ele>1736</ele>
        <time>2018-12-27T00:37:23Z</time>
      </trkpt>
      <trkpt lat="42.69653" lon="-0.57448">
        <ele>1733</ele>
        <time>2018-12-27T00:37:26Z</time>
      </trkpt>
      <trkpt lat="42.69643" lon="-0.5744">
        <ele>1733</ele>
        <time>2018-12-27T00:37:29Z</time>
      </trkpt>
      <trkpt lat="42.69635" lon="-0.57436">
        <ele>1732</ele>
        <time>2018-12-27T00:37:32Z</time>
      </trkpt>
      <trkpt lat="42.69626" lon="-0.57433">
        <ele>1731</ele>
        <time>2018-12-27T00:37:34Z</time>
      </trkpt>
      <trkpt lat="42.69613" lon="-0.57439">
        <ele>1727</ele>
        <time>2018-12-27T00:37:38Z</time>
      </trkpt>
      <trkpt lat="42.69608" lon="-0.57444">
        <ele>1726</ele>
        <time>2018-12-27T00:37:39Z</time>
      </trkpt>
      <trkpt lat="42.69598" lon="-0.5745">
        <ele>1724</ele>
        <time>2018-12-27T00:37:43Z</time>
      </trkpt>
      <trkpt lat="42.69576" lon="-0.5746">
        <ele>1719</ele>
        <time>2018-12-27T00:37:49Z</time>
      </trkpt>
      <trkpt lat="42.69554" lon="-0.57463">
        <ele>1715</ele>
        <time>2018-12-27T00:37:55Z</time>
      </trkpt>
      <trkpt lat="42.69534" lon="-0.57471">
        <ele>1708</ele>
        <time>2018-12-27T00:38:00Z</time>
      </trkpt>
      <trkpt lat="42.69523" lon="-0.57474">
        <ele>1705</ele>
        <time>2018-12-27T00:38:03Z</time>
      </trkpt>
      <trkpt lat="42.69503" lon="-0.57484">
        <ele>1698</ele>
        <time>2018-12-27T00:38:09Z</time>
      </trkpt>
      <trkpt lat="42.69489" lon="-0.575">
        <ele>1694</ele>
        <time>2018-12-27T00:38:14Z</time>
      </trkpt>
      <trkpt lat="42.6947" lon="-0.57499">
        <ele>1690</ele>
        <time>2018-12-27T00:38:19Z</time>
      </trkpt>
      <trkpt lat="42.69466" lon="-0.57507">
        <ele>1689</ele>
        <time>2018-12-27T00:38:21Z</time>
      </trkpt>
      <trkpt lat="42.69457" lon="-0.57506">
        <ele>1687</ele>
        <time>2018-12-27T00:38:23Z</time>
      </trkpt>
      <trkpt lat="42.6943" lon="-0.57522">
        <ele>1681</ele>
        <time>2018-12-27T00:38:31Z</time>
      </trkpt>
      <trkpt lat="42.6942" lon="-0.57524">
        <ele>1678</ele>
        <time>2018-12-27T00:38:34Z</time>
      </trkpt>
      <trkpt lat="42.69402" lon="-0.57532">
        <ele>1672</ele>
        <time>2018-12-27T00:38:39Z</time>
      </trkpt>
      <trkpt lat="42.69389" lon="-0.57533">
        <ele>1668</ele>
        <time>2018-12-27T00:38:42Z</time>
      </trkpt>
      <trkpt lat="42.69386" lon="-0.57537">
        <ele>1667</ele>
        <time>2018-12-27T00:38:43Z</time>
      </trkpt>
      <trkpt lat="42.69358" lon="-0.57559">
        <ele>1656</ele>
        <time>2018-12-27T00:38:52Z</time>
      </trkpt>
      <trkpt lat="42.69346" lon="-0.57563">
        <ele>1653</ele>
        <time>2018-12-27T00:38:55Z</time>
      </trkpt>
      <trkpt lat="42.69328" lon="-0.57575">
        <ele>1648</ele>
        <time>2018-12-27T00:39:00Z</time>
      </trkpt>
      <trkpt lat="42.69318" lon="-0.57576">
        <ele>1647</ele>
        <time>2018-12-27T00:39:03Z</time>
      </trkpt>
      <trkpt lat="42.69308" lon="-0.57581">
        <ele>1645</ele>
        <time>2018-12-27T00:39:06Z</time>
      </trkpt>
      <trkpt lat="42.69296" lon="-0.57595">
        <ele>1642</ele>
        <time>2018-12-27T00:39:10Z</time>
      </trkpt>
      <trkpt lat="42.69271" lon="-0.57608">
        <ele>1636</ele>
        <time>2018-12-27T00:39:17Z</time>
      </trkpt>
      <trkpt lat="42.69263" lon="-0.57617">
        <ele>1635</ele>
        <time>2018-12-27T00:39:20Z</time>
      </trkpt>
      <trkpt lat="42.69255" lon="-0.57623">
        <ele>1633</ele>
        <time>2018-12-27T00:39:22Z</time>
      </trkpt>
      <trkpt lat="42.69244" lon="-0.57634">
        <ele>1632</ele>
        <time>2018-12-27T00:39:26Z</time>
      </trkpt>
      <trkpt lat="42.6923" lon="-0.57653">
        <ele>1630</ele>
        <time>2018-12-27T00:39:31Z</time>
      </trkpt>
      <trkpt lat="42.6922" lon="-0.57656">
        <ele>1629</ele>
        <time>2018-12-27T00:39:34Z</time>
      </trkpt>
      <trkpt lat="42.69219" lon="-0.57672">
        <ele>1628</ele>
        <time>2018-12-27T00:39:37Z</time>
      </trkpt>
      <trkpt lat="42.69214" lon="-0.57681">
        <ele>1627</ele>
        <time>2018-12-27T00:39:39Z</time>
      </trkpt>
      <trkpt lat="42.69199" lon="-0.57693">
        <ele>1625</ele>
        <time>2018-12-27T00:39:44Z</time>
      </trkpt>
      <trkpt lat="42.69195" lon="-0.57701">
        <ele>1623</ele>
        <time>2018-12-27T00:39:46Z</time>
      </trkpt>
      <trkpt lat="42.69189" lon="-0.57704">
        <ele>1621</ele>
        <time>2018-12-27T00:39:48Z</time>
      </trkpt>
      <trkpt lat="42.69179" lon="-0.57702">
        <ele>1619</ele>
        <time>2018-12-27T00:39:50Z</time>
      </trkpt>
      <trkpt lat="42.69167" lon="-0.57703">
        <ele>1616</ele>
        <time>2018-12-27T00:39:54Z</time>
      </trkpt>
      <trkpt lat="42.6916" lon="-0.57711">
        <ele>1613</ele>
        <time>2018-12-27T00:39:56Z</time>
      </trkpt>
      <trkpt lat="42.69154" lon="-0.57715">
        <ele>1611</ele>
        <time>2018-12-27T00:39:58Z</time>
      </trkpt>
      <trkpt lat="42.69149" lon="-0.57715">
        <ele>1609</ele>
        <time>2018-12-27T00:39:59Z</time>
      </trkpt>
      <trkpt lat="42.69135" lon="-0.57711">
        <ele>1605</ele>
        <time>2018-12-27T00:40:03Z</time>
      </trkpt>
      <trkpt lat="42.69121" lon="-0.57711">
        <ele>1601</ele>
        <time>2018-12-27T00:40:07Z</time>
      </trkpt>
      <trkpt lat="42.69107" lon="-0.57712">
        <ele>1598</ele>
        <time>2018-12-27T00:40:11Z</time>
      </trkpt>
      <trkpt lat="42.69094" lon="-0.57705">
        <ele>1595</ele>
        <time>2018-12-27T00:40:14Z</time>
      </trkpt>
      <trkpt lat="42.69083" lon="-0.57697">
        <ele>1592</ele>
        <time>2018-12-27T00:40:17Z</time>
      </trkpt>
      <trkpt lat="42.69074" lon="-0.57687">
        <ele>1590</ele>
        <time>2018-12-27T00:40:21Z</time>
      </trkpt>
      <trkpt lat="42.69063" lon="-0.57678">
        <ele>1586</ele>
        <time>2018-12-27T00:40:24Z</time>
      </trkpt>
      <trkpt lat="42.69056" lon="-0.57671">
        <ele>1584</ele>
        <time>2018-12-27T00:40:27Z</time>
      </trkpt>
      <trkpt lat="42.69047" lon="-0.57661">
        <ele>1582</ele>
        <time>2018-12-27T00:40:29Z</time>
      </trkpt>
      <trkpt lat="42.6904" lon="-0.57648">
        <ele>1580</ele>
        <time>2018-12-27T00:40:33Z</time>
      </trkpt>
      <trkpt lat="42.69032" lon="-0.57638">
        <ele>1579</ele>
        <time>2018-12-27T00:40:36Z</time>
      </trkpt>
      <trkpt lat="42.6901" lon="-0.57633">
        <ele>1575</ele>
        <time>2018-12-27T00:40:42Z</time>
      </trkpt>
      <trkpt lat="42.69002" lon="-0.57629">
        <ele>1573</ele>
        <time>2018-12-27T00:40:44Z</time>
      </trkpt>
      <trkpt lat="42.68997" lon="-0.57621">
        <ele>1572</ele>
        <time>2018-12-27T00:40:46Z</time>
      </trkpt>
      <trkpt lat="42.68991" lon="-0.57617">
        <ele>1571</ele>
        <time>2018-12-27T00:40:48Z</time>
      </trkpt>
      <trkpt lat="42.68985" lon="-0.57613">
        <ele>1569</ele>
        <time>2018-12-27T00:40:49Z</time>
      </trkpt>
      <trkpt lat="42.68977" lon="-0.57612">
        <ele>1568</ele>
        <time>2018-12-27T00:40:52Z</time>
      </trkpt>
      <trkpt lat="42.68967" lon="-0.57624">
        <ele>1567</ele>
        <time>2018-12-27T00:40:55Z</time>
      </trkpt>
      <trkpt lat="42.6896" lon="-0.57655">
        <ele>1567</ele>
        <time>2018-12-27T00:41:01Z</time>
      </trkpt>
      <trkpt lat="42.6895" lon="-0.57682">
        <ele>1565</ele>
        <time>2018-12-27T00:41:07Z</time>
      </trkpt>
      <trkpt lat="42.68944" lon="-0.57713">
        <ele>1562</ele>
        <time>2018-12-27T00:41:14Z</time>
      </trkpt>
      <trkpt lat="42.68941" lon="-0.57746">
        <ele>1560</ele>
        <time>2018-12-27T00:41:20Z</time>
      </trkpt>
      <trkpt lat="42.68936" lon="-0.57765">
        <ele>1558</ele>
        <time>2018-12-27T00:41:24Z</time>
      </trkpt>
      <trkpt lat="42.68934" lon="-0.57783">
        <ele>1556</ele>
        <time>2018-12-27T00:41:28Z</time>
      </trkpt>
      <trkpt lat="42.68936" lon="-0.57812">
        <ele>1554</ele>
        <time>2018-12-27T00:41:33Z</time>
      </trkpt>
      <trkpt lat="42.68934" lon="-0.5782">
        <ele>1553</ele>
        <time>2018-12-27T00:41:35Z</time>
      </trkpt>
      <trkpt lat="42.68928" lon="-0.57838">
        <ele>1550</ele>
        <time>2018-12-27T00:41:39Z</time>
      </trkpt>
      <trkpt lat="42.68927" lon="-0.57851">
        <ele>1549</ele>
        <time>2018-12-27T00:41:42Z</time>
      </trkpt>
      <trkpt lat="42.68928" lon="-0.57875">
        <ele>1546</ele>
        <time>2018-12-27T00:41:46Z</time>
      </trkpt>
      <trkpt lat="42.68909" lon="-0.57897">
        <ele>1542</ele>
        <time>2018-12-27T00:41:53Z</time>
      </trkpt>
      <trkpt lat="42.689" lon="-0.57901">
        <ele>1541</ele>
        <time>2018-12-27T00:41:55Z</time>
      </trkpt>
      <trkpt lat="42.68895" lon="-0.57901">
        <ele>1541</ele>
        <time>2018-12-27T00:41:57Z</time>
      </trkpt>
      <trkpt lat="42.6889" lon="-0.57905">
        <ele>1540</ele>
        <time>2018-12-27T00:41:58Z</time>
      </trkpt>
      <trkpt lat="42.68872" lon="-0.57929">
        <ele>1535</ele>
        <time>2018-12-27T00:42:05Z</time>
      </trkpt>
      <trkpt lat="42.68855" lon="-0.57948">
        <ele>1529</ele>
        <time>2018-12-27T00:42:11Z</time>
      </trkpt>
      <trkpt lat="42.68845" lon="-0.57955">
        <ele>1527</ele>
        <time>2018-12-27T00:42:14Z</time>
      </trkpt>
      <trkpt lat="42.68837" lon="-0.57953">
        <ele>1526</ele>
        <time>2018-12-27T00:42:16Z</time>
      </trkpt>
      <trkpt lat="42.6883" lon="-0.57954">
        <ele>1525</ele>
        <time>2018-12-27T00:42:18Z</time>
      </trkpt>
      <trkpt lat="42.6882" lon="-0.57961">
        <ele>1522</ele>
        <time>2018-12-27T00:42:21Z</time>
      </trkpt>
      <trkpt lat="42.68808" lon="-0.57958">
        <ele>1520</ele>
        <time>2018-12-27T00:42:24Z</time>
      </trkpt>
      <trkpt lat="42.68794" lon="-0.57961">
        <ele>1516</ele>
        <time>2018-12-27T00:42:28Z</time>
      </trkpt>
      <trkpt lat="42.68783" lon="-0.57968">
        <ele>1513</ele>
        <time>2018-12-27T00:42:31Z</time>
      </trkpt>
      <trkpt lat="42.68776" lon="-0.57977">
        <ele>1509</ele>
        <time>2018-12-27T00:42:34Z</time>
      </trkpt>
      <trkpt lat="42.68769" lon="-0.57988">
        <ele>1505</ele>
        <time>2018-12-27T00:42:37Z</time>
      </trkpt>
      <trkpt lat="42.68762" lon="-0.58001">
        <ele>1501</ele>
        <time>2018-12-27T00:42:40Z</time>
      </trkpt>
      <trkpt lat="42.68745" lon="-0.5801">
        <ele>1496</ele>
        <time>2018-12-27T00:42:45Z</time>
      </trkpt>
      <trkpt lat="42.6873" lon="-0.58019">
        <ele>1491</ele>
        <time>2018-12-27T00:42:49Z</time>
      </trkpt>
      <trkpt lat="42.68729" lon="-0.58022">
        <ele>1491</ele>
        <time>2018-12-27T00:42:50Z</time>
      </trkpt>
      <trkpt lat="42.68727" lon="-0.58038">
        <ele>1487</ele>
        <time>2018-12-27T00:42:53Z</time>
      </trkpt>
      <trkpt lat="42.68728" lon="-0.5806">
        <ele>1481</ele>
        <time>2018-12-27T00:42:57Z</time>
      </trkpt>
      <trkpt lat="42.68731" lon="-0.58075">
        <ele>1478</ele>
        <time>2018-12-27T00:43:00Z</time>
      </trkpt>
      <trkpt lat="42.6873" lon="-0.58086">
        <ele>1476</ele>
        <time>2018-12-27T00:43:02Z</time>
      </trkpt>
      <trkpt lat="42.68727" lon="-0.58089">
        <ele>1474</ele>
        <time>2018-12-27T00:43:04Z</time>
      </trkpt>
      <trkpt lat="42.68715" lon="-0.58085">
        <ele>1472</ele>
        <time>2018-12-27T00:43:07Z</time>
      </trkpt>
      <trkpt lat="42.68711" lon="-0.58087">
        <ele>1470</ele>
        <time>2018-12-27T00:43:08Z</time>
      </trkpt>
      <trkpt lat="42.68711" lon="-0.58091">
        <ele>1469</ele>
        <time>2018-12-27T00:43:09Z</time>
      </trkpt>
      <trkpt lat="42.68731" lon="-0.58111">
        <ele>1470</ele>
        <time>2018-12-27T00:43:15Z</time>
      </trkpt>
      <trkpt lat="42.68732" lon="-0.58114">
        <ele>1470</ele>
        <time>2018-12-27T00:43:16Z</time>
      </trkpt>
      <trkpt lat="42.68732" lon="-0.58135">
        <ele>1466</ele>
        <time>2018-12-27T00:43:20Z</time>
      </trkpt>
      <trkpt lat="42.68727" lon="-0.58146">
        <ele>1462</ele>
        <time>2018-12-27T00:43:23Z</time>
      </trkpt>
      <trkpt lat="42.68718" lon="-0.58157">
        <ele>1458</ele>
        <time>2018-12-27T00:43:26Z</time>
      </trkpt>
      <trkpt lat="42.6871" lon="-0.58194">
        <ele>1452</ele>
        <time>2018-12-27T00:43:34Z</time>
      </trkpt>
      <trkpt lat="42.68704" lon="-0.58209">
        <ele>1450</ele>
        <time>2018-12-27T00:43:37Z</time>
      </trkpt>
      <trkpt lat="42.68706" lon="-0.58235">
        <ele>1448</ele>
        <time>2018-12-27T00:43:42Z</time>
      </trkpt>
      <trkpt lat="42.68702" lon="-0.58251">
        <ele>1447</ele>
        <time>2018-12-27T00:43:45Z</time>
      </trkpt>
      <trkpt lat="42.68698" lon="-0.5826">
        <ele>1446</ele>
        <time>2018-12-27T00:43:47Z</time>
      </trkpt>
      <trkpt lat="42.68685" lon="-0.58269">
        <ele>1443</ele>
        <time>2018-12-27T00:43:51Z</time>
      </trkpt>
      <trkpt lat="42.68666" lon="-0.58293">
        <ele>1438</ele>
        <time>2018-12-27T00:43:58Z</time>
      </trkpt>
      <trkpt lat="42.68644" lon="-0.58325">
        <ele>1430</ele>
        <time>2018-12-27T00:44:07Z</time>
      </trkpt>
      <trkpt lat="42.6864" lon="-0.58333">
        <ele>1429</ele>
        <time>2018-12-27T00:44:09Z</time>
      </trkpt>
      <trkpt lat="42.6862" lon="-0.58361">
        <ele>1417</ele>
        <time>2018-12-27T00:44:16Z</time>
      </trkpt>
      <trkpt lat="42.68614" lon="-0.58364">
        <ele>1415</ele>
        <time>2018-12-27T00:44:18Z</time>
      </trkpt>
      <trkpt lat="42.68608" lon="-0.5837">
        <ele>1413</ele>
        <time>2018-12-27T00:44:20Z</time>
      </trkpt>
      <trkpt lat="42.68604" lon="-0.58372">
        <ele>1411</ele>
        <time>2018-12-27T00:44:21Z</time>
      </trkpt>
      <trkpt lat="42.68598" lon="-0.58379">
        <ele>1409</ele>
        <time>2018-12-27T00:44:23Z</time>
      </trkpt>
      <trkpt lat="42.68592" lon="-0.58381">
        <ele>1407</ele>
        <time>2018-12-27T00:44:25Z</time>
      </trkpt>
      <trkpt lat="42.68575" lon="-0.58398">
        <ele>1401</ele>
        <time>2018-12-27T00:44:31Z</time>
      </trkpt>
      <trkpt lat="42.68569" lon="-0.584">
        <ele>1399</ele>
        <time>2018-12-27T00:44:32Z</time>
      </trkpt>
      <trkpt lat="42.68565" lon="-0.58408">
        <ele>1398</ele>
        <time>2018-12-27T00:44:34Z</time>
      </trkpt>
      <trkpt lat="42.68556" lon="-0.58416">
        <ele>1396</ele>
        <time>2018-12-27T00:44:37Z</time>
      </trkpt>
      <trkpt lat="42.68535" lon="-0.58431">
        <ele>1389</ele>
        <time>2018-12-27T00:44:43Z</time>
      </trkpt>
      <trkpt lat="42.68527" lon="-0.58442">
        <ele>1388</ele>
        <time>2018-12-27T00:44:46Z</time>
      </trkpt>
      <trkpt lat="42.68523" lon="-0.58448">
        <ele>1387</ele>
        <time>2018-12-27T00:44:48Z</time>
      </trkpt>
      <trkpt lat="42.68517" lon="-0.58467">
        <ele>1386</ele>
        <time>2018-12-27T00:44:52Z</time>
      </trkpt>
      <trkpt lat="42.68505" lon="-0.58478">
        <ele>1383</ele>
        <time>2018-12-27T00:44:56Z</time>
      </trkpt>
      <trkpt lat="42.68498" lon="-0.58497">
        <ele>1382</ele>
        <time>2018-12-27T00:45:00Z</time>
      </trkpt>
      <trkpt lat="42.68489" lon="-0.58511">
        <ele>1379</ele>
        <time>2018-12-27T00:45:04Z</time>
      </trkpt>
      <trkpt lat="42.68486" lon="-0.58512">
        <ele>1379</ele>
        <time>2018-12-27T00:45:05Z</time>
      </trkpt>
      <trkpt lat="42.6847" lon="-0.58542">
        <ele>1375</ele>
        <time>2018-12-27T00:45:12Z</time>
      </trkpt>
      <trkpt lat="42.68453" lon="-0.58567">
        <ele>1370</ele>
        <time>2018-12-27T00:45:18Z</time>
      </trkpt>
      <trkpt lat="42.68446" lon="-0.58588">
        <ele>1369</ele>
        <time>2018-12-27T00:45:23Z</time>
      </trkpt>
      <trkpt lat="42.68437" lon="-0.58601">
        <ele>1367</ele>
        <time>2018-12-27T00:45:26Z</time>
      </trkpt>
      <trkpt lat="42.68432" lon="-0.58613">
        <ele>1366</ele>
        <time>2018-12-27T00:45:29Z</time>
      </trkpt>
      <trkpt lat="42.68429" lon="-0.58623">
        <ele>1365</ele>
        <time>2018-12-27T00:45:31Z</time>
      </trkpt>
      <trkpt lat="42.68427" lon="-0.58643">
        <ele>1363</ele>
        <time>2018-12-27T00:45:35Z</time>
      </trkpt>
      <trkpt lat="42.68424" lon="-0.58653">
        <ele>1361</ele>
        <time>2018-12-27T00:45:37Z</time>
      </trkpt>
      <trkpt lat="42.68423" lon="-0.58654">
        <ele>1361</ele>
        <time>2018-12-27T00:45:38Z</time>
      </trkpt>
      <trkpt lat="42.68417" lon="-0.58654">
        <ele>1359</ele>
        <time>2018-12-27T00:45:39Z</time>
      </trkpt>
      <trkpt lat="42.68413" lon="-0.58651">
        <ele>1358</ele>
        <time>2018-12-27T00:45:41Z</time>
      </trkpt>
      <trkpt lat="42.68403" lon="-0.5862">
        <ele>1358</ele>
        <time>2018-12-27T00:45:47Z</time>
      </trkpt>
      <trkpt lat="42.68391" lon="-0.58613">
        <ele>1354</ele>
        <time>2018-12-27T00:45:51Z</time>
      </trkpt>
      <trkpt lat="42.68383" lon="-0.58613">
        <ele>1351</ele>
        <time>2018-12-27T00:45:53Z</time>
      </trkpt>
      <trkpt lat="42.68372" lon="-0.58611">
        <ele>1347</ele>
        <time>2018-12-27T00:45:56Z</time>
      </trkpt>
      <trkpt lat="42.68365" lon="-0.58613">
        <ele>1345</ele>
        <time>2018-12-27T00:45:58Z</time>
      </trkpt>
      <trkpt lat="42.68359" lon="-0.58619">
        <ele>1343</ele>
        <time>2018-12-27T00:46:00Z</time>
      </trkpt>
      <trkpt lat="42.68354" lon="-0.58618">
        <ele>1342</ele>
        <time>2018-12-27T00:46:01Z</time>
      </trkpt>
      <trkpt lat="42.68343" lon="-0.58624">
        <ele>1340</ele>
        <time>2018-12-27T00:46:04Z</time>
      </trkpt>
      <trkpt lat="42.68339" lon="-0.58622">
        <ele>1339</ele>
        <time>2018-12-27T00:46:05Z</time>
      </trkpt>
      <trkpt lat="42.68334" lon="-0.58611">
        <ele>1339</ele>
        <time>2018-12-27T00:46:08Z</time>
      </trkpt>
      <trkpt lat="42.68331" lon="-0.58609">
        <ele>1338</ele>
        <time>2018-12-27T00:46:09Z</time>
      </trkpt>
      <trkpt lat="42.68323" lon="-0.58609">
        <ele>1336</ele>
        <time>2018-12-27T00:46:11Z</time>
      </trkpt>
      <trkpt lat="42.68306" lon="-0.58604">
        <ele>1333</ele>
        <time>2018-12-27T00:46:15Z</time>
      </trkpt>
      <trkpt lat="42.68286" lon="-0.58609">
        <ele>1325</ele>
        <time>2018-12-27T00:46:21Z</time>
      </trkpt>
      <trkpt lat="42.68274" lon="-0.5861">
        <ele>1321</ele>
        <time>2018-12-27T00:46:24Z</time>
      </trkpt>
      <trkpt lat="42.68268" lon="-0.58612">
        <ele>1318</ele>
        <time>2018-12-27T00:46:26Z</time>
      </trkpt>
      <trkpt lat="42.68269" lon="-0.58599">
        <ele>1318</ele>
        <time>2018-12-27T00:46:28Z</time>
      </trkpt>
      <trkpt lat="42.68266" lon="-0.58586">
        <ele>1315</ele>
        <time>2018-12-27T00:46:31Z</time>
      </trkpt>
      <trkpt lat="42.6826" lon="-0.58587">
        <ele>1313</ele>
        <time>2018-12-27T00:46:32Z</time>
      </trkpt>
      <trkpt lat="42.68239" lon="-0.58597">
        <ele>1305</ele>
        <time>2018-12-27T00:46:39Z</time>
      </trkpt>
      <trkpt lat="42.68211" lon="-0.58636">
        <ele>1299</ele>
        <time>2018-12-27T00:46:49Z</time>
      </trkpt>
      <trkpt lat="42.6821" lon="-0.58642">
        <ele>1299</ele>
        <time>2018-12-27T00:46:50Z</time>
      </trkpt>
      <trkpt lat="42.68205" lon="-0.58649">
        <ele>1297</ele>
        <time>2018-12-27T00:46:52Z</time>
      </trkpt>
      <trkpt lat="42.68191" lon="-0.58659">
        <ele>1293</ele>
        <time>2018-12-27T00:46:57Z</time>
      </trkpt>
      <trkpt lat="42.68181" lon="-0.58676">
        <ele>1290</ele>
        <time>2018-12-27T00:47:01Z</time>
      </trkpt>
      <trkpt lat="42.68178" lon="-0.58685">
        <ele>1289</ele>
        <time>2018-12-27T00:47:03Z</time>
      </trkpt>
      <trkpt lat="42.68143" lon="-0.58714">
        <ele>1278</ele>
        <time>2018-12-27T00:47:14Z</time>
      </trkpt>
      <trkpt lat="42.68139" lon="-0.58727">
        <ele>1278</ele>
        <time>2018-12-27T00:47:16Z</time>
      </trkpt>
      <trkpt lat="42.68136" lon="-0.58731">
        <ele>1276</ele>
        <time>2018-12-27T00:47:18Z</time>
      </trkpt>
      <trkpt lat="42.68135" lon="-0.58745">
        <ele>1276</ele>
        <time>2018-12-27T00:47:20Z</time>
      </trkpt>
      <trkpt lat="42.68139" lon="-0.58767">
        <ele>1276</ele>
        <time>2018-12-27T00:47:25Z</time>
      </trkpt>
      <trkpt lat="42.68121" lon="-0.58769">
        <ele>1268</ele>
        <time>2018-12-27T00:47:30Z</time>
      </trkpt>
      <trkpt lat="42.68114" lon="-0.58768">
        <ele>1266</ele>
        <time>2018-12-27T00:47:31Z</time>
      </trkpt>
      <trkpt lat="42.6811" lon="-0.58773">
        <ele>1264</ele>
        <time>2018-12-27T00:47:33Z</time>
      </trkpt>
      <trkpt lat="42.68101" lon="-0.58774">
        <ele>1260</ele>
        <time>2018-12-27T00:47:35Z</time>
      </trkpt>
      <trkpt lat="42.68097" lon="-0.58783">
        <ele>1258</ele>
        <time>2018-12-27T00:47:37Z</time>
      </trkpt>
      <trkpt lat="42.68097" lon="-0.58793">
        <ele>1257</ele>
        <time>2018-12-27T00:47:39Z</time>
      </trkpt>
      <trkpt lat="42.68102" lon="-0.58807">
        <ele>1259</ele>
        <time>2018-12-27T00:47:42Z</time>
      </trkpt>
      <trkpt lat="42.68101" lon="-0.58808">
        <ele>1258</ele>
        <time>2018-12-27T00:47:43Z</time>
      </trkpt>
      <trkpt lat="42.6809" lon="-0.58819">
        <ele>1252</ele>
        <time>2018-12-27T00:47:46Z</time>
      </trkpt>
      <trkpt lat="42.68069" lon="-0.58833">
        <ele>1245</ele>
        <time>2018-12-27T00:47:53Z</time>
      </trkpt>
      <trkpt lat="42.68065" lon="-0.58837">
        <ele>1244</ele>
        <time>2018-12-27T00:47:54Z</time>
      </trkpt>
      <trkpt lat="42.68056" lon="-0.5884">
        <ele>1243</ele>
        <time>2018-12-27T00:47:57Z</time>
      </trkpt>
      <trkpt lat="42.68047" lon="-0.58864">
        <ele>1238</ele>
        <time>2018-12-27T00:48:02Z</time>
      </trkpt>
      <trkpt lat="42.68043" lon="-0.58882">
        <ele>1235</ele>
        <time>2018-12-27T00:48:05Z</time>
      </trkpt>
      <trkpt lat="42.68031" lon="-0.58886">
        <ele>1233</ele>
        <time>2018-12-27T00:48:09Z</time>
      </trkpt>
      <trkpt lat="42.68025" lon="-0.58885">
        <ele>1231</ele>
        <time>2018-12-27T00:48:10Z</time>
      </trkpt>
      <trkpt lat="42.68022" lon="-0.58887">
        <ele>1230</ele>
        <time>2018-12-27T00:48:11Z</time>
      </trkpt>
      <trkpt lat="42.6802" lon="-0.58898">
        <ele>1227</ele>
        <time>2018-12-27T00:48:13Z</time>
      </trkpt>
      <trkpt lat="42.68025" lon="-0.58915">
        <ele>1225</ele>
        <time>2018-12-27T00:48:17Z</time>
      </trkpt>
      <trkpt lat="42.68025" lon="-0.58924">
        <ele>1223</ele>
        <time>2018-12-27T00:48:19Z</time>
      </trkpt>
      <trkpt lat="42.68021" lon="-0.58933">
        <ele>1221</ele>
        <time>2018-12-27T00:48:21Z</time>
      </trkpt>
      <trkpt lat="42.68008" lon="-0.58937">
        <ele>1218</ele>
        <time>2018-12-27T00:48:24Z</time>
      </trkpt>
      <trkpt lat="42.68002" lon="-0.58935">
        <ele>1218</ele>
        <time>2018-12-27T00:48:26Z</time>
      </trkpt>
      <trkpt lat="42.67997" lon="-0.58936">
        <ele>1217</ele>
        <time>2018-12-27T00:48:27Z</time>
      </trkpt>
      <trkpt lat="42.67977" lon="-0.58928">
        <ele>1213</ele>
        <time>2018-12-27T00:48:33Z</time>
      </trkpt>
      <trkpt lat="42.67967" lon="-0.58927">
        <ele>1211</ele>
        <time>2018-12-27T00:48:36Z</time>
      </trkpt>
      <trkpt lat="42.6796" lon="-0.58924">
        <ele>1209</ele>
        <time>2018-12-27T00:48:37Z</time>
      </trkpt>
      <trkpt lat="42.67957" lon="-0.58918">
        <ele>1209</ele>
        <time>2018-12-27T00:48:39Z</time>
      </trkpt>
      <trkpt lat="42.67937" lon="-0.58901">
        <ele>1205</ele>
        <time>2018-12-27T00:48:45Z</time>
      </trkpt>
      <trkpt lat="42.67935" lon="-0.58903">
        <ele>1204</ele>
        <time>2018-12-27T00:48:46Z</time>
      </trkpt>
      <trkpt lat="42.67932" lon="-0.5891">
        <ele>1203</ele>
        <time>2018-12-27T00:48:47Z</time>
      </trkpt>
      <trkpt lat="42.67926" lon="-0.58913">
        <ele>1202</ele>
        <time>2018-12-27T00:48:49Z</time>
      </trkpt>
      <trkpt lat="42.6792" lon="-0.58912">
        <ele>1200</ele>
        <time>2018-12-27T00:48:51Z</time>
      </trkpt>
      <trkpt lat="42.67905" lon="-0.58914">
        <ele>1196</ele>
        <time>2018-12-27T00:48:55Z</time>
      </trkpt>
      <trkpt lat="42.67891" lon="-0.58917">
        <ele>1192</ele>
        <time>2018-12-27T00:48:58Z</time>
      </trkpt>
      <trkpt lat="42.67869" lon="-0.5893">
        <ele>1183</ele>
        <time>2018-12-27T00:49:05Z</time>
      </trkpt>
      <trkpt lat="42.67865" lon="-0.58934">
        <ele>1182</ele>
        <time>2018-12-27T00:49:06Z</time>
      </trkpt>
      <trkpt lat="42.67858" lon="-0.58937">
        <ele>1180</ele>
        <time>2018-12-27T00:49:08Z</time>
      </trkpt>
      <trkpt lat="42.67851" lon="-0.58943">
        <ele>1178</ele>
        <time>2018-12-27T00:49:10Z</time>
      </trkpt>
      <trkpt lat="42.67844" lon="-0.58945">
        <ele>1176</ele>
        <time>2018-12-27T00:49:12Z</time>
      </trkpt>
      <trkpt lat="42.67834" lon="-0.58952">
        <ele>1174</ele>
        <time>2018-12-27T00:49:15Z</time>
      </trkpt>
      <trkpt lat="42.6783" lon="-0.58957">
        <ele>1173</ele>
        <time>2018-12-27T00:49:17Z</time>
      </trkpt>
      <trkpt lat="42.67825" lon="-0.58956">
        <ele>1172</ele>
        <time>2018-12-27T00:49:18Z</time>
      </trkpt>
      <trkpt lat="42.67821" lon="-0.58958">
        <ele>1171</ele>
        <time>2018-12-27T00:49:19Z</time>
      </trkpt>
      <trkpt lat="42.67803" lon="-0.58986">
        <ele>1166</ele>
        <time>2018-12-27T00:49:26Z</time>
      </trkpt>
      <trkpt lat="42.67797" lon="-0.58987">
        <ele>1164</ele>
        <time>2018-12-27T00:49:28Z</time>
      </trkpt>
      <trkpt lat="42.67786" lon="-0.58993">
        <ele>1160</ele>
        <time>2018-12-27T00:49:31Z</time>
      </trkpt>
      <trkpt lat="42.67781" lon="-0.59001">
        <ele>1157</ele>
        <time>2018-12-27T00:49:33Z</time>
      </trkpt>
      <trkpt lat="42.67775" lon="-0.59005">
        <ele>1155</ele>
        <time>2018-12-27T00:49:35Z</time>
      </trkpt>
      <trkpt lat="42.67761" lon="-0.59009">
        <ele>1149</ele>
        <time>2018-12-27T00:49:39Z</time>
      </trkpt>
      <trkpt lat="42.67751" lon="-0.59015">
        <ele>1144</ele>
        <time>2018-12-27T00:49:42Z</time>
      </trkpt>
      <trkpt lat="42.67743" lon="-0.59013">
        <ele>1141</ele>
        <time>2018-12-27T00:49:44Z</time>
      </trkpt>
      <trkpt lat="42.67736" lon="-0.59008">
        <ele>1140</ele>
        <time>2018-12-27T00:49:46Z</time>
      </trkpt>
      <trkpt lat="42.67723" lon="-0.59002">
        <ele>1136</ele>
        <time>2018-12-27T00:49:50Z</time>
      </trkpt>
      <trkpt lat="42.67718" lon="-0.58997">
        <ele>1135</ele>
        <time>2018-12-27T00:49:51Z</time>
      </trkpt>
      <trkpt lat="42.67714" lon="-0.58988">
        <ele>1133</ele>
        <time>2018-12-27T00:49:53Z</time>
      </trkpt>
      <trkpt lat="42.6771" lon="-0.58985">
        <ele>1131</ele>
        <time>2018-12-27T00:49:55Z</time>
      </trkpt>
      <trkpt lat="42.67707" lon="-0.5899">
        <ele>1130</ele>
        <time>2018-12-27T00:49:56Z</time>
      </trkpt>
      <trkpt lat="42.67699" lon="-0.58985">
        <ele>1127</ele>
        <time>2018-12-27T00:49:58Z</time>
      </trkpt>
      <trkpt lat="42.67689" lon="-0.58991">
        <ele>1122</ele>
        <time>2018-12-27T00:50:01Z</time>
      </trkpt>
      <trkpt lat="42.67683" lon="-0.58992">
        <ele>1119</ele>
        <time>2018-12-27T00:50:03Z</time>
      </trkpt>
      <trkpt lat="42.67681" lon="-0.58982">
        <ele>1118</ele>
        <time>2018-12-27T00:50:04Z</time>
      </trkpt>
      <trkpt lat="42.67672" lon="-0.58986">
        <ele>1113</ele>
        <time>2018-12-27T00:50:07Z</time>
      </trkpt>
      <trkpt lat="42.67671" lon="-0.58972">
        <ele>1113</ele>
        <time>2018-12-27T00:50:10Z</time>
      </trkpt>
      <trkpt lat="42.67669" lon="-0.58961">
        <ele>1110</ele>
        <time>2018-12-27T00:50:12Z</time>
      </trkpt>
      <trkpt lat="42.67678" lon="-0.58943">
        <ele>1111</ele>
        <time>2018-12-27T00:50:16Z</time>
      </trkpt>
      <trkpt lat="42.6768" lon="-0.58935">
        <ele>1110</ele>
        <time>2018-12-27T00:50:18Z</time>
      </trkpt>
      <trkpt lat="42.6768" lon="-0.58929">
        <ele>1108</ele>
        <time>2018-12-27T00:50:19Z</time>
      </trkpt>
      <trkpt lat="42.67677" lon="-0.58926">
        <ele>1106</ele>
        <time>2018-12-27T00:50:20Z</time>
      </trkpt>
      <trkpt lat="42.67657" lon="-0.58929">
        <ele>1102</ele>
        <time>2018-12-27T00:50:26Z</time>
      </trkpt>
      <trkpt lat="42.67647" lon="-0.58937">
        <ele>1101</ele>
        <time>2018-12-27T00:50:29Z</time>
      </trkpt>
      <trkpt lat="42.67644" lon="-0.58942">
        <ele>1101</ele>
        <time>2018-12-27T00:50:30Z</time>
      </trkpt>
      <trkpt lat="42.67633" lon="-0.58952">
        <ele>1099</ele>
        <time>2018-12-27T00:50:34Z</time>
      </trkpt>
      <trkpt lat="42.6761" lon="-0.58973">
        <ele>1095</ele>
        <time>2018-12-27T00:50:41Z</time>
      </trkpt>
      <trkpt lat="42.67591" lon="-0.58985">
        <ele>1092</ele>
        <time>2018-12-27T00:50:47Z</time>
      </trkpt>
      <trkpt lat="42.67586" lon="-0.58986">
        <ele>1091</ele>
        <time>2018-12-27T00:50:48Z</time>
      </trkpt>
      <trkpt lat="42.67586" lon="-0.58983">
        <ele>1091</ele>
        <time>2018-12-27T00:50:48Z</time>
      </trkpt>
      <trkpt lat="42.6758" lon="-0.58986">
        <ele>1090</ele>
        <time>2018-12-27T00:50:50Z</time>
      </trkpt>
      <trkpt lat="42.67581" lon="-0.58988">
        <ele>1091</ele>
        <time>2018-12-27T00:50:51Z</time>
      </trkpt>
      <trkpt lat="42.67583" lon="-0.58985">
        <ele>1091</ele>
        <time>2018-12-27T00:50:52Z</time>
      </trkpt>
      <trkpt lat="42.67581" lon="-0.58987">
        <ele>1091</ele>
        <time>2018-12-27T00:50:52Z</time>
      </trkpt>
      <trkpt lat="42.67576" lon="-0.58987">
        <ele>1090</ele>
        <time>2018-12-27T00:50:54Z</time>
      </trkpt>
      <trkpt lat="42.67579" lon="-0.58988">
        <ele>1090</ele>
        <time>2018-12-27T00:50:55Z</time>
      </trkpt>
      <trkpt lat="42.6759" lon="-0.58986">
        <ele>1092</ele>
        <time>2018-12-27T00:50:58Z</time>
      </trkpt>
      <trkpt lat="42.67585" lon="-0.58994">
        <ele>1091</ele>
        <time>2018-12-27T00:51:00Z</time>
      </trkpt>
      <trkpt lat="42.67587" lon="-0.58993">
        <ele>1091</ele>
        <time>2018-12-27T00:51:00Z</time>
      </trkpt>
      <trkpt lat="42.67589" lon="-0.58998">
        <ele>1091</ele>
        <time>2018-12-27T00:51:01Z</time>
      </trkpt>
      <trkpt lat="42.67584" lon="-0.58996">
        <ele>1091</ele>
        <time>2018-12-27T00:51:03Z</time>
      </trkpt>
      <trkpt lat="42.67576" lon="-0.59005">
        <ele>1089</ele>
        <time>2018-12-27T00:51:05Z</time>
      </trkpt>
      <trkpt lat="42.67576" lon="-0.59001">
        <ele>1089</ele>
        <time>2018-12-27T00:51:06Z</time>
      </trkpt>
      <trkpt lat="42.67578" lon="-0.58999">
        <ele>1090</ele>
        <time>2018-12-27T00:51:07Z</time>
      </trkpt>
      <trkpt lat="42.67578" lon="-0.58994">
        <ele>1090</ele>
        <time>2018-12-27T00:51:08Z</time>
      </trkpt>
      <trkpt lat="42.67579" lon="-0.58996">
        <ele>1090</ele>
        <time>2018-12-27T00:51:08Z</time>
      </trkpt>
      <trkpt lat="42.67586" lon="-0.58994">
        <ele>1091</ele>
        <time>2018-12-27T00:51:10Z</time>
      </trkpt>
      <trkpt lat="42.67587" lon="-0.58991">
        <ele>1091</ele>
        <time>2018-12-27T00:51:11Z</time>
      </trkpt>
      <trkpt lat="42.67588" lon="-0.58993">
        <ele>1091</ele>
        <time>2018-12-27T00:51:11Z</time>
      </trkpt>
      <trkpt lat="42.67584" lon="-0.58992">
        <ele>1091</ele>
        <time>2018-12-27T00:51:12Z</time>
      </trkpt>
      <trkpt lat="42.67585" lon="-0.58993">
        <ele>1091</ele>
        <time>2018-12-27T00:51:12Z</time>
      </trkpt>
      <trkpt lat="42.67588" lon="-0.5899">
        <ele>1092</ele>
        <time>2018-12-27T00:51:14Z</time>
      </trkpt>
      <trkpt lat="42.67597" lon="-0.5897">
        <ele>1093</ele>
        <time>2018-12-27T00:51:18Z</time>
      </trkpt>
      <trkpt lat="42.67599" lon="-0.5896">
        <ele>1094</ele>
        <time>2018-12-27T00:51:20Z</time>
      </trkpt>
      <trkpt lat="42.67595" lon="-0.58941">
        <ele>1093</ele>
        <time>2018-12-27T00:51:24Z</time>
      </trkpt>
      <trkpt lat="42.67583" lon="-0.58915">
        <ele>1092</ele>
        <time>2018-12-27T00:51:30Z</time>
      </trkpt>
      <trkpt lat="42.67582" lon="-0.58894">
        <ele>1094</ele>
        <time>2018-12-27T00:51:34Z</time>
      </trkpt>
      <trkpt lat="42.67583" lon="-0.58874">
        <ele>1098</ele>
        <time>2018-12-27T00:51:38Z</time>
      </trkpt>
      <trkpt lat="42.67585" lon="-0.58867">
        <ele>1100</ele>
        <time>2018-12-27T00:51:39Z</time>
      </trkpt>
      <trkpt lat="42.67587" lon="-0.58863">
        <ele>1101</ele>
        <time>2018-12-27T00:51:41Z</time>
      </trkpt>
      <trkpt lat="42.67594" lon="-0.58858">
        <ele>1103</ele>
        <time>2018-12-27T00:51:43Z</time>
      </trkpt>
      <trkpt lat="42.67598" lon="-0.5885">
        <ele>1105</ele>
        <time>2018-12-27T00:51:44Z</time>
      </trkpt>
      <trkpt lat="42.6761" lon="-0.58836">
        <ele>1108</ele>
        <time>2018-12-27T00:51:49Z</time>
      </trkpt>
      <trkpt lat="42.6762" lon="-0.5882">
        <ele>1111</ele>
        <time>2018-12-27T00:51:53Z</time>
      </trkpt>
      <trkpt lat="42.67632" lon="-0.58806">
        <ele>1113</ele>
        <time>2018-12-27T00:51:57Z</time>
      </trkpt>
      <trkpt lat="42.67629" lon="-0.58802">
        <ele>1114</ele>
        <time>2018-12-27T00:51:58Z</time>
      </trkpt>
      <trkpt lat="42.67623" lon="-0.58802">
        <ele>1115</ele>
        <time>2018-12-27T00:52:00Z</time>
      </trkpt>
      <trkpt lat="42.67618" lon="-0.58804">
        <ele>1114</ele>
        <time>2018-12-27T00:52:01Z</time>
      </trkpt>
      <trkpt lat="42.67598" lon="-0.58804">
        <ele>1115</ele>
        <time>2018-12-27T00:52:06Z</time>
      </trkpt>
      <trkpt lat="42.67586" lon="-0.588">
        <ele>1116</ele>
        <time>2018-12-27T00:52:10Z</time>
      </trkpt>
      <trkpt lat="42.67582" lon="-0.58792">
        <ele>1117</ele>
        <time>2018-12-27T00:52:11Z</time>
      </trkpt>
      <trkpt lat="42.67578" lon="-0.58774">
        <ele>1121</ele>
        <time>2018-12-27T00:52:15Z</time>
      </trkpt>
      <trkpt lat="42.67572" lon="-0.58763">
        <ele>1123</ele>
        <time>2018-12-27T00:52:18Z</time>
      </trkpt>
      <trkpt lat="42.67566" lon="-0.58748">
        <ele>1126</ele>
        <time>2018-12-27T00:52:21Z</time>
      </trkpt>
      <trkpt lat="42.67563" lon="-0.58751">
        <ele>1125</ele>
        <time>2018-12-27T00:52:22Z</time>
      </trkpt>
      <trkpt lat="42.67558" lon="-0.58751">
        <ele>1125</ele>
        <time>2018-12-27T00:52:23Z</time>
      </trkpt>
      <trkpt lat="42.67555" lon="-0.5875">
        <ele>1126</ele>
        <time>2018-12-27T00:52:24Z</time>
      </trkpt>
      <trkpt lat="42.67551" lon="-0.5875">
        <ele>1126</ele>
        <time>2018-12-27T00:52:25Z</time>
      </trkpt>
      <trkpt lat="42.67548" lon="-0.58752">
        <ele>1126</ele>
        <time>2018-12-27T00:52:26Z</time>
      </trkpt>
      <trkpt lat="42.67543" lon="-0.58752">
        <ele>1127</ele>
        <time>2018-12-27T00:52:28Z</time>
      </trkpt>
      <trkpt lat="42.6754" lon="-0.58741">
        <ele>1130</ele>
        <time>2018-12-27T00:52:30Z</time>
      </trkpt>
      <trkpt lat="42.67529" lon="-0.58732">
        <ele>1135</ele>
        <time>2018-12-27T00:52:33Z</time>
      </trkpt>
      <trkpt lat="42.67517" lon="-0.58724">
        <ele>1141</ele>
        <time>2018-12-27T00:52:37Z</time>
      </trkpt>
      <trkpt lat="42.67503" lon="-0.58724">
        <ele>1144</ele>
        <time>2018-12-27T00:52:41Z</time>
      </trkpt>
      <trkpt lat="42.67491" lon="-0.58733">
        <ele>1143</ele>
        <time>2018-12-27T00:52:44Z</time>
      </trkpt>
      <trkpt lat="42.67486" lon="-0.58733">
        <ele>1144</ele>
        <time>2018-12-27T00:52:45Z</time>
      </trkpt>
      <trkpt lat="42.67481" lon="-0.58738">
        <ele>1143</ele>
        <time>2018-12-27T00:52:47Z</time>
      </trkpt>
      <trkpt lat="42.67473" lon="-0.58744">
        <ele>1142</ele>
        <time>2018-12-27T00:52:50Z</time>
      </trkpt>
      <trkpt lat="42.67464" lon="-0.58746">
        <ele>1143</ele>
        <time>2018-12-27T00:52:52Z</time>
      </trkpt>
      <trkpt lat="42.67454" lon="-0.58753">
        <ele>1142</ele>
        <time>2018-12-27T00:52:55Z</time>
      </trkpt>
      <trkpt lat="42.67439" lon="-0.58758">
        <ele>1143</ele>
        <time>2018-12-27T00:52:59Z</time>
      </trkpt>
      <trkpt lat="42.67417" lon="-0.58754">
        <ele>1146</ele>
        <time>2018-12-27T00:53:05Z</time>
      </trkpt>
      <trkpt lat="42.67406" lon="-0.58751">
        <ele>1147</ele>
        <time>2018-12-27T00:53:08Z</time>
      </trkpt>
      <trkpt lat="42.67394" lon="-0.5873">
        <ele>1149</ele>
        <time>2018-12-27T00:53:13Z</time>
      </trkpt>
      <trkpt lat="42.67374" lon="-0.58656">
        <ele>1161</ele>
        <time>2018-12-27T00:53:29Z</time>
      </trkpt>
      <trkpt lat="42.67367" lon="-0.58648">
        <ele>1161</ele>
        <time>2018-12-27T00:53:31Z</time>
      </trkpt>
      <trkpt lat="42.67342" lon="-0.5863">
        <ele>1161</ele>
        <time>2018-12-27T00:53:39Z</time>
      </trkpt>
      <trkpt lat="42.67337" lon="-0.58624">
        <ele>1161</ele>
        <time>2018-12-27T00:53:40Z</time>
      </trkpt>
      <trkpt lat="42.67336" lon="-0.58611">
        <ele>1164</ele>
        <time>2018-12-27T00:53:43Z</time>
      </trkpt>
      <trkpt lat="42.67332" lon="-0.58595">
        <ele>1167</ele>
        <time>2018-12-27T00:53:46Z</time>
      </trkpt>
      <trkpt lat="42.67332" lon="-0.58588">
        <ele>1168</ele>
        <time>2018-12-27T00:53:48Z</time>
      </trkpt>
      <trkpt lat="42.67327" lon="-0.58574">
        <ele>1171</ele>
        <time>2018-12-27T00:53:51Z</time>
      </trkpt>
      <trkpt lat="42.67315" lon="-0.58552">
        <ele>1173</ele>
        <time>2018-12-27T00:53:56Z</time>
      </trkpt>
      <trkpt lat="42.67314" lon="-0.58544">
        <ele>1174</ele>
        <time>2018-12-27T00:53:58Z</time>
      </trkpt>
      <trkpt lat="42.6731" lon="-0.58541">
        <ele>1174</ele>
        <time>2018-12-27T00:53:59Z</time>
      </trkpt>
      <trkpt lat="42.67305" lon="-0.58543">
        <ele>1173</ele>
        <time>2018-12-27T00:54:00Z</time>
      </trkpt>
      <trkpt lat="42.67299" lon="-0.58544">
        <ele>1174</ele>
        <time>2018-12-27T00:54:02Z</time>
      </trkpt>
      <trkpt lat="42.67292" lon="-0.5854">
        <ele>1175</ele>
        <time>2018-12-27T00:54:04Z</time>
      </trkpt>
      <trkpt lat="42.6728" lon="-0.58539">
        <ele>1176</ele>
        <time>2018-12-27T00:54:07Z</time>
      </trkpt>
      <trkpt lat="42.67272" lon="-0.5854">
        <ele>1178</ele>
        <time>2018-12-27T00:54:09Z</time>
      </trkpt>
      <trkpt lat="42.67267" lon="-0.58543">
        <ele>1179</ele>
        <time>2018-12-27T00:54:11Z</time>
      </trkpt>
      <trkpt lat="42.67262" lon="-0.58543">
        <ele>1180</ele>
        <time>2018-12-27T00:54:12Z</time>
      </trkpt>
      <trkpt lat="42.67248" lon="-0.58555">
        <ele>1182</ele>
        <time>2018-12-27T00:54:17Z</time>
      </trkpt>
      <trkpt lat="42.67235" lon="-0.58557">
        <ele>1185</ele>
        <time>2018-12-27T00:54:20Z</time>
      </trkpt>
      <trkpt lat="42.67224" lon="-0.58561">
        <ele>1187</ele>
        <time>2018-12-27T00:54:23Z</time>
      </trkpt>
      <trkpt lat="42.67216" lon="-0.58573">
        <ele>1186</ele>
        <time>2018-12-27T00:54:26Z</time>
      </trkpt>
      <trkpt lat="42.67209" lon="-0.58577">
        <ele>1187</ele>
        <time>2018-12-27T00:54:29Z</time>
      </trkpt>
      <trkpt lat="42.67205" lon="-0.58581">
        <ele>1187</ele>
        <time>2018-12-27T00:54:30Z</time>
      </trkpt>
      <trkpt lat="42.67199" lon="-0.58591">
        <ele>1186</ele>
        <time>2018-12-27T00:54:32Z</time>
      </trkpt>
      <trkpt lat="42.67194" lon="-0.58596">
        <ele>1186</ele>
        <time>2018-12-27T00:54:34Z</time>
      </trkpt>
      <trkpt lat="42.67166" lon="-0.58597">
        <ele>1189</ele>
        <time>2018-12-27T00:54:41Z</time>
      </trkpt>
      <trkpt lat="42.67155" lon="-0.58609">
        <ele>1188</ele>
        <time>2018-12-27T00:54:45Z</time>
      </trkpt>
      <trkpt lat="42.67149" lon="-0.58613">
        <ele>1188</ele>
        <time>2018-12-27T00:54:47Z</time>
      </trkpt>
      <trkpt lat="42.67142" lon="-0.58628">
        <ele>1186</ele>
        <time>2018-12-27T00:54:50Z</time>
      </trkpt>
      <trkpt lat="42.6714" lon="-0.5863">
        <ele>1185</ele>
        <time>2018-12-27T00:54:51Z</time>
      </trkpt>
      <trkpt lat="42.67135" lon="-0.5863">
        <ele>1186</ele>
        <time>2018-12-27T00:54:52Z</time>
      </trkpt>
      <trkpt lat="42.67133" lon="-0.58633">
        <ele>1186</ele>
        <time>2018-12-27T00:54:53Z</time>
      </trkpt>
      <trkpt lat="42.67127" lon="-0.58635">
        <ele>1187</ele>
        <time>2018-12-27T00:54:55Z</time>
      </trkpt>
      <trkpt lat="42.6711" lon="-0.58658">
        <ele>1185</ele>
        <time>2018-12-27T00:55:01Z</time>
      </trkpt>
      <trkpt lat="42.67107" lon="-0.5866">
        <ele>1186</ele>
        <time>2018-12-27T00:55:02Z</time>
      </trkpt>
      <trkpt lat="42.671" lon="-0.58672">
        <ele>1186</ele>
        <time>2018-12-27T00:55:05Z</time>
      </trkpt>
      <trkpt lat="42.67086" lon="-0.58691">
        <ele>1187</ele>
        <time>2018-12-27T00:55:11Z</time>
      </trkpt>
      <trkpt lat="42.67063" lon="-0.5871">
        <ele>1189</ele>
        <time>2018-12-27T00:55:18Z</time>
      </trkpt>
      <trkpt lat="42.67039" lon="-0.58719">
        <ele>1192</ele>
        <time>2018-12-27T00:55:24Z</time>
      </trkpt>
      <trkpt lat="42.67025" lon="-0.5872">
        <ele>1194</ele>
        <time>2018-12-27T00:55:28Z</time>
      </trkpt>
      <trkpt lat="42.67022" lon="-0.58723">
        <ele>1194</ele>
        <time>2018-12-27T00:55:29Z</time>
      </trkpt>
      <trkpt lat="42.67015" lon="-0.58725">
        <ele>1195</ele>
        <time>2018-12-27T00:55:31Z</time>
      </trkpt>
      <trkpt lat="42.66984" lon="-0.58761">
        <ele>1188</ele>
        <time>2018-12-27T00:55:42Z</time>
      </trkpt>
      <trkpt lat="42.66965" lon="-0.58773">
        <ele>1184</ele>
        <time>2018-12-27T00:55:47Z</time>
      </trkpt>
      <trkpt lat="42.66949" lon="-0.58778">
        <ele>1182</ele>
        <time>2018-12-27T00:55:52Z</time>
      </trkpt>
      <trkpt lat="42.66938" lon="-0.58771">
        <ele>1181</ele>
        <time>2018-12-27T00:55:55Z</time>
      </trkpt>
      <trkpt lat="42.66929" lon="-0.58751">
        <ele>1182</ele>
        <time>2018-12-27T00:56:00Z</time>
      </trkpt>
      <trkpt lat="42.66919" lon="-0.5872">
        <ele>1181</ele>
        <time>2018-12-27T00:56:06Z</time>
      </trkpt>
      <trkpt lat="42.66914" lon="-0.58695">
        <ele>1181</ele>
        <time>2018-12-27T00:56:11Z</time>
      </trkpt>
      <trkpt lat="42.66901" lon="-0.58674">
        <ele>1179</ele>
        <time>2018-12-27T00:56:17Z</time>
      </trkpt>
      <trkpt lat="42.66886" lon="-0.58658">
        <ele>1176</ele>
        <time>2018-12-27T00:56:22Z</time>
      </trkpt>
      <trkpt lat="42.66883" lon="-0.58649">
        <ele>1177</ele>
        <time>2018-12-27T00:56:24Z</time>
      </trkpt>
      <trkpt lat="42.6686" lon="-0.58619">
        <ele>1177</ele>
        <time>2018-12-27T00:56:32Z</time>
      </trkpt>
      <trkpt lat="42.6684" lon="-0.58615">
        <ele>1177</ele>
        <time>2018-12-27T00:56:38Z</time>
      </trkpt>
      <trkpt lat="42.66819" lon="-0.58628">
        <ele>1172</ele>
        <time>2018-12-27T00:56:44Z</time>
      </trkpt>
      <trkpt lat="42.66811" lon="-0.58629">
        <ele>1172</ele>
        <time>2018-12-27T00:56:46Z</time>
      </trkpt>
      <trkpt lat="42.66792" lon="-0.58635">
        <ele>1172</ele>
        <time>2018-12-27T00:56:51Z</time>
      </trkpt>
      <trkpt lat="42.6677" lon="-0.58649">
        <ele>1172</ele>
        <time>2018-12-27T00:56:58Z</time>
      </trkpt>
      <trkpt lat="42.6675" lon="-0.58676">
        <ele>1169</ele>
        <time>2018-12-27T00:57:05Z</time>
      </trkpt>
      <trkpt lat="42.66735" lon="-0.58691">
        <ele>1167</ele>
        <time>2018-12-27T00:57:10Z</time>
      </trkpt>
      <trkpt lat="42.6672" lon="-0.58708">
        <ele>1164</ele>
        <time>2018-12-27T00:57:15Z</time>
      </trkpt>
      <trkpt lat="42.66709" lon="-0.58717">
        <ele>1163</ele>
        <time>2018-12-27T00:57:19Z</time>
      </trkpt>
      <trkpt lat="42.66705" lon="-0.58723">
        <ele>1161</ele>
        <time>2018-12-27T00:57:20Z</time>
      </trkpt>
      <trkpt lat="42.66687" lon="-0.58738">
        <ele>1159</ele>
        <time>2018-12-27T00:57:26Z</time>
      </trkpt>
      <trkpt lat="42.66676" lon="-0.58743">
        <ele>1158</ele>
        <time>2018-12-27T00:57:29Z</time>
      </trkpt>
      <trkpt lat="42.66657" lon="-0.58749">
        <ele>1159</ele>
        <time>2018-12-27T00:57:34Z</time>
      </trkpt>
      <trkpt lat="42.66634" lon="-0.58766">
        <ele>1157</ele>
        <time>2018-12-27T00:57:41Z</time>
      </trkpt>
      <trkpt lat="42.66618" lon="-0.58784">
        <ele>1153</ele>
        <time>2018-12-27T00:57:47Z</time>
      </trkpt>
      <trkpt lat="42.6661" lon="-0.58788">
        <ele>1152</ele>
        <time>2018-12-27T00:57:49Z</time>
      </trkpt>
      <trkpt lat="42.66601" lon="-0.58787">
        <ele>1151</ele>
        <time>2018-12-27T00:57:52Z</time>
      </trkpt>
      <trkpt lat="42.66582" lon="-0.58781">
        <ele>1149</ele>
        <time>2018-12-27T00:57:57Z</time>
      </trkpt>
      <trkpt lat="42.6654" lon="-0.58742">
        <ele>1145</ele>
        <time>2018-12-27T00:58:10Z</time>
      </trkpt>
      <trkpt lat="42.66533" lon="-0.58732">
        <ele>1147</ele>
        <time>2018-12-27T00:58:13Z</time>
      </trkpt>
      <trkpt lat="42.66521" lon="-0.58722">
        <ele>1148</ele>
        <time>2018-12-27T00:58:17Z</time>
      </trkpt>
      <trkpt lat="42.66508" lon="-0.58715">
        <ele>1147</ele>
        <time>2018-12-27T00:58:20Z</time>
      </trkpt>
      <trkpt lat="42.66502" lon="-0.58709">
        <ele>1148</ele>
        <time>2018-12-27T00:58:23Z</time>
      </trkpt>
      <trkpt lat="42.66494" lon="-0.58707">
        <ele>1147</ele>
        <time>2018-12-27T00:58:25Z</time>
      </trkpt>
      <trkpt lat="42.66488" lon="-0.58702">
        <ele>1147</ele>
        <time>2018-12-27T00:58:26Z</time>
      </trkpt>
      <trkpt lat="42.6647" lon="-0.58698">
        <ele>1144</ele>
        <time>2018-12-27T00:58:31Z</time>
      </trkpt>
      <trkpt lat="42.66454" lon="-0.58705">
        <ele>1140</ele>
        <time>2018-12-27T00:58:36Z</time>
      </trkpt>
      <trkpt lat="42.66437" lon="-0.58708">
        <ele>1136</ele>
        <time>2018-12-27T00:58:41Z</time>
      </trkpt>
      <trkpt lat="42.66425" lon="-0.58706">
        <ele>1135</ele>
        <time>2018-12-27T00:58:44Z</time>
      </trkpt>
      <trkpt lat="42.66401" lon="-0.58705">
        <ele>1131</ele>
        <time>2018-12-27T00:58:50Z</time>
      </trkpt>
      <trkpt lat="42.66385" lon="-0.58698">
        <ele>1131</ele>
        <time>2018-12-27T00:58:55Z</time>
      </trkpt>
      <trkpt lat="42.66364" lon="-0.58697">
        <ele>1126</ele>
        <time>2018-12-27T00:59:00Z</time>
      </trkpt>
      <trkpt lat="42.66355" lon="-0.58692">
        <ele>1124</ele>
        <time>2018-12-27T00:59:03Z</time>
      </trkpt>
      <trkpt lat="42.66346" lon="-0.5868">
        <ele>1123</ele>
        <time>2018-12-27T00:59:06Z</time>
      </trkpt>
      <trkpt lat="42.66326" lon="-0.58664">
        <ele>1120</ele>
        <time>2018-12-27T00:59:12Z</time>
      </trkpt>
      <trkpt lat="42.66306" lon="-0.58654">
        <ele>1116</ele>
        <time>2018-12-27T00:59:18Z</time>
      </trkpt>
      <trkpt lat="42.66292" lon="-0.58648">
        <ele>1115</ele>
        <time>2018-12-27T00:59:22Z</time>
      </trkpt>
      <trkpt lat="42.6625" lon="-0.58648">
        <ele>1104</ele>
        <time>2018-12-27T00:59:33Z</time>
      </trkpt>
      <trkpt lat="42.6624" lon="-0.58643">
        <ele>1101</ele>
        <time>2018-12-27T00:59:36Z</time>
      </trkpt>
      <trkpt lat="42.66235" lon="-0.58643">
        <ele>1100</ele>
        <time>2018-12-27T00:59:37Z</time>
      </trkpt>
      <trkpt lat="42.66225" lon="-0.58653">
        <ele>1095</ele>
        <time>2018-12-27T00:59:41Z</time>
      </trkpt>
      <trkpt lat="42.66214" lon="-0.58657">
        <ele>1091</ele>
        <time>2018-12-27T00:59:43Z</time>
      </trkpt>
      <trkpt lat="42.66211" lon="-0.58661">
        <ele>1090</ele>
        <time>2018-12-27T00:59:45Z</time>
      </trkpt>
      <trkpt lat="42.66205" lon="-0.58659">
        <ele>1089</ele>
        <time>2018-12-27T00:59:46Z</time>
      </trkpt>
      <trkpt lat="42.66199" lon="-0.5866">
        <ele>1087</ele>
        <time>2018-12-27T00:59:48Z</time>
      </trkpt>
      <trkpt lat="42.6619" lon="-0.58675">
        <ele>1083</ele>
        <time>2018-12-27T00:59:52Z</time>
      </trkpt>
      <trkpt lat="42.66187" lon="-0.58676">
        <ele>1082</ele>
        <time>2018-12-27T00:59:52Z</time>
      </trkpt>
      <trkpt lat="42.66179" lon="-0.58675">
        <ele>1081</ele>
        <time>2018-12-27T00:59:55Z</time>
      </trkpt>
      <trkpt lat="42.6617" lon="-0.58671">
        <ele>1081</ele>
        <time>2018-12-27T00:59:57Z</time>
      </trkpt>
      <trkpt lat="42.66156" lon="-0.58676">
        <ele>1079</ele>
        <time>2018-12-27T01:00:01Z</time>
      </trkpt>
      <trkpt lat="42.66149" lon="-0.58685">
        <ele>1077</ele>
        <time>2018-12-27T01:00:04Z</time>
      </trkpt>
      <trkpt lat="42.66131" lon="-0.58699">
        <ele>1074</ele>
        <time>2018-12-27T01:00:09Z</time>
      </trkpt>
      <trkpt lat="42.66112" lon="-0.5871">
        <ele>1069</ele>
        <time>2018-12-27T01:00:15Z</time>
      </trkpt>
      <trkpt lat="42.66092" lon="-0.58727">
        <ele>1062</ele>
        <time>2018-12-27T01:00:21Z</time>
      </trkpt>
      <trkpt lat="42.66076" lon="-0.58739">
        <ele>1058</ele>
        <time>2018-12-27T01:00:26Z</time>
      </trkpt>
      <trkpt lat="42.66056" lon="-0.58745">
        <ele>1054</ele>
        <time>2018-12-27T01:00:31Z</time>
      </trkpt>
      <trkpt lat="42.66048" lon="-0.58744">
        <ele>1051</ele>
        <time>2018-12-27T01:00:34Z</time>
      </trkpt>
      <trkpt lat="42.66029" lon="-0.58745">
        <ele>1044</ele>
        <time>2018-12-27T01:00:39Z</time>
      </trkpt>
      <trkpt lat="42.66021" lon="-0.58741">
        <ele>1041</ele>
        <time>2018-12-27T01:00:41Z</time>
      </trkpt>
      <trkpt lat="42.66013" lon="-0.58747">
        <ele>1039</ele>
        <time>2018-12-27T01:00:43Z</time>
      </trkpt>
      <trkpt lat="42.65998" lon="-0.58763">
        <ele>1035</ele>
        <time>2018-12-27T01:00:48Z</time>
      </trkpt>
      <trkpt lat="42.6598" lon="-0.58775">
        <ele>1031</ele>
        <time>2018-12-27T01:00:54Z</time>
      </trkpt>
      <trkpt lat="42.65951" lon="-0.58789">
        <ele>1022</ele>
        <time>2018-12-27T01:01:02Z</time>
      </trkpt>
      <trkpt lat="42.65928" lon="-0.58803">
        <ele>1015</ele>
        <time>2018-12-27T01:01:09Z</time>
      </trkpt>
      <trkpt lat="42.65909" lon="-0.58803">
        <ele>1011</ele>
        <time>2018-12-27T01:01:14Z</time>
      </trkpt>
      <trkpt lat="42.65904" lon="-0.58811">
        <ele>1009</ele>
        <time>2018-12-27T01:01:16Z</time>
      </trkpt>
      <trkpt lat="42.65904" lon="-0.58815">
        <ele>1008</ele>
        <time>2018-12-27T01:01:17Z</time>
      </trkpt>
      <trkpt lat="42.65913" lon="-0.58836">
        <ele>1007</ele>
        <time>2018-12-27T01:01:21Z</time>
      </trkpt>
      <trkpt lat="42.65895" lon="-0.5883">
        <ele>1004</ele>
        <time>2018-12-27T01:01:27Z</time>
      </trkpt>
      <trkpt lat="42.65883" lon="-0.58836">
        <ele>1001</ele>
        <time>2018-12-27T01:01:30Z</time>
      </trkpt>
      <trkpt lat="42.65864" lon="-0.58838">
        <ele>996</ele>
        <time>2018-12-27T01:01:35Z</time>
      </trkpt>
      <trkpt lat="42.65856" lon="-0.58844">
        <ele>994</ele>
        <time>2018-12-27T01:01:37Z</time>
      </trkpt>
      <trkpt lat="42.65853" lon="-0.58843">
        <ele>993</ele>
        <time>2018-12-27T01:01:38Z</time>
      </trkpt>
      <trkpt lat="42.65849" lon="-0.5884">
        <ele>993</ele>
        <time>2018-12-27T01:01:39Z</time>
      </trkpt>
      <trkpt lat="42.65845" lon="-0.5883">
        <ele>993</ele>
        <time>2018-12-27T01:01:42Z</time>
      </trkpt>
      <trkpt lat="42.65829" lon="-0.58812">
        <ele>991</ele>
        <time>2018-12-27T01:01:47Z</time>
      </trkpt>
      <trkpt lat="42.65821" lon="-0.58785">
        <ele>990</ele>
        <time>2018-12-27T01:01:53Z</time>
      </trkpt>
      <trkpt lat="42.6582" lon="-0.58776">
        <ele>990</ele>
        <time>2018-12-27T01:01:55Z</time>
      </trkpt>
      <trkpt lat="42.65823" lon="-0.58767">
        <ele>990</ele>
        <time>2018-12-27T01:01:57Z</time>
      </trkpt>
      <trkpt lat="42.65826" lon="-0.58766">
        <ele>990</ele>
        <time>2018-12-27T01:01:57Z</time>
      </trkpt>
      <trkpt lat="42.65829" lon="-0.58759">
        <ele>990</ele>
        <time>2018-12-27T01:01:59Z</time>
      </trkpt>
      <trkpt lat="42.65833" lon="-0.58758">
        <ele>991</ele>
        <time>2018-12-27T01:02:00Z</time>
      </trkpt>
      <trkpt lat="42.65834" lon="-0.58755">
        <ele>991</ele>
        <time>2018-12-27T01:02:01Z</time>
      </trkpt>
      <trkpt lat="42.65831" lon="-0.58757">
        <ele>990</ele>
        <time>2018-12-27T01:02:01Z</time>
      </trkpt>
      <trkpt lat="42.65828" lon="-0.58754">
        <ele>990</ele>
        <time>2018-12-27T01:02:02Z</time>
      </trkpt>
      <trkpt lat="42.65821" lon="-0.58758">
        <ele>989</ele>
        <time>2018-12-27T01:02:04Z</time>
      </trkpt>
      <trkpt lat="42.65819" lon="-0.58757">
        <ele>989</ele>
        <time>2018-12-27T01:02:05Z</time>
      </trkpt>
      <trkpt lat="42.65822" lon="-0.58756">
        <ele>989</ele>
        <time>2018-12-27T01:02:06Z</time>
      </trkpt>
      <trkpt lat="42.65819" lon="-0.58756">
        <ele>989</ele>
        <time>2018-12-27T01:02:06Z</time>
      </trkpt>
      <trkpt lat="42.65822" lon="-0.58758">
        <ele>989</ele>
        <time>2018-12-27T01:02:07Z</time>
      </trkpt>
      <trkpt lat="42.65823" lon="-0.58755">
        <ele>990</ele>
        <time>2018-12-27T01:02:08Z</time>
      </trkpt>
      <trkpt lat="42.65823" lon="-0.58756">
        <ele>990</ele>
        <time>2018-12-27T01:02:08Z</time>
      </trkpt>
      <trkpt lat="42.65827" lon="-0.58753">
        <ele>990</ele>
        <time>2018-12-27T01:02:09Z</time>
      </trkpt>
      <trkpt lat="42.65822" lon="-0.58753">
        <ele>989</ele>
        <time>2018-12-27T01:02:11Z</time>
      </trkpt>
      <trkpt lat="42.65807" lon="-0.58757">
        <ele>988</ele>
        <time>2018-12-27T01:02:15Z</time>
      </trkpt>
      <trkpt lat="42.65803" lon="-0.58762">
        <ele>987</ele>
        <time>2018-12-27T01:02:16Z</time>
      </trkpt>
      <trkpt lat="42.65812" lon="-0.58765">
        <ele>988</ele>
        <time>2018-12-27T01:02:19Z</time>
      </trkpt>
      <trkpt lat="42.65811" lon="-0.58767">
        <ele>988</ele>
        <time>2018-12-27T01:02:19Z</time>
      </trkpt>
      <trkpt lat="42.65812" lon="-0.58767">
        <ele>988</ele>
        <time>2018-12-27T01:02:19Z</time>
      </trkpt>
      <trkpt lat="42.65825" lon="-0.58754">
        <ele>990</ele>
        <time>2018-12-27T01:02:24Z</time>
      </trkpt>
      <trkpt lat="42.65861" lon="-0.58746">
        <ele>993</ele>
        <time>2018-12-27T01:02:33Z</time>
      </trkpt>
      <trkpt lat="42.65855" lon="-0.58745">
        <ele>993</ele>
        <time>2018-12-27T01:02:35Z</time>
      </trkpt>
      <trkpt lat="42.65861" lon="-0.58742">
        <ele>993</ele>
        <time>2018-12-27T01:02:37Z</time>
      </trkpt>
      <trkpt lat="42.65845" lon="-0.5875">
        <ele>992</ele>
        <time>2018-12-27T01:02:41Z</time>
      </trkpt>
      <trkpt lat="42.65825" lon="-0.58756">
        <ele>990</ele>
        <time>2018-12-27T01:02:47Z</time>
      </trkpt>
      <trkpt lat="42.65814" lon="-0.58755">
        <ele>988</ele>
        <time>2018-12-27T01:02:50Z</time>
      </trkpt>
      <trkpt lat="42.65816" lon="-0.58754">
        <ele>989</ele>
        <time>2018-12-27T01:02:50Z</time>
      </trkpt>
      <trkpt lat="42.65825" lon="-0.58753">
        <ele>990</ele>
        <time>2018-12-27T01:02:53Z</time>
      </trkpt>
      <trkpt lat="42.65822" lon="-0.5875">
        <ele>989</ele>
        <time>2018-12-27T01:02:54Z</time>
      </trkpt>
      <trkpt lat="42.65818" lon="-0.58751">
        <ele>989</ele>
        <time>2018-12-27T01:02:55Z</time>
      </trkpt>
      <trkpt lat="42.65822" lon="-0.58754">
        <ele>989</ele>
        <time>2018-12-27T01:02:56Z</time>
      </trkpt>
      <trkpt lat="42.65826" lon="-0.58753">
        <ele>990</ele>
        <time>2018-12-27T01:02:57Z</time>
      </trkpt>
      <trkpt lat="42.65828" lon="-0.58749">
        <ele>990</ele>
        <time>2018-12-27T01:02:58Z</time>
      </trkpt>
      <trkpt lat="42.65825" lon="-0.58749">
        <ele>990</ele>
        <time>2018-12-27T01:02:59Z</time>
      </trkpt>
      <trkpt lat="42.65822" lon="-0.58754">
        <ele>989</ele>
        <time>2018-12-27T01:03:00Z</time>
      </trkpt>
      <trkpt lat="42.65825" lon="-0.58759">
        <ele>990</ele>
        <time>2018-12-27T01:03:01Z</time>
      </trkpt>
      <trkpt lat="42.65824" lon="-0.58764">
        <ele>990</ele>
        <time>2018-12-27T01:03:02Z</time>
      </trkpt>
      <trkpt lat="42.65822" lon="-0.58743">
        <ele>989</ele>
        <time>2018-12-27T01:03:06Z</time>
      </trkpt>
      <trkpt lat="42.65823" lon="-0.58751">
        <ele>989</ele>
        <time>2018-12-27T01:03:08Z</time>
      </trkpt>
      <trkpt lat="42.65831" lon="-0.58751">
        <ele>990</ele>
        <time>2018-12-27T01:03:10Z</time>
      </trkpt>
      <trkpt lat="42.65835" lon="-0.58749">
        <ele>991</ele>
        <time>2018-12-27T01:03:11Z</time>
      </trkpt>
      <trkpt lat="42.65827" lon="-0.58749">
        <ele>990</ele>
        <time>2018-12-27T01:03:13Z</time>
      </trkpt>
      <trkpt lat="42.65828" lon="-0.58753">
        <ele>990</ele>
        <time>2018-12-27T01:03:14Z</time>
      </trkpt>
      <trkpt lat="42.65825" lon="-0.58756">
        <ele>990</ele>
        <time>2018-12-27T01:03:15Z</time>
      </trkpt>
      <trkpt lat="42.65822" lon="-0.58753">
        <ele>989</ele>
        <time>2018-12-27T01:03:16Z</time>
      </trkpt>
      <trkpt lat="42.65819" lon="-0.58753">
        <ele>989</ele>
        <time>2018-12-27T01:03:17Z</time>
      </trkpt>
      <trkpt lat="42.65818" lon="-0.5875">
        <ele>989</ele>
        <time>2018-12-27T01:03:18Z</time>
      </trkpt>
      <trkpt lat="42.6583" lon="-0.58755">
        <ele>990</ele>
        <time>2018-12-27T01:03:21Z</time>
      </trkpt>
      <trkpt lat="42.65817" lon="-0.5875">
        <ele>989</ele>
        <time>2018-12-27T01:03:24Z</time>
      </trkpt>
      <trkpt lat="42.65818" lon="-0.58749">
        <ele>989</ele>
        <time>2018-12-27T01:03:25Z</time>
      </trkpt>
      <trkpt lat="42.65821" lon="-0.58752">
        <ele>989</ele>
        <time>2018-12-27T01:03:26Z</time>
      </trkpt>
      <trkpt lat="42.6582" lon="-0.58757">
        <ele>989</ele>
        <time>2018-12-27T01:03:27Z</time>
      </trkpt>
      <trkpt lat="42.65822" lon="-0.58759">
        <ele>989</ele>
        <time>2018-12-27T01:03:27Z</time>
      </trkpt>
      <trkpt lat="42.65824" lon="-0.58758">
        <ele>990</ele>
        <time>2018-12-27T01:03:28Z</time>
      </trkpt>
      <trkpt lat="42.65824" lon="-0.58756">
        <ele>990</ele>
        <time>2018-12-27T01:03:28Z</time>
      </trkpt>
      <trkpt lat="42.65825" lon="-0.58761">
        <ele>990</ele>
        <time>2018-12-27T01:03:29Z</time>
      </trkpt>
      <trkpt lat="42.65824" lon="-0.58764">
        <ele>990</ele>
        <time>2018-12-27T01:03:30Z</time>
      </trkpt>
      <trkpt lat="42.65819" lon="-0.58768">
        <ele>989</ele>
        <time>2018-12-27T01:03:32Z</time>
      </trkpt>
      <trkpt lat="42.65812" lon="-0.58762">
        <ele>988</ele>
        <time>2018-12-27T01:03:34Z</time>
      </trkpt>
      <trkpt lat="42.65804" lon="-0.5876">
        <ele>987</ele>
        <time>2018-12-27T01:03:36Z</time>
      </trkpt>
      <trkpt lat="42.65798" lon="-0.58753">
        <ele>987</ele>
        <time>2018-12-27T01:03:38Z</time>
      </trkpt>
      <trkpt lat="42.65792" lon="-0.58743">
        <ele>987</ele>
        <time>2018-12-27T01:03:41Z</time>
      </trkpt>
      <trkpt lat="42.65792" lon="-0.58741">
        <ele>987</ele>
        <time>2018-12-27T01:03:41Z</time>
      </trkpt>
      <trkpt lat="42.65779" lon="-0.5872">
        <ele>988</ele>
        <time>2018-12-27T01:03:46Z</time>
      </trkpt>
      <trkpt lat="42.65773" lon="-0.58712">
        <ele>988</ele>
        <time>2018-12-27T01:03:49Z</time>
      </trkpt>
      <trkpt lat="42.65765" lon="-0.58701">
        <ele>988</ele>
        <time>2018-12-27T01:03:52Z</time>
      </trkpt>
      <trkpt lat="42.65759" lon="-0.58672">
        <ele>991</ele>
        <time>2018-12-27T01:03:58Z</time>
      </trkpt>
      <trkpt lat="42.65755" lon="-0.58659">
        <ele>992</ele>
        <time>2018-12-27T01:04:00Z</time>
      </trkpt>
      <trkpt lat="42.65748" lon="-0.58649">
        <ele>994</ele>
        <time>2018-12-27T01:04:03Z</time>
      </trkpt>
      <trkpt lat="42.65743" lon="-0.58633">
        <ele>998</ele>
        <time>2018-12-27T01:04:06Z</time>
      </trkpt>
      <trkpt lat="42.6574" lon="-0.58612">
        <ele>1005</ele>
        <time>2018-12-27T01:04:11Z</time>
      </trkpt>
      <trkpt lat="42.65752" lon="-0.58621">
        <ele>1005</ele>
        <time>2018-12-27T01:04:14Z</time>
      </trkpt>
      <trkpt lat="42.6576" lon="-0.58631">
        <ele>1001</ele>
        <time>2018-12-27T01:04:17Z</time>
      </trkpt>
      <trkpt lat="42.65765" lon="-0.58637">
        <ele>1000</ele>
        <time>2018-12-27T01:04:19Z</time>
      </trkpt>
      <trkpt lat="42.65774" lon="-0.5865">
        <ele>998</ele>
        <time>2018-12-27T01:04:22Z</time>
      </trkpt>
      <trkpt lat="42.65779" lon="-0.58655">
        <ele>997</ele>
        <time>2018-12-27T01:04:24Z</time>
      </trkpt>
      <trkpt lat="42.65781" lon="-0.58653">
        <ele>998</ele>
        <time>2018-12-27T01:04:25Z</time>
      </trkpt>
      <trkpt lat="42.65778" lon="-0.58647">
        <ele>999</ele>
        <time>2018-12-27T01:04:26Z</time>
      </trkpt>
      <trkpt lat="42.65774" lon="-0.58622">
        <ele>1008</ele>
        <time>2018-12-27T01:04:31Z</time>
      </trkpt>
      <trkpt lat="42.65775" lon="-0.58603">
        <ele>1015</ele>
        <time>2018-12-27T01:04:35Z</time>
      </trkpt>
      <trkpt lat="42.65779" lon="-0.58608">
        <ele>1013</ele>
        <time>2018-12-27T01:04:36Z</time>
      </trkpt>
      <trkpt lat="42.65783" lon="-0.58608">
        <ele>1013</ele>
        <time>2018-12-27T01:04:38Z</time>
      </trkpt>
      <trkpt lat="42.6579" lon="-0.58605">
        <ele>1015</ele>
        <time>2018-12-27T01:04:40Z</time>
      </trkpt>
      <trkpt lat="42.65794" lon="-0.58599">
        <ele>1016</ele>
        <time>2018-12-27T01:04:41Z</time>
      </trkpt>
      <trkpt lat="42.65788" lon="-0.58593">
        <ele>1018</ele>
        <time>2018-12-27T01:04:43Z</time>
      </trkpt>
      <trkpt lat="42.65786" lon="-0.58587">
        <ele>1020</ele>
        <time>2018-12-27T01:04:44Z</time>
      </trkpt>
      <trkpt lat="42.65792" lon="-0.58582">
        <ele>1022</ele>
        <time>2018-12-27T01:04:46Z</time>
      </trkpt>
      <trkpt lat="42.65794" lon="-0.58576">
        <ele>1024</ele>
        <time>2018-12-27T01:04:47Z</time>
      </trkpt>
      <trkpt lat="42.65784" lon="-0.58541">
        <ele>1037</ele>
        <time>2018-12-27T01:04:55Z</time>
      </trkpt>
      <trkpt lat="42.65791" lon="-0.58535">
        <ele>1040</ele>
        <time>2018-12-27T01:04:57Z</time>
      </trkpt>
      <trkpt lat="42.65803" lon="-0.58531">
        <ele>1042</ele>
        <time>2018-12-27T01:05:00Z</time>
      </trkpt>
      <trkpt lat="42.6581" lon="-0.58527">
        <ele>1044</ele>
        <time>2018-12-27T01:05:02Z</time>
      </trkpt>
      <trkpt lat="42.65801" lon="-0.58512">
        <ele>1049</ele>
        <time>2018-12-27T01:05:06Z</time>
      </trkpt>
      <trkpt lat="42.65814" lon="-0.58499">
        <ele>1053</ele>
        <time>2018-12-27T01:05:10Z</time>
      </trkpt>
      <trkpt lat="42.65815" lon="-0.58496">
        <ele>1054</ele>
        <time>2018-12-27T01:05:11Z</time>
      </trkpt>
      <trkpt lat="42.65809" lon="-0.58475">
        <ele>1061</ele>
        <time>2018-12-27T01:05:15Z</time>
      </trkpt>
      <trkpt lat="42.65806" lon="-0.58455">
        <ele>1068</ele>
        <time>2018-12-27T01:05:19Z</time>
      </trkpt>
      <trkpt lat="42.65808" lon="-0.58452">
        <ele>1069</ele>
        <time>2018-12-27T01:05:20Z</time>
      </trkpt>
      <trkpt lat="42.65808" lon="-0.58448">
        <ele>1070</ele>
        <time>2018-12-27T01:05:21Z</time>
      </trkpt>
      <trkpt lat="42.65805" lon="-0.58437">
        <ele>1073</ele>
        <time>2018-12-27T01:05:23Z</time>
      </trkpt>
      <trkpt lat="42.65805" lon="-0.58432">
        <ele>1074</ele>
        <time>2018-12-27T01:05:24Z</time>
      </trkpt>
      <trkpt lat="42.65809" lon="-0.58421">
        <ele>1077</ele>
        <time>2018-12-27T01:05:27Z</time>
      </trkpt>
      <trkpt lat="42.65807" lon="-0.58417">
        <ele>1078</ele>
        <time>2018-12-27T01:05:27Z</time>
      </trkpt>
      <trkpt lat="42.65811" lon="-0.58412">
        <ele>1079</ele>
        <time>2018-12-27T01:05:29Z</time>
      </trkpt>
      <trkpt lat="42.6581" lon="-0.58408">
        <ele>1080</ele>
        <time>2018-12-27T01:05:30Z</time>
      </trkpt>
      <trkpt lat="42.65812" lon="-0.58404">
        <ele>1081</ele>
        <time>2018-12-27T01:05:31Z</time>
      </trkpt>
      <trkpt lat="42.65809" lon="-0.58395">
        <ele>1083</ele>
        <time>2018-12-27T01:05:32Z</time>
      </trkpt>
      <trkpt lat="42.65817" lon="-0.58354">
        <ele>1091</ele>
        <time>2018-12-27T01:05:41Z</time>
      </trkpt>
      <trkpt lat="42.65822" lon="-0.58334">
        <ele>1095</ele>
        <time>2018-12-27T01:05:45Z</time>
      </trkpt>
      <trkpt lat="42.65853" lon="-0.58257">
        <ele>1106</ele>
        <time>2018-12-27T01:06:02Z</time>
      </trkpt>
      <trkpt lat="42.65858" lon="-0.58233">
        <ele>1108</ele>
        <time>2018-12-27T01:06:07Z</time>
      </trkpt>
      <trkpt lat="42.65876" lon="-0.58176">
        <ele>1114</ele>
        <time>2018-12-27T01:06:19Z</time>
      </trkpt>
      <trkpt lat="42.65888" lon="-0.58155">
        <ele>1118</ele>
        <time>2018-12-27T01:06:25Z</time>
      </trkpt>
      <trkpt lat="42.65896" lon="-0.58148">
        <ele>1119</ele>
        <time>2018-12-27T01:06:27Z</time>
      </trkpt>
      <trkpt lat="42.65907" lon="-0.58129">
        <ele>1123</ele>
        <time>2018-12-27T01:06:32Z</time>
      </trkpt>
      <trkpt lat="42.65911" lon="-0.5812">
        <ele>1125</ele>
        <time>2018-12-27T01:06:34Z</time>
      </trkpt>
      <trkpt lat="42.65899" lon="-0.58077">
        <ele>1124</ele>
        <time>2018-12-27T01:06:43Z</time>
      </trkpt>
      <trkpt lat="42.65898" lon="-0.58069">
        <ele>1124</ele>
        <time>2018-12-27T01:06:44Z</time>
      </trkpt>
      <trkpt lat="42.65903" lon="-0.58034">
        <ele>1129</ele>
        <time>2018-12-27T01:06:51Z</time>
      </trkpt>
      <trkpt lat="42.65913" lon="-0.58003">
        <ele>1135</ele>
        <time>2018-12-27T01:06:58Z</time>
      </trkpt>
      <trkpt lat="42.65914" lon="-0.57994">
        <ele>1136</ele>
        <time>2018-12-27T01:07:00Z</time>
      </trkpt>
      <trkpt lat="42.65912" lon="-0.57965">
        <ele>1138</ele>
        <time>2018-12-27T01:07:06Z</time>
      </trkpt>
      <trkpt lat="42.65913" lon="-0.57924">
        <ele>1144</ele>
        <time>2018-12-27T01:07:14Z</time>
      </trkpt>
      <trkpt lat="42.65898" lon="-0.57864">
        <ele>1154</ele>
        <time>2018-12-27T01:07:26Z</time>
      </trkpt>
      <trkpt lat="42.65891" lon="-0.57844">
        <ele>1157</ele>
        <time>2018-12-27T01:07:30Z</time>
      </trkpt>
      <trkpt lat="42.65884" lon="-0.57832">
        <ele>1158</ele>
        <time>2018-12-27T01:07:33Z</time>
      </trkpt>
      <trkpt lat="42.6588" lon="-0.57819">
        <ele>1160</ele>
        <time>2018-12-27T01:07:36Z</time>
      </trkpt>
      <trkpt lat="42.65868" lon="-0.57789">
        <ele>1162</ele>
        <time>2018-12-27T01:07:43Z</time>
      </trkpt>
      <trkpt lat="42.65855" lon="-0.57766">
        <ele>1163</ele>
        <time>2018-12-27T01:07:49Z</time>
      </trkpt>
      <trkpt lat="42.6585" lon="-0.57752">
        <ele>1166</ele>
        <time>2018-12-27T01:07:52Z</time>
      </trkpt>
      <trkpt lat="42.65834" lon="-0.57729">
        <ele>1166</ele>
        <time>2018-12-27T01:07:58Z</time>
      </trkpt>
      <trkpt lat="42.65833" lon="-0.57724">
        <ele>1167</ele>
        <time>2018-12-27T01:07:59Z</time>
      </trkpt>
      <trkpt lat="42.65838" lon="-0.57723">
        <ele>1168</ele>
        <time>2018-12-27T01:08:00Z</time>
      </trkpt>
      <trkpt lat="42.65845" lon="-0.57729">
        <ele>1169</ele>
        <time>2018-12-27T01:08:02Z</time>
      </trkpt>
      <trkpt lat="42.65902" lon="-0.57778">
        <ele>1175</ele>
        <time>2018-12-27T01:08:20Z</time>
      </trkpt>
      <trkpt lat="42.65917" lon="-0.57794">
        <ele>1177</ele>
        <time>2018-12-27T01:08:25Z</time>
      </trkpt>
      <trkpt lat="42.65951" lon="-0.57836">
        <ele>1181</ele>
        <time>2018-12-27T01:08:37Z</time>
      </trkpt>
      <trkpt lat="42.65974" lon="-0.57868">
        <ele>1184</ele>
        <time>2018-12-27T01:08:46Z</time>
      </trkpt>
      <trkpt lat="42.65985" lon="-0.57888">
        <ele>1184</ele>
        <time>2018-12-27T01:08:51Z</time>
      </trkpt>
      <trkpt lat="42.66007" lon="-0.57933">
        <ele>1182</ele>
        <time>2018-12-27T01:09:02Z</time>
      </trkpt>
      <trkpt lat="42.66012" lon="-0.57939">
        <ele>1181</ele>
        <time>2018-12-27T01:09:03Z</time>
      </trkpt>
      <trkpt lat="42.66017" lon="-0.57944">
        <ele>1181</ele>
        <time>2018-12-27T01:09:05Z</time>
      </trkpt>
      <trkpt lat="42.66028" lon="-0.57949">
        <ele>1182</ele>
        <time>2018-12-27T01:09:08Z</time>
      </trkpt>
      <trkpt lat="42.66036" lon="-0.5795">
        <ele>1183</ele>
        <time>2018-12-27T01:09:10Z</time>
      </trkpt>
      <trkpt lat="42.66046" lon="-0.57949">
        <ele>1185</ele>
        <time>2018-12-27T01:09:13Z</time>
      </trkpt>
      <trkpt lat="42.66061" lon="-0.57941">
        <ele>1187</ele>
        <time>2018-12-27T01:09:17Z</time>
      </trkpt>
      <trkpt lat="42.66089" lon="-0.57922">
        <ele>1191</ele>
        <time>2018-12-27T01:09:26Z</time>
      </trkpt>
      <trkpt lat="42.66148" lon="-0.57864">
        <ele>1194</ele>
        <time>2018-12-27T01:09:45Z</time>
      </trkpt>
      <trkpt lat="42.66164" lon="-0.57853">
        <ele>1193</ele>
        <time>2018-12-27T01:09:50Z</time>
      </trkpt>
      <trkpt lat="42.66182" lon="-0.57846">
        <ele>1194</ele>
        <time>2018-12-27T01:09:55Z</time>
      </trkpt>
      <trkpt lat="42.66196" lon="-0.57836">
        <ele>1196</ele>
        <time>2018-12-27T01:09:59Z</time>
      </trkpt>
      <trkpt lat="42.66204" lon="-0.57828">
        <ele>1197</ele>
        <time>2018-12-27T01:10:02Z</time>
      </trkpt>
      <trkpt lat="42.66209" lon="-0.57821">
        <ele>1198</ele>
        <time>2018-12-27T01:10:04Z</time>
      </trkpt>
      <trkpt lat="42.66212" lon="-0.57818">
        <ele>1198</ele>
        <time>2018-12-27T01:10:05Z</time>
      </trkpt>
      <trkpt lat="42.66214" lon="-0.57816">
        <ele>1199</ele>
        <time>2018-12-27T01:10:05Z</time>
      </trkpt>
      <trkpt lat="42.66238" lon="-0.57793">
        <ele>1199</ele>
        <time>2018-12-27T01:10:13Z</time>
      </trkpt>
      <trkpt lat="42.66246" lon="-0.57788">
        <ele>1198</ele>
        <time>2018-12-27T01:10:16Z</time>
      </trkpt>
      <trkpt lat="42.66256" lon="-0.57778">
        <ele>1198</ele>
        <time>2018-12-27T01:10:19Z</time>
      </trkpt>
      <trkpt lat="42.66274" lon="-0.57758">
        <ele>1198</ele>
        <time>2018-12-27T01:10:25Z</time>
      </trkpt>
      <trkpt lat="42.663" lon="-0.57718">
        <ele>1199</ele>
        <time>2018-12-27T01:10:36Z</time>
      </trkpt>
      <trkpt lat="42.66328" lon="-0.57677">
        <ele>1199</ele>
        <time>2018-12-27T01:10:47Z</time>
      </trkpt>
      <trkpt lat="42.66352" lon="-0.5765">
        <ele>1202</ele>
        <time>2018-12-27T01:10:55Z</time>
      </trkpt>
      <trkpt lat="42.66373" lon="-0.57632">
        <ele>1202</ele>
        <time>2018-12-27T01:11:02Z</time>
      </trkpt>
      <trkpt lat="42.66384" lon="-0.57628">
        <ele>1201</ele>
        <time>2018-12-27T01:11:05Z</time>
      </trkpt>
      <trkpt lat="42.66404" lon="-0.57623">
        <ele>1200</ele>
        <time>2018-12-27T01:11:10Z</time>
      </trkpt>
      <trkpt lat="42.66438" lon="-0.57624">
        <ele>1200</ele>
        <time>2018-12-27T01:11:19Z</time>
      </trkpt>
      <trkpt lat="42.66451" lon="-0.57623">
        <ele>1200</ele>
        <time>2018-12-27T01:11:23Z</time>
      </trkpt>
      <trkpt lat="42.66461" lon="-0.5762">
        <ele>1200</ele>
        <time>2018-12-27T01:11:25Z</time>
      </trkpt>
      <trkpt lat="42.66491" lon="-0.57605">
        <ele>1202</ele>
        <time>2018-12-27T01:11:34Z</time>
      </trkpt>
      <trkpt lat="42.66509" lon="-0.57598">
        <ele>1202</ele>
        <time>2018-12-27T01:11:39Z</time>
      </trkpt>
      <trkpt lat="42.66541" lon="-0.57579">
        <ele>1202</ele>
        <time>2018-12-27T01:11:48Z</time>
      </trkpt>
      <trkpt lat="42.66574" lon="-0.57565">
        <ele>1201</ele>
        <time>2018-12-27T01:11:57Z</time>
      </trkpt>
      <trkpt lat="42.66593" lon="-0.57553">
        <ele>1202</ele>
        <time>2018-12-27T01:12:03Z</time>
      </trkpt>
      <trkpt lat="42.6662" lon="-0.57538">
        <ele>1203</ele>
        <time>2018-12-27T01:12:11Z</time>
      </trkpt>
      <trkpt lat="42.6665" lon="-0.57527">
        <ele>1205</ele>
        <time>2018-12-27T01:12:19Z</time>
      </trkpt>
      <trkpt lat="42.66677" lon="-0.57513">
        <ele>1208</ele>
        <time>2018-12-27T01:12:27Z</time>
      </trkpt>
      <trkpt lat="42.66706" lon="-0.57492">
        <ele>1209</ele>
        <time>2018-12-27T01:12:36Z</time>
      </trkpt>
      <trkpt lat="42.66713" lon="-0.57483">
        <ele>1209</ele>
        <time>2018-12-27T01:12:38Z</time>
      </trkpt>
      <trkpt lat="42.66718" lon="-0.57466">
        <ele>1210</ele>
        <time>2018-12-27T01:12:42Z</time>
      </trkpt>
      <trkpt lat="42.66734" lon="-0.57439">
        <ele>1211</ele>
        <time>2018-12-27T01:12:49Z</time>
      </trkpt>
      <trkpt lat="42.66753" lon="-0.57397">
        <ele>1213</ele>
        <time>2018-12-27T01:12:58Z</time>
      </trkpt>
      <trkpt lat="42.6676" lon="-0.57376">
        <ele>1213</ele>
        <time>2018-12-27T01:13:03Z</time>
      </trkpt>
      <trkpt lat="42.66777" lon="-0.57344">
        <ele>1216</ele>
        <time>2018-12-27T01:13:10Z</time>
      </trkpt>
      <trkpt lat="42.6678" lon="-0.57334">
        <ele>1215</ele>
        <time>2018-12-27T01:13:13Z</time>
      </trkpt>
      <trkpt lat="42.66777" lon="-0.57317">
        <ele>1212</ele>
        <time>2018-12-27T01:13:16Z</time>
      </trkpt>
      <trkpt lat="42.66773" lon="-0.57306">
        <ele>1209</ele>
        <time>2018-12-27T01:13:18Z</time>
      </trkpt>
      <trkpt lat="42.66772" lon="-0.57297">
        <ele>1209</ele>
        <time>2018-12-27T01:13:20Z</time>
      </trkpt>
      <trkpt lat="42.66764" lon="-0.57276">
        <ele>1203</ele>
        <time>2018-12-27T01:13:25Z</time>
      </trkpt>
      <trkpt lat="42.66764" lon="-0.57264">
        <ele>1203</ele>
        <time>2018-12-27T01:13:27Z</time>
      </trkpt>
      <trkpt lat="42.6676" lon="-0.5726">
        <ele>1201</ele>
        <time>2018-12-27T01:13:29Z</time>
      </trkpt>
      <trkpt lat="42.66759" lon="-0.57257">
        <ele>1200</ele>
        <time>2018-12-27T01:13:29Z</time>
      </trkpt>
      <trkpt lat="42.66757" lon="-0.57234">
        <ele>1198</ele>
        <time>2018-12-27T01:13:34Z</time>
      </trkpt>
      <trkpt lat="42.66752" lon="-0.57218">
        <ele>1195</ele>
        <time>2018-12-27T01:13:37Z</time>
      </trkpt>
      <trkpt lat="42.66751" lon="-0.57216">
        <ele>1195</ele>
        <time>2018-12-27T01:13:38Z</time>
      </trkpt>
      <trkpt lat="42.66747" lon="-0.57222">
        <ele>1194</ele>
        <time>2018-12-27T01:13:39Z</time>
      </trkpt>
      <trkpt lat="42.66742" lon="-0.57225">
        <ele>1193</ele>
        <time>2018-12-27T01:13:41Z</time>
      </trkpt>
      <trkpt lat="42.66737" lon="-0.57213">
        <ele>1190</ele>
        <time>2018-12-27T01:13:43Z</time>
      </trkpt>
      <trkpt lat="42.66738" lon="-0.57206">
        <ele>1189</ele>
        <time>2018-12-27T01:13:45Z</time>
      </trkpt>
      <trkpt lat="42.66736" lon="-0.57199">
        <ele>1188</ele>
        <time>2018-12-27T01:13:46Z</time>
      </trkpt>
      <trkpt lat="42.66735" lon="-0.57194">
        <ele>1187</ele>
        <time>2018-12-27T01:13:47Z</time>
      </trkpt>
      <trkpt lat="42.66733" lon="-0.57189">
        <ele>1185</ele>
        <time>2018-12-27T01:13:48Z</time>
      </trkpt>
      <trkpt lat="42.66728" lon="-0.57176">
        <ele>1181</ele>
        <time>2018-12-27T01:13:51Z</time>
      </trkpt>
      <trkpt lat="42.66723" lon="-0.57179">
        <ele>1181</ele>
        <time>2018-12-27T01:13:53Z</time>
      </trkpt>
      <trkpt lat="42.66712" lon="-0.57182">
        <ele>1177</ele>
        <time>2018-12-27T01:13:56Z</time>
      </trkpt>
      <trkpt lat="42.66709" lon="-0.57171">
        <ele>1175</ele>
        <time>2018-12-27T01:13:58Z</time>
      </trkpt>
      <trkpt lat="42.66709" lon="-0.57164">
        <ele>1174</ele>
        <time>2018-12-27T01:13:59Z</time>
      </trkpt>
      <trkpt lat="42.66705" lon="-0.57163">
        <ele>1172</ele>
        <time>2018-12-27T01:14:00Z</time>
      </trkpt>
      <trkpt lat="42.66696" lon="-0.57167">
        <ele>1170</ele>
        <time>2018-12-27T01:14:03Z</time>
      </trkpt>
      <trkpt lat="42.66689" lon="-0.57173">
        <ele>1168</ele>
        <time>2018-12-27T01:14:05Z</time>
      </trkpt>
      <trkpt lat="42.66686" lon="-0.57171">
        <ele>1167</ele>
        <time>2018-12-27T01:14:06Z</time>
      </trkpt>
      <trkpt lat="42.66686" lon="-0.57157">
        <ele>1165</ele>
        <time>2018-12-27T01:14:09Z</time>
      </trkpt>
      <trkpt lat="42.6668" lon="-0.57154">
        <ele>1163</ele>
        <time>2018-12-27T01:14:10Z</time>
      </trkpt>
      <trkpt lat="42.66678" lon="-0.57162">
        <ele>1163</ele>
        <time>2018-12-27T01:14:12Z</time>
      </trkpt>
      <trkpt lat="42.66674" lon="-0.57163">
        <ele>1162</ele>
        <time>2018-12-27T01:14:13Z</time>
      </trkpt>
      <trkpt lat="42.66666" lon="-0.57158">
        <ele>1160</ele>
        <time>2018-12-27T01:14:15Z</time>
      </trkpt>
      <trkpt lat="42.66665" lon="-0.57139">
        <ele>1157</ele>
        <time>2018-12-27T01:14:19Z</time>
      </trkpt>
      <trkpt lat="42.66663" lon="-0.57135">
        <ele>1156</ele>
        <time>2018-12-27T01:14:20Z</time>
      </trkpt>
      <trkpt lat="42.6666" lon="-0.57133">
        <ele>1155</ele>
        <time>2018-12-27T01:14:21Z</time>
      </trkpt>
      <trkpt lat="42.66655" lon="-0.57136">
        <ele>1154</ele>
        <time>2018-12-27T01:14:22Z</time>
      </trkpt>
      <trkpt lat="42.6665" lon="-0.57141">
        <ele>1154</ele>
        <time>2018-12-27T01:14:24Z</time>
      </trkpt>
      <trkpt lat="42.66649" lon="-0.57147">
        <ele>1154</ele>
        <time>2018-12-27T01:14:25Z</time>
      </trkpt>
      <trkpt lat="42.66639" lon="-0.5716">
        <ele>1152</ele>
        <time>2018-12-27T01:14:29Z</time>
      </trkpt>
      <trkpt lat="42.66624" lon="-0.57181">
        <ele>1147</ele>
        <time>2018-12-27T01:14:35Z</time>
      </trkpt>
      <trkpt lat="42.66619" lon="-0.57184">
        <ele>1145</ele>
        <time>2018-12-27T01:14:36Z</time>
      </trkpt>
      <trkpt lat="42.66616" lon="-0.57177">
        <ele>1144</ele>
        <time>2018-12-27T01:14:38Z</time>
      </trkpt>
      <trkpt lat="42.66605" lon="-0.57168">
        <ele>1140</ele>
        <time>2018-12-27T01:14:41Z</time>
      </trkpt>
      <trkpt lat="42.66592" lon="-0.57146">
        <ele>1135</ele>
        <time>2018-12-27T01:14:46Z</time>
      </trkpt>
      <trkpt lat="42.66587" lon="-0.57145">
        <ele>1133</ele>
        <time>2018-12-27T01:14:48Z</time>
      </trkpt>
      <trkpt lat="42.66585" lon="-0.57137">
        <ele>1132</ele>
        <time>2018-12-27T01:14:50Z</time>
      </trkpt>
      <trkpt lat="42.66583" lon="-0.57136">
        <ele>1131</ele>
        <time>2018-12-27T01:14:50Z</time>
      </trkpt>
      <trkpt lat="42.6658" lon="-0.57136">
        <ele>1130</ele>
        <time>2018-12-27T01:14:51Z</time>
      </trkpt>
      <trkpt lat="42.6658" lon="-0.5714">
        <ele>1130</ele>
        <time>2018-12-27T01:14:52Z</time>
      </trkpt>
      <trkpt lat="42.66574" lon="-0.57128">
        <ele>1126</ele>
        <time>2018-12-27T01:14:54Z</time>
      </trkpt>
      <trkpt lat="42.66569" lon="-0.57107">
        <ele>1123</ele>
        <time>2018-12-27T01:14:59Z</time>
      </trkpt>
      <trkpt lat="42.66565" lon="-0.57108">
        <ele>1121</ele>
        <time>2018-12-27T01:15:00Z</time>
      </trkpt>
      <trkpt lat="42.66559" lon="-0.57114">
        <ele>1120</ele>
        <time>2018-12-27T01:15:02Z</time>
      </trkpt>
      <trkpt lat="42.66554" lon="-0.57129">
        <ele>1118</ele>
        <time>2018-12-27T01:15:05Z</time>
      </trkpt>
      <trkpt lat="42.66546" lon="-0.57176">
        <ele>1112</ele>
        <time>2018-12-27T01:15:15Z</time>
      </trkpt>
      <trkpt lat="42.66543" lon="-0.57183">
        <ele>1111</ele>
        <time>2018-12-27T01:15:16Z</time>
      </trkpt>
      <trkpt lat="42.66532" lon="-0.57169">
        <ele>1106</ele>
        <time>2018-12-27T01:15:20Z</time>
      </trkpt>
      <trkpt lat="42.66517" lon="-0.57147">
        <ele>1101</ele>
        <time>2018-12-27T01:15:26Z</time>
      </trkpt>
      <trkpt lat="42.66513" lon="-0.57143">
        <ele>1099</ele>
        <time>2018-12-27T01:15:27Z</time>
      </trkpt>
      <trkpt lat="42.66511" lon="-0.57138">
        <ele>1098</ele>
        <time>2018-12-27T01:15:29Z</time>
      </trkpt>
      <trkpt lat="42.66487" lon="-0.57106">
        <ele>1090</ele>
        <time>2018-12-27T01:15:38Z</time>
      </trkpt>
      <trkpt lat="42.6648" lon="-0.57099">
        <ele>1088</ele>
        <time>2018-12-27T01:15:40Z</time>
      </trkpt>
      <trkpt lat="42.66477" lon="-0.57091">
        <ele>1087</ele>
        <time>2018-12-27T01:15:42Z</time>
      </trkpt>
      <trkpt lat="42.66477" lon="-0.57081">
        <ele>1087</ele>
        <time>2018-12-27T01:15:44Z</time>
      </trkpt>
      <trkpt lat="42.66492" lon="-0.57061">
        <ele>1087</ele>
        <time>2018-12-27T01:15:49Z</time>
      </trkpt>
      <trkpt lat="42.66497" lon="-0.57052">
        <ele>1087</ele>
        <time>2018-12-27T01:15:52Z</time>
      </trkpt>
      <trkpt lat="42.66497" lon="-0.5705">
        <ele>1086</ele>
        <time>2018-12-27T01:15:52Z</time>
      </trkpt>
      <trkpt lat="42.66456" lon="-0.57059">
        <ele>1077</ele>
        <time>2018-12-27T01:16:03Z</time>
      </trkpt>
      <trkpt lat="42.66435" lon="-0.57067">
        <ele>1072</ele>
        <time>2018-12-27T01:16:09Z</time>
      </trkpt>
      <trkpt lat="42.66424" lon="-0.57075">
        <ele>1070</ele>
        <time>2018-12-27T01:16:12Z</time>
      </trkpt>
      <trkpt lat="42.664" lon="-0.57079">
        <ele>1064</ele>
        <time>2018-12-27T01:16:19Z</time>
      </trkpt>
      <trkpt lat="42.66376" lon="-0.57086">
        <ele>1062</ele>
        <time>2018-12-27T01:16:25Z</time>
      </trkpt>
      <trkpt lat="42.66364" lon="-0.57089">
        <ele>1061</ele>
        <time>2018-12-27T01:16:29Z</time>
      </trkpt>
      <trkpt lat="42.6635" lon="-0.57084">
        <ele>1059</ele>
        <time>2018-12-27T01:16:32Z</time>
      </trkpt>
      <trkpt lat="42.66349" lon="-0.57058">
        <ele>1058</ele>
        <time>2018-12-27T01:16:37Z</time>
      </trkpt>
      <trkpt lat="42.66347" lon="-0.57051">
        <ele>1057</ele>
        <time>2018-12-27T01:16:39Z</time>
      </trkpt>
      <trkpt lat="42.6634" lon="-0.57048">
        <ele>1057</ele>
        <time>2018-12-27T01:16:41Z</time>
      </trkpt>
      <trkpt lat="42.66337" lon="-0.57039">
        <ele>1056</ele>
        <time>2018-12-27T01:16:43Z</time>
      </trkpt>
      <trkpt lat="42.66333" lon="-0.56975">
        <ele>1058</ele>
        <time>2018-12-27T01:16:55Z</time>
      </trkpt>
      <trkpt lat="42.66327" lon="-0.56947">
        <ele>1062</ele>
        <time>2018-12-27T01:17:01Z</time>
      </trkpt>
      <trkpt lat="42.66321" lon="-0.56927">
        <ele>1064</ele>
        <time>2018-12-27T01:17:05Z</time>
      </trkpt>
      <trkpt lat="42.66315" lon="-0.56916">
        <ele>1066</ele>
        <time>2018-12-27T01:17:08Z</time>
      </trkpt>
      <trkpt lat="42.66307" lon="-0.56913">
        <ele>1065</ele>
        <time>2018-12-27T01:17:10Z</time>
      </trkpt>
      <trkpt lat="42.66297" lon="-0.56915">
        <ele>1064</ele>
        <time>2018-12-27T01:17:13Z</time>
      </trkpt>
      <trkpt lat="42.66254" lon="-0.56928">
        <ele>1059</ele>
        <time>2018-12-27T01:17:25Z</time>
      </trkpt>
      <trkpt lat="42.66243" lon="-0.5693">
        <ele>1058</ele>
        <time>2018-12-27T01:17:27Z</time>
      </trkpt>
      <trkpt lat="42.6622" lon="-0.56927">
        <ele>1056</ele>
        <time>2018-12-27T01:17:34Z</time>
      </trkpt>
      <trkpt lat="42.66166" lon="-0.56895">
        <ele>1051</ele>
        <time>2018-12-27T01:17:49Z</time>
      </trkpt>
      <trkpt lat="42.66156" lon="-0.56886">
        <ele>1049</ele>
        <time>2018-12-27T01:17:53Z</time>
      </trkpt>
      <trkpt lat="42.66145" lon="-0.5688">
        <ele>1047</ele>
        <time>2018-12-27T01:17:56Z</time>
      </trkpt>
      <trkpt lat="42.66117" lon="-0.56871">
        <ele>1043</ele>
        <time>2018-12-27T01:18:03Z</time>
      </trkpt>
      <trkpt lat="42.66104" lon="-0.56868">
        <ele>1042</ele>
        <time>2018-12-27T01:18:07Z</time>
      </trkpt>
      <trkpt lat="42.66093" lon="-0.56872">
        <ele>1041</ele>
        <time>2018-12-27T01:18:10Z</time>
      </trkpt>
      <trkpt lat="42.66081" lon="-0.56883">
        <ele>1039</ele>
        <time>2018-12-27T01:18:14Z</time>
      </trkpt>
      <trkpt lat="42.66078" lon="-0.56882">
        <ele>1039</ele>
        <time>2018-12-27T01:18:15Z</time>
      </trkpt>
      <trkpt lat="42.66033" lon="-0.56845">
        <ele>1033</ele>
        <time>2018-12-27T01:18:29Z</time>
      </trkpt>
      <trkpt lat="42.66012" lon="-0.56834">
        <ele>1030</ele>
        <time>2018-12-27T01:18:35Z</time>
      </trkpt>
      <trkpt lat="42.66003" lon="-0.56827">
        <ele>1029</ele>
        <time>2018-12-27T01:18:37Z</time>
      </trkpt>
      <trkpt lat="42.65985" lon="-0.56807">
        <ele>1029</ele>
        <time>2018-12-27T01:18:44Z</time>
      </trkpt>
      <trkpt lat="42.65969" lon="-0.56785">
        <ele>1030</ele>
        <time>2018-12-27T01:18:50Z</time>
      </trkpt>
      <trkpt lat="42.6593" lon="-0.5675">
        <ele>1028</ele>
        <time>2018-12-27T01:19:02Z</time>
      </trkpt>
      <trkpt lat="42.65897" lon="-0.56713">
        <ele>1027</ele>
        <time>2018-12-27T01:19:14Z</time>
      </trkpt>
      <trkpt lat="42.65889" lon="-0.56706">
        <ele>1027</ele>
        <time>2018-12-27T01:19:16Z</time>
      </trkpt>
      <trkpt lat="42.65868" lon="-0.56698">
        <ele>1024</ele>
        <time>2018-12-27T01:19:22Z</time>
      </trkpt>
      <trkpt lat="42.65855" lon="-0.56689">
        <ele>1024</ele>
        <time>2018-12-27T01:19:26Z</time>
      </trkpt>
      <trkpt lat="42.65845" lon="-0.56679">
        <ele>1024</ele>
        <time>2018-12-27T01:19:29Z</time>
      </trkpt>
      <trkpt lat="42.65843" lon="-0.56675">
        <ele>1024</ele>
        <time>2018-12-27T01:19:30Z</time>
      </trkpt>
      <trkpt lat="42.65827" lon="-0.56663">
        <ele>1024</ele>
        <time>2018-12-27T01:19:35Z</time>
      </trkpt>
      <trkpt lat="42.65816" lon="-0.56651">
        <ele>1024</ele>
        <time>2018-12-27T01:19:39Z</time>
      </trkpt>
      <trkpt lat="42.65789" lon="-0.56615">
        <ele>1024</ele>
        <time>2018-12-27T01:19:49Z</time>
      </trkpt>
      <trkpt lat="42.65779" lon="-0.56597">
        <ele>1025</ele>
        <time>2018-12-27T01:19:53Z</time>
      </trkpt>
      <trkpt lat="42.65768" lon="-0.56589">
        <ele>1025</ele>
        <time>2018-12-27T01:19:57Z</time>
      </trkpt>
      <trkpt lat="42.65763" lon="-0.56579">
        <ele>1025</ele>
        <time>2018-12-27T01:19:59Z</time>
      </trkpt>
      <trkpt lat="42.65757" lon="-0.56572">
        <ele>1025</ele>
        <time>2018-12-27T01:20:01Z</time>
      </trkpt>
      <trkpt lat="42.65753" lon="-0.56562">
        <ele>1025</ele>
        <time>2018-12-27T01:20:03Z</time>
      </trkpt>
      <trkpt lat="42.6575" lon="-0.5655">
        <ele>1025</ele>
        <time>2018-12-27T01:20:06Z</time>
      </trkpt>
      <trkpt lat="42.65737" lon="-0.56522">
        <ele>1026</ele>
        <time>2018-12-27T01:20:12Z</time>
      </trkpt>
      <trkpt lat="42.65729" lon="-0.5652">
        <ele>1026</ele>
        <time>2018-12-27T01:20:15Z</time>
      </trkpt>
      <trkpt lat="42.65727" lon="-0.56518">
        <ele>1026</ele>
        <time>2018-12-27T01:20:15Z</time>
      </trkpt>
      <trkpt lat="42.65718" lon="-0.56516">
        <ele>1026</ele>
        <time>2018-12-27T01:20:18Z</time>
      </trkpt>
      <trkpt lat="42.65714" lon="-0.56508">
        <ele>1026</ele>
        <time>2018-12-27T01:20:20Z</time>
      </trkpt>
      <trkpt lat="42.6571" lon="-0.5649">
        <ele>1025</ele>
        <time>2018-12-27T01:20:23Z</time>
      </trkpt>
      <trkpt lat="42.65711" lon="-0.5647">
        <ele>1024</ele>
        <time>2018-12-27T01:20:27Z</time>
      </trkpt>
      <trkpt lat="42.65709" lon="-0.56479">
        <ele>1024</ele>
        <time>2018-12-27T01:20:29Z</time>
      </trkpt>
      <trkpt lat="42.65709" lon="-0.56499">
        <ele>1025</ele>
        <time>2018-12-27T01:20:33Z</time>
      </trkpt>
      <trkpt lat="42.65712" lon="-0.5651">
        <ele>1026</ele>
        <time>2018-12-27T01:20:35Z</time>
      </trkpt>
      <trkpt lat="42.65723" lon="-0.56519">
        <ele>1026</ele>
        <time>2018-12-27T01:20:39Z</time>
      </trkpt>
      <trkpt lat="42.65721" lon="-0.56527">
        <ele>1025</ele>
        <time>2018-12-27T01:20:40Z</time>
      </trkpt>
      <trkpt lat="42.6572" lon="-0.56523">
        <ele>1026</ele>
        <time>2018-12-27T01:20:41Z</time>
      </trkpt>
      <trkpt lat="42.65711" lon="-0.56516">
        <ele>1025</ele>
        <time>2018-12-27T01:20:44Z</time>
      </trkpt>
      <trkpt lat="42.65709" lon="-0.56506">
        <ele>1025</ele>
        <time>2018-12-27T01:20:46Z</time>
      </trkpt>
      <trkpt lat="42.65707" lon="-0.56484">
        <ele>1025</ele>
        <time>2018-12-27T01:20:50Z</time>
      </trkpt>
      <trkpt lat="42.65707" lon="-0.56454">
        <ele>1023</ele>
        <time>2018-12-27T01:20:56Z</time>
      </trkpt>
      <trkpt lat="42.65706" lon="-0.56429">
        <ele>1022</ele>
        <time>2018-12-27T01:21:01Z</time>
      </trkpt>
      <trkpt lat="42.65703" lon="-0.56415">
        <ele>1022</ele>
        <time>2018-12-27T01:21:04Z</time>
      </trkpt>
      <trkpt lat="42.65685" lon="-0.56374">
        <ele>1020</ele>
        <time>2018-12-27T01:21:13Z</time>
      </trkpt>
      <trkpt lat="42.65677" lon="-0.5636">
        <ele>1019</ele>
        <time>2018-12-27T01:21:17Z</time>
      </trkpt>
      <trkpt lat="42.65665" lon="-0.56342">
        <ele>1016</ele>
        <time>2018-12-27T01:21:22Z</time>
      </trkpt>
      <trkpt lat="42.65653" lon="-0.56329">
        <ele>1014</ele>
        <time>2018-12-27T01:21:26Z</time>
      </trkpt>
      <trkpt lat="42.65641" lon="-0.5632">
        <ele>1012</ele>
        <time>2018-12-27T01:21:29Z</time>
      </trkpt>
      <trkpt lat="42.65639" lon="-0.56315">
        <ele>1011</ele>
        <time>2018-12-27T01:21:31Z</time>
      </trkpt>
      <trkpt lat="42.65647" lon="-0.56306">
        <ele>1010</ele>
        <time>2018-12-27T01:21:33Z</time>
      </trkpt>
      <trkpt lat="42.65663" lon="-0.56294">
        <ele>1007</ele>
        <time>2018-12-27T01:21:38Z</time>
      </trkpt>
      <trkpt lat="42.65669" lon="-0.56293">
        <ele>1007</ele>
        <time>2018-12-27T01:21:40Z</time>
      </trkpt>
      <trkpt lat="42.65686" lon="-0.56279">
        <ele>1003</ele>
        <time>2018-12-27T01:21:45Z</time>
      </trkpt>
      <trkpt lat="42.65692" lon="-0.56275">
        <ele>1003</ele>
        <time>2018-12-27T01:21:47Z</time>
      </trkpt>
      <trkpt lat="42.65712" lon="-0.56255">
        <ele>997</ele>
        <time>2018-12-27T01:21:54Z</time>
      </trkpt>
      <trkpt lat="42.65721" lon="-0.5625">
        <ele>995</ele>
        <time>2018-12-27T01:21:56Z</time>
      </trkpt>
      <trkpt lat="42.65729" lon="-0.56241">
        <ele>992</ele>
        <time>2018-12-27T01:21:59Z</time>
      </trkpt>
      <trkpt lat="42.65746" lon="-0.56227">
        <ele>987</ele>
        <time>2018-12-27T01:22:04Z</time>
      </trkpt>
      <trkpt lat="42.6575" lon="-0.5622">
        <ele>985</ele>
        <time>2018-12-27T01:22:06Z</time>
      </trkpt>
      <trkpt lat="42.65767" lon="-0.56203">
        <ele>981</ele>
        <time>2018-12-27T01:22:12Z</time>
      </trkpt>
      <trkpt lat="42.6579" lon="-0.56182">
        <ele>976</ele>
        <time>2018-12-27T01:22:19Z</time>
      </trkpt>
      <trkpt lat="42.65802" lon="-0.56175">
        <ele>975</ele>
        <time>2018-12-27T01:22:22Z</time>
      </trkpt>
      <trkpt lat="42.65809" lon="-0.56166">
        <ele>972</ele>
        <time>2018-12-27T01:22:25Z</time>
      </trkpt>
      <trkpt lat="42.65827" lon="-0.56159">
        <ele>973</ele>
        <time>2018-12-27T01:22:30Z</time>
      </trkpt>
      <trkpt lat="42.65836" lon="-0.56151">
        <ele>972</ele>
        <time>2018-12-27T01:22:33Z</time>
      </trkpt>
      <trkpt lat="42.65855" lon="-0.56142">
        <ele>972</ele>
        <time>2018-12-27T01:22:38Z</time>
      </trkpt>
      <trkpt lat="42.65866" lon="-0.56133">
        <ele>970</ele>
        <time>2018-12-27T01:22:42Z</time>
      </trkpt>
      <trkpt lat="42.65876" lon="-0.56131">
        <ele>970</ele>
        <time>2018-12-27T01:22:45Z</time>
      </trkpt>
      <trkpt lat="42.65885" lon="-0.5612">
        <ele>966</ele>
        <time>2018-12-27T01:22:48Z</time>
      </trkpt>
      <trkpt lat="42.65894" lon="-0.56116">
        <ele>966</ele>
        <time>2018-12-27T01:22:50Z</time>
      </trkpt>
      <trkpt lat="42.65898" lon="-0.56111">
        <ele>964</ele>
        <time>2018-12-27T01:22:52Z</time>
      </trkpt>
      <trkpt lat="42.65902" lon="-0.56098">
        <ele>960</ele>
        <time>2018-12-27T01:22:54Z</time>
      </trkpt>
      <trkpt lat="42.65901" lon="-0.56096">
        <ele>959</ele>
        <time>2018-12-27T01:22:55Z</time>
      </trkpt>
      <trkpt lat="42.65903" lon="-0.5609">
        <ele>957</ele>
        <time>2018-12-27T01:22:56Z</time>
      </trkpt>
      <trkpt lat="42.65965" lon="-0.56054">
        <ele>956</ele>
        <time>2018-12-27T01:23:14Z</time>
      </trkpt>
      <trkpt lat="42.65981" lon="-0.56036">
        <ele>954</ele>
        <time>2018-12-27T01:23:20Z</time>
      </trkpt>
      <trkpt lat="42.65987" lon="-0.56022">
        <ele>952</ele>
        <time>2018-12-27T01:23:23Z</time>
      </trkpt>
      <trkpt lat="42.65996" lon="-0.56013">
        <ele>950</ele>
        <time>2018-12-27T01:23:26Z</time>
      </trkpt>
      <trkpt lat="42.66007" lon="-0.55987">
        <ele>947</ele>
        <time>2018-12-27T01:23:32Z</time>
      </trkpt>
      <trkpt lat="42.66015" lon="-0.55971">
        <ele>945</ele>
        <time>2018-12-27T01:23:36Z</time>
      </trkpt>
      <trkpt lat="42.66047" lon="-0.5592">
        <ele>945</ele>
        <time>2018-12-27T01:23:49Z</time>
      </trkpt>
      <trkpt lat="42.66058" lon="-0.55883">
        <ele>942</ele>
        <time>2018-12-27T01:23:57Z</time>
      </trkpt>
      <trkpt lat="42.66064" lon="-0.55834">
        <ele>939</ele>
        <time>2018-12-27T01:24:06Z</time>
      </trkpt>
      <trkpt lat="42.66075" lon="-0.55804">
        <ele>937</ele>
        <time>2018-12-27T01:24:13Z</time>
      </trkpt>
      <trkpt lat="42.66085" lon="-0.55772">
        <ele>935</ele>
        <time>2018-12-27T01:24:20Z</time>
      </trkpt>
      <trkpt lat="42.66086" lon="-0.55759">
        <ele>934</ele>
        <time>2018-12-27T01:24:22Z</time>
      </trkpt>
      <trkpt lat="42.66094" lon="-0.55745">
        <ele>934</ele>
        <time>2018-12-27T01:24:26Z</time>
      </trkpt>
      <trkpt lat="42.66103" lon="-0.55734">
        <ele>934</ele>
        <time>2018-12-27T01:24:29Z</time>
      </trkpt>
      <trkpt lat="42.66106" lon="-0.55725">
        <ele>934</ele>
        <time>2018-12-27T01:24:31Z</time>
      </trkpt>
      <trkpt lat="42.66107" lon="-0.55712">
        <ele>933</ele>
        <time>2018-12-27T01:24:34Z</time>
      </trkpt>
      <trkpt lat="42.66101" lon="-0.55709">
        <ele>933</ele>
        <time>2018-12-27T01:24:35Z</time>
      </trkpt>
      <trkpt lat="42.66096" lon="-0.55673">
        <ele>932</ele>
        <time>2018-12-27T01:24:42Z</time>
      </trkpt>
      <trkpt lat="42.66074" lon="-0.55641">
        <ele>932</ele>
        <time>2018-12-27T01:24:51Z</time>
      </trkpt>
      <trkpt lat="42.66077" lon="-0.55634">
        <ele>932</ele>
        <time>2018-12-27T01:24:53Z</time>
      </trkpt>
      <trkpt lat="42.66077" lon="-0.55624">
        <ele>932</ele>
        <time>2018-12-27T01:24:55Z</time>
      </trkpt>
      <trkpt lat="42.66071" lon="-0.55615">
        <ele>932</ele>
        <time>2018-12-27T01:24:57Z</time>
      </trkpt>
      <trkpt lat="42.66066" lon="-0.55593">
        <ele>932</ele>
        <time>2018-12-27T01:25:02Z</time>
      </trkpt>
      <trkpt lat="42.66053" lon="-0.55549">
        <ele>931</ele>
        <time>2018-12-27T01:25:11Z</time>
      </trkpt>
      <trkpt lat="42.66052" lon="-0.55534">
        <ele>930</ele>
        <time>2018-12-27T01:25:14Z</time>
      </trkpt>
      <trkpt lat="42.66048" lon="-0.55524">
        <ele>930</ele>
        <time>2018-12-27T01:25:16Z</time>
      </trkpt>
      <trkpt lat="42.66049" lon="-0.55505">
        <ele>929</ele>
        <time>2018-12-27T01:25:20Z</time>
      </trkpt>
      <trkpt lat="42.66045" lon="-0.55472">
        <ele>926</ele>
        <time>2018-12-27T01:25:27Z</time>
      </trkpt>
      <trkpt lat="42.66053" lon="-0.55466">
        <ele>925</ele>
        <time>2018-12-27T01:25:29Z</time>
      </trkpt>
      <trkpt lat="42.6606" lon="-0.55468">
        <ele>925</ele>
        <time>2018-12-27T01:25:31Z</time>
      </trkpt>
      <trkpt lat="42.66068" lon="-0.55468">
        <ele>925</ele>
        <time>2018-12-27T01:25:33Z</time>
      </trkpt>
      <trkpt lat="42.66076" lon="-0.55471">
        <ele>925</ele>
        <time>2018-12-27T01:25:35Z</time>
      </trkpt>
      <trkpt lat="42.66081" lon="-0.55478">
        <ele>926</ele>
        <time>2018-12-27T01:25:37Z</time>
      </trkpt>
      <trkpt lat="42.66083" lon="-0.55478">
        <ele>926</ele>
        <time>2018-12-27T01:25:38Z</time>
      </trkpt>
      <trkpt lat="42.66092" lon="-0.55477">
        <ele>925</ele>
        <time>2018-12-27T01:25:40Z</time>
      </trkpt>
      <trkpt lat="42.661" lon="-0.55471">
        <ele>924</ele>
        <time>2018-12-27T01:25:43Z</time>
      </trkpt>
      <trkpt lat="42.66109" lon="-0.55471">
        <ele>924</ele>
        <time>2018-12-27T01:25:45Z</time>
      </trkpt>
      <trkpt lat="42.66113" lon="-0.55469">
        <ele>923</ele>
        <time>2018-12-27T01:25:46Z</time>
      </trkpt>
      <trkpt lat="42.66119" lon="-0.55459">
        <ele>923</ele>
        <time>2018-12-27T01:25:49Z</time>
      </trkpt>
      <trkpt lat="42.66119" lon="-0.5545">
        <ele>922</ele>
        <time>2018-12-27T01:25:51Z</time>
      </trkpt>
      <trkpt lat="42.66115" lon="-0.55441">
        <ele>922</ele>
        <time>2018-12-27T01:25:53Z</time>
      </trkpt>
      <trkpt lat="42.66118" lon="-0.55429">
        <ele>922</ele>
        <time>2018-12-27T01:25:55Z</time>
      </trkpt>
      <trkpt lat="42.66118" lon="-0.55422">
        <ele>922</ele>
        <time>2018-12-27T01:25:56Z</time>
      </trkpt>
      <trkpt lat="42.66122" lon="-0.55421">
        <ele>922</ele>
        <time>2018-12-27T01:25:57Z</time>
      </trkpt>
      <trkpt lat="42.66126" lon="-0.55406">
        <ele>922</ele>
        <time>2018-12-27T01:26:01Z</time>
      </trkpt>
      <trkpt lat="42.66124" lon="-0.55393">
        <ele>922</ele>
        <time>2018-12-27T01:26:03Z</time>
      </trkpt>
      <trkpt lat="42.66094" lon="-0.55367">
        <ele>922</ele>
        <time>2018-12-27T01:26:12Z</time>
      </trkpt>
      <trkpt lat="42.66079" lon="-0.55334">
        <ele>922</ele>
        <time>2018-12-27T01:26:20Z</time>
      </trkpt>
      <trkpt lat="42.6604" lon="-0.55323">
        <ele>922</ele>
        <time>2018-12-27T01:26:31Z</time>
      </trkpt>
      <trkpt lat="42.66039" lon="-0.55323">
        <ele>922</ele>
        <time>2018-12-27T01:26:31Z</time>
      </trkpt>
      <trkpt lat="42.66039" lon="-0.5531">
        <ele>922</ele>
        <time>2018-12-27T01:26:34Z</time>
      </trkpt>
      <trkpt lat="42.6604" lon="-0.55298">
        <ele>923</ele>
        <time>2018-12-27T01:26:36Z</time>
      </trkpt>
      <trkpt lat="42.66043" lon="-0.55293">
        <ele>923</ele>
        <time>2018-12-27T01:26:37Z</time>
      </trkpt>
      <trkpt lat="42.66047" lon="-0.55276">
        <ele>923</ele>
        <time>2018-12-27T01:26:41Z</time>
      </trkpt>
      <trkpt lat="42.66055" lon="-0.55265">
        <ele>923</ele>
        <time>2018-12-27T01:26:44Z</time>
      </trkpt>
      <trkpt lat="42.66058" lon="-0.55253">
        <ele>924</ele>
        <time>2018-12-27T01:26:46Z</time>
      </trkpt>
      <trkpt lat="42.66068" lon="-0.55229">
        <ele>924</ele>
        <time>2018-12-27T01:26:52Z</time>
      </trkpt>
      <trkpt lat="42.6608" lon="-0.55208">
        <ele>924</ele>
        <time>2018-12-27T01:26:57Z</time>
      </trkpt>
      <trkpt lat="42.66103" lon="-0.55148">
        <ele>923</ele>
        <time>2018-12-27T01:27:10Z</time>
      </trkpt>
      <trkpt lat="42.66106" lon="-0.55136">
        <ele>924</ele>
        <time>2018-12-27T01:27:13Z</time>
      </trkpt>
      <trkpt lat="42.6612" lon="-0.55123">
        <ele>923</ele>
        <time>2018-12-27T01:27:17Z</time>
      </trkpt>
      <trkpt lat="42.66127" lon="-0.55118">
        <ele>923</ele>
        <time>2018-12-27T01:27:19Z</time>
      </trkpt>
      <trkpt lat="42.66134" lon="-0.55107">
        <ele>923</ele>
        <time>2018-12-27T01:27:22Z</time>
      </trkpt>
      <trkpt lat="42.66147" lon="-0.55082">
        <ele>924</ele>
        <time>2018-12-27T01:27:28Z</time>
      </trkpt>
      <trkpt lat="42.66157" lon="-0.55066">
        <ele>925</ele>
        <time>2018-12-27T01:27:32Z</time>
      </trkpt>
      <trkpt lat="42.66158" lon="-0.5506">
        <ele>925</ele>
        <time>2018-12-27T01:27:33Z</time>
      </trkpt>
      <trkpt lat="42.66169" lon="-0.55038">
        <ele>927</ele>
        <time>2018-12-27T01:27:39Z</time>
      </trkpt>
      <trkpt lat="42.66211" lon="-0.54983">
        <ele>929</ele>
        <time>2018-12-27T01:27:54Z</time>
      </trkpt>
      <trkpt lat="42.66214" lon="-0.54973">
        <ele>929</ele>
        <time>2018-12-27T01:27:56Z</time>
      </trkpt>
      <trkpt lat="42.66241" lon="-0.54925">
        <ele>930</ele>
        <time>2018-12-27T01:28:08Z</time>
      </trkpt>
      <trkpt lat="42.66254" lon="-0.54908">
        <ele>930</ele>
        <time>2018-12-27T01:28:13Z</time>
      </trkpt>
      <trkpt lat="42.66262" lon="-0.54892">
        <ele>929</ele>
        <time>2018-12-27T01:28:17Z</time>
      </trkpt>
      <trkpt lat="42.66279" lon="-0.5487">
        <ele>928</ele>
        <time>2018-12-27T01:28:23Z</time>
      </trkpt>
      <trkpt lat="42.66296" lon="-0.54843">
        <ele>927</ele>
        <time>2018-12-27T01:28:30Z</time>
      </trkpt>
      <trkpt lat="42.66305" lon="-0.54835">
        <ele>927</ele>
        <time>2018-12-27T01:28:33Z</time>
      </trkpt>
      <trkpt lat="42.66314" lon="-0.54841">
        <ele>927</ele>
        <time>2018-12-27T01:28:36Z</time>
      </trkpt>
      <trkpt lat="42.6632" lon="-0.54842">
        <ele>926</ele>
        <time>2018-12-27T01:28:37Z</time>
      </trkpt>
      <trkpt lat="42.66323" lon="-0.54836">
        <ele>926</ele>
        <time>2018-12-27T01:28:38Z</time>
      </trkpt>
      <trkpt lat="42.66331" lon="-0.54826">
        <ele>926</ele>
        <time>2018-12-27T01:28:41Z</time>
      </trkpt>
      <trkpt lat="42.66342" lon="-0.54801">
        <ele>926</ele>
        <time>2018-12-27T01:28:47Z</time>
      </trkpt>
      <trkpt lat="42.66359" lon="-0.54788">
        <ele>926</ele>
        <time>2018-12-27T01:28:52Z</time>
      </trkpt>
      <trkpt lat="42.66365" lon="-0.54785">
        <ele>926</ele>
        <time>2018-12-27T01:28:54Z</time>
      </trkpt>
      <trkpt lat="42.66374" lon="-0.54786">
        <ele>926</ele>
        <time>2018-12-27T01:28:56Z</time>
      </trkpt>
      <trkpt lat="42.66378" lon="-0.54789">
        <ele>926</ele>
        <time>2018-12-27T01:28:58Z</time>
      </trkpt>
      <trkpt lat="42.66402" lon="-0.54787">
        <ele>927</ele>
        <time>2018-12-27T01:29:04Z</time>
      </trkpt>
      <trkpt lat="42.66411" lon="-0.54795">
        <ele>927</ele>
        <time>2018-12-27T01:29:07Z</time>
      </trkpt>
      <trkpt lat="42.66422" lon="-0.548">
        <ele>928</ele>
        <time>2018-12-27T01:29:10Z</time>
      </trkpt>
      <trkpt lat="42.66433" lon="-0.54808">
        <ele>927</ele>
        <time>2018-12-27T01:29:13Z</time>
      </trkpt>
      <trkpt lat="42.6644" lon="-0.54817">
        <ele>927</ele>
        <time>2018-12-27T01:29:16Z</time>
      </trkpt>
      <trkpt lat="42.66443" lon="-0.54818">
        <ele>927</ele>
        <time>2018-12-27T01:29:17Z</time>
      </trkpt>
      <trkpt lat="42.6645" lon="-0.54819">
        <ele>927</ele>
        <time>2018-12-27T01:29:19Z</time>
      </trkpt>
      <trkpt lat="42.66485" lon="-0.54821">
        <ele>925</ele>
        <time>2018-12-27T01:29:28Z</time>
      </trkpt>
      <trkpt lat="42.66492" lon="-0.54819">
        <ele>924</ele>
        <time>2018-12-27T01:29:30Z</time>
      </trkpt>
      <trkpt lat="42.66492" lon="-0.54802">
        <ele>925</ele>
        <time>2018-12-27T01:29:33Z</time>
      </trkpt>
      <trkpt lat="42.66485" lon="-0.54766">
        <ele>925</ele>
        <time>2018-12-27T01:29:40Z</time>
      </trkpt>
      <trkpt lat="42.66486" lon="-0.54746">
        <ele>925</ele>
        <time>2018-12-27T01:29:44Z</time>
      </trkpt>
      <trkpt lat="42.66491" lon="-0.54739">
        <ele>925</ele>
        <time>2018-12-27T01:29:46Z</time>
      </trkpt>
      <trkpt lat="42.66502" lon="-0.54728">
        <ele>925</ele>
        <time>2018-12-27T01:29:50Z</time>
      </trkpt>
      <trkpt lat="42.66512" lon="-0.54726">
        <ele>926</ele>
        <time>2018-12-27T01:29:52Z</time>
      </trkpt>
      <trkpt lat="42.66514" lon="-0.54727">
        <ele>926</ele>
        <time>2018-12-27T01:29:53Z</time>
      </trkpt>
      <trkpt lat="42.66529" lon="-0.54728">
        <ele>926</ele>
        <time>2018-12-27T01:29:57Z</time>
      </trkpt>
      <trkpt lat="42.66544" lon="-0.54719">
        <ele>927</ele>
        <time>2018-12-27T01:30:01Z</time>
      </trkpt>
      <trkpt lat="42.66552" lon="-0.54709">
        <ele>927</ele>
        <time>2018-12-27T01:30:04Z</time>
      </trkpt>
      <trkpt lat="42.66554" lon="-0.54709">
        <ele>927</ele>
        <time>2018-12-27T01:30:05Z</time>
      </trkpt>
      <trkpt lat="42.66571" lon="-0.54699">
        <ele>928</ele>
        <time>2018-12-27T01:30:10Z</time>
      </trkpt>
      <trkpt lat="42.66598" lon="-0.54664">
        <ele>928</ele>
        <time>2018-12-27T01:30:20Z</time>
      </trkpt>
      <trkpt lat="42.66611" lon="-0.54661">
        <ele>928</ele>
        <time>2018-12-27T01:30:23Z</time>
      </trkpt>
      <trkpt lat="42.66624" lon="-0.54654">
        <ele>928</ele>
        <time>2018-12-27T01:30:27Z</time>
      </trkpt>
      <trkpt lat="42.66653" lon="-0.54625">
        <ele>929</ele>
        <time>2018-12-27T01:30:37Z</time>
      </trkpt>
      <trkpt lat="42.66662" lon="-0.5462">
        <ele>929</ele>
        <time>2018-12-27T01:30:39Z</time>
      </trkpt>
      <trkpt lat="42.66672" lon="-0.54618">
        <ele>930</ele>
        <time>2018-12-27T01:30:42Z</time>
      </trkpt>
      <trkpt lat="42.6668" lon="-0.54614">
        <ele>930</ele>
        <time>2018-12-27T01:30:44Z</time>
      </trkpt>
      <trkpt lat="42.66686" lon="-0.54601">
        <ele>930</ele>
        <time>2018-12-27T01:30:47Z</time>
      </trkpt>
      <trkpt lat="42.66688" lon="-0.54575">
        <ele>929</ele>
        <time>2018-12-27T01:30:52Z</time>
      </trkpt>
      <trkpt lat="42.66696" lon="-0.54533">
        <ele>928</ele>
        <time>2018-12-27T01:31:01Z</time>
      </trkpt>
      <trkpt lat="42.66704" lon="-0.5452">
        <ele>928</ele>
        <time>2018-12-27T01:31:04Z</time>
      </trkpt>
      <trkpt lat="42.66714" lon="-0.54515">
        <ele>929</ele>
        <time>2018-12-27T01:31:07Z</time>
      </trkpt>
      <trkpt lat="42.66725" lon="-0.54504">
        <ele>930</ele>
        <time>2018-12-27T01:31:11Z</time>
      </trkpt>
      <trkpt lat="42.66731" lon="-0.545">
        <ele>930</ele>
        <time>2018-12-27T01:31:13Z</time>
      </trkpt>
      <trkpt lat="42.6674" lon="-0.54499">
        <ele>930</ele>
        <time>2018-12-27T01:31:15Z</time>
      </trkpt>
      <trkpt lat="42.66753" lon="-0.54494">
        <ele>929</ele>
        <time>2018-12-27T01:31:19Z</time>
      </trkpt>
      <trkpt lat="42.66755" lon="-0.54488">
        <ele>929</ele>
        <time>2018-12-27T01:31:20Z</time>
      </trkpt>
      <trkpt lat="42.66754" lon="-0.54478">
        <ele>929</ele>
        <time>2018-12-27T01:31:22Z</time>
      </trkpt>
      <trkpt lat="42.66751" lon="-0.54466">
        <ele>929</ele>
        <time>2018-12-27T01:31:24Z</time>
      </trkpt>
      <trkpt lat="42.66752" lon="-0.54438">
        <ele>929</ele>
        <time>2018-12-27T01:31:30Z</time>
      </trkpt>
      <trkpt lat="42.66756" lon="-0.54431">
        <ele>929</ele>
        <time>2018-12-27T01:31:32Z</time>
      </trkpt>
      <trkpt lat="42.66766" lon="-0.54416">
        <ele>929</ele>
        <time>2018-12-27T01:31:36Z</time>
      </trkpt>
      <trkpt lat="42.6679" lon="-0.54411">
        <ele>929</ele>
        <time>2018-12-27T01:31:42Z</time>
      </trkpt>
      <trkpt lat="42.66799" lon="-0.54403">
        <ele>929</ele>
        <time>2018-12-27T01:31:45Z</time>
      </trkpt>
      <trkpt lat="42.6681" lon="-0.54372">
        <ele>930</ele>
        <time>2018-12-27T01:31:52Z</time>
      </trkpt>
      <trkpt lat="42.66815" lon="-0.54364">
        <ele>931</ele>
        <time>2018-12-27T01:31:54Z</time>
      </trkpt>
      <trkpt lat="42.66823" lon="-0.54357">
        <ele>931</ele>
        <time>2018-12-27T01:31:56Z</time>
      </trkpt>
      <trkpt lat="42.66843" lon="-0.54348">
        <ele>932</ele>
        <time>2018-12-27T01:32:02Z</time>
      </trkpt>
      <trkpt lat="42.66857" lon="-0.54335">
        <ele>933</ele>
        <time>2018-12-27T01:32:07Z</time>
      </trkpt>
      <trkpt lat="42.66873" lon="-0.54301">
        <ele>932</ele>
        <time>2018-12-27T01:32:15Z</time>
      </trkpt>
      <trkpt lat="42.66898" lon="-0.54255">
        <ele>932</ele>
        <time>2018-12-27T01:32:26Z</time>
      </trkpt>
      <trkpt lat="42.66899" lon="-0.54238">
        <ele>932</ele>
        <time>2018-12-27T01:32:29Z</time>
      </trkpt>
      <trkpt lat="42.66901" lon="-0.54222">
        <ele>931</ele>
        <time>2018-12-27T01:32:32Z</time>
      </trkpt>
      <trkpt lat="42.66909" lon="-0.5421">
        <ele>931</ele>
        <time>2018-12-27T01:32:35Z</time>
      </trkpt>
      <trkpt lat="42.66918" lon="-0.54203">
        <ele>931</ele>
        <time>2018-12-27T01:32:38Z</time>
      </trkpt>
      <trkpt lat="42.66925" lon="-0.54202">
        <ele>931</ele>
        <time>2018-12-27T01:32:40Z</time>
      </trkpt>
      <trkpt lat="42.66955" lon="-0.5417">
        <ele>931</ele>
        <time>2018-12-27T01:32:50Z</time>
      </trkpt>
      <trkpt lat="42.66957" lon="-0.54164">
        <ele>931</ele>
        <time>2018-12-27T01:32:52Z</time>
      </trkpt>
      <trkpt lat="42.66965" lon="-0.54153">
        <ele>931</ele>
        <time>2018-12-27T01:32:55Z</time>
      </trkpt>
      <trkpt lat="42.66973" lon="-0.54145">
        <ele>932</ele>
        <time>2018-12-27T01:32:57Z</time>
      </trkpt>
      <trkpt lat="42.67026" lon="-0.54105">
        <ele>933</ele>
        <time>2018-12-27T01:33:13Z</time>
      </trkpt>
      <trkpt lat="42.67047" lon="-0.54083">
        <ele>933</ele>
        <time>2018-12-27T01:33:21Z</time>
      </trkpt>
      <trkpt lat="42.67078" lon="-0.54063">
        <ele>935</ele>
        <time>2018-12-27T01:33:30Z</time>
      </trkpt>
      <trkpt lat="42.67086" lon="-0.5406">
        <ele>935</ele>
        <time>2018-12-27T01:33:32Z</time>
      </trkpt>
      <trkpt lat="42.67096" lon="-0.54055">
        <ele>936</ele>
        <time>2018-12-27T01:33:35Z</time>
      </trkpt>
      <trkpt lat="42.67114" lon="-0.54029">
        <ele>937</ele>
        <time>2018-12-27T01:33:42Z</time>
      </trkpt>
      <trkpt lat="42.6712" lon="-0.54024">
        <ele>937</ele>
        <time>2018-12-27T01:33:44Z</time>
      </trkpt>
      <trkpt lat="42.67125" lon="-0.54022">
        <ele>937</ele>
        <time>2018-12-27T01:33:45Z</time>
      </trkpt>
      <trkpt lat="42.67141" lon="-0.5403">
        <ele>936</ele>
        <time>2018-12-27T01:33:50Z</time>
      </trkpt>
      <trkpt lat="42.6715" lon="-0.54032">
        <ele>936</ele>
        <time>2018-12-27T01:33:52Z</time>
      </trkpt>
      <trkpt lat="42.67156" lon="-0.54032">
        <ele>936</ele>
        <time>2018-12-27T01:33:54Z</time>
      </trkpt>
      <trkpt lat="42.67166" lon="-0.54025">
        <ele>937</ele>
        <time>2018-12-27T01:33:57Z</time>
      </trkpt>
      <trkpt lat="42.67202" lon="-0.53977">
        <ele>936</ele>
        <time>2018-12-27T01:34:10Z</time>
      </trkpt>
      <trkpt lat="42.67209" lon="-0.53958">
        <ele>936</ele>
        <time>2018-12-27T01:34:14Z</time>
      </trkpt>
      <trkpt lat="42.67213" lon="-0.5394">
        <ele>936</ele>
        <time>2018-12-27T01:34:18Z</time>
      </trkpt>
      <trkpt lat="42.67232" lon="-0.53896">
        <ele>938</ele>
        <time>2018-12-27T01:34:28Z</time>
      </trkpt>
      <trkpt lat="42.67274" lon="-0.53842">
        <ele>938</ele>
        <time>2018-12-27T01:34:43Z</time>
      </trkpt>
      <trkpt lat="42.67285" lon="-0.53836">
        <ele>939</ele>
        <time>2018-12-27T01:34:47Z</time>
      </trkpt>
      <trkpt lat="42.67313" lon="-0.53832">
        <ele>938</ele>
        <time>2018-12-27T01:34:54Z</time>
      </trkpt>
      <trkpt lat="42.67327" lon="-0.53828">
        <ele>938</ele>
        <time>2018-12-27T01:34:58Z</time>
      </trkpt>
      <trkpt lat="42.67349" lon="-0.53826">
        <ele>938</ele>
        <time>2018-12-27T01:35:04Z</time>
      </trkpt>
      <trkpt lat="42.67362" lon="-0.53827">
        <ele>938</ele>
        <time>2018-12-27T01:35:07Z</time>
      </trkpt>
      <trkpt lat="42.67379" lon="-0.53824">
        <ele>938</ele>
        <time>2018-12-27T01:35:12Z</time>
      </trkpt>
      <trkpt lat="42.67434" lon="-0.5378">
        <ele>938</ele>
        <time>2018-12-27T01:35:29Z</time>
      </trkpt>
      <trkpt lat="42.67475" lon="-0.53751">
        <ele>938</ele>
        <time>2018-12-27T01:35:41Z</time>
      </trkpt>
      <trkpt lat="42.67499" lon="-0.53731">
        <ele>938</ele>
        <time>2018-12-27T01:35:49Z</time>
      </trkpt>
      <trkpt lat="42.67543" lon="-0.53709">
        <ele>940</ele>
        <time>2018-12-27T01:36:01Z</time>
      </trkpt>
      <trkpt lat="42.67574" lon="-0.53702">
        <ele>941</ele>
        <time>2018-12-27T01:36:10Z</time>
      </trkpt>
      <trkpt lat="42.67577" lon="-0.53689">
        <ele>941</ele>
        <time>2018-12-27T01:36:12Z</time>
      </trkpt>
      <trkpt lat="42.67579" lon="-0.53664">
        <ele>941</ele>
        <time>2018-12-27T01:36:17Z</time>
      </trkpt>
      <trkpt lat="42.67582" lon="-0.53653">
        <ele>941</ele>
        <time>2018-12-27T01:36:19Z</time>
      </trkpt>
      <trkpt lat="42.6759" lon="-0.5364">
        <ele>940</ele>
        <time>2018-12-27T01:36:23Z</time>
      </trkpt>
      <trkpt lat="42.67596" lon="-0.53639">
        <ele>940</ele>
        <time>2018-12-27T01:36:25Z</time>
      </trkpt>
      <trkpt lat="42.67604" lon="-0.53641">
        <ele>940</ele>
        <time>2018-12-27T01:36:27Z</time>
      </trkpt>
      <trkpt lat="42.67615" lon="-0.53646">
        <ele>940</ele>
        <time>2018-12-27T01:36:30Z</time>
      </trkpt>
      <trkpt lat="42.67626" lon="-0.53649">
        <ele>940</ele>
        <time>2018-12-27T01:36:33Z</time>
      </trkpt>
      <trkpt lat="42.67633" lon="-0.53648">
        <ele>940</ele>
        <time>2018-12-27T01:36:35Z</time>
      </trkpt>
      <trkpt lat="42.67666" lon="-0.53637">
        <ele>940</ele>
        <time>2018-12-27T01:36:44Z</time>
      </trkpt>
      <trkpt lat="42.67708" lon="-0.53623">
        <ele>943</ele>
        <time>2018-12-27T01:36:55Z</time>
      </trkpt>
      <trkpt lat="42.6775" lon="-0.53618">
        <ele>945</ele>
        <time>2018-12-27T01:37:06Z</time>
      </trkpt>
      <trkpt lat="42.67779" lon="-0.53605">
        <ele>944</ele>
        <time>2018-12-27T01:37:15Z</time>
      </trkpt>
      <trkpt lat="42.67826" lon="-0.53582">
        <ele>943</ele>
        <time>2018-12-27T01:37:28Z</time>
      </trkpt>
      <trkpt lat="42.6785" lon="-0.53567">
        <ele>944</ele>
        <time>2018-12-27T01:37:35Z</time>
      </trkpt>
      <trkpt lat="42.67885" lon="-0.53543">
        <ele>945</ele>
        <time>2018-12-27T01:37:46Z</time>
      </trkpt>
      <trkpt lat="42.67902" lon="-0.5354">
        <ele>946</ele>
        <time>2018-12-27T01:37:50Z</time>
      </trkpt>
      <trkpt lat="42.67918" lon="-0.53539">
        <ele>947</ele>
        <time>2018-12-27T01:37:54Z</time>
      </trkpt>
      <trkpt lat="42.6793" lon="-0.53535">
        <ele>947</ele>
        <time>2018-12-27T01:37:58Z</time>
      </trkpt>
      <trkpt lat="42.68079" lon="-0.53388">
        <ele>947</ele>
        <time>2018-12-27T01:38:47Z</time>
      </trkpt>
      <trkpt lat="42.6812" lon="-0.53367">
        <ele>949</ele>
        <time>2018-12-27T01:38:59Z</time>
      </trkpt>
      <trkpt lat="42.68142" lon="-0.53358">
        <ele>949</ele>
        <time>2018-12-27T01:39:05Z</time>
      </trkpt>
      <trkpt lat="42.68183" lon="-0.53333">
        <ele>951</ele>
        <time>2018-12-27T01:39:17Z</time>
      </trkpt>
      <trkpt lat="42.68199" lon="-0.53326">
        <ele>952</ele>
        <time>2018-12-27T01:39:21Z</time>
      </trkpt>
      <trkpt lat="42.68211" lon="-0.53323">
        <ele>952</ele>
        <time>2018-12-27T01:39:24Z</time>
      </trkpt>
      <trkpt lat="42.68225" lon="-0.53325">
        <ele>953</ele>
        <time>2018-12-27T01:39:28Z</time>
      </trkpt>
      <trkpt lat="42.68238" lon="-0.53325">
        <ele>953</ele>
        <time>2018-12-27T01:39:32Z</time>
      </trkpt>
      <trkpt lat="42.68242" lon="-0.53323">
        <ele>953</ele>
        <time>2018-12-27T01:39:33Z</time>
      </trkpt>
      <trkpt lat="42.68246" lon="-0.53313">
        <ele>953</ele>
        <time>2018-12-27T01:39:35Z</time>
      </trkpt>
      <trkpt lat="42.68256" lon="-0.53299">
        <ele>954</ele>
        <time>2018-12-27T01:39:39Z</time>
      </trkpt>
      <trkpt lat="42.68257" lon="-0.53295">
        <ele>954</ele>
        <time>2018-12-27T01:39:40Z</time>
      </trkpt>
      <trkpt lat="42.68255" lon="-0.53262">
        <ele>956</ele>
        <time>2018-12-27T01:39:46Z</time>
      </trkpt>
      <trkpt lat="42.6825" lon="-0.53235">
        <ele>957</ele>
        <time>2018-12-27T01:39:52Z</time>
      </trkpt>
      <trkpt lat="42.68247" lon="-0.53229">
        <ele>957</ele>
        <time>2018-12-27T01:39:53Z</time>
      </trkpt>
      <trkpt lat="42.68239" lon="-0.53221">
        <ele>956</ele>
        <time>2018-12-27T01:39:56Z</time>
      </trkpt>
      <trkpt lat="42.68227" lon="-0.53213">
        <ele>956</ele>
        <time>2018-12-27T01:39:59Z</time>
      </trkpt>
      <trkpt lat="42.68213" lon="-0.53207">
        <ele>955</ele>
        <time>2018-12-27T01:40:03Z</time>
      </trkpt>
      <trkpt lat="42.68165" lon="-0.53192">
        <ele>955</ele>
        <time>2018-12-27T01:40:16Z</time>
      </trkpt>
      <trkpt lat="42.68149" lon="-0.53188">
        <ele>955</ele>
        <time>2018-12-27T01:40:21Z</time>
      </trkpt>
      <trkpt lat="42.6812" lon="-0.53183">
        <ele>954</ele>
        <time>2018-12-27T01:40:29Z</time>
      </trkpt>
      <trkpt lat="42.68092" lon="-0.53174">
        <ele>954</ele>
        <time>2018-12-27T01:40:36Z</time>
      </trkpt>
      <trkpt lat="42.68072" lon="-0.53162">
        <ele>954</ele>
        <time>2018-12-27T01:40:42Z</time>
      </trkpt>
      <trkpt lat="42.68003" lon="-0.53106">
        <ele>955</ele>
        <time>2018-12-27T01:41:03Z</time>
      </trkpt>
      <trkpt lat="42.67987" lon="-0.5309">
        <ele>956</ele>
        <time>2018-12-27T01:41:09Z</time>
      </trkpt>
      <trkpt lat="42.67975" lon="-0.53084">
        <ele>956</ele>
        <time>2018-12-27T01:41:12Z</time>
      </trkpt>
      <trkpt lat="42.6793" lon="-0.53076">
        <ele>958</ele>
        <time>2018-12-27T01:41:24Z</time>
      </trkpt>
      <trkpt lat="42.6789" lon="-0.53078">
        <ele>957</ele>
        <time>2018-12-27T01:41:35Z</time>
      </trkpt>
      <trkpt lat="42.67876" lon="-0.53085">
        <ele>955</ele>
        <time>2018-12-27T01:41:39Z</time>
      </trkpt>
      <trkpt lat="42.67868" lon="-0.53084">
        <ele>955</ele>
        <time>2018-12-27T01:41:41Z</time>
      </trkpt>
      <trkpt lat="42.67866" lon="-0.53078">
        <ele>955</ele>
        <time>2018-12-27T01:41:42Z</time>
      </trkpt>
      <trkpt lat="42.67865" lon="-0.53068">
        <ele>955</ele>
        <time>2018-12-27T01:41:44Z</time>
      </trkpt>
      <trkpt lat="42.67855" lon="-0.53029">
        <ele>955</ele>
        <time>2018-12-27T01:41:52Z</time>
      </trkpt>
      <trkpt lat="42.67845" lon="-0.53016">
        <ele>955</ele>
        <time>2018-12-27T01:41:56Z</time>
      </trkpt>
      <trkpt lat="42.67832" lon="-0.53007">
        <ele>954</ele>
        <time>2018-12-27T01:42:00Z</time>
      </trkpt>
      <trkpt lat="42.67821" lon="-0.52994">
        <ele>953</ele>
        <time>2018-12-27T01:42:04Z</time>
      </trkpt>
      <trkpt lat="42.67816" lon="-0.52975">
        <ele>953</ele>
        <time>2018-12-27T01:42:08Z</time>
      </trkpt>
      <trkpt lat="42.67797" lon="-0.52967">
        <ele>953</ele>
        <time>2018-12-27T01:42:13Z</time>
      </trkpt>
      <trkpt lat="42.67788" lon="-0.52959">
        <ele>953</ele>
        <time>2018-12-27T01:42:16Z</time>
      </trkpt>
      <trkpt lat="42.67769" lon="-0.52928">
        <ele>956</ele>
        <time>2018-12-27T01:42:24Z</time>
      </trkpt>
      <trkpt lat="42.67758" lon="-0.52915">
        <ele>958</ele>
        <time>2018-12-27T01:42:28Z</time>
      </trkpt>
      <trkpt lat="42.67741" lon="-0.52867">
        <ele>969</ele>
        <time>2018-12-27T01:42:38Z</time>
      </trkpt>
      <trkpt lat="42.67729" lon="-0.5286">
        <ele>973</ele>
        <time>2018-12-27T01:42:42Z</time>
      </trkpt>
      <trkpt lat="42.67729" lon="-0.52849">
        <ele>975</ele>
        <time>2018-12-27T01:42:44Z</time>
      </trkpt>
      <trkpt lat="42.67732" lon="-0.52843">
        <ele>976</ele>
        <time>2018-12-27T01:42:46Z</time>
      </trkpt>
      <trkpt lat="42.6773" lon="-0.5284">
        <ele>977</ele>
        <time>2018-12-27T01:42:46Z</time>
      </trkpt>
      <trkpt lat="42.67717" lon="-0.5284">
        <ele>980</ele>
        <time>2018-12-27T01:42:50Z</time>
      </trkpt>
      <trkpt lat="42.67698" lon="-0.52826">
        <ele>987</ele>
        <time>2018-12-27T01:42:56Z</time>
      </trkpt>
      <trkpt lat="42.67688" lon="-0.52826">
        <ele>988</ele>
        <time>2018-12-27T01:42:58Z</time>
      </trkpt>
      <trkpt lat="42.67675" lon="-0.52822">
        <ele>990</ele>
        <time>2018-12-27T01:43:02Z</time>
      </trkpt>
      <trkpt lat="42.67645" lon="-0.52817">
        <ele>994</ele>
        <time>2018-12-27T01:43:10Z</time>
      </trkpt>
      <trkpt lat="42.67614" lon="-0.52821">
        <ele>1000</ele>
        <time>2018-12-27T01:43:18Z</time>
      </trkpt>
      <trkpt lat="42.67593" lon="-0.5282">
        <ele>1005</ele>
        <time>2018-12-27T01:43:24Z</time>
      </trkpt>
      <trkpt lat="42.67582" lon="-0.52825">
        <ele>1005</ele>
        <time>2018-12-27T01:43:27Z</time>
      </trkpt>
      <trkpt lat="42.67561" lon="-0.5282">
        <ele>1013</ele>
        <time>2018-12-27T01:43:32Z</time>
      </trkpt>
      <trkpt lat="42.6755" lon="-0.52818">
        <ele>1017</ele>
        <time>2018-12-27T01:43:36Z</time>
      </trkpt>
      <trkpt lat="42.67549" lon="-0.52816">
        <ele>1018</ele>
        <time>2018-12-27T01:43:36Z</time>
      </trkpt>
      <trkpt lat="42.67561" lon="-0.52805">
        <ele>1021</ele>
        <time>2018-12-27T01:43:40Z</time>
      </trkpt>
      <trkpt lat="42.67567" lon="-0.52793">
        <ele>1023</ele>
        <time>2018-12-27T01:43:43Z</time>
      </trkpt>
      <trkpt lat="42.67571" lon="-0.52789">
        <ele>1024</ele>
        <time>2018-12-27T01:43:44Z</time>
      </trkpt>
      <trkpt lat="42.67569" lon="-0.52786">
        <ele>1025</ele>
        <time>2018-12-27T01:43:45Z</time>
      </trkpt>
      <trkpt lat="42.67554" lon="-0.52789">
        <ele>1029</ele>
        <time>2018-12-27T01:43:49Z</time>
      </trkpt>
      <trkpt lat="42.67547" lon="-0.52793">
        <ele>1029</ele>
        <time>2018-12-27T01:43:51Z</time>
      </trkpt>
      <trkpt lat="42.67534" lon="-0.52796">
        <ele>1031</ele>
        <time>2018-12-27T01:43:54Z</time>
      </trkpt>
      <trkpt lat="42.67513" lon="-0.52806">
        <ele>1029</ele>
        <time>2018-12-27T01:44:00Z</time>
      </trkpt>
      <trkpt lat="42.67493" lon="-0.5281">
        <ele>1030</ele>
        <time>2018-12-27T01:44:06Z</time>
      </trkpt>
      <trkpt lat="42.67487" lon="-0.52815">
        <ele>1029</ele>
        <time>2018-12-27T01:44:08Z</time>
      </trkpt>
      <trkpt lat="42.67474" lon="-0.52833">
        <ele>1026</ele>
        <time>2018-12-27T01:44:13Z</time>
      </trkpt>
      <trkpt lat="42.67466" lon="-0.52841">
        <ele>1028</ele>
        <time>2018-12-27T01:44:15Z</time>
      </trkpt>
      <trkpt lat="42.67447" lon="-0.52847">
        <ele>1036</ele>
        <time>2018-12-27T01:44:20Z</time>
      </trkpt>
      <trkpt lat="42.6744" lon="-0.52849">
        <ele>1040</ele>
        <time>2018-12-27T01:44:22Z</time>
      </trkpt>
      <trkpt lat="42.67436" lon="-0.52851">
        <ele>1041</ele>
        <time>2018-12-27T01:44:23Z</time>
      </trkpt>
      <trkpt lat="42.67431" lon="-0.52853">
        <ele>1043</ele>
        <time>2018-12-27T01:44:25Z</time>
      </trkpt>
      <trkpt lat="42.67421" lon="-0.52854">
        <ele>1048</ele>
        <time>2018-12-27T01:44:28Z</time>
      </trkpt>
      <trkpt lat="42.67406" lon="-0.52853">
        <ele>1054</ele>
        <time>2018-12-27T01:44:31Z</time>
      </trkpt>
      <trkpt lat="42.67401" lon="-0.52857">
        <ele>1055</ele>
        <time>2018-12-27T01:44:33Z</time>
      </trkpt>
      <trkpt lat="42.67392" lon="-0.52859">
        <ele>1058</ele>
        <time>2018-12-27T01:44:36Z</time>
      </trkpt>
      <trkpt lat="42.67371" lon="-0.52882">
        <ele>1058</ele>
        <time>2018-12-27T01:44:43Z</time>
      </trkpt>
      <trkpt lat="42.67366" lon="-0.52889">
        <ele>1057</ele>
        <time>2018-12-27T01:44:45Z</time>
      </trkpt>
      <trkpt lat="42.67363" lon="-0.52898">
        <ele>1054</ele>
        <time>2018-12-27T01:44:47Z</time>
      </trkpt>
      <trkpt lat="42.67358" lon="-0.52904">
        <ele>1054</ele>
        <time>2018-12-27T01:44:48Z</time>
      </trkpt>
      <trkpt lat="42.67356" lon="-0.52911">
        <ele>1053</ele>
        <time>2018-12-27T01:44:50Z</time>
      </trkpt>
      <trkpt lat="42.67334" lon="-0.52932">
        <ele>1060</ele>
        <time>2018-12-27T01:44:57Z</time>
      </trkpt>
      <trkpt lat="42.67323" lon="-0.52953">
        <ele>1061</ele>
        <time>2018-12-27T01:45:02Z</time>
      </trkpt>
      <trkpt lat="42.6732" lon="-0.52967">
        <ele>1058</ele>
        <time>2018-12-27T01:45:05Z</time>
      </trkpt>
      <trkpt lat="42.67315" lon="-0.52976">
        <ele>1057</ele>
        <time>2018-12-27T01:45:07Z</time>
      </trkpt>
      <trkpt lat="42.67303" lon="-0.52988">
        <ele>1060</ele>
        <time>2018-12-27T01:45:11Z</time>
      </trkpt>
      <trkpt lat="42.67299" lon="-0.52994">
        <ele>1060</ele>
        <time>2018-12-27T01:45:13Z</time>
      </trkpt>
      <trkpt lat="42.67281" lon="-0.53">
        <ele>1069</ele>
        <time>2018-12-27T01:45:18Z</time>
      </trkpt>
      <trkpt lat="42.67268" lon="-0.52995">
        <ele>1077</ele>
        <time>2018-12-27T01:45:21Z</time>
      </trkpt>
      <trkpt lat="42.67264" lon="-0.52996">
        <ele>1078</ele>
        <time>2018-12-27T01:45:22Z</time>
      </trkpt>
      <trkpt lat="42.6726" lon="-0.53004">
        <ele>1076</ele>
        <time>2018-12-27T01:45:24Z</time>
      </trkpt>
      <trkpt lat="42.67256" lon="-0.53005">
        <ele>1077</ele>
        <time>2018-12-27T01:45:25Z</time>
      </trkpt>
      <trkpt lat="42.67251" lon="-0.53004">
        <ele>1080</ele>
        <time>2018-12-27T01:45:27Z</time>
      </trkpt>
      <trkpt lat="42.6724" lon="-0.53007">
        <ele>1084</ele>
        <time>2018-12-27T01:45:30Z</time>
      </trkpt>
      <trkpt lat="42.67234" lon="-0.53013">
        <ele>1085</ele>
        <time>2018-12-27T01:45:32Z</time>
      </trkpt>
      <trkpt lat="42.67228" lon="-0.53014">
        <ele>1088</ele>
        <time>2018-12-27T01:45:33Z</time>
      </trkpt>
      <trkpt lat="42.67223" lon="-0.53017">
        <ele>1089</ele>
        <time>2018-12-27T01:45:35Z</time>
      </trkpt>
      <trkpt lat="42.6721" lon="-0.5302">
        <ele>1093</ele>
        <time>2018-12-27T01:45:38Z</time>
      </trkpt>
      <trkpt lat="42.67197" lon="-0.53021">
        <ele>1099</ele>
        <time>2018-12-27T01:45:42Z</time>
      </trkpt>
      <trkpt lat="42.67191" lon="-0.53026">
        <ele>1099</ele>
        <time>2018-12-27T01:45:44Z</time>
      </trkpt>
      <trkpt lat="42.67184" lon="-0.53028">
        <ele>1100</ele>
        <time>2018-12-27T01:45:45Z</time>
      </trkpt>
      <trkpt lat="42.67158" lon="-0.53033">
        <ele>1107</ele>
        <time>2018-12-27T01:45:53Z</time>
      </trkpt>
      <trkpt lat="42.67149" lon="-0.53042">
        <ele>1105</ele>
        <time>2018-12-27T01:45:56Z</time>
      </trkpt>
      <trkpt lat="42.67131" lon="-0.53052">
        <ele>1107</ele>
        <time>2018-12-27T01:46:01Z</time>
      </trkpt>
      <trkpt lat="42.67119" lon="-0.53061">
        <ele>1108</ele>
        <time>2018-12-27T01:46:04Z</time>
      </trkpt>
      <trkpt lat="42.67097" lon="-0.53069">
        <ele>1113</ele>
        <time>2018-12-27T01:46:11Z</time>
      </trkpt>
      <trkpt lat="42.67071" lon="-0.53086">
        <ele>1114</ele>
        <time>2018-12-27T01:46:18Z</time>
      </trkpt>
      <trkpt lat="42.67063" lon="-0.53089">
        <ele>1115</ele>
        <time>2018-12-27T01:46:20Z</time>
      </trkpt>
      <trkpt lat="42.67051" lon="-0.53087">
        <ele>1118</ele>
        <time>2018-12-27T01:46:24Z</time>
      </trkpt>
      <trkpt lat="42.67048" lon="-0.53086">
        <ele>1118</ele>
        <time>2018-12-27T01:46:24Z</time>
      </trkpt>
      <trkpt lat="42.6704" lon="-0.53092">
        <ele>1118</ele>
        <time>2018-12-27T01:46:27Z</time>
      </trkpt>
      <trkpt lat="42.67035" lon="-0.53091">
        <ele>1118</ele>
        <time>2018-12-27T01:46:28Z</time>
      </trkpt>
      <trkpt lat="42.67029" lon="-0.53084">
        <ele>1120</ele>
        <time>2018-12-27T01:46:31Z</time>
      </trkpt>
      <trkpt lat="42.67031" lon="-0.53066">
        <ele>1123</ele>
        <time>2018-12-27T01:46:34Z</time>
      </trkpt>
      <trkpt lat="42.67038" lon="-0.53049">
        <ele>1126</ele>
        <time>2018-12-27T01:46:38Z</time>
      </trkpt>
      <trkpt lat="42.67042" lon="-0.5304">
        <ele>1128</ele>
        <time>2018-12-27T01:46:40Z</time>
      </trkpt>
      <trkpt lat="42.67047" lon="-0.53037">
        <ele>1128</ele>
        <time>2018-12-27T01:46:41Z</time>
      </trkpt>
      <trkpt lat="42.67055" lon="-0.5302">
        <ele>1130</ele>
        <time>2018-12-27T01:46:45Z</time>
      </trkpt>
      <trkpt lat="42.6706" lon="-0.53014">
        <ele>1131</ele>
        <time>2018-12-27T01:46:47Z</time>
      </trkpt>
      <trkpt lat="42.67069" lon="-0.52986">
        <ele>1134</ele>
        <time>2018-12-27T01:46:53Z</time>
      </trkpt>
      <trkpt lat="42.67074" lon="-0.52978">
        <ele>1136</ele>
        <time>2018-12-27T01:46:55Z</time>
      </trkpt>
      <trkpt lat="42.67085" lon="-0.52976">
        <ele>1136</ele>
        <time>2018-12-27T01:46:58Z</time>
      </trkpt>
      <trkpt lat="42.67095" lon="-0.52969">
        <ele>1137</ele>
        <time>2018-12-27T01:47:01Z</time>
      </trkpt>
      <trkpt lat="42.67104" lon="-0.52951">
        <ele>1141</ele>
        <time>2018-12-27T01:47:06Z</time>
      </trkpt>
      <trkpt lat="42.67125" lon="-0.52917">
        <ele>1145</ele>
        <time>2018-12-27T01:47:14Z</time>
      </trkpt>
      <trkpt lat="42.67132" lon="-0.52909">
        <ele>1145</ele>
        <time>2018-12-27T01:47:17Z</time>
      </trkpt>
      <trkpt lat="42.67153" lon="-0.52891">
        <ele>1145</ele>
        <time>2018-12-27T01:47:23Z</time>
      </trkpt>
      <trkpt lat="42.67159" lon="-0.52883">
        <ele>1145</ele>
        <time>2018-12-27T01:47:25Z</time>
      </trkpt>
      <trkpt lat="42.67164" lon="-0.52875">
        <ele>1146</ele>
        <time>2018-12-27T01:47:27Z</time>
      </trkpt>
      <trkpt lat="42.67168" lon="-0.52856">
        <ele>1147</ele>
        <time>2018-12-27T01:47:31Z</time>
      </trkpt>
      <trkpt lat="42.67174" lon="-0.52845">
        <ele>1148</ele>
        <time>2018-12-27T01:47:34Z</time>
      </trkpt>
      <trkpt lat="42.67176" lon="-0.52832">
        <ele>1149</ele>
        <time>2018-12-27T01:47:37Z</time>
      </trkpt>
      <trkpt lat="42.67161" lon="-0.52786">
        <ele>1150</ele>
        <time>2018-12-27T01:47:46Z</time>
      </trkpt>
      <trkpt lat="42.67167" lon="-0.5273">
        <ele>1152</ele>
        <time>2018-12-27T01:47:58Z</time>
      </trkpt>
      <trkpt lat="42.67169" lon="-0.52694">
        <ele>1156</ele>
        <time>2018-12-27T01:48:05Z</time>
      </trkpt>
      <trkpt lat="42.67172" lon="-0.52687">
        <ele>1157</ele>
        <time>2018-12-27T01:48:06Z</time>
      </trkpt>
      <trkpt lat="42.67172" lon="-0.52676">
        <ele>1158</ele>
        <time>2018-12-27T01:48:08Z</time>
      </trkpt>
      <trkpt lat="42.67172" lon="-0.52662">
        <ele>1160</ele>
        <time>2018-12-27T01:48:11Z</time>
      </trkpt>
      <trkpt lat="42.67162" lon="-0.52621">
        <ele>1163</ele>
        <time>2018-12-27T01:48:20Z</time>
      </trkpt>
      <trkpt lat="42.67165" lon="-0.52602">
        <ele>1164</ele>
        <time>2018-12-27T01:48:23Z</time>
      </trkpt>
      <trkpt lat="42.67171" lon="-0.52588">
        <ele>1165</ele>
        <time>2018-12-27T01:48:27Z</time>
      </trkpt>
      <trkpt lat="42.67177" lon="-0.52577">
        <ele>1166</ele>
        <time>2018-12-27T01:48:29Z</time>
      </trkpt>
      <trkpt lat="42.672" lon="-0.52573">
        <ele>1165</ele>
        <time>2018-12-27T01:48:35Z</time>
      </trkpt>
      <trkpt lat="42.67203" lon="-0.5257">
        <ele>1165</ele>
        <time>2018-12-27T01:48:36Z</time>
      </trkpt>
      <trkpt lat="42.67205" lon="-0.52565">
        <ele>1165</ele>
        <time>2018-12-27T01:48:38Z</time>
      </trkpt>
      <trkpt lat="42.67206" lon="-0.5255">
        <ele>1165</ele>
        <time>2018-12-27T01:48:41Z</time>
      </trkpt>
      <trkpt lat="42.6721" lon="-0.52537">
        <ele>1165</ele>
        <time>2018-12-27T01:48:43Z</time>
      </trkpt>
      <trkpt lat="42.67217" lon="-0.52527">
        <ele>1165</ele>
        <time>2018-12-27T01:48:46Z</time>
      </trkpt>
      <trkpt lat="42.6723" lon="-0.52501">
        <ele>1167</ele>
        <time>2018-12-27T01:48:52Z</time>
      </trkpt>
      <trkpt lat="42.67233" lon="-0.52493">
        <ele>1169</ele>
        <time>2018-12-27T01:48:54Z</time>
      </trkpt>
      <trkpt lat="42.6725" lon="-0.52478">
        <ele>1172</ele>
        <time>2018-12-27T01:48:59Z</time>
      </trkpt>
      <trkpt lat="42.67276" lon="-0.52464">
        <ele>1177</ele>
        <time>2018-12-27T01:49:07Z</time>
      </trkpt>
      <trkpt lat="42.67282" lon="-0.52462">
        <ele>1178</ele>
        <time>2018-12-27T01:49:09Z</time>
      </trkpt>
      <trkpt lat="42.67286" lon="-0.52457">
        <ele>1180</ele>
        <time>2018-12-27T01:49:10Z</time>
      </trkpt>
      <trkpt lat="42.67288" lon="-0.52446">
        <ele>1182</ele>
        <time>2018-12-27T01:49:12Z</time>
      </trkpt>
      <trkpt lat="42.67292" lon="-0.52442">
        <ele>1184</ele>
        <time>2018-12-27T01:49:14Z</time>
      </trkpt>
      <trkpt lat="42.67296" lon="-0.52432">
        <ele>1187</ele>
        <time>2018-12-27T01:49:16Z</time>
      </trkpt>
      <trkpt lat="42.67308" lon="-0.5242">
        <ele>1191</ele>
        <time>2018-12-27T01:49:20Z</time>
      </trkpt>
      <trkpt lat="42.6731" lon="-0.52416">
        <ele>1192</ele>
        <time>2018-12-27T01:49:21Z</time>
      </trkpt>
      <trkpt lat="42.67316" lon="-0.5241">
        <ele>1194</ele>
        <time>2018-12-27T01:49:23Z</time>
      </trkpt>
      <trkpt lat="42.6732" lon="-0.52401">
        <ele>1196</ele>
        <time>2018-12-27T01:49:25Z</time>
      </trkpt>
      <trkpt lat="42.67324" lon="-0.52399">
        <ele>1197</ele>
        <time>2018-12-27T01:49:26Z</time>
      </trkpt>
      <trkpt lat="42.67325" lon="-0.52393">
        <ele>1198</ele>
        <time>2018-12-27T01:49:27Z</time>
      </trkpt>
      <trkpt lat="42.6733" lon="-0.52384">
        <ele>1201</ele>
        <time>2018-12-27T01:49:29Z</time>
      </trkpt>
      <trkpt lat="42.67332" lon="-0.52385">
        <ele>1201</ele>
        <time>2018-12-27T01:49:30Z</time>
      </trkpt>
      <trkpt lat="42.67333" lon="-0.52388">
        <ele>1200</ele>
        <time>2018-12-27T01:49:30Z</time>
      </trkpt>
      <trkpt lat="42.67336" lon="-0.52401">
        <ele>1197</ele>
        <time>2018-12-27T01:49:33Z</time>
      </trkpt>
      <trkpt lat="42.6734" lon="-0.52402">
        <ele>1198</ele>
        <time>2018-12-27T01:49:34Z</time>
      </trkpt>
      <trkpt lat="42.6735" lon="-0.52396">
        <ele>1200</ele>
        <time>2018-12-27T01:49:37Z</time>
      </trkpt>
      <trkpt lat="42.67352" lon="-0.52393">
        <ele>1201</ele>
        <time>2018-12-27T01:49:38Z</time>
      </trkpt>
      <trkpt lat="42.67356" lon="-0.52391">
        <ele>1202</ele>
        <time>2018-12-27T01:49:39Z</time>
      </trkpt>
      <trkpt lat="42.67363" lon="-0.5239">
        <ele>1203</ele>
        <time>2018-12-27T01:49:41Z</time>
      </trkpt>
      <trkpt lat="42.67371" lon="-0.5238">
        <ele>1208</ele>
        <time>2018-12-27T01:49:44Z</time>
      </trkpt>
      <trkpt lat="42.67373" lon="-0.52375">
        <ele>1209</ele>
        <time>2018-12-27T01:49:45Z</time>
      </trkpt>
      <trkpt lat="42.67377" lon="-0.52374">
        <ele>1210</ele>
        <time>2018-12-27T01:49:46Z</time>
      </trkpt>
      <trkpt lat="42.67377" lon="-0.52365">
        <ele>1213</ele>
        <time>2018-12-27T01:49:48Z</time>
      </trkpt>
      <trkpt lat="42.6738" lon="-0.52362">
        <ele>1214</ele>
        <time>2018-12-27T01:49:49Z</time>
      </trkpt>
      <trkpt lat="42.67386" lon="-0.52363">
        <ele>1215</ele>
        <time>2018-12-27T01:49:50Z</time>
      </trkpt>
      <trkpt lat="42.67395" lon="-0.52368">
        <ele>1216</ele>
        <time>2018-12-27T01:49:53Z</time>
      </trkpt>
      <trkpt lat="42.67402" lon="-0.52369">
        <ele>1219</ele>
        <time>2018-12-27T01:49:55Z</time>
      </trkpt>
      <trkpt lat="42.67402" lon="-0.52365">
        <ele>1220</ele>
        <time>2018-12-27T01:49:56Z</time>
      </trkpt>
      <trkpt lat="42.67399" lon="-0.52362">
        <ele>1220</ele>
        <time>2018-12-27T01:49:57Z</time>
      </trkpt>
      <trkpt lat="42.67395" lon="-0.52352">
        <ele>1221</ele>
        <time>2018-12-27T01:49:59Z</time>
      </trkpt>
      <trkpt lat="42.67393" lon="-0.52336">
        <ele>1224</ele>
        <time>2018-12-27T01:50:02Z</time>
      </trkpt>
      <trkpt lat="42.67402" lon="-0.5234">
        <ele>1226</ele>
        <time>2018-12-27T01:50:05Z</time>
      </trkpt>
      <trkpt lat="42.67405" lon="-0.52345">
        <ele>1226</ele>
        <time>2018-12-27T01:50:06Z</time>
      </trkpt>
      <trkpt lat="42.67411" lon="-0.52348">
        <ele>1226</ele>
        <time>2018-12-27T01:50:08Z</time>
      </trkpt>
      <trkpt lat="42.67414" lon="-0.52348">
        <ele>1228</ele>
        <time>2018-12-27T01:50:09Z</time>
      </trkpt>
      <trkpt lat="42.67414" lon="-0.52345">
        <ele>1228</ele>
        <time>2018-12-27T01:50:09Z</time>
      </trkpt>
      <trkpt lat="42.67412" lon="-0.52344">
        <ele>1228</ele>
        <time>2018-12-27T01:50:10Z</time>
      </trkpt>
      <trkpt lat="42.67398" lon="-0.52315">
        <ele>1232</ele>
        <time>2018-12-27T01:50:17Z</time>
      </trkpt>
      <trkpt lat="42.67398" lon="-0.52304">
        <ele>1235</ele>
        <time>2018-12-27T01:50:19Z</time>
      </trkpt>
      <trkpt lat="42.67396" lon="-0.5228">
        <ele>1242</ele>
        <time>2018-12-27T01:50:24Z</time>
      </trkpt>
      <trkpt lat="42.67398" lon="-0.52255">
        <ele>1249</ele>
        <time>2018-12-27T01:50:28Z</time>
      </trkpt>
      <trkpt lat="42.67397" lon="-0.52248">
        <ele>1251</ele>
        <time>2018-12-27T01:50:30Z</time>
      </trkpt>
      <trkpt lat="42.67398" lon="-0.52244">
        <ele>1252</ele>
        <time>2018-12-27T01:50:31Z</time>
      </trkpt>
      <trkpt lat="42.67403" lon="-0.52199">
        <ele>1266</ele>
        <time>2018-12-27T01:50:40Z</time>
      </trkpt>
      <trkpt lat="42.67405" lon="-0.522">
        <ele>1267</ele>
        <time>2018-12-27T01:50:40Z</time>
      </trkpt>
      <trkpt lat="42.67415" lon="-0.52214">
        <ele>1265</ele>
        <time>2018-12-27T01:50:44Z</time>
      </trkpt>
      <trkpt lat="42.67422" lon="-0.52233">
        <ele>1263</ele>
        <time>2018-12-27T01:50:48Z</time>
      </trkpt>
      <trkpt lat="42.67425" lon="-0.52235">
        <ele>1264</ele>
        <time>2018-12-27T01:50:49Z</time>
      </trkpt>
      <trkpt lat="42.67428" lon="-0.52247">
        <ele>1263</ele>
        <time>2018-12-27T01:50:52Z</time>
      </trkpt>
      <trkpt lat="42.67438" lon="-0.52261">
        <ele>1264</ele>
        <time>2018-12-27T01:50:55Z</time>
      </trkpt>
      <trkpt lat="42.67445" lon="-0.52283">
        <ele>1262</ele>
        <time>2018-12-27T01:51:00Z</time>
      </trkpt>
      <trkpt lat="42.6745" lon="-0.52289">
        <ele>1262</ele>
        <time>2018-12-27T01:51:02Z</time>
      </trkpt>
      <trkpt lat="42.6746" lon="-0.52294">
        <ele>1265</ele>
        <time>2018-12-27T01:51:05Z</time>
      </trkpt>
      <trkpt lat="42.67462" lon="-0.52293">
        <ele>1266</ele>
        <time>2018-12-27T01:51:05Z</time>
      </trkpt>
      <trkpt lat="42.67465" lon="-0.52291">
        <ele>1268</ele>
        <time>2018-12-27T01:51:06Z</time>
      </trkpt>
      <trkpt lat="42.67464" lon="-0.52287">
        <ele>1268</ele>
        <time>2018-12-27T01:51:07Z</time>
      </trkpt>
      <trkpt lat="42.67465" lon="-0.52266">
        <ele>1272</ele>
        <time>2018-12-27T01:51:11Z</time>
      </trkpt>
      <trkpt lat="42.67468" lon="-0.52266">
        <ele>1273</ele>
        <time>2018-12-27T01:51:12Z</time>
      </trkpt>
      <trkpt lat="42.67475" lon="-0.52271">
        <ele>1275</ele>
        <time>2018-12-27T01:51:14Z</time>
      </trkpt>
      <trkpt lat="42.67492" lon="-0.5227">
        <ele>1279</ele>
        <time>2018-12-27T01:51:19Z</time>
      </trkpt>
      <trkpt lat="42.67495" lon="-0.52267">
        <ele>1280</ele>
        <time>2018-12-27T01:51:20Z</time>
      </trkpt>
      <trkpt lat="42.67493" lon="-0.52256">
        <ele>1283</ele>
        <time>2018-12-27T01:51:22Z</time>
      </trkpt>
      <trkpt lat="42.67525" lon="-0.52251">
        <ele>1294</ele>
        <time>2018-12-27T01:51:30Z</time>
      </trkpt>
      <trkpt lat="42.67525" lon="-0.52237">
        <ele>1298</ele>
        <time>2018-12-27T01:51:33Z</time>
      </trkpt>
      <trkpt lat="42.67536" lon="-0.52227">
        <ele>1302</ele>
        <time>2018-12-27T01:51:37Z</time>
      </trkpt>
      <trkpt lat="42.67542" lon="-0.52229">
        <ele>1302</ele>
        <time>2018-12-27T01:51:38Z</time>
      </trkpt>
      <trkpt lat="42.67548" lon="-0.52225">
        <ele>1304</ele>
        <time>2018-12-27T01:51:40Z</time>
      </trkpt>
      <trkpt lat="42.67546" lon="-0.52215">
        <ele>1306</ele>
        <time>2018-12-27T01:51:42Z</time>
      </trkpt>
      <trkpt lat="42.67549" lon="-0.52211">
        <ele>1307</ele>
        <time>2018-12-27T01:51:43Z</time>
      </trkpt>
      <trkpt lat="42.67553" lon="-0.52209">
        <ele>1309</ele>
        <time>2018-12-27T01:51:45Z</time>
      </trkpt>
      <trkpt lat="42.67554" lon="-0.52205">
        <ele>1310</ele>
        <time>2018-12-27T01:51:45Z</time>
      </trkpt>
      <trkpt lat="42.67552" lon="-0.52192">
        <ele>1313</ele>
        <time>2018-12-27T01:51:48Z</time>
      </trkpt>
      <trkpt lat="42.67554" lon="-0.52189">
        <ele>1313</ele>
        <time>2018-12-27T01:51:49Z</time>
      </trkpt>
      <trkpt lat="42.67557" lon="-0.52189">
        <ele>1314</ele>
        <time>2018-12-27T01:51:50Z</time>
      </trkpt>
      <trkpt lat="42.67566" lon="-0.52183">
        <ele>1316</ele>
        <time>2018-12-27T01:51:52Z</time>
      </trkpt>
      <trkpt lat="42.67567" lon="-0.52179">
        <ele>1317</ele>
        <time>2018-12-27T01:51:53Z</time>
      </trkpt>
      <trkpt lat="42.67563" lon="-0.52173">
        <ele>1318</ele>
        <time>2018-12-27T01:51:55Z</time>
      </trkpt>
      <trkpt lat="42.6756" lon="-0.52164">
        <ele>1320</ele>
        <time>2018-12-27T01:51:57Z</time>
      </trkpt>
      <trkpt lat="42.67557" lon="-0.5216">
        <ele>1321</ele>
        <time>2018-12-27T01:51:58Z</time>
      </trkpt>
      <trkpt lat="42.67559" lon="-0.52139">
        <ele>1327</ele>
        <time>2018-12-27T01:52:02Z</time>
      </trkpt>
      <trkpt lat="42.67569" lon="-0.52145">
        <ele>1326</ele>
        <time>2018-12-27T01:52:05Z</time>
      </trkpt>
      <trkpt lat="42.6757" lon="-0.52144">
        <ele>1326</ele>
        <time>2018-12-27T01:52:05Z</time>
      </trkpt>
      <trkpt lat="42.67571" lon="-0.52141">
        <ele>1327</ele>
        <time>2018-12-27T01:52:06Z</time>
      </trkpt>
      <trkpt lat="42.67568" lon="-0.52133">
        <ele>1329</ele>
        <time>2018-12-27T01:52:08Z</time>
      </trkpt>
      <trkpt lat="42.67572" lon="-0.52126">
        <ele>1331</ele>
        <time>2018-12-27T01:52:10Z</time>
      </trkpt>
      <trkpt lat="42.67567" lon="-0.52111">
        <ele>1334</ele>
        <time>2018-12-27T01:52:13Z</time>
      </trkpt>
      <trkpt lat="42.67577" lon="-0.52104">
        <ele>1336</ele>
        <time>2018-12-27T01:52:16Z</time>
      </trkpt>
      <trkpt lat="42.6758" lon="-0.521">
        <ele>1337</ele>
        <time>2018-12-27T01:52:17Z</time>
      </trkpt>
      <trkpt lat="42.6757" lon="-0.52082">
        <ele>1339</ele>
        <time>2018-12-27T01:52:21Z</time>
      </trkpt>
      <trkpt lat="42.67568" lon="-0.52076">
        <ele>1341</ele>
        <time>2018-12-27T01:52:22Z</time>
      </trkpt>
      <trkpt lat="42.67569" lon="-0.52068">
        <ele>1342</ele>
        <time>2018-12-27T01:52:24Z</time>
      </trkpt>
      <trkpt lat="42.67574" lon="-0.5206">
        <ele>1345</ele>
        <time>2018-12-27T01:52:26Z</time>
      </trkpt>
      <trkpt lat="42.67569" lon="-0.52041">
        <ele>1349</ele>
        <time>2018-12-27T01:52:30Z</time>
      </trkpt>
      <trkpt lat="42.6757" lon="-0.5204">
        <ele>1349</ele>
        <time>2018-12-27T01:52:30Z</time>
      </trkpt>
      <trkpt lat="42.67573" lon="-0.5204">
        <ele>1350</ele>
        <time>2018-12-27T01:52:31Z</time>
      </trkpt>
      <trkpt lat="42.67576" lon="-0.52037">
        <ele>1352</ele>
        <time>2018-12-27T01:52:32Z</time>
      </trkpt>
      <trkpt lat="42.67575" lon="-0.52033">
        <ele>1353</ele>
        <time>2018-12-27T01:52:33Z</time>
      </trkpt>
      <trkpt lat="42.67576" lon="-0.52026">
        <ele>1355</ele>
        <time>2018-12-27T01:52:35Z</time>
      </trkpt>
      <trkpt lat="42.67573" lon="-0.52012">
        <ele>1358</ele>
        <time>2018-12-27T01:52:38Z</time>
      </trkpt>
      <trkpt lat="42.67573" lon="-0.52006">
        <ele>1359</ele>
        <time>2018-12-27T01:52:39Z</time>
      </trkpt>
      <trkpt lat="42.67576" lon="-0.51999">
        <ele>1362</ele>
        <time>2018-12-27T01:52:40Z</time>
      </trkpt>
      <trkpt lat="42.67575" lon="-0.5199">
        <ele>1364</ele>
        <time>2018-12-27T01:52:42Z</time>
      </trkpt>
      <trkpt lat="42.67576" lon="-0.51979">
        <ele>1367</ele>
        <time>2018-12-27T01:52:45Z</time>
      </trkpt>
      <trkpt lat="42.67576" lon="-0.51969">
        <ele>1369</ele>
        <time>2018-12-27T01:52:47Z</time>
      </trkpt>
      <trkpt lat="42.67581" lon="-0.51964">
        <ele>1372</ele>
        <time>2018-12-27T01:52:48Z</time>
      </trkpt>
      <trkpt lat="42.67584" lon="-0.51957">
        <ele>1374</ele>
        <time>2018-12-27T01:52:50Z</time>
      </trkpt>
      <trkpt lat="42.67595" lon="-0.51945">
        <ele>1378</ele>
        <time>2018-12-27T01:52:53Z</time>
      </trkpt>
      <trkpt lat="42.67595" lon="-0.51939">
        <ele>1380</ele>
        <time>2018-12-27T01:52:55Z</time>
      </trkpt>
      <trkpt lat="42.67598" lon="-0.51932">
        <ele>1382</ele>
        <time>2018-12-27T01:52:56Z</time>
      </trkpt>
      <trkpt lat="42.67599" lon="-0.51919">
        <ele>1386</ele>
        <time>2018-12-27T01:52:59Z</time>
      </trkpt>
      <trkpt lat="42.6761" lon="-0.51909">
        <ele>1390</ele>
        <time>2018-12-27T01:53:02Z</time>
      </trkpt>
      <trkpt lat="42.67613" lon="-0.51905">
        <ele>1391</ele>
        <time>2018-12-27T01:53:03Z</time>
      </trkpt>
      <trkpt lat="42.67613" lon="-0.51902">
        <ele>1392</ele>
        <time>2018-12-27T01:53:04Z</time>
      </trkpt>
      <trkpt lat="42.6762" lon="-0.51892">
        <ele>1394</ele>
        <time>2018-12-27T01:53:07Z</time>
      </trkpt>
      <trkpt lat="42.67616" lon="-0.51884">
        <ele>1397</ele>
        <time>2018-12-27T01:53:09Z</time>
      </trkpt>
      <trkpt lat="42.67619" lon="-0.5188">
        <ele>1398</ele>
        <time>2018-12-27T01:53:10Z</time>
      </trkpt>
      <trkpt lat="42.67623" lon="-0.51868">
        <ele>1401</ele>
        <time>2018-12-27T01:53:12Z</time>
      </trkpt>
      <trkpt lat="42.67627" lon="-0.51865">
        <ele>1402</ele>
        <time>2018-12-27T01:53:14Z</time>
      </trkpt>
      <trkpt lat="42.67632" lon="-0.51855">
        <ele>1406</ele>
        <time>2018-12-27T01:53:16Z</time>
      </trkpt>
      <trkpt lat="42.67624" lon="-0.51842">
        <ele>1410</ele>
        <time>2018-12-27T01:53:19Z</time>
      </trkpt>
      <trkpt lat="42.67618" lon="-0.51838">
        <ele>1412</ele>
        <time>2018-12-27T01:53:21Z</time>
      </trkpt>
      <trkpt lat="42.67611" lon="-0.51829">
        <ele>1416</ele>
        <time>2018-12-27T01:53:24Z</time>
      </trkpt>
      <trkpt lat="42.67611" lon="-0.51825">
        <ele>1417</ele>
        <time>2018-12-27T01:53:24Z</time>
      </trkpt>
      <trkpt lat="42.67622" lon="-0.51818">
        <ele>1421</ele>
        <time>2018-12-27T01:53:28Z</time>
      </trkpt>
      <trkpt lat="42.67619" lon="-0.51811">
        <ele>1423</ele>
        <time>2018-12-27T01:53:29Z</time>
      </trkpt>
      <trkpt lat="42.67619" lon="-0.51804">
        <ele>1426</ele>
        <time>2018-12-27T01:53:31Z</time>
      </trkpt>
      <trkpt lat="42.67627" lon="-0.51793">
        <ele>1430</ele>
        <time>2018-12-27T01:53:34Z</time>
      </trkpt>
      <trkpt lat="42.67626" lon="-0.5179">
        <ele>1431</ele>
        <time>2018-12-27T01:53:34Z</time>
      </trkpt>
      <trkpt lat="42.67623" lon="-0.51787">
        <ele>1432</ele>
        <time>2018-12-27T01:53:35Z</time>
      </trkpt>
      <trkpt lat="42.67622" lon="-0.51783">
        <ele>1433</ele>
        <time>2018-12-27T01:53:36Z</time>
      </trkpt>
      <trkpt lat="42.67625" lon="-0.51781">
        <ele>1434</ele>
        <time>2018-12-27T01:53:37Z</time>
      </trkpt>
      <trkpt lat="42.67624" lon="-0.51777">
        <ele>1435</ele>
        <time>2018-12-27T01:53:38Z</time>
      </trkpt>
      <trkpt lat="42.67615" lon="-0.51758">
        <ele>1441</ele>
        <time>2018-12-27T01:53:42Z</time>
      </trkpt>
      <trkpt lat="42.67618" lon="-0.51753">
        <ele>1442</ele>
        <time>2018-12-27T01:53:43Z</time>
      </trkpt>
      <trkpt lat="42.67618" lon="-0.5175">
        <ele>1443</ele>
        <time>2018-12-27T01:53:44Z</time>
      </trkpt>
      <trkpt lat="42.67613" lon="-0.51744">
        <ele>1445</ele>
        <time>2018-12-27T01:53:46Z</time>
      </trkpt>
      <trkpt lat="42.6761" lon="-0.51736">
        <ele>1449</ele>
        <time>2018-12-27T01:53:48Z</time>
      </trkpt>
      <trkpt lat="42.67608" lon="-0.51726">
        <ele>1453</ele>
        <time>2018-12-27T01:53:50Z</time>
      </trkpt>
      <trkpt lat="42.67616" lon="-0.51726">
        <ele>1453</ele>
        <time>2018-12-27T01:53:52Z</time>
      </trkpt>
      <trkpt lat="42.67618" lon="-0.51724">
        <ele>1454</ele>
        <time>2018-12-27T01:53:53Z</time>
      </trkpt>
      <trkpt lat="42.67631" lon="-0.51716">
        <ele>1457</ele>
        <time>2018-12-27T01:53:57Z</time>
      </trkpt>
      <trkpt lat="42.67629" lon="-0.51709">
        <ele>1461</ele>
        <time>2018-12-27T01:53:58Z</time>
      </trkpt>
      <trkpt lat="42.67623" lon="-0.51701">
        <ele>1464</ele>
        <time>2018-12-27T01:54:00Z</time>
      </trkpt>
      <trkpt lat="42.6762" lon="-0.51693">
        <ele>1468</ele>
        <time>2018-12-27T01:54:02Z</time>
      </trkpt>
      <trkpt lat="42.67621" lon="-0.5169">
        <ele>1469</ele>
        <time>2018-12-27T01:54:03Z</time>
      </trkpt>
      <trkpt lat="42.67638" lon="-0.51677">
        <ele>1475</ele>
        <time>2018-12-27T01:54:08Z</time>
      </trkpt>
      <trkpt lat="42.67644" lon="-0.51676">
        <ele>1475</ele>
        <time>2018-12-27T01:54:10Z</time>
      </trkpt>
      <trkpt lat="42.67656" lon="-0.51672">
        <ele>1476</ele>
        <time>2018-12-27T01:54:13Z</time>
      </trkpt>
      <trkpt lat="42.67665" lon="-0.51658">
        <ele>1480</ele>
        <time>2018-12-27T01:54:17Z</time>
      </trkpt>
      <trkpt lat="42.67661" lon="-0.51642">
        <ele>1486</ele>
        <time>2018-12-27T01:54:20Z</time>
      </trkpt>
      <trkpt lat="42.6766" lon="-0.51624">
        <ele>1491</ele>
        <time>2018-12-27T01:54:23Z</time>
      </trkpt>
      <trkpt lat="42.67662" lon="-0.51609">
        <ele>1495</ele>
        <time>2018-12-27T01:54:26Z</time>
      </trkpt>
      <trkpt lat="42.67662" lon="-0.51598">
        <ele>1498</ele>
        <time>2018-12-27T01:54:29Z</time>
      </trkpt>
      <trkpt lat="42.67658" lon="-0.516">
        <ele>1498</ele>
        <time>2018-12-27T01:54:30Z</time>
      </trkpt>
      <trkpt lat="42.67656" lon="-0.51605">
        <ele>1497</ele>
        <time>2018-12-27T01:54:31Z</time>
      </trkpt>
      <trkpt lat="42.67646" lon="-0.51617">
        <ele>1496</ele>
        <time>2018-12-27T01:54:35Z</time>
      </trkpt>
      <trkpt lat="42.67641" lon="-0.51619">
        <ele>1496</ele>
        <time>2018-12-27T01:54:36Z</time>
      </trkpt>
      <trkpt lat="42.67632" lon="-0.51621">
        <ele>1496</ele>
        <time>2018-12-27T01:54:38Z</time>
      </trkpt>
      <trkpt lat="42.67618" lon="-0.51616">
        <ele>1498</ele>
        <time>2018-12-27T01:54:42Z</time>
      </trkpt>
      <trkpt lat="42.67606" lon="-0.51607">
        <ele>1502</ele>
        <time>2018-12-27T01:54:46Z</time>
      </trkpt>
      <trkpt lat="42.67614" lon="-0.516">
        <ele>1504</ele>
        <time>2018-12-27T01:54:48Z</time>
      </trkpt>
      <trkpt lat="42.67617" lon="-0.51591">
        <ele>1507</ele>
        <time>2018-12-27T01:54:50Z</time>
      </trkpt>
      <trkpt lat="42.6763" lon="-0.51567">
        <ele>1511</ele>
        <time>2018-12-27T01:54:56Z</time>
      </trkpt>
      <trkpt lat="42.67631" lon="-0.51555">
        <ele>1514</ele>
        <time>2018-12-27T01:54:59Z</time>
      </trkpt>
      <trkpt lat="42.67629" lon="-0.51553">
        <ele>1515</ele>
        <time>2018-12-27T01:54:59Z</time>
      </trkpt>
      <trkpt lat="42.67619" lon="-0.51562">
        <ele>1515</ele>
        <time>2018-12-27T01:55:03Z</time>
      </trkpt>
      <trkpt lat="42.67612" lon="-0.51565">
        <ele>1515</ele>
        <time>2018-12-27T01:55:05Z</time>
      </trkpt>
      <trkpt lat="42.676" lon="-0.51562">
        <ele>1518</ele>
        <time>2018-12-27T01:55:08Z</time>
      </trkpt>
      <trkpt lat="42.6759" lon="-0.51562">
        <ele>1521</ele>
        <time>2018-12-27T01:55:11Z</time>
      </trkpt>
      <trkpt lat="42.67583" lon="-0.51559">
        <ele>1523</ele>
        <time>2018-12-27T01:55:12Z</time>
      </trkpt>
      <trkpt lat="42.67584" lon="-0.51557">
        <ele>1524</ele>
        <time>2018-12-27T01:55:13Z</time>
      </trkpt>
      <trkpt lat="42.67589" lon="-0.51556">
        <ele>1523</ele>
        <time>2018-12-27T01:55:14Z</time>
      </trkpt>
      <trkpt lat="42.67595" lon="-0.51552">
        <ele>1523</ele>
        <time>2018-12-27T01:55:16Z</time>
      </trkpt>
      <trkpt lat="42.6761" lon="-0.5152">
        <ele>1529</ele>
        <time>2018-12-27T01:55:23Z</time>
      </trkpt>
      <trkpt lat="42.67617" lon="-0.5151">
        <ele>1529</ele>
        <time>2018-12-27T01:55:26Z</time>
      </trkpt>
      <trkpt lat="42.67619" lon="-0.51503">
        <ele>1531</ele>
        <time>2018-12-27T01:55:28Z</time>
      </trkpt>
      <trkpt lat="42.67615" lon="-0.51502">
        <ele>1532</ele>
        <time>2018-12-27T01:55:29Z</time>
      </trkpt>
      <trkpt lat="42.67612" lon="-0.51506">
        <ele>1532</ele>
        <time>2018-12-27T01:55:30Z</time>
      </trkpt>
      <trkpt lat="42.67605" lon="-0.51511">
        <ele>1532</ele>
        <time>2018-12-27T01:55:32Z</time>
      </trkpt>
      <trkpt lat="42.67595" lon="-0.51515">
        <ele>1534</ele>
        <time>2018-12-27T01:55:35Z</time>
      </trkpt>
      <trkpt lat="42.67571" lon="-0.51515">
        <ele>1538</ele>
        <time>2018-12-27T01:55:41Z</time>
      </trkpt>
      <trkpt lat="42.67564" lon="-0.51514">
        <ele>1538</ele>
        <time>2018-12-27T01:55:43Z</time>
      </trkpt>
      <trkpt lat="42.67564" lon="-0.5151">
        <ele>1540</ele>
        <time>2018-12-27T01:55:43Z</time>
      </trkpt>
      <trkpt lat="42.67577" lon="-0.515">
        <ele>1541</ele>
        <time>2018-12-27T01:55:47Z</time>
      </trkpt>
      <trkpt lat="42.67585" lon="-0.51489">
        <ele>1543</ele>
        <time>2018-12-27T01:55:50Z</time>
      </trkpt>
      <trkpt lat="42.67591" lon="-0.51473">
        <ele>1546</ele>
        <time>2018-12-27T01:55:54Z</time>
      </trkpt>
      <trkpt lat="42.67591" lon="-0.5147">
        <ele>1548</ele>
        <time>2018-12-27T01:55:55Z</time>
      </trkpt>
      <trkpt lat="42.67587" lon="-0.5147">
        <ele>1549</ele>
        <time>2018-12-27T01:55:56Z</time>
      </trkpt>
      <trkpt lat="42.67577" lon="-0.51476">
        <ele>1548</ele>
        <time>2018-12-27T01:55:59Z</time>
      </trkpt>
      <trkpt lat="42.67571" lon="-0.51476">
        <ele>1549</ele>
        <time>2018-12-27T01:56:00Z</time>
      </trkpt>
      <trkpt lat="42.67541" lon="-0.51471">
        <ele>1555</ele>
        <time>2018-12-27T01:56:08Z</time>
      </trkpt>
      <trkpt lat="42.67534" lon="-0.51468">
        <ele>1558</ele>
        <time>2018-12-27T01:56:10Z</time>
      </trkpt>
      <trkpt lat="42.67527" lon="-0.51464">
        <ele>1561</ele>
        <time>2018-12-27T01:56:12Z</time>
      </trkpt>
      <trkpt lat="42.67528" lon="-0.51461">
        <ele>1562</ele>
        <time>2018-12-27T01:56:13Z</time>
      </trkpt>
      <trkpt lat="42.67541" lon="-0.51457">
        <ele>1561</ele>
        <time>2018-12-27T01:56:16Z</time>
      </trkpt>
      <trkpt lat="42.67547" lon="-0.51453">
        <ele>1562</ele>
        <time>2018-12-27T01:56:18Z</time>
      </trkpt>
      <trkpt lat="42.67562" lon="-0.51435">
        <ele>1570</ele>
        <time>2018-12-27T01:56:23Z</time>
      </trkpt>
      <trkpt lat="42.67566" lon="-0.51428">
        <ele>1573</ele>
        <time>2018-12-27T01:56:25Z</time>
      </trkpt>
      <trkpt lat="42.67562" lon="-0.51426">
        <ele>1575</ele>
        <time>2018-12-27T01:56:27Z</time>
      </trkpt>
      <trkpt lat="42.67555" lon="-0.5143">
        <ele>1574</ele>
        <time>2018-12-27T01:56:29Z</time>
      </trkpt>
      <trkpt lat="42.67548" lon="-0.5143">
        <ele>1575</ele>
        <time>2018-12-27T01:56:30Z</time>
      </trkpt>
      <trkpt lat="42.67535" lon="-0.51425">
        <ele>1577</ele>
        <time>2018-12-27T01:56:34Z</time>
      </trkpt>
      <trkpt lat="42.67527" lon="-0.51417">
        <ele>1580</ele>
        <time>2018-12-27T01:56:37Z</time>
      </trkpt>
      <trkpt lat="42.67528" lon="-0.51416">
        <ele>1581</ele>
        <time>2018-12-27T01:56:37Z</time>
      </trkpt>
      <trkpt lat="42.67533" lon="-0.51417">
        <ele>1581</ele>
        <time>2018-12-27T01:56:38Z</time>
      </trkpt>
      <trkpt lat="42.67548" lon="-0.51409">
        <ele>1585</ele>
        <time>2018-12-27T01:56:42Z</time>
      </trkpt>
      <trkpt lat="42.67551" lon="-0.51406">
        <ele>1586</ele>
        <time>2018-12-27T01:56:44Z</time>
      </trkpt>
      <trkpt lat="42.67555" lon="-0.51398">
        <ele>1589</ele>
        <time>2018-12-27T01:56:45Z</time>
      </trkpt>
      <trkpt lat="42.67553" lon="-0.51396">
        <ele>1589</ele>
        <time>2018-12-27T01:56:46Z</time>
      </trkpt>
      <trkpt lat="42.67545" lon="-0.51395">
        <ele>1589</ele>
        <time>2018-12-27T01:56:48Z</time>
      </trkpt>
      <trkpt lat="42.67539" lon="-0.51388">
        <ele>1592</ele>
        <time>2018-12-27T01:56:50Z</time>
      </trkpt>
      <trkpt lat="42.67525" lon="-0.51365">
        <ele>1596</ele>
        <time>2018-12-27T01:56:56Z</time>
      </trkpt>
      <trkpt lat="42.67515" lon="-0.51342">
        <ele>1599</ele>
        <time>2018-12-27T01:57:01Z</time>
      </trkpt>
      <trkpt lat="42.67515" lon="-0.51338">
        <ele>1600</ele>
        <time>2018-12-27T01:57:02Z</time>
      </trkpt>
      <trkpt lat="42.67526" lon="-0.51339">
        <ele>1602</ele>
        <time>2018-12-27T01:57:05Z</time>
      </trkpt>
      <trkpt lat="42.67534" lon="-0.5133">
        <ele>1604</ele>
        <time>2018-12-27T01:57:08Z</time>
      </trkpt>
      <trkpt lat="42.67539" lon="-0.51322">
        <ele>1607</ele>
        <time>2018-12-27T01:57:10Z</time>
      </trkpt>
      <trkpt lat="42.67541" lon="-0.51308">
        <ele>1610</ele>
        <time>2018-12-27T01:57:13Z</time>
      </trkpt>
      <trkpt lat="42.67542" lon="-0.51297">
        <ele>1611</ele>
        <time>2018-12-27T01:57:15Z</time>
      </trkpt>
      <trkpt lat="42.6754" lon="-0.51262">
        <ele>1615</ele>
        <time>2018-12-27T01:57:22Z</time>
      </trkpt>
      <trkpt lat="42.67532" lon="-0.51239">
        <ele>1619</ele>
        <time>2018-12-27T01:57:27Z</time>
      </trkpt>
      <trkpt lat="42.67526" lon="-0.51226">
        <ele>1621</ele>
        <time>2018-12-27T01:57:30Z</time>
      </trkpt>
      <trkpt lat="42.6752" lon="-0.51219">
        <ele>1622</ele>
        <time>2018-12-27T01:57:32Z</time>
      </trkpt>
      <trkpt lat="42.67508" lon="-0.51209">
        <ele>1622</ele>
        <time>2018-12-27T01:57:36Z</time>
      </trkpt>
      <trkpt lat="42.67499" lon="-0.51194">
        <ele>1623</ele>
        <time>2018-12-27T01:57:40Z</time>
      </trkpt>
      <trkpt lat="42.6749" lon="-0.51183">
        <ele>1623</ele>
        <time>2018-12-27T01:57:43Z</time>
      </trkpt>
      <trkpt lat="42.67472" lon="-0.51164">
        <ele>1623</ele>
        <time>2018-12-27T01:57:49Z</time>
      </trkpt>
      <trkpt lat="42.67463" lon="-0.51152">
        <ele>1622</ele>
        <time>2018-12-27T01:57:52Z</time>
      </trkpt>
      <trkpt lat="42.6745" lon="-0.51127">
        <ele>1624</ele>
        <time>2018-12-27T01:57:58Z</time>
      </trkpt>
      <trkpt lat="42.67436" lon="-0.5111">
        <ele>1625</ele>
        <time>2018-12-27T01:58:03Z</time>
      </trkpt>
      <trkpt lat="42.67423" lon="-0.51091">
        <ele>1626</ele>
        <time>2018-12-27T01:58:08Z</time>
      </trkpt>
      <trkpt lat="42.67414" lon="-0.51074">
        <ele>1626</ele>
        <time>2018-12-27T01:58:12Z</time>
      </trkpt>
      <trkpt lat="42.67399" lon="-0.51057">
        <ele>1624</ele>
        <time>2018-12-27T01:58:18Z</time>
      </trkpt>
      <trkpt lat="42.67392" lon="-0.5104">
        <ele>1625</ele>
        <time>2018-12-27T01:58:21Z</time>
      </trkpt>
      <trkpt lat="42.6739" lon="-0.51034">
        <ele>1626</ele>
        <time>2018-12-27T01:58:23Z</time>
      </trkpt>
      <trkpt lat="42.67392" lon="-0.51032">
        <ele>1626</ele>
        <time>2018-12-27T01:58:23Z</time>
      </trkpt>
      <trkpt lat="42.6739" lon="-0.51027">
        <ele>1627</ele>
        <time>2018-12-27T01:58:24Z</time>
      </trkpt>
      <trkpt lat="42.67386" lon="-0.5102">
        <ele>1627</ele>
        <time>2018-12-27T01:58:26Z</time>
      </trkpt>
      <trkpt lat="42.67374" lon="-0.50992">
        <ele>1631</ele>
        <time>2018-12-27T01:58:33Z</time>
      </trkpt>
      <trkpt lat="42.67351" lon="-0.50949">
        <ele>1640</ele>
        <time>2018-12-27T01:58:43Z</time>
      </trkpt>
      <trkpt lat="42.67348" lon="-0.5094">
        <ele>1642</ele>
        <time>2018-12-27T01:58:45Z</time>
      </trkpt>
      <trkpt lat="42.67339" lon="-0.50921">
        <ele>1646</ele>
        <time>2018-12-27T01:58:49Z</time>
      </trkpt>
      <trkpt lat="42.67325" lon="-0.50904">
        <ele>1650</ele>
        <time>2018-12-27T01:58:54Z</time>
      </trkpt>
      <trkpt lat="42.6732" lon="-0.509">
        <ele>1651</ele>
        <time>2018-12-27T01:58:56Z</time>
      </trkpt>
      <trkpt lat="42.67312" lon="-0.50888">
        <ele>1654</ele>
        <time>2018-12-27T01:58:59Z</time>
      </trkpt>
      <trkpt lat="42.67296" lon="-0.50859">
        <ele>1662</ele>
        <time>2018-12-27T01:59:06Z</time>
      </trkpt>
      <trkpt lat="42.67288" lon="-0.50833">
        <ele>1668</ele>
        <time>2018-12-27T01:59:12Z</time>
      </trkpt>
      <trkpt lat="42.67279" lon="-0.50827">
        <ele>1671</ele>
        <time>2018-12-27T01:59:14Z</time>
      </trkpt>
      <trkpt lat="42.67272" lon="-0.50813">
        <ele>1675</ele>
        <time>2018-12-27T01:59:18Z</time>
      </trkpt>
      <trkpt lat="42.67261" lon="-0.50798">
        <ele>1678</ele>
        <time>2018-12-27T01:59:22Z</time>
      </trkpt>
      <trkpt lat="42.67255" lon="-0.50786">
        <ele>1681</ele>
        <time>2018-12-27T01:59:25Z</time>
      </trkpt>
      <trkpt lat="42.67249" lon="-0.50779">
        <ele>1683</ele>
        <time>2018-12-27T01:59:27Z</time>
      </trkpt>
      <trkpt lat="42.6723" lon="-0.50745">
        <ele>1689</ele>
        <time>2018-12-27T01:59:35Z</time>
      </trkpt>
      <trkpt lat="42.67228" lon="-0.50733">
        <ele>1691</ele>
        <time>2018-12-27T01:59:38Z</time>
      </trkpt>
      <trkpt lat="42.67226" lon="-0.50726">
        <ele>1692</ele>
        <time>2018-12-27T01:59:39Z</time>
      </trkpt>
      <trkpt lat="42.67224" lon="-0.50704">
        <ele>1694</ele>
        <time>2018-12-27T01:59:44Z</time>
      </trkpt>
      <trkpt lat="42.6722" lon="-0.50688">
        <ele>1694</ele>
        <time>2018-12-27T01:59:47Z</time>
      </trkpt>
      <trkpt lat="42.67215" lon="-0.5068">
        <ele>1694</ele>
        <time>2018-12-27T01:59:49Z</time>
      </trkpt>
      <trkpt lat="42.67215" lon="-0.50673">
        <ele>1694</ele>
        <time>2018-12-27T01:59:50Z</time>
      </trkpt>
      <trkpt lat="42.67211" lon="-0.50648">
        <ele>1695</ele>
        <time>2018-12-27T01:59:55Z</time>
      </trkpt>
      <trkpt lat="42.67207" lon="-0.50615">
        <ele>1695</ele>
        <time>2018-12-27T02:00:02Z</time>
      </trkpt>
      <trkpt lat="42.67184" lon="-0.50542">
        <ele>1700</ele>
        <time>2018-12-27T02:00:17Z</time>
      </trkpt>
      <trkpt lat="42.67183" lon="-0.50531">
        <ele>1701</ele>
        <time>2018-12-27T02:00:20Z</time>
      </trkpt>
      <trkpt lat="42.67177" lon="-0.50509">
        <ele>1702</ele>
        <time>2018-12-27T02:00:24Z</time>
      </trkpt>
      <trkpt lat="42.67168" lon="-0.50461">
        <ele>1704</ele>
        <time>2018-12-27T02:00:34Z</time>
      </trkpt>
      <trkpt lat="42.6716" lon="-0.50439">
        <ele>1704</ele>
        <time>2018-12-27T02:00:39Z</time>
      </trkpt>
      <trkpt lat="42.67155" lon="-0.5043">
        <ele>1705</ele>
        <time>2018-12-27T02:00:41Z</time>
      </trkpt>
      <trkpt lat="42.6714" lon="-0.50385">
        <ele>1714</ele>
        <time>2018-12-27T02:00:51Z</time>
      </trkpt>
      <trkpt lat="42.6714" lon="-0.50366">
        <ele>1719</ele>
        <time>2018-12-27T02:00:54Z</time>
      </trkpt>
      <trkpt lat="42.67132" lon="-0.50352">
        <ele>1720</ele>
        <time>2018-12-27T02:00:58Z</time>
      </trkpt>
      <trkpt lat="42.67127" lon="-0.50312">
        <ele>1726</ele>
        <time>2018-12-27T02:01:06Z</time>
      </trkpt>
      <trkpt lat="42.67124" lon="-0.50306">
        <ele>1727</ele>
        <time>2018-12-27T02:01:07Z</time>
      </trkpt>
      <trkpt lat="42.6712" lon="-0.50276">
        <ele>1732</ele>
        <time>2018-12-27T02:01:13Z</time>
      </trkpt>
      <trkpt lat="42.67123" lon="-0.5023">
        <ele>1740</ele>
        <time>2018-12-27T02:01:22Z</time>
      </trkpt>
      <trkpt lat="42.6712" lon="-0.50216">
        <ele>1742</ele>
        <time>2018-12-27T02:01:25Z</time>
      </trkpt>
      <trkpt lat="42.67123" lon="-0.50203">
        <ele>1745</ele>
        <time>2018-12-27T02:01:28Z</time>
      </trkpt>
      <trkpt lat="42.67125" lon="-0.50198">
        <ele>1746</ele>
        <time>2018-12-27T02:01:29Z</time>
      </trkpt>
      <trkpt lat="42.67122" lon="-0.50177">
        <ele>1749</ele>
        <time>2018-12-27T02:01:33Z</time>
      </trkpt>
      <trkpt lat="42.67122" lon="-0.50165">
        <ele>1751</ele>
        <time>2018-12-27T02:01:35Z</time>
      </trkpt>
      <trkpt lat="42.67126" lon="-0.50138">
        <ele>1755</ele>
        <time>2018-12-27T02:01:41Z</time>
      </trkpt>
      <trkpt lat="42.67132" lon="-0.50116">
        <ele>1758</ele>
        <time>2018-12-27T02:01:45Z</time>
      </trkpt>
      <trkpt lat="42.67133" lon="-0.50103">
        <ele>1761</ele>
        <time>2018-12-27T02:01:48Z</time>
      </trkpt>
      <trkpt lat="42.67131" lon="-0.50079">
        <ele>1765</ele>
        <time>2018-12-27T02:01:53Z</time>
      </trkpt>
      <trkpt lat="42.67132" lon="-0.50071">
        <ele>1766</ele>
        <time>2018-12-27T02:01:54Z</time>
      </trkpt>
      <trkpt lat="42.67128" lon="-0.50037">
        <ele>1771</ele>
        <time>2018-12-27T02:02:01Z</time>
      </trkpt>
      <trkpt lat="42.67129" lon="-0.50019">
        <ele>1776</ele>
        <time>2018-12-27T02:02:05Z</time>
      </trkpt>
      <trkpt lat="42.67125" lon="-0.50003">
        <ele>1781</ele>
        <time>2018-12-27T02:02:08Z</time>
      </trkpt>
      <trkpt lat="42.67127" lon="-0.49977">
        <ele>1789</ele>
        <time>2018-12-27T02:02:13Z</time>
      </trkpt>
      <trkpt lat="42.67122" lon="-0.49962">
        <ele>1793</ele>
        <time>2018-12-27T02:02:16Z</time>
      </trkpt>
      <trkpt lat="42.67122" lon="-0.49952">
        <ele>1795</ele>
        <time>2018-12-27T02:02:18Z</time>
      </trkpt>
      <trkpt lat="42.67117" lon="-0.49947">
        <ele>1796</ele>
        <time>2018-12-27T02:02:20Z</time>
      </trkpt>
      <trkpt lat="42.67116" lon="-0.49942">
        <ele>1797</ele>
        <time>2018-12-27T02:02:21Z</time>
      </trkpt>
      <trkpt lat="42.67112" lon="-0.4992">
        <ele>1802</ele>
        <time>2018-12-27T02:02:25Z</time>
      </trkpt>
      <trkpt lat="42.67114" lon="-0.49908">
        <ele>1805</ele>
        <time>2018-12-27T02:02:28Z</time>
      </trkpt>
      <trkpt lat="42.67111" lon="-0.49898">
        <ele>1807</ele>
        <time>2018-12-27T02:02:30Z</time>
      </trkpt>
      <trkpt lat="42.67109" lon="-0.49881">
        <ele>1811</ele>
        <time>2018-12-27T02:02:33Z</time>
      </trkpt>
      <trkpt lat="42.67105" lon="-0.49871">
        <ele>1813</ele>
        <time>2018-12-27T02:02:35Z</time>
      </trkpt>
      <trkpt lat="42.67105" lon="-0.49856">
        <ele>1818</ele>
        <time>2018-12-27T02:02:38Z</time>
      </trkpt>
      <trkpt lat="42.67107" lon="-0.49848">
        <ele>1820</ele>
        <time>2018-12-27T02:02:40Z</time>
      </trkpt>
      <trkpt lat="42.67101" lon="-0.4982">
        <ele>1827</ele>
        <time>2018-12-27T02:02:46Z</time>
      </trkpt>
      <trkpt lat="42.671" lon="-0.49813">
        <ele>1828</ele>
        <time>2018-12-27T02:02:47Z</time>
      </trkpt>
      <trkpt lat="42.67101" lon="-0.49804">
        <ele>1831</ele>
        <time>2018-12-27T02:02:49Z</time>
      </trkpt>
      <trkpt lat="42.671" lon="-0.49795">
        <ele>1832</ele>
        <time>2018-12-27T02:02:51Z</time>
      </trkpt>
      <trkpt lat="42.67093" lon="-0.49773">
        <ele>1836</ele>
        <time>2018-12-27T02:02:56Z</time>
      </trkpt>
      <trkpt lat="42.67089" lon="-0.49765">
        <ele>1838</ele>
        <time>2018-12-27T02:02:58Z</time>
      </trkpt>
      <trkpt lat="42.67087" lon="-0.49756">
        <ele>1839</ele>
        <time>2018-12-27T02:02:59Z</time>
      </trkpt>
      <trkpt lat="42.67086" lon="-0.49731">
        <ele>1843</ele>
        <time>2018-12-27T02:03:04Z</time>
      </trkpt>
      <trkpt lat="42.67084" lon="-0.49719">
        <ele>1845</ele>
        <time>2018-12-27T02:03:07Z</time>
      </trkpt>
      <trkpt lat="42.67082" lon="-0.49716">
        <ele>1845</ele>
        <time>2018-12-27T02:03:08Z</time>
      </trkpt>
      <trkpt lat="42.67076" lon="-0.49712">
        <ele>1845</ele>
        <time>2018-12-27T02:03:09Z</time>
      </trkpt>
      <trkpt lat="42.67074" lon="-0.49708">
        <ele>1845</ele>
        <time>2018-12-27T02:03:10Z</time>
      </trkpt>
      <trkpt lat="42.67072" lon="-0.49701">
        <ele>1846</ele>
        <time>2018-12-27T02:03:12Z</time>
      </trkpt>
      <trkpt lat="42.67067" lon="-0.49689">
        <ele>1847</ele>
        <time>2018-12-27T02:03:14Z</time>
      </trkpt>
      <trkpt lat="42.67064" lon="-0.49671">
        <ele>1850</ele>
        <time>2018-12-27T02:03:18Z</time>
      </trkpt>
      <trkpt lat="42.67064" lon="-0.49664">
        <ele>1851</ele>
        <time>2018-12-27T02:03:20Z</time>
      </trkpt>
      <trkpt lat="42.67061" lon="-0.49643">
        <ele>1853</ele>
        <time>2018-12-27T02:03:24Z</time>
      </trkpt>
      <trkpt lat="42.67054" lon="-0.49624">
        <ele>1856</ele>
        <time>2018-12-27T02:03:28Z</time>
      </trkpt>
      <trkpt lat="42.67048" lon="-0.49612">
        <ele>1856</ele>
        <time>2018-12-27T02:03:31Z</time>
      </trkpt>
      <trkpt lat="42.67045" lon="-0.49593">
        <ele>1858</ele>
        <time>2018-12-27T02:03:35Z</time>
      </trkpt>
      <trkpt lat="42.67046" lon="-0.49574">
        <ele>1859</ele>
        <time>2018-12-27T02:03:38Z</time>
      </trkpt>
      <trkpt lat="42.67043" lon="-0.49552">
        <ele>1860</ele>
        <time>2018-12-27T02:03:43Z</time>
      </trkpt>
      <trkpt lat="42.67042" lon="-0.49514">
        <ele>1864</ele>
        <time>2018-12-27T02:03:50Z</time>
      </trkpt>
      <trkpt lat="42.67043" lon="-0.49505">
        <ele>1865</ele>
        <time>2018-12-27T02:03:52Z</time>
      </trkpt>
      <trkpt lat="42.67046" lon="-0.49442">
        <ele>1868</ele>
        <time>2018-12-27T02:04:04Z</time>
      </trkpt>
      <trkpt lat="42.67042" lon="-0.49426">
        <ele>1869</ele>
        <time>2018-12-27T02:04:08Z</time>
      </trkpt>
      <trkpt lat="42.67042" lon="-0.49393">
        <ele>1872</ele>
        <time>2018-12-27T02:04:14Z</time>
      </trkpt>
      <trkpt lat="42.6704" lon="-0.49389">
        <ele>1872</ele>
        <time>2018-12-27T02:04:15Z</time>
      </trkpt>
      <trkpt lat="42.67044" lon="-0.49327">
        <ele>1879</ele>
        <time>2018-12-27T02:04:27Z</time>
      </trkpt>
      <trkpt lat="42.67044" lon="-0.49278">
        <ele>1888</ele>
        <time>2018-12-27T02:04:37Z</time>
      </trkpt>
      <trkpt lat="42.67042" lon="-0.49263">
        <ele>1890</ele>
        <time>2018-12-27T02:04:40Z</time>
      </trkpt>
      <trkpt lat="42.67043" lon="-0.49253">
        <ele>1892</ele>
        <time>2018-12-27T02:04:42Z</time>
      </trkpt>
      <trkpt lat="42.67035" lon="-0.49195">
        <ele>1895</ele>
        <time>2018-12-27T02:04:53Z</time>
      </trkpt>
      <trkpt lat="42.67038" lon="-0.4919">
        <ele>1894</ele>
        <time>2018-12-27T02:04:55Z</time>
      </trkpt>
      <trkpt lat="42.67034" lon="-0.49181">
        <ele>1894</ele>
        <time>2018-12-27T02:04:57Z</time>
      </trkpt>
      <trkpt lat="42.67031" lon="-0.49171">
        <ele>1894</ele>
        <time>2018-12-27T02:04:59Z</time>
      </trkpt>
      <trkpt lat="42.67028" lon="-0.49149">
        <ele>1895</ele>
        <time>2018-12-27T02:05:03Z</time>
      </trkpt>
      <trkpt lat="42.67023" lon="-0.49139">
        <ele>1894</ele>
        <time>2018-12-27T02:05:06Z</time>
      </trkpt>
      <trkpt lat="42.67013" lon="-0.49106">
        <ele>1894</ele>
        <time>2018-12-27T02:05:13Z</time>
      </trkpt>
      <trkpt lat="42.67005" lon="-0.49086">
        <ele>1892</ele>
        <time>2018-12-27T02:05:17Z</time>
      </trkpt>
      <trkpt lat="42.66999" lon="-0.49045">
        <ele>1893</ele>
        <time>2018-12-27T02:05:25Z</time>
      </trkpt>
      <trkpt lat="42.66995" lon="-0.49027">
        <ele>1893</ele>
        <time>2018-12-27T02:05:29Z</time>
      </trkpt>
      <trkpt lat="42.6699" lon="-0.49015">
        <ele>1892</ele>
        <time>2018-12-27T02:05:32Z</time>
      </trkpt>
      <trkpt lat="42.66985" lon="-0.48971">
        <ele>1891</ele>
        <time>2018-12-27T02:05:40Z</time>
      </trkpt>
      <trkpt lat="42.66977" lon="-0.48938">
        <ele>1893</ele>
        <time>2018-12-27T02:05:47Z</time>
      </trkpt>
      <trkpt lat="42.66976" lon="-0.48901">
        <ele>1896</ele>
        <time>2018-12-27T02:05:55Z</time>
      </trkpt>
      <trkpt lat="42.6698" lon="-0.48891">
        <ele>1897</ele>
        <time>2018-12-27T02:05:57Z</time>
      </trkpt>
      <trkpt lat="42.66987" lon="-0.48868">
        <ele>1899</ele>
        <time>2018-12-27T02:06:02Z</time>
      </trkpt>
      <trkpt lat="42.66988" lon="-0.48854">
        <ele>1899</ele>
        <time>2018-12-27T02:06:04Z</time>
      </trkpt>
      <trkpt lat="42.66994" lon="-0.48826">
        <ele>1902</ele>
        <time>2018-12-27T02:06:10Z</time>
      </trkpt>
      <trkpt lat="42.67" lon="-0.4882">
        <ele>1903</ele>
        <time>2018-12-27T02:06:12Z</time>
      </trkpt>
      <trkpt lat="42.67002" lon="-0.48811">
        <ele>1904</ele>
        <time>2018-12-27T02:06:14Z</time>
      </trkpt>
      <trkpt lat="42.67001" lon="-0.48803">
        <ele>1905</ele>
        <time>2018-12-27T02:06:16Z</time>
      </trkpt>
      <trkpt lat="42.67011" lon="-0.48781">
        <ele>1906</ele>
        <time>2018-12-27T02:06:21Z</time>
      </trkpt>
      <trkpt lat="42.67017" lon="-0.48767">
        <ele>1907</ele>
        <time>2018-12-27T02:06:24Z</time>
      </trkpt>
      <trkpt lat="42.6702" lon="-0.48751">
        <ele>1908</ele>
        <time>2018-12-27T02:06:27Z</time>
      </trkpt>
      <trkpt lat="42.6702" lon="-0.48743">
        <ele>1909</ele>
        <time>2018-12-27T02:06:29Z</time>
      </trkpt>
      <trkpt lat="42.67021" lon="-0.48736">
        <ele>1910</ele>
        <time>2018-12-27T02:06:30Z</time>
      </trkpt>
      <trkpt lat="42.67028" lon="-0.48729">
        <ele>1912</ele>
        <time>2018-12-27T02:06:32Z</time>
      </trkpt>
      <trkpt lat="42.67042" lon="-0.48657">
        <ele>1915</ele>
        <time>2018-12-27T02:06:47Z</time>
      </trkpt>
      <trkpt lat="42.67033" lon="-0.48593">
        <ele>1913</ele>
        <time>2018-12-27T02:07:00Z</time>
      </trkpt>
      <trkpt lat="42.67024" lon="-0.48552">
        <ele>1917</ele>
        <time>2018-12-27T02:07:08Z</time>
      </trkpt>
      <trkpt lat="42.67023" lon="-0.48541">
        <ele>1918</ele>
        <time>2018-12-27T02:07:10Z</time>
      </trkpt>
      <trkpt lat="42.67013" lon="-0.4851">
        <ele>1919</ele>
        <time>2018-12-27T02:07:17Z</time>
      </trkpt>
      <trkpt lat="42.67011" lon="-0.48455">
        <ele>1924</ele>
        <time>2018-12-27T02:07:28Z</time>
      </trkpt>
      <trkpt lat="42.67007" lon="-0.48437">
        <ele>1926</ele>
        <time>2018-12-27T02:07:31Z</time>
      </trkpt>
      <trkpt lat="42.67008" lon="-0.48425">
        <ele>1928</ele>
        <time>2018-12-27T02:07:34Z</time>
      </trkpt>
      <trkpt lat="42.67011" lon="-0.48418">
        <ele>1929</ele>
        <time>2018-12-27T02:07:35Z</time>
      </trkpt>
      <trkpt lat="42.67009" lon="-0.48403">
        <ele>1931</ele>
        <time>2018-12-27T02:07:38Z</time>
      </trkpt>
      <trkpt lat="42.67008" lon="-0.48387">
        <ele>1934</ele>
        <time>2018-12-27T02:07:41Z</time>
      </trkpt>
      <trkpt lat="42.6701" lon="-0.48378">
        <ele>1935</ele>
        <time>2018-12-27T02:07:43Z</time>
      </trkpt>
      <trkpt lat="42.67008" lon="-0.48374">
        <ele>1936</ele>
        <time>2018-12-27T02:07:44Z</time>
      </trkpt>
      <trkpt lat="42.67008" lon="-0.48364">
        <ele>1938</ele>
        <time>2018-12-27T02:07:46Z</time>
      </trkpt>
      <trkpt lat="42.67004" lon="-0.48353">
        <ele>1939</ele>
        <time>2018-12-27T02:07:49Z</time>
      </trkpt>
      <trkpt lat="42.67004" lon="-0.48342">
        <ele>1941</ele>
        <time>2018-12-27T02:07:51Z</time>
      </trkpt>
      <trkpt lat="42.67002" lon="-0.48332">
        <ele>1943</ele>
        <time>2018-12-27T02:07:53Z</time>
      </trkpt>
      <trkpt lat="42.67002" lon="-0.48305">
        <ele>1951</ele>
        <time>2018-12-27T02:07:58Z</time>
      </trkpt>
      <trkpt lat="42.67003" lon="-0.48298">
        <ele>1953</ele>
        <time>2018-12-27T02:08:00Z</time>
      </trkpt>
      <trkpt lat="42.67006" lon="-0.48294">
        <ele>1955</ele>
        <time>2018-12-27T02:08:01Z</time>
      </trkpt>
      <trkpt lat="42.67006" lon="-0.4826">
        <ele>1964</ele>
        <time>2018-12-27T02:08:07Z</time>
      </trkpt>
      <trkpt lat="42.67011" lon="-0.48235">
        <ele>1970</ele>
        <time>2018-12-27T02:08:12Z</time>
      </trkpt>
      <trkpt lat="42.6701" lon="-0.48214">
        <ele>1974</ele>
        <time>2018-12-27T02:08:16Z</time>
      </trkpt>
      <trkpt lat="42.67013" lon="-0.48202">
        <ele>1977</ele>
        <time>2018-12-27T02:08:19Z</time>
      </trkpt>
      <trkpt lat="42.67016" lon="-0.48199">
        <ele>1979</ele>
        <time>2018-12-27T02:08:20Z</time>
      </trkpt>
      <trkpt lat="42.67017" lon="-0.48196">
        <ele>1980</ele>
        <time>2018-12-27T02:08:21Z</time>
      </trkpt>
      <trkpt lat="42.67017" lon="-0.48181">
        <ele>1982</ele>
        <time>2018-12-27T02:08:24Z</time>
      </trkpt>
      <trkpt lat="42.67019" lon="-0.48174">
        <ele>1984</ele>
        <time>2018-12-27T02:08:25Z</time>
      </trkpt>
      <trkpt lat="42.67024" lon="-0.48168">
        <ele>1986</ele>
        <time>2018-12-27T02:08:27Z</time>
      </trkpt>
      <trkpt lat="42.6703" lon="-0.48146">
        <ele>1989</ele>
        <time>2018-12-27T02:08:31Z</time>
      </trkpt>
      <trkpt lat="42.67039" lon="-0.48126">
        <ele>1989</ele>
        <time>2018-12-27T02:08:36Z</time>
      </trkpt>
      <trkpt lat="42.67063" lon="-0.48085">
        <ele>1989</ele>
        <time>2018-12-27T02:08:46Z</time>
      </trkpt>
      <trkpt lat="42.671" lon="-0.48029">
        <ele>1993</ele>
        <time>2018-12-27T02:09:01Z</time>
      </trkpt>
      <trkpt lat="42.67127" lon="-0.47995">
        <ele>1996</ele>
        <time>2018-12-27T02:09:11Z</time>
      </trkpt>
      <trkpt lat="42.67135" lon="-0.47987">
        <ele>1997</ele>
        <time>2018-12-27T02:09:14Z</time>
      </trkpt>
      <trkpt lat="42.67142" lon="-0.47975">
        <ele>1998</ele>
        <time>2018-12-27T02:09:17Z</time>
      </trkpt>
      <trkpt lat="42.67153" lon="-0.47951">
        <ele>1998</ele>
        <time>2018-12-27T02:09:22Z</time>
      </trkpt>
      <trkpt lat="42.67182" lon="-0.47871">
        <ele>2003</ele>
        <time>2018-12-27T02:09:40Z</time>
      </trkpt>
      <trkpt lat="42.67194" lon="-0.47848">
        <ele>2008</ele>
        <time>2018-12-27T02:09:45Z</time>
      </trkpt>
      <trkpt lat="42.672" lon="-0.47833">
        <ele>2010</ele>
        <time>2018-12-27T02:09:49Z</time>
      </trkpt>
      <trkpt lat="42.6721" lon="-0.47804">
        <ele>2011</ele>
        <time>2018-12-27T02:09:55Z</time>
      </trkpt>
      <trkpt lat="42.67208" lon="-0.47789">
        <ele>2014</ele>
        <time>2018-12-27T02:09:58Z</time>
      </trkpt>
      <trkpt lat="42.6721" lon="-0.47785">
        <ele>2014</ele>
        <time>2018-12-27T02:09:59Z</time>
      </trkpt>
      <trkpt lat="42.67216" lon="-0.47779">
        <ele>2014</ele>
        <time>2018-12-27T02:10:01Z</time>
      </trkpt>
      <trkpt lat="42.67219" lon="-0.47774">
        <ele>2015</ele>
        <time>2018-12-27T02:10:02Z</time>
      </trkpt>
      <trkpt lat="42.67232" lon="-0.47732">
        <ele>2026</ele>
        <time>2018-12-27T02:10:11Z</time>
      </trkpt>
      <trkpt lat="42.67232" lon="-0.47726">
        <ele>2028</ele>
        <time>2018-12-27T02:10:12Z</time>
      </trkpt>
      <trkpt lat="42.67238" lon="-0.47711">
        <ele>2032</ele>
        <time>2018-12-27T02:10:15Z</time>
      </trkpt>
      <trkpt lat="42.6724" lon="-0.47689">
        <ele>2038</ele>
        <time>2018-12-27T02:10:20Z</time>
      </trkpt>
      <trkpt lat="42.67246" lon="-0.47664">
        <ele>2044</ele>
        <time>2018-12-27T02:10:25Z</time>
      </trkpt>
      <trkpt lat="42.67248" lon="-0.4763">
        <ele>2050</ele>
        <time>2018-12-27T02:10:32Z</time>
      </trkpt>
      <trkpt lat="42.67252" lon="-0.47615">
        <ele>2054</ele>
        <time>2018-12-27T02:10:35Z</time>
      </trkpt>
      <trkpt lat="42.67249" lon="-0.47603">
        <ele>2058</ele>
        <time>2018-12-27T02:10:37Z</time>
      </trkpt>
      <trkpt lat="42.67244" lon="-0.47593">
        <ele>2063</ele>
        <time>2018-12-27T02:10:40Z</time>
      </trkpt>
      <trkpt lat="42.67242" lon="-0.47591">
        <ele>2064</ele>
        <time>2018-12-27T02:10:40Z</time>
      </trkpt>
      <trkpt lat="42.67241" lon="-0.47587">
        <ele>2066</ele>
        <time>2018-12-27T02:10:41Z</time>
      </trkpt>
      <trkpt lat="42.67237" lon="-0.47582">
        <ele>2068</ele>
        <time>2018-12-27T02:10:43Z</time>
      </trkpt>
      <trkpt lat="42.67236" lon="-0.47575">
        <ele>2070</ele>
        <time>2018-12-27T02:10:44Z</time>
      </trkpt>
      <trkpt lat="42.67228" lon="-0.47558">
        <ele>2075</ele>
        <time>2018-12-27T02:10:48Z</time>
      </trkpt>
      <trkpt lat="42.67226" lon="-0.47549">
        <ele>2077</ele>
        <time>2018-12-27T02:10:50Z</time>
      </trkpt>
      <trkpt lat="42.67226" lon="-0.4754">
        <ele>2079</ele>
        <time>2018-12-27T02:10:52Z</time>
      </trkpt>
      <trkpt lat="42.6722" lon="-0.47535">
        <ele>2081</ele>
        <time>2018-12-27T02:10:53Z</time>
      </trkpt>
      <trkpt lat="42.67223" lon="-0.47506">
        <ele>2089</ele>
        <time>2018-12-27T02:10:59Z</time>
      </trkpt>
      <trkpt lat="42.67221" lon="-0.47471">
        <ele>2101</ele>
        <time>2018-12-27T02:11:06Z</time>
      </trkpt>
      <trkpt lat="42.67222" lon="-0.47458">
        <ele>2104</ele>
        <time>2018-12-27T02:11:09Z</time>
      </trkpt>
      <trkpt lat="42.6722" lon="-0.47446">
        <ele>2108</ele>
        <time>2018-12-27T02:11:11Z</time>
      </trkpt>
      <trkpt lat="42.67222" lon="-0.47429">
        <ele>2110</ele>
        <time>2018-12-27T02:11:14Z</time>
      </trkpt>
      <trkpt lat="42.67218" lon="-0.47414">
        <ele>2114</ele>
        <time>2018-12-27T02:11:18Z</time>
      </trkpt>
      <trkpt lat="42.67219" lon="-0.47401">
        <ele>2116</ele>
        <time>2018-12-27T02:11:20Z</time>
      </trkpt>
      <trkpt lat="42.67221" lon="-0.47394">
        <ele>2117</ele>
        <time>2018-12-27T02:11:21Z</time>
      </trkpt>
      <trkpt lat="42.67221" lon="-0.47381">
        <ele>2118</ele>
        <time>2018-12-27T02:11:24Z</time>
      </trkpt>
      <trkpt lat="42.67224" lon="-0.47375">
        <ele>2118</ele>
        <time>2018-12-27T02:11:26Z</time>
      </trkpt>
      <trkpt lat="42.67232" lon="-0.47365">
        <ele>2119</ele>
        <time>2018-12-27T02:11:29Z</time>
      </trkpt>
      <trkpt lat="42.67261" lon="-0.47337">
        <ele>2120</ele>
        <time>2018-12-27T02:11:38Z</time>
      </trkpt>
      <trkpt lat="42.67296" lon="-0.47298">
        <ele>2123</ele>
        <time>2018-12-27T02:11:50Z</time>
      </trkpt>
      <trkpt lat="42.6732" lon="-0.47265">
        <ele>2123</ele>
        <time>2018-12-27T02:11:59Z</time>
      </trkpt>
      <trkpt lat="42.67337" lon="-0.47238">
        <ele>2125</ele>
        <time>2018-12-27T02:12:06Z</time>
      </trkpt>
      <trkpt lat="42.6736" lon="-0.4721">
        <ele>2126</ele>
        <time>2018-12-27T02:12:14Z</time>
      </trkpt>
      <trkpt lat="42.67373" lon="-0.47186">
        <ele>2124</ele>
        <time>2018-12-27T02:12:20Z</time>
      </trkpt>
      <trkpt lat="42.67383" lon="-0.47171">
        <ele>2123</ele>
        <time>2018-12-27T02:12:24Z</time>
      </trkpt>
      <trkpt lat="42.67434" lon="-0.47117">
        <ele>2124</ele>
        <time>2018-12-27T02:12:42Z</time>
      </trkpt>
      <trkpt lat="42.67473" lon="-0.47094">
        <ele>2125</ele>
        <time>2018-12-27T02:12:53Z</time>
      </trkpt>
      <trkpt lat="42.675" lon="-0.47073">
        <ele>2124</ele>
        <time>2018-12-27T02:13:01Z</time>
      </trkpt>
      <trkpt lat="42.67513" lon="-0.47066">
        <ele>2124</ele>
        <time>2018-12-27T02:13:05Z</time>
      </trkpt>
      <trkpt lat="42.67557" lon="-0.47048">
        <ele>2124</ele>
        <time>2018-12-27T02:13:17Z</time>
      </trkpt>
      <trkpt lat="42.67569" lon="-0.47047">
        <ele>2124</ele>
        <time>2018-12-27T02:13:20Z</time>
      </trkpt>
      <trkpt lat="42.67604" lon="-0.47031">
        <ele>2121</ele>
        <time>2018-12-27T02:13:30Z</time>
      </trkpt>
      <trkpt lat="42.67623" lon="-0.47025">
        <ele>2121</ele>
        <time>2018-12-27T02:13:35Z</time>
      </trkpt>
      <trkpt lat="42.67646" lon="-0.47012">
        <ele>2122</ele>
        <time>2018-12-27T02:13:42Z</time>
      </trkpt>
      <trkpt lat="42.67667" lon="-0.46996">
        <ele>2123</ele>
        <time>2018-12-27T02:13:48Z</time>
      </trkpt>
      <trkpt lat="42.67678" lon="-0.46991">
        <ele>2123</ele>
        <time>2018-12-27T02:13:51Z</time>
      </trkpt>
      <trkpt lat="42.67706" lon="-0.46963">
        <ele>2129</ele>
        <time>2018-12-27T02:14:01Z</time>
      </trkpt>
      <trkpt lat="42.67712" lon="-0.46955">
        <ele>2131</ele>
        <time>2018-12-27T02:14:03Z</time>
      </trkpt>
      <trkpt lat="42.67717" lon="-0.46951">
        <ele>2133</ele>
        <time>2018-12-27T02:14:05Z</time>
      </trkpt>
      <trkpt lat="42.67723" lon="-0.46945">
        <ele>2135</ele>
        <time>2018-12-27T02:14:07Z</time>
      </trkpt>
      <trkpt lat="42.67729" lon="-0.46941">
        <ele>2135</ele>
        <time>2018-12-27T02:14:08Z</time>
      </trkpt>
      <trkpt lat="42.67735" lon="-0.46934">
        <ele>2136</ele>
        <time>2018-12-27T02:14:11Z</time>
      </trkpt>
      <trkpt lat="42.67742" lon="-0.46929">
        <ele>2137</ele>
        <time>2018-12-27T02:14:13Z</time>
      </trkpt>
      <trkpt lat="42.67745" lon="-0.46928">
        <ele>2137</ele>
        <time>2018-12-27T02:14:13Z</time>
      </trkpt>
      <trkpt lat="42.67755" lon="-0.46917">
        <ele>2140</ele>
        <time>2018-12-27T02:14:17Z</time>
      </trkpt>
      <trkpt lat="42.67761" lon="-0.46913">
        <ele>2141</ele>
        <time>2018-12-27T02:14:19Z</time>
      </trkpt>
      <trkpt lat="42.6777" lon="-0.46901">
        <ele>2144</ele>
        <time>2018-12-27T02:14:22Z</time>
      </trkpt>
      <trkpt lat="42.67774" lon="-0.46902">
        <ele>2145</ele>
        <time>2018-12-27T02:14:23Z</time>
      </trkpt>
      <trkpt lat="42.67783" lon="-0.4689">
        <ele>2148</ele>
        <time>2018-12-27T02:14:26Z</time>
      </trkpt>
      <trkpt lat="42.67789" lon="-0.4689">
        <ele>2150</ele>
        <time>2018-12-27T02:14:28Z</time>
      </trkpt>
      <trkpt lat="42.67802" lon="-0.46882">
        <ele>2155</ele>
        <time>2018-12-27T02:14:32Z</time>
      </trkpt>
      <trkpt lat="42.67812" lon="-0.46867">
        <ele>2159</ele>
        <time>2018-12-27T02:14:36Z</time>
      </trkpt>
      <trkpt lat="42.67821" lon="-0.46856">
        <ele>2161</ele>
        <time>2018-12-27T02:14:39Z</time>
      </trkpt>
      <trkpt lat="42.67821" lon="-0.46863">
        <ele>2160</ele>
        <time>2018-12-27T02:14:40Z</time>
      </trkpt>
      <trkpt lat="42.67818" lon="-0.46878">
        <ele>2157</ele>
        <time>2018-12-27T02:14:43Z</time>
      </trkpt>
      <trkpt lat="42.6782" lon="-0.469">
        <ele>2152</ele>
        <time>2018-12-27T02:14:48Z</time>
      </trkpt>
      <trkpt lat="42.67816" lon="-0.4691">
        <ele>2150</ele>
        <time>2018-12-27T02:14:50Z</time>
      </trkpt>
      <trkpt lat="42.67812" lon="-0.46915">
        <ele>2149</ele>
        <time>2018-12-27T02:14:51Z</time>
      </trkpt>
      <trkpt lat="42.67808" lon="-0.46932">
        <ele>2146</ele>
        <time>2018-12-27T02:14:55Z</time>
      </trkpt>
      <trkpt lat="42.67811" lon="-0.4695">
        <ele>2142</ele>
        <time>2018-12-27T02:14:59Z</time>
      </trkpt>
      <trkpt lat="42.67813" lon="-0.46954">
        <ele>2141</ele>
        <time>2018-12-27T02:14:59Z</time>
      </trkpt>
      <trkpt lat="42.67821" lon="-0.46963">
        <ele>2138</ele>
        <time>2018-12-27T02:15:02Z</time>
      </trkpt>
      <trkpt lat="42.6783" lon="-0.46969">
        <ele>2136</ele>
        <time>2018-12-27T02:15:05Z</time>
      </trkpt>
      <trkpt lat="42.67837" lon="-0.4698">
        <ele>2131</ele>
        <time>2018-12-27T02:15:08Z</time>
      </trkpt>
      <trkpt lat="42.67842" lon="-0.46995">
        <ele>2125</ele>
        <time>2018-12-27T02:15:11Z</time>
      </trkpt>
      <trkpt lat="42.67844" lon="-0.47025">
        <ele>2114</ele>
        <time>2018-12-27T02:15:17Z</time>
      </trkpt>
      <trkpt lat="42.67848" lon="-0.47036">
        <ele>2111</ele>
        <time>2018-12-27T02:15:19Z</time>
      </trkpt>
      <trkpt lat="42.67858" lon="-0.47047">
        <ele>2107</ele>
        <time>2018-12-27T02:15:23Z</time>
      </trkpt>
      <trkpt lat="42.67856" lon="-0.47063">
        <ele>2105</ele>
        <time>2018-12-27T02:15:26Z</time>
      </trkpt>
      <trkpt lat="42.67857" lon="-0.47068">
        <ele>2104</ele>
        <time>2018-12-27T02:15:27Z</time>
      </trkpt>
      <trkpt lat="42.67862" lon="-0.47071">
        <ele>2104</ele>
        <time>2018-12-27T02:15:28Z</time>
      </trkpt>
      <trkpt lat="42.67867" lon="-0.47083">
        <ele>2102</ele>
        <time>2018-12-27T02:15:31Z</time>
      </trkpt>
      <trkpt lat="42.67868" lon="-0.47096">
        <ele>2100</ele>
        <time>2018-12-27T02:15:34Z</time>
      </trkpt>
      <trkpt lat="42.67873" lon="-0.47111">
        <ele>2098</ele>
        <time>2018-12-27T02:15:37Z</time>
      </trkpt>
      <trkpt lat="42.6789" lon="-0.47142">
        <ele>2086</ele>
        <time>2018-12-27T02:15:44Z</time>
      </trkpt>
      <trkpt lat="42.67898" lon="-0.47151">
        <ele>2078</ele>
        <time>2018-12-27T02:15:47Z</time>
      </trkpt>
      <trkpt lat="42.67897" lon="-0.47163">
        <ele>2075</ele>
        <time>2018-12-27T02:15:49Z</time>
      </trkpt>
      <trkpt lat="42.67901" lon="-0.47168">
        <ele>2072</ele>
        <time>2018-12-27T02:15:51Z</time>
      </trkpt>
      <trkpt lat="42.67903" lon="-0.47175">
        <ele>2069</ele>
        <time>2018-12-27T02:15:52Z</time>
      </trkpt>
      <trkpt lat="42.67917" lon="-0.47197">
        <ele>2061</ele>
        <time>2018-12-27T02:15:58Z</time>
      </trkpt>
      <trkpt lat="42.67939" lon="-0.4726">
        <ele>2054</ele>
        <time>2018-12-27T02:16:12Z</time>
      </trkpt>
      <trkpt lat="42.67957" lon="-0.47301">
        <ele>2046</ele>
        <time>2018-12-27T02:16:21Z</time>
      </trkpt>
      <trkpt lat="42.67965" lon="-0.47335">
        <ele>2038</ele>
        <time>2018-12-27T02:16:28Z</time>
      </trkpt>
      <trkpt lat="42.67968" lon="-0.47343">
        <ele>2036</ele>
        <time>2018-12-27T02:16:30Z</time>
      </trkpt>
      <trkpt lat="42.67968" lon="-0.47361">
        <ele>2033</ele>
        <time>2018-12-27T02:16:34Z</time>
      </trkpt>
      <trkpt lat="42.67973" lon="-0.47388">
        <ele>2027</ele>
        <time>2018-12-27T02:16:39Z</time>
      </trkpt>
      <trkpt lat="42.67973" lon="-0.47406">
        <ele>2020</ele>
        <time>2018-12-27T02:16:43Z</time>
      </trkpt>
      <trkpt lat="42.67974" lon="-0.47413">
        <ele>2017</ele>
        <time>2018-12-27T02:16:44Z</time>
      </trkpt>
      <trkpt lat="42.67979" lon="-0.4743">
        <ele>2008</ele>
        <time>2018-12-27T02:16:48Z</time>
      </trkpt>
      <trkpt lat="42.67983" lon="-0.47434">
        <ele>2004</ele>
        <time>2018-12-27T02:16:49Z</time>
      </trkpt>
      <trkpt lat="42.67979" lon="-0.4745">
        <ele>1997</ele>
        <time>2018-12-27T02:16:52Z</time>
      </trkpt>
      <trkpt lat="42.67981" lon="-0.47462">
        <ele>1991</ele>
        <time>2018-12-27T02:16:55Z</time>
      </trkpt>
      <trkpt lat="42.67984" lon="-0.4747">
        <ele>1987</ele>
        <time>2018-12-27T02:16:56Z</time>
      </trkpt>
      <trkpt lat="42.6799" lon="-0.47478">
        <ele>1984</ele>
        <time>2018-12-27T02:16:59Z</time>
      </trkpt>
      <trkpt lat="42.67988" lon="-0.47487">
        <ele>1982</ele>
        <time>2018-12-27T02:17:00Z</time>
      </trkpt>
      <trkpt lat="42.6799" lon="-0.47497">
        <ele>1980</ele>
        <time>2018-12-27T02:17:02Z</time>
      </trkpt>
      <trkpt lat="42.67986" lon="-0.47505">
        <ele>1977</ele>
        <time>2018-12-27T02:17:04Z</time>
      </trkpt>
      <trkpt lat="42.67991" lon="-0.47513">
        <ele>1975</ele>
        <time>2018-12-27T02:17:06Z</time>
      </trkpt>
      <trkpt lat="42.67991" lon="-0.47516">
        <ele>1974</ele>
        <time>2018-12-27T02:17:07Z</time>
      </trkpt>
      <trkpt lat="42.67988" lon="-0.47523">
        <ele>1971</ele>
        <time>2018-12-27T02:17:08Z</time>
      </trkpt>
      <trkpt lat="42.6799" lon="-0.47529">
        <ele>1969</ele>
        <time>2018-12-27T02:17:10Z</time>
      </trkpt>
      <trkpt lat="42.67995" lon="-0.47535">
        <ele>1967</ele>
        <time>2018-12-27T02:17:12Z</time>
      </trkpt>
      <trkpt lat="42.68009" lon="-0.47543">
        <ele>1959</ele>
        <time>2018-12-27T02:17:16Z</time>
      </trkpt>
      <trkpt lat="42.68009" lon="-0.47555">
        <ele>1954</ele>
        <time>2018-12-27T02:17:18Z</time>
      </trkpt>
      <trkpt lat="42.68005" lon="-0.47567">
        <ele>1950</ele>
        <time>2018-12-27T02:17:21Z</time>
      </trkpt>
      <trkpt lat="42.68011" lon="-0.47585">
        <ele>1942</ele>
        <time>2018-12-27T02:17:24Z</time>
      </trkpt>
      <trkpt lat="42.68016" lon="-0.47597">
        <ele>1939</ele>
        <time>2018-12-27T02:17:27Z</time>
      </trkpt>
      <trkpt lat="42.68028" lon="-0.47617">
        <ele>1937</ele>
        <time>2018-12-27T02:17:32Z</time>
      </trkpt>
      <trkpt lat="42.68041" lon="-0.47659">
        <ele>1931</ele>
        <time>2018-12-27T02:17:41Z</time>
      </trkpt>
      <trkpt lat="42.68061" lon="-0.47709">
        <ele>1923</ele>
        <time>2018-12-27T02:17:52Z</time>
      </trkpt>
      <trkpt lat="42.6809" lon="-0.4777">
        <ele>1914</ele>
        <time>2018-12-27T02:18:07Z</time>
      </trkpt>
      <trkpt lat="42.68099" lon="-0.47784">
        <ele>1913</ele>
        <time>2018-12-27T02:18:10Z</time>
      </trkpt>
      <trkpt lat="42.68112" lon="-0.47827">
        <ele>1912</ele>
        <time>2018-12-27T02:18:19Z</time>
      </trkpt>
      <trkpt lat="42.6812" lon="-0.47886">
        <ele>1900</ele>
        <time>2018-12-27T02:18:31Z</time>
      </trkpt>
      <trkpt lat="42.68124" lon="-0.47905">
        <ele>1896</ele>
        <time>2018-12-27T02:18:35Z</time>
      </trkpt>
      <trkpt lat="42.68125" lon="-0.47922">
        <ele>1894</ele>
        <time>2018-12-27T02:18:38Z</time>
      </trkpt>
      <trkpt lat="42.68129" lon="-0.47942">
        <ele>1891</ele>
        <time>2018-12-27T02:18:42Z</time>
      </trkpt>
      <trkpt lat="42.68129" lon="-0.4796">
        <ele>1888</ele>
        <time>2018-12-27T02:18:46Z</time>
      </trkpt>
      <trkpt lat="42.68135" lon="-0.4798">
        <ele>1883</ele>
        <time>2018-12-27T02:18:50Z</time>
      </trkpt>
      <trkpt lat="42.68136" lon="-0.4801">
        <ele>1876</ele>
        <time>2018-12-27T02:18:56Z</time>
      </trkpt>
      <trkpt lat="42.6813" lon="-0.48015">
        <ele>1874</ele>
        <time>2018-12-27T02:18:58Z</time>
      </trkpt>
      <trkpt lat="42.6813" lon="-0.48021">
        <ele>1873</ele>
        <time>2018-12-27T02:18:59Z</time>
      </trkpt>
      <trkpt lat="42.68126" lon="-0.48039">
        <ele>1869</ele>
        <time>2018-12-27T02:19:03Z</time>
      </trkpt>
      <trkpt lat="42.68129" lon="-0.48055">
        <ele>1867</ele>
        <time>2018-12-27T02:19:06Z</time>
      </trkpt>
      <trkpt lat="42.68129" lon="-0.48111">
        <ele>1852</ele>
        <time>2018-12-27T02:19:17Z</time>
      </trkpt>
      <trkpt lat="42.68129" lon="-0.48118">
        <ele>1849</ele>
        <time>2018-12-27T02:19:18Z</time>
      </trkpt>
      <trkpt lat="42.68127" lon="-0.48122">
        <ele>1848</ele>
        <time>2018-12-27T02:19:19Z</time>
      </trkpt>
      <trkpt lat="42.68129" lon="-0.48131">
        <ele>1845</ele>
        <time>2018-12-27T02:19:21Z</time>
      </trkpt>
      <trkpt lat="42.68139" lon="-0.48151">
        <ele>1842</ele>
        <time>2018-12-27T02:19:26Z</time>
      </trkpt>
      <trkpt lat="42.68146" lon="-0.4816">
        <ele>1838</ele>
        <time>2018-12-27T02:19:29Z</time>
      </trkpt>
      <trkpt lat="42.68148" lon="-0.48168">
        <ele>1836</ele>
        <time>2018-12-27T02:19:30Z</time>
      </trkpt>
      <trkpt lat="42.68146" lon="-0.48188">
        <ele>1827</ele>
        <time>2018-12-27T02:19:34Z</time>
      </trkpt>
      <trkpt lat="42.68147" lon="-0.48197">
        <ele>1823</ele>
        <time>2018-12-27T02:19:36Z</time>
      </trkpt>
      <trkpt lat="42.68146" lon="-0.4821">
        <ele>1817</ele>
        <time>2018-12-27T02:19:38Z</time>
      </trkpt>
      <trkpt lat="42.6816" lon="-0.48244">
        <ele>1804</ele>
        <time>2018-12-27T02:19:46Z</time>
      </trkpt>
      <trkpt lat="42.68161" lon="-0.48251">
        <ele>1802</ele>
        <time>2018-12-27T02:19:48Z</time>
      </trkpt>
      <trkpt lat="42.68164" lon="-0.48261">
        <ele>1800</ele>
        <time>2018-12-27T02:19:50Z</time>
      </trkpt>
      <trkpt lat="42.68167" lon="-0.48259">
        <ele>1801</ele>
        <time>2018-12-27T02:19:51Z</time>
      </trkpt>
      <trkpt lat="42.6817" lon="-0.48261">
        <ele>1800</ele>
        <time>2018-12-27T02:19:52Z</time>
      </trkpt>
      <trkpt lat="42.68173" lon="-0.48259">
        <ele>1799</ele>
        <time>2018-12-27T02:19:53Z</time>
      </trkpt>
      <trkpt lat="42.68179" lon="-0.48249">
        <ele>1799</ele>
        <time>2018-12-27T02:19:55Z</time>
      </trkpt>
      <trkpt lat="42.68187" lon="-0.48243">
        <ele>1798</ele>
        <time>2018-12-27T02:19:57Z</time>
      </trkpt>
      <trkpt lat="42.68193" lon="-0.4824">
        <ele>1798</ele>
        <time>2018-12-27T02:19:59Z</time>
      </trkpt>
      <trkpt lat="42.68195" lon="-0.48237">
        <ele>1799</ele>
        <time>2018-12-27T02:20:00Z</time>
      </trkpt>
      <trkpt lat="42.68198" lon="-0.48234">
        <ele>1798</ele>
        <time>2018-12-27T02:20:01Z</time>
      </trkpt>
      <trkpt lat="42.68232" lon="-0.4822">
        <ele>1785</ele>
        <time>2018-12-27T02:20:11Z</time>
      </trkpt>
      <trkpt lat="42.6824" lon="-0.48221">
        <ele>1781</ele>
        <time>2018-12-27T02:20:13Z</time>
      </trkpt>
      <trkpt lat="42.68251" lon="-0.48219">
        <ele>1776</ele>
        <time>2018-12-27T02:20:16Z</time>
      </trkpt>
      <trkpt lat="42.68265" lon="-0.48215">
        <ele>1772</ele>
        <time>2018-12-27T02:20:20Z</time>
      </trkpt>
      <trkpt lat="42.68271" lon="-0.48212">
        <ele>1771</ele>
        <time>2018-12-27T02:20:21Z</time>
      </trkpt>
      <trkpt lat="42.68277" lon="-0.48201">
        <ele>1773</ele>
        <time>2018-12-27T02:20:24Z</time>
      </trkpt>
      <trkpt lat="42.68287" lon="-0.48191">
        <ele>1771</ele>
        <time>2018-12-27T02:20:27Z</time>
      </trkpt>
      <trkpt lat="42.68294" lon="-0.4818">
        <ele>1769</ele>
        <time>2018-12-27T02:20:30Z</time>
      </trkpt>
      <trkpt lat="42.68299" lon="-0.48168">
        <ele>1769</ele>
        <time>2018-12-27T02:20:33Z</time>
      </trkpt>
      <trkpt lat="42.68307" lon="-0.48124">
        <ele>1766</ele>
        <time>2018-12-27T02:20:42Z</time>
      </trkpt>
      <trkpt lat="42.68329" lon="-0.48078">
        <ele>1758</ele>
        <time>2018-12-27T02:20:52Z</time>
      </trkpt>
      <trkpt lat="42.68334" lon="-0.4806">
        <ele>1755</ele>
        <time>2018-12-27T02:20:56Z</time>
      </trkpt>
      <trkpt lat="42.68341" lon="-0.48055">
        <ele>1753</ele>
        <time>2018-12-27T02:20:58Z</time>
      </trkpt>
      <trkpt lat="42.68345" lon="-0.48051">
        <ele>1752</ele>
        <time>2018-12-27T02:21:00Z</time>
      </trkpt>
      <trkpt lat="42.68353" lon="-0.48037">
        <ele>1750</ele>
        <time>2018-12-27T02:21:03Z</time>
      </trkpt>
      <trkpt lat="42.6836" lon="-0.48026">
        <ele>1748</ele>
        <time>2018-12-27T02:21:06Z</time>
      </trkpt>
      <trkpt lat="42.6837" lon="-0.47998">
        <ele>1747</ele>
        <time>2018-12-27T02:21:12Z</time>
      </trkpt>
      <trkpt lat="42.68376" lon="-0.47992">
        <ele>1745</ele>
        <time>2018-12-27T02:21:14Z</time>
      </trkpt>
      <trkpt lat="42.68383" lon="-0.47978">
        <ele>1742</ele>
        <time>2018-12-27T02:21:17Z</time>
      </trkpt>
      <trkpt lat="42.68389" lon="-0.47952">
        <ele>1740</ele>
        <time>2018-12-27T02:21:23Z</time>
      </trkpt>
      <trkpt lat="42.6839" lon="-0.4794">
        <ele>1739</ele>
        <time>2018-12-27T02:21:25Z</time>
      </trkpt>
      <trkpt lat="42.68393" lon="-0.47931">
        <ele>1736</ele>
        <time>2018-12-27T02:21:27Z</time>
      </trkpt>
      <trkpt lat="42.68392" lon="-0.47924">
        <ele>1736</ele>
        <time>2018-12-27T02:21:29Z</time>
      </trkpt>
      <trkpt lat="42.68396" lon="-0.4791">
        <ele>1733</ele>
        <time>2018-12-27T02:21:32Z</time>
      </trkpt>
      <trkpt lat="42.68396" lon="-0.47899">
        <ele>1733</ele>
        <time>2018-12-27T02:21:34Z</time>
      </trkpt>
      <trkpt lat="42.684" lon="-0.47889">
        <ele>1730</ele>
        <time>2018-12-27T02:21:36Z</time>
      </trkpt>
      <trkpt lat="42.68399" lon="-0.47878">
        <ele>1730</ele>
        <time>2018-12-27T02:21:38Z</time>
      </trkpt>
      <trkpt lat="42.68394" lon="-0.47863">
        <ele>1732</ele>
        <time>2018-12-27T02:21:41Z</time>
      </trkpt>
      <trkpt lat="42.68397" lon="-0.47836">
        <ele>1727</ele>
        <time>2018-12-27T02:21:47Z</time>
      </trkpt>
      <trkpt lat="42.68401" lon="-0.47824">
        <ele>1724</ele>
        <time>2018-12-27T02:21:49Z</time>
      </trkpt>
      <trkpt lat="42.68409" lon="-0.47803">
        <ele>1718</ele>
        <time>2018-12-27T02:21:54Z</time>
      </trkpt>
      <trkpt lat="42.68413" lon="-0.4779">
        <ele>1715</ele>
        <time>2018-12-27T02:21:57Z</time>
      </trkpt>
      <trkpt lat="42.6842" lon="-0.47777">
        <ele>1710</ele>
        <time>2018-12-27T02:22:00Z</time>
      </trkpt>
      <trkpt lat="42.68421" lon="-0.47736">
        <ele>1710</ele>
        <time>2018-12-27T02:22:08Z</time>
      </trkpt>
      <trkpt lat="42.68426" lon="-0.47714">
        <ele>1708</ele>
        <time>2018-12-27T02:22:12Z</time>
      </trkpt>
      <trkpt lat="42.68432" lon="-0.47708">
        <ele>1705</ele>
        <time>2018-12-27T02:22:14Z</time>
      </trkpt>
      <trkpt lat="42.68436" lon="-0.47694">
        <ele>1704</ele>
        <time>2018-12-27T02:22:17Z</time>
      </trkpt>
      <trkpt lat="42.68437" lon="-0.47681">
        <ele>1704</ele>
        <time>2018-12-27T02:22:20Z</time>
      </trkpt>
      <trkpt lat="42.68443" lon="-0.47667">
        <ele>1701</ele>
        <time>2018-12-27T02:22:23Z</time>
      </trkpt>
      <trkpt lat="42.68448" lon="-0.47661">
        <ele>1700</ele>
        <time>2018-12-27T02:22:25Z</time>
      </trkpt>
      <trkpt lat="42.68445" lon="-0.47646">
        <ele>1703</ele>
        <time>2018-12-27T02:22:28Z</time>
      </trkpt>
      <trkpt lat="42.68433" lon="-0.4763">
        <ele>1708</ele>
        <time>2018-12-27T02:22:32Z</time>
      </trkpt>
      <trkpt lat="42.68431" lon="-0.47623">
        <ele>1709</ele>
        <time>2018-12-27T02:22:34Z</time>
      </trkpt>
      <trkpt lat="42.68435" lon="-0.47612">
        <ele>1708</ele>
        <time>2018-12-27T02:22:36Z</time>
      </trkpt>
      <trkpt lat="42.68438" lon="-0.47605">
        <ele>1705</ele>
        <time>2018-12-27T02:22:38Z</time>
      </trkpt>
      <trkpt lat="42.68444" lon="-0.47573">
        <ele>1700</ele>
        <time>2018-12-27T02:22:44Z</time>
      </trkpt>
      <trkpt lat="42.68448" lon="-0.47563">
        <ele>1700</ele>
        <time>2018-12-27T02:22:46Z</time>
      </trkpt>
      <trkpt lat="42.6845" lon="-0.47539">
        <ele>1703</ele>
        <time>2018-12-27T02:22:51Z</time>
      </trkpt>
      <trkpt lat="42.68455" lon="-0.47533">
        <ele>1703</ele>
        <time>2018-12-27T02:22:53Z</time>
      </trkpt>
      <trkpt lat="42.68462" lon="-0.47531">
        <ele>1701</ele>
        <time>2018-12-27T02:22:55Z</time>
      </trkpt>
      <trkpt lat="42.68468" lon="-0.47533">
        <ele>1700</ele>
        <time>2018-12-27T02:22:57Z</time>
      </trkpt>
      <trkpt lat="42.6847" lon="-0.47538">
        <ele>1698</ele>
        <time>2018-12-27T02:22:58Z</time>
      </trkpt>
      <trkpt lat="42.68468" lon="-0.47553">
        <ele>1696</ele>
        <time>2018-12-27T02:23:01Z</time>
      </trkpt>
      <trkpt lat="42.68475" lon="-0.47568">
        <ele>1693</ele>
        <time>2018-12-27T02:23:04Z</time>
      </trkpt>
      <trkpt lat="42.68478" lon="-0.47571">
        <ele>1692</ele>
        <time>2018-12-27T02:23:05Z</time>
      </trkpt>
      <trkpt lat="42.68489" lon="-0.47571">
        <ele>1690</ele>
        <time>2018-12-27T02:23:08Z</time>
      </trkpt>
      <trkpt lat="42.68509" lon="-0.47548">
        <ele>1689</ele>
        <time>2018-12-27T02:23:15Z</time>
      </trkpt>
      <trkpt lat="42.68517" lon="-0.47542">
        <ele>1688</ele>
        <time>2018-12-27T02:23:17Z</time>
      </trkpt>
      <trkpt lat="42.68534" lon="-0.47508">
        <ele>1691</ele>
        <time>2018-12-27T02:23:26Z</time>
      </trkpt>
      <trkpt lat="42.68547" lon="-0.47497">
        <ele>1687</ele>
        <time>2018-12-27T02:23:30Z</time>
      </trkpt>
      <trkpt lat="42.68547" lon="-0.47493">
        <ele>1688</ele>
        <time>2018-12-27T02:23:30Z</time>
      </trkpt>
      <trkpt lat="42.68553" lon="-0.47488">
        <ele>1686</ele>
        <time>2018-12-27T02:23:32Z</time>
      </trkpt>
      <trkpt lat="42.68576" lon="-0.47473">
        <ele>1679</ele>
        <time>2018-12-27T02:23:39Z</time>
      </trkpt>
      <trkpt lat="42.68592" lon="-0.47467">
        <ele>1678</ele>
        <time>2018-12-27T02:23:43Z</time>
      </trkpt>
      <trkpt lat="42.68614" lon="-0.47463">
        <ele>1678</ele>
        <time>2018-12-27T02:23:49Z</time>
      </trkpt>
      <trkpt lat="42.68632" lon="-0.4745">
        <ele>1683</ele>
        <time>2018-12-27T02:23:55Z</time>
      </trkpt>
      <trkpt lat="42.68643" lon="-0.47447">
        <ele>1684</ele>
        <time>2018-12-27T02:23:58Z</time>
      </trkpt>
      <trkpt lat="42.68652" lon="-0.47445">
        <ele>1683</ele>
        <time>2018-12-27T02:24:00Z</time>
      </trkpt>
      <trkpt lat="42.68663" lon="-0.47447">
        <ele>1681</ele>
        <time>2018-12-27T02:24:03Z</time>
      </trkpt>
      <trkpt lat="42.68671" lon="-0.47445">
        <ele>1681</ele>
        <time>2018-12-27T02:24:05Z</time>
      </trkpt>
      <trkpt lat="42.68677" lon="-0.4744">
        <ele>1681</ele>
        <time>2018-12-27T02:24:07Z</time>
      </trkpt>
      <trkpt lat="42.68683" lon="-0.47434">
        <ele>1683</ele>
        <time>2018-12-27T02:24:09Z</time>
      </trkpt>
      <trkpt lat="42.68705" lon="-0.47424">
        <ele>1683</ele>
        <time>2018-12-27T02:24:15Z</time>
      </trkpt>
      <trkpt lat="42.68711" lon="-0.47419">
        <ele>1685</ele>
        <time>2018-12-27T02:24:17Z</time>
      </trkpt>
      <trkpt lat="42.68718" lon="-0.47417">
        <ele>1685</ele>
        <time>2018-12-27T02:24:19Z</time>
      </trkpt>
      <trkpt lat="42.68732" lon="-0.47407">
        <ele>1688</ele>
        <time>2018-12-27T02:24:23Z</time>
      </trkpt>
      <trkpt lat="42.68743" lon="-0.47401">
        <ele>1689</ele>
        <time>2018-12-27T02:24:26Z</time>
      </trkpt>
      <trkpt lat="42.68763" lon="-0.47394">
        <ele>1691</ele>
        <time>2018-12-27T02:24:32Z</time>
      </trkpt>
      <trkpt lat="42.68782" lon="-0.47389">
        <ele>1692</ele>
        <time>2018-12-27T02:24:37Z</time>
      </trkpt>
      <trkpt lat="42.68793" lon="-0.47386">
        <ele>1690</ele>
        <time>2018-12-27T02:24:40Z</time>
      </trkpt>
      <trkpt lat="42.68805" lon="-0.47388">
        <ele>1688</ele>
        <time>2018-12-27T02:24:43Z</time>
      </trkpt>
      <trkpt lat="42.68816" lon="-0.4738">
        <ele>1689</ele>
        <time>2018-12-27T02:24:47Z</time>
      </trkpt>
      <trkpt lat="42.6884" lon="-0.47373">
        <ele>1690</ele>
        <time>2018-12-27T02:24:53Z</time>
      </trkpt>
      <trkpt lat="42.68845" lon="-0.47367">
        <ele>1692</ele>
        <time>2018-12-27T02:24:55Z</time>
      </trkpt>
      <trkpt lat="42.68846" lon="-0.47363">
        <ele>1692</ele>
        <time>2018-12-27T02:24:56Z</time>
      </trkpt>
      <trkpt lat="42.68849" lon="-0.47361">
        <ele>1693</ele>
        <time>2018-12-27T02:24:57Z</time>
      </trkpt>
      <trkpt lat="42.68852" lon="-0.47361">
        <ele>1693</ele>
        <time>2018-12-27T02:24:57Z</time>
      </trkpt>
      <trkpt lat="42.68856" lon="-0.47367">
        <ele>1693</ele>
        <time>2018-12-27T02:24:59Z</time>
      </trkpt>
      <trkpt lat="42.68867" lon="-0.47388">
        <ele>1694</ele>
        <time>2018-12-27T02:25:04Z</time>
      </trkpt>
      <trkpt lat="42.6887" lon="-0.47403">
        <ele>1694</ele>
        <time>2018-12-27T02:25:07Z</time>
      </trkpt>
      <trkpt lat="42.68869" lon="-0.47416">
        <ele>1693</ele>
        <time>2018-12-27T02:25:10Z</time>
      </trkpt>
      <trkpt lat="42.68865" lon="-0.47424">
        <ele>1692</ele>
        <time>2018-12-27T02:25:12Z</time>
      </trkpt>
      <trkpt lat="42.68857" lon="-0.47438">
        <ele>1689</ele>
        <time>2018-12-27T02:25:15Z</time>
      </trkpt>
      <trkpt lat="42.68857" lon="-0.47441">
        <ele>1689</ele>
        <time>2018-12-27T02:25:16Z</time>
      </trkpt>
      <trkpt lat="42.6886" lon="-0.47441">
        <ele>1689</ele>
        <time>2018-12-27T02:25:17Z</time>
      </trkpt>
      <trkpt lat="42.68867" lon="-0.47437">
        <ele>1692</ele>
        <time>2018-12-27T02:25:19Z</time>
      </trkpt>
      <trkpt lat="42.68869" lon="-0.47439">
        <ele>1692</ele>
        <time>2018-12-27T02:25:19Z</time>
      </trkpt>
      <trkpt lat="42.68861" lon="-0.47438">
        <ele>1690</ele>
        <time>2018-12-27T02:25:22Z</time>
      </trkpt>
      <trkpt lat="42.68861" lon="-0.47433">
        <ele>1690</ele>
        <time>2018-12-27T02:25:23Z</time>
      </trkpt>
      <trkpt lat="42.68868" lon="-0.47415">
        <ele>1693</ele>
        <time>2018-12-27T02:25:27Z</time>
      </trkpt>
      <trkpt lat="42.6887" lon="-0.47397">
        <ele>1694</ele>
        <time>2018-12-27T02:25:30Z</time>
      </trkpt>
      <trkpt lat="42.68866" lon="-0.47371">
        <ele>1695</ele>
        <time>2018-12-27T02:25:35Z</time>
      </trkpt>
      <trkpt lat="42.68861" lon="-0.47356">
        <ele>1695</ele>
        <time>2018-12-27T02:25:39Z</time>
      </trkpt>
      <trkpt lat="42.68854" lon="-0.47347">
        <ele>1695</ele>
        <time>2018-12-27T02:25:41Z</time>
      </trkpt>
      <trkpt lat="42.68849" lon="-0.47332">
        <ele>1696</ele>
        <time>2018-12-27T02:25:44Z</time>
      </trkpt>
      <trkpt lat="42.6885" lon="-0.47328">
        <ele>1697</ele>
        <time>2018-12-27T02:25:45Z</time>
      </trkpt>
      <trkpt lat="42.68852" lon="-0.47305">
        <ele>1702</ele>
        <time>2018-12-27T02:25:50Z</time>
      </trkpt>
      <trkpt lat="42.68849" lon="-0.4728">
        <ele>1704</ele>
        <time>2018-12-27T02:25:55Z</time>
      </trkpt>
      <trkpt lat="42.68853" lon="-0.4724">
        <ele>1710</ele>
        <time>2018-12-27T02:26:03Z</time>
      </trkpt>
      <trkpt lat="42.68852" lon="-0.47229">
        <ele>1712</ele>
        <time>2018-12-27T02:26:05Z</time>
      </trkpt>
      <trkpt lat="42.6885" lon="-0.4722">
        <ele>1713</ele>
        <time>2018-12-27T02:26:07Z</time>
      </trkpt>
      <trkpt lat="42.68851" lon="-0.47209">
        <ele>1715</ele>
        <time>2018-12-27T02:26:09Z</time>
      </trkpt>
      <trkpt lat="42.68845" lon="-0.47191">
        <ele>1719</ele>
        <time>2018-12-27T02:26:13Z</time>
      </trkpt>
      <trkpt lat="42.6884" lon="-0.47155">
        <ele>1723</ele>
        <time>2018-12-27T02:26:20Z</time>
      </trkpt>
      <trkpt lat="42.68841" lon="-0.47123">
        <ele>1729</ele>
        <time>2018-12-27T02:26:26Z</time>
      </trkpt>
      <trkpt lat="42.6884" lon="-0.47107">
        <ele>1730</ele>
        <time>2018-12-27T02:26:29Z</time>
      </trkpt>
      <trkpt lat="42.6884" lon="-0.4708">
        <ele>1734</ele>
        <time>2018-12-27T02:26:35Z</time>
      </trkpt>
      <trkpt lat="42.68839" lon="-0.47053">
        <ele>1736</ele>
        <time>2018-12-27T02:26:40Z</time>
      </trkpt>
      <trkpt lat="42.68834" lon="-0.47031">
        <ele>1739</ele>
        <time>2018-12-27T02:26:44Z</time>
      </trkpt>
      <trkpt lat="42.68835" lon="-0.46992">
        <ele>1742</ele>
        <time>2018-12-27T02:26:52Z</time>
      </trkpt>
      <trkpt lat="42.68832" lon="-0.46974">
        <ele>1745</ele>
        <time>2018-12-27T02:26:56Z</time>
      </trkpt>
      <trkpt lat="42.68826" lon="-0.46958">
        <ele>1750</ele>
        <time>2018-12-27T02:26:59Z</time>
      </trkpt>
      <trkpt lat="42.68826" lon="-0.46947">
        <ele>1752</ele>
        <time>2018-12-27T02:27:01Z</time>
      </trkpt>
      <trkpt lat="42.6882" lon="-0.46928">
        <ele>1756</ele>
        <time>2018-12-27T02:27:06Z</time>
      </trkpt>
      <trkpt lat="42.68812" lon="-0.46913">
        <ele>1757</ele>
        <time>2018-12-27T02:27:09Z</time>
      </trkpt>
      <trkpt lat="42.68811" lon="-0.46904">
        <ele>1758</ele>
        <time>2018-12-27T02:27:11Z</time>
      </trkpt>
      <trkpt lat="42.68807" lon="-0.46896">
        <ele>1758</ele>
        <time>2018-12-27T02:27:13Z</time>
      </trkpt>
      <trkpt lat="42.68802" lon="-0.46892">
        <ele>1759</ele>
        <time>2018-12-27T02:27:14Z</time>
      </trkpt>
      <trkpt lat="42.68778" lon="-0.46848">
        <ele>1767</ele>
        <time>2018-12-27T02:27:25Z</time>
      </trkpt>
      <trkpt lat="42.68774" lon="-0.46832">
        <ele>1767</ele>
        <time>2018-12-27T02:27:28Z</time>
      </trkpt>
      <trkpt lat="42.68772" lon="-0.46809">
        <ele>1768</ele>
        <time>2018-12-27T02:27:33Z</time>
      </trkpt>
      <trkpt lat="42.68767" lon="-0.46797">
        <ele>1770</ele>
        <time>2018-12-27T02:27:36Z</time>
      </trkpt>
      <trkpt lat="42.6877" lon="-0.46772">
        <ele>1773</ele>
        <time>2018-12-27T02:27:40Z</time>
      </trkpt>
      <trkpt lat="42.68777" lon="-0.46754">
        <ele>1775</ele>
        <time>2018-12-27T02:27:45Z</time>
      </trkpt>
      <trkpt lat="42.6878" lon="-0.46731">
        <ele>1778</ele>
        <time>2018-12-27T02:27:49Z</time>
      </trkpt>
      <trkpt lat="42.68778" lon="-0.46709">
        <ele>1781</ele>
        <time>2018-12-27T02:27:53Z</time>
      </trkpt>
      <trkpt lat="42.6878" lon="-0.46704">
        <ele>1783</ele>
        <time>2018-12-27T02:27:54Z</time>
      </trkpt>
      <trkpt lat="42.6878" lon="-0.46687">
        <ele>1786</ele>
        <time>2018-12-27T02:27:58Z</time>
      </trkpt>
      <trkpt lat="42.6878" lon="-0.46634">
        <ele>1799</ele>
        <time>2018-12-27T02:28:08Z</time>
      </trkpt>
      <trkpt lat="42.68783" lon="-0.46612">
        <ele>1805</ele>
        <time>2018-12-27T02:28:12Z</time>
      </trkpt>
      <trkpt lat="42.68781" lon="-0.46603">
        <ele>1807</ele>
        <time>2018-12-27T02:28:14Z</time>
      </trkpt>
      <trkpt lat="42.68787" lon="-0.46585">
        <ele>1813</ele>
        <time>2018-12-27T02:28:18Z</time>
      </trkpt>
      <trkpt lat="42.68794" lon="-0.46578">
        <ele>1816</ele>
        <time>2018-12-27T02:28:21Z</time>
      </trkpt>
      <trkpt lat="42.68794" lon="-0.46565">
        <ele>1819</ele>
        <time>2018-12-27T02:28:23Z</time>
      </trkpt>
      <trkpt lat="42.68797" lon="-0.46559">
        <ele>1821</ele>
        <time>2018-12-27T02:28:24Z</time>
      </trkpt>
      <trkpt lat="42.68795" lon="-0.46554">
        <ele>1822</ele>
        <time>2018-12-27T02:28:26Z</time>
      </trkpt>
      <trkpt lat="42.68799" lon="-0.46541">
        <ele>1826</ele>
        <time>2018-12-27T02:28:28Z</time>
      </trkpt>
      <trkpt lat="42.68798" lon="-0.46534">
        <ele>1827</ele>
        <time>2018-12-27T02:28:30Z</time>
      </trkpt>
      <trkpt lat="42.688" lon="-0.46528">
        <ele>1830</ele>
        <time>2018-12-27T02:28:31Z</time>
      </trkpt>
      <trkpt lat="42.68795" lon="-0.46516">
        <ele>1831</ele>
        <time>2018-12-27T02:28:34Z</time>
      </trkpt>
      <trkpt lat="42.68798" lon="-0.46511">
        <ele>1833</ele>
        <time>2018-12-27T02:28:35Z</time>
      </trkpt>
      <trkpt lat="42.68797" lon="-0.46502">
        <ele>1835</ele>
        <time>2018-12-27T02:28:37Z</time>
      </trkpt>
      <trkpt lat="42.68799" lon="-0.46501">
        <ele>1836</ele>
        <time>2018-12-27T02:28:37Z</time>
      </trkpt>
      <trkpt lat="42.68801" lon="-0.46499">
        <ele>1837</ele>
        <time>2018-12-27T02:28:38Z</time>
      </trkpt>
      <trkpt lat="42.68799" lon="-0.46489">
        <ele>1839</ele>
        <time>2018-12-27T02:28:40Z</time>
      </trkpt>
      <trkpt lat="42.68803" lon="-0.46476">
        <ele>1844</ele>
        <time>2018-12-27T02:28:43Z</time>
      </trkpt>
      <trkpt lat="42.68802" lon="-0.46471">
        <ele>1846</ele>
        <time>2018-12-27T02:28:44Z</time>
      </trkpt>
      <trkpt lat="42.68799" lon="-0.46468">
        <ele>1846</ele>
        <time>2018-12-27T02:28:45Z</time>
      </trkpt>
      <trkpt lat="42.68797" lon="-0.46461">
        <ele>1849</ele>
        <time>2018-12-27T02:28:46Z</time>
      </trkpt>
      <trkpt lat="42.68792" lon="-0.46452">
        <ele>1851</ele>
        <time>2018-12-27T02:28:48Z</time>
      </trkpt>
      <trkpt lat="42.68793" lon="-0.46449">
        <ele>1853</ele>
        <time>2018-12-27T02:28:49Z</time>
      </trkpt>
      <trkpt lat="42.68796" lon="-0.46446">
        <ele>1856</ele>
        <time>2018-12-27T02:28:50Z</time>
      </trkpt>
      <trkpt lat="42.68797" lon="-0.46442">
        <ele>1858</ele>
        <time>2018-12-27T02:28:51Z</time>
      </trkpt>
      <trkpt lat="42.688" lon="-0.46435">
        <ele>1863</ele>
        <time>2018-12-27T02:28:53Z</time>
      </trkpt>
      <trkpt lat="42.68801" lon="-0.46422">
        <ele>1869</ele>
        <time>2018-12-27T02:28:55Z</time>
      </trkpt>
      <trkpt lat="42.68796" lon="-0.46408">
        <ele>1872</ele>
        <time>2018-12-27T02:28:58Z</time>
      </trkpt>
      <trkpt lat="42.68791" lon="-0.46399">
        <ele>1872</ele>
        <time>2018-12-27T02:29:00Z</time>
      </trkpt>
      <trkpt lat="42.68797" lon="-0.46369">
        <ele>1885</ele>
        <time>2018-12-27T02:29:07Z</time>
      </trkpt>
      <trkpt lat="42.68792" lon="-0.46355">
        <ele>1889</ele>
        <time>2018-12-27T02:29:10Z</time>
      </trkpt>
      <trkpt lat="42.68793" lon="-0.46339">
        <ele>1895</ele>
        <time>2018-12-27T02:29:13Z</time>
      </trkpt>
      <trkpt lat="42.68796" lon="-0.46322">
        <ele>1899</ele>
        <time>2018-12-27T02:29:16Z</time>
      </trkpt>
      <trkpt lat="42.68797" lon="-0.46308">
        <ele>1902</ele>
        <time>2018-12-27T02:29:19Z</time>
      </trkpt>
      <trkpt lat="42.688" lon="-0.46303">
        <ele>1904</ele>
        <time>2018-12-27T02:29:20Z</time>
      </trkpt>
      <trkpt lat="42.688" lon="-0.463">
        <ele>1904</ele>
        <time>2018-12-27T02:29:21Z</time>
      </trkpt>
      <trkpt lat="42.68802" lon="-0.46296">
        <ele>1906</ele>
        <time>2018-12-27T02:29:22Z</time>
      </trkpt>
      <trkpt lat="42.68802" lon="-0.46293">
        <ele>1906</ele>
        <time>2018-12-27T02:29:22Z</time>
      </trkpt>
      <trkpt lat="42.68798" lon="-0.46288">
        <ele>1907</ele>
        <time>2018-12-27T02:29:24Z</time>
      </trkpt>
      <trkpt lat="42.68795" lon="-0.46275">
        <ele>1908</ele>
        <time>2018-12-27T02:29:27Z</time>
      </trkpt>
      <trkpt lat="42.68794" lon="-0.46275">
        <ele>1907</ele>
        <time>2018-12-27T02:29:27Z</time>
      </trkpt>
      <trkpt lat="42.68793" lon="-0.46263">
        <ele>1908</ele>
        <time>2018-12-27T02:29:29Z</time>
      </trkpt>
      <trkpt lat="42.68791" lon="-0.46259">
        <ele>1908</ele>
        <time>2018-12-27T02:29:30Z</time>
      </trkpt>
      <trkpt lat="42.68787" lon="-0.46243">
        <ele>1909</ele>
        <time>2018-12-27T02:29:34Z</time>
      </trkpt>
      <trkpt lat="42.68784" lon="-0.46237">
        <ele>1909</ele>
        <time>2018-12-27T02:29:35Z</time>
      </trkpt>
      <trkpt lat="42.68785" lon="-0.46227">
        <ele>1911</ele>
        <time>2018-12-27T02:29:37Z</time>
      </trkpt>
      <trkpt lat="42.68784" lon="-0.46222">
        <ele>1912</ele>
        <time>2018-12-27T02:29:38Z</time>
      </trkpt>
      <trkpt lat="42.68785" lon="-0.46215">
        <ele>1915</ele>
        <time>2018-12-27T02:29:40Z</time>
      </trkpt>
      <trkpt lat="42.68789" lon="-0.46211">
        <ele>1917</ele>
        <time>2018-12-27T02:29:41Z</time>
      </trkpt>
      <trkpt lat="42.6879" lon="-0.46186">
        <ele>1924</ele>
        <time>2018-12-27T02:29:46Z</time>
      </trkpt>
      <trkpt lat="42.68792" lon="-0.4618">
        <ele>1927</ele>
        <time>2018-12-27T02:29:47Z</time>
      </trkpt>
      <trkpt lat="42.68791" lon="-0.46158">
        <ele>1932</ele>
        <time>2018-12-27T02:29:51Z</time>
      </trkpt>
      <trkpt lat="42.68786" lon="-0.46147">
        <ele>1933</ele>
        <time>2018-12-27T02:29:54Z</time>
      </trkpt>
      <trkpt lat="42.68786" lon="-0.46139">
        <ele>1935</ele>
        <time>2018-12-27T02:29:55Z</time>
      </trkpt>
      <trkpt lat="42.68782" lon="-0.46131">
        <ele>1936</ele>
        <time>2018-12-27T02:29:57Z</time>
      </trkpt>
      <trkpt lat="42.68777" lon="-0.46108">
        <ele>1943</ele>
        <time>2018-12-27T02:30:02Z</time>
      </trkpt>
      <trkpt lat="42.68779" lon="-0.46092">
        <ele>1947</ele>
        <time>2018-12-27T02:30:05Z</time>
      </trkpt>
      <trkpt lat="42.68776" lon="-0.46068">
        <ele>1950</ele>
        <time>2018-12-27T02:30:10Z</time>
      </trkpt>
      <trkpt lat="42.68778" lon="-0.4606">
        <ele>1951</ele>
        <time>2018-12-27T02:30:12Z</time>
      </trkpt>
      <trkpt lat="42.68774" lon="-0.46038">
        <ele>1954</ele>
        <time>2018-12-27T02:30:16Z</time>
      </trkpt>
      <trkpt lat="42.68775" lon="-0.46031">
        <ele>1955</ele>
        <time>2018-12-27T02:30:17Z</time>
      </trkpt>
      <trkpt lat="42.68773" lon="-0.46017">
        <ele>1958</ele>
        <time>2018-12-27T02:30:20Z</time>
      </trkpt>
      <trkpt lat="42.68774" lon="-0.46004">
        <ele>1962</ele>
        <time>2018-12-27T02:30:23Z</time>
      </trkpt>
      <trkpt lat="42.68776" lon="-0.45986">
        <ele>1969</ele>
        <time>2018-12-27T02:30:26Z</time>
      </trkpt>
      <trkpt lat="42.68781" lon="-0.45969">
        <ele>1977</ele>
        <time>2018-12-27T02:30:30Z</time>
      </trkpt>
      <trkpt lat="42.68781" lon="-0.45962">
        <ele>1979</ele>
        <time>2018-12-27T02:30:31Z</time>
      </trkpt>
      <trkpt lat="42.68776" lon="-0.45934">
        <ele>1986</ele>
        <time>2018-12-27T02:30:37Z</time>
      </trkpt>
      <trkpt lat="42.68771" lon="-0.45925">
        <ele>1988</ele>
        <time>2018-12-27T02:30:39Z</time>
      </trkpt>
      <trkpt lat="42.6877" lon="-0.45917">
        <ele>1990</ele>
        <time>2018-12-27T02:30:41Z</time>
      </trkpt>
      <trkpt lat="42.68763" lon="-0.45909">
        <ele>1993</ele>
        <time>2018-12-27T02:30:43Z</time>
      </trkpt>
      <trkpt lat="42.68761" lon="-0.45907">
        <ele>1993</ele>
        <time>2018-12-27T02:30:44Z</time>
      </trkpt>
      <trkpt lat="42.68756" lon="-0.45899">
        <ele>1995</ele>
        <time>2018-12-27T02:30:46Z</time>
      </trkpt>
      <trkpt lat="42.68756" lon="-0.45894">
        <ele>1997</ele>
        <time>2018-12-27T02:30:47Z</time>
      </trkpt>
      <trkpt lat="42.68768" lon="-0.45883">
        <ele>1999</ele>
        <time>2018-12-27T02:30:51Z</time>
      </trkpt>
      <trkpt lat="42.68775" lon="-0.45881">
        <ele>1999</ele>
        <time>2018-12-27T02:30:53Z</time>
      </trkpt>
      <trkpt lat="42.6878" lon="-0.45878">
        <ele>2000</ele>
        <time>2018-12-27T02:30:54Z</time>
      </trkpt>
      <trkpt lat="42.68784" lon="-0.45872">
        <ele>2002</ele>
        <time>2018-12-27T02:30:56Z</time>
      </trkpt>
      <trkpt lat="42.68784" lon="-0.45865">
        <ele>2003</ele>
        <time>2018-12-27T02:30:57Z</time>
      </trkpt>
      <trkpt lat="42.68787" lon="-0.45855">
        <ele>2006</ele>
        <time>2018-12-27T02:31:00Z</time>
      </trkpt>
      <trkpt lat="42.68794" lon="-0.45849">
        <ele>2008</ele>
        <time>2018-12-27T02:31:02Z</time>
      </trkpt>
      <trkpt lat="42.68801" lon="-0.45838">
        <ele>2012</ele>
        <time>2018-12-27T02:31:05Z</time>
      </trkpt>
      <trkpt lat="42.68803" lon="-0.45837">
        <ele>2013</ele>
        <time>2018-12-27T02:31:05Z</time>
      </trkpt>
      <trkpt lat="42.68814" lon="-0.45838">
        <ele>2016</ele>
        <time>2018-12-27T02:31:08Z</time>
      </trkpt>
      <trkpt lat="42.68821" lon="-0.45842">
        <ele>2016</ele>
        <time>2018-12-27T02:31:10Z</time>
      </trkpt>
      <trkpt lat="42.68827" lon="-0.45842">
        <ele>2018</ele>
        <time>2018-12-27T02:31:12Z</time>
      </trkpt>
      <trkpt lat="42.68831" lon="-0.4584">
        <ele>2019</ele>
        <time>2018-12-27T02:31:13Z</time>
      </trkpt>
      <trkpt lat="42.68836" lon="-0.4584">
        <ele>2021</ele>
        <time>2018-12-27T02:31:14Z</time>
      </trkpt>
      <trkpt lat="42.68844" lon="-0.45843">
        <ele>2022</ele>
        <time>2018-12-27T02:31:16Z</time>
      </trkpt>
      <trkpt lat="42.68848" lon="-0.45843">
        <ele>2023</ele>
        <time>2018-12-27T02:31:18Z</time>
      </trkpt>
      <trkpt lat="42.68851" lon="-0.45841">
        <ele>2025</ele>
        <time>2018-12-27T02:31:18Z</time>
      </trkpt>
      <trkpt lat="42.68857" lon="-0.45829">
        <ele>2029</ele>
        <time>2018-12-27T02:31:21Z</time>
      </trkpt>
      <trkpt lat="42.68858" lon="-0.45825">
        <ele>2030</ele>
        <time>2018-12-27T02:31:22Z</time>
      </trkpt>
      <trkpt lat="42.68865" lon="-0.45814">
        <ele>2035</ele>
        <time>2018-12-27T02:31:25Z</time>
      </trkpt>
      <trkpt lat="42.68867" lon="-0.45802">
        <ele>2038</ele>
        <time>2018-12-27T02:31:27Z</time>
      </trkpt>
      <trkpt lat="42.68872" lon="-0.45796">
        <ele>2040</ele>
        <time>2018-12-27T02:31:29Z</time>
      </trkpt>
      <trkpt lat="42.68872" lon="-0.45778">
        <ele>2045</ele>
        <time>2018-12-27T02:31:33Z</time>
      </trkpt>
      <trkpt lat="42.68871" lon="-0.45764">
        <ele>2049</ele>
        <time>2018-12-27T02:31:35Z</time>
      </trkpt>
      <trkpt lat="42.68873" lon="-0.45761">
        <ele>2051</ele>
        <time>2018-12-27T02:31:36Z</time>
      </trkpt>
      <trkpt lat="42.68873" lon="-0.45758">
        <ele>2051</ele>
        <time>2018-12-27T02:31:37Z</time>
      </trkpt>
      <trkpt lat="42.68876" lon="-0.45749">
        <ele>2054</ele>
        <time>2018-12-27T02:31:39Z</time>
      </trkpt>
      <trkpt lat="42.68877" lon="-0.45741">
        <ele>2056</ele>
        <time>2018-12-27T02:31:40Z</time>
      </trkpt>
      <trkpt lat="42.68876" lon="-0.45738">
        <ele>2056</ele>
        <time>2018-12-27T02:31:41Z</time>
      </trkpt>
      <trkpt lat="42.68878" lon="-0.4573">
        <ele>2058</ele>
        <time>2018-12-27T02:31:43Z</time>
      </trkpt>
      <trkpt lat="42.68882" lon="-0.4571">
        <ele>2062</ele>
        <time>2018-12-27T02:31:47Z</time>
      </trkpt>
      <trkpt lat="42.68883" lon="-0.45698">
        <ele>2065</ele>
        <time>2018-12-27T02:31:49Z</time>
      </trkpt>
      <trkpt lat="42.68882" lon="-0.45692">
        <ele>2067</ele>
        <time>2018-12-27T02:31:50Z</time>
      </trkpt>
      <trkpt lat="42.68877" lon="-0.45679">
        <ele>2071</ele>
        <time>2018-12-27T02:31:53Z</time>
      </trkpt>
      <trkpt lat="42.68878" lon="-0.45672">
        <ele>2073</ele>
        <time>2018-12-27T02:31:55Z</time>
      </trkpt>
      <trkpt lat="42.68876" lon="-0.45666">
        <ele>2075</ele>
        <time>2018-12-27T02:31:56Z</time>
      </trkpt>
      <trkpt lat="42.68876" lon="-0.45647">
        <ele>2083</ele>
        <time>2018-12-27T02:32:00Z</time>
      </trkpt>
      <trkpt lat="42.6888" lon="-0.45623">
        <ele>2091</ele>
        <time>2018-12-27T02:32:05Z</time>
      </trkpt>
      <trkpt lat="42.68877" lon="-0.45615">
        <ele>2092</ele>
        <time>2018-12-27T02:32:06Z</time>
      </trkpt>
      <trkpt lat="42.68882" lon="-0.45605">
        <ele>2096</ele>
        <time>2018-12-27T02:32:09Z</time>
      </trkpt>
      <trkpt lat="42.68885" lon="-0.45593">
        <ele>2099</ele>
        <time>2018-12-27T02:32:11Z</time>
      </trkpt>
      <trkpt lat="42.68887" lon="-0.4559">
        <ele>2100</ele>
        <time>2018-12-27T02:32:12Z</time>
      </trkpt>
      <trkpt lat="42.68887" lon="-0.45584">
        <ele>2101</ele>
        <time>2018-12-27T02:32:13Z</time>
      </trkpt>
      <trkpt lat="42.68888" lon="-0.45581">
        <ele>2102</ele>
        <time>2018-12-27T02:32:14Z</time>
      </trkpt>
      <trkpt lat="42.68891" lon="-0.45581">
        <ele>2103</ele>
        <time>2018-12-27T02:32:15Z</time>
      </trkpt>
      <trkpt lat="42.68895" lon="-0.45574">
        <ele>2105</ele>
        <time>2018-12-27T02:32:16Z</time>
      </trkpt>
      <trkpt lat="42.68895" lon="-0.45571">
        <ele>2106</ele>
        <time>2018-12-27T02:32:17Z</time>
      </trkpt>
      <trkpt lat="42.68899" lon="-0.45564">
        <ele>2108</ele>
        <time>2018-12-27T02:32:19Z</time>
      </trkpt>
      <trkpt lat="42.689" lon="-0.45557">
        <ele>2110</ele>
        <time>2018-12-27T02:32:20Z</time>
      </trkpt>
      <trkpt lat="42.68907" lon="-0.45554">
        <ele>2113</ele>
        <time>2018-12-27T02:32:22Z</time>
      </trkpt>
      <trkpt lat="42.68907" lon="-0.4555">
        <ele>2114</ele>
        <time>2018-12-27T02:32:23Z</time>
      </trkpt>
      <trkpt lat="42.68909" lon="-0.45548">
        <ele>2115</ele>
        <time>2018-12-27T02:32:23Z</time>
      </trkpt>
      <trkpt lat="42.68909" lon="-0.45543">
        <ele>2117</ele>
        <time>2018-12-27T02:32:24Z</time>
      </trkpt>
      <trkpt lat="42.68913" lon="-0.45534">
        <ele>2120</ele>
        <time>2018-12-27T02:32:26Z</time>
      </trkpt>
      <trkpt lat="42.68926" lon="-0.45532">
        <ele>2124</ele>
        <time>2018-12-27T02:32:30Z</time>
      </trkpt>
      <trkpt lat="42.68929" lon="-0.45526">
        <ele>2126</ele>
        <time>2018-12-27T02:32:31Z</time>
      </trkpt>
      <trkpt lat="42.68936" lon="-0.45518">
        <ele>2129</ele>
        <time>2018-12-27T02:32:34Z</time>
      </trkpt>
      <trkpt lat="42.68937" lon="-0.45487">
        <ele>2138</ele>
        <time>2018-12-27T02:32:40Z</time>
      </trkpt>
      <trkpt lat="42.68939" lon="-0.45484">
        <ele>2139</ele>
        <time>2018-12-27T02:32:41Z</time>
      </trkpt>
      <trkpt lat="42.68947" lon="-0.45479">
        <ele>2142</ele>
        <time>2018-12-27T02:32:43Z</time>
      </trkpt>
      <trkpt lat="42.68955" lon="-0.4546">
        <ele>2147</ele>
        <time>2018-12-27T02:32:47Z</time>
      </trkpt>
      <trkpt lat="42.68961" lon="-0.4545">
        <ele>2151</ele>
        <time>2018-12-27T02:32:50Z</time>
      </trkpt>
      <trkpt lat="42.68969" lon="-0.45438">
        <ele>2156</ele>
        <time>2018-12-27T02:32:53Z</time>
      </trkpt>
      <trkpt lat="42.68972" lon="-0.45437">
        <ele>2157</ele>
        <time>2018-12-27T02:32:54Z</time>
      </trkpt>
      <trkpt lat="42.68984" lon="-0.45418">
        <ele>2162</ele>
        <time>2018-12-27T02:32:59Z</time>
      </trkpt>
      <trkpt lat="42.69001" lon="-0.45386">
        <ele>2173</ele>
        <time>2018-12-27T02:33:06Z</time>
      </trkpt>
      <trkpt lat="42.69007" lon="-0.45369">
        <ele>2178</ele>
        <time>2018-12-27T02:33:10Z</time>
      </trkpt>
      <trkpt lat="42.69014" lon="-0.45359">
        <ele>2181</ele>
        <time>2018-12-27T02:33:13Z</time>
      </trkpt>
      <trkpt lat="42.69014" lon="-0.45356">
        <ele>2182</ele>
        <time>2018-12-27T02:33:13Z</time>
      </trkpt>
      <trkpt lat="42.6902" lon="-0.45351">
        <ele>2184</ele>
        <time>2018-12-27T02:33:15Z</time>
      </trkpt>
      <trkpt lat="42.69016" lon="-0.45339">
        <ele>2187</ele>
        <time>2018-12-27T02:33:18Z</time>
      </trkpt>
      <trkpt lat="42.69018" lon="-0.45332">
        <ele>2189</ele>
        <time>2018-12-27T02:33:19Z</time>
      </trkpt>
      <trkpt lat="42.69018" lon="-0.45322">
        <ele>2192</ele>
        <time>2018-12-27T02:33:21Z</time>
      </trkpt>
      <trkpt lat="42.69021" lon="-0.45319">
        <ele>2193</ele>
        <time>2018-12-27T02:33:22Z</time>
      </trkpt>
      <trkpt lat="42.69021" lon="-0.45309">
        <ele>2196</ele>
        <time>2018-12-27T02:33:24Z</time>
      </trkpt>
      <trkpt lat="42.69024" lon="-0.45306">
        <ele>2198</ele>
        <time>2018-12-27T02:33:25Z</time>
      </trkpt>
      <trkpt lat="42.69029" lon="-0.45295">
        <ele>2201</ele>
        <time>2018-12-27T02:33:28Z</time>
      </trkpt>
      <trkpt lat="42.69043" lon="-0.4528">
        <ele>2207</ele>
        <time>2018-12-27T02:33:32Z</time>
      </trkpt>
      <trkpt lat="42.69045" lon="-0.45275">
        <ele>2209</ele>
        <time>2018-12-27T02:33:33Z</time>
      </trkpt>
      <trkpt lat="42.69044" lon="-0.45272">
        <ele>2209</ele>
        <time>2018-12-27T02:33:34Z</time>
      </trkpt>
      <trkpt lat="42.69046" lon="-0.45266">
        <ele>2210</ele>
        <time>2018-12-27T02:33:35Z</time>
      </trkpt>
      <trkpt lat="42.69054" lon="-0.45261">
        <ele>2213</ele>
        <time>2018-12-27T02:33:38Z</time>
      </trkpt>
      <trkpt lat="42.6906" lon="-0.45259">
        <ele>2215</ele>
        <time>2018-12-27T02:33:39Z</time>
      </trkpt>
      <trkpt lat="42.69072" lon="-0.45239">
        <ele>2221</ele>
        <time>2018-12-27T02:33:44Z</time>
      </trkpt>
      <trkpt lat="42.69084" lon="-0.45232">
        <ele>2226</ele>
        <time>2018-12-27T02:33:48Z</time>
      </trkpt>
      <trkpt lat="42.69088" lon="-0.45222">
        <ele>2229</ele>
        <time>2018-12-27T02:33:50Z</time>
      </trkpt>
      <trkpt lat="42.69095" lon="-0.45212">
        <ele>2232</ele>
        <time>2018-12-27T02:33:53Z</time>
      </trkpt>
      <trkpt lat="42.69123" lon="-0.45185">
        <ele>2246</ele>
        <time>2018-12-27T02:34:02Z</time>
      </trkpt>
      <trkpt lat="42.69144" lon="-0.45172">
        <ele>2254</ele>
        <time>2018-12-27T02:34:08Z</time>
      </trkpt>
      <trkpt lat="42.6915" lon="-0.45162">
        <ele>2256</ele>
        <time>2018-12-27T02:34:11Z</time>
      </trkpt>
      <trkpt lat="42.69174" lon="-0.4514">
        <ele>2260</ele>
        <time>2018-12-27T02:34:18Z</time>
      </trkpt>
      <trkpt lat="42.6919" lon="-0.45113">
        <ele>2264</ele>
        <time>2018-12-27T02:34:25Z</time>
      </trkpt>
      <trkpt lat="42.69197" lon="-0.45105">
        <ele>2265</ele>
        <time>2018-12-27T02:34:28Z</time>
      </trkpt>
      <trkpt lat="42.69204" lon="-0.45084">
        <ele>2267</ele>
        <time>2018-12-27T02:34:32Z</time>
      </trkpt>
      <trkpt lat="42.69211" lon="-0.45073">
        <ele>2270</ele>
        <time>2018-12-27T02:34:35Z</time>
      </trkpt>
      <trkpt lat="42.69224" lon="-0.45057">
        <ele>2275</ele>
        <time>2018-12-27T02:34:40Z</time>
      </trkpt>
      <trkpt lat="42.69231" lon="-0.45051">
        <ele>2278</ele>
        <time>2018-12-27T02:34:42Z</time>
      </trkpt>
      <trkpt lat="42.69237" lon="-0.45041">
        <ele>2281</ele>
        <time>2018-12-27T02:34:44Z</time>
      </trkpt>
      <trkpt lat="42.6924" lon="-0.45041">
        <ele>2282</ele>
        <time>2018-12-27T02:34:45Z</time>
      </trkpt>
      <trkpt lat="42.69245" lon="-0.45034">
        <ele>2284</ele>
        <time>2018-12-27T02:34:47Z</time>
      </trkpt>
      <trkpt lat="42.69247" lon="-0.45026">
        <ele>2286</ele>
        <time>2018-12-27T02:34:49Z</time>
      </trkpt>
      <trkpt lat="42.69264" lon="-0.45014">
        <ele>2293</ele>
        <time>2018-12-27T02:34:54Z</time>
      </trkpt>
      <trkpt lat="42.69266" lon="-0.45014">
        <ele>2294</ele>
        <time>2018-12-27T02:34:54Z</time>
      </trkpt>
      <trkpt lat="42.69289" lon="-0.44985">
        <ele>2307</ele>
        <time>2018-12-27T02:35:03Z</time>
      </trkpt>
      <trkpt lat="42.69299" lon="-0.44976">
        <ele>2313</ele>
        <time>2018-12-27T02:35:06Z</time>
      </trkpt>
      <trkpt lat="42.69305" lon="-0.44962">
        <ele>2319</ele>
        <time>2018-12-27T02:35:09Z</time>
      </trkpt>
      <trkpt lat="42.69309" lon="-0.4496">
        <ele>2321</ele>
        <time>2018-12-27T02:35:10Z</time>
      </trkpt>
      <trkpt lat="42.69313" lon="-0.44952">
        <ele>2324</ele>
        <time>2018-12-27T02:35:12Z</time>
      </trkpt>
      <trkpt lat="42.69321" lon="-0.44944">
        <ele>2328</ele>
        <time>2018-12-27T02:35:15Z</time>
      </trkpt>
      <trkpt lat="42.69328" lon="-0.44934">
        <ele>2332</ele>
        <time>2018-12-27T02:35:17Z</time>
      </trkpt>
      <trkpt lat="42.69332" lon="-0.4493">
        <ele>2333</ele>
        <time>2018-12-27T02:35:19Z</time>
      </trkpt>
      <trkpt lat="42.69336" lon="-0.44924">
        <ele>2336</ele>
        <time>2018-12-27T02:35:20Z</time>
      </trkpt>
      <trkpt lat="42.6934" lon="-0.4491">
        <ele>2339</ele>
        <time>2018-12-27T02:35:23Z</time>
      </trkpt>
      <trkpt lat="42.69346" lon="-0.44903">
        <ele>2344</ele>
        <time>2018-12-27T02:35:25Z</time>
      </trkpt>
      <trkpt lat="42.69354" lon="-0.44905">
        <ele>2348</ele>
        <time>2018-12-27T02:35:28Z</time>
      </trkpt>
      <trkpt lat="42.6936" lon="-0.4491">
        <ele>2350</ele>
        <time>2018-12-27T02:35:29Z</time>
      </trkpt>
      <trkpt lat="42.69371" lon="-0.44926">
        <ele>2349</ele>
        <time>2018-12-27T02:35:34Z</time>
      </trkpt>
      <trkpt lat="42.69377" lon="-0.44932">
        <ele>2348</ele>
        <time>2018-12-27T02:35:36Z</time>
      </trkpt>
      <trkpt lat="42.6938" lon="-0.44931">
        <ele>2349</ele>
        <time>2018-12-27T02:35:37Z</time>
      </trkpt>
      <trkpt lat="42.6938" lon="-0.44927">
        <ele>2351</ele>
        <time>2018-12-27T02:35:37Z</time>
      </trkpt>
      <trkpt lat="42.69382" lon="-0.44927">
        <ele>2351</ele>
        <time>2018-12-27T02:35:38Z</time>
      </trkpt>
      <trkpt lat="42.69383" lon="-0.44923">
        <ele>2354</ele>
        <time>2018-12-27T02:35:39Z</time>
      </trkpt>
      <trkpt lat="42.69387" lon="-0.44921">
        <ele>2356</ele>
        <time>2018-12-27T02:35:40Z</time>
      </trkpt>
      <trkpt lat="42.6939" lon="-0.44913">
        <ele>2360</ele>
        <time>2018-12-27T02:35:42Z</time>
      </trkpt>
      <trkpt lat="42.6939" lon="-0.44905">
        <ele>2364</ele>
        <time>2018-12-27T02:35:43Z</time>
      </trkpt>
      <trkpt lat="42.69395" lon="-0.44903">
        <ele>2366</ele>
        <time>2018-12-27T02:35:44Z</time>
      </trkpt>
      <trkpt lat="42.69396" lon="-0.44901">
        <ele>2367</ele>
        <time>2018-12-27T02:35:45Z</time>
      </trkpt>
      <trkpt lat="42.69397" lon="-0.44895">
        <ele>2370</ele>
        <time>2018-12-27T02:35:46Z</time>
      </trkpt>
      <trkpt lat="42.69402" lon="-0.44891">
        <ele>2372</ele>
        <time>2018-12-27T02:35:48Z</time>
      </trkpt>
      <trkpt lat="42.69399" lon="-0.44868">
        <ele>2379</ele>
        <time>2018-12-27T02:35:52Z</time>
      </trkpt>
      <trkpt lat="42.694" lon="-0.44866">
        <ele>2380</ele>
        <time>2018-12-27T02:35:53Z</time>
      </trkpt>
      <trkpt lat="42.69402" lon="-0.44864">
        <ele>2381</ele>
        <time>2018-12-27T02:35:54Z</time>
      </trkpt>
      <trkpt lat="42.69403" lon="-0.44861">
        <ele>2383</ele>
        <time>2018-12-27T02:35:54Z</time>
      </trkpt>
      <trkpt lat="42.69406" lon="-0.44859">
        <ele>2384</ele>
        <time>2018-12-27T02:35:55Z</time>
      </trkpt>
      <trkpt lat="42.69413" lon="-0.44861">
        <ele>2387</ele>
        <time>2018-12-27T02:35:57Z</time>
      </trkpt>
      <trkpt lat="42.69414" lon="-0.44856">
        <ele>2388</ele>
        <time>2018-12-27T02:35:58Z</time>
      </trkpt>
      <trkpt lat="42.69413" lon="-0.44845">
        <ele>2391</ele>
        <time>2018-12-27T02:36:00Z</time>
      </trkpt>
      <trkpt lat="42.69415" lon="-0.44839">
        <ele>2394</ele>
        <time>2018-12-27T02:36:01Z</time>
      </trkpt>
      <trkpt lat="42.69425" lon="-0.44833">
        <ele>2399</ele>
        <time>2018-12-27T02:36:04Z</time>
      </trkpt>
      <trkpt lat="42.69427" lon="-0.44827">
        <ele>2401</ele>
        <time>2018-12-27T02:36:06Z</time>
      </trkpt>
      <trkpt lat="42.69426" lon="-0.44823">
        <ele>2402</ele>
        <time>2018-12-27T02:36:06Z</time>
      </trkpt>
      <trkpt lat="42.69431" lon="-0.4482">
        <ele>2404</ele>
        <time>2018-12-27T02:36:08Z</time>
      </trkpt>
      <trkpt lat="42.69431" lon="-0.44816">
        <ele>2405</ele>
        <time>2018-12-27T02:36:09Z</time>
      </trkpt>
      <trkpt lat="42.69434" lon="-0.44812">
        <ele>2407</ele>
        <time>2018-12-27T02:36:10Z</time>
      </trkpt>
      <trkpt lat="42.69434" lon="-0.44809">
        <ele>2408</ele>
        <time>2018-12-27T02:36:10Z</time>
      </trkpt>
      <trkpt lat="42.69439" lon="-0.44808">
        <ele>2410</ele>
        <time>2018-12-27T02:36:12Z</time>
      </trkpt>
      <trkpt lat="42.69442" lon="-0.448">
        <ele>2414</ele>
        <time>2018-12-27T02:36:14Z</time>
      </trkpt>
      <trkpt lat="42.69443" lon="-0.44788">
        <ele>2419</ele>
        <time>2018-12-27T02:36:16Z</time>
      </trkpt>
      <trkpt lat="42.69447" lon="-0.44782">
        <ele>2423</ele>
        <time>2018-12-27T02:36:18Z</time>
      </trkpt>
      <trkpt lat="42.69448" lon="-0.44767">
        <ele>2429</ele>
        <time>2018-12-27T02:36:20Z</time>
      </trkpt>
      <trkpt lat="42.6945" lon="-0.44767">
        <ele>2431</ele>
        <time>2018-12-27T02:36:21Z</time>
      </trkpt>
      <trkpt lat="42.69454" lon="-0.44759">
        <ele>2436</ele>
        <time>2018-12-27T02:36:23Z</time>
      </trkpt>
      <trkpt lat="42.69456" lon="-0.44759">
        <ele>2437</ele>
        <time>2018-12-27T02:36:23Z</time>
      </trkpt>
      <trkpt lat="42.69458" lon="-0.4475">
        <ele>2442</ele>
        <time>2018-12-27T02:36:25Z</time>
      </trkpt>
      <trkpt lat="42.69463" lon="-0.44751">
        <ele>2444</ele>
        <time>2018-12-27T02:36:26Z</time>
      </trkpt>
      <trkpt lat="42.69468" lon="-0.44736">
        <ele>2451</ele>
        <time>2018-12-27T02:36:29Z</time>
      </trkpt>
      <trkpt lat="42.6947" lon="-0.44737">
        <ele>2453</ele>
        <time>2018-12-27T02:36:30Z</time>
      </trkpt>
      <trkpt lat="42.69471" lon="-0.44734">
        <ele>2454</ele>
        <time>2018-12-27T02:36:31Z</time>
      </trkpt>
      <trkpt lat="42.69479" lon="-0.44728">
        <ele>2461</ele>
        <time>2018-12-27T02:36:33Z</time>
      </trkpt>
      <trkpt lat="42.69481" lon="-0.4473">
        <ele>2461</ele>
        <time>2018-12-27T02:36:34Z</time>
      </trkpt>
      <trkpt lat="42.69483" lon="-0.44729">
        <ele>2463</ele>
        <time>2018-12-27T02:36:34Z</time>
      </trkpt>
      <trkpt lat="42.6949" lon="-0.44733">
        <ele>2465</ele>
        <time>2018-12-27T02:36:36Z</time>
      </trkpt>
      <trkpt lat="42.69491" lon="-0.44731">
        <ele>2467</ele>
        <time>2018-12-27T02:36:37Z</time>
      </trkpt>
      <trkpt lat="42.69493" lon="-0.44733">
        <ele>2467</ele>
        <time>2018-12-27T02:36:37Z</time>
      </trkpt>
      <trkpt lat="42.69498" lon="-0.44732">
        <ele>2470</ele>
        <time>2018-12-27T02:36:39Z</time>
      </trkpt>
      <trkpt lat="42.695" lon="-0.44729">
        <ele>2473</ele>
        <time>2018-12-27T02:36:39Z</time>
      </trkpt>
      <trkpt lat="42.69512" lon="-0.4473">
        <ele>2476</ele>
        <time>2018-12-27T02:36:42Z</time>
      </trkpt>
      <trkpt lat="42.69516" lon="-0.44731">
        <ele>2476</ele>
        <time>2018-12-27T02:36:43Z</time>
      </trkpt>
      <trkpt lat="42.69518" lon="-0.44718">
        <ele>2482</ele>
        <time>2018-12-27T02:36:46Z</time>
      </trkpt>
      <trkpt lat="42.6952" lon="-0.44714">
        <ele>2484</ele>
        <time>2018-12-27T02:36:47Z</time>
      </trkpt>
      <trkpt lat="42.69527" lon="-0.44711">
        <ele>2487</ele>
        <time>2018-12-27T02:36:49Z</time>
      </trkpt>
      <trkpt lat="42.69529" lon="-0.44704">
        <ele>2489</ele>
        <time>2018-12-27T02:36:50Z</time>
      </trkpt>
      <trkpt lat="42.69534" lon="-0.44706">
        <ele>2489</ele>
        <time>2018-12-27T02:36:52Z</time>
      </trkpt>
      <trkpt lat="42.69537" lon="-0.44702">
        <ele>2490</ele>
        <time>2018-12-27T02:36:53Z</time>
      </trkpt>
      <trkpt lat="42.69538" lon="-0.44697">
        <ele>2492</ele>
        <time>2018-12-27T02:36:54Z</time>
      </trkpt>
      <trkpt lat="42.6954" lon="-0.44696">
        <ele>2492</ele>
        <time>2018-12-27T02:36:54Z</time>
      </trkpt>
      <trkpt lat="42.69542" lon="-0.44683">
        <ele>2496</ele>
        <time>2018-12-27T02:36:57Z</time>
      </trkpt>
      <trkpt lat="42.69547" lon="-0.44674">
        <ele>2499</ele>
        <time>2018-12-27T02:36:59Z</time>
      </trkpt>
      <trkpt lat="42.69555" lon="-0.4467">
        <ele>2502</ele>
        <time>2018-12-27T02:37:01Z</time>
      </trkpt>
      <trkpt lat="42.69556" lon="-0.44671">
        <ele>2502</ele>
        <time>2018-12-27T02:37:02Z</time>
      </trkpt>
      <trkpt lat="42.69561" lon="-0.44666">
        <ele>2504</ele>
        <time>2018-12-27T02:37:04Z</time>
      </trkpt>
      <trkpt lat="42.69567" lon="-0.4466">
        <ele>2506</ele>
        <time>2018-12-27T02:37:06Z</time>
      </trkpt>
      <trkpt lat="42.6957" lon="-0.44649">
        <ele>2509</ele>
        <time>2018-12-27T02:37:08Z</time>
      </trkpt>
      <trkpt lat="42.69577" lon="-0.44639">
        <ele>2512</ele>
        <time>2018-12-27T02:37:11Z</time>
      </trkpt>
      <trkpt lat="42.69593" lon="-0.44619">
        <ele>2516</ele>
        <time>2018-12-27T02:37:16Z</time>
      </trkpt>
      <trkpt lat="42.69601" lon="-0.44608">
        <ele>2519</ele>
        <time>2018-12-27T02:37:19Z</time>
      </trkpt>
      <trkpt lat="42.6961" lon="-0.44584">
        <ele>2528</ele>
        <time>2018-12-27T02:37:25Z</time>
      </trkpt>
      <trkpt lat="42.6962" lon="-0.44525">
        <ele>2532</ele>
        <time>2018-12-27T02:37:36Z</time>
      </trkpt>
      <trkpt lat="42.69624" lon="-0.44513">
        <ele>2535</ele>
        <time>2018-12-27T02:37:39Z</time>
      </trkpt>
      <trkpt lat="42.69626" lon="-0.445">
        <ele>2538</ele>
        <time>2018-12-27T02:37:42Z</time>
      </trkpt>
      <trkpt lat="42.69631" lon="-0.44494">
        <ele>2540</ele>
        <time>2018-12-27T02:37:43Z</time>
      </trkpt>
      <trkpt lat="42.69633" lon="-0.44487">
        <ele>2542</ele>
        <time>2018-12-27T02:37:45Z</time>
      </trkpt>
      <trkpt lat="42.69633" lon="-0.44473">
        <ele>2546</ele>
        <time>2018-12-27T02:37:48Z</time>
      </trkpt>
      <trkpt lat="42.69632" lon="-0.4447">
        <ele>2546</ele>
        <time>2018-12-27T02:37:48Z</time>
      </trkpt>
      <trkpt lat="42.69631" lon="-0.44459">
        <ele>2548</ele>
        <time>2018-12-27T02:37:50Z</time>
      </trkpt>
      <trkpt lat="42.69629" lon="-0.44453">
        <ele>2549</ele>
        <time>2018-12-27T02:37:52Z</time>
      </trkpt>
      <trkpt lat="42.69629" lon="-0.44448">
        <ele>2550</ele>
        <time>2018-12-27T02:37:53Z</time>
      </trkpt>
      <trkpt lat="42.69632" lon="-0.4444">
        <ele>2552</ele>
        <time>2018-12-27T02:37:55Z</time>
      </trkpt>
      <trkpt lat="42.69644" lon="-0.4442">
        <ele>2555</ele>
        <time>2018-12-27T02:38:00Z</time>
      </trkpt>
      <trkpt lat="42.69642" lon="-0.44417">
        <ele>2556</ele>
        <time>2018-12-27T02:38:00Z</time>
      </trkpt>
      <trkpt lat="42.69644" lon="-0.44409">
        <ele>2557</ele>
        <time>2018-12-27T02:38:02Z</time>
      </trkpt>
      <trkpt lat="42.69645" lon="-0.44404">
        <ele>2557</ele>
        <time>2018-12-27T02:38:03Z</time>
      </trkpt>
      <trkpt lat="42.69649" lon="-0.44402">
        <ele>2558</ele>
        <time>2018-12-27T02:38:04Z</time>
      </trkpt>
      <trkpt lat="42.69652" lon="-0.44394">
        <ele>2559</ele>
        <time>2018-12-27T02:38:06Z</time>
      </trkpt>
      <trkpt lat="42.6966" lon="-0.44391">
        <ele>2560</ele>
        <time>2018-12-27T02:38:08Z</time>
      </trkpt>
      <trkpt lat="42.69669" lon="-0.44382">
        <ele>2561</ele>
        <time>2018-12-27T02:38:11Z</time>
      </trkpt>
      <trkpt lat="42.69672" lon="-0.44382">
        <ele>2561</ele>
        <time>2018-12-27T02:38:12Z</time>
      </trkpt>
      <trkpt lat="42.6969" lon="-0.44391">
        <ele>2558</ele>
        <time>2018-12-27T02:38:17Z</time>
      </trkpt>
      <trkpt lat="42.69696" lon="-0.44393">
        <ele>2557</ele>
        <time>2018-12-27T02:38:19Z</time>
      </trkpt>
      <trkpt lat="42.697" lon="-0.44392">
        <ele>2555</ele>
        <time>2018-12-27T02:38:20Z</time>
      </trkpt>
      <trkpt lat="42.69699" lon="-0.44399">
        <ele>2554</ele>
        <time>2018-12-27T02:38:22Z</time>
      </trkpt>
      <trkpt lat="42.69703" lon="-0.44404">
        <ele>2552</ele>
        <time>2018-12-27T02:38:23Z</time>
      </trkpt>
      <trkpt lat="42.69704" lon="-0.44411">
        <ele>2550</ele>
        <time>2018-12-27T02:38:24Z</time>
      </trkpt>
      <trkpt lat="42.69703" lon="-0.44418">
        <ele>2549</ele>
        <time>2018-12-27T02:38:26Z</time>
      </trkpt>
      <trkpt lat="42.69704" lon="-0.44442">
        <ele>2542</ele>
        <time>2018-12-27T02:38:31Z</time>
      </trkpt>
      <trkpt lat="42.697" lon="-0.44451">
        <ele>2542</ele>
        <time>2018-12-27T02:38:33Z</time>
      </trkpt>
      <trkpt lat="42.69698" lon="-0.44468">
        <ele>2539</ele>
        <time>2018-12-27T02:38:36Z</time>
      </trkpt>
      <trkpt lat="42.69693" lon="-0.44493">
        <ele>2534</ele>
        <time>2018-12-27T02:38:41Z</time>
      </trkpt>
      <trkpt lat="42.69693" lon="-0.44504">
        <ele>2531</ele>
        <time>2018-12-27T02:38:43Z</time>
      </trkpt>
      <trkpt lat="42.69696" lon="-0.44515">
        <ele>2527</ele>
        <time>2018-12-27T02:38:46Z</time>
      </trkpt>
      <trkpt lat="42.6969" lon="-0.44532">
        <ele>2525</ele>
        <time>2018-12-27T02:38:49Z</time>
      </trkpt>
      <trkpt lat="42.69691" lon="-0.44543">
        <ele>2522</ele>
        <time>2018-12-27T02:38:51Z</time>
      </trkpt>
      <trkpt lat="42.6969" lon="-0.44558">
        <ele>2519</ele>
        <time>2018-12-27T02:38:54Z</time>
      </trkpt>
      <trkpt lat="42.69687" lon="-0.44588">
        <ele>2512</ele>
        <time>2018-12-27T02:39:00Z</time>
      </trkpt>
      <trkpt lat="42.69688" lon="-0.44595">
        <ele>2509</ele>
        <time>2018-12-27T02:39:02Z</time>
      </trkpt>
      <trkpt lat="42.69684" lon="-0.44604">
        <ele>2508</ele>
        <time>2018-12-27T02:39:04Z</time>
      </trkpt>
      <trkpt lat="42.69679" lon="-0.4462">
        <ele>2506</ele>
        <time>2018-12-27T02:39:07Z</time>
      </trkpt>
      <trkpt lat="42.69674" lon="-0.4465">
        <ele>2501</ele>
        <time>2018-12-27T02:39:13Z</time>
      </trkpt>
      <trkpt lat="42.69674" lon="-0.44659">
        <ele>2500</ele>
        <time>2018-12-27T02:39:15Z</time>
      </trkpt>
      <trkpt lat="42.69676" lon="-0.44668">
        <ele>2497</ele>
        <time>2018-12-27T02:39:17Z</time>
      </trkpt>
      <trkpt lat="42.69678" lon="-0.44693">
        <ele>2485</ele>
        <time>2018-12-27T02:39:22Z</time>
      </trkpt>
      <trkpt lat="42.69683" lon="-0.44697">
        <ele>2481</ele>
        <time>2018-12-27T02:39:23Z</time>
      </trkpt>
      <trkpt lat="42.69687" lon="-0.44696">
        <ele>2481</ele>
        <time>2018-12-27T02:39:25Z</time>
      </trkpt>
      <trkpt lat="42.69698" lon="-0.44715">
        <ele>2465</ele>
        <time>2018-12-27T02:39:29Z</time>
      </trkpt>
      <trkpt lat="42.69699" lon="-0.44714">
        <ele>2464</ele>
        <time>2018-12-27T02:39:30Z</time>
      </trkpt>
      <trkpt lat="42.69702" lon="-0.44717">
        <ele>2461</ele>
        <time>2018-12-27T02:39:30Z</time>
      </trkpt>
      <trkpt lat="42.69705" lon="-0.44729">
        <ele>2456</ele>
        <time>2018-12-27T02:39:33Z</time>
      </trkpt>
      <trkpt lat="42.69709" lon="-0.44727">
        <ele>2455</ele>
        <time>2018-12-27T02:39:34Z</time>
      </trkpt>
      <trkpt lat="42.6971" lon="-0.44729">
        <ele>2454</ele>
        <time>2018-12-27T02:39:34Z</time>
      </trkpt>
      <trkpt lat="42.6971" lon="-0.44739">
        <ele>2451</ele>
        <time>2018-12-27T02:39:36Z</time>
      </trkpt>
      <trkpt lat="42.69712" lon="-0.44746">
        <ele>2449</ele>
        <time>2018-12-27T02:39:38Z</time>
      </trkpt>
      <trkpt lat="42.69717" lon="-0.44747">
        <ele>2446</ele>
        <time>2018-12-27T02:39:39Z</time>
      </trkpt>
      <trkpt lat="42.69723" lon="-0.44739">
        <ele>2446</ele>
        <time>2018-12-27T02:39:42Z</time>
      </trkpt>
      <trkpt lat="42.69725" lon="-0.44751">
        <ele>2442</ele>
        <time>2018-12-27T02:39:44Z</time>
      </trkpt>
      <trkpt lat="42.69729" lon="-0.44761">
        <ele>2437</ele>
        <time>2018-12-27T02:39:46Z</time>
      </trkpt>
      <trkpt lat="42.69736" lon="-0.4476">
        <ele>2432</ele>
        <time>2018-12-27T02:39:48Z</time>
      </trkpt>
      <trkpt lat="42.69741" lon="-0.44756">
        <ele>2430</ele>
        <time>2018-12-27T02:39:50Z</time>
      </trkpt>
      <trkpt lat="42.6975" lon="-0.44767">
        <ele>2424</ele>
        <time>2018-12-27T02:39:53Z</time>
      </trkpt>
      <trkpt lat="42.69755" lon="-0.44763">
        <ele>2423</ele>
        <time>2018-12-27T02:39:54Z</time>
      </trkpt>
      <trkpt lat="42.69756" lon="-0.44758">
        <ele>2424</ele>
        <time>2018-12-27T02:39:55Z</time>
      </trkpt>
      <trkpt lat="42.69761" lon="-0.44756">
        <ele>2423</ele>
        <time>2018-12-27T02:39:57Z</time>
      </trkpt>
      <trkpt lat="42.69766" lon="-0.44758">
        <ele>2422</ele>
        <time>2018-12-27T02:39:58Z</time>
      </trkpt>
      <trkpt lat="42.69775" lon="-0.44758">
        <ele>2421</ele>
        <time>2018-12-27T02:40:01Z</time>
      </trkpt>
      <trkpt lat="42.69777" lon="-0.44757">
        <ele>2421</ele>
        <time>2018-12-27T02:40:01Z</time>
      </trkpt>
      <trkpt lat="42.69785" lon="-0.4476">
        <ele>2419</ele>
        <time>2018-12-27T02:40:03Z</time>
      </trkpt>
      <trkpt lat="42.69796" lon="-0.4476">
        <ele>2416</ele>
        <time>2018-12-27T02:40:06Z</time>
      </trkpt>
      <trkpt lat="42.69809" lon="-0.44757">
        <ele>2414</ele>
        <time>2018-12-27T02:40:10Z</time>
      </trkpt>
      <trkpt lat="42.69815" lon="-0.44754">
        <ele>2414</ele>
        <time>2018-12-27T02:40:11Z</time>
      </trkpt>
      <trkpt lat="42.6983" lon="-0.44743">
        <ele>2415</ele>
        <time>2018-12-27T02:40:16Z</time>
      </trkpt>
      <trkpt lat="42.69846" lon="-0.44734">
        <ele>2417</ele>
        <time>2018-12-27T02:40:21Z</time>
      </trkpt>
      <trkpt lat="42.69856" lon="-0.44733">
        <ele>2417</ele>
        <time>2018-12-27T02:40:23Z</time>
      </trkpt>
      <trkpt lat="42.69866" lon="-0.4473">
        <ele>2418</ele>
        <time>2018-12-27T02:40:26Z</time>
      </trkpt>
      <trkpt lat="42.69886" lon="-0.4473">
        <ele>2418</ele>
        <time>2018-12-27T02:40:31Z</time>
      </trkpt>
      <trkpt lat="42.69899" lon="-0.44727">
        <ele>2418</ele>
        <time>2018-12-27T02:40:35Z</time>
      </trkpt>
      <trkpt lat="42.69904" lon="-0.44723">
        <ele>2419</ele>
        <time>2018-12-27T02:40:37Z</time>
      </trkpt>
      <trkpt lat="42.69907" lon="-0.44717">
        <ele>2420</ele>
        <time>2018-12-27T02:40:38Z</time>
      </trkpt>
      <trkpt lat="42.6991" lon="-0.44702">
        <ele>2422</ele>
        <time>2018-12-27T02:40:41Z</time>
      </trkpt>
      <trkpt lat="42.6994" lon="-0.4465">
        <ele>2425</ele>
        <time>2018-12-27T02:40:54Z</time>
      </trkpt>
      <trkpt lat="42.69967" lon="-0.44624">
        <ele>2428</ele>
        <time>2018-12-27T02:41:03Z</time>
      </trkpt>
      <trkpt lat="42.69969" lon="-0.44617">
        <ele>2429</ele>
        <time>2018-12-27T02:41:04Z</time>
      </trkpt>
      <trkpt lat="42.69975" lon="-0.44615">
        <ele>2430</ele>
        <time>2018-12-27T02:41:06Z</time>
      </trkpt>
      <trkpt lat="42.69981" lon="-0.446">
        <ele>2431</ele>
        <time>2018-12-27T02:41:09Z</time>
      </trkpt>
      <trkpt lat="42.69988" lon="-0.44589">
        <ele>2432</ele>
        <time>2018-12-27T02:41:12Z</time>
      </trkpt>
      <trkpt lat="42.69995" lon="-0.44584">
        <ele>2434</ele>
        <time>2018-12-27T02:41:14Z</time>
      </trkpt>
      <trkpt lat="42.70001" lon="-0.44583">
        <ele>2435</ele>
        <time>2018-12-27T02:41:16Z</time>
      </trkpt>
      <trkpt lat="42.70004" lon="-0.4458">
        <ele>2436</ele>
        <time>2018-12-27T02:41:17Z</time>
      </trkpt>
      <trkpt lat="42.70005" lon="-0.44574">
        <ele>2437</ele>
        <time>2018-12-27T02:41:18Z</time>
      </trkpt>
      <trkpt lat="42.7001" lon="-0.44569">
        <ele>2439</ele>
        <time>2018-12-27T02:41:20Z</time>
      </trkpt>
      <trkpt lat="42.70014" lon="-0.44559">
        <ele>2440</ele>
        <time>2018-12-27T02:41:22Z</time>
      </trkpt>
      <trkpt lat="42.70016" lon="-0.44556">
        <ele>2441</ele>
        <time>2018-12-27T02:41:23Z</time>
      </trkpt>
      <trkpt lat="42.70017" lon="-0.44544">
        <ele>2443</ele>
        <time>2018-12-27T02:41:25Z</time>
      </trkpt>
      <trkpt lat="42.70022" lon="-0.44537">
        <ele>2446</ele>
        <time>2018-12-27T02:41:27Z</time>
      </trkpt>
      <trkpt lat="42.70034" lon="-0.44532">
        <ele>2454</ele>
        <time>2018-12-27T02:41:30Z</time>
      </trkpt>
      <trkpt lat="42.70042" lon="-0.44532">
        <ele>2460</ele>
        <time>2018-12-27T02:41:32Z</time>
      </trkpt>
      <trkpt lat="42.70048" lon="-0.44534">
        <ele>2464</ele>
        <time>2018-12-27T02:41:34Z</time>
      </trkpt>
      <trkpt lat="42.7005" lon="-0.44531">
        <ele>2466</ele>
        <time>2018-12-27T02:41:35Z</time>
      </trkpt>
      <trkpt lat="42.70055" lon="-0.4453">
        <ele>2470</ele>
        <time>2018-12-27T02:41:36Z</time>
      </trkpt>
      <trkpt lat="42.70058" lon="-0.44532">
        <ele>2471</ele>
        <time>2018-12-27T02:41:37Z</time>
      </trkpt>
      <trkpt lat="42.70064" lon="-0.44522">
        <ele>2476</ele>
        <time>2018-12-27T02:41:40Z</time>
      </trkpt>
      <trkpt lat="42.70066" lon="-0.44515">
        <ele>2479</ele>
        <time>2018-12-27T02:41:41Z</time>
      </trkpt>
      <trkpt lat="42.70068" lon="-0.44515">
        <ele>2480</ele>
        <time>2018-12-27T02:41:41Z</time>
      </trkpt>
      <trkpt lat="42.70069" lon="-0.44513">
        <ele>2481</ele>
        <time>2018-12-27T02:41:42Z</time>
      </trkpt>
      <trkpt lat="42.7007" lon="-0.44508">
        <ele>2483</ele>
        <time>2018-12-27T02:41:43Z</time>
      </trkpt>
      <trkpt lat="42.70077" lon="-0.44512">
        <ele>2483</ele>
        <time>2018-12-27T02:41:45Z</time>
      </trkpt>
      <trkpt lat="42.7008" lon="-0.44511">
        <ele>2484</ele>
        <time>2018-12-27T02:41:46Z</time>
      </trkpt>
      <trkpt lat="42.70082" lon="-0.445">
        <ele>2488</ele>
        <time>2018-12-27T02:41:48Z</time>
      </trkpt>
      <trkpt lat="42.70087" lon="-0.44502">
        <ele>2489</ele>
        <time>2018-12-27T02:41:49Z</time>
      </trkpt>
      <trkpt lat="42.70094" lon="-0.44508">
        <ele>2489</ele>
        <time>2018-12-27T02:41:51Z</time>
      </trkpt>
      <trkpt lat="42.70097" lon="-0.44505">
        <ele>2491</ele>
        <time>2018-12-27T02:41:52Z</time>
      </trkpt>
      <trkpt lat="42.70101" lon="-0.44503">
        <ele>2492</ele>
        <time>2018-12-27T02:41:53Z</time>
      </trkpt>
      <trkpt lat="42.70104" lon="-0.44504">
        <ele>2493</ele>
        <time>2018-12-27T02:41:54Z</time>
      </trkpt>
      <trkpt lat="42.70107" lon="-0.44503">
        <ele>2494</ele>
        <time>2018-12-27T02:41:55Z</time>
      </trkpt>
      <trkpt lat="42.70111" lon="-0.44506">
        <ele>2494</ele>
        <time>2018-12-27T02:41:56Z</time>
      </trkpt>
      <trkpt lat="42.70113" lon="-0.44505">
        <ele>2496</ele>
        <time>2018-12-27T02:41:57Z</time>
      </trkpt>
      <trkpt lat="42.70117" lon="-0.44507">
        <ele>2499</ele>
        <time>2018-12-27T02:41:58Z</time>
      </trkpt>
      <trkpt lat="42.7012" lon="-0.44512">
        <ele>2500</ele>
        <time>2018-12-27T02:41:59Z</time>
      </trkpt>
      <trkpt lat="42.70129" lon="-0.445">
        <ele>2512</ele>
        <time>2018-12-27T02:42:03Z</time>
      </trkpt>
      <trkpt lat="42.7013" lon="-0.4449">
        <ele>2518</ele>
        <time>2018-12-27T02:42:05Z</time>
      </trkpt>
      <trkpt lat="42.70128" lon="-0.44487">
        <ele>2517</ele>
        <time>2018-12-27T02:42:05Z</time>
      </trkpt>
      <trkpt lat="42.70127" lon="-0.4448">
        <ele>2520</ele>
        <time>2018-12-27T02:42:07Z</time>
      </trkpt>
      <trkpt lat="42.70123" lon="-0.44471">
        <ele>2521</ele>
        <time>2018-12-27T02:42:09Z</time>
      </trkpt>
      <trkpt lat="42.70119" lon="-0.44457">
        <ele>2525</ele>
        <time>2018-12-27T02:42:12Z</time>
      </trkpt>
      <trkpt lat="42.70114" lon="-0.44448">
        <ele>2527</ele>
        <time>2018-12-27T02:42:14Z</time>
      </trkpt>
      <trkpt lat="42.70106" lon="-0.44438">
        <ele>2528</ele>
        <time>2018-12-27T02:42:17Z</time>
      </trkpt>
      <trkpt lat="42.70099" lon="-0.44421">
        <ele>2534</ele>
        <time>2018-12-27T02:42:21Z</time>
      </trkpt>
      <trkpt lat="42.70092" lon="-0.44415">
        <ele>2534</ele>
        <time>2018-12-27T02:42:23Z</time>
      </trkpt>
      <trkpt lat="42.70088" lon="-0.4441">
        <ele>2535</ele>
        <time>2018-12-27T02:42:24Z</time>
      </trkpt>
      <trkpt lat="42.70079" lon="-0.44392">
        <ele>2536</ele>
        <time>2018-12-27T02:42:29Z</time>
      </trkpt>
      <trkpt lat="42.70077" lon="-0.44383">
        <ele>2538</ele>
        <time>2018-12-27T02:42:31Z</time>
      </trkpt>
      <trkpt lat="42.70078" lon="-0.44377">
        <ele>2541</ele>
        <time>2018-12-27T02:42:32Z</time>
      </trkpt>
      <trkpt lat="42.70076" lon="-0.44373">
        <ele>2541</ele>
        <time>2018-12-27T02:42:33Z</time>
      </trkpt>
      <trkpt lat="42.70076" lon="-0.44369">
        <ele>2542</ele>
        <time>2018-12-27T02:42:34Z</time>
      </trkpt>
      <trkpt lat="42.70084" lon="-0.44361">
        <ele>2549</ele>
        <time>2018-12-27T02:42:36Z</time>
      </trkpt>
      <trkpt lat="42.70085" lon="-0.44353">
        <ele>2554</ele>
        <time>2018-12-27T02:42:38Z</time>
      </trkpt>
      <trkpt lat="42.70087" lon="-0.44352">
        <ele>2556</ele>
        <time>2018-12-27T02:42:38Z</time>
      </trkpt>
      <trkpt lat="42.7009" lon="-0.44336">
        <ele>2566</ele>
        <time>2018-12-27T02:42:42Z</time>
      </trkpt>
      <trkpt lat="42.70086" lon="-0.44307">
        <ele>2582</ele>
        <time>2018-12-27T02:42:47Z</time>
      </trkpt>
      <trkpt lat="42.70083" lon="-0.44298">
        <ele>2583</ele>
        <time>2018-12-27T02:42:49Z</time>
      </trkpt>
      <trkpt lat="42.70075" lon="-0.44283">
        <ele>2584</ele>
        <time>2018-12-27T02:42:53Z</time>
      </trkpt>
      <trkpt lat="42.70068" lon="-0.44277">
        <ele>2582</ele>
        <time>2018-12-27T02:42:55Z</time>
      </trkpt>
      <trkpt lat="42.70059" lon="-0.44274">
        <ele>2578</ele>
        <time>2018-12-27T02:42:58Z</time>
      </trkpt>
      <trkpt lat="42.70053" lon="-0.44268">
        <ele>2578</ele>
        <time>2018-12-27T02:43:00Z</time>
      </trkpt>
      <trkpt lat="42.70053" lon="-0.44261">
        <ele>2580</ele>
        <time>2018-12-27T02:43:01Z</time>
      </trkpt>
      <trkpt lat="42.70051" lon="-0.44254">
        <ele>2581</ele>
        <time>2018-12-27T02:43:02Z</time>
      </trkpt>
      <trkpt lat="42.70052" lon="-0.44252">
        <ele>2583</ele>
        <time>2018-12-27T02:43:03Z</time>
      </trkpt>
      <trkpt lat="42.70059" lon="-0.44245">
        <ele>2586</ele>
        <time>2018-12-27T02:43:05Z</time>
      </trkpt>
      <trkpt lat="42.70076" lon="-0.44235">
        <ele>2591</ele>
        <time>2018-12-27T02:43:10Z</time>
      </trkpt>
      <trkpt lat="42.70086" lon="-0.44232">
        <ele>2594</ele>
        <time>2018-12-27T02:43:13Z</time>
      </trkpt>
      <trkpt lat="42.701" lon="-0.44234">
        <ele>2597</ele>
        <time>2018-12-27T02:43:17Z</time>
      </trkpt>
      <trkpt lat="42.70112" lon="-0.4424">
        <ele>2600</ele>
        <time>2018-12-27T02:43:20Z</time>
      </trkpt>
      <trkpt lat="42.70121" lon="-0.4425">
        <ele>2604</ele>
        <time>2018-12-27T02:43:23Z</time>
      </trkpt>
      <trkpt lat="42.7013" lon="-0.44253">
        <ele>2607</ele>
        <time>2018-12-27T02:43:26Z</time>
      </trkpt>
      <trkpt lat="42.70135" lon="-0.44257">
        <ele>2609</ele>
        <time>2018-12-27T02:43:27Z</time>
      </trkpt>
      <trkpt lat="42.70137" lon="-0.44257">
        <ele>2610</ele>
        <time>2018-12-27T02:43:28Z</time>
      </trkpt>
      <trkpt lat="42.70141" lon="-0.44252">
        <ele>2609</ele>
        <time>2018-12-27T02:43:29Z</time>
      </trkpt>
      <trkpt lat="42.70157" lon="-0.44255">
        <ele>2608</ele>
        <time>2018-12-27T02:43:34Z</time>
      </trkpt>
      <trkpt lat="42.70158" lon="-0.4426">
        <ele>2610</ele>
        <time>2018-12-27T02:43:34Z</time>
      </trkpt>
      <trkpt lat="42.70154" lon="-0.44269">
        <ele>2614</ele>
        <time>2018-12-27T02:43:36Z</time>
      </trkpt>
      <trkpt lat="42.70157" lon="-0.44272">
        <ele>2615</ele>
        <time>2018-12-27T02:43:37Z</time>
      </trkpt>
      <trkpt lat="42.70158" lon="-0.44282">
        <ele>2619</ele>
        <time>2018-12-27T02:43:39Z</time>
      </trkpt>
      <trkpt lat="42.70167" lon="-0.4428">
        <ele>2622</ele>
        <time>2018-12-27T02:43:42Z</time>
      </trkpt>
      <trkpt lat="42.7017" lon="-0.44281">
        <ele>2625</ele>
        <time>2018-12-27T02:43:43Z</time>
      </trkpt>
      <trkpt lat="42.70172" lon="-0.44276">
        <ele>2624</ele>
        <time>2018-12-27T02:43:44Z</time>
      </trkpt>
      <trkpt lat="42.70169" lon="-0.44269">
        <ele>2617</ele>
        <time>2018-12-27T02:43:45Z</time>
      </trkpt>
      <trkpt lat="42.70177" lon="-0.44272">
        <ele>2625</ele>
        <time>2018-12-27T02:43:47Z</time>
      </trkpt>
      <trkpt lat="42.70181" lon="-0.44269">
        <ele>2626</ele>
        <time>2018-12-27T02:43:49Z</time>
      </trkpt>
      <trkpt lat="42.70183" lon="-0.44273">
        <ele>2631</ele>
        <time>2018-12-27T02:43:50Z</time>
      </trkpt>
      <trkpt lat="42.70185" lon="-0.44267">
        <ele>2627</ele>
        <time>2018-12-27T02:43:51Z</time>
      </trkpt>
      <trkpt lat="42.70197" lon="-0.44265">
        <ele>2633</ele>
        <time>2018-12-27T02:43:54Z</time>
      </trkpt>
      <trkpt lat="42.70208" lon="-0.4426">
        <ele>2636</ele>
        <time>2018-12-27T02:43:57Z</time>
      </trkpt>
      <trkpt lat="42.70219" lon="-0.44256">
        <ele>2644</ele>
        <time>2018-12-27T02:44:00Z</time>
      </trkpt>
      <trkpt lat="42.7023" lon="-0.44271">
        <ele>2656</ele>
        <time>2018-12-27T02:44:04Z</time>
      </trkpt>
      <trkpt lat="42.70244" lon="-0.44282">
        <ele>2666</ele>
        <time>2018-12-27T02:44:08Z</time>
      </trkpt>
      <trkpt lat="42.7025" lon="-0.44299">
        <ele>2674</ele>
        <time>2018-12-27T02:44:12Z</time>
      </trkpt>
      <trkpt lat="42.7025" lon="-0.44306">
        <ele>2677</ele>
        <time>2018-12-27T02:44:13Z</time>
      </trkpt>
      <trkpt lat="42.70248" lon="-0.4431">
        <ele>2674</ele>
        <time>2018-12-27T02:44:15Z</time>
      </trkpt>
      <trkpt lat="42.70248" lon="-0.44309">
        <ele>2675</ele>
        <time>2018-12-27T02:44:15Z</time>
      </trkpt>
      <trkpt lat="42.70244" lon="-0.44311">
        <ele>2673</ele>
        <time>2018-12-27T02:44:16Z</time>
      </trkpt>
      <trkpt lat="42.70243" lon="-0.44304">
        <ele>2674</ele>
        <time>2018-12-27T02:44:17Z</time>
      </trkpt>
      <trkpt lat="42.70238" lon="-0.44304">
        <ele>2672</ele>
        <time>2018-12-27T02:44:18Z</time>
      </trkpt>
      <trkpt lat="42.70236" lon="-0.44312">
        <ele>2671</ele>
        <time>2018-12-27T02:44:20Z</time>
      </trkpt>
      <trkpt lat="42.70241" lon="-0.44345">
        <ele>2661</ele>
        <time>2018-12-27T02:44:27Z</time>
      </trkpt>
      <trkpt lat="42.70246" lon="-0.44363">
        <ele>2653</ele>
        <time>2018-12-27T02:44:31Z</time>
      </trkpt>
      <trkpt lat="42.70245" lon="-0.44375">
        <ele>2645</ele>
        <time>2018-12-27T02:44:33Z</time>
      </trkpt>
      <trkpt lat="42.70246" lon="-0.44379">
        <ele>2642</ele>
        <time>2018-12-27T02:44:34Z</time>
      </trkpt>
      <trkpt lat="42.70249" lon="-0.44383">
        <ele>2641</ele>
        <time>2018-12-27T02:44:35Z</time>
      </trkpt>
      <trkpt lat="42.70263" lon="-0.44385">
        <ele>2650</ele>
        <time>2018-12-27T02:44:38Z</time>
      </trkpt>
      <trkpt lat="42.70277" lon="-0.44404">
        <ele>2657</ele>
        <time>2018-12-27T02:44:44Z</time>
      </trkpt>
      <trkpt lat="42.70282" lon="-0.44408">
        <ele>2658</ele>
        <time>2018-12-27T02:44:45Z</time>
      </trkpt>
      <trkpt lat="42.70279" lon="-0.44408">
        <ele>2657</ele>
        <time>2018-12-27T02:44:46Z</time>
      </trkpt>
      <trkpt lat="42.70276" lon="-0.44403">
        <ele>2656</ele>
        <time>2018-12-27T02:44:47Z</time>
      </trkpt>
      <trkpt lat="42.70272" lon="-0.44402">
        <ele>2651</ele>
        <time>2018-12-27T02:44:49Z</time>
      </trkpt>
      <trkpt lat="42.70269" lon="-0.44398">
        <ele>2650</ele>
        <time>2018-12-27T02:44:50Z</time>
      </trkpt>
      <trkpt lat="42.70266" lon="-0.44399">
        <ele>2646</ele>
        <time>2018-12-27T02:44:50Z</time>
      </trkpt>
      <trkpt lat="42.70266" lon="-0.44408">
        <ele>2641</ele>
        <time>2018-12-27T02:44:52Z</time>
      </trkpt>
      <trkpt lat="42.7027" lon="-0.44418">
        <ele>2641</ele>
        <time>2018-12-27T02:44:54Z</time>
      </trkpt>
      <trkpt lat="42.70291" lon="-0.44438">
        <ele>2645</ele>
        <time>2018-12-27T02:45:01Z</time>
      </trkpt>
      <trkpt lat="42.70302" lon="-0.44454">
        <ele>2642</ele>
        <time>2018-12-27T02:45:05Z</time>
      </trkpt>
      <trkpt lat="42.70306" lon="-0.44466">
        <ele>2638</ele>
        <time>2018-12-27T02:45:08Z</time>
      </trkpt>
      <trkpt lat="42.70318" lon="-0.44486">
        <ele>2634</ele>
        <time>2018-12-27T02:45:13Z</time>
      </trkpt>
      <trkpt lat="42.70331" lon="-0.44502">
        <ele>2635</ele>
        <time>2018-12-27T02:45:18Z</time>
      </trkpt>
      <trkpt lat="42.70328" lon="-0.44509">
        <ele>2631</ele>
        <time>2018-12-27T02:45:19Z</time>
      </trkpt>
      <trkpt lat="42.70316" lon="-0.44524">
        <ele>2620</ele>
        <time>2018-12-27T02:45:23Z</time>
      </trkpt>
      <trkpt lat="42.70316" lon="-0.44535">
        <ele>2616</ele>
        <time>2018-12-27T02:45:26Z</time>
      </trkpt>
      <trkpt lat="42.7032" lon="-0.44558">
        <ele>2609</ele>
        <time>2018-12-27T02:45:30Z</time>
      </trkpt>
      <trkpt lat="42.70318" lon="-0.44585">
        <ele>2605</ele>
        <time>2018-12-27T02:45:36Z</time>
      </trkpt>
      <trkpt lat="42.70319" lon="-0.44637">
        <ele>2609</ele>
        <time>2018-12-27T02:45:46Z</time>
      </trkpt>
      <trkpt lat="42.70318" lon="-0.44654">
        <ele>2608</ele>
        <time>2018-12-27T02:45:49Z</time>
      </trkpt>
      <trkpt lat="42.70322" lon="-0.44668">
        <ele>2612</ele>
        <time>2018-12-27T02:45:52Z</time>
      </trkpt>
      <trkpt lat="42.70345" lon="-0.44708">
        <ele>2613</ele>
        <time>2018-12-27T02:46:02Z</time>
      </trkpt>
      <trkpt lat="42.70351" lon="-0.4473">
        <ele>2611</ele>
        <time>2018-12-27T02:46:07Z</time>
      </trkpt>
      <trkpt lat="42.70357" lon="-0.44741">
        <ele>2612</ele>
        <time>2018-12-27T02:46:09Z</time>
      </trkpt>
      <trkpt lat="42.7036" lon="-0.44755">
        <ele>2611</ele>
        <time>2018-12-27T02:46:12Z</time>
      </trkpt>
      <trkpt lat="42.70387" lon="-0.44759">
        <ele>2609</ele>
        <time>2018-12-27T02:46:20Z</time>
      </trkpt>
      <trkpt lat="42.70401" lon="-0.44757">
        <ele>2608</ele>
        <time>2018-12-27T02:46:23Z</time>
      </trkpt>
      <trkpt lat="42.7042" lon="-0.44767">
        <ele>2609</ele>
        <time>2018-12-27T02:46:29Z</time>
      </trkpt>
      <trkpt lat="42.70451" lon="-0.44812">
        <ele>2605</ele>
        <time>2018-12-27T02:46:41Z</time>
      </trkpt>
      <trkpt lat="42.70453" lon="-0.44809">
        <ele>2604</ele>
        <time>2018-12-27T02:46:42Z</time>
      </trkpt>
      <trkpt lat="42.70456" lon="-0.4481">
        <ele>2603</ele>
        <time>2018-12-27T02:46:43Z</time>
      </trkpt>
      <trkpt lat="42.7046" lon="-0.44817">
        <ele>2601</ele>
        <time>2018-12-27T02:46:44Z</time>
      </trkpt>
      <trkpt lat="42.70467" lon="-0.44818">
        <ele>2600</ele>
        <time>2018-12-27T02:46:46Z</time>
      </trkpt>
      <trkpt lat="42.70472" lon="-0.44814">
        <ele>2597</ele>
        <time>2018-12-27T02:46:48Z</time>
      </trkpt>
      <trkpt lat="42.7048" lon="-0.44814">
        <ele>2598</ele>
        <time>2018-12-27T02:46:50Z</time>
      </trkpt>
      <trkpt lat="42.70485" lon="-0.44809">
        <ele>2597</ele>
        <time>2018-12-27T02:46:51Z</time>
      </trkpt>
      <trkpt lat="42.70486" lon="-0.44807">
        <ele>2597</ele>
        <time>2018-12-27T02:46:52Z</time>
      </trkpt>
      <trkpt lat="42.70495" lon="-0.44801">
        <ele>2596</ele>
        <time>2018-12-27T02:46:55Z</time>
      </trkpt>
      <trkpt lat="42.70513" lon="-0.44783">
        <ele>2598</ele>
        <time>2018-12-27T02:47:00Z</time>
      </trkpt>
      <trkpt lat="42.7052" lon="-0.44778">
        <ele>2602</ele>
        <time>2018-12-27T02:47:03Z</time>
      </trkpt>
      <trkpt lat="42.70528" lon="-0.44776">
        <ele>2605</ele>
        <time>2018-12-27T02:47:05Z</time>
      </trkpt>
      <trkpt lat="42.70557" lon="-0.44776">
        <ele>2617</ele>
        <time>2018-12-27T02:47:13Z</time>
      </trkpt>
      <trkpt lat="42.7057" lon="-0.44774">
        <ele>2607</ele>
        <time>2018-12-27T02:47:16Z</time>
      </trkpt>
      <trkpt lat="42.70585" lon="-0.44774">
        <ele>2598</ele>
        <time>2018-12-27T02:47:20Z</time>
      </trkpt>
      <trkpt lat="42.70598" lon="-0.44771">
        <ele>2596</ele>
        <time>2018-12-27T02:47:24Z</time>
      </trkpt>
      <trkpt lat="42.70606" lon="-0.44773">
        <ele>2596</ele>
        <time>2018-12-27T02:47:26Z</time>
      </trkpt>
      <trkpt lat="42.70612" lon="-0.44782">
        <ele>2599</ele>
        <time>2018-12-27T02:47:28Z</time>
      </trkpt>
      <trkpt lat="42.70617" lon="-0.44802">
        <ele>2606</ele>
        <time>2018-12-27T02:47:32Z</time>
      </trkpt>
      <trkpt lat="42.70617" lon="-0.44813">
        <ele>2611</ele>
        <time>2018-12-27T02:47:34Z</time>
      </trkpt>
      <trkpt lat="42.70623" lon="-0.44855">
        <ele>2623</ele>
        <time>2018-12-27T02:47:43Z</time>
      </trkpt>
      <trkpt lat="42.70623" lon="-0.44874">
        <ele>2625</ele>
        <time>2018-12-27T02:47:46Z</time>
      </trkpt>
      <trkpt lat="42.7063" lon="-0.44898">
        <ele>2627</ele>
        <time>2018-12-27T02:47:52Z</time>
      </trkpt>
      <trkpt lat="42.70639" lon="-0.44916">
        <ele>2628</ele>
        <time>2018-12-27T02:47:56Z</time>
      </trkpt>
      <trkpt lat="42.70656" lon="-0.44942">
        <ele>2631</ele>
        <time>2018-12-27T02:48:03Z</time>
      </trkpt>
      <trkpt lat="42.70673" lon="-0.44974">
        <ele>2635</ele>
        <time>2018-12-27T02:48:10Z</time>
      </trkpt>
      <trkpt lat="42.70697" lon="-0.45">
        <ele>2642</ele>
        <time>2018-12-27T02:48:19Z</time>
      </trkpt>
      <trkpt lat="42.70701" lon="-0.45006">
        <ele>2643</ele>
        <time>2018-12-27T02:48:20Z</time>
      </trkpt>
      <trkpt lat="42.70703" lon="-0.45013">
        <ele>2643</ele>
        <time>2018-12-27T02:48:22Z</time>
      </trkpt>
      <trkpt lat="42.70707" lon="-0.45017">
        <ele>2644</ele>
        <time>2018-12-27T02:48:23Z</time>
      </trkpt>
      <trkpt lat="42.70734" lon="-0.45038">
        <ele>2654</ele>
        <time>2018-12-27T02:48:31Z</time>
      </trkpt>
      <trkpt lat="42.70739" lon="-0.4504">
        <ele>2657</ele>
        <time>2018-12-27T02:48:33Z</time>
      </trkpt>
      <trkpt lat="42.7075" lon="-0.45043">
        <ele>2663</ele>
        <time>2018-12-27T02:48:36Z</time>
      </trkpt>
      <trkpt lat="42.70757" lon="-0.4505">
        <ele>2666</ele>
        <time>2018-12-27T02:48:38Z</time>
      </trkpt>
      <trkpt lat="42.70766" lon="-0.45042">
        <ele>2666</ele>
        <time>2018-12-27T02:48:41Z</time>
      </trkpt>
      <trkpt lat="42.70768" lon="-0.45034">
        <ele>2661</ele>
        <time>2018-12-27T02:48:42Z</time>
      </trkpt>
      <trkpt lat="42.70789" lon="-0.45">
        <ele>2644</ele>
        <time>2018-12-27T02:48:51Z</time>
      </trkpt>
      <trkpt lat="42.70806" lon="-0.4501">
        <ele>2648</ele>
        <time>2018-12-27T02:48:56Z</time>
      </trkpt>
      <trkpt lat="42.70815" lon="-0.45017">
        <ele>2653</ele>
        <time>2018-12-27T02:48:59Z</time>
      </trkpt>
      <trkpt lat="42.70818" lon="-0.45015">
        <ele>2651</ele>
        <time>2018-12-27T02:48:59Z</time>
      </trkpt>
      <trkpt lat="42.7082" lon="-0.4501">
        <ele>2646</ele>
        <time>2018-12-27T02:49:01Z</time>
      </trkpt>
      <trkpt lat="42.70824" lon="-0.45011">
        <ele>2646</ele>
        <time>2018-12-27T02:49:02Z</time>
      </trkpt>
      <trkpt lat="42.70829" lon="-0.45014">
        <ele>2648</ele>
        <time>2018-12-27T02:49:03Z</time>
      </trkpt>
      <trkpt lat="42.70838" lon="-0.44997">
        <ele>2633</ele>
        <time>2018-12-27T02:49:07Z</time>
      </trkpt>
      <trkpt lat="42.70846" lon="-0.45">
        <ele>2632</ele>
        <time>2018-12-27T02:49:10Z</time>
      </trkpt>
      <trkpt lat="42.7085" lon="-0.45008">
        <ele>2635</ele>
        <time>2018-12-27T02:49:11Z</time>
      </trkpt>
      <trkpt lat="42.7084" lon="-0.45032">
        <ele>2654</ele>
        <time>2018-12-27T02:49:17Z</time>
      </trkpt>
      <trkpt lat="42.70839" lon="-0.45046">
        <ele>2658</ele>
        <time>2018-12-27T02:49:20Z</time>
      </trkpt>
      <trkpt lat="42.70834" lon="-0.4505">
        <ele>2660</ele>
        <time>2018-12-27T02:49:21Z</time>
      </trkpt>
      <trkpt lat="42.70827" lon="-0.45051">
        <ele>2661</ele>
        <time>2018-12-27T02:49:23Z</time>
      </trkpt>
      <trkpt lat="42.70823" lon="-0.45059">
        <ele>2664</ele>
        <time>2018-12-27T02:49:25Z</time>
      </trkpt>
      <trkpt lat="42.70825" lon="-0.45074">
        <ele>2669</ele>
        <time>2018-12-27T02:49:28Z</time>
      </trkpt>
      <trkpt lat="42.70822" lon="-0.45088">
        <ele>2674</ele>
        <time>2018-12-27T02:49:31Z</time>
      </trkpt>
      <trkpt lat="42.70822" lon="-0.45106">
        <ele>2676</ele>
        <time>2018-12-27T02:49:34Z</time>
      </trkpt>
      <trkpt lat="42.70817" lon="-0.45117">
        <ele>2676</ele>
        <time>2018-12-27T02:49:37Z</time>
      </trkpt>
      <trkpt lat="42.70815" lon="-0.45129">
        <ele>2674</ele>
        <time>2018-12-27T02:49:39Z</time>
      </trkpt>
      <trkpt lat="42.70818" lon="-0.45143">
        <ele>2672</ele>
        <time>2018-12-27T02:49:42Z</time>
      </trkpt>
      <trkpt lat="42.7082" lon="-0.45176">
        <ele>2672</ele>
        <time>2018-12-27T02:49:48Z</time>
      </trkpt>
      <trkpt lat="42.70816" lon="-0.45182">
        <ele>2671</ele>
        <time>2018-12-27T02:49:50Z</time>
      </trkpt>
      <trkpt lat="42.70816" lon="-0.45192">
        <ele>2670</ele>
        <time>2018-12-27T02:49:52Z</time>
      </trkpt>
      <trkpt lat="42.70818" lon="-0.45197">
        <ele>2670</ele>
        <time>2018-12-27T02:49:53Z</time>
      </trkpt>
      <trkpt lat="42.70822" lon="-0.45239">
        <ele>2655</ele>
        <time>2018-12-27T02:50:01Z</time>
      </trkpt>
      <trkpt lat="42.70821" lon="-0.45248">
        <ele>2650</ele>
        <time>2018-12-27T02:50:03Z</time>
      </trkpt>
      <trkpt lat="42.70825" lon="-0.45275">
        <ele>2645</ele>
        <time>2018-12-27T02:50:08Z</time>
      </trkpt>
      <trkpt lat="42.70824" lon="-0.45289">
        <ele>2639</ele>
        <time>2018-12-27T02:50:11Z</time>
      </trkpt>
      <trkpt lat="42.70826" lon="-0.453">
        <ele>2634</ele>
        <time>2018-12-27T02:50:13Z</time>
      </trkpt>
      <trkpt lat="42.70823" lon="-0.45309">
        <ele>2630</ele>
        <time>2018-12-27T02:50:15Z</time>
      </trkpt>
      <trkpt lat="42.7082" lon="-0.4531">
        <ele>2629</ele>
        <time>2018-12-27T02:50:16Z</time>
      </trkpt>
      <trkpt lat="42.70821" lon="-0.45313">
        <ele>2629</ele>
        <time>2018-12-27T02:50:17Z</time>
      </trkpt>
      <trkpt lat="42.70818" lon="-0.45319">
        <ele>2627</ele>
        <time>2018-12-27T02:50:18Z</time>
      </trkpt>
      <trkpt lat="42.70819" lon="-0.45326">
        <ele>2626</ele>
        <time>2018-12-27T02:50:19Z</time>
      </trkpt>
      <trkpt lat="42.7081" lon="-0.45328">
        <ele>2623</ele>
        <time>2018-12-27T02:50:22Z</time>
      </trkpt>
      <trkpt lat="42.70809" lon="-0.4533">
        <ele>2622</ele>
        <time>2018-12-27T02:50:22Z</time>
      </trkpt>
      <trkpt lat="42.70811" lon="-0.45331">
        <ele>2623</ele>
        <time>2018-12-27T02:50:23Z</time>
      </trkpt>
      <trkpt lat="42.70808" lon="-0.45334">
        <ele>2621</ele>
        <time>2018-12-27T02:50:24Z</time>
      </trkpt>
      <trkpt lat="42.70813" lon="-0.45341">
        <ele>2620</ele>
        <time>2018-12-27T02:50:26Z</time>
      </trkpt>
      <trkpt lat="42.70817" lon="-0.45344">
        <ele>2620</ele>
        <time>2018-12-27T02:50:27Z</time>
      </trkpt>
      <trkpt lat="42.70818" lon="-0.45349">
        <ele>2619</ele>
        <time>2018-12-27T02:50:28Z</time>
      </trkpt>
      <trkpt lat="42.70819" lon="-0.45354">
        <ele>2617</ele>
        <time>2018-12-27T02:50:29Z</time>
      </trkpt>
      <trkpt lat="42.70815" lon="-0.4537">
        <ele>2611</ele>
        <time>2018-12-27T02:50:33Z</time>
      </trkpt>
      <trkpt lat="42.70815" lon="-0.45401">
        <ele>2603</ele>
        <time>2018-12-27T02:50:38Z</time>
      </trkpt>
      <trkpt lat="42.70821" lon="-0.45429">
        <ele>2603</ele>
        <time>2018-12-27T02:50:44Z</time>
      </trkpt>
      <trkpt lat="42.70826" lon="-0.45437">
        <ele>2605</ele>
        <time>2018-12-27T02:50:46Z</time>
      </trkpt>
      <trkpt lat="42.70843" lon="-0.4544">
        <ele>2613</ele>
        <time>2018-12-27T02:50:51Z</time>
      </trkpt>
      <trkpt lat="42.70849" lon="-0.45448">
        <ele>2615</ele>
        <time>2018-12-27T02:50:53Z</time>
      </trkpt>
      <trkpt lat="42.70856" lon="-0.45454">
        <ele>2617</ele>
        <time>2018-12-27T02:50:55Z</time>
      </trkpt>
      <trkpt lat="42.70858" lon="-0.4545">
        <ele>2618</ele>
        <time>2018-12-27T02:50:56Z</time>
      </trkpt>
      <trkpt lat="42.70865" lon="-0.45451">
        <ele>2620</ele>
        <time>2018-12-27T02:50:58Z</time>
      </trkpt>
      <trkpt lat="42.70867" lon="-0.45448">
        <ele>2620</ele>
        <time>2018-12-27T02:50:59Z</time>
      </trkpt>
      <trkpt lat="42.7087" lon="-0.45448">
        <ele>2621</ele>
        <time>2018-12-27T02:51:00Z</time>
      </trkpt>
      <trkpt lat="42.70872" lon="-0.45445">
        <ele>2620</ele>
        <time>2018-12-27T02:51:00Z</time>
      </trkpt>
      <trkpt lat="42.70875" lon="-0.45446">
        <ele>2621</ele>
        <time>2018-12-27T02:51:01Z</time>
      </trkpt>
      <trkpt lat="42.70877" lon="-0.45459">
        <ele>2625</ele>
        <time>2018-12-27T02:51:04Z</time>
      </trkpt>
      <trkpt lat="42.70878" lon="-0.4546">
        <ele>2626</ele>
        <time>2018-12-27T02:51:04Z</time>
      </trkpt>
      <trkpt lat="42.70878" lon="-0.45463">
        <ele>2627</ele>
        <time>2018-12-27T02:51:05Z</time>
      </trkpt>
      <trkpt lat="42.70881" lon="-0.45466">
        <ele>2629</ele>
        <time>2018-12-27T02:51:06Z</time>
      </trkpt>
      <trkpt lat="42.70882" lon="-0.45471">
        <ele>2632</ele>
        <time>2018-12-27T02:51:07Z</time>
      </trkpt>
      <trkpt lat="42.7088" lon="-0.45482">
        <ele>2637</ele>
        <time>2018-12-27T02:51:09Z</time>
      </trkpt>
      <trkpt lat="42.70882" lon="-0.45491">
        <ele>2642</ele>
        <time>2018-12-27T02:51:11Z</time>
      </trkpt>
      <trkpt lat="42.7088" lon="-0.45504">
        <ele>2648</ele>
        <time>2018-12-27T02:51:14Z</time>
      </trkpt>
      <trkpt lat="42.70878" lon="-0.45511">
        <ele>2649</ele>
        <time>2018-12-27T02:51:15Z</time>
      </trkpt>
      <trkpt lat="42.70867" lon="-0.45532">
        <ele>2649</ele>
        <time>2018-12-27T02:51:20Z</time>
      </trkpt>
      <trkpt lat="42.70865" lon="-0.45539">
        <ele>2651</ele>
        <time>2018-12-27T02:51:22Z</time>
      </trkpt>
      <trkpt lat="42.70859" lon="-0.45545">
        <ele>2651</ele>
        <time>2018-12-27T02:51:24Z</time>
      </trkpt>
      <trkpt lat="42.70847" lon="-0.45556">
        <ele>2645</ele>
        <time>2018-12-27T02:51:27Z</time>
      </trkpt>
      <trkpt lat="42.70842" lon="-0.45566">
        <ele>2645</ele>
        <time>2018-12-27T02:51:30Z</time>
      </trkpt>
      <trkpt lat="42.70838" lon="-0.45566">
        <ele>2642</ele>
        <time>2018-12-27T02:51:31Z</time>
      </trkpt>
      <trkpt lat="42.70832" lon="-0.45569">
        <ele>2639</ele>
        <time>2018-12-27T02:51:33Z</time>
      </trkpt>
      <trkpt lat="42.70825" lon="-0.45578">
        <ele>2639</ele>
        <time>2018-12-27T02:51:35Z</time>
      </trkpt>
      <trkpt lat="42.70824" lon="-0.45594">
        <ele>2645</ele>
        <time>2018-12-27T02:51:38Z</time>
      </trkpt>
      <trkpt lat="42.70819" lon="-0.45602">
        <ele>2645</ele>
        <time>2018-12-27T02:51:41Z</time>
      </trkpt>
      <trkpt lat="42.70818" lon="-0.45607">
        <ele>2647</ele>
        <time>2018-12-27T02:51:41Z</time>
      </trkpt>
      <trkpt lat="42.7082" lon="-0.4561">
        <ele>2649</ele>
        <time>2018-12-27T02:51:42Z</time>
      </trkpt>
      <trkpt lat="42.70821" lon="-0.45615">
        <ele>2651</ele>
        <time>2018-12-27T02:51:43Z</time>
      </trkpt>
      <trkpt lat="42.70819" lon="-0.45618">
        <ele>2651</ele>
        <time>2018-12-27T02:51:44Z</time>
      </trkpt>
      <trkpt lat="42.70818" lon="-0.45623">
        <ele>2651</ele>
        <time>2018-12-27T02:51:45Z</time>
      </trkpt>
      <trkpt lat="42.7081" lon="-0.45634">
        <ele>2651</ele>
        <time>2018-12-27T02:51:48Z</time>
      </trkpt>
      <trkpt lat="42.70809" lon="-0.45637">
        <ele>2652</ele>
        <time>2018-12-27T02:51:49Z</time>
      </trkpt>
      <trkpt lat="42.70803" lon="-0.45645">
        <ele>2652</ele>
        <time>2018-12-27T02:51:51Z</time>
      </trkpt>
      <trkpt lat="42.70802" lon="-0.45663">
        <ele>2657</ele>
        <time>2018-12-27T02:51:55Z</time>
      </trkpt>
      <trkpt lat="42.70797" lon="-0.45681">
        <ele>2662</ele>
        <time>2018-12-27T02:51:58Z</time>
      </trkpt>
      <trkpt lat="42.70786" lon="-0.45694">
        <ele>2667</ele>
        <time>2018-12-27T02:52:02Z</time>
      </trkpt>
      <trkpt lat="42.70777" lon="-0.45698">
        <ele>2668</ele>
        <time>2018-12-27T02:52:05Z</time>
      </trkpt>
      <trkpt lat="42.70762" lon="-0.45716">
        <ele>2672</ele>
        <time>2018-12-27T02:52:10Z</time>
      </trkpt>
      <trkpt lat="42.7076" lon="-0.45716">
        <ele>2672</ele>
        <time>2018-12-27T02:52:11Z</time>
      </trkpt>
      <trkpt lat="42.70757" lon="-0.4572">
        <ele>2673</ele>
        <time>2018-12-27T02:52:12Z</time>
      </trkpt>
      <trkpt lat="42.70748" lon="-0.4574">
        <ele>2684</ele>
        <time>2018-12-27T02:52:17Z</time>
      </trkpt>
      <trkpt lat="42.7074" lon="-0.45768">
        <ele>2691</ele>
        <time>2018-12-27T02:52:22Z</time>
      </trkpt>
      <trkpt lat="42.70728" lon="-0.45792">
        <ele>2693</ele>
        <time>2018-12-27T02:52:28Z</time>
      </trkpt>
      <trkpt lat="42.70713" lon="-0.45811">
        <ele>2697</ele>
        <time>2018-12-27T02:52:33Z</time>
      </trkpt>
      <trkpt lat="42.70706" lon="-0.45814">
        <ele>2698</ele>
        <time>2018-12-27T02:52:36Z</time>
      </trkpt>
      <trkpt lat="42.70705" lon="-0.45811">
        <ele>2697</ele>
        <time>2018-12-27T02:52:36Z</time>
      </trkpt>
      <trkpt lat="42.70702" lon="-0.45813">
        <ele>2698</ele>
        <time>2018-12-27T02:52:37Z</time>
      </trkpt>
      <trkpt lat="42.70694" lon="-0.45825">
        <ele>2702</ele>
        <time>2018-12-27T02:52:40Z</time>
      </trkpt>
      <trkpt lat="42.70684" lon="-0.45833">
        <ele>2703</ele>
        <time>2018-12-27T02:52:44Z</time>
      </trkpt>
      <trkpt lat="42.70661" lon="-0.4586">
        <ele>2710</ele>
        <time>2018-12-27T02:52:52Z</time>
      </trkpt>
      <trkpt lat="42.70655" lon="-0.45871">
        <ele>2711</ele>
        <time>2018-12-27T02:52:54Z</time>
      </trkpt>
      <trkpt lat="42.70665" lon="-0.4588">
        <ele>2715</ele>
        <time>2018-12-27T02:52:57Z</time>
      </trkpt>
      <trkpt lat="42.70675" lon="-0.45901">
        <ele>2708</ele>
        <time>2018-12-27T02:53:02Z</time>
      </trkpt>
      <trkpt lat="42.70683" lon="-0.45904">
        <ele>2703</ele>
        <time>2018-12-27T02:53:05Z</time>
      </trkpt>
      <trkpt lat="42.70688" lon="-0.45911">
        <ele>2696</ele>
        <time>2018-12-27T02:53:07Z</time>
      </trkpt>
      <trkpt lat="42.70691" lon="-0.45922">
        <ele>2686</ele>
        <time>2018-12-27T02:53:09Z</time>
      </trkpt>
      <trkpt lat="42.70696" lon="-0.45931">
        <ele>2675</ele>
        <time>2018-12-27T02:53:11Z</time>
      </trkpt>
      <trkpt lat="42.707" lon="-0.45948">
        <ele>2664</ele>
        <time>2018-12-27T02:53:15Z</time>
      </trkpt>
      <trkpt lat="42.70703" lon="-0.45953">
        <ele>2664</ele>
        <time>2018-12-27T02:53:16Z</time>
      </trkpt>
      <trkpt lat="42.70708" lon="-0.45944">
        <ele>2659</ele>
        <time>2018-12-27T02:53:18Z</time>
      </trkpt>
      <trkpt lat="42.70718" lon="-0.45935">
        <ele>2660</ele>
        <time>2018-12-27T02:53:21Z</time>
      </trkpt>
      <trkpt lat="42.7073" lon="-0.45937">
        <ele>2652</ele>
        <time>2018-12-27T02:53:25Z</time>
      </trkpt>
      <trkpt lat="42.70734" lon="-0.45936">
        <ele>2652</ele>
        <time>2018-12-27T02:53:26Z</time>
      </trkpt>
      <trkpt lat="42.70738" lon="-0.45936">
        <ele>2650</ele>
        <time>2018-12-27T02:53:27Z</time>
      </trkpt>
      <trkpt lat="42.70745" lon="-0.45938">
        <ele>2645</ele>
        <time>2018-12-27T02:53:29Z</time>
      </trkpt>
      <trkpt lat="42.70749" lon="-0.4594">
        <ele>2641</ele>
        <time>2018-12-27T02:53:30Z</time>
      </trkpt>
      <trkpt lat="42.70756" lon="-0.45936">
        <ele>2644</ele>
        <time>2018-12-27T02:53:32Z</time>
      </trkpt>
      <trkpt lat="42.70763" lon="-0.45926">
        <ele>2651</ele>
        <time>2018-12-27T02:53:35Z</time>
      </trkpt>
      <trkpt lat="42.70768" lon="-0.45923">
        <ele>2652</ele>
        <time>2018-12-27T02:53:36Z</time>
      </trkpt>
      <trkpt lat="42.70772" lon="-0.45918">
        <ele>2654</ele>
        <time>2018-12-27T02:53:38Z</time>
      </trkpt>
      <trkpt lat="42.7078" lon="-0.45918">
        <ele>2651</ele>
        <time>2018-12-27T02:53:40Z</time>
      </trkpt>
      <trkpt lat="42.7079" lon="-0.45898">
        <ele>2650</ele>
        <time>2018-12-27T02:53:44Z</time>
      </trkpt>
      <trkpt lat="42.70794" lon="-0.45899">
        <ele>2647</ele>
        <time>2018-12-27T02:53:45Z</time>
      </trkpt>
      <trkpt lat="42.70793" lon="-0.45906">
        <ele>2646</ele>
        <time>2018-12-27T02:53:47Z</time>
      </trkpt>
      <trkpt lat="42.70795" lon="-0.45907">
        <ele>2645</ele>
        <time>2018-12-27T02:53:47Z</time>
      </trkpt>
      <trkpt lat="42.70804" lon="-0.45906">
        <ele>2639</ele>
        <time>2018-12-27T02:53:50Z</time>
      </trkpt>
      <trkpt lat="42.70807" lon="-0.4591">
        <ele>2637</ele>
        <time>2018-12-27T02:53:51Z</time>
      </trkpt>
      <trkpt lat="42.70808" lon="-0.4591">
        <ele>2636</ele>
        <time>2018-12-27T02:53:51Z</time>
      </trkpt>
      <trkpt lat="42.70809" lon="-0.45916">
        <ele>2634</ele>
        <time>2018-12-27T02:53:52Z</time>
      </trkpt>
      <trkpt lat="42.70814" lon="-0.45912">
        <ele>2632</ele>
        <time>2018-12-27T02:53:54Z</time>
      </trkpt>
      <trkpt lat="42.70815" lon="-0.45928">
        <ele>2626</ele>
        <time>2018-12-27T02:53:57Z</time>
      </trkpt>
      <trkpt lat="42.70817" lon="-0.4593">
        <ele>2625</ele>
        <time>2018-12-27T02:53:57Z</time>
      </trkpt>
      <trkpt lat="42.70822" lon="-0.4593">
        <ele>2622</ele>
        <time>2018-12-27T02:53:59Z</time>
      </trkpt>
      <trkpt lat="42.70823" lon="-0.45933">
        <ele>2621</ele>
        <time>2018-12-27T02:53:59Z</time>
      </trkpt>
      <trkpt lat="42.70829" lon="-0.45938">
        <ele>2616</ele>
        <time>2018-12-27T02:54:01Z</time>
      </trkpt>
      <trkpt lat="42.70829" lon="-0.4595">
        <ele>2613</ele>
        <time>2018-12-27T02:54:04Z</time>
      </trkpt>
      <trkpt lat="42.70831" lon="-0.45956">
        <ele>2611</ele>
        <time>2018-12-27T02:54:05Z</time>
      </trkpt>
      <trkpt lat="42.70831" lon="-0.45968">
        <ele>2607</ele>
        <time>2018-12-27T02:54:07Z</time>
      </trkpt>
      <trkpt lat="42.70835" lon="-0.45972">
        <ele>2605</ele>
        <time>2018-12-27T02:54:09Z</time>
      </trkpt>
      <trkpt lat="42.70841" lon="-0.45974">
        <ele>2602</ele>
        <time>2018-12-27T02:54:10Z</time>
      </trkpt>
      <trkpt lat="42.70848" lon="-0.45973">
        <ele>2600</ele>
        <time>2018-12-27T02:54:12Z</time>
      </trkpt>
      <trkpt lat="42.70851" lon="-0.45981">
        <ele>2597</ele>
        <time>2018-12-27T02:54:14Z</time>
      </trkpt>
      <trkpt lat="42.70853" lon="-0.45984">
        <ele>2595</ele>
        <time>2018-12-27T02:54:15Z</time>
      </trkpt>
      <trkpt lat="42.70854" lon="-0.45989">
        <ele>2594</ele>
        <time>2018-12-27T02:54:16Z</time>
      </trkpt>
      <trkpt lat="42.70852" lon="-0.45996">
        <ele>2593</ele>
        <time>2018-12-27T02:54:17Z</time>
      </trkpt>
      <trkpt lat="42.70853" lon="-0.46005">
        <ele>2590</ele>
        <time>2018-12-27T02:54:19Z</time>
      </trkpt>
      <trkpt lat="42.70852" lon="-0.46024">
        <ele>2585</ele>
        <time>2018-12-27T02:54:23Z</time>
      </trkpt>
      <trkpt lat="42.70854" lon="-0.46032">
        <ele>2582</ele>
        <time>2018-12-27T02:54:25Z</time>
      </trkpt>
      <trkpt lat="42.70857" lon="-0.46033">
        <ele>2580</ele>
        <time>2018-12-27T02:54:26Z</time>
      </trkpt>
      <trkpt lat="42.70859" lon="-0.46035">
        <ele>2579</ele>
        <time>2018-12-27T02:54:26Z</time>
      </trkpt>
      <trkpt lat="42.70856" lon="-0.46047">
        <ele>2576</ele>
        <time>2018-12-27T02:54:29Z</time>
      </trkpt>
      <trkpt lat="42.70861" lon="-0.46049">
        <ele>2574</ele>
        <time>2018-12-27T02:54:30Z</time>
      </trkpt>
      <trkpt lat="42.70863" lon="-0.46065">
        <ele>2567</ele>
        <time>2018-12-27T02:54:33Z</time>
      </trkpt>
      <trkpt lat="42.70872" lon="-0.46065">
        <ele>2564</ele>
        <time>2018-12-27T02:54:35Z</time>
      </trkpt>
      <trkpt lat="42.7088" lon="-0.46059">
        <ele>2562</ele>
        <time>2018-12-27T02:54:38Z</time>
      </trkpt>
      <trkpt lat="42.7089" lon="-0.46054">
        <ele>2560</ele>
        <time>2018-12-27T02:54:41Z</time>
      </trkpt>
      <trkpt lat="42.70897" lon="-0.46049">
        <ele>2560</ele>
        <time>2018-12-27T02:54:43Z</time>
      </trkpt>
      <trkpt lat="42.70897" lon="-0.46053">
        <ele>2558</ele>
        <time>2018-12-27T02:54:44Z</time>
      </trkpt>
      <trkpt lat="42.70892" lon="-0.4607">
        <ele>2555</ele>
        <time>2018-12-27T02:54:47Z</time>
      </trkpt>
      <trkpt lat="42.70892" lon="-0.46078">
        <ele>2552</ele>
        <time>2018-12-27T02:54:49Z</time>
      </trkpt>
      <trkpt lat="42.70895" lon="-0.46086">
        <ele>2550</ele>
        <time>2018-12-27T02:54:50Z</time>
      </trkpt>
      <trkpt lat="42.70881" lon="-0.46115">
        <ele>2547</ele>
        <time>2018-12-27T02:54:57Z</time>
      </trkpt>
      <trkpt lat="42.70879" lon="-0.46129">
        <ele>2543</ele>
        <time>2018-12-27T02:55:00Z</time>
      </trkpt>
      <trkpt lat="42.70882" lon="-0.46162">
        <ele>2534</ele>
        <time>2018-12-27T02:55:07Z</time>
      </trkpt>
      <trkpt lat="42.70882" lon="-0.46172">
        <ele>2532</ele>
        <time>2018-12-27T02:55:09Z</time>
      </trkpt>
      <trkpt lat="42.70887" lon="-0.46183">
        <ele>2527</ele>
        <time>2018-12-27T02:55:11Z</time>
      </trkpt>
      <trkpt lat="42.70885" lon="-0.46194">
        <ele>2524</ele>
        <time>2018-12-27T02:55:13Z</time>
      </trkpt>
      <trkpt lat="42.7089" lon="-0.46199">
        <ele>2521</ele>
        <time>2018-12-27T02:55:15Z</time>
      </trkpt>
      <trkpt lat="42.70891" lon="-0.46204">
        <ele>2520</ele>
        <time>2018-12-27T02:55:16Z</time>
      </trkpt>
      <trkpt lat="42.70892" lon="-0.4622">
        <ele>2516</ele>
        <time>2018-12-27T02:55:19Z</time>
      </trkpt>
      <trkpt lat="42.70893" lon="-0.46226">
        <ele>2515</ele>
        <time>2018-12-27T02:55:20Z</time>
      </trkpt>
      <trkpt lat="42.70898" lon="-0.46231">
        <ele>2514</ele>
        <time>2018-12-27T02:55:22Z</time>
      </trkpt>
      <trkpt lat="42.70897" lon="-0.4625">
        <ele>2510</ele>
        <time>2018-12-27T02:55:26Z</time>
      </trkpt>
      <trkpt lat="42.709" lon="-0.4627">
        <ele>2505</ele>
        <time>2018-12-27T02:55:30Z</time>
      </trkpt>
      <trkpt lat="42.70892" lon="-0.46304">
        <ele>2494</ele>
        <time>2018-12-27T02:55:37Z</time>
      </trkpt>
      <trkpt lat="42.70892" lon="-0.4631">
        <ele>2493</ele>
        <time>2018-12-27T02:55:38Z</time>
      </trkpt>
      <trkpt lat="42.70878" lon="-0.46332">
        <ele>2489</ele>
        <time>2018-12-27T02:55:43Z</time>
      </trkpt>
      <trkpt lat="42.70873" lon="-0.46336">
        <ele>2488</ele>
        <time>2018-12-27T02:55:45Z</time>
      </trkpt>
      <trkpt lat="42.70874" lon="-0.46339">
        <ele>2488</ele>
        <time>2018-12-27T02:55:46Z</time>
      </trkpt>
      <trkpt lat="42.70873" lon="-0.46353">
        <ele>2486</ele>
        <time>2018-12-27T02:55:48Z</time>
      </trkpt>
      <trkpt lat="42.7088" lon="-0.46405">
        <ele>2480</ele>
        <time>2018-12-27T02:55:59Z</time>
      </trkpt>
      <trkpt lat="42.70871" lon="-0.46444">
        <ele>2477</ele>
        <time>2018-12-27T02:56:07Z</time>
      </trkpt>
      <trkpt lat="42.70872" lon="-0.46458">
        <ele>2477</ele>
        <time>2018-12-27T02:56:09Z</time>
      </trkpt>
      <trkpt lat="42.70864" lon="-0.4647">
        <ele>2477</ele>
        <time>2018-12-27T02:56:13Z</time>
      </trkpt>
      <trkpt lat="42.70851" lon="-0.46479">
        <ele>2472</ele>
        <time>2018-12-27T02:56:16Z</time>
      </trkpt>
      <trkpt lat="42.70848" lon="-0.46485">
        <ele>2471</ele>
        <time>2018-12-27T02:56:18Z</time>
      </trkpt>
      <trkpt lat="42.70834" lon="-0.46498">
        <ele>2464</ele>
        <time>2018-12-27T02:56:22Z</time>
      </trkpt>
      <trkpt lat="42.70822" lon="-0.46505">
        <ele>2458</ele>
        <time>2018-12-27T02:56:26Z</time>
      </trkpt>
      <trkpt lat="42.70817" lon="-0.46504">
        <ele>2456</ele>
        <time>2018-12-27T02:56:27Z</time>
      </trkpt>
      <trkpt lat="42.70809" lon="-0.46498">
        <ele>2453</ele>
        <time>2018-12-27T02:56:30Z</time>
      </trkpt>
      <trkpt lat="42.70806" lon="-0.46498">
        <ele>2452</ele>
        <time>2018-12-27T02:56:30Z</time>
      </trkpt>
      <trkpt lat="42.70796" lon="-0.46506">
        <ele>2449</ele>
        <time>2018-12-27T02:56:34Z</time>
      </trkpt>
      <trkpt lat="42.70788" lon="-0.46504">
        <ele>2447</ele>
        <time>2018-12-27T02:56:36Z</time>
      </trkpt>
      <trkpt lat="42.70772" lon="-0.46502">
        <ele>2443</ele>
        <time>2018-12-27T02:56:40Z</time>
      </trkpt>
      <trkpt lat="42.70767" lon="-0.46511">
        <ele>2440</ele>
        <time>2018-12-27T02:56:42Z</time>
      </trkpt>
      <trkpt lat="42.70764" lon="-0.46514">
        <ele>2439</ele>
        <time>2018-12-27T02:56:43Z</time>
      </trkpt>
      <trkpt lat="42.7076" lon="-0.46511">
        <ele>2438</ele>
        <time>2018-12-27T02:56:44Z</time>
      </trkpt>
      <trkpt lat="42.70757" lon="-0.46516">
        <ele>2437</ele>
        <time>2018-12-27T02:56:45Z</time>
      </trkpt>
      <trkpt lat="42.70754" lon="-0.46516">
        <ele>2436</ele>
        <time>2018-12-27T02:56:46Z</time>
      </trkpt>
      <trkpt lat="42.70748" lon="-0.46513">
        <ele>2434</ele>
        <time>2018-12-27T02:56:48Z</time>
      </trkpt>
      <trkpt lat="42.7074" lon="-0.46517">
        <ele>2431</ele>
        <time>2018-12-27T02:56:50Z</time>
      </trkpt>
      <trkpt lat="42.70732" lon="-0.46517">
        <ele>2428</ele>
        <time>2018-12-27T02:56:52Z</time>
      </trkpt>
      <trkpt lat="42.70723" lon="-0.4652">
        <ele>2425</ele>
        <time>2018-12-27T02:56:55Z</time>
      </trkpt>
      <trkpt lat="42.70712" lon="-0.46516">
        <ele>2421</ele>
        <time>2018-12-27T02:56:58Z</time>
      </trkpt>
      <trkpt lat="42.707" lon="-0.46515">
        <ele>2417</ele>
        <time>2018-12-27T02:57:01Z</time>
      </trkpt>
      <trkpt lat="42.70664" lon="-0.4652">
        <ele>2407</ele>
        <time>2018-12-27T02:57:11Z</time>
      </trkpt>
      <trkpt lat="42.70639" lon="-0.46539">
        <ele>2404</ele>
        <time>2018-12-27T02:57:18Z</time>
      </trkpt>
      <trkpt lat="42.70632" lon="-0.46541">
        <ele>2402</ele>
        <time>2018-12-27T02:57:20Z</time>
      </trkpt>
      <trkpt lat="42.7062" lon="-0.46535">
        <ele>2400</ele>
        <time>2018-12-27T02:57:24Z</time>
      </trkpt>
      <trkpt lat="42.70607" lon="-0.46515">
        <ele>2400</ele>
        <time>2018-12-27T02:57:29Z</time>
      </trkpt>
      <trkpt lat="42.70598" lon="-0.465">
        <ele>2401</ele>
        <time>2018-12-27T02:57:33Z</time>
      </trkpt>
      <trkpt lat="42.70596" lon="-0.46498">
        <ele>2401</ele>
        <time>2018-12-27T02:57:33Z</time>
      </trkpt>
      <trkpt lat="42.7059" lon="-0.46486">
        <ele>2401</ele>
        <time>2018-12-27T02:57:36Z</time>
      </trkpt>
      <trkpt lat="42.70586" lon="-0.46482">
        <ele>2401</ele>
        <time>2018-12-27T02:57:38Z</time>
      </trkpt>
      <trkpt lat="42.70575" lon="-0.46479">
        <ele>2399</ele>
        <time>2018-12-27T02:57:40Z</time>
      </trkpt>
      <trkpt lat="42.70569" lon="-0.46467">
        <ele>2399</ele>
        <time>2018-12-27T02:57:43Z</time>
      </trkpt>
      <trkpt lat="42.70566" lon="-0.46467">
        <ele>2398</ele>
        <time>2018-12-27T02:57:44Z</time>
      </trkpt>
      <trkpt lat="42.70557" lon="-0.46466">
        <ele>2396</ele>
        <time>2018-12-27T02:57:46Z</time>
      </trkpt>
      <trkpt lat="42.70542" lon="-0.46473">
        <ele>2392</ele>
        <time>2018-12-27T02:57:51Z</time>
      </trkpt>
      <trkpt lat="42.70534" lon="-0.46484">
        <ele>2390</ele>
        <time>2018-12-27T02:57:54Z</time>
      </trkpt>
      <trkpt lat="42.70532" lon="-0.46482">
        <ele>2390</ele>
        <time>2018-12-27T02:57:54Z</time>
      </trkpt>
      <trkpt lat="42.70525" lon="-0.46482">
        <ele>2389</ele>
        <time>2018-12-27T02:57:56Z</time>
      </trkpt>
      <trkpt lat="42.70516" lon="-0.46479">
        <ele>2388</ele>
        <time>2018-12-27T02:57:59Z</time>
      </trkpt>
      <trkpt lat="42.70504" lon="-0.46478">
        <ele>2387</ele>
        <time>2018-12-27T02:58:02Z</time>
      </trkpt>
      <trkpt lat="42.70486" lon="-0.46493">
        <ele>2386</ele>
        <time>2018-12-27T02:58:07Z</time>
      </trkpt>
      <trkpt lat="42.70462" lon="-0.46499">
        <ele>2386</ele>
        <time>2018-12-27T02:58:14Z</time>
      </trkpt>
      <trkpt lat="42.70457" lon="-0.46502">
        <ele>2385</ele>
        <time>2018-12-27T02:58:15Z</time>
      </trkpt>
      <trkpt lat="42.70444" lon="-0.465">
        <ele>2386</ele>
        <time>2018-12-27T02:58:19Z</time>
      </trkpt>
      <trkpt lat="42.70415" lon="-0.46499">
        <ele>2387</ele>
        <time>2018-12-27T02:58:27Z</time>
      </trkpt>
      <trkpt lat="42.70401" lon="-0.46495">
        <ele>2387</ele>
        <time>2018-12-27T02:58:30Z</time>
      </trkpt>
      <trkpt lat="42.70392" lon="-0.46499">
        <ele>2387</ele>
        <time>2018-12-27T02:58:33Z</time>
      </trkpt>
      <trkpt lat="42.70384" lon="-0.46509">
        <ele>2387</ele>
        <time>2018-12-27T02:58:36Z</time>
      </trkpt>
      <trkpt lat="42.70356" lon="-0.46537">
        <ele>2387</ele>
        <time>2018-12-27T02:58:45Z</time>
      </trkpt>
      <trkpt lat="42.70316" lon="-0.46572">
        <ele>2388</ele>
        <time>2018-12-27T02:58:58Z</time>
      </trkpt>
      <trkpt lat="42.70307" lon="-0.46588">
        <ele>2389</ele>
        <time>2018-12-27T02:59:02Z</time>
      </trkpt>
      <trkpt lat="42.70287" lon="-0.46609">
        <ele>2386</ele>
        <time>2018-12-27T02:59:09Z</time>
      </trkpt>
      <trkpt lat="42.70271" lon="-0.4662">
        <ele>2385</ele>
        <time>2018-12-27T02:59:13Z</time>
      </trkpt>
      <trkpt lat="42.70251" lon="-0.46644">
        <ele>2382</ele>
        <time>2018-12-27T02:59:20Z</time>
      </trkpt>
      <trkpt lat="42.70238" lon="-0.46655">
        <ele>2379</ele>
        <time>2018-12-27T02:59:25Z</time>
      </trkpt>
      <trkpt lat="42.70234" lon="-0.46664">
        <ele>2378</ele>
        <time>2018-12-27T02:59:27Z</time>
      </trkpt>
      <trkpt lat="42.7023" lon="-0.4667">
        <ele>2376</ele>
        <time>2018-12-27T02:59:28Z</time>
      </trkpt>
      <trkpt lat="42.70217" lon="-0.46682">
        <ele>2373</ele>
        <time>2018-12-27T02:59:32Z</time>
      </trkpt>
      <trkpt lat="42.70183" lon="-0.46725">
        <ele>2362</ele>
        <time>2018-12-27T02:59:45Z</time>
      </trkpt>
      <trkpt lat="42.70157" lon="-0.46736">
        <ele>2358</ele>
        <time>2018-12-27T02:59:52Z</time>
      </trkpt>
      <trkpt lat="42.70121" lon="-0.46757">
        <ele>2353</ele>
        <time>2018-12-27T03:00:03Z</time>
      </trkpt>
      <trkpt lat="42.70106" lon="-0.46761">
        <ele>2352</ele>
        <time>2018-12-27T03:00:07Z</time>
      </trkpt>
      <trkpt lat="42.70087" lon="-0.4677">
        <ele>2351</ele>
        <time>2018-12-27T03:00:12Z</time>
      </trkpt>
      <trkpt lat="42.70064" lon="-0.46785">
        <ele>2348</ele>
        <time>2018-12-27T03:00:19Z</time>
      </trkpt>
      <trkpt lat="42.7004" lon="-0.46806">
        <ele>2341</ele>
        <time>2018-12-27T03:00:26Z</time>
      </trkpt>
      <trkpt lat="42.70031" lon="-0.46823">
        <ele>2336</ele>
        <time>2018-12-27T03:00:30Z</time>
      </trkpt>
      <trkpt lat="42.7002" lon="-0.4684">
        <ele>2331</ele>
        <time>2018-12-27T03:00:35Z</time>
      </trkpt>
      <trkpt lat="42.70013" lon="-0.46868">
        <ele>2327</ele>
        <time>2018-12-27T03:00:41Z</time>
      </trkpt>
      <trkpt lat="42.70005" lon="-0.46881">
        <ele>2325</ele>
        <time>2018-12-27T03:00:44Z</time>
      </trkpt>
      <trkpt lat="42.69994" lon="-0.46905">
        <ele>2321</ele>
        <time>2018-12-27T03:00:50Z</time>
      </trkpt>
      <trkpt lat="42.69978" lon="-0.4693">
        <ele>2313</ele>
        <time>2018-12-27T03:00:56Z</time>
      </trkpt>
      <trkpt lat="42.69947" lon="-0.46992">
        <ele>2296</ele>
        <time>2018-12-27T03:01:11Z</time>
      </trkpt>
      <trkpt lat="42.69934" lon="-0.47011">
        <ele>2291</ele>
        <time>2018-12-27T03:01:16Z</time>
      </trkpt>
      <trkpt lat="42.69923" lon="-0.47039">
        <ele>2288</ele>
        <time>2018-12-27T03:01:22Z</time>
      </trkpt>
      <trkpt lat="42.69915" lon="-0.47071">
        <ele>2282</ele>
        <time>2018-12-27T03:01:29Z</time>
      </trkpt>
      <trkpt lat="42.6989" lon="-0.47106">
        <ele>2273</ele>
        <time>2018-12-27T03:01:38Z</time>
      </trkpt>
      <trkpt lat="42.69878" lon="-0.47132">
        <ele>2270</ele>
        <time>2018-12-27T03:01:44Z</time>
      </trkpt>
      <trkpt lat="42.69854" lon="-0.47171">
        <ele>2260</ele>
        <time>2018-12-27T03:01:54Z</time>
      </trkpt>
      <trkpt lat="42.69852" lon="-0.47181">
        <ele>2259</ele>
        <time>2018-12-27T03:01:56Z</time>
      </trkpt>
      <trkpt lat="42.69841" lon="-0.47194">
        <ele>2254</ele>
        <time>2018-12-27T03:02:00Z</time>
      </trkpt>
      <trkpt lat="42.69831" lon="-0.47222">
        <ele>2246</ele>
        <time>2018-12-27T03:02:06Z</time>
      </trkpt>
      <trkpt lat="42.69806" lon="-0.47274">
        <ele>2235</ele>
        <time>2018-12-27T03:02:18Z</time>
      </trkpt>
      <trkpt lat="42.69801" lon="-0.4728">
        <ele>2232</ele>
        <time>2018-12-27T03:02:20Z</time>
      </trkpt>
      <trkpt lat="42.69791" lon="-0.47279">
        <ele>2228</ele>
        <time>2018-12-27T03:02:23Z</time>
      </trkpt>
      <trkpt lat="42.69788" lon="-0.4728">
        <ele>2226</ele>
        <time>2018-12-27T03:02:24Z</time>
      </trkpt>
      <trkpt lat="42.69782" lon="-0.47298">
        <ele>2220</ele>
        <time>2018-12-27T03:02:27Z</time>
      </trkpt>
      <trkpt lat="42.69776" lon="-0.47309">
        <ele>2215</ele>
        <time>2018-12-27T03:02:30Z</time>
      </trkpt>
      <trkpt lat="42.69775" lon="-0.47319">
        <ele>2213</ele>
        <time>2018-12-27T03:02:32Z</time>
      </trkpt>
      <trkpt lat="42.69771" lon="-0.47328">
        <ele>2211</ele>
        <time>2018-12-27T03:02:34Z</time>
      </trkpt>
      <trkpt lat="42.69771" lon="-0.47331">
        <ele>2210</ele>
        <time>2018-12-27T03:02:35Z</time>
      </trkpt>
      <trkpt lat="42.69764" lon="-0.47352">
        <ele>2205</ele>
        <time>2018-12-27T03:02:39Z</time>
      </trkpt>
      <trkpt lat="42.69756" lon="-0.47353">
        <ele>2202</ele>
        <time>2018-12-27T03:02:41Z</time>
      </trkpt>
      <trkpt lat="42.69732" lon="-0.4735">
        <ele>2194</ele>
        <time>2018-12-27T03:02:48Z</time>
      </trkpt>
      <trkpt lat="42.69722" lon="-0.47352">
        <ele>2191</ele>
        <time>2018-12-27T03:02:50Z</time>
      </trkpt>
      <trkpt lat="42.69714" lon="-0.47351">
        <ele>2188</ele>
        <time>2018-12-27T03:02:53Z</time>
      </trkpt>
      <trkpt lat="42.69705" lon="-0.47352">
        <ele>2185</ele>
        <time>2018-12-27T03:02:55Z</time>
      </trkpt>
      <trkpt lat="42.69691" lon="-0.47364">
        <ele>2177</ele>
        <time>2018-12-27T03:03:00Z</time>
      </trkpt>
      <trkpt lat="42.69677" lon="-0.4738">
        <ele>2166</ele>
        <time>2018-12-27T03:03:04Z</time>
      </trkpt>
      <trkpt lat="42.69667" lon="-0.4738">
        <ele>2159</ele>
        <time>2018-12-27T03:03:07Z</time>
      </trkpt>
      <trkpt lat="42.69659" lon="-0.47378">
        <ele>2157</ele>
        <time>2018-12-27T03:03:09Z</time>
      </trkpt>
      <trkpt lat="42.69638" lon="-0.47379">
        <ele>2149</ele>
        <time>2018-12-27T03:03:15Z</time>
      </trkpt>
      <trkpt lat="42.69609" lon="-0.47395">
        <ele>2139</ele>
        <time>2018-12-27T03:03:23Z</time>
      </trkpt>
      <trkpt lat="42.69601" lon="-0.47401">
        <ele>2135</ele>
        <time>2018-12-27T03:03:26Z</time>
      </trkpt>
      <trkpt lat="42.6959" lon="-0.47431">
        <ele>2124</ele>
        <time>2018-12-27T03:03:32Z</time>
      </trkpt>
      <trkpt lat="42.69576" lon="-0.47445">
        <ele>2114</ele>
        <time>2018-12-27T03:03:37Z</time>
      </trkpt>
      <trkpt lat="42.69574" lon="-0.47449">
        <ele>2113</ele>
        <time>2018-12-27T03:03:38Z</time>
      </trkpt>
      <trkpt lat="42.69566" lon="-0.47454">
        <ele>2108</ele>
        <time>2018-12-27T03:03:40Z</time>
      </trkpt>
      <trkpt lat="42.69559" lon="-0.47464">
        <ele>2103</ele>
        <time>2018-12-27T03:03:43Z</time>
      </trkpt>
      <trkpt lat="42.69558" lon="-0.47478">
        <ele>2100</ele>
        <time>2018-12-27T03:03:46Z</time>
      </trkpt>
      <trkpt lat="42.69553" lon="-0.4749">
        <ele>2094</ele>
        <time>2018-12-27T03:03:48Z</time>
      </trkpt>
      <trkpt lat="42.69547" lon="-0.475">
        <ele>2088</ele>
        <time>2018-12-27T03:03:51Z</time>
      </trkpt>
      <trkpt lat="42.69546" lon="-0.47519">
        <ele>2084</ele>
        <time>2018-12-27T03:03:54Z</time>
      </trkpt>
      <trkpt lat="42.69544" lon="-0.47534">
        <ele>2080</ele>
        <time>2018-12-27T03:03:58Z</time>
      </trkpt>
      <trkpt lat="42.69539" lon="-0.47543">
        <ele>2076</ele>
        <time>2018-12-27T03:04:00Z</time>
      </trkpt>
      <trkpt lat="42.69529" lon="-0.47549">
        <ele>2070</ele>
        <time>2018-12-27T03:04:03Z</time>
      </trkpt>
      <trkpt lat="42.69526" lon="-0.47556">
        <ele>2068</ele>
        <time>2018-12-27T03:04:04Z</time>
      </trkpt>
      <trkpt lat="42.69526" lon="-0.47568">
        <ele>2068</ele>
        <time>2018-12-27T03:04:07Z</time>
      </trkpt>
      <trkpt lat="42.69522" lon="-0.47581">
        <ele>2067</ele>
        <time>2018-12-27T03:04:09Z</time>
      </trkpt>
      <trkpt lat="42.69511" lon="-0.47591">
        <ele>2063</ele>
        <time>2018-12-27T03:04:13Z</time>
      </trkpt>
      <trkpt lat="42.69506" lon="-0.47599">
        <ele>2061</ele>
        <time>2018-12-27T03:04:15Z</time>
      </trkpt>
      <trkpt lat="42.695" lon="-0.47638">
        <ele>2056</ele>
        <time>2018-12-27T03:04:23Z</time>
      </trkpt>
      <trkpt lat="42.69494" lon="-0.4764">
        <ele>2053</ele>
        <time>2018-12-27T03:04:24Z</time>
      </trkpt>
      <trkpt lat="42.69479" lon="-0.47656">
        <ele>2042</ele>
        <time>2018-12-27T03:04:30Z</time>
      </trkpt>
      <trkpt lat="42.69464" lon="-0.47682">
        <ele>2028</ele>
        <time>2018-12-27T03:04:36Z</time>
      </trkpt>
      <trkpt lat="42.6945" lon="-0.47695">
        <ele>2020</ele>
        <time>2018-12-27T03:04:40Z</time>
      </trkpt>
      <trkpt lat="42.69431" lon="-0.47703">
        <ele>2012</ele>
        <time>2018-12-27T03:04:46Z</time>
      </trkpt>
      <trkpt lat="42.69428" lon="-0.47702">
        <ele>2011</ele>
        <time>2018-12-27T03:04:47Z</time>
      </trkpt>
      <trkpt lat="42.69427" lon="-0.47708">
        <ele>2010</ele>
        <time>2018-12-27T03:04:48Z</time>
      </trkpt>
      <trkpt lat="42.69424" lon="-0.47716">
        <ele>2008</ele>
        <time>2018-12-27T03:04:50Z</time>
      </trkpt>
      <trkpt lat="42.69416" lon="-0.47719">
        <ele>2005</ele>
        <time>2018-12-27T03:04:52Z</time>
      </trkpt>
      <trkpt lat="42.69411" lon="-0.4772">
        <ele>2002</ele>
        <time>2018-12-27T03:04:53Z</time>
      </trkpt>
      <trkpt lat="42.69405" lon="-0.47714">
        <ele>2000</ele>
        <time>2018-12-27T03:04:55Z</time>
      </trkpt>
      <trkpt lat="42.69401" lon="-0.47714">
        <ele>1997</ele>
        <time>2018-12-27T03:04:56Z</time>
      </trkpt>
      <trkpt lat="42.69398" lon="-0.47717">
        <ele>1995</ele>
        <time>2018-12-27T03:04:57Z</time>
      </trkpt>
      <trkpt lat="42.69392" lon="-0.47714">
        <ele>1992</ele>
        <time>2018-12-27T03:04:59Z</time>
      </trkpt>
      <trkpt lat="42.69368" lon="-0.4772">
        <ele>1976</ele>
        <time>2018-12-27T03:05:06Z</time>
      </trkpt>
      <trkpt lat="42.69364" lon="-0.47719">
        <ele>1974</ele>
        <time>2018-12-27T03:05:07Z</time>
      </trkpt>
      <trkpt lat="42.69361" lon="-0.47723">
        <ele>1972</ele>
        <time>2018-12-27T03:05:08Z</time>
      </trkpt>
      <trkpt lat="42.69359" lon="-0.47724">
        <ele>1970</ele>
        <time>2018-12-27T03:05:08Z</time>
      </trkpt>
      <trkpt lat="42.69351" lon="-0.47737">
        <ele>1965</ele>
        <time>2018-12-27T03:05:12Z</time>
      </trkpt>
      <trkpt lat="42.69349" lon="-0.47738">
        <ele>1964</ele>
        <time>2018-12-27T03:05:12Z</time>
      </trkpt>
      <trkpt lat="42.69347" lon="-0.47742">
        <ele>1962</ele>
        <time>2018-12-27T03:05:13Z</time>
      </trkpt>
      <trkpt lat="42.69339" lon="-0.47738">
        <ele>1958</ele>
        <time>2018-12-27T03:05:15Z</time>
      </trkpt>
      <trkpt lat="42.69335" lon="-0.47741">
        <ele>1955</ele>
        <time>2018-12-27T03:05:17Z</time>
      </trkpt>
      <trkpt lat="42.69325" lon="-0.47741">
        <ele>1948</ele>
        <time>2018-12-27T03:05:20Z</time>
      </trkpt>
      <trkpt lat="42.69321" lon="-0.4774">
        <ele>1946</ele>
        <time>2018-12-27T03:05:21Z</time>
      </trkpt>
      <trkpt lat="42.69316" lon="-0.47742">
        <ele>1942</ele>
        <time>2018-12-27T03:05:22Z</time>
      </trkpt>
      <trkpt lat="42.69314" lon="-0.47736">
        <ele>1940</ele>
        <time>2018-12-27T03:05:23Z</time>
      </trkpt>
      <trkpt lat="42.69312" lon="-0.47736">
        <ele>1939</ele>
        <time>2018-12-27T03:05:24Z</time>
      </trkpt>
      <trkpt lat="42.6931" lon="-0.47733">
        <ele>1938</ele>
        <time>2018-12-27T03:05:25Z</time>
      </trkpt>
      <trkpt lat="42.69307" lon="-0.47735">
        <ele>1936</ele>
        <time>2018-12-27T03:05:26Z</time>
      </trkpt>
      <trkpt lat="42.69303" lon="-0.47731">
        <ele>1933</ele>
        <time>2018-12-27T03:05:27Z</time>
      </trkpt>
      <trkpt lat="42.69292" lon="-0.47731">
        <ele>1926</ele>
        <time>2018-12-27T03:05:30Z</time>
      </trkpt>
      <trkpt lat="42.6928" lon="-0.47737">
        <ele>1918</ele>
        <time>2018-12-27T03:05:33Z</time>
      </trkpt>
      <trkpt lat="42.69277" lon="-0.47737">
        <ele>1916</ele>
        <time>2018-12-27T03:05:34Z</time>
      </trkpt>
      <trkpt lat="42.69276" lon="-0.47734">
        <ele>1916</ele>
        <time>2018-12-27T03:05:35Z</time>
      </trkpt>
      <trkpt lat="42.69272" lon="-0.47734">
        <ele>1913</ele>
        <time>2018-12-27T03:05:36Z</time>
      </trkpt>
      <trkpt lat="42.69266" lon="-0.47744">
        <ele>1910</ele>
        <time>2018-12-27T03:05:38Z</time>
      </trkpt>
      <trkpt lat="42.69264" lon="-0.47745">
        <ele>1908</ele>
        <time>2018-12-27T03:05:39Z</time>
      </trkpt>
      <trkpt lat="42.69261" lon="-0.47744">
        <ele>1907</ele>
        <time>2018-12-27T03:05:40Z</time>
      </trkpt>
      <trkpt lat="42.69257" lon="-0.47747">
        <ele>1904</ele>
        <time>2018-12-27T03:05:41Z</time>
      </trkpt>
      <trkpt lat="42.69251" lon="-0.47745">
        <ele>1901</ele>
        <time>2018-12-27T03:05:42Z</time>
      </trkpt>
      <trkpt lat="42.69246" lon="-0.47747">
        <ele>1897</ele>
        <time>2018-12-27T03:05:44Z</time>
      </trkpt>
      <trkpt lat="42.69239" lon="-0.47748">
        <ele>1890</ele>
        <time>2018-12-27T03:05:46Z</time>
      </trkpt>
      <trkpt lat="42.69237" lon="-0.47765">
        <ele>1884</ele>
        <time>2018-12-27T03:05:49Z</time>
      </trkpt>
      <trkpt lat="42.69234" lon="-0.47772">
        <ele>1879</ele>
        <time>2018-12-27T03:05:51Z</time>
      </trkpt>
      <trkpt lat="42.6924" lon="-0.47781">
        <ele>1882</ele>
        <time>2018-12-27T03:05:53Z</time>
      </trkpt>
      <trkpt lat="42.69238" lon="-0.47785">
        <ele>1880</ele>
        <time>2018-12-27T03:05:54Z</time>
      </trkpt>
      <trkpt lat="42.69235" lon="-0.47783">
        <ele>1877</ele>
        <time>2018-12-27T03:05:55Z</time>
      </trkpt>
      <trkpt lat="42.69234" lon="-0.47784">
        <ele>1876</ele>
        <time>2018-12-27T03:05:55Z</time>
      </trkpt>
      <trkpt lat="42.69234" lon="-0.47792">
        <ele>1875</ele>
        <time>2018-12-27T03:05:57Z</time>
      </trkpt>
      <trkpt lat="42.6923" lon="-0.47792">
        <ele>1871</ele>
        <time>2018-12-27T03:05:58Z</time>
      </trkpt>
      <trkpt lat="42.6923" lon="-0.47797">
        <ele>1870</ele>
        <time>2018-12-27T03:05:59Z</time>
      </trkpt>
      <trkpt lat="42.69226" lon="-0.47795">
        <ele>1867</ele>
        <time>2018-12-27T03:06:00Z</time>
      </trkpt>
      <trkpt lat="42.69226" lon="-0.47804">
        <ele>1866</ele>
        <time>2018-12-27T03:06:02Z</time>
      </trkpt>
      <trkpt lat="42.69223" lon="-0.47815">
        <ele>1861</ele>
        <time>2018-12-27T03:06:04Z</time>
      </trkpt>
      <trkpt lat="42.6922" lon="-0.47815">
        <ele>1858</ele>
        <time>2018-12-27T03:06:04Z</time>
      </trkpt>
      <trkpt lat="42.69217" lon="-0.47813">
        <ele>1856</ele>
        <time>2018-12-27T03:06:05Z</time>
      </trkpt>
      <trkpt lat="42.69216" lon="-0.47815">
        <ele>1855</ele>
        <time>2018-12-27T03:06:06Z</time>
      </trkpt>
      <trkpt lat="42.69213" lon="-0.47831">
        <ele>1850</ele>
        <time>2018-12-27T03:06:09Z</time>
      </trkpt>
      <trkpt lat="42.69209" lon="-0.47829">
        <ele>1847</ele>
        <time>2018-12-27T03:06:10Z</time>
      </trkpt>
      <trkpt lat="42.69204" lon="-0.47828">
        <ele>1844</ele>
        <time>2018-12-27T03:06:11Z</time>
      </trkpt>
      <trkpt lat="42.69201" lon="-0.47833">
        <ele>1841</ele>
        <time>2018-12-27T03:06:13Z</time>
      </trkpt>
      <trkpt lat="42.69199" lon="-0.4783">
        <ele>1839</ele>
        <time>2018-12-27T03:06:13Z</time>
      </trkpt>
      <trkpt lat="42.69193" lon="-0.4783">
        <ele>1834</ele>
        <time>2018-12-27T03:06:15Z</time>
      </trkpt>
      <trkpt lat="42.69191" lon="-0.47824">
        <ele>1834</ele>
        <time>2018-12-27T03:06:16Z</time>
      </trkpt>
      <trkpt lat="42.69181" lon="-0.47812">
        <ele>1829</ele>
        <time>2018-12-27T03:06:20Z</time>
      </trkpt>
      <trkpt lat="42.69174" lon="-0.47792">
        <ele>1828</ele>
        <time>2018-12-27T03:06:24Z</time>
      </trkpt>
      <trkpt lat="42.69168" lon="-0.47784">
        <ele>1825</ele>
        <time>2018-12-27T03:06:26Z</time>
      </trkpt>
      <trkpt lat="42.69164" lon="-0.47784">
        <ele>1823</ele>
        <time>2018-12-27T03:06:27Z</time>
      </trkpt>
      <trkpt lat="42.69159" lon="-0.47787">
        <ele>1820</ele>
        <time>2018-12-27T03:06:29Z</time>
      </trkpt>
      <trkpt lat="42.69158" lon="-0.4779">
        <ele>1819</ele>
        <time>2018-12-27T03:06:30Z</time>
      </trkpt>
      <trkpt lat="42.69156" lon="-0.47789">
        <ele>1818</ele>
        <time>2018-12-27T03:06:30Z</time>
      </trkpt>
      <trkpt lat="42.69146" lon="-0.47794">
        <ele>1812</ele>
        <time>2018-12-27T03:06:33Z</time>
      </trkpt>
      <trkpt lat="42.69142" lon="-0.4779">
        <ele>1810</ele>
        <time>2018-12-27T03:06:34Z</time>
      </trkpt>
      <trkpt lat="42.69129" lon="-0.47801">
        <ele>1802</ele>
        <time>2018-12-27T03:06:38Z</time>
      </trkpt>
      <trkpt lat="42.69122" lon="-0.47814">
        <ele>1796</ele>
        <time>2018-12-27T03:06:41Z</time>
      </trkpt>
      <trkpt lat="42.69116" lon="-0.47815">
        <ele>1793</ele>
        <time>2018-12-27T03:06:43Z</time>
      </trkpt>
      <trkpt lat="42.69093" lon="-0.47813">
        <ele>1787</ele>
        <time>2018-12-27T03:06:49Z</time>
      </trkpt>
      <trkpt lat="42.69092" lon="-0.47828">
        <ele>1785</ele>
        <time>2018-12-27T03:06:52Z</time>
      </trkpt>
      <trkpt lat="42.6909" lon="-0.4783">
        <ele>1784</ele>
        <time>2018-12-27T03:06:53Z</time>
      </trkpt>
      <trkpt lat="42.69075" lon="-0.47826">
        <ele>1781</ele>
        <time>2018-12-27T03:06:57Z</time>
      </trkpt>
      <trkpt lat="42.69065" lon="-0.47817">
        <ele>1779</ele>
        <time>2018-12-27T03:07:00Z</time>
      </trkpt>
      <trkpt lat="42.69055" lon="-0.47813">
        <ele>1777</ele>
        <time>2018-12-27T03:07:03Z</time>
      </trkpt>
      <trkpt lat="42.69045" lon="-0.47794">
        <ele>1774</ele>
        <time>2018-12-27T03:07:07Z</time>
      </trkpt>
      <trkpt lat="42.69027" lon="-0.47778">
        <ele>1767</ele>
        <time>2018-12-27T03:07:13Z</time>
      </trkpt>
      <trkpt lat="42.69" lon="-0.47729">
        <ele>1758</ele>
        <time>2018-12-27T03:07:25Z</time>
      </trkpt>
      <trkpt lat="42.68989" lon="-0.47694">
        <ele>1750</ele>
        <time>2018-12-27T03:07:33Z</time>
      </trkpt>
      <trkpt lat="42.68961" lon="-0.47652">
        <ele>1734</ele>
        <time>2018-12-27T03:07:44Z</time>
      </trkpt>
      <trkpt lat="42.6895" lon="-0.47641">
        <ele>1728</ele>
        <time>2018-12-27T03:07:47Z</time>
      </trkpt>
      <trkpt lat="42.68942" lon="-0.47629">
        <ele>1724</ele>
        <time>2018-12-27T03:07:50Z</time>
      </trkpt>
      <trkpt lat="42.68928" lon="-0.47593">
        <ele>1719</ele>
        <time>2018-12-27T03:07:58Z</time>
      </trkpt>
      <trkpt lat="42.68919" lon="-0.47553">
        <ele>1714</ele>
        <time>2018-12-27T03:08:07Z</time>
      </trkpt>
      <trkpt lat="42.68899" lon="-0.47528">
        <ele>1704</ele>
        <time>2018-12-27T03:08:14Z</time>
      </trkpt>
      <trkpt lat="42.68897" lon="-0.47502">
        <ele>1703</ele>
        <time>2018-12-27T03:08:19Z</time>
      </trkpt>
      <trkpt lat="42.68887" lon="-0.47472">
        <ele>1698</ele>
        <time>2018-12-27T03:08:25Z</time>
      </trkpt>
      <trkpt lat="42.68878" lon="-0.47462">
        <ele>1695</ele>
        <time>2018-12-27T03:08:29Z</time>
      </trkpt>
      <trkpt lat="42.68862" lon="-0.47456">
        <ele>1690</ele>
        <time>2018-12-27T03:08:33Z</time>
      </trkpt>
      <trkpt lat="42.68841" lon="-0.47462">
        <ele>1686</ele>
        <time>2018-12-27T03:08:39Z</time>
      </trkpt>
      <trkpt lat="42.68839" lon="-0.4746">
        <ele>1685</ele>
        <time>2018-12-27T03:08:39Z</time>
      </trkpt>
      <trkpt lat="42.6884" lon="-0.47452">
        <ele>1686</ele>
        <time>2018-12-27T03:08:41Z</time>
      </trkpt>
      <trkpt lat="42.68848" lon="-0.47444">
        <ele>1687</ele>
        <time>2018-12-27T03:08:44Z</time>
      </trkpt>
      <trkpt lat="42.68855" lon="-0.47439">
        <ele>1689</ele>
        <time>2018-12-27T03:08:46Z</time>
      </trkpt>
      <trkpt lat="42.68864" lon="-0.47436">
        <ele>1691</ele>
        <time>2018-12-27T03:08:48Z</time>
      </trkpt>
      <trkpt lat="42.68863" lon="-0.47441">
        <ele>1690</ele>
        <time>2018-12-27T03:08:49Z</time>
      </trkpt>
      <trkpt lat="42.6887" lon="-0.47448">
        <ele>1692</ele>
        <time>2018-12-27T03:08:52Z</time>
      </trkpt>
      <trkpt lat="42.68875" lon="-0.47455">
        <ele>1694</ele>
        <time>2018-12-27T03:08:54Z</time>
      </trkpt>
      <trkpt lat="42.68879" lon="-0.47463">
        <ele>1695</ele>
        <time>2018-12-27T03:08:55Z</time>
      </trkpt>
      <trkpt lat="42.68889" lon="-0.47475">
        <ele>1699</ele>
        <time>2018-12-27T03:08:59Z</time>
      </trkpt>
      <trkpt lat="42.68891" lon="-0.47482">
        <ele>1700</ele>
        <time>2018-12-27T03:09:01Z</time>
      </trkpt>
      <trkpt lat="42.68893" lon="-0.47492">
        <ele>1702</ele>
        <time>2018-12-27T03:09:03Z</time>
      </trkpt>
      <trkpt lat="42.68895" lon="-0.47534">
        <ele>1702</ele>
        <time>2018-12-27T03:09:11Z</time>
      </trkpt>
      <trkpt lat="42.68903" lon="-0.47563">
        <ele>1706</ele>
        <time>2018-12-27T03:09:17Z</time>
      </trkpt>
      <trkpt lat="42.68904" lon="-0.47574">
        <ele>1707</ele>
        <time>2018-12-27T03:09:19Z</time>
      </trkpt>
      <trkpt lat="42.68906" lon="-0.47655">
        <ele>1708</ele>
        <time>2018-12-27T03:09:35Z</time>
      </trkpt>
      <trkpt lat="42.68905" lon="-0.4768">
        <ele>1706</ele>
        <time>2018-12-27T03:09:40Z</time>
      </trkpt>
      <trkpt lat="42.68906" lon="-0.47735">
        <ele>1706</ele>
        <time>2018-12-27T03:09:51Z</time>
      </trkpt>
      <trkpt lat="42.68909" lon="-0.47768">
        <ele>1707</ele>
        <time>2018-12-27T03:09:57Z</time>
      </trkpt>
      <trkpt lat="42.68912" lon="-0.47786">
        <ele>1710</ele>
        <time>2018-12-27T03:10:01Z</time>
      </trkpt>
      <trkpt lat="42.68918" lon="-0.47843">
        <ele>1705</ele>
        <time>2018-12-27T03:10:12Z</time>
      </trkpt>
      <trkpt lat="42.68929" lon="-0.47874">
        <ele>1703</ele>
        <time>2018-12-27T03:10:19Z</time>
      </trkpt>
      <trkpt lat="42.68961" lon="-0.47931">
        <ele>1709</ele>
        <time>2018-12-27T03:10:33Z</time>
      </trkpt>
      <trkpt lat="42.68977" lon="-0.4795">
        <ele>1712</ele>
        <time>2018-12-27T03:10:38Z</time>
      </trkpt>
      <trkpt lat="42.6899" lon="-0.47973">
        <ele>1713</ele>
        <time>2018-12-27T03:10:44Z</time>
      </trkpt>
      <trkpt lat="42.69007" lon="-0.48014">
        <ele>1714</ele>
        <time>2018-12-27T03:10:54Z</time>
      </trkpt>
      <trkpt lat="42.69013" lon="-0.48086">
        <ele>1706</ele>
        <time>2018-12-27T03:11:08Z</time>
      </trkpt>
      <trkpt lat="42.6902" lon="-0.48118">
        <ele>1706</ele>
        <time>2018-12-27T03:11:14Z</time>
      </trkpt>
      <trkpt lat="42.69033" lon="-0.48153">
        <ele>1707</ele>
        <time>2018-12-27T03:11:22Z</time>
      </trkpt>
      <trkpt lat="42.69064" lon="-0.48216">
        <ele>1707</ele>
        <time>2018-12-27T03:11:37Z</time>
      </trkpt>
      <trkpt lat="42.69074" lon="-0.48247">
        <ele>1708</ele>
        <time>2018-12-27T03:11:43Z</time>
      </trkpt>
      <trkpt lat="42.69076" lon="-0.48267">
        <ele>1709</ele>
        <time>2018-12-27T03:11:47Z</time>
      </trkpt>
      <trkpt lat="42.69076" lon="-0.48303">
        <ele>1710</ele>
        <time>2018-12-27T03:11:54Z</time>
      </trkpt>
      <trkpt lat="42.69082" lon="-0.48329">
        <ele>1709</ele>
        <time>2018-12-27T03:12:00Z</time>
      </trkpt>
      <trkpt lat="42.69084" lon="-0.48344">
        <ele>1707</ele>
        <time>2018-12-27T03:12:03Z</time>
      </trkpt>
      <trkpt lat="42.69089" lon="-0.48361">
        <ele>1706</ele>
        <time>2018-12-27T03:12:06Z</time>
      </trkpt>
      <trkpt lat="42.69093" lon="-0.48394">
        <ele>1705</ele>
        <time>2018-12-27T03:12:13Z</time>
      </trkpt>
      <trkpt lat="42.69094" lon="-0.48416">
        <ele>1703</ele>
        <time>2018-12-27T03:12:17Z</time>
      </trkpt>
      <trkpt lat="42.69099" lon="-0.48439">
        <ele>1703</ele>
        <time>2018-12-27T03:12:22Z</time>
      </trkpt>
      <trkpt lat="42.69111" lon="-0.4847">
        <ele>1702</ele>
        <time>2018-12-27T03:12:29Z</time>
      </trkpt>
      <trkpt lat="42.69137" lon="-0.48511">
        <ele>1703</ele>
        <time>2018-12-27T03:12:39Z</time>
      </trkpt>
      <trkpt lat="42.6914" lon="-0.48529">
        <ele>1703</ele>
        <time>2018-12-27T03:12:43Z</time>
      </trkpt>
      <trkpt lat="42.69134" lon="-0.48568">
        <ele>1699</ele>
        <time>2018-12-27T03:12:51Z</time>
      </trkpt>
      <trkpt lat="42.69129" lon="-0.48635">
        <ele>1697</ele>
        <time>2018-12-27T03:13:04Z</time>
      </trkpt>
      <trkpt lat="42.6912" lon="-0.48697">
        <ele>1695</ele>
        <time>2018-12-27T03:13:16Z</time>
      </trkpt>
      <trkpt lat="42.69119" lon="-0.48714">
        <ele>1693</ele>
        <time>2018-12-27T03:13:20Z</time>
      </trkpt>
      <trkpt lat="42.69112" lon="-0.4876">
        <ele>1685</ele>
        <time>2018-12-27T03:13:29Z</time>
      </trkpt>
      <trkpt lat="42.69111" lon="-0.48775">
        <ele>1684</ele>
        <time>2018-12-27T03:13:32Z</time>
      </trkpt>
      <trkpt lat="42.69119" lon="-0.48788">
        <ele>1682</ele>
        <time>2018-12-27T03:13:35Z</time>
      </trkpt>
      <trkpt lat="42.69128" lon="-0.48787">
        <ele>1681</ele>
        <time>2018-12-27T03:13:38Z</time>
      </trkpt>
      <trkpt lat="42.69139" lon="-0.48778">
        <ele>1683</ele>
        <time>2018-12-27T03:13:41Z</time>
      </trkpt>
      <trkpt lat="42.69179" lon="-0.48737">
        <ele>1688</ele>
        <time>2018-12-27T03:13:55Z</time>
      </trkpt>
      <trkpt lat="42.69206" lon="-0.48702">
        <ele>1686</ele>
        <time>2018-12-27T03:14:05Z</time>
      </trkpt>
      <trkpt lat="42.6922" lon="-0.48686">
        <ele>1684</ele>
        <time>2018-12-27T03:14:09Z</time>
      </trkpt>
      <trkpt lat="42.69232" lon="-0.48679">
        <ele>1683</ele>
        <time>2018-12-27T03:14:13Z</time>
      </trkpt>
      <trkpt lat="42.69275" lon="-0.48666">
        <ele>1678</ele>
        <time>2018-12-27T03:14:25Z</time>
      </trkpt>
      <trkpt lat="42.69339" lon="-0.48651">
        <ele>1677</ele>
        <time>2018-12-27T03:14:42Z</time>
      </trkpt>
      <trkpt lat="42.69353" lon="-0.48653">
        <ele>1676</ele>
        <time>2018-12-27T03:14:46Z</time>
      </trkpt>
      <trkpt lat="42.69364" lon="-0.48665">
        <ele>1675</ele>
        <time>2018-12-27T03:14:49Z</time>
      </trkpt>
      <trkpt lat="42.69371" lon="-0.4868">
        <ele>1674</ele>
        <time>2018-12-27T03:14:53Z</time>
      </trkpt>
      <trkpt lat="42.69393" lon="-0.48728">
        <ele>1673</ele>
        <time>2018-12-27T03:15:04Z</time>
      </trkpt>
      <trkpt lat="42.69398" lon="-0.48742">
        <ele>1673</ele>
        <time>2018-12-27T03:15:07Z</time>
      </trkpt>
      <trkpt lat="42.69406" lon="-0.48773">
        <ele>1672</ele>
        <time>2018-12-27T03:15:13Z</time>
      </trkpt>
      <trkpt lat="42.69406" lon="-0.48786">
        <ele>1672</ele>
        <time>2018-12-27T03:15:16Z</time>
      </trkpt>
      <trkpt lat="42.69401" lon="-0.4881">
        <ele>1672</ele>
        <time>2018-12-27T03:15:21Z</time>
      </trkpt>
      <trkpt lat="42.69388" lon="-0.48842">
        <ele>1674</ele>
        <time>2018-12-27T03:15:28Z</time>
      </trkpt>
      <trkpt lat="42.69364" lon="-0.48922">
        <ele>1685</ele>
        <time>2018-12-27T03:15:45Z</time>
      </trkpt>
      <trkpt lat="42.69339" lon="-0.48989">
        <ele>1683</ele>
        <time>2018-12-27T03:16:00Z</time>
      </trkpt>
      <trkpt lat="42.69329" lon="-0.49024">
        <ele>1680</ele>
        <time>2018-12-27T03:16:07Z</time>
      </trkpt>
      <trkpt lat="42.69331" lon="-0.49038">
        <ele>1681</ele>
        <time>2018-12-27T03:16:10Z</time>
      </trkpt>
      <trkpt lat="42.69337" lon="-0.49043">
        <ele>1682</ele>
        <time>2018-12-27T03:16:12Z</time>
      </trkpt>
      <trkpt lat="42.69356" lon="-0.49043">
        <ele>1687</ele>
        <time>2018-12-27T03:16:17Z</time>
      </trkpt>
      <trkpt lat="42.69365" lon="-0.49046">
        <ele>1688</ele>
        <time>2018-12-27T03:16:20Z</time>
      </trkpt>
      <trkpt lat="42.69373" lon="-0.49051">
        <ele>1688</ele>
        <time>2018-12-27T03:16:22Z</time>
      </trkpt>
      <trkpt lat="42.69381" lon="-0.49061">
        <ele>1688</ele>
        <time>2018-12-27T03:16:25Z</time>
      </trkpt>
      <trkpt lat="42.69418" lon="-0.4913">
        <ele>1689</ele>
        <time>2018-12-27T03:16:41Z</time>
      </trkpt>
      <trkpt lat="42.69449" lon="-0.49172">
        <ele>1695</ele>
        <time>2018-12-27T03:16:53Z</time>
      </trkpt>
      <trkpt lat="42.69461" lon="-0.49196">
        <ele>1694</ele>
        <time>2018-12-27T03:16:59Z</time>
      </trkpt>
      <trkpt lat="42.69466" lon="-0.49212">
        <ele>1695</ele>
        <time>2018-12-27T03:17:02Z</time>
      </trkpt>
      <trkpt lat="42.69471" lon="-0.49233">
        <ele>1696</ele>
        <time>2018-12-27T03:17:07Z</time>
      </trkpt>
      <trkpt lat="42.69473" lon="-0.49291">
        <ele>1700</ele>
        <time>2018-12-27T03:17:18Z</time>
      </trkpt>
      <trkpt lat="42.69478" lon="-0.49321">
        <ele>1702</ele>
        <time>2018-12-27T03:17:24Z</time>
      </trkpt>
      <trkpt lat="42.6949" lon="-0.49346">
        <ele>1704</ele>
        <time>2018-12-27T03:17:30Z</time>
      </trkpt>
      <trkpt lat="42.69513" lon="-0.4938">
        <ele>1708</ele>
        <time>2018-12-27T03:17:39Z</time>
      </trkpt>
      <trkpt lat="42.6953" lon="-0.49427">
        <ele>1709</ele>
        <time>2018-12-27T03:17:49Z</time>
      </trkpt>
      <trkpt lat="42.69537" lon="-0.49463">
        <ele>1709</ele>
        <time>2018-12-27T03:17:57Z</time>
      </trkpt>
      <trkpt lat="42.69537" lon="-0.49509">
        <ele>1704</ele>
        <time>2018-12-27T03:18:06Z</time>
      </trkpt>
      <trkpt lat="42.69541" lon="-0.49536">
        <ele>1703</ele>
        <time>2018-12-27T03:18:11Z</time>
      </trkpt>
      <trkpt lat="42.6955" lon="-0.49565">
        <ele>1705</ele>
        <time>2018-12-27T03:18:17Z</time>
      </trkpt>
      <trkpt lat="42.69566" lon="-0.49606">
        <ele>1706</ele>
        <time>2018-12-27T03:18:26Z</time>
      </trkpt>
      <trkpt lat="42.6958" lon="-0.4963">
        <ele>1709</ele>
        <time>2018-12-27T03:18:32Z</time>
      </trkpt>
      <trkpt lat="42.69587" lon="-0.49648">
        <ele>1710</ele>
        <time>2018-12-27T03:18:36Z</time>
      </trkpt>
      <trkpt lat="42.69594" lon="-0.49675">
        <ele>1711</ele>
        <time>2018-12-27T03:18:42Z</time>
      </trkpt>
      <trkpt lat="42.69612" lon="-0.4973">
        <ele>1713</ele>
        <time>2018-12-27T03:18:54Z</time>
      </trkpt>
      <trkpt lat="42.69615" lon="-0.49749">
        <ele>1714</ele>
        <time>2018-12-27T03:18:57Z</time>
      </trkpt>
      <trkpt lat="42.69611" lon="-0.49777">
        <ele>1714</ele>
        <time>2018-12-27T03:19:03Z</time>
      </trkpt>
      <trkpt lat="42.69611" lon="-0.498">
        <ele>1716</ele>
        <time>2018-12-27T03:19:08Z</time>
      </trkpt>
      <trkpt lat="42.69601" lon="-0.49852">
        <ele>1720</ele>
        <time>2018-12-27T03:19:18Z</time>
      </trkpt>
      <trkpt lat="42.69596" lon="-0.49866">
        <ele>1721</ele>
        <time>2018-12-27T03:19:21Z</time>
      </trkpt>
      <trkpt lat="42.69591" lon="-0.49904">
        <ele>1720</ele>
        <time>2018-12-27T03:19:29Z</time>
      </trkpt>
      <trkpt lat="42.69596" lon="-0.49917">
        <ele>1719</ele>
        <time>2018-12-27T03:19:32Z</time>
      </trkpt>
      <trkpt lat="42.69616" lon="-0.49938">
        <ele>1718</ele>
        <time>2018-12-27T03:19:38Z</time>
      </trkpt>
      <trkpt lat="42.69629" lon="-0.4995">
        <ele>1719</ele>
        <time>2018-12-27T03:19:43Z</time>
      </trkpt>
      <trkpt lat="42.69654" lon="-0.49967">
        <ele>1721</ele>
        <time>2018-12-27T03:19:50Z</time>
      </trkpt>
      <trkpt lat="42.69666" lon="-0.49974">
        <ele>1722</ele>
        <time>2018-12-27T03:19:53Z</time>
      </trkpt>
      <trkpt lat="42.69711" lon="-0.49993">
        <ele>1728</ele>
        <time>2018-12-27T03:20:06Z</time>
      </trkpt>
      <trkpt lat="42.69723" lon="-0.50008">
        <ele>1727</ele>
        <time>2018-12-27T03:20:10Z</time>
      </trkpt>
      <trkpt lat="42.69739" lon="-0.50022">
        <ele>1729</ele>
        <time>2018-12-27T03:20:16Z</time>
      </trkpt>
      <trkpt lat="42.69761" lon="-0.50057">
        <ele>1736</ele>
        <time>2018-12-27T03:20:24Z</time>
      </trkpt>
      <trkpt lat="42.69779" lon="-0.50107">
        <ele>1740</ele>
        <time>2018-12-27T03:20:35Z</time>
      </trkpt>
      <trkpt lat="42.69817" lon="-0.50181">
        <ele>1732</ele>
        <time>2018-12-27T03:20:53Z</time>
      </trkpt>
      <trkpt lat="42.69852" lon="-0.50222">
        <ele>1724</ele>
        <time>2018-12-27T03:21:05Z</time>
      </trkpt>
      <trkpt lat="42.69859" lon="-0.50233">
        <ele>1725</ele>
        <time>2018-12-27T03:21:08Z</time>
      </trkpt>
      <trkpt lat="42.69873" lon="-0.50266">
        <ele>1728</ele>
        <time>2018-12-27T03:21:16Z</time>
      </trkpt>
      <trkpt lat="42.6988" lon="-0.50278">
        <ele>1728</ele>
        <time>2018-12-27T03:21:19Z</time>
      </trkpt>
      <trkpt lat="42.69895" lon="-0.50314">
        <ele>1723</ele>
        <time>2018-12-27T03:21:27Z</time>
      </trkpt>
      <trkpt lat="42.69924" lon="-0.50443">
        <ele>1709</ele>
        <time>2018-12-27T03:21:53Z</time>
      </trkpt>
      <trkpt lat="42.69942" lon="-0.5048">
        <ele>1707</ele>
        <time>2018-12-27T03:22:02Z</time>
      </trkpt>
      <trkpt lat="42.69957" lon="-0.50525">
        <ele>1707</ele>
        <time>2018-12-27T03:22:12Z</time>
      </trkpt>
      <trkpt lat="42.6996" lon="-0.50537">
        <ele>1707</ele>
        <time>2018-12-27T03:22:14Z</time>
      </trkpt>
      <trkpt lat="42.69962" lon="-0.5055">
        <ele>1707</ele>
        <time>2018-12-27T03:22:17Z</time>
      </trkpt>
      <trkpt lat="42.69974" lon="-0.50576">
        <ele>1707</ele>
        <time>2018-12-27T03:22:23Z</time>
      </trkpt>
      <trkpt lat="42.69978" lon="-0.50588">
        <ele>1707</ele>
        <time>2018-12-27T03:22:26Z</time>
      </trkpt>
      <trkpt lat="42.69996" lon="-0.50617">
        <ele>1700</ele>
        <time>2018-12-27T03:22:33Z</time>
      </trkpt>
      <trkpt lat="42.70015" lon="-0.50663">
        <ele>1695</ele>
        <time>2018-12-27T03:22:43Z</time>
      </trkpt>
      <trkpt lat="42.70023" lon="-0.50675">
        <ele>1696</ele>
        <time>2018-12-27T03:22:46Z</time>
      </trkpt>
      <trkpt lat="42.70037" lon="-0.50703">
        <ele>1699</ele>
        <time>2018-12-27T03:22:53Z</time>
      </trkpt>
      <trkpt lat="42.7006" lon="-0.50739">
        <ele>1698</ele>
        <time>2018-12-27T03:23:02Z</time>
      </trkpt>
      <trkpt lat="42.70075" lon="-0.50775">
        <ele>1692</ele>
        <time>2018-12-27T03:23:11Z</time>
      </trkpt>
      <trkpt lat="42.70077" lon="-0.50786">
        <ele>1690</ele>
        <time>2018-12-27T03:23:13Z</time>
      </trkpt>
      <trkpt lat="42.7009" lon="-0.50819">
        <ele>1685</ele>
        <time>2018-12-27T03:23:20Z</time>
      </trkpt>
      <trkpt lat="42.70124" lon="-0.50887">
        <ele>1673</ele>
        <time>2018-12-27T03:23:36Z</time>
      </trkpt>
      <trkpt lat="42.70139" lon="-0.50932">
        <ele>1661</ele>
        <time>2018-12-27T03:23:46Z</time>
      </trkpt>
      <trkpt lat="42.7017" lon="-0.50993">
        <ele>1645</ele>
        <time>2018-12-27T03:24:00Z</time>
      </trkpt>
      <trkpt lat="42.70178" lon="-0.51005">
        <ele>1642</ele>
        <time>2018-12-27T03:24:04Z</time>
      </trkpt>
      <trkpt lat="42.70188" lon="-0.51035">
        <ele>1631</ele>
        <time>2018-12-27T03:24:10Z</time>
      </trkpt>
      <trkpt lat="42.70203" lon="-0.5106">
        <ele>1624</ele>
        <time>2018-12-27T03:24:17Z</time>
      </trkpt>
      <trkpt lat="42.7021" lon="-0.51065">
        <ele>1624</ele>
        <time>2018-12-27T03:24:19Z</time>
      </trkpt>
      <trkpt lat="42.70224" lon="-0.51085">
        <ele>1619</ele>
        <time>2018-12-27T03:24:24Z</time>
      </trkpt>
      <trkpt lat="42.70225" lon="-0.51098">
        <ele>1616</ele>
        <time>2018-12-27T03:24:27Z</time>
      </trkpt>
      <trkpt lat="42.70236" lon="-0.51129">
        <ele>1608</ele>
        <time>2018-12-27T03:24:33Z</time>
      </trkpt>
      <trkpt lat="42.70254" lon="-0.51158">
        <ele>1597</ele>
        <time>2018-12-27T03:24:41Z</time>
      </trkpt>
      <trkpt lat="42.70256" lon="-0.5118">
        <ele>1588</ele>
        <time>2018-12-27T03:24:45Z</time>
      </trkpt>
      <trkpt lat="42.70285" lon="-0.5122">
        <ele>1578</ele>
        <time>2018-12-27T03:24:56Z</time>
      </trkpt>
      <trkpt lat="42.7029" lon="-0.51237">
        <ele>1576</ele>
        <time>2018-12-27T03:25:00Z</time>
      </trkpt>
      <trkpt lat="42.70296" lon="-0.51247">
        <ele>1575</ele>
        <time>2018-12-27T03:25:02Z</time>
      </trkpt>
      <trkpt lat="42.70297" lon="-0.51275">
        <ele>1568</ele>
        <time>2018-12-27T03:25:08Z</time>
      </trkpt>
      <trkpt lat="42.70304" lon="-0.51287">
        <ele>1564</ele>
        <time>2018-12-27T03:25:10Z</time>
      </trkpt>
      <trkpt lat="42.70304" lon="-0.51295">
        <ele>1560</ele>
        <time>2018-12-27T03:25:12Z</time>
      </trkpt>
      <trkpt lat="42.7031" lon="-0.5131">
        <ele>1556</ele>
        <time>2018-12-27T03:25:15Z</time>
      </trkpt>
      <trkpt lat="42.7032" lon="-0.51325">
        <ele>1552</ele>
        <time>2018-12-27T03:25:19Z</time>
      </trkpt>
      <trkpt lat="42.70327" lon="-0.51354">
        <ele>1544</ele>
        <time>2018-12-27T03:25:25Z</time>
      </trkpt>
      <trkpt lat="42.70333" lon="-0.51365">
        <ele>1541</ele>
        <time>2018-12-27T03:25:28Z</time>
      </trkpt>
      <trkpt lat="42.70344" lon="-0.51378">
        <ele>1539</ele>
        <time>2018-12-27T03:25:32Z</time>
      </trkpt>
      <trkpt lat="42.70349" lon="-0.51389">
        <ele>1536</ele>
        <time>2018-12-27T03:25:34Z</time>
      </trkpt>
      <trkpt lat="42.70343" lon="-0.51399">
        <ele>1532</ele>
        <time>2018-12-27T03:25:37Z</time>
      </trkpt>
      <trkpt lat="42.70326" lon="-0.51402">
        <ele>1527</ele>
        <time>2018-12-27T03:25:42Z</time>
      </trkpt>
      <trkpt lat="42.70314" lon="-0.51399">
        <ele>1525</ele>
        <time>2018-12-27T03:25:45Z</time>
      </trkpt>
      <trkpt lat="42.70304" lon="-0.51404">
        <ele>1520</ele>
        <time>2018-12-27T03:25:47Z</time>
      </trkpt>
      <trkpt lat="42.70304" lon="-0.51414">
        <ele>1514</ele>
        <time>2018-12-27T03:25:49Z</time>
      </trkpt>
      <trkpt lat="42.70317" lon="-0.51449">
        <ele>1504</ele>
        <time>2018-12-27T03:25:57Z</time>
      </trkpt>
      <trkpt lat="42.70337" lon="-0.51465">
        <ele>1506</ele>
        <time>2018-12-27T03:26:03Z</time>
      </trkpt>
      <trkpt lat="42.70353" lon="-0.51481">
        <ele>1503</ele>
        <time>2018-12-27T03:26:09Z</time>
      </trkpt>
      <trkpt lat="42.70357" lon="-0.51489">
        <ele>1500</ele>
        <time>2018-12-27T03:26:11Z</time>
      </trkpt>
      <trkpt lat="42.70357" lon="-0.51495">
        <ele>1498</ele>
        <time>2018-12-27T03:26:12Z</time>
      </trkpt>
      <trkpt lat="42.70362" lon="-0.51511">
        <ele>1492</ele>
        <time>2018-12-27T03:26:15Z</time>
      </trkpt>
      <trkpt lat="42.70372" lon="-0.5153">
        <ele>1487</ele>
        <time>2018-12-27T03:26:20Z</time>
      </trkpt>
      <trkpt lat="42.70381" lon="-0.51551">
        <ele>1482</ele>
        <time>2018-12-27T03:26:24Z</time>
      </trkpt>
      <trkpt lat="42.7036" lon="-0.51539">
        <ele>1477</ele>
        <time>2018-12-27T03:26:31Z</time>
      </trkpt>
      <trkpt lat="42.7037" lon="-0.51565">
        <ele>1469</ele>
        <time>2018-12-27T03:26:36Z</time>
      </trkpt>
      <trkpt lat="42.70379" lon="-0.51583">
        <ele>1467</ele>
        <time>2018-12-27T03:26:41Z</time>
      </trkpt>
      <trkpt lat="42.70345" lon="-0.51564">
        <ele>1460</ele>
        <time>2018-12-27T03:26:50Z</time>
      </trkpt>
      <trkpt lat="42.70362" lon="-0.51595">
        <ele>1453</ele>
        <time>2018-12-27T03:26:58Z</time>
      </trkpt>
      <trkpt lat="42.70379" lon="-0.51618">
        <ele>1453</ele>
        <time>2018-12-27T03:27:04Z</time>
      </trkpt>
      <trkpt lat="42.70375" lon="-0.51619">
        <ele>1451</ele>
        <time>2018-12-27T03:27:05Z</time>
      </trkpt>
      <trkpt lat="42.70353" lon="-0.51611">
        <ele>1445</ele>
        <time>2018-12-27T03:27:11Z</time>
      </trkpt>
      <trkpt lat="42.70336" lon="-0.51599">
        <ele>1445</ele>
        <time>2018-12-27T03:27:17Z</time>
      </trkpt>
      <trkpt lat="42.70337" lon="-0.51613">
        <ele>1439</ele>
        <time>2018-12-27T03:27:19Z</time>
      </trkpt>
      <trkpt lat="42.70343" lon="-0.51626">
        <ele>1436</ele>
        <time>2018-12-27T03:27:22Z</time>
      </trkpt>
      <trkpt lat="42.70376" lon="-0.51664">
        <ele>1436</ele>
        <time>2018-12-27T03:27:34Z</time>
      </trkpt>
      <trkpt lat="42.70392" lon="-0.51688">
        <ele>1436</ele>
        <time>2018-12-27T03:27:40Z</time>
      </trkpt>
      <trkpt lat="42.70395" lon="-0.51707">
        <ele>1431</ele>
        <time>2018-12-27T03:27:44Z</time>
      </trkpt>
      <trkpt lat="42.70395" lon="-0.51714">
        <ele>1429</ele>
        <time>2018-12-27T03:27:45Z</time>
      </trkpt>
      <trkpt lat="42.70397" lon="-0.51725">
        <ele>1427</ele>
        <time>2018-12-27T03:27:48Z</time>
      </trkpt>
      <trkpt lat="42.7041" lon="-0.51753">
        <ele>1421</ele>
        <time>2018-12-27T03:27:54Z</time>
      </trkpt>
      <trkpt lat="42.70417" lon="-0.51764">
        <ele>1418</ele>
        <time>2018-12-27T03:27:57Z</time>
      </trkpt>
      <trkpt lat="42.70416" lon="-0.51765">
        <ele>1417</ele>
        <time>2018-12-27T03:27:57Z</time>
      </trkpt>
      <trkpt lat="42.70411" lon="-0.5176">
        <ele>1417</ele>
        <time>2018-12-27T03:27:59Z</time>
      </trkpt>
      <trkpt lat="42.70398" lon="-0.51746">
        <ele>1418</ele>
        <time>2018-12-27T03:28:03Z</time>
      </trkpt>
      <trkpt lat="42.70398" lon="-0.51751">
        <ele>1416</ele>
        <time>2018-12-27T03:28:04Z</time>
      </trkpt>
      <trkpt lat="42.7041" lon="-0.51775">
        <ele>1409</ele>
        <time>2018-12-27T03:28:10Z</time>
      </trkpt>
      <trkpt lat="42.70424" lon="-0.51795">
        <ele>1403</ele>
        <time>2018-12-27T03:28:15Z</time>
      </trkpt>
      <trkpt lat="42.70435" lon="-0.51804">
        <ele>1401</ele>
        <time>2018-12-27T03:28:19Z</time>
      </trkpt>
      <trkpt lat="42.70448" lon="-0.51818">
        <ele>1398</ele>
        <time>2018-12-27T03:28:23Z</time>
      </trkpt>
      <trkpt lat="42.70466" lon="-0.51833">
        <ele>1396</ele>
        <time>2018-12-27T03:28:29Z</time>
      </trkpt>
      <trkpt lat="42.70459" lon="-0.51831">
        <ele>1394</ele>
        <time>2018-12-27T03:28:31Z</time>
      </trkpt>
      <trkpt lat="42.70444" lon="-0.51835">
        <ele>1387</ele>
        <time>2018-12-27T03:28:35Z</time>
      </trkpt>
      <trkpt lat="42.70434" lon="-0.51827">
        <ele>1389</ele>
        <time>2018-12-27T03:28:38Z</time>
      </trkpt>
      <trkpt lat="42.70427" lon="-0.51824">
        <ele>1388</ele>
        <time>2018-12-27T03:28:40Z</time>
      </trkpt>
      <trkpt lat="42.70418" lon="-0.51817">
        <ele>1389</ele>
        <time>2018-12-27T03:28:43Z</time>
      </trkpt>
      <trkpt lat="42.70417" lon="-0.51819">
        <ele>1388</ele>
        <time>2018-12-27T03:28:43Z</time>
      </trkpt>
      <trkpt lat="42.70427" lon="-0.5183">
        <ele>1385</ele>
        <time>2018-12-27T03:28:47Z</time>
      </trkpt>
      <trkpt lat="42.70435" lon="-0.51844">
        <ele>1381</ele>
        <time>2018-12-27T03:28:50Z</time>
      </trkpt>
      <trkpt lat="42.7046" lon="-0.51857">
        <ele>1382</ele>
        <time>2018-12-27T03:28:57Z</time>
      </trkpt>
      <trkpt lat="42.70465" lon="-0.51863">
        <ele>1381</ele>
        <time>2018-12-27T03:28:59Z</time>
      </trkpt>
      <trkpt lat="42.7046" lon="-0.51861">
        <ele>1380</ele>
        <time>2018-12-27T03:29:00Z</time>
      </trkpt>
      <trkpt lat="42.70433" lon="-0.5187">
        <ele>1368</ele>
        <time>2018-12-27T03:29:08Z</time>
      </trkpt>
      <trkpt lat="42.70426" lon="-0.51868">
        <ele>1367</ele>
        <time>2018-12-27T03:29:10Z</time>
      </trkpt>
      <trkpt lat="42.70417" lon="-0.51857">
        <ele>1369</ele>
        <time>2018-12-27T03:29:13Z</time>
      </trkpt>
      <trkpt lat="42.70413" lon="-0.5185">
        <ele>1372</ele>
        <time>2018-12-27T03:29:15Z</time>
      </trkpt>
      <trkpt lat="42.7041" lon="-0.51848">
        <ele>1371</ele>
        <time>2018-12-27T03:29:16Z</time>
      </trkpt>
      <trkpt lat="42.70409" lon="-0.51855">
        <ele>1368</ele>
        <time>2018-12-27T03:29:17Z</time>
      </trkpt>
      <trkpt lat="42.70416" lon="-0.51885">
        <ele>1357</ele>
        <time>2018-12-27T03:29:23Z</time>
      </trkpt>
      <trkpt lat="42.70423" lon="-0.51896">
        <ele>1354</ele>
        <time>2018-12-27T03:29:26Z</time>
      </trkpt>
      <trkpt lat="42.70446" lon="-0.51902">
        <ele>1359</ele>
        <time>2018-12-27T03:29:32Z</time>
      </trkpt>
      <trkpt lat="42.70448" lon="-0.51904">
        <ele>1358</ele>
        <time>2018-12-27T03:29:33Z</time>
      </trkpt>
      <trkpt lat="42.70439" lon="-0.51903">
        <ele>1356</ele>
        <time>2018-12-27T03:29:36Z</time>
      </trkpt>
      <trkpt lat="42.70433" lon="-0.51911">
        <ele>1351</ele>
        <time>2018-12-27T03:29:38Z</time>
      </trkpt>
      <trkpt lat="42.70417" lon="-0.51916">
        <ele>1344</ele>
        <time>2018-12-27T03:29:42Z</time>
      </trkpt>
      <trkpt lat="42.70391" lon="-0.51887">
        <ele>1347</ele>
        <time>2018-12-27T03:29:51Z</time>
      </trkpt>
      <trkpt lat="42.70374" lon="-0.51874">
        <ele>1347</ele>
        <time>2018-12-27T03:29:57Z</time>
      </trkpt>
      <trkpt lat="42.70396" lon="-0.51941">
        <ele>1331</ele>
        <time>2018-12-27T03:30:11Z</time>
      </trkpt>
      <trkpt lat="42.70384" lon="-0.5193">
        <ele>1331</ele>
        <time>2018-12-27T03:30:15Z</time>
      </trkpt>
      <trkpt lat="42.70345" lon="-0.51883">
        <ele>1333</ele>
        <time>2018-12-27T03:30:29Z</time>
      </trkpt>
      <trkpt lat="42.70338" lon="-0.51878">
        <ele>1332</ele>
        <time>2018-12-27T03:30:31Z</time>
      </trkpt>
      <trkpt lat="42.70335" lon="-0.51879">
        <ele>1330</ele>
        <time>2018-12-27T03:30:32Z</time>
      </trkpt>
      <trkpt lat="42.70343" lon="-0.51894">
        <ele>1328</ele>
        <time>2018-12-27T03:30:35Z</time>
      </trkpt>
      <trkpt lat="42.70347" lon="-0.51907">
        <ele>1325</ele>
        <time>2018-12-27T03:30:38Z</time>
      </trkpt>
      <trkpt lat="42.7035" lon="-0.51922">
        <ele>1321</ele>
        <time>2018-12-27T03:30:41Z</time>
      </trkpt>
      <trkpt lat="42.7036" lon="-0.51947">
        <ele>1316</ele>
        <time>2018-12-27T03:30:47Z</time>
      </trkpt>
      <trkpt lat="42.70378" lon="-0.51989">
        <ele>1309</ele>
        <time>2018-12-27T03:30:56Z</time>
      </trkpt>
      <trkpt lat="42.70389" lon="-0.52008">
        <ele>1304</ele>
        <time>2018-12-27T03:31:01Z</time>
      </trkpt>
      <trkpt lat="42.70383" lon="-0.52006">
        <ele>1303</ele>
        <time>2018-12-27T03:31:03Z</time>
      </trkpt>
      <trkpt lat="42.70374" lon="-0.51997">
        <ele>1305</ele>
        <time>2018-12-27T03:31:06Z</time>
      </trkpt>
      <trkpt lat="42.70365" lon="-0.51984">
        <ele>1307</ele>
        <time>2018-12-27T03:31:09Z</time>
      </trkpt>
      <trkpt lat="42.70361" lon="-0.51975">
        <ele>1309</ele>
        <time>2018-12-27T03:31:12Z</time>
      </trkpt>
      <trkpt lat="42.70358" lon="-0.51971">
        <ele>1309</ele>
        <time>2018-12-27T03:31:13Z</time>
      </trkpt>
      <trkpt lat="42.70354" lon="-0.51971">
        <ele>1308</ele>
        <time>2018-12-27T03:31:14Z</time>
      </trkpt>
      <trkpt lat="42.70343" lon="-0.51963">
        <ele>1307</ele>
        <time>2018-12-27T03:31:17Z</time>
      </trkpt>
      <trkpt lat="42.70328" lon="-0.51946">
        <ele>1308</ele>
        <time>2018-12-27T03:31:22Z</time>
      </trkpt>
      <trkpt lat="42.70331" lon="-0.51958">
        <ele>1305</ele>
        <time>2018-12-27T03:31:25Z</time>
      </trkpt>
      <trkpt lat="42.70332" lon="-0.5197">
        <ele>1302</ele>
        <time>2018-12-27T03:31:27Z</time>
      </trkpt>
      <trkpt lat="42.70346" lon="-0.52003">
        <ele>1296</ele>
        <time>2018-12-27T03:31:35Z</time>
      </trkpt>
      <trkpt lat="42.7035" lon="-0.52027">
        <ele>1286</ele>
        <time>2018-12-27T03:31:40Z</time>
      </trkpt>
      <trkpt lat="42.70358" lon="-0.52044">
        <ele>1280</ele>
        <time>2018-12-27T03:31:43Z</time>
      </trkpt>
      <trkpt lat="42.70366" lon="-0.52054">
        <ele>1277</ele>
        <time>2018-12-27T03:31:46Z</time>
      </trkpt>
      <trkpt lat="42.70373" lon="-0.52062">
        <ele>1276</ele>
        <time>2018-12-27T03:31:49Z</time>
      </trkpt>
      <trkpt lat="42.70386" lon="-0.52069">
        <ele>1277</ele>
        <time>2018-12-27T03:31:52Z</time>
      </trkpt>
      <trkpt lat="42.70398" lon="-0.52071">
        <ele>1278</ele>
        <time>2018-12-27T03:31:56Z</time>
      </trkpt>
      <trkpt lat="42.70416" lon="-0.52066">
        <ele>1281</ele>
        <time>2018-12-27T03:32:01Z</time>
      </trkpt>
      <trkpt lat="42.70426" lon="-0.52065">
        <ele>1283</ele>
        <time>2018-12-27T03:32:03Z</time>
      </trkpt>
      <trkpt lat="42.70423" lon="-0.52068">
        <ele>1281</ele>
        <time>2018-12-27T03:32:04Z</time>
      </trkpt>
      <trkpt lat="42.7042" lon="-0.52068">
        <ele>1281</ele>
        <time>2018-12-27T03:32:05Z</time>
      </trkpt>
      <trkpt lat="42.70416" lon="-0.52074">
        <ele>1278</ele>
        <time>2018-12-27T03:32:06Z</time>
      </trkpt>
      <trkpt lat="42.70411" lon="-0.52077">
        <ele>1276</ele>
        <time>2018-12-27T03:32:08Z</time>
      </trkpt>
      <trkpt lat="42.70406" lon="-0.52086">
        <ele>1272</ele>
        <time>2018-12-27T03:32:10Z</time>
      </trkpt>
      <trkpt lat="42.70398" lon="-0.52088">
        <ele>1271</ele>
        <time>2018-12-27T03:32:12Z</time>
      </trkpt>
      <trkpt lat="42.70392" lon="-0.52093">
        <ele>1268</ele>
        <time>2018-12-27T03:32:14Z</time>
      </trkpt>
      <trkpt lat="42.70389" lon="-0.52093">
        <ele>1268</ele>
        <time>2018-12-27T03:32:15Z</time>
      </trkpt>
      <trkpt lat="42.70391" lon="-0.521">
        <ele>1265</ele>
        <time>2018-12-27T03:32:16Z</time>
      </trkpt>
      <trkpt lat="42.70405" lon="-0.52108">
        <ele>1263</ele>
        <time>2018-12-27T03:32:20Z</time>
      </trkpt>
      <trkpt lat="42.7042" lon="-0.52108">
        <ele>1264</ele>
        <time>2018-12-27T03:32:24Z</time>
      </trkpt>
      <trkpt lat="42.70427" lon="-0.52109">
        <ele>1263</ele>
        <time>2018-12-27T03:32:26Z</time>
      </trkpt>
      <trkpt lat="42.70427" lon="-0.5211">
        <ele>1262</ele>
        <time>2018-12-27T03:32:26Z</time>
      </trkpt>
      <trkpt lat="42.70409" lon="-0.52126">
        <ele>1255</ele>
        <time>2018-12-27T03:32:32Z</time>
      </trkpt>
      <trkpt lat="42.70398" lon="-0.52132">
        <ele>1252</ele>
        <time>2018-12-27T03:32:35Z</time>
      </trkpt>
      <trkpt lat="42.70389" lon="-0.52135">
        <ele>1250</ele>
        <time>2018-12-27T03:32:38Z</time>
      </trkpt>
      <trkpt lat="42.7038" lon="-0.52141">
        <ele>1245</ele>
        <time>2018-12-27T03:32:40Z</time>
      </trkpt>
      <trkpt lat="42.70379" lon="-0.52145">
        <ele>1242</ele>
        <time>2018-12-27T03:32:41Z</time>
      </trkpt>
      <trkpt lat="42.70403" lon="-0.52155">
        <ele>1238</ele>
        <time>2018-12-27T03:32:48Z</time>
      </trkpt>
      <trkpt lat="42.70416" lon="-0.52164">
        <ele>1233</ele>
        <time>2018-12-27T03:32:52Z</time>
      </trkpt>
      <trkpt lat="42.70413" lon="-0.52167">
        <ele>1231</ele>
        <time>2018-12-27T03:32:53Z</time>
      </trkpt>
      <trkpt lat="42.70405" lon="-0.52169">
        <ele>1229</ele>
        <time>2018-12-27T03:32:55Z</time>
      </trkpt>
      <trkpt lat="42.70393" lon="-0.52168">
        <ele>1229</ele>
        <time>2018-12-27T03:32:58Z</time>
      </trkpt>
      <trkpt lat="42.7038" lon="-0.52169">
        <ele>1227</ele>
        <time>2018-12-27T03:33:02Z</time>
      </trkpt>
      <trkpt lat="42.70381" lon="-0.52175">
        <ele>1223</ele>
        <time>2018-12-27T03:33:03Z</time>
      </trkpt>
      <trkpt lat="42.70389" lon="-0.52179">
        <ele>1221</ele>
        <time>2018-12-27T03:33:05Z</time>
      </trkpt>
      <trkpt lat="42.70395" lon="-0.52186">
        <ele>1217</ele>
        <time>2018-12-27T03:33:07Z</time>
      </trkpt>
      <trkpt lat="42.70391" lon="-0.52189">
        <ele>1214</ele>
        <time>2018-12-27T03:33:08Z</time>
      </trkpt>
      <trkpt lat="42.70387" lon="-0.5219">
        <ele>1214</ele>
        <time>2018-12-27T03:33:10Z</time>
      </trkpt>
      <trkpt lat="42.70381" lon="-0.52188">
        <ele>1214</ele>
        <time>2018-12-27T03:33:11Z</time>
      </trkpt>
      <trkpt lat="42.70378" lon="-0.5219">
        <ele>1213</ele>
        <time>2018-12-27T03:33:12Z</time>
      </trkpt>
      <trkpt lat="42.7037" lon="-0.52188">
        <ele>1214</ele>
        <time>2018-12-27T03:33:14Z</time>
      </trkpt>
      <trkpt lat="42.70359" lon="-0.52182">
        <ele>1216</ele>
        <time>2018-12-27T03:33:18Z</time>
      </trkpt>
      <trkpt lat="42.70362" lon="-0.52188">
        <ele>1214</ele>
        <time>2018-12-27T03:33:19Z</time>
      </trkpt>
      <trkpt lat="42.70371" lon="-0.52196">
        <ele>1209</ele>
        <time>2018-12-27T03:33:22Z</time>
      </trkpt>
      <trkpt lat="42.70386" lon="-0.52204">
        <ele>1206</ele>
        <time>2018-12-27T03:33:26Z</time>
      </trkpt>
      <trkpt lat="42.70384" lon="-0.52208">
        <ele>1204</ele>
        <time>2018-12-27T03:33:27Z</time>
      </trkpt>
      <trkpt lat="42.70375" lon="-0.52207">
        <ele>1204</ele>
        <time>2018-12-27T03:33:29Z</time>
      </trkpt>
      <trkpt lat="42.7037" lon="-0.5221">
        <ele>1202</ele>
        <time>2018-12-27T03:33:31Z</time>
      </trkpt>
      <trkpt lat="42.70354" lon="-0.52203">
        <ele>1204</ele>
        <time>2018-12-27T03:33:35Z</time>
      </trkpt>
      <trkpt lat="42.70349" lon="-0.52203">
        <ele>1204</ele>
        <time>2018-12-27T03:33:37Z</time>
      </trkpt>
      <trkpt lat="42.70341" lon="-0.52201">
        <ele>1204</ele>
        <time>2018-12-27T03:33:39Z</time>
      </trkpt>
      <trkpt lat="42.70337" lon="-0.52203">
        <ele>1202</ele>
        <time>2018-12-27T03:33:40Z</time>
      </trkpt>
      <trkpt lat="42.70331" lon="-0.52202">
        <ele>1202</ele>
        <time>2018-12-27T03:33:42Z</time>
      </trkpt>
      <trkpt lat="42.70316" lon="-0.52206">
        <ele>1198</ele>
        <time>2018-12-27T03:33:46Z</time>
      </trkpt>
      <trkpt lat="42.7032" lon="-0.52211">
        <ele>1196</ele>
        <time>2018-12-27T03:33:47Z</time>
      </trkpt>
      <trkpt lat="42.7033" lon="-0.52216">
        <ele>1196</ele>
        <time>2018-12-27T03:33:50Z</time>
      </trkpt>
      <trkpt lat="42.70348" lon="-0.52248">
        <ele>1182</ele>
        <time>2018-12-27T03:33:58Z</time>
      </trkpt>
      <trkpt lat="42.70356" lon="-0.52256">
        <ele>1179</ele>
        <time>2018-12-27T03:34:00Z</time>
      </trkpt>
      <trkpt lat="42.70369" lon="-0.52263">
        <ele>1178</ele>
        <time>2018-12-27T03:34:04Z</time>
      </trkpt>
      <trkpt lat="42.70377" lon="-0.52272">
        <ele>1175</ele>
        <time>2018-12-27T03:34:07Z</time>
      </trkpt>
      <trkpt lat="42.70387" lon="-0.52274">
        <ele>1176</ele>
        <time>2018-12-27T03:34:10Z</time>
      </trkpt>
      <trkpt lat="42.70398" lon="-0.5228">
        <ele>1174</ele>
        <time>2018-12-27T03:34:13Z</time>
      </trkpt>
      <trkpt lat="42.70418" lon="-0.52282">
        <ele>1175</ele>
        <time>2018-12-27T03:34:18Z</time>
      </trkpt>
      <trkpt lat="42.70419" lon="-0.52285">
        <ele>1174</ele>
        <time>2018-12-27T03:34:19Z</time>
      </trkpt>
      <trkpt lat="42.70407" lon="-0.52297">
        <ele>1169</ele>
        <time>2018-12-27T03:34:23Z</time>
      </trkpt>
      <trkpt lat="42.70396" lon="-0.52301">
        <ele>1167</ele>
        <time>2018-12-27T03:34:26Z</time>
      </trkpt>
      <trkpt lat="42.70397" lon="-0.52308">
        <ele>1164</ele>
        <time>2018-12-27T03:34:27Z</time>
      </trkpt>
      <trkpt lat="42.70409" lon="-0.52311">
        <ele>1164</ele>
        <time>2018-12-27T03:34:30Z</time>
      </trkpt>
      <trkpt lat="42.70409" lon="-0.52312">
        <ele>1164</ele>
        <time>2018-12-27T03:34:31Z</time>
      </trkpt>
      <trkpt lat="42.70403" lon="-0.52313">
        <ele>1163</ele>
        <time>2018-12-27T03:34:32Z</time>
      </trkpt>
      <trkpt lat="42.70406" lon="-0.52316">
        <ele>1163</ele>
        <time>2018-12-27T03:34:33Z</time>
      </trkpt>
      <trkpt lat="42.70403" lon="-0.5232">
        <ele>1161</ele>
        <time>2018-12-27T03:34:34Z</time>
      </trkpt>
      <trkpt lat="42.70404" lon="-0.52325">
        <ele>1160</ele>
        <time>2018-12-27T03:34:35Z</time>
      </trkpt>
      <trkpt lat="42.70408" lon="-0.52324">
        <ele>1161</ele>
        <time>2018-12-27T03:34:36Z</time>
      </trkpt>
      <trkpt lat="42.70394" lon="-0.52355">
        <ele>1149</ele>
        <time>2018-12-27T03:34:43Z</time>
      </trkpt>
      <trkpt lat="42.70397" lon="-0.52354">
        <ele>1149</ele>
        <time>2018-12-27T03:34:44Z</time>
      </trkpt>
      <trkpt lat="42.70397" lon="-0.5236">
        <ele>1147</ele>
        <time>2018-12-27T03:34:45Z</time>
      </trkpt>
      <trkpt lat="42.7039" lon="-0.52365">
        <ele>1145</ele>
        <time>2018-12-27T03:34:47Z</time>
      </trkpt>
      <trkpt lat="42.70385" lon="-0.52367">
        <ele>1143</ele>
        <time>2018-12-27T03:34:49Z</time>
      </trkpt>
      <trkpt lat="42.70386" lon="-0.52368">
        <ele>1143</ele>
        <time>2018-12-27T03:34:49Z</time>
      </trkpt>
      <trkpt lat="42.70394" lon="-0.5237">
        <ele>1143</ele>
        <time>2018-12-27T03:34:51Z</time>
      </trkpt>
      <trkpt lat="42.70388" lon="-0.52371">
        <ele>1142</ele>
        <time>2018-12-27T03:34:53Z</time>
      </trkpt>
      <trkpt lat="42.70382" lon="-0.52377">
        <ele>1139</ele>
        <time>2018-12-27T03:34:55Z</time>
      </trkpt>
      <trkpt lat="42.70378" lon="-0.52381">
        <ele>1136</ele>
        <time>2018-12-27T03:34:56Z</time>
      </trkpt>
      <trkpt lat="42.70377" lon="-0.52385">
        <ele>1134</ele>
        <time>2018-12-27T03:34:57Z</time>
      </trkpt>
      <trkpt lat="42.704" lon="-0.52384">
        <ele>1136</ele>
        <time>2018-12-27T03:35:03Z</time>
      </trkpt>
      <trkpt lat="42.70383" lon="-0.52401">
        <ele>1128</ele>
        <time>2018-12-27T03:35:09Z</time>
      </trkpt>
      <trkpt lat="42.70388" lon="-0.52402">
        <ele>1128</ele>
        <time>2018-12-27T03:35:10Z</time>
      </trkpt>
      <trkpt lat="42.70392" lon="-0.52401">
        <ele>1128</ele>
        <time>2018-12-27T03:35:11Z</time>
      </trkpt>
      <trkpt lat="42.70397" lon="-0.52403">
        <ele>1127</ele>
        <time>2018-12-27T03:35:13Z</time>
      </trkpt>
      <trkpt lat="42.70399" lon="-0.52406">
        <ele>1126</ele>
        <time>2018-12-27T03:35:13Z</time>
      </trkpt>
      <trkpt lat="42.70391" lon="-0.52411">
        <ele>1124</ele>
        <time>2018-12-27T03:35:16Z</time>
      </trkpt>
      <trkpt lat="42.70389" lon="-0.52415">
        <ele>1122</ele>
        <time>2018-12-27T03:35:16Z</time>
      </trkpt>
      <trkpt lat="42.70394" lon="-0.52418">
        <ele>1121</ele>
        <time>2018-12-27T03:35:18Z</time>
      </trkpt>
      <trkpt lat="42.70404" lon="-0.52419">
        <ele>1121</ele>
        <time>2018-12-27T03:35:21Z</time>
      </trkpt>
      <trkpt lat="42.70426" lon="-0.52399">
        <ele>1127</ele>
        <time>2018-12-27T03:35:28Z</time>
      </trkpt>
      <trkpt lat="42.70426" lon="-0.52401">
        <ele>1126</ele>
        <time>2018-12-27T03:35:28Z</time>
      </trkpt>
      <trkpt lat="42.70407" lon="-0.52431">
        <ele>1115</ele>
        <time>2018-12-27T03:35:36Z</time>
      </trkpt>
      <trkpt lat="42.70409" lon="-0.52433">
        <ele>1114</ele>
        <time>2018-12-27T03:35:36Z</time>
      </trkpt>
      <trkpt lat="42.70417" lon="-0.52427">
        <ele>1117</ele>
        <time>2018-12-27T03:35:39Z</time>
      </trkpt>
      <trkpt lat="42.70425" lon="-0.52426">
        <ele>1115</ele>
        <time>2018-12-27T03:35:41Z</time>
      </trkpt>
      <trkpt lat="42.70425" lon="-0.52429">
        <ele>1113</ele>
        <time>2018-12-27T03:35:41Z</time>
      </trkpt>
      <trkpt lat="42.70421" lon="-0.52433">
        <ele>1112</ele>
        <time>2018-12-27T03:35:42Z</time>
      </trkpt>
      <trkpt lat="42.70418" lon="-0.52444">
        <ele>1108</ele>
        <time>2018-12-27T03:35:45Z</time>
      </trkpt>
      <trkpt lat="42.70408" lon="-0.52457">
        <ele>1102</ele>
        <time>2018-12-27T03:35:48Z</time>
      </trkpt>
      <trkpt lat="42.70408" lon="-0.5246">
        <ele>1101</ele>
        <time>2018-12-27T03:35:49Z</time>
      </trkpt>
      <trkpt lat="42.70411" lon="-0.52463">
        <ele>1099</ele>
        <time>2018-12-27T03:35:50Z</time>
      </trkpt>
      <trkpt lat="42.70412" lon="-0.52459">
        <ele>1101</ele>
        <time>2018-12-27T03:35:51Z</time>
      </trkpt>
      <trkpt lat="42.70418" lon="-0.52454">
        <ele>1103</ele>
        <time>2018-12-27T03:35:53Z</time>
      </trkpt>
      <trkpt lat="42.70424" lon="-0.52451">
        <ele>1103</ele>
        <time>2018-12-27T03:35:54Z</time>
      </trkpt>
      <trkpt lat="42.70419" lon="-0.5246">
        <ele>1100</ele>
        <time>2018-12-27T03:35:56Z</time>
      </trkpt>
      <trkpt lat="42.7041" lon="-0.52467">
        <ele>1097</ele>
        <time>2018-12-27T03:35:59Z</time>
      </trkpt>
      <trkpt lat="42.70403" lon="-0.52476">
        <ele>1092</ele>
        <time>2018-12-27T03:36:02Z</time>
      </trkpt>
      <trkpt lat="42.70407" lon="-0.52476">
        <ele>1092</ele>
        <time>2018-12-27T03:36:03Z</time>
      </trkpt>
      <trkpt lat="42.70415" lon="-0.52473">
        <ele>1093</ele>
        <time>2018-12-27T03:36:05Z</time>
      </trkpt>
      <trkpt lat="42.70423" lon="-0.52475">
        <ele>1091</ele>
        <time>2018-12-27T03:36:07Z</time>
      </trkpt>
      <trkpt lat="42.7043" lon="-0.52474">
        <ele>1090</ele>
        <time>2018-12-27T03:36:09Z</time>
      </trkpt>
      <trkpt lat="42.70429" lon="-0.52482">
        <ele>1086</ele>
        <time>2018-12-27T03:36:11Z</time>
      </trkpt>
      <trkpt lat="42.70424" lon="-0.52492">
        <ele>1082</ele>
        <time>2018-12-27T03:36:13Z</time>
      </trkpt>
      <trkpt lat="42.70417" lon="-0.52502">
        <ele>1078</ele>
        <time>2018-12-27T03:36:16Z</time>
      </trkpt>
      <trkpt lat="42.70416" lon="-0.52509">
        <ele>1074</ele>
        <time>2018-12-27T03:36:17Z</time>
      </trkpt>
      <trkpt lat="42.70429" lon="-0.52514">
        <ele>1072</ele>
        <time>2018-12-27T03:36:21Z</time>
      </trkpt>
      <trkpt lat="42.7044" lon="-0.5251">
        <ele>1073</ele>
        <time>2018-12-27T03:36:24Z</time>
      </trkpt>
      <trkpt lat="42.70438" lon="-0.52516">
        <ele>1070</ele>
        <time>2018-12-27T03:36:25Z</time>
      </trkpt>
      <trkpt lat="42.70422" lon="-0.5253">
        <ele>1064</ele>
        <time>2018-12-27T03:36:30Z</time>
      </trkpt>
      <trkpt lat="42.7041" lon="-0.52534">
        <ele>1062</ele>
        <time>2018-12-27T03:36:34Z</time>
      </trkpt>
      <trkpt lat="42.70405" lon="-0.52541">
        <ele>1059</ele>
        <time>2018-12-27T03:36:35Z</time>
      </trkpt>
      <trkpt lat="42.70402" lon="-0.52542">
        <ele>1058</ele>
        <time>2018-12-27T03:36:36Z</time>
      </trkpt>
      <trkpt lat="42.70409" lon="-0.52542">
        <ele>1059</ele>
        <time>2018-12-27T03:36:38Z</time>
      </trkpt>
      <trkpt lat="42.70419" lon="-0.52544">
        <ele>1058</ele>
        <time>2018-12-27T03:36:41Z</time>
      </trkpt>
      <trkpt lat="42.70423" lon="-0.52547">
        <ele>1056</ele>
        <time>2018-12-27T03:36:42Z</time>
      </trkpt>
      <trkpt lat="42.70413" lon="-0.52547">
        <ele>1056</ele>
        <time>2018-12-27T03:36:45Z</time>
      </trkpt>
      <trkpt lat="42.70404" lon="-0.52552">
        <ele>1053</ele>
        <time>2018-12-27T03:36:47Z</time>
      </trkpt>
      <trkpt lat="42.70402" lon="-0.52557">
        <ele>1050</ele>
        <time>2018-12-27T03:36:48Z</time>
      </trkpt>
      <trkpt lat="42.70412" lon="-0.52559">
        <ele>1050</ele>
        <time>2018-12-27T03:36:51Z</time>
      </trkpt>
      <trkpt lat="42.70424" lon="-0.52558">
        <ele>1050</ele>
        <time>2018-12-27T03:36:54Z</time>
      </trkpt>
      <trkpt lat="42.70426" lon="-0.5256">
        <ele>1049</ele>
        <time>2018-12-27T03:36:55Z</time>
      </trkpt>
      <trkpt lat="42.70428" lon="-0.52558">
        <ele>1050</ele>
        <time>2018-12-27T03:36:55Z</time>
      </trkpt>
      <trkpt lat="42.70441" lon="-0.52555">
        <ele>1050</ele>
        <time>2018-12-27T03:36:59Z</time>
      </trkpt>
      <trkpt lat="42.70443" lon="-0.52554">
        <ele>1050</ele>
        <time>2018-12-27T03:36:59Z</time>
      </trkpt>
      <trkpt lat="42.70447" lon="-0.52549">
        <ele>1053</ele>
        <time>2018-12-27T03:37:01Z</time>
      </trkpt>
      <trkpt lat="42.70452" lon="-0.52545">
        <ele>1055</ele>
        <time>2018-12-27T03:37:03Z</time>
      </trkpt>
      <trkpt lat="42.70462" lon="-0.52542">
        <ele>1055</ele>
        <time>2018-12-27T03:37:05Z</time>
      </trkpt>
      <trkpt lat="42.70483" lon="-0.52548">
        <ele>1048</ele>
        <time>2018-12-27T03:37:11Z</time>
      </trkpt>
      <trkpt lat="42.70492" lon="-0.52546">
        <ele>1047</ele>
        <time>2018-12-27T03:37:13Z</time>
      </trkpt>
      <trkpt lat="42.70519" lon="-0.52545">
        <ele>1044</ele>
        <time>2018-12-27T03:37:21Z</time>
      </trkpt>
      <trkpt lat="42.70528" lon="-0.52546">
        <ele>1042</ele>
        <time>2018-12-27T03:37:23Z</time>
      </trkpt>
      <trkpt lat="42.7053" lon="-0.52548">
        <ele>1041</ele>
        <time>2018-12-27T03:37:23Z</time>
      </trkpt>
      <trkpt lat="42.70521" lon="-0.52559">
        <ele>1038</ele>
        <time>2018-12-27T03:37:27Z</time>
      </trkpt>
      <trkpt lat="42.70522" lon="-0.52561">
        <ele>1037</ele>
        <time>2018-12-27T03:37:27Z</time>
      </trkpt>
      <trkpt lat="42.70532" lon="-0.5256">
        <ele>1036</ele>
        <time>2018-12-27T03:37:30Z</time>
      </trkpt>
      <trkpt lat="42.70538" lon="-0.52562">
        <ele>1034</ele>
        <time>2018-12-27T03:37:31Z</time>
      </trkpt>
      <trkpt lat="42.70558" lon="-0.52559">
        <ele>1032</ele>
        <time>2018-12-27T03:37:37Z</time>
      </trkpt>
      <trkpt lat="42.70588" lon="-0.52567">
        <ele>1023</ele>
        <time>2018-12-27T03:37:45Z</time>
      </trkpt>
      <trkpt lat="42.70602" lon="-0.52569">
        <ele>1021</ele>
        <time>2018-12-27T03:37:49Z</time>
      </trkpt>
      <trkpt lat="42.70618" lon="-0.52567">
        <ele>1019</ele>
        <time>2018-12-27T03:37:53Z</time>
      </trkpt>
      <trkpt lat="42.70638" lon="-0.52557">
        <ele>1021</ele>
        <time>2018-12-27T03:37:59Z</time>
      </trkpt>
      <trkpt lat="42.70658" lon="-0.52553">
        <ele>1020</ele>
        <time>2018-12-27T03:38:04Z</time>
      </trkpt>
      <trkpt lat="42.70669" lon="-0.5255">
        <ele>1021</ele>
        <time>2018-12-27T03:38:07Z</time>
      </trkpt>
      <trkpt lat="42.7068" lon="-0.52546">
        <ele>1023</ele>
        <time>2018-12-27T03:38:10Z</time>
      </trkpt>
      <trkpt lat="42.70699" lon="-0.52534">
        <ele>1029</ele>
        <time>2018-12-27T03:38:16Z</time>
      </trkpt>
      <trkpt lat="42.70723" lon="-0.52532">
        <ele>1024</ele>
        <time>2018-12-27T03:38:22Z</time>
      </trkpt>
      <trkpt lat="42.70742" lon="-0.52533">
        <ele>1019</ele>
        <time>2018-12-27T03:38:27Z</time>
      </trkpt>
      <trkpt lat="42.70753" lon="-0.52535">
        <ele>1017</ele>
        <time>2018-12-27T03:38:30Z</time>
      </trkpt>
      <trkpt lat="42.70779" lon="-0.52544">
        <ele>1016</ele>
        <time>2018-12-27T03:38:37Z</time>
      </trkpt>
      <trkpt lat="42.70795" lon="-0.52542">
        <ele>1016</ele>
        <time>2018-12-27T03:38:41Z</time>
      </trkpt>
      <trkpt lat="42.70806" lon="-0.52538">
        <ele>1017</ele>
        <time>2018-12-27T03:38:45Z</time>
      </trkpt>
      <trkpt lat="42.70813" lon="-0.52533">
        <ele>1018</ele>
        <time>2018-12-27T03:38:47Z</time>
      </trkpt>
      <trkpt lat="42.70826" lon="-0.52527">
        <ele>1020</ele>
        <time>2018-12-27T03:38:50Z</time>
      </trkpt>
      <trkpt lat="42.70831" lon="-0.52527">
        <ele>1020</ele>
        <time>2018-12-27T03:38:52Z</time>
      </trkpt>
      <trkpt lat="42.70864" lon="-0.52541">
        <ele>1021</ele>
        <time>2018-12-27T03:39:01Z</time>
      </trkpt>
      <trkpt lat="42.70885" lon="-0.52544">
        <ele>1023</ele>
        <time>2018-12-27T03:39:07Z</time>
      </trkpt>
      <trkpt lat="42.70894" lon="-0.52542">
        <ele>1024</ele>
        <time>2018-12-27T03:39:09Z</time>
      </trkpt>
      <trkpt lat="42.70925" lon="-0.5252">
        <ele>1030</ele>
        <time>2018-12-27T03:39:18Z</time>
      </trkpt>
      <trkpt lat="42.70948" lon="-0.52509">
        <ele>1033</ele>
        <time>2018-12-27T03:39:25Z</time>
      </trkpt>
      <trkpt lat="42.70978" lon="-0.52499">
        <ele>1035</ele>
        <time>2018-12-27T03:39:33Z</time>
      </trkpt>
      <trkpt lat="42.70989" lon="-0.52502">
        <ele>1034</ele>
        <time>2018-12-27T03:39:36Z</time>
      </trkpt>
      <trkpt lat="42.70997" lon="-0.52508">
        <ele>1032</ele>
        <time>2018-12-27T03:39:39Z</time>
      </trkpt>
      <trkpt lat="42.71015" lon="-0.52513">
        <ele>1031</ele>
        <time>2018-12-27T03:39:43Z</time>
      </trkpt>
      <trkpt lat="42.71047" lon="-0.52519">
        <ele>1027</ele>
        <time>2018-12-27T03:39:52Z</time>
      </trkpt>
      <trkpt lat="42.71038" lon="-0.52612">
        <ele>1022</ele>
        <time>2018-12-27T03:40:10Z</time>
      </trkpt>
      <trkpt lat="42.71041" lon="-0.52596">
        <ele>1021</ele>
        <time>2018-12-27T03:40:14Z</time>
      </trkpt>
      <trkpt lat="42.71069" lon="-0.52573">
        <ele>1023</ele>
        <time>2018-12-27T03:40:22Z</time>
      </trkpt>
      <trkpt lat="42.71096" lon="-0.52557">
        <ele>1024</ele>
        <time>2018-12-27T03:40:30Z</time>
      </trkpt>
      <trkpt lat="42.71132" lon="-0.52516">
        <ele>1022</ele>
        <time>2018-12-27T03:40:43Z</time>
      </trkpt>
      <trkpt lat="42.71185" lon="-0.52484">
        <ele>1024</ele>
        <time>2018-12-27T03:40:58Z</time>
      </trkpt>
      <trkpt lat="42.71215" lon="-0.52486">
        <ele>1029</ele>
        <time>2018-12-27T03:41:06Z</time>
      </trkpt>
      <trkpt lat="42.71241" lon="-0.5249">
        <ele>1032</ele>
        <time>2018-12-27T03:41:13Z</time>
      </trkpt>
      <trkpt lat="42.71285" lon="-0.52515">
        <ele>1038</ele>
        <time>2018-12-27T03:41:26Z</time>
      </trkpt>
      <trkpt lat="42.71312" lon="-0.52519">
        <ele>1039</ele>
        <time>2018-12-27T03:41:33Z</time>
      </trkpt>
      <trkpt lat="42.71346" lon="-0.5253">
        <ele>1040</ele>
        <time>2018-12-27T03:41:42Z</time>
      </trkpt>
      <trkpt lat="42.71412" lon="-0.52547">
        <ele>1047</ele>
        <time>2018-12-27T03:42:00Z</time>
      </trkpt>
      <trkpt lat="42.71435" lon="-0.52573">
        <ele>1053</ele>
        <time>2018-12-27T03:42:08Z</time>
      </trkpt>
      <trkpt lat="42.71446" lon="-0.52581">
        <ele>1053</ele>
        <time>2018-12-27T03:42:12Z</time>
      </trkpt>
      <trkpt lat="42.71483" lon="-0.52586">
        <ele>1052</ele>
        <time>2018-12-27T03:42:22Z</time>
      </trkpt>
      <trkpt lat="42.7152" lon="-0.5258">
        <ele>1051</ele>
        <time>2018-12-27T03:42:32Z</time>
      </trkpt>
      <trkpt lat="42.71563" lon="-0.52569">
        <ele>1046</ele>
        <time>2018-12-27T03:42:43Z</time>
      </trkpt>
      <trkpt lat="42.7163" lon="-0.5255">
        <ele>1046</ele>
        <time>2018-12-27T03:43:02Z</time>
      </trkpt>
      <trkpt lat="42.71656" lon="-0.52545">
        <ele>1048</ele>
        <time>2018-12-27T03:43:09Z</time>
      </trkpt>
      <trkpt lat="42.71731" lon="-0.52514">
        <ele>1050</ele>
        <time>2018-12-27T03:43:30Z</time>
      </trkpt>
      <trkpt lat="42.71771" lon="-0.52514">
        <ele>1049</ele>
        <time>2018-12-27T03:43:40Z</time>
      </trkpt>
      <trkpt lat="42.71784" lon="-0.52517">
        <ele>1049</ele>
        <time>2018-12-27T03:43:44Z</time>
      </trkpt>
      <trkpt lat="42.71852" lon="-0.52523">
        <ele>1055</ele>
        <time>2018-12-27T03:44:02Z</time>
      </trkpt>
      <trkpt lat="42.71898" lon="-0.52534">
        <ele>1054</ele>
        <time>2018-12-27T03:44:14Z</time>
      </trkpt>
      <trkpt lat="42.71918" lon="-0.52536">
        <ele>1053</ele>
        <time>2018-12-27T03:44:20Z</time>
      </trkpt>
      <trkpt lat="42.71965" lon="-0.52532">
        <ele>1050</ele>
        <time>2018-12-27T03:44:32Z</time>
      </trkpt>
      <trkpt lat="42.71971" lon="-0.52527">
        <ele>1050</ele>
        <time>2018-12-27T03:44:34Z</time>
      </trkpt>
      <trkpt lat="42.71979" lon="-0.52509">
        <ele>1051</ele>
        <time>2018-12-27T03:44:38Z</time>
      </trkpt>
      <trkpt lat="42.71984" lon="-0.52482">
        <ele>1051</ele>
        <time>2018-12-27T03:44:44Z</time>
      </trkpt>
      <trkpt lat="42.71983" lon="-0.52488">
        <ele>1051</ele>
        <time>2018-12-27T03:44:45Z</time>
      </trkpt>
      <trkpt lat="42.71989" lon="-0.52466">
        <ele>1051</ele>
        <time>2018-12-27T03:44:50Z</time>
      </trkpt>
      <trkpt lat="42.72004" lon="-0.52433">
        <ele>1056</ele>
        <time>2018-12-27T03:44:58Z</time>
      </trkpt>
      <trkpt lat="42.72016" lon="-0.52412">
        <ele>1057</ele>
        <time>2018-12-27T03:45:03Z</time>
      </trkpt>
      <trkpt lat="42.72019" lon="-0.52404">
        <ele>1058</ele>
        <time>2018-12-27T03:45:04Z</time>
      </trkpt>
      <trkpt lat="42.72015" lon="-0.52372">
        <ele>1066</ele>
        <time>2018-12-27T03:45:11Z</time>
      </trkpt>
      <trkpt lat="42.72016" lon="-0.52361">
        <ele>1068</ele>
        <time>2018-12-27T03:45:13Z</time>
      </trkpt>
      <trkpt lat="42.72024" lon="-0.52345">
        <ele>1070</ele>
        <time>2018-12-27T03:45:17Z</time>
      </trkpt>
      <trkpt lat="42.72019" lon="-0.52333">
        <ele>1073</ele>
        <time>2018-12-27T03:45:19Z</time>
      </trkpt>
      <trkpt lat="42.71999" lon="-0.5232">
        <ele>1079</ele>
        <time>2018-12-27T03:45:25Z</time>
      </trkpt>
      <trkpt lat="42.71987" lon="-0.52323">
        <ele>1080</ele>
        <time>2018-12-27T03:45:29Z</time>
      </trkpt>
      <trkpt lat="42.71979" lon="-0.52317">
        <ele>1082</ele>
        <time>2018-12-27T03:45:31Z</time>
      </trkpt>
      <trkpt lat="42.7198" lon="-0.52305">
        <ele>1084</ele>
        <time>2018-12-27T03:45:33Z</time>
      </trkpt>
      <trkpt lat="42.7199" lon="-0.52286">
        <ele>1087</ele>
        <time>2018-12-27T03:45:38Z</time>
      </trkpt>
      <trkpt lat="42.71989" lon="-0.52277">
        <ele>1089</ele>
        <time>2018-12-27T03:45:40Z</time>
      </trkpt>
      <trkpt lat="42.71981" lon="-0.52274">
        <ele>1091</ele>
        <time>2018-12-27T03:45:42Z</time>
      </trkpt>
      <trkpt lat="42.71991" lon="-0.52251">
        <ele>1100</ele>
        <time>2018-12-27T03:45:47Z</time>
      </trkpt>
      <trkpt lat="42.71997" lon="-0.52234">
        <ele>1107</ele>
        <time>2018-12-27T03:45:51Z</time>
      </trkpt>
      <trkpt lat="42.71992" lon="-0.52228">
        <ele>1110</ele>
        <time>2018-12-27T03:45:53Z</time>
      </trkpt>
      <trkpt lat="42.72" lon="-0.5221">
        <ele>1117</ele>
        <time>2018-12-27T03:45:57Z</time>
      </trkpt>
      <trkpt lat="42.72017" lon="-0.52214">
        <ele>1114</ele>
        <time>2018-12-27T03:46:01Z</time>
      </trkpt>
      <trkpt lat="42.72028" lon="-0.5222">
        <ele>1110</ele>
        <time>2018-12-27T03:46:05Z</time>
      </trkpt>
      <trkpt lat="42.72035" lon="-0.52212">
        <ele>1115</ele>
        <time>2018-12-27T03:46:07Z</time>
      </trkpt>
      <trkpt lat="42.72041" lon="-0.5221">
        <ele>1116</ele>
        <time>2018-12-27T03:46:09Z</time>
      </trkpt>
      <trkpt lat="42.72049" lon="-0.52194">
        <ele>1126</ele>
        <time>2018-12-27T03:46:12Z</time>
      </trkpt>
      <trkpt lat="42.72046" lon="-0.52178">
        <ele>1133</ele>
        <time>2018-12-27T03:46:16Z</time>
      </trkpt>
      <trkpt lat="42.72039" lon="-0.52178">
        <ele>1133</ele>
        <time>2018-12-27T03:46:17Z</time>
      </trkpt>
      <trkpt lat="42.72036" lon="-0.52168">
        <ele>1138</ele>
        <time>2018-12-27T03:46:19Z</time>
      </trkpt>
      <trkpt lat="42.72036" lon="-0.52162">
        <ele>1141</ele>
        <time>2018-12-27T03:46:21Z</time>
      </trkpt>
      <trkpt lat="42.72028" lon="-0.52155">
        <ele>1143</ele>
        <time>2018-12-27T03:46:23Z</time>
      </trkpt>
      <trkpt lat="42.72024" lon="-0.52144">
        <ele>1147</ele>
        <time>2018-12-27T03:46:26Z</time>
      </trkpt>
      <trkpt lat="42.7201" lon="-0.52131">
        <ele>1152</ele>
        <time>2018-12-27T03:46:30Z</time>
      </trkpt>
      <trkpt lat="42.71998" lon="-0.52098">
        <ele>1164</ele>
        <time>2018-12-27T03:46:37Z</time>
      </trkpt>
      <trkpt lat="42.72029" lon="-0.52116">
        <ele>1162</ele>
        <time>2018-12-27T03:46:46Z</time>
      </trkpt>
      <trkpt lat="42.72043" lon="-0.52107">
        <ele>1169</ele>
        <time>2018-12-27T03:46:50Z</time>
      </trkpt>
      <trkpt lat="42.72049" lon="-0.52089">
        <ele>1180</ele>
        <time>2018-12-27T03:46:54Z</time>
      </trkpt>
      <trkpt lat="42.72078" lon="-0.52086">
        <ele>1184</ele>
        <time>2018-12-27T03:47:02Z</time>
      </trkpt>
      <trkpt lat="42.72087" lon="-0.52083">
        <ele>1186</ele>
        <time>2018-12-27T03:47:04Z</time>
      </trkpt>
      <trkpt lat="42.72099" lon="-0.52072">
        <ele>1193</ele>
        <time>2018-12-27T03:47:08Z</time>
      </trkpt>
      <trkpt lat="42.72127" lon="-0.52052">
        <ele>1201</ele>
        <time>2018-12-27T03:47:17Z</time>
      </trkpt>
      <trkpt lat="42.7214" lon="-0.52047">
        <ele>1203</ele>
        <time>2018-12-27T03:47:20Z</time>
      </trkpt>
      <trkpt lat="42.72155" lon="-0.52038">
        <ele>1209</ele>
        <time>2018-12-27T03:47:24Z</time>
      </trkpt>
      <trkpt lat="42.72172" lon="-0.52038">
        <ele>1207</ele>
        <time>2018-12-27T03:47:29Z</time>
      </trkpt>
      <trkpt lat="42.72185" lon="-0.52031">
        <ele>1208</ele>
        <time>2018-12-27T03:47:33Z</time>
      </trkpt>
      <trkpt lat="42.72201" lon="-0.52025">
        <ele>1208</ele>
        <time>2018-12-27T03:47:37Z</time>
      </trkpt>
      <trkpt lat="42.72237" lon="-0.52003">
        <ele>1223</ele>
        <time>2018-12-27T03:47:48Z</time>
      </trkpt>
      <trkpt lat="42.72225" lon="-0.51993">
        <ele>1231</ele>
        <time>2018-12-27T03:47:52Z</time>
      </trkpt>
      <trkpt lat="42.72236" lon="-0.51985">
        <ele>1237</ele>
        <time>2018-12-27T03:47:55Z</time>
      </trkpt>
      <trkpt lat="42.72232" lon="-0.51981">
        <ele>1240</ele>
        <time>2018-12-27T03:47:56Z</time>
      </trkpt>
      <trkpt lat="42.72242" lon="-0.51977">
        <ele>1243</ele>
        <time>2018-12-27T03:47:59Z</time>
      </trkpt>
      <trkpt lat="42.72247" lon="-0.51977">
        <ele>1242</ele>
        <time>2018-12-27T03:48:00Z</time>
      </trkpt>
      <trkpt lat="42.72258" lon="-0.5197">
        <ele>1245</ele>
        <time>2018-12-27T03:48:04Z</time>
      </trkpt>
      <trkpt lat="42.72267" lon="-0.51958">
        <ele>1251</ele>
        <time>2018-12-27T03:48:07Z</time>
      </trkpt>
      <trkpt lat="42.72277" lon="-0.51948">
        <ele>1255</ele>
        <time>2018-12-27T03:48:10Z</time>
      </trkpt>
      <trkpt lat="42.72287" lon="-0.5194">
        <ele>1258</ele>
        <time>2018-12-27T03:48:14Z</time>
      </trkpt>
      <trkpt lat="42.72307" lon="-0.51928">
        <ele>1261</ele>
        <time>2018-12-27T03:48:19Z</time>
      </trkpt>
      <trkpt lat="42.72332" lon="-0.51906">
        <ele>1266</ele>
        <time>2018-12-27T03:48:27Z</time>
      </trkpt>
      <trkpt lat="42.72348" lon="-0.51896">
        <ele>1267</ele>
        <time>2018-12-27T03:48:32Z</time>
      </trkpt>
      <trkpt lat="42.72382" lon="-0.51902">
        <ele>1258</ele>
        <time>2018-12-27T03:48:41Z</time>
      </trkpt>
      <trkpt lat="42.72401" lon="-0.51891">
        <ele>1263</ele>
        <time>2018-12-27T03:48:47Z</time>
      </trkpt>
      <trkpt lat="42.72411" lon="-0.51879">
        <ele>1268</ele>
        <time>2018-12-27T03:48:50Z</time>
      </trkpt>
      <trkpt lat="42.72419" lon="-0.51859">
        <ele>1275</ele>
        <time>2018-12-27T03:48:55Z</time>
      </trkpt>
      <trkpt lat="42.72445" lon="-0.51813">
        <ele>1283</ele>
        <time>2018-12-27T03:49:06Z</time>
      </trkpt>
      <trkpt lat="42.7245" lon="-0.51802">
        <ele>1285</ele>
        <time>2018-12-27T03:49:09Z</time>
      </trkpt>
      <trkpt lat="42.72442" lon="-0.51803">
        <ele>1287</ele>
        <time>2018-12-27T03:49:11Z</time>
      </trkpt>
      <trkpt lat="42.72448" lon="-0.51786">
        <ele>1290</ele>
        <time>2018-12-27T03:49:14Z</time>
      </trkpt>
      <trkpt lat="42.72457" lon="-0.51772">
        <ele>1291</ele>
        <time>2018-12-27T03:49:18Z</time>
      </trkpt>
      <trkpt lat="42.72466" lon="-0.51747">
        <ele>1295</ele>
        <time>2018-12-27T03:49:23Z</time>
      </trkpt>
      <trkpt lat="42.72464" lon="-0.51741">
        <ele>1298</ele>
        <time>2018-12-27T03:49:25Z</time>
      </trkpt>
      <trkpt lat="42.72449" lon="-0.51748">
        <ele>1300</ele>
        <time>2018-12-27T03:49:29Z</time>
      </trkpt>
      <trkpt lat="42.72452" lon="-0.51735">
        <ele>1303</ele>
        <time>2018-12-27T03:49:32Z</time>
      </trkpt>
      <trkpt lat="42.72455" lon="-0.51716">
        <ele>1307</ele>
        <time>2018-12-27T03:49:35Z</time>
      </trkpt>
      <trkpt lat="42.72451" lon="-0.51706">
        <ele>1310</ele>
        <time>2018-12-27T03:49:38Z</time>
      </trkpt>
      <trkpt lat="42.72444" lon="-0.517">
        <ele>1314</ele>
        <time>2018-12-27T03:49:40Z</time>
      </trkpt>
      <trkpt lat="42.72442" lon="-0.51695">
        <ele>1315</ele>
        <time>2018-12-27T03:49:41Z</time>
      </trkpt>
      <trkpt lat="42.72452" lon="-0.51659">
        <ele>1318</ele>
        <time>2018-12-27T03:49:49Z</time>
      </trkpt>
      <trkpt lat="42.72454" lon="-0.51636">
        <ele>1319</ele>
        <time>2018-12-27T03:49:53Z</time>
      </trkpt>
      <trkpt lat="42.72451" lon="-0.51621">
        <ele>1322</ele>
        <time>2018-12-27T03:49:56Z</time>
      </trkpt>
      <trkpt lat="42.72445" lon="-0.51631">
        <ele>1324</ele>
        <time>2018-12-27T03:49:59Z</time>
      </trkpt>
      <trkpt lat="42.72435" lon="-0.51641">
        <ele>1327</ele>
        <time>2018-12-27T03:50:02Z</time>
      </trkpt>
      <trkpt lat="42.72415" lon="-0.51656">
        <ele>1332</ele>
        <time>2018-12-27T03:50:08Z</time>
      </trkpt>
      <trkpt lat="42.72404" lon="-0.51657">
        <ele>1337</ele>
        <time>2018-12-27T03:50:11Z</time>
      </trkpt>
      <trkpt lat="42.72408" lon="-0.51643">
        <ele>1339</ele>
        <time>2018-12-27T03:50:14Z</time>
      </trkpt>
      <trkpt lat="42.72402" lon="-0.51641">
        <ele>1342</ele>
        <time>2018-12-27T03:50:16Z</time>
      </trkpt>
      <trkpt lat="42.72407" lon="-0.51627">
        <ele>1343</ele>
        <time>2018-12-27T03:50:19Z</time>
      </trkpt>
      <trkpt lat="42.72401" lon="-0.51609">
        <ele>1351</ele>
        <time>2018-12-27T03:50:23Z</time>
      </trkpt>
      <trkpt lat="42.72399" lon="-0.51595">
        <ele>1355</ele>
        <time>2018-12-27T03:50:25Z</time>
      </trkpt>
      <trkpt lat="42.7239" lon="-0.51559">
        <ele>1369</ele>
        <time>2018-12-27T03:50:33Z</time>
      </trkpt>
      <trkpt lat="42.72391" lon="-0.51542">
        <ele>1372</ele>
        <time>2018-12-27T03:50:36Z</time>
      </trkpt>
      <trkpt lat="42.7238" lon="-0.51533">
        <ele>1379</ele>
        <time>2018-12-27T03:50:39Z</time>
      </trkpt>
      <trkpt lat="42.72375" lon="-0.51526">
        <ele>1383</ele>
        <time>2018-12-27T03:50:41Z</time>
      </trkpt>
      <trkpt lat="42.72369" lon="-0.51511">
        <ele>1390</ele>
        <time>2018-12-27T03:50:45Z</time>
      </trkpt>
      <trkpt lat="42.72378" lon="-0.51483">
        <ele>1392</ele>
        <time>2018-12-27T03:50:51Z</time>
      </trkpt>
      <trkpt lat="42.72381" lon="-0.5147">
        <ele>1395</ele>
        <time>2018-12-27T03:50:53Z</time>
      </trkpt>
      <trkpt lat="42.72387" lon="-0.51458">
        <ele>1396</ele>
        <time>2018-12-27T03:50:56Z</time>
      </trkpt>
      <trkpt lat="42.72389" lon="-0.51419">
        <ele>1410</ele>
        <time>2018-12-27T03:51:04Z</time>
      </trkpt>
      <trkpt lat="42.72387" lon="-0.5139">
        <ele>1422</ele>
        <time>2018-12-27T03:51:10Z</time>
      </trkpt>
      <trkpt lat="42.7239" lon="-0.51361">
        <ele>1429</ele>
        <time>2018-12-27T03:51:15Z</time>
      </trkpt>
      <trkpt lat="42.72375" lon="-0.51376">
        <ele>1433</ele>
        <time>2018-12-27T03:51:20Z</time>
      </trkpt>
      <trkpt lat="42.72374" lon="-0.51365">
        <ele>1436</ele>
        <time>2018-12-27T03:51:22Z</time>
      </trkpt>
      <trkpt lat="42.72365" lon="-0.5136">
        <ele>1442</ele>
        <time>2018-12-27T03:51:25Z</time>
      </trkpt>
      <trkpt lat="42.72351" lon="-0.51379">
        <ele>1443</ele>
        <time>2018-12-27T03:51:30Z</time>
      </trkpt>
      <trkpt lat="42.72333" lon="-0.51383">
        <ele>1447</ele>
        <time>2018-12-27T03:51:35Z</time>
      </trkpt>
      <trkpt lat="42.72315" lon="-0.51372">
        <ele>1455</ele>
        <time>2018-12-27T03:51:40Z</time>
      </trkpt>
      <trkpt lat="42.72318" lon="-0.51366">
        <ele>1456</ele>
        <time>2018-12-27T03:51:42Z</time>
      </trkpt>
      <trkpt lat="42.72324" lon="-0.51361">
        <ele>1457</ele>
        <time>2018-12-27T03:51:44Z</time>
      </trkpt>
      <trkpt lat="42.72328" lon="-0.51359">
        <ele>1456</ele>
        <time>2018-12-27T03:51:45Z</time>
      </trkpt>
      <trkpt lat="42.72323" lon="-0.51345">
        <ele>1462</ele>
        <time>2018-12-27T03:51:48Z</time>
      </trkpt>
      <trkpt lat="42.72327" lon="-0.51338">
        <ele>1463</ele>
        <time>2018-12-27T03:51:50Z</time>
      </trkpt>
      <trkpt lat="42.72327" lon="-0.51328">
        <ele>1466</ele>
        <time>2018-12-27T03:51:52Z</time>
      </trkpt>
      <trkpt lat="42.723" lon="-0.51329">
        <ele>1477</ele>
        <time>2018-12-27T03:51:59Z</time>
      </trkpt>
      <trkpt lat="42.72295" lon="-0.51324">
        <ele>1481</ele>
        <time>2018-12-27T03:52:01Z</time>
      </trkpt>
      <trkpt lat="42.72276" lon="-0.51329">
        <ele>1488</ele>
        <time>2018-12-27T03:52:06Z</time>
      </trkpt>
      <trkpt lat="42.72256" lon="-0.51323">
        <ele>1497</ele>
        <time>2018-12-27T03:52:11Z</time>
      </trkpt>
      <trkpt lat="42.72248" lon="-0.51318">
        <ele>1501</ele>
        <time>2018-12-27T03:52:13Z</time>
      </trkpt>
      <trkpt lat="42.72254" lon="-0.51308">
        <ele>1500</ele>
        <time>2018-12-27T03:52:16Z</time>
      </trkpt>
      <trkpt lat="42.72247" lon="-0.51303">
        <ele>1504</ele>
        <time>2018-12-27T03:52:18Z</time>
      </trkpt>
      <trkpt lat="42.72237" lon="-0.51302">
        <ele>1509</ele>
        <time>2018-12-27T03:52:20Z</time>
      </trkpt>
      <trkpt lat="42.72223" lon="-0.51303">
        <ele>1515</ele>
        <time>2018-12-27T03:52:24Z</time>
      </trkpt>
      <trkpt lat="42.72212" lon="-0.51311">
        <ele>1531</ele>
        <time>2018-12-27T03:52:27Z</time>
      </trkpt>
      <trkpt lat="42.72205" lon="-0.51341">
        <ele>1535</ele>
        <time>2018-12-27T03:52:34Z</time>
      </trkpt>
      <trkpt lat="42.72199" lon="-0.51352">
        <ele>1537</ele>
        <time>2018-12-27T03:52:36Z</time>
      </trkpt>
      <trkpt lat="42.72197" lon="-0.51369">
        <ele>1536</ele>
        <time>2018-12-27T03:52:40Z</time>
      </trkpt>
      <trkpt lat="42.72193" lon="-0.51381">
        <ele>1538</ele>
        <time>2018-12-27T03:52:42Z</time>
      </trkpt>
      <trkpt lat="42.72186" lon="-0.51385">
        <ele>1547</ele>
        <time>2018-12-27T03:52:44Z</time>
      </trkpt>
      <trkpt lat="42.72191" lon="-0.51418">
        <ele>1537</ele>
        <time>2018-12-27T03:52:51Z</time>
      </trkpt>
      <trkpt lat="42.72183" lon="-0.51424">
        <ele>1545</ele>
        <time>2018-12-27T03:52:53Z</time>
      </trkpt>
      <trkpt lat="42.7218" lon="-0.51433">
        <ele>1547</ele>
        <time>2018-12-27T03:52:55Z</time>
      </trkpt>
      <trkpt lat="42.72168" lon="-0.51443">
        <ele>1554</ele>
        <time>2018-12-27T03:52:59Z</time>
      </trkpt>
      <trkpt lat="42.72167" lon="-0.51459">
        <ele>1553</ele>
        <time>2018-12-27T03:53:02Z</time>
      </trkpt>
      <trkpt lat="42.72163" lon="-0.51462">
        <ele>1553</ele>
        <time>2018-12-27T03:53:04Z</time>
      </trkpt>
      <trkpt lat="42.7214" lon="-0.5143">
        <ele>1570</ele>
        <time>2018-12-27T03:53:12Z</time>
      </trkpt>
      <trkpt lat="42.72129" lon="-0.51418">
        <ele>1574</ele>
        <time>2018-12-27T03:53:16Z</time>
      </trkpt>
      <trkpt lat="42.72117" lon="-0.51415">
        <ele>1576</ele>
        <time>2018-12-27T03:53:19Z</time>
      </trkpt>
      <trkpt lat="42.72109" lon="-0.51409">
        <ele>1579</ele>
        <time>2018-12-27T03:53:22Z</time>
      </trkpt>
      <trkpt lat="42.72094" lon="-0.51407">
        <ele>1579</ele>
        <time>2018-12-27T03:53:26Z</time>
      </trkpt>
      <trkpt lat="42.72097" lon="-0.51392">
        <ele>1589</ele>
        <time>2018-12-27T03:53:29Z</time>
      </trkpt>
      <trkpt lat="42.72091" lon="-0.5138">
        <ele>1596</ele>
        <time>2018-12-27T03:53:32Z</time>
      </trkpt>
      <trkpt lat="42.72084" lon="-0.51378">
        <ele>1596</ele>
        <time>2018-12-27T03:53:34Z</time>
      </trkpt>
      <trkpt lat="42.72083" lon="-0.51358">
        <ele>1609</ele>
        <time>2018-12-27T03:53:38Z</time>
      </trkpt>
      <trkpt lat="42.72084" lon="-0.51349">
        <ele>1616</ele>
        <time>2018-12-27T03:53:39Z</time>
      </trkpt>
      <trkpt lat="42.72082" lon="-0.51338">
        <ele>1624</ele>
        <time>2018-12-27T03:53:42Z</time>
      </trkpt>
      <trkpt lat="42.72068" lon="-0.51321">
        <ele>1627</ele>
        <time>2018-12-27T03:53:47Z</time>
      </trkpt>
      <trkpt lat="42.72066" lon="-0.51332">
        <ele>1617</ele>
        <time>2018-12-27T03:53:49Z</time>
      </trkpt>
      <trkpt lat="42.72057" lon="-0.51341">
        <ele>1606</ele>
        <time>2018-12-27T03:53:52Z</time>
      </trkpt>
      <trkpt lat="42.72051" lon="-0.51315">
        <ele>1622</ele>
        <time>2018-12-27T03:53:57Z</time>
      </trkpt>
      <trkpt lat="42.7204" lon="-0.51292">
        <ele>1634</ele>
        <time>2018-12-27T03:54:02Z</time>
      </trkpt>
      <trkpt lat="42.72038" lon="-0.5128">
        <ele>1641</ele>
        <time>2018-12-27T03:54:05Z</time>
      </trkpt>
      <trkpt lat="42.72032" lon="-0.51263">
        <ele>1645</ele>
        <time>2018-12-27T03:54:08Z</time>
      </trkpt>
      <trkpt lat="42.72025" lon="-0.51257">
        <ele>1644</ele>
        <time>2018-12-27T03:54:11Z</time>
      </trkpt>
      <trkpt lat="42.72018" lon="-0.51249">
        <ele>1644</ele>
        <time>2018-12-27T03:54:13Z</time>
      </trkpt>
      <trkpt lat="42.72009" lon="-0.51225">
        <ele>1653</ele>
        <time>2018-12-27T03:54:18Z</time>
      </trkpt>
      <trkpt lat="42.72007" lon="-0.51197">
        <ele>1672</ele>
        <time>2018-12-27T03:54:24Z</time>
      </trkpt>
      <trkpt lat="42.71985" lon="-0.51166">
        <ele>1681</ele>
        <time>2018-12-27T03:54:32Z</time>
      </trkpt>
      <trkpt lat="42.71978" lon="-0.51153">
        <ele>1684</ele>
        <time>2018-12-27T03:54:35Z</time>
      </trkpt>
      <trkpt lat="42.71964" lon="-0.51133">
        <ele>1687</ele>
        <time>2018-12-27T03:54:41Z</time>
      </trkpt>
      <trkpt lat="42.7195" lon="-0.51128">
        <ele>1681</ele>
        <time>2018-12-27T03:54:45Z</time>
      </trkpt>
      <trkpt lat="42.71943" lon="-0.51114">
        <ele>1683</ele>
        <time>2018-12-27T03:54:48Z</time>
      </trkpt>
      <trkpt lat="42.71936" lon="-0.51091">
        <ele>1700</ele>
        <time>2018-12-27T03:54:53Z</time>
      </trkpt>
      <trkpt lat="42.71925" lon="-0.51075">
        <ele>1706</ele>
        <time>2018-12-27T03:54:57Z</time>
      </trkpt>
      <trkpt lat="42.71918" lon="-0.51084">
        <ele>1696</ele>
        <time>2018-12-27T03:55:00Z</time>
      </trkpt>
      <trkpt lat="42.71909" lon="-0.51089">
        <ele>1690</ele>
        <time>2018-12-27T03:55:02Z</time>
      </trkpt>
      <trkpt lat="42.71902" lon="-0.51083">
        <ele>1692</ele>
        <time>2018-12-27T03:55:04Z</time>
      </trkpt>
      <trkpt lat="42.71902" lon="-0.51072">
        <ele>1701</ele>
        <time>2018-12-27T03:55:07Z</time>
      </trkpt>
      <trkpt lat="42.71899" lon="-0.51065">
        <ele>1707</ele>
        <time>2018-12-27T03:55:08Z</time>
      </trkpt>
      <trkpt lat="42.71895" lon="-0.51069">
        <ele>1703</ele>
        <time>2018-12-27T03:55:10Z</time>
      </trkpt>
      <trkpt lat="42.71899" lon="-0.51056">
        <ele>1715</ele>
        <time>2018-12-27T03:55:12Z</time>
      </trkpt>
      <trkpt lat="42.71903" lon="-0.51052">
        <ele>1718</ele>
        <time>2018-12-27T03:55:14Z</time>
      </trkpt>
      <trkpt lat="42.71887" lon="-0.51051">
        <ele>1719</ele>
        <time>2018-12-27T03:55:18Z</time>
      </trkpt>
      <trkpt lat="42.71871" lon="-0.51059">
        <ele>1706</ele>
        <time>2018-12-27T03:55:22Z</time>
      </trkpt>
      <trkpt lat="42.71857" lon="-0.51057">
        <ele>1704</ele>
        <time>2018-12-27T03:55:26Z</time>
      </trkpt>
      <trkpt lat="42.71849" lon="-0.51043">
        <ele>1715</ele>
        <time>2018-12-27T03:55:30Z</time>
      </trkpt>
      <trkpt lat="42.71836" lon="-0.51031">
        <ele>1725</ele>
        <time>2018-12-27T03:55:34Z</time>
      </trkpt>
      <trkpt lat="42.71832" lon="-0.51044">
        <ele>1715</ele>
        <time>2018-12-27T03:55:37Z</time>
      </trkpt>
      <trkpt lat="42.71823" lon="-0.51044">
        <ele>1716</ele>
        <time>2018-12-27T03:55:39Z</time>
      </trkpt>
      <trkpt lat="42.71816" lon="-0.51042">
        <ele>1719</ele>
        <time>2018-12-27T03:55:41Z</time>
      </trkpt>
      <trkpt lat="42.7181" lon="-0.51034">
        <ele>1724</ele>
        <time>2018-12-27T03:55:43Z</time>
      </trkpt>
      <trkpt lat="42.71804" lon="-0.5102">
        <ele>1734</ele>
        <time>2018-12-27T03:55:46Z</time>
      </trkpt>
      <trkpt lat="42.71805" lon="-0.51014">
        <ele>1738</ele>
        <time>2018-12-27T03:55:48Z</time>
      </trkpt>
      <trkpt lat="42.718" lon="-0.51003">
        <ele>1749</ele>
        <time>2018-12-27T03:55:50Z</time>
      </trkpt>
      <trkpt lat="42.71803" lon="-0.50993">
        <ele>1755</ele>
        <time>2018-12-27T03:55:52Z</time>
      </trkpt>
      <trkpt lat="42.7181" lon="-0.50981">
        <ele>1763</ele>
        <time>2018-12-27T03:55:55Z</time>
      </trkpt>
      <trkpt lat="42.71809" lon="-0.50972">
        <ele>1769</ele>
        <time>2018-12-27T03:55:57Z</time>
      </trkpt>
      <trkpt lat="42.71801" lon="-0.50969">
        <ele>1773</ele>
        <time>2018-12-27T03:55:59Z</time>
      </trkpt>
      <trkpt lat="42.71793" lon="-0.50969">
        <ele>1776</ele>
        <time>2018-12-27T03:56:01Z</time>
      </trkpt>
      <trkpt lat="42.71791" lon="-0.50962">
        <ele>1782</ele>
        <time>2018-12-27T03:56:03Z</time>
      </trkpt>
      <trkpt lat="42.71796" lon="-0.50942">
        <ele>1791</ele>
        <time>2018-12-27T03:56:07Z</time>
      </trkpt>
      <trkpt lat="42.71787" lon="-0.5094">
        <ele>1796</ele>
        <time>2018-12-27T03:56:09Z</time>
      </trkpt>
      <trkpt lat="42.71785" lon="-0.50933">
        <ele>1801</ele>
        <time>2018-12-27T03:56:11Z</time>
      </trkpt>
      <trkpt lat="42.71777" lon="-0.50937">
        <ele>1803</ele>
        <time>2018-12-27T03:56:13Z</time>
      </trkpt>
      <trkpt lat="42.71778" lon="-0.50925">
        <ele>1809</ele>
        <time>2018-12-27T03:56:15Z</time>
      </trkpt>
      <trkpt lat="42.71782" lon="-0.50922">
        <ele>1808</ele>
        <time>2018-12-27T03:56:17Z</time>
      </trkpt>
      <trkpt lat="42.71787" lon="-0.5091">
        <ele>1812</ele>
        <time>2018-12-27T03:56:19Z</time>
      </trkpt>
      <trkpt lat="42.71784" lon="-0.50906">
        <ele>1816</ele>
        <time>2018-12-27T03:56:21Z</time>
      </trkpt>
      <trkpt lat="42.71784" lon="-0.50899">
        <ele>1819</ele>
        <time>2018-12-27T03:56:22Z</time>
      </trkpt>
      <trkpt lat="42.71775" lon="-0.50892">
        <ele>1826</ele>
        <time>2018-12-27T03:56:25Z</time>
      </trkpt>
      <trkpt lat="42.71764" lon="-0.5087">
        <ele>1841</ele>
        <time>2018-12-27T03:56:30Z</time>
      </trkpt>
      <trkpt lat="42.7176" lon="-0.50858">
        <ele>1847</ele>
        <time>2018-12-27T03:56:33Z</time>
      </trkpt>
      <trkpt lat="42.71767" lon="-0.50855">
        <ele>1846</ele>
        <time>2018-12-27T03:56:35Z</time>
      </trkpt>
      <trkpt lat="42.71769" lon="-0.50845">
        <ele>1851</ele>
        <time>2018-12-27T03:56:37Z</time>
      </trkpt>
      <trkpt lat="42.71772" lon="-0.50838">
        <ele>1853</ele>
        <time>2018-12-27T03:56:39Z</time>
      </trkpt>
      <trkpt lat="42.71755" lon="-0.50821">
        <ele>1864</ele>
        <time>2018-12-27T03:56:44Z</time>
      </trkpt>
      <trkpt lat="42.71754" lon="-0.50814">
        <ele>1867</ele>
        <time>2018-12-27T03:56:45Z</time>
      </trkpt>
      <trkpt lat="42.7176" lon="-0.50811">
        <ele>1868</ele>
        <time>2018-12-27T03:56:47Z</time>
      </trkpt>
      <trkpt lat="42.71763" lon="-0.50805">
        <ele>1871</ele>
        <time>2018-12-27T03:56:49Z</time>
      </trkpt>
      <trkpt lat="42.71754" lon="-0.50792">
        <ele>1879</ele>
        <time>2018-12-27T03:56:52Z</time>
      </trkpt>
      <trkpt lat="42.71753" lon="-0.50784">
        <ele>1883</ele>
        <time>2018-12-27T03:56:54Z</time>
      </trkpt>
      <trkpt lat="42.71761" lon="-0.50773">
        <ele>1888</ele>
        <time>2018-12-27T03:56:57Z</time>
      </trkpt>
      <trkpt lat="42.71759" lon="-0.50762">
        <ele>1893</ele>
        <time>2018-12-27T03:56:59Z</time>
      </trkpt>
      <trkpt lat="42.71767" lon="-0.50753">
        <ele>1897</ele>
        <time>2018-12-27T03:57:02Z</time>
      </trkpt>
      <trkpt lat="42.71777" lon="-0.5075">
        <ele>1897</ele>
        <time>2018-12-27T03:57:04Z</time>
      </trkpt>
      <trkpt lat="42.71785" lon="-0.50731">
        <ele>1912</ele>
        <time>2018-12-27T03:57:09Z</time>
      </trkpt>
      <trkpt lat="42.71784" lon="-0.50719">
        <ele>1919</ele>
        <time>2018-12-27T03:57:11Z</time>
      </trkpt>
      <trkpt lat="42.71786" lon="-0.50713">
        <ele>1924</ele>
        <time>2018-12-27T03:57:12Z</time>
      </trkpt>
      <trkpt lat="42.71796" lon="-0.50703">
        <ele>1931</ele>
        <time>2018-12-27T03:57:16Z</time>
      </trkpt>
      <trkpt lat="42.71805" lon="-0.50689">
        <ele>1938</ele>
        <time>2018-12-27T03:57:19Z</time>
      </trkpt>
      <trkpt lat="42.71808" lon="-0.50678">
        <ele>1944</ele>
        <time>2018-12-27T03:57:22Z</time>
      </trkpt>
      <trkpt lat="42.71799" lon="-0.50665">
        <ele>1951</ele>
        <time>2018-12-27T03:57:25Z</time>
      </trkpt>
      <trkpt lat="42.71795" lon="-0.50669">
        <ele>1950</ele>
        <time>2018-12-27T03:57:26Z</time>
      </trkpt>
      <trkpt lat="42.71796" lon="-0.50653">
        <ele>1957</ele>
        <time>2018-12-27T03:57:30Z</time>
      </trkpt>
      <trkpt lat="42.71789" lon="-0.50648">
        <ele>1961</ele>
        <time>2018-12-27T03:57:32Z</time>
      </trkpt>
      <trkpt lat="42.71795" lon="-0.50622">
        <ele>1974</ele>
        <time>2018-12-27T03:57:37Z</time>
      </trkpt>
      <trkpt lat="42.7179" lon="-0.50613">
        <ele>1979</ele>
        <time>2018-12-27T03:57:39Z</time>
      </trkpt>
      <trkpt lat="42.7179" lon="-0.50606">
        <ele>1984</ele>
        <time>2018-12-27T03:57:41Z</time>
      </trkpt>
      <trkpt lat="42.71799" lon="-0.50606">
        <ele>1984</ele>
        <time>2018-12-27T03:57:43Z</time>
      </trkpt>
      <trkpt lat="42.7179" lon="-0.50592">
        <ele>1993</ele>
        <time>2018-12-27T03:57:47Z</time>
      </trkpt>
      <trkpt lat="42.71784" lon="-0.50578">
        <ele>2001</ele>
        <time>2018-12-27T03:57:50Z</time>
      </trkpt>
      <trkpt lat="42.71777" lon="-0.50579">
        <ele>2000</ele>
        <time>2018-12-27T03:57:52Z</time>
      </trkpt>
      <trkpt lat="42.71769" lon="-0.50576">
        <ele>2002</ele>
        <time>2018-12-27T03:57:54Z</time>
      </trkpt>
      <trkpt lat="42.71765" lon="-0.50572">
        <ele>2004</ele>
        <time>2018-12-27T03:57:56Z</time>
      </trkpt>
      <trkpt lat="42.71766" lon="-0.50566">
        <ele>2007</ele>
        <time>2018-12-27T03:57:57Z</time>
      </trkpt>
      <trkpt lat="42.71777" lon="-0.50559">
        <ele>2011</ele>
        <time>2018-12-27T03:58:00Z</time>
      </trkpt>
      <trkpt lat="42.71789" lon="-0.50558">
        <ele>2012</ele>
        <time>2018-12-27T03:58:03Z</time>
      </trkpt>
      <trkpt lat="42.71788" lon="-0.50552">
        <ele>2016</ele>
        <time>2018-12-27T03:58:05Z</time>
      </trkpt>
      <trkpt lat="42.71783" lon="-0.50547">
        <ele>2018</ele>
        <time>2018-12-27T03:58:06Z</time>
      </trkpt>
      <trkpt lat="42.71769" lon="-0.50546">
        <ele>2018</ele>
        <time>2018-12-27T03:58:10Z</time>
      </trkpt>
      <trkpt lat="42.71773" lon="-0.50542">
        <ele>2021</ele>
        <time>2018-12-27T03:58:11Z</time>
      </trkpt>
      <trkpt lat="42.7177" lon="-0.50538">
        <ele>2024</ele>
        <time>2018-12-27T03:58:13Z</time>
      </trkpt>
      <trkpt lat="42.71764" lon="-0.50539">
        <ele>2023</ele>
        <time>2018-12-27T03:58:14Z</time>
      </trkpt>
      <trkpt lat="42.7175" lon="-0.50533">
        <ele>2025</ele>
        <time>2018-12-27T03:58:18Z</time>
      </trkpt>
      <trkpt lat="42.71754" lon="-0.50525">
        <ele>2031</ele>
        <time>2018-12-27T03:58:20Z</time>
      </trkpt>
      <trkpt lat="42.71758" lon="-0.5052">
        <ele>2035</ele>
        <time>2018-12-27T03:58:21Z</time>
      </trkpt>
      <trkpt lat="42.7175" lon="-0.50504">
        <ele>2044</ele>
        <time>2018-12-27T03:58:25Z</time>
      </trkpt>
      <trkpt lat="42.71748" lon="-0.50491">
        <ele>2052</ele>
        <time>2018-12-27T03:58:28Z</time>
      </trkpt>
      <trkpt lat="42.71752" lon="-0.50487">
        <ele>2055</ele>
        <time>2018-12-27T03:58:29Z</time>
      </trkpt>
      <trkpt lat="42.71753" lon="-0.50479">
        <ele>2061</ele>
        <time>2018-12-27T03:58:30Z</time>
      </trkpt>
      <trkpt lat="42.71758" lon="-0.50469">
        <ele>2070</ele>
        <time>2018-12-27T03:58:33Z</time>
      </trkpt>
      <trkpt lat="42.71745" lon="-0.50468">
        <ele>2066</ele>
        <time>2018-12-27T03:58:36Z</time>
      </trkpt>
      <trkpt lat="42.71729" lon="-0.50462">
        <ele>2069</ele>
        <time>2018-12-27T03:58:41Z</time>
      </trkpt>
      <trkpt lat="42.71724" lon="-0.50463">
        <ele>2068</ele>
        <time>2018-12-27T03:58:42Z</time>
      </trkpt>
      <trkpt lat="42.71716" lon="-0.50459">
        <ele>2067</ele>
        <time>2018-12-27T03:58:44Z</time>
      </trkpt>
      <trkpt lat="42.71701" lon="-0.50431">
        <ele>2076</ele>
        <time>2018-12-27T03:58:51Z</time>
      </trkpt>
      <trkpt lat="42.71696" lon="-0.50426">
        <ele>2076</ele>
        <time>2018-12-27T03:58:53Z</time>
      </trkpt>
      <trkpt lat="42.71691" lon="-0.50427">
        <ele>2073</ele>
        <time>2018-12-27T03:58:54Z</time>
      </trkpt>
      <trkpt lat="42.71699" lon="-0.50423">
        <ele>2080</ele>
        <time>2018-12-27T03:58:56Z</time>
      </trkpt>
      <trkpt lat="42.71699" lon="-0.50417">
        <ele>2083</ele>
        <time>2018-12-27T03:58:58Z</time>
      </trkpt>
      <trkpt lat="42.71708" lon="-0.50398">
        <ele>2098</ele>
        <time>2018-12-27T03:59:02Z</time>
      </trkpt>
      <trkpt lat="42.71704" lon="-0.50395">
        <ele>2097</ele>
        <time>2018-12-27T03:59:03Z</time>
      </trkpt>
      <trkpt lat="42.71708" lon="-0.50391">
        <ele>2102</ele>
        <time>2018-12-27T03:59:05Z</time>
      </trkpt>
      <trkpt lat="42.71713" lon="-0.50389">
        <ele>2105</ele>
        <time>2018-12-27T03:59:06Z</time>
      </trkpt>
      <trkpt lat="42.71718" lon="-0.50383">
        <ele>2110</ele>
        <time>2018-12-27T03:59:08Z</time>
      </trkpt>
      <trkpt lat="42.71717" lon="-0.50376">
        <ele>2112</ele>
        <time>2018-12-27T03:59:09Z</time>
      </trkpt>
      <trkpt lat="42.71723" lon="-0.50373">
        <ele>2115</ele>
        <time>2018-12-27T03:59:11Z</time>
      </trkpt>
      <trkpt lat="42.7172" lon="-0.5036">
        <ele>2119</ele>
        <time>2018-12-27T03:59:13Z</time>
      </trkpt>
      <trkpt lat="42.71723" lon="-0.50353">
        <ele>2122</ele>
        <time>2018-12-27T03:59:15Z</time>
      </trkpt>
      <trkpt lat="42.71725" lon="-0.50338">
        <ele>2127</ele>
        <time>2018-12-27T03:59:18Z</time>
      </trkpt>
      <trkpt lat="42.71725" lon="-0.50319">
        <ele>2131</ele>
        <time>2018-12-27T03:59:22Z</time>
      </trkpt>
      <trkpt lat="42.71723" lon="-0.50304">
        <ele>2134</ele>
        <time>2018-12-27T03:59:25Z</time>
      </trkpt>
      <trkpt lat="42.71725" lon="-0.50281">
        <ele>2138</ele>
        <time>2018-12-27T03:59:29Z</time>
      </trkpt>
      <trkpt lat="42.71719" lon="-0.50226">
        <ele>2145</ele>
        <time>2018-12-27T03:59:40Z</time>
      </trkpt>
      <trkpt lat="42.71722" lon="-0.50182">
        <ele>2150</ele>
        <time>2018-12-27T03:59:49Z</time>
      </trkpt>
      <trkpt lat="42.71718" lon="-0.50168">
        <ele>2152</ele>
        <time>2018-12-27T03:59:52Z</time>
      </trkpt>
      <trkpt lat="42.71719" lon="-0.50159">
        <ele>2154</ele>
        <time>2018-12-27T03:59:54Z</time>
      </trkpt>
      <trkpt lat="42.71716" lon="-0.50136">
        <ele>2158</ele>
        <time>2018-12-27T03:59:58Z</time>
      </trkpt>
      <trkpt lat="42.71701" lon="-0.50081">
        <ele>2168</ele>
        <time>2018-12-27T04:00:09Z</time>
      </trkpt>
      <trkpt lat="42.71698" lon="-0.50065">
        <ele>2170</ele>
        <time>2018-12-27T04:00:13Z</time>
      </trkpt>
      <trkpt lat="42.71694" lon="-0.50054">
        <ele>2172</ele>
        <time>2018-12-27T04:00:15Z</time>
      </trkpt>
      <trkpt lat="42.71692" lon="-0.50039">
        <ele>2175</ele>
        <time>2018-12-27T04:00:18Z</time>
      </trkpt>
      <trkpt lat="42.71687" lon="-0.50021">
        <ele>2180</ele>
        <time>2018-12-27T04:00:22Z</time>
      </trkpt>
      <trkpt lat="42.71674" lon="-0.49987">
        <ele>2188</ele>
        <time>2018-12-27T04:00:29Z</time>
      </trkpt>
      <trkpt lat="42.7167" lon="-0.49979">
        <ele>2190</ele>
        <time>2018-12-27T04:00:31Z</time>
      </trkpt>
      <trkpt lat="42.71667" lon="-0.49958">
        <ele>2195</ele>
        <time>2018-12-27T04:00:36Z</time>
      </trkpt>
      <trkpt lat="42.71657" lon="-0.49932">
        <ele>2203</ele>
        <time>2018-12-27T04:00:41Z</time>
      </trkpt>
      <trkpt lat="42.71647" lon="-0.49923">
        <ele>2208</ele>
        <time>2018-12-27T04:00:45Z</time>
      </trkpt>
      <trkpt lat="42.7165" lon="-0.49911">
        <ele>2212</ele>
        <time>2018-12-27T04:00:47Z</time>
      </trkpt>
      <trkpt lat="42.71648" lon="-0.49904">
        <ele>2215</ele>
        <time>2018-12-27T04:00:49Z</time>
      </trkpt>
      <trkpt lat="42.71649" lon="-0.49892">
        <ele>2219</ele>
        <time>2018-12-27T04:00:51Z</time>
      </trkpt>
      <trkpt lat="42.71647" lon="-0.49883">
        <ele>2222</ele>
        <time>2018-12-27T04:00:53Z</time>
      </trkpt>
      <trkpt lat="42.71646" lon="-0.49871">
        <ele>2226</ele>
        <time>2018-12-27T04:00:55Z</time>
      </trkpt>
      <trkpt lat="42.71643" lon="-0.49864">
        <ele>2229</ele>
        <time>2018-12-27T04:00:57Z</time>
      </trkpt>
      <trkpt lat="42.71637" lon="-0.49857">
        <ele>2231</ele>
        <time>2018-12-27T04:00:59Z</time>
      </trkpt>
      <trkpt lat="42.71633" lon="-0.49847">
        <ele>2233</ele>
        <time>2018-12-27T04:01:01Z</time>
      </trkpt>
      <trkpt lat="42.7163" lon="-0.49826">
        <ele>2238</ele>
        <time>2018-12-27T04:01:05Z</time>
      </trkpt>
      <trkpt lat="42.71625" lon="-0.49809">
        <ele>2241</ele>
        <time>2018-12-27T04:01:09Z</time>
      </trkpt>
      <trkpt lat="42.71622" lon="-0.49784">
        <ele>2245</ele>
        <time>2018-12-27T04:01:14Z</time>
      </trkpt>
      <trkpt lat="42.71626" lon="-0.49768">
        <ele>2248</ele>
        <time>2018-12-27T04:01:17Z</time>
      </trkpt>
      <trkpt lat="42.71625" lon="-0.49758">
        <ele>2249</ele>
        <time>2018-12-27T04:01:19Z</time>
      </trkpt>
      <trkpt lat="42.71621" lon="-0.49745">
        <ele>2250</ele>
        <time>2018-12-27T04:01:22Z</time>
      </trkpt>
      <trkpt lat="42.71613" lon="-0.4973">
        <ele>2252</ele>
        <time>2018-12-27T04:01:25Z</time>
      </trkpt>
      <trkpt lat="42.71603" lon="-0.49692">
        <ele>2257</ele>
        <time>2018-12-27T04:01:33Z</time>
      </trkpt>
      <trkpt lat="42.716" lon="-0.49624">
        <ele>2266</ele>
        <time>2018-12-27T04:01:47Z</time>
      </trkpt>
      <trkpt lat="42.71595" lon="-0.49581">
        <ele>2270</ele>
        <time>2018-12-27T04:01:55Z</time>
      </trkpt>
      <trkpt lat="42.71596" lon="-0.49542">
        <ele>2277</ele>
        <time>2018-12-27T04:02:03Z</time>
      </trkpt>
      <trkpt lat="42.7159" lon="-0.495">
        <ele>2283</ele>
        <time>2018-12-27T04:02:11Z</time>
      </trkpt>
      <trkpt lat="42.71585" lon="-0.49491">
        <ele>2284</ele>
        <time>2018-12-27T04:02:13Z</time>
      </trkpt>
      <trkpt lat="42.7158" lon="-0.49467">
        <ele>2288</ele>
        <time>2018-12-27T04:02:18Z</time>
      </trkpt>
      <trkpt lat="42.71584" lon="-0.49417">
        <ele>2297</ele>
        <time>2018-12-27T04:02:28Z</time>
      </trkpt>
      <trkpt lat="42.71581" lon="-0.49401">
        <ele>2299</ele>
        <time>2018-12-27T04:02:31Z</time>
      </trkpt>
      <trkpt lat="42.71577" lon="-0.49358">
        <ele>2304</ele>
        <time>2018-12-27T04:02:40Z</time>
      </trkpt>
      <trkpt lat="42.71579" lon="-0.49351">
        <ele>2305</ele>
        <time>2018-12-27T04:02:41Z</time>
      </trkpt>
      <trkpt lat="42.71578" lon="-0.49328">
        <ele>2308</ele>
        <time>2018-12-27T04:02:46Z</time>
      </trkpt>
      <trkpt lat="42.7158" lon="-0.49312">
        <ele>2311</ele>
        <time>2018-12-27T04:02:49Z</time>
      </trkpt>
      <trkpt lat="42.71583" lon="-0.49297">
        <ele>2314</ele>
        <time>2018-12-27T04:02:52Z</time>
      </trkpt>
      <trkpt lat="42.71584" lon="-0.49288">
        <ele>2316</ele>
        <time>2018-12-27T04:02:54Z</time>
      </trkpt>
      <trkpt lat="42.71576" lon="-0.49266">
        <ele>2318</ele>
        <time>2018-12-27T04:02:59Z</time>
      </trkpt>
      <trkpt lat="42.71584" lon="-0.4925">
        <ele>2322</ele>
        <time>2018-12-27T04:03:03Z</time>
      </trkpt>
      <trkpt lat="42.71587" lon="-0.49237">
        <ele>2324</ele>
        <time>2018-12-27T04:03:05Z</time>
      </trkpt>
      <trkpt lat="42.71585" lon="-0.49222">
        <ele>2327</ele>
        <time>2018-12-27T04:03:08Z</time>
      </trkpt>
      <trkpt lat="42.71586" lon="-0.49215">
        <ele>2329</ele>
        <time>2018-12-27T04:03:10Z</time>
      </trkpt>
      <trkpt lat="42.71595" lon="-0.492">
        <ele>2333</ele>
        <time>2018-12-27T04:03:14Z</time>
      </trkpt>
      <trkpt lat="42.71598" lon="-0.49145">
        <ele>2346</ele>
        <time>2018-12-27T04:03:24Z</time>
      </trkpt>
      <trkpt lat="42.71598" lon="-0.49116">
        <ele>2350</ele>
        <time>2018-12-27T04:03:30Z</time>
      </trkpt>
      <trkpt lat="42.71603" lon="-0.491">
        <ele>2354</ele>
        <time>2018-12-27T04:03:33Z</time>
      </trkpt>
      <trkpt lat="42.71605" lon="-0.49076">
        <ele>2359</ele>
        <time>2018-12-27T04:03:38Z</time>
      </trkpt>
      <trkpt lat="42.71604" lon="-0.4906">
        <ele>2362</ele>
        <time>2018-12-27T04:03:41Z</time>
      </trkpt>
      <trkpt lat="42.7161" lon="-0.49047">
        <ele>2366</ele>
        <time>2018-12-27T04:03:44Z</time>
      </trkpt>
      <trkpt lat="42.71607" lon="-0.49023">
        <ele>2371</ele>
        <time>2018-12-27T04:03:49Z</time>
      </trkpt>
      <trkpt lat="42.71609" lon="-0.49011">
        <ele>2374</ele>
        <time>2018-12-27T04:03:52Z</time>
      </trkpt>
      <trkpt lat="42.71611" lon="-0.48983">
        <ele>2380</ele>
        <time>2018-12-27T04:03:57Z</time>
      </trkpt>
      <trkpt lat="42.71609" lon="-0.48975">
        <ele>2382</ele>
        <time>2018-12-27T04:03:59Z</time>
      </trkpt>
      <trkpt lat="42.7161" lon="-0.4896">
        <ele>2386</ele>
        <time>2018-12-27T04:04:02Z</time>
      </trkpt>
      <trkpt lat="42.71606" lon="-0.48929">
        <ele>2392</ele>
        <time>2018-12-27T04:04:08Z</time>
      </trkpt>
      <trkpt lat="42.71608" lon="-0.48921">
        <ele>2394</ele>
        <time>2018-12-27T04:04:10Z</time>
      </trkpt>
      <trkpt lat="42.71608" lon="-0.4891">
        <ele>2396</ele>
        <time>2018-12-27T04:04:12Z</time>
      </trkpt>
      <trkpt lat="42.71605" lon="-0.48895">
        <ele>2398</ele>
        <time>2018-12-27T04:04:15Z</time>
      </trkpt>
      <trkpt lat="42.71609" lon="-0.48882">
        <ele>2401</ele>
        <time>2018-12-27T04:04:18Z</time>
      </trkpt>
      <trkpt lat="42.71607" lon="-0.48874">
        <ele>2402</ele>
        <time>2018-12-27T04:04:19Z</time>
      </trkpt>
      <trkpt lat="42.71609" lon="-0.48864">
        <ele>2404</ele>
        <time>2018-12-27T04:04:21Z</time>
      </trkpt>
      <trkpt lat="42.7161" lon="-0.48848">
        <ele>2407</ele>
        <time>2018-12-27T04:04:24Z</time>
      </trkpt>
      <trkpt lat="42.71608" lon="-0.48812">
        <ele>2416</ele>
        <time>2018-12-27T04:04:31Z</time>
      </trkpt>
      <trkpt lat="42.71613" lon="-0.48783">
        <ele>2424</ele>
        <time>2018-12-27T04:04:37Z</time>
      </trkpt>
      <trkpt lat="42.71609" lon="-0.48767">
        <ele>2426</ele>
        <time>2018-12-27T04:04:41Z</time>
      </trkpt>
      <trkpt lat="42.7161" lon="-0.48751">
        <ele>2429</ele>
        <time>2018-12-27T04:04:44Z</time>
      </trkpt>
      <trkpt lat="42.71613" lon="-0.48737">
        <ele>2434</ele>
        <time>2018-12-27T04:04:47Z</time>
      </trkpt>
      <trkpt lat="42.71611" lon="-0.48724">
        <ele>2437</ele>
        <time>2018-12-27T04:04:49Z</time>
      </trkpt>
      <trkpt lat="42.71612" lon="-0.48718">
        <ele>2439</ele>
        <time>2018-12-27T04:04:50Z</time>
      </trkpt>
      <trkpt lat="42.7161" lon="-0.48707">
        <ele>2442</ele>
        <time>2018-12-27T04:04:53Z</time>
      </trkpt>
      <trkpt lat="42.71603" lon="-0.48692">
        <ele>2444</ele>
        <time>2018-12-27T04:04:56Z</time>
      </trkpt>
      <trkpt lat="42.71599" lon="-0.48678">
        <ele>2447</ele>
        <time>2018-12-27T04:04:59Z</time>
      </trkpt>
      <trkpt lat="42.71595" lon="-0.48673">
        <ele>2447</ele>
        <time>2018-12-27T04:05:00Z</time>
      </trkpt>
      <trkpt lat="42.71594" lon="-0.48649">
        <ele>2454</ele>
        <time>2018-12-27T04:05:05Z</time>
      </trkpt>
      <trkpt lat="42.71583" lon="-0.48599">
        <ele>2467</ele>
        <time>2018-12-27T04:05:15Z</time>
      </trkpt>
      <trkpt lat="42.71576" lon="-0.48594">
        <ele>2469</ele>
        <time>2018-12-27T04:05:17Z</time>
      </trkpt>
      <trkpt lat="42.7157" lon="-0.48581">
        <ele>2472</ele>
        <time>2018-12-27T04:05:20Z</time>
      </trkpt>
      <trkpt lat="42.7157" lon="-0.48549">
        <ele>2482</ele>
        <time>2018-12-27T04:05:27Z</time>
      </trkpt>
      <trkpt lat="42.71559" lon="-0.48525">
        <ele>2487</ele>
        <time>2018-12-27T04:05:32Z</time>
      </trkpt>
      <trkpt lat="42.71553" lon="-0.48505">
        <ele>2491</ele>
        <time>2018-12-27T04:05:36Z</time>
      </trkpt>
      <trkpt lat="42.71551" lon="-0.48488">
        <ele>2495</ele>
        <time>2018-12-27T04:05:40Z</time>
      </trkpt>
      <trkpt lat="42.71552" lon="-0.48481">
        <ele>2496</ele>
        <time>2018-12-27T04:05:41Z</time>
      </trkpt>
      <trkpt lat="42.71546" lon="-0.48477">
        <ele>2497</ele>
        <time>2018-12-27T04:05:43Z</time>
      </trkpt>
      <trkpt lat="42.71542" lon="-0.48466">
        <ele>2499</ele>
        <time>2018-12-27T04:05:45Z</time>
      </trkpt>
      <trkpt lat="42.71541" lon="-0.48458">
        <ele>2501</ele>
        <time>2018-12-27T04:05:47Z</time>
      </trkpt>
      <trkpt lat="42.71533" lon="-0.48434">
        <ele>2507</ele>
        <time>2018-12-27T04:05:52Z</time>
      </trkpt>
      <trkpt lat="42.71522" lon="-0.48411">
        <ele>2512</ele>
        <time>2018-12-27T04:05:57Z</time>
      </trkpt>
      <trkpt lat="42.71516" lon="-0.48399">
        <ele>2513</ele>
        <time>2018-12-27T04:06:00Z</time>
      </trkpt>
      <trkpt lat="42.715" lon="-0.48376">
        <ele>2516</ele>
        <time>2018-12-27T04:06:07Z</time>
      </trkpt>
      <trkpt lat="42.71486" lon="-0.48347">
        <ele>2518</ele>
        <time>2018-12-27T04:06:13Z</time>
      </trkpt>
      <trkpt lat="42.71476" lon="-0.48324">
        <ele>2520</ele>
        <time>2018-12-27T04:06:19Z</time>
      </trkpt>
      <trkpt lat="42.71472" lon="-0.48295">
        <ele>2526</ele>
        <time>2018-12-27T04:06:24Z</time>
      </trkpt>
      <trkpt lat="42.7146" lon="-0.48278">
        <ele>2528</ele>
        <time>2018-12-27T04:06:29Z</time>
      </trkpt>
      <trkpt lat="42.71449" lon="-0.48266">
        <ele>2527</ele>
        <time>2018-12-27T04:06:33Z</time>
      </trkpt>
      <trkpt lat="42.71443" lon="-0.48262">
        <ele>2526</ele>
        <time>2018-12-27T04:06:35Z</time>
      </trkpt>
      <trkpt lat="42.71428" lon="-0.48244">
        <ele>2524</ele>
        <time>2018-12-27T04:06:40Z</time>
      </trkpt>
      <trkpt lat="42.71425" lon="-0.48236">
        <ele>2523</ele>
        <time>2018-12-27T04:06:42Z</time>
      </trkpt>
      <trkpt lat="42.71412" lon="-0.48228">
        <ele>2518</ele>
        <time>2018-12-27T04:06:45Z</time>
      </trkpt>
      <trkpt lat="42.71402" lon="-0.48224">
        <ele>2514</ele>
        <time>2018-12-27T04:06:48Z</time>
      </trkpt>
      <trkpt lat="42.71386" lon="-0.48234">
        <ele>2506</ele>
        <time>2018-12-27T04:06:53Z</time>
      </trkpt>
      <trkpt lat="42.71385" lon="-0.48244">
        <ele>2506</ele>
        <time>2018-12-27T04:06:55Z</time>
      </trkpt>
      <trkpt lat="42.7138" lon="-0.48236">
        <ele>2504</ele>
        <time>2018-12-27T04:06:57Z</time>
      </trkpt>
      <trkpt lat="42.71372" lon="-0.48225">
        <ele>2500</ele>
        <time>2018-12-27T04:07:00Z</time>
      </trkpt>
      <trkpt lat="42.71355" lon="-0.48185">
        <ele>2493</ele>
        <time>2018-12-27T04:07:09Z</time>
      </trkpt>
      <trkpt lat="42.71352" lon="-0.4817">
        <ele>2491</ele>
        <time>2018-12-27T04:07:12Z</time>
      </trkpt>
      <trkpt lat="42.71352" lon="-0.48157">
        <ele>2490</ele>
        <time>2018-12-27T04:07:15Z</time>
      </trkpt>
      <trkpt lat="42.7135" lon="-0.48151">
        <ele>2488</ele>
        <time>2018-12-27T04:07:16Z</time>
      </trkpt>
      <trkpt lat="42.71345" lon="-0.48143">
        <ele>2485</ele>
        <time>2018-12-27T04:07:18Z</time>
      </trkpt>
      <trkpt lat="42.71345" lon="-0.48134">
        <ele>2484</ele>
        <time>2018-12-27T04:07:20Z</time>
      </trkpt>
      <trkpt lat="42.71342" lon="-0.48122">
        <ele>2483</ele>
        <time>2018-12-27T04:07:22Z</time>
      </trkpt>
      <trkpt lat="42.7135" lon="-0.481">
        <ele>2484</ele>
        <time>2018-12-27T04:07:27Z</time>
      </trkpt>
      <trkpt lat="42.71349" lon="-0.48089">
        <ele>2484</ele>
        <time>2018-12-27T04:07:29Z</time>
      </trkpt>
      <trkpt lat="42.71347" lon="-0.48081">
        <ele>2483</ele>
        <time>2018-12-27T04:07:31Z</time>
      </trkpt>
      <trkpt lat="42.71348" lon="-0.48074">
        <ele>2484</ele>
        <time>2018-12-27T04:07:32Z</time>
      </trkpt>
      <trkpt lat="42.71337" lon="-0.48048">
        <ele>2483</ele>
        <time>2018-12-27T04:07:38Z</time>
      </trkpt>
      <trkpt lat="42.71321" lon="-0.48021">
        <ele>2483</ele>
        <time>2018-12-27T04:07:45Z</time>
      </trkpt>
      <trkpt lat="42.71318" lon="-0.48014">
        <ele>2483</ele>
        <time>2018-12-27T04:07:46Z</time>
      </trkpt>
      <trkpt lat="42.71316" lon="-0.48002">
        <ele>2484</ele>
        <time>2018-12-27T04:07:49Z</time>
      </trkpt>
      <trkpt lat="42.71317" lon="-0.47982">
        <ele>2487</ele>
        <time>2018-12-27T04:07:53Z</time>
      </trkpt>
      <trkpt lat="42.7132" lon="-0.47973">
        <ele>2489</ele>
        <time>2018-12-27T04:07:55Z</time>
      </trkpt>
      <trkpt lat="42.7132" lon="-0.47967">
        <ele>2490</ele>
        <time>2018-12-27T04:07:56Z</time>
      </trkpt>
      <trkpt lat="42.71325" lon="-0.47945">
        <ele>2495</ele>
        <time>2018-12-27T04:08:00Z</time>
      </trkpt>
      <trkpt lat="42.71323" lon="-0.47934">
        <ele>2497</ele>
        <time>2018-12-27T04:08:02Z</time>
      </trkpt>
      <trkpt lat="42.71327" lon="-0.47924">
        <ele>2499</ele>
        <time>2018-12-27T04:08:05Z</time>
      </trkpt>
      <trkpt lat="42.71336" lon="-0.47913">
        <ele>2501</ele>
        <time>2018-12-27T04:08:08Z</time>
      </trkpt>
      <trkpt lat="42.71339" lon="-0.47903">
        <ele>2504</ele>
        <time>2018-12-27T04:08:10Z</time>
      </trkpt>
      <trkpt lat="42.71341" lon="-0.47875">
        <ele>2510</ele>
        <time>2018-12-27T04:08:16Z</time>
      </trkpt>
      <trkpt lat="42.71331" lon="-0.47832">
        <ele>2518</ele>
        <time>2018-12-27T04:08:24Z</time>
      </trkpt>
      <trkpt lat="42.71329" lon="-0.47803">
        <ele>2523</ele>
        <time>2018-12-27T04:08:30Z</time>
      </trkpt>
      <trkpt lat="42.7132" lon="-0.47787">
        <ele>2527</ele>
        <time>2018-12-27T04:08:34Z</time>
      </trkpt>
      <trkpt lat="42.71313" lon="-0.47782">
        <ele>2528</ele>
        <time>2018-12-27T04:08:36Z</time>
      </trkpt>
      <trkpt lat="42.71298" lon="-0.47778">
        <ele>2530</ele>
        <time>2018-12-27T04:08:40Z</time>
      </trkpt>
      <trkpt lat="42.71292" lon="-0.47771">
        <ele>2533</ele>
        <time>2018-12-27T04:08:43Z</time>
      </trkpt>
      <trkpt lat="42.71285" lon="-0.47768">
        <ele>2534</ele>
        <time>2018-12-27T04:08:45Z</time>
      </trkpt>
      <trkpt lat="42.71282" lon="-0.47761">
        <ele>2535</ele>
        <time>2018-12-27T04:08:46Z</time>
      </trkpt>
      <trkpt lat="42.71268" lon="-0.47751">
        <ele>2538</ele>
        <time>2018-12-27T04:08:50Z</time>
      </trkpt>
      <trkpt lat="42.71253" lon="-0.47729">
        <ele>2544</ele>
        <time>2018-12-27T04:08:56Z</time>
      </trkpt>
      <trkpt lat="42.71245" lon="-0.47704">
        <ele>2550</ele>
        <time>2018-12-27T04:09:02Z</time>
      </trkpt>
      <trkpt lat="42.71224" lon="-0.47654">
        <ele>2563</ele>
        <time>2018-12-27T04:09:13Z</time>
      </trkpt>
      <trkpt lat="42.71222" lon="-0.47645">
        <ele>2565</ele>
        <time>2018-12-27T04:09:15Z</time>
      </trkpt>
      <trkpt lat="42.71218" lon="-0.47634">
        <ele>2567</ele>
        <time>2018-12-27T04:09:17Z</time>
      </trkpt>
      <trkpt lat="42.71206" lon="-0.47616">
        <ele>2571</ele>
        <time>2018-12-27T04:09:22Z</time>
      </trkpt>
      <trkpt lat="42.71205" lon="-0.47608">
        <ele>2573</ele>
        <time>2018-12-27T04:09:23Z</time>
      </trkpt>
      <trkpt lat="42.71186" lon="-0.47582">
        <ele>2575</ele>
        <time>2018-12-27T04:09:30Z</time>
      </trkpt>
      <trkpt lat="42.71185" lon="-0.47575">
        <ele>2578</ele>
        <time>2018-12-27T04:09:32Z</time>
      </trkpt>
      <trkpt lat="42.71169" lon="-0.4754">
        <ele>2585</ele>
        <time>2018-12-27T04:09:40Z</time>
      </trkpt>
      <trkpt lat="42.71167" lon="-0.47526">
        <ele>2589</ele>
        <time>2018-12-27T04:09:43Z</time>
      </trkpt>
      <trkpt lat="42.71162" lon="-0.47511">
        <ele>2593</ele>
        <time>2018-12-27T04:09:46Z</time>
      </trkpt>
      <trkpt lat="42.71152" lon="-0.47499">
        <ele>2594</ele>
        <time>2018-12-27T04:09:49Z</time>
      </trkpt>
      <trkpt lat="42.71147" lon="-0.47486">
        <ele>2597</ele>
        <time>2018-12-27T04:09:52Z</time>
      </trkpt>
      <trkpt lat="42.71139" lon="-0.47475">
        <ele>2598</ele>
        <time>2018-12-27T04:09:56Z</time>
      </trkpt>
      <trkpt lat="42.71128" lon="-0.47452">
        <ele>2601</ele>
        <time>2018-12-27T04:10:01Z</time>
      </trkpt>
      <trkpt lat="42.71134" lon="-0.47439">
        <ele>2606</ele>
        <time>2018-12-27T04:10:04Z</time>
      </trkpt>
      <trkpt lat="42.71139" lon="-0.47438">
        <ele>2608</ele>
        <time>2018-12-27T04:10:05Z</time>
      </trkpt>
      <trkpt lat="42.71143" lon="-0.47431">
        <ele>2611</ele>
        <time>2018-12-27T04:10:07Z</time>
      </trkpt>
      <trkpt lat="42.71144" lon="-0.47415">
        <ele>2616</ele>
        <time>2018-12-27T04:10:10Z</time>
      </trkpt>
      <trkpt lat="42.71148" lon="-0.47411">
        <ele>2620</ele>
        <time>2018-12-27T04:10:11Z</time>
      </trkpt>
      <trkpt lat="42.7115" lon="-0.47403">
        <ele>2624</ele>
        <time>2018-12-27T04:10:13Z</time>
      </trkpt>
      <trkpt lat="42.71155" lon="-0.47398">
        <ele>2628</ele>
        <time>2018-12-27T04:10:15Z</time>
      </trkpt>
      <trkpt lat="42.7116" lon="-0.47389">
        <ele>2634</ele>
        <time>2018-12-27T04:10:17Z</time>
      </trkpt>
      <trkpt lat="42.71164" lon="-0.47385">
        <ele>2637</ele>
        <time>2018-12-27T04:10:18Z</time>
      </trkpt>
      <trkpt lat="42.71167" lon="-0.47378">
        <ele>2642</ele>
        <time>2018-12-27T04:10:20Z</time>
      </trkpt>
      <trkpt lat="42.71173" lon="-0.47372">
        <ele>2646</ele>
        <time>2018-12-27T04:10:22Z</time>
      </trkpt>
      <trkpt lat="42.71174" lon="-0.47362">
        <ele>2651</ele>
        <time>2018-12-27T04:10:24Z</time>
      </trkpt>
      <trkpt lat="42.71179" lon="-0.47358">
        <ele>2653</ele>
        <time>2018-12-27T04:10:25Z</time>
      </trkpt>
      <trkpt lat="42.71189" lon="-0.47342">
        <ele>2661</ele>
        <time>2018-12-27T04:10:29Z</time>
      </trkpt>
      <trkpt lat="42.71195" lon="-0.47337">
        <ele>2665</ele>
        <time>2018-12-27T04:10:31Z</time>
      </trkpt>
      <trkpt lat="42.712" lon="-0.47335">
        <ele>2667</ele>
        <time>2018-12-27T04:10:33Z</time>
      </trkpt>
      <trkpt lat="42.71206" lon="-0.47329">
        <ele>2671</ele>
        <time>2018-12-27T04:10:35Z</time>
      </trkpt>
      <trkpt lat="42.71213" lon="-0.47328">
        <ele>2673</ele>
        <time>2018-12-27T04:10:37Z</time>
      </trkpt>
      <trkpt lat="42.71218" lon="-0.47322">
        <ele>2677</ele>
        <time>2018-12-27T04:10:38Z</time>
      </trkpt>
      <trkpt lat="42.71223" lon="-0.4732">
        <ele>2679</ele>
        <time>2018-12-27T04:10:40Z</time>
      </trkpt>
      <trkpt lat="42.71236" lon="-0.47312">
        <ele>2685</ele>
        <time>2018-12-27T04:10:43Z</time>
      </trkpt>
      <trkpt lat="42.71251" lon="-0.47297">
        <ele>2694</ele>
        <time>2018-12-27T04:10:48Z</time>
      </trkpt>
      <trkpt lat="42.71251" lon="-0.47291">
        <ele>2696</ele>
        <time>2018-12-27T04:10:50Z</time>
      </trkpt>
      <trkpt lat="42.71266" lon="-0.47282">
        <ele>2704</ele>
        <time>2018-12-27T04:10:54Z</time>
      </trkpt>
      <trkpt lat="42.71275" lon="-0.47274">
        <ele>2711</ele>
        <time>2018-12-27T04:10:57Z</time>
      </trkpt>
      <trkpt lat="42.71288" lon="-0.47269">
        <ele>2717</ele>
        <time>2018-12-27T04:11:01Z</time>
      </trkpt>
      <trkpt lat="42.7129" lon="-0.47263">
        <ele>2721</ele>
        <time>2018-12-27T04:11:02Z</time>
      </trkpt>
      <trkpt lat="42.71309" lon="-0.47252">
        <ele>2731</ele>
        <time>2018-12-27T04:11:07Z</time>
      </trkpt>
      <trkpt lat="42.71306" lon="-0.47237">
        <ele>2738</ele>
        <time>2018-12-27T04:11:10Z</time>
      </trkpt>
      <trkpt lat="42.71334" lon="-0.47213">
        <ele>2758</ele>
        <time>2018-12-27T04:11:19Z</time>
      </trkpt>
      <trkpt lat="42.71338" lon="-0.47203">
        <ele>2764</ele>
        <time>2018-12-27T04:11:21Z</time>
      </trkpt>
      <trkpt lat="42.71347" lon="-0.47197">
        <ele>2769</ele>
        <time>2018-12-27T04:11:24Z</time>
      </trkpt>
      <trkpt lat="42.71363" lon="-0.47192">
        <ele>2776</ele>
        <time>2018-12-27T04:11:28Z</time>
      </trkpt>
      <trkpt lat="42.71368" lon="-0.47192">
        <ele>2778</ele>
        <time>2018-12-27T04:11:30Z</time>
      </trkpt>
      <trkpt lat="42.71368" lon="-0.47186">
        <ele>2781</ele>
        <time>2018-12-27T04:11:31Z</time>
      </trkpt>
      <trkpt lat="42.71377" lon="-0.47175">
        <ele>2790</ele>
        <time>2018-12-27T04:11:34Z</time>
      </trkpt>
      <trkpt lat="42.71382" lon="-0.47171">
        <ele>2795</ele>
        <time>2018-12-27T04:11:36Z</time>
      </trkpt>
      <trkpt lat="42.71387" lon="-0.47157">
        <ele>2806</ele>
        <time>2018-12-27T04:11:39Z</time>
      </trkpt>
      <trkpt lat="42.71391" lon="-0.47151">
        <ele>2811</ele>
        <time>2018-12-27T04:11:41Z</time>
      </trkpt>
      <trkpt lat="42.71396" lon="-0.47151">
        <ele>2813</ele>
        <time>2018-12-27T04:11:42Z</time>
      </trkpt>
      <trkpt lat="42.71405" lon="-0.4714">
        <ele>2824</ele>
        <time>2018-12-27T04:11:45Z</time>
      </trkpt>
      <trkpt lat="42.71409" lon="-0.47144">
        <ele>2824</ele>
        <time>2018-12-27T04:11:47Z</time>
      </trkpt>
      <trkpt lat="42.71411" lon="-0.47138">
        <ele>2828</ele>
        <time>2018-12-27T04:11:48Z</time>
      </trkpt>
      <trkpt lat="42.7142" lon="-0.47127">
        <ele>2839</ele>
        <time>2018-12-27T04:11:51Z</time>
      </trkpt>
      <trkpt lat="42.71428" lon="-0.4712">
        <ele>2846</ele>
        <time>2018-12-27T04:11:54Z</time>
      </trkpt>
      <trkpt lat="42.71427" lon="-0.47113">
        <ele>2850</ele>
        <time>2018-12-27T04:11:55Z</time>
      </trkpt>
      <trkpt lat="42.7143" lon="-0.47107">
        <ele>2854</ele>
        <time>2018-12-27T04:11:56Z</time>
      </trkpt>
      <trkpt lat="42.71434" lon="-0.471">
        <ele>2859</ele>
        <time>2018-12-27T04:11:58Z</time>
      </trkpt>
      <trkpt lat="42.71446" lon="-0.4709">
        <ele>2865</ele>
        <time>2018-12-27T04:12:02Z</time>
      </trkpt>
      <trkpt lat="42.71446" lon="-0.47084">
        <ele>2867</ele>
        <time>2018-12-27T04:12:03Z</time>
      </trkpt>
      <trkpt lat="42.7144" lon="-0.47065">
        <ele>2860</ele>
        <time>2018-12-27T04:12:07Z</time>
      </trkpt>
      <trkpt lat="42.71435" lon="-0.47063">
        <ele>2860</ele>
        <time>2018-12-27T04:12:09Z</time>
      </trkpt>
      <trkpt lat="42.71431" lon="-0.4706">
        <ele>2861</ele>
        <time>2018-12-27T04:12:10Z</time>
      </trkpt>
      <trkpt lat="42.71426" lon="-0.47061">
        <ele>2863</ele>
        <time>2018-12-27T04:12:11Z</time>
      </trkpt>
      <trkpt lat="42.71406" lon="-0.47045">
        <ele>2861</ele>
        <time>2018-12-27T04:12:18Z</time>
      </trkpt>
      <trkpt lat="42.71401" lon="-0.47045">
        <ele>2859</ele>
        <time>2018-12-27T04:12:19Z</time>
      </trkpt>
      <trkpt lat="42.71383" lon="-0.4704">
        <ele>2854</ele>
        <time>2018-12-27T04:12:24Z</time>
      </trkpt>
      <trkpt lat="42.71375" lon="-0.47039">
        <ele>2850</ele>
        <time>2018-12-27T04:12:26Z</time>
      </trkpt>
      <trkpt lat="42.71369" lon="-0.47025">
        <ele>2849</ele>
        <time>2018-12-27T04:12:29Z</time>
      </trkpt>
      <trkpt lat="42.71363" lon="-0.47022">
        <ele>2846</ele>
        <time>2018-12-27T04:12:31Z</time>
      </trkpt>
      <trkpt lat="42.71364" lon="-0.47013">
        <ele>2844</ele>
        <time>2018-12-27T04:12:33Z</time>
      </trkpt>
      <trkpt lat="42.71368" lon="-0.47006">
        <ele>2843</ele>
        <time>2018-12-27T04:12:35Z</time>
      </trkpt>
      <trkpt lat="42.71362" lon="-0.47002">
        <ele>2840</ele>
        <time>2018-12-27T04:12:36Z</time>
      </trkpt>
      <trkpt lat="42.71356" lon="-0.47001">
        <ele>2837</ele>
        <time>2018-12-27T04:12:38Z</time>
      </trkpt>
      <trkpt lat="42.71361" lon="-0.46996">
        <ele>2837</ele>
        <time>2018-12-27T04:12:40Z</time>
      </trkpt>
      <trkpt lat="42.71358" lon="-0.46989">
        <ele>2831</ele>
        <time>2018-12-27T04:12:41Z</time>
      </trkpt>
      <trkpt lat="42.71362" lon="-0.46981">
        <ele>2827</ele>
        <time>2018-12-27T04:12:43Z</time>
      </trkpt>
      <trkpt lat="42.71354" lon="-0.46979">
        <ele>2823</ele>
        <time>2018-12-27T04:12:46Z</time>
      </trkpt>
      <trkpt lat="42.71354" lon="-0.46969">
        <ele>2818</ele>
        <time>2018-12-27T04:12:47Z</time>
      </trkpt>
      <trkpt lat="42.71356" lon="-0.46962">
        <ele>2815</ele>
        <time>2018-12-27T04:12:49Z</time>
      </trkpt>
      <trkpt lat="42.71353" lon="-0.46956">
        <ele>2811</ele>
        <time>2018-12-27T04:12:50Z</time>
      </trkpt>
      <trkpt lat="42.71347" lon="-0.4696">
        <ele>2811</ele>
        <time>2018-12-27T04:12:52Z</time>
      </trkpt>
      <trkpt lat="42.71338" lon="-0.46956">
        <ele>2807</ele>
        <time>2018-12-27T04:12:55Z</time>
      </trkpt>
      <trkpt lat="42.71348" lon="-0.46945">
        <ele>2805</ele>
        <time>2018-12-27T04:12:58Z</time>
      </trkpt>
      <trkpt lat="42.71341" lon="-0.46944">
        <ele>2802</ele>
        <time>2018-12-27T04:13:00Z</time>
      </trkpt>
      <trkpt lat="42.71346" lon="-0.46937">
        <ele>2801</ele>
        <time>2018-12-27T04:13:02Z</time>
      </trkpt>
      <trkpt lat="42.71333" lon="-0.46922">
        <ele>2791</ele>
        <time>2018-12-27T04:13:06Z</time>
      </trkpt>
      <trkpt lat="42.71328" lon="-0.4692">
        <ele>2789</ele>
        <time>2018-12-27T04:13:08Z</time>
      </trkpt>
      <trkpt lat="42.71321" lon="-0.4691">
        <ele>2783</ele>
        <time>2018-12-27T04:13:11Z</time>
      </trkpt>
      <trkpt lat="42.71315" lon="-0.46908">
        <ele>2781</ele>
        <time>2018-12-27T04:13:12Z</time>
      </trkpt>
      <trkpt lat="42.71298" lon="-0.46898">
        <ele>2772</ele>
        <time>2018-12-27T04:13:17Z</time>
      </trkpt>
      <trkpt lat="42.71293" lon="-0.46899">
        <ele>2771</ele>
        <time>2018-12-27T04:13:19Z</time>
      </trkpt>
      <trkpt lat="42.71288" lon="-0.46886">
        <ele>2764</ele>
        <time>2018-12-27T04:13:21Z</time>
      </trkpt>
      <trkpt lat="42.71281" lon="-0.46885">
        <ele>2762</ele>
        <time>2018-12-27T04:13:23Z</time>
      </trkpt>
      <trkpt lat="42.71258" lon="-0.46874">
        <ele>2753</ele>
        <time>2018-12-27T04:13:30Z</time>
      </trkpt>
      <trkpt lat="42.71259" lon="-0.46867">
        <ele>2751</ele>
        <time>2018-12-27T04:13:31Z</time>
      </trkpt>
      <trkpt lat="42.71253" lon="-0.46862">
        <ele>2748</ele>
        <time>2018-12-27T04:13:33Z</time>
      </trkpt>
      <trkpt lat="42.7125" lon="-0.46856">
        <ele>2746</ele>
        <time>2018-12-27T04:13:34Z</time>
      </trkpt>
      <trkpt lat="42.71245" lon="-0.46853">
        <ele>2743</ele>
        <time>2018-12-27T04:13:36Z</time>
      </trkpt>
      <trkpt lat="42.71243" lon="-0.46843">
        <ele>2739</ele>
        <time>2018-12-27T04:13:38Z</time>
      </trkpt>
      <trkpt lat="42.71244" lon="-0.46833">
        <ele>2736</ele>
        <time>2018-12-27T04:13:40Z</time>
      </trkpt>
      <trkpt lat="42.71235" lon="-0.46823">
        <ele>2729</ele>
        <time>2018-12-27T04:13:43Z</time>
      </trkpt>
      <trkpt lat="42.71231" lon="-0.46802">
        <ele>2718</ele>
        <time>2018-12-27T04:13:47Z</time>
      </trkpt>
      <trkpt lat="42.71234" lon="-0.46794">
        <ele>2716</ele>
        <time>2018-12-27T04:13:49Z</time>
      </trkpt>
      <trkpt lat="42.7123" lon="-0.46787">
        <ele>2712</ele>
        <time>2018-12-27T04:13:51Z</time>
      </trkpt>
      <trkpt lat="42.71235" lon="-0.46779">
        <ele>2710</ele>
        <time>2018-12-27T04:13:53Z</time>
      </trkpt>
      <trkpt lat="42.71244" lon="-0.46755">
        <ele>2698</ele>
        <time>2018-12-27T04:13:58Z</time>
      </trkpt>
      <trkpt lat="42.71243" lon="-0.46748">
        <ele>2693</ele>
        <time>2018-12-27T04:13:59Z</time>
      </trkpt>
      <trkpt lat="42.71244" lon="-0.46739">
        <ele>2689</ele>
        <time>2018-12-27T04:14:01Z</time>
      </trkpt>
      <trkpt lat="42.7125" lon="-0.46719">
        <ele>2682</ele>
        <time>2018-12-27T04:14:05Z</time>
      </trkpt>
      <trkpt lat="42.71247" lon="-0.46713">
        <ele>2678</ele>
        <time>2018-12-27T04:14:07Z</time>
      </trkpt>
      <trkpt lat="42.71241" lon="-0.46709">
        <ele>2674</ele>
        <time>2018-12-27T04:14:09Z</time>
      </trkpt>
      <trkpt lat="42.71235" lon="-0.46699">
        <ele>2669</ele>
        <time>2018-12-27T04:14:11Z</time>
      </trkpt>
      <trkpt lat="42.7123" lon="-0.46698">
        <ele>2667</ele>
        <time>2018-12-27T04:14:12Z</time>
      </trkpt>
      <trkpt lat="42.71235" lon="-0.46686">
        <ele>2663</ele>
        <time>2018-12-27T04:14:15Z</time>
      </trkpt>
      <trkpt lat="42.71228" lon="-0.46672">
        <ele>2654</ele>
        <time>2018-12-27T04:14:18Z</time>
      </trkpt>
      <trkpt lat="42.71219" lon="-0.46672">
        <ele>2654</ele>
        <time>2018-12-27T04:14:21Z</time>
      </trkpt>
      <trkpt lat="42.71219" lon="-0.46662">
        <ele>2649</ele>
        <time>2018-12-27T04:14:22Z</time>
      </trkpt>
      <trkpt lat="42.71213" lon="-0.46658">
        <ele>2647</ele>
        <time>2018-12-27T04:14:24Z</time>
      </trkpt>
      <trkpt lat="42.71208" lon="-0.46659">
        <ele>2648</ele>
        <time>2018-12-27T04:14:26Z</time>
      </trkpt>
      <trkpt lat="42.71203" lon="-0.46658">
        <ele>2647</ele>
        <time>2018-12-27T04:14:27Z</time>
      </trkpt>
      <trkpt lat="42.71197" lon="-0.46653">
        <ele>2644</ele>
        <time>2018-12-27T04:14:29Z</time>
      </trkpt>
      <trkpt lat="42.71198" lon="-0.46645">
        <ele>2640</ele>
        <time>2018-12-27T04:14:31Z</time>
      </trkpt>
      <trkpt lat="42.71192" lon="-0.4663">
        <ele>2631</ele>
        <time>2018-12-27T04:14:34Z</time>
      </trkpt>
      <trkpt lat="42.71193" lon="-0.46623">
        <ele>2628</ele>
        <time>2018-12-27T04:14:36Z</time>
      </trkpt>
      <trkpt lat="42.71187" lon="-0.46603">
        <ele>2617</ele>
        <time>2018-12-27T04:14:40Z</time>
      </trkpt>
      <trkpt lat="42.7119" lon="-0.46584">
        <ele>2613</ele>
        <time>2018-12-27T04:14:44Z</time>
      </trkpt>
      <trkpt lat="42.71187" lon="-0.46579">
        <ele>2611</ele>
        <time>2018-12-27T04:14:45Z</time>
      </trkpt>
      <trkpt lat="42.71182" lon="-0.46541">
        <ele>2603</ele>
        <time>2018-12-27T04:14:52Z</time>
      </trkpt>
      <trkpt lat="42.71176" lon="-0.46519">
        <ele>2597</ele>
        <time>2018-12-27T04:14:57Z</time>
      </trkpt>
      <trkpt lat="42.71169" lon="-0.46502">
        <ele>2591</ele>
        <time>2018-12-27T04:15:01Z</time>
      </trkpt>
      <trkpt lat="42.71163" lon="-0.46469">
        <ele>2577</ele>
        <time>2018-12-27T04:15:07Z</time>
      </trkpt>
      <trkpt lat="42.71154" lon="-0.46447">
        <ele>2567</ele>
        <time>2018-12-27T04:15:12Z</time>
      </trkpt>
      <trkpt lat="42.71151" lon="-0.46432">
        <ele>2563</ele>
        <time>2018-12-27T04:15:15Z</time>
      </trkpt>
      <trkpt lat="42.71145" lon="-0.46419">
        <ele>2560</ele>
        <time>2018-12-27T04:15:18Z</time>
      </trkpt>
      <trkpt lat="42.71158" lon="-0.46415">
        <ele>2561</ele>
        <time>2018-12-27T04:15:22Z</time>
      </trkpt>
      <trkpt lat="42.71164" lon="-0.46416">
        <ele>2561</ele>
        <time>2018-12-27T04:15:23Z</time>
      </trkpt>
      <trkpt lat="42.71166" lon="-0.46411">
        <ele>2561</ele>
        <time>2018-12-27T04:15:25Z</time>
      </trkpt>
      <trkpt lat="42.71171" lon="-0.46414">
        <ele>2560</ele>
        <time>2018-12-27T04:15:26Z</time>
      </trkpt>
      <trkpt lat="42.71178" lon="-0.46415">
        <ele>2560</ele>
        <time>2018-12-27T04:15:28Z</time>
      </trkpt>
      <trkpt lat="42.71193" lon="-0.4639">
        <ele>2550</ele>
        <time>2018-12-27T04:15:34Z</time>
      </trkpt>
      <trkpt lat="42.71198" lon="-0.46386">
        <ele>2550</ele>
        <time>2018-12-27T04:15:36Z</time>
      </trkpt>
      <trkpt lat="42.71202" lon="-0.4638">
        <ele>2550</ele>
        <time>2018-12-27T04:15:37Z</time>
      </trkpt>
      <trkpt lat="42.7121" lon="-0.46373">
        <ele>2550</ele>
        <time>2018-12-27T04:15:40Z</time>
      </trkpt>
      <trkpt lat="42.71214" lon="-0.46368">
        <ele>2550</ele>
        <time>2018-12-27T04:15:41Z</time>
      </trkpt>
      <trkpt lat="42.71226" lon="-0.46365">
        <ele>2547</ele>
        <time>2018-12-27T04:15:45Z</time>
      </trkpt>
      <trkpt lat="42.71231" lon="-0.4637">
        <ele>2545</ele>
        <time>2018-12-27T04:15:46Z</time>
      </trkpt>
      <trkpt lat="42.71239" lon="-0.46367">
        <ele>2541</ele>
        <time>2018-12-27T04:15:48Z</time>
      </trkpt>
      <trkpt lat="42.71245" lon="-0.46359">
        <ele>2537</ele>
        <time>2018-12-27T04:15:51Z</time>
      </trkpt>
      <trkpt lat="42.71256" lon="-0.46355">
        <ele>2533</ele>
        <time>2018-12-27T04:15:54Z</time>
      </trkpt>
      <trkpt lat="42.71259" lon="-0.46361">
        <ele>2534</ele>
        <time>2018-12-27T04:15:55Z</time>
      </trkpt>
      <trkpt lat="42.71264" lon="-0.46355">
        <ele>2531</ele>
        <time>2018-12-27T04:15:57Z</time>
      </trkpt>
      <trkpt lat="42.71269" lon="-0.46359">
        <ele>2532</ele>
        <time>2018-12-27T04:15:58Z</time>
      </trkpt>
      <trkpt lat="42.71283" lon="-0.46355">
        <ele>2522</ele>
        <time>2018-12-27T04:16:02Z</time>
      </trkpt>
      <trkpt lat="42.71288" lon="-0.4635">
        <ele>2514</ele>
        <time>2018-12-27T04:16:04Z</time>
      </trkpt>
      <trkpt lat="42.71293" lon="-0.4635">
        <ele>2508</ele>
        <time>2018-12-27T04:16:05Z</time>
      </trkpt>
      <trkpt lat="42.71296" lon="-0.46338">
        <ele>2499</ele>
        <time>2018-12-27T04:16:08Z</time>
      </trkpt>
      <trkpt lat="42.71313" lon="-0.46322">
        <ele>2477</ele>
        <time>2018-12-27T04:16:13Z</time>
      </trkpt>
      <trkpt lat="42.71317" lon="-0.46325">
        <ele>2476</ele>
        <time>2018-12-27T04:16:15Z</time>
      </trkpt>
      <trkpt lat="42.71329" lon="-0.46327">
        <ele>2468</ele>
        <time>2018-12-27T04:16:18Z</time>
      </trkpt>
      <trkpt lat="42.71354" lon="-0.46313">
        <ele>2443</ele>
        <time>2018-12-27T04:16:25Z</time>
      </trkpt>
      <trkpt lat="42.71359" lon="-0.46313">
        <ele>2438</ele>
        <time>2018-12-27T04:16:26Z</time>
      </trkpt>
      <trkpt lat="42.71365" lon="-0.46306">
        <ele>2428</ele>
        <time>2018-12-27T04:16:28Z</time>
      </trkpt>
      <trkpt lat="42.71375" lon="-0.46298">
        <ele>2419</ele>
        <time>2018-12-27T04:16:31Z</time>
      </trkpt>
      <trkpt lat="42.71381" lon="-0.46296">
        <ele>2415</ele>
        <time>2018-12-27T04:16:33Z</time>
      </trkpt>
      <trkpt lat="42.71397" lon="-0.46284">
        <ele>2409</ele>
        <time>2018-12-27T04:16:38Z</time>
      </trkpt>
      <trkpt lat="42.71403" lon="-0.46275">
        <ele>2407</ele>
        <time>2018-12-27T04:16:40Z</time>
      </trkpt>
      <trkpt lat="42.71413" lon="-0.46261">
        <ele>2403</ele>
        <time>2018-12-27T04:16:44Z</time>
      </trkpt>
      <trkpt lat="42.71416" lon="-0.46252">
        <ele>2400</ele>
        <time>2018-12-27T04:16:46Z</time>
      </trkpt>
      <trkpt lat="42.7142" lon="-0.46245">
        <ele>2397</ele>
        <time>2018-12-27T04:16:48Z</time>
      </trkpt>
      <trkpt lat="42.71428" lon="-0.46225">
        <ele>2384</ele>
        <time>2018-12-27T04:16:52Z</time>
      </trkpt>
      <trkpt lat="42.71434" lon="-0.4622">
        <ele>2381</ele>
        <time>2018-12-27T04:16:54Z</time>
      </trkpt>
      <trkpt lat="42.7145" lon="-0.46221">
        <ele>2377</ele>
        <time>2018-12-27T04:16:59Z</time>
      </trkpt>
      <trkpt lat="42.71455" lon="-0.46216">
        <ele>2370</ele>
        <time>2018-12-27T04:17:00Z</time>
      </trkpt>
      <trkpt lat="42.71461" lon="-0.46213">
        <ele>2364</ele>
        <time>2018-12-27T04:17:02Z</time>
      </trkpt>
      <trkpt lat="42.71468" lon="-0.46215">
        <ele>2361</ele>
        <time>2018-12-27T04:17:04Z</time>
      </trkpt>
      <trkpt lat="42.71469" lon="-0.46209">
        <ele>2355</ele>
        <time>2018-12-27T04:17:05Z</time>
      </trkpt>
      <trkpt lat="42.71474" lon="-0.4621">
        <ele>2352</ele>
        <time>2018-12-27T04:17:06Z</time>
      </trkpt>
      <trkpt lat="42.71482" lon="-0.46196">
        <ele>2335</ele>
        <time>2018-12-27T04:17:10Z</time>
      </trkpt>
      <trkpt lat="42.71495" lon="-0.46193">
        <ele>2324</ele>
        <time>2018-12-27T04:17:13Z</time>
      </trkpt>
      <trkpt lat="42.71505" lon="-0.46178">
        <ele>2312</ele>
        <time>2018-12-27T04:17:17Z</time>
      </trkpt>
      <trkpt lat="42.7151" lon="-0.46174">
        <ele>2309</ele>
        <time>2018-12-27T04:17:19Z</time>
      </trkpt>
      <trkpt lat="42.71513" lon="-0.46165">
        <ele>2303</ele>
        <time>2018-12-27T04:17:21Z</time>
      </trkpt>
      <trkpt lat="42.71521" lon="-0.46155">
        <ele>2297</ele>
        <time>2018-12-27T04:17:24Z</time>
      </trkpt>
      <trkpt lat="42.71529" lon="-0.46153">
        <ele>2294</ele>
        <time>2018-12-27T04:17:26Z</time>
      </trkpt>
      <trkpt lat="42.7154" lon="-0.46156">
        <ele>2293</ele>
        <time>2018-12-27T04:17:29Z</time>
      </trkpt>
      <trkpt lat="42.71541" lon="-0.46145">
        <ele>2288</ele>
        <time>2018-12-27T04:17:31Z</time>
      </trkpt>
      <trkpt lat="42.71555" lon="-0.46138">
        <ele>2282</ele>
        <time>2018-12-27T04:17:35Z</time>
      </trkpt>
      <trkpt lat="42.71578" lon="-0.46135">
        <ele>2272</ele>
        <time>2018-12-27T04:17:41Z</time>
      </trkpt>
      <trkpt lat="42.71596" lon="-0.46129">
        <ele>2265</ele>
        <time>2018-12-27T04:17:46Z</time>
      </trkpt>
      <trkpt lat="42.7164" lon="-0.46123">
        <ele>2261</ele>
        <time>2018-12-27T04:17:58Z</time>
      </trkpt>
      <trkpt lat="42.71654" lon="-0.46128">
        <ele>2258</ele>
        <time>2018-12-27T04:18:02Z</time>
      </trkpt>
      <trkpt lat="42.71663" lon="-0.46126">
        <ele>2255</ele>
        <time>2018-12-27T04:18:04Z</time>
      </trkpt>
      <trkpt lat="42.71668" lon="-0.46122">
        <ele>2252</ele>
        <time>2018-12-27T04:18:06Z</time>
      </trkpt>
      <trkpt lat="42.71672" lon="-0.46117">
        <ele>2250</ele>
        <time>2018-12-27T04:18:07Z</time>
      </trkpt>
      <trkpt lat="42.71674" lon="-0.46109">
        <ele>2247</ele>
        <time>2018-12-27T04:18:09Z</time>
      </trkpt>
      <trkpt lat="42.71671" lon="-0.46102">
        <ele>2245</ele>
        <time>2018-12-27T04:18:11Z</time>
      </trkpt>
      <trkpt lat="42.7167" lon="-0.46096">
        <ele>2243</ele>
        <time>2018-12-27T04:18:12Z</time>
      </trkpt>
      <trkpt lat="42.71681" lon="-0.46086">
        <ele>2234</ele>
        <time>2018-12-27T04:18:15Z</time>
      </trkpt>
      <trkpt lat="42.71683" lon="-0.46077">
        <ele>2229</ele>
        <time>2018-12-27T04:18:17Z</time>
      </trkpt>
      <trkpt lat="42.71702" lon="-0.4605">
        <ele>2212</ele>
        <time>2018-12-27T04:18:25Z</time>
      </trkpt>
      <trkpt lat="42.71722" lon="-0.46032">
        <ele>2202</ele>
        <time>2018-12-27T04:18:31Z</time>
      </trkpt>
      <trkpt lat="42.71729" lon="-0.46022">
        <ele>2198</ele>
        <time>2018-12-27T04:18:34Z</time>
      </trkpt>
      <trkpt lat="42.71735" lon="-0.46017">
        <ele>2196</ele>
        <time>2018-12-27T04:18:35Z</time>
      </trkpt>
      <trkpt lat="42.71757" lon="-0.46006">
        <ele>2190</ele>
        <time>2018-12-27T04:18:42Z</time>
      </trkpt>
      <trkpt lat="42.71775" lon="-0.45982">
        <ele>2183</ele>
        <time>2018-12-27T04:18:48Z</time>
      </trkpt>
      <trkpt lat="42.7178" lon="-0.45969">
        <ele>2180</ele>
        <time>2018-12-27T04:18:51Z</time>
      </trkpt>
      <trkpt lat="42.71782" lon="-0.45961">
        <ele>2177</ele>
        <time>2018-12-27T04:18:53Z</time>
      </trkpt>
      <trkpt lat="42.71781" lon="-0.45941">
        <ele>2171</ele>
        <time>2018-12-27T04:18:57Z</time>
      </trkpt>
      <trkpt lat="42.71792" lon="-0.45928">
        <ele>2168</ele>
        <time>2018-12-27T04:19:01Z</time>
      </trkpt>
      <trkpt lat="42.71801" lon="-0.45908">
        <ele>2161</ele>
        <time>2018-12-27T04:19:05Z</time>
      </trkpt>
      <trkpt lat="42.71801" lon="-0.45892">
        <ele>2157</ele>
        <time>2018-12-27T04:19:09Z</time>
      </trkpt>
      <trkpt lat="42.71803" lon="-0.45884">
        <ele>2154</ele>
        <time>2018-12-27T04:19:10Z</time>
      </trkpt>
      <trkpt lat="42.71811" lon="-0.45883">
        <ele>2154</ele>
        <time>2018-12-27T04:19:12Z</time>
      </trkpt>
      <trkpt lat="42.71817" lon="-0.45871">
        <ele>2151</ele>
        <time>2018-12-27T04:19:15Z</time>
      </trkpt>
      <trkpt lat="42.71825" lon="-0.45864">
        <ele>2149</ele>
        <time>2018-12-27T04:19:18Z</time>
      </trkpt>
      <trkpt lat="42.7184" lon="-0.45853">
        <ele>2141</ele>
        <time>2018-12-27T04:19:22Z</time>
      </trkpt>
      <trkpt lat="42.71845" lon="-0.45852">
        <ele>2139</ele>
        <time>2018-12-27T04:19:24Z</time>
      </trkpt>
      <trkpt lat="42.71854" lon="-0.45852">
        <ele>2135</ele>
        <time>2018-12-27T04:19:26Z</time>
      </trkpt>
      <trkpt lat="42.71863" lon="-0.45862">
        <ele>2135</ele>
        <time>2018-12-27T04:19:29Z</time>
      </trkpt>
      <trkpt lat="42.71875" lon="-0.45867">
        <ele>2136</ele>
        <time>2018-12-27T04:19:32Z</time>
      </trkpt>
      <trkpt lat="42.7188" lon="-0.45873">
        <ele>2138</ele>
        <time>2018-12-27T04:19:34Z</time>
      </trkpt>
      <trkpt lat="42.7189" lon="-0.4588">
        <ele>2139</ele>
        <time>2018-12-27T04:19:37Z</time>
      </trkpt>
      <trkpt lat="42.71916" lon="-0.45897">
        <ele>2138</ele>
        <time>2018-12-27T04:19:45Z</time>
      </trkpt>
      <trkpt lat="42.71947" lon="-0.45907">
        <ele>2122</ele>
        <time>2018-12-27T04:19:53Z</time>
      </trkpt>
      <trkpt lat="42.71954" lon="-0.45919">
        <ele>2121</ele>
        <time>2018-12-27T04:19:56Z</time>
      </trkpt>
      <trkpt lat="42.71959" lon="-0.45956">
        <ele>2128</ele>
        <time>2018-12-27T04:20:04Z</time>
      </trkpt>
      <trkpt lat="42.71962" lon="-0.45964">
        <ele>2128</ele>
        <time>2018-12-27T04:20:05Z</time>
      </trkpt>
      <trkpt lat="42.71966" lon="-0.45967">
        <ele>2125</ele>
        <time>2018-12-27T04:20:07Z</time>
      </trkpt>
      <trkpt lat="42.71989" lon="-0.46013">
        <ele>2116</ele>
        <time>2018-12-27T04:20:18Z</time>
      </trkpt>
      <trkpt lat="42.71995" lon="-0.46031">
        <ele>2113</ele>
        <time>2018-12-27T04:20:21Z</time>
      </trkpt>
      <trkpt lat="42.72" lon="-0.46039">
        <ele>2109</ele>
        <time>2018-12-27T04:20:23Z</time>
      </trkpt>
      <trkpt lat="42.72003" lon="-0.46053">
        <ele>2110</ele>
        <time>2018-12-27T04:20:26Z</time>
      </trkpt>
      <trkpt lat="42.72027" lon="-0.46116">
        <ele>2116</ele>
        <time>2018-12-27T04:20:40Z</time>
      </trkpt>
      <trkpt lat="42.7204" lon="-0.46131">
        <ele>2116</ele>
        <time>2018-12-27T04:20:45Z</time>
      </trkpt>
      <trkpt lat="42.72063" lon="-0.46147">
        <ele>2111</ele>
        <time>2018-12-27T04:20:51Z</time>
      </trkpt>
      <trkpt lat="42.72075" lon="-0.46159">
        <ele>2110</ele>
        <time>2018-12-27T04:20:56Z</time>
      </trkpt>
      <trkpt lat="42.72094" lon="-0.46188">
        <ele>2110</ele>
        <time>2018-12-27T04:21:03Z</time>
      </trkpt>
      <trkpt lat="42.72099" lon="-0.46201">
        <ele>2111</ele>
        <time>2018-12-27T04:21:06Z</time>
      </trkpt>
      <trkpt lat="42.72106" lon="-0.46206">
        <ele>2110</ele>
        <time>2018-12-27T04:21:08Z</time>
      </trkpt>
      <trkpt lat="42.72115" lon="-0.46217">
        <ele>2108</ele>
        <time>2018-12-27T04:21:12Z</time>
      </trkpt>
      <trkpt lat="42.7212" lon="-0.46229">
        <ele>2108</ele>
        <time>2018-12-27T04:21:14Z</time>
      </trkpt>
      <trkpt lat="42.72128" lon="-0.46241">
        <ele>2109</ele>
        <time>2018-12-27T04:21:17Z</time>
      </trkpt>
      <trkpt lat="42.7214" lon="-0.46256">
        <ele>2108</ele>
        <time>2018-12-27T04:21:22Z</time>
      </trkpt>
      <trkpt lat="42.72148" lon="-0.46263">
        <ele>2107</ele>
        <time>2018-12-27T04:21:24Z</time>
      </trkpt>
      <trkpt lat="42.72154" lon="-0.46278">
        <ele>2108</ele>
        <time>2018-12-27T04:21:27Z</time>
      </trkpt>
      <trkpt lat="42.72161" lon="-0.46287">
        <ele>2108</ele>
        <time>2018-12-27T04:21:30Z</time>
      </trkpt>
      <trkpt lat="42.72163" lon="-0.46296">
        <ele>2109</ele>
        <time>2018-12-27T04:21:32Z</time>
      </trkpt>
      <trkpt lat="42.72174" lon="-0.46329">
        <ele>2112</ele>
        <time>2018-12-27T04:21:39Z</time>
      </trkpt>
      <trkpt lat="42.72177" lon="-0.46353">
        <ele>2114</ele>
        <time>2018-12-27T04:21:44Z</time>
      </trkpt>
      <trkpt lat="42.72183" lon="-0.46362">
        <ele>2114</ele>
        <time>2018-12-27T04:21:46Z</time>
      </trkpt>
      <trkpt lat="42.72194" lon="-0.46363">
        <ele>2113</ele>
        <time>2018-12-27T04:21:49Z</time>
      </trkpt>
      <trkpt lat="42.72199" lon="-0.46362">
        <ele>2112</ele>
        <time>2018-12-27T04:21:50Z</time>
      </trkpt>
      <trkpt lat="42.72209" lon="-0.46354">
        <ele>2109</ele>
        <time>2018-12-27T04:21:53Z</time>
      </trkpt>
      <trkpt lat="42.72237" lon="-0.46322">
        <ele>2101</ele>
        <time>2018-12-27T04:22:03Z</time>
      </trkpt>
      <trkpt lat="42.72255" lon="-0.46306">
        <ele>2095</ele>
        <time>2018-12-27T04:22:09Z</time>
      </trkpt>
      <trkpt lat="42.72267" lon="-0.4629">
        <ele>2096</ele>
        <time>2018-12-27T04:22:13Z</time>
      </trkpt>
      <trkpt lat="42.72313" lon="-0.46246">
        <ele>2103</ele>
        <time>2018-12-27T04:22:28Z</time>
      </trkpt>
      <trkpt lat="42.72336" lon="-0.46221">
        <ele>2112</ele>
        <time>2018-12-27T04:22:36Z</time>
      </trkpt>
      <trkpt lat="42.72346" lon="-0.46226">
        <ele>2116</ele>
        <time>2018-12-27T04:22:39Z</time>
      </trkpt>
      <trkpt lat="42.72352" lon="-0.46239">
        <ele>2117</ele>
        <time>2018-12-27T04:22:42Z</time>
      </trkpt>
      <trkpt lat="42.72391" lon="-0.46301">
        <ele>2114</ele>
        <time>2018-12-27T04:22:58Z</time>
      </trkpt>
      <trkpt lat="42.72393" lon="-0.46309">
        <ele>2112</ele>
        <time>2018-12-27T04:23:00Z</time>
      </trkpt>
      <trkpt lat="42.72384" lon="-0.46315">
        <ele>2108</ele>
        <time>2018-12-27T04:23:02Z</time>
      </trkpt>
      <trkpt lat="42.7238" lon="-0.46321">
        <ele>2105</ele>
        <time>2018-12-27T04:23:04Z</time>
      </trkpt>
      <trkpt lat="42.72368" lon="-0.46327">
        <ele>2100</ele>
        <time>2018-12-27T04:23:07Z</time>
      </trkpt>
      <trkpt lat="42.72366" lon="-0.4634">
        <ele>2098</ele>
        <time>2018-12-27T04:23:10Z</time>
      </trkpt>
      <trkpt lat="42.72373" lon="-0.46365">
        <ele>2098</ele>
        <time>2018-12-27T04:23:15Z</time>
      </trkpt>
      <trkpt lat="42.72374" lon="-0.46395">
        <ele>2095</ele>
        <time>2018-12-27T04:23:21Z</time>
      </trkpt>
      <trkpt lat="42.7238" lon="-0.46439">
        <ele>2092</ele>
        <time>2018-12-27T04:23:30Z</time>
      </trkpt>
      <trkpt lat="42.72394" lon="-0.46499">
        <ele>2092</ele>
        <time>2018-12-27T04:23:42Z</time>
      </trkpt>
      <trkpt lat="42.72422" lon="-0.46548">
        <ele>2090</ele>
        <time>2018-12-27T04:23:54Z</time>
      </trkpt>
      <trkpt lat="42.72452" lon="-0.46577">
        <ele>2091</ele>
        <time>2018-12-27T04:24:04Z</time>
      </trkpt>
      <trkpt lat="42.72478" lon="-0.46571">
        <ele>2094</ele>
        <time>2018-12-27T04:24:11Z</time>
      </trkpt>
      <trkpt lat="42.72527" lon="-0.46566">
        <ele>2094</ele>
        <time>2018-12-27T04:24:24Z</time>
      </trkpt>
      <trkpt lat="42.72569" lon="-0.4655">
        <ele>2091</ele>
        <time>2018-12-27T04:24:36Z</time>
      </trkpt>
      <trkpt lat="42.72595" lon="-0.46543">
        <ele>2089</ele>
        <time>2018-12-27T04:24:43Z</time>
      </trkpt>
      <trkpt lat="42.72628" lon="-0.46537">
        <ele>2088</ele>
        <time>2018-12-27T04:24:52Z</time>
      </trkpt>
      <trkpt lat="42.72666" lon="-0.46537">
        <ele>2089</ele>
        <time>2018-12-27T04:25:02Z</time>
      </trkpt>
      <trkpt lat="42.72673" lon="-0.4653">
        <ele>2092</ele>
        <time>2018-12-27T04:25:04Z</time>
      </trkpt>
      <trkpt lat="42.72682" lon="-0.46525">
        <ele>2096</ele>
        <time>2018-12-27T04:25:07Z</time>
      </trkpt>
      <trkpt lat="42.72687" lon="-0.46517">
        <ele>2097</ele>
        <time>2018-12-27T04:25:09Z</time>
      </trkpt>
      <trkpt lat="42.72699" lon="-0.46519">
        <ele>2102</ele>
        <time>2018-12-27T04:25:12Z</time>
      </trkpt>
      <trkpt lat="42.72708" lon="-0.46514">
        <ele>2104</ele>
        <time>2018-12-27T04:25:15Z</time>
      </trkpt>
      <trkpt lat="42.72721" lon="-0.46503">
        <ele>2108</ele>
        <time>2018-12-27T04:25:19Z</time>
      </trkpt>
      <trkpt lat="42.72729" lon="-0.46504">
        <ele>2109</ele>
        <time>2018-12-27T04:25:21Z</time>
      </trkpt>
      <trkpt lat="42.7274" lon="-0.465">
        <ele>2111</ele>
        <time>2018-12-27T04:25:24Z</time>
      </trkpt>
      <trkpt lat="42.72751" lon="-0.4649">
        <ele>2113</ele>
        <time>2018-12-27T04:25:28Z</time>
      </trkpt>
      <trkpt lat="42.72758" lon="-0.46487">
        <ele>2115</ele>
        <time>2018-12-27T04:25:30Z</time>
      </trkpt>
      <trkpt lat="42.72767" lon="-0.46475">
        <ele>2118</ele>
        <time>2018-12-27T04:25:33Z</time>
      </trkpt>
      <trkpt lat="42.72774" lon="-0.46463">
        <ele>2121</ele>
        <time>2018-12-27T04:25:36Z</time>
      </trkpt>
      <trkpt lat="42.7279" lon="-0.46454">
        <ele>2126</ele>
        <time>2018-12-27T04:25:41Z</time>
      </trkpt>
      <trkpt lat="42.72801" lon="-0.46452">
        <ele>2129</ele>
        <time>2018-12-27T04:25:44Z</time>
      </trkpt>
      <trkpt lat="42.72813" lon="-0.4644">
        <ele>2133</ele>
        <time>2018-12-27T04:25:48Z</time>
      </trkpt>
      <trkpt lat="42.72823" lon="-0.46428">
        <ele>2138</ele>
        <time>2018-12-27T04:25:51Z</time>
      </trkpt>
      <trkpt lat="42.7283" lon="-0.46415">
        <ele>2141</ele>
        <time>2018-12-27T04:25:54Z</time>
      </trkpt>
      <trkpt lat="42.72835" lon="-0.46411">
        <ele>2143</ele>
        <time>2018-12-27T04:25:56Z</time>
      </trkpt>
      <trkpt lat="42.72835" lon="-0.46402">
        <ele>2143</ele>
        <time>2018-12-27T04:25:58Z</time>
      </trkpt>
      <trkpt lat="42.72838" lon="-0.46393">
        <ele>2143</ele>
        <time>2018-12-27T04:25:59Z</time>
      </trkpt>
      <trkpt lat="42.72849" lon="-0.46395">
        <ele>2148</ele>
        <time>2018-12-27T04:26:03Z</time>
      </trkpt>
      <trkpt lat="42.72863" lon="-0.46394">
        <ele>2153</ele>
        <time>2018-12-27T04:26:06Z</time>
      </trkpt>
      <trkpt lat="42.72872" lon="-0.46388">
        <ele>2157</ele>
        <time>2018-12-27T04:26:09Z</time>
      </trkpt>
      <trkpt lat="42.72893" lon="-0.46382">
        <ele>2166</ele>
        <time>2018-12-27T04:26:15Z</time>
      </trkpt>
      <trkpt lat="42.72921" lon="-0.46358">
        <ele>2174</ele>
        <time>2018-12-27T04:26:23Z</time>
      </trkpt>
      <trkpt lat="42.72938" lon="-0.46349">
        <ele>2178</ele>
        <time>2018-12-27T04:26:28Z</time>
      </trkpt>
      <trkpt lat="42.72954" lon="-0.46326">
        <ele>2179</ele>
        <time>2018-12-27T04:26:35Z</time>
      </trkpt>
      <trkpt lat="42.72969" lon="-0.46317">
        <ele>2181</ele>
        <time>2018-12-27T04:26:39Z</time>
      </trkpt>
      <trkpt lat="42.72981" lon="-0.46308">
        <ele>2182</ele>
        <time>2018-12-27T04:26:43Z</time>
      </trkpt>
      <trkpt lat="42.73026" lon="-0.46265">
        <ele>2188</ele>
        <time>2018-12-27T04:26:57Z</time>
      </trkpt>
      <trkpt lat="42.73044" lon="-0.46261">
        <ele>2189</ele>
        <time>2018-12-27T04:27:02Z</time>
      </trkpt>
      <trkpt lat="42.73053" lon="-0.46269">
        <ele>2190</ele>
        <time>2018-12-27T04:27:05Z</time>
      </trkpt>
      <trkpt lat="42.7307" lon="-0.46288">
        <ele>2190</ele>
        <time>2018-12-27T04:27:11Z</time>
      </trkpt>
      <trkpt lat="42.73085" lon="-0.46277">
        <ele>2190</ele>
        <time>2018-12-27T04:27:15Z</time>
      </trkpt>
      <trkpt lat="42.73099" lon="-0.46284">
        <ele>2193</ele>
        <time>2018-12-27T04:27:19Z</time>
      </trkpt>
      <trkpt lat="42.73125" lon="-0.46289">
        <ele>2200</ele>
        <time>2018-12-27T04:27:26Z</time>
      </trkpt>
      <trkpt lat="42.73122" lon="-0.46309">
        <ele>2199</ele>
        <time>2018-12-27T04:27:30Z</time>
      </trkpt>
      <trkpt lat="42.73117" lon="-0.46324">
        <ele>2199</ele>
        <time>2018-12-27T04:27:33Z</time>
      </trkpt>
      <trkpt lat="42.73119" lon="-0.46367">
        <ele>2205</ele>
        <time>2018-12-27T04:27:42Z</time>
      </trkpt>
      <trkpt lat="42.73118" lon="-0.46381">
        <ele>2206</ele>
        <time>2018-12-27T04:27:45Z</time>
      </trkpt>
      <trkpt lat="42.73125" lon="-0.46379">
        <ele>2210</ele>
        <time>2018-12-27T04:27:47Z</time>
      </trkpt>
      <trkpt lat="42.73133" lon="-0.46379">
        <ele>2215</ele>
        <time>2018-12-27T04:27:49Z</time>
      </trkpt>
      <trkpt lat="42.7314" lon="-0.46388">
        <ele>2222</ele>
        <time>2018-12-27T04:27:51Z</time>
      </trkpt>
      <trkpt lat="42.73148" lon="-0.46391">
        <ele>2227</ele>
        <time>2018-12-27T04:27:53Z</time>
      </trkpt>
      <trkpt lat="42.73155" lon="-0.46397">
        <ele>2232</ele>
        <time>2018-12-27T04:27:56Z</time>
      </trkpt>
      <trkpt lat="42.73158" lon="-0.46416">
        <ele>2234</ele>
        <time>2018-12-27T04:27:59Z</time>
      </trkpt>
      <trkpt lat="42.73167" lon="-0.46454">
        <ele>2245</ele>
        <time>2018-12-27T04:28:07Z</time>
      </trkpt>
      <trkpt lat="42.73172" lon="-0.46454">
        <ele>2248</ele>
        <time>2018-12-27T04:28:09Z</time>
      </trkpt>
      <trkpt lat="42.73178" lon="-0.4646">
        <ele>2253</ele>
        <time>2018-12-27T04:28:11Z</time>
      </trkpt>
      <trkpt lat="42.73182" lon="-0.46473">
        <ele>2259</ele>
        <time>2018-12-27T04:28:13Z</time>
      </trkpt>
      <trkpt lat="42.73186" lon="-0.46473">
        <ele>2262</ele>
        <time>2018-12-27T04:28:15Z</time>
      </trkpt>
      <trkpt lat="42.73189" lon="-0.46481">
        <ele>2265</ele>
        <time>2018-12-27T04:28:16Z</time>
      </trkpt>
      <trkpt lat="42.73206" lon="-0.46468">
        <ele>2271</ele>
        <time>2018-12-27T04:28:22Z</time>
      </trkpt>
      <trkpt lat="42.73214" lon="-0.46458">
        <ele>2273</ele>
        <time>2018-12-27T04:28:24Z</time>
      </trkpt>
      <trkpt lat="42.73219" lon="-0.46455">
        <ele>2276</ele>
        <time>2018-12-27T04:28:26Z</time>
      </trkpt>
      <trkpt lat="42.73225" lon="-0.46457">
        <ele>2280</ele>
        <time>2018-12-27T04:28:28Z</time>
      </trkpt>
      <trkpt lat="42.73231" lon="-0.46451">
        <ele>2284</ele>
        <time>2018-12-27T04:28:30Z</time>
      </trkpt>
      <trkpt lat="42.73241" lon="-0.46436">
        <ele>2291</ele>
        <time>2018-12-27T04:28:34Z</time>
      </trkpt>
      <trkpt lat="42.73247" lon="-0.46433">
        <ele>2297</ele>
        <time>2018-12-27T04:28:35Z</time>
      </trkpt>
      <trkpt lat="42.73256" lon="-0.46418">
        <ele>2303</ele>
        <time>2018-12-27T04:28:39Z</time>
      </trkpt>
      <trkpt lat="42.73261" lon="-0.46413">
        <ele>2305</ele>
        <time>2018-12-27T04:28:41Z</time>
      </trkpt>
      <trkpt lat="42.73267" lon="-0.46407">
        <ele>2307</ele>
        <time>2018-12-27T04:28:43Z</time>
      </trkpt>
      <trkpt lat="42.73282" lon="-0.464">
        <ele>2313</ele>
        <time>2018-12-27T04:28:47Z</time>
      </trkpt>
      <trkpt lat="42.73289" lon="-0.46395">
        <ele>2314</ele>
        <time>2018-12-27T04:28:49Z</time>
      </trkpt>
      <trkpt lat="42.73294" lon="-0.46393">
        <ele>2316</ele>
        <time>2018-12-27T04:28:51Z</time>
      </trkpt>
      <trkpt lat="42.73309" lon="-0.46374">
        <ele>2316</ele>
        <time>2018-12-27T04:28:56Z</time>
      </trkpt>
      <trkpt lat="42.73318" lon="-0.46368">
        <ele>2321</ele>
        <time>2018-12-27T04:28:59Z</time>
      </trkpt>
      <trkpt lat="42.73318" lon="-0.46383">
        <ele>2325</ele>
        <time>2018-12-27T04:29:02Z</time>
      </trkpt>
      <trkpt lat="42.73316" lon="-0.46397">
        <ele>2326</ele>
        <time>2018-12-27T04:29:05Z</time>
      </trkpt>
      <trkpt lat="42.7331" lon="-0.46417">
        <ele>2327</ele>
        <time>2018-12-27T04:29:09Z</time>
      </trkpt>
      <trkpt lat="42.73308" lon="-0.46427">
        <ele>2327</ele>
        <time>2018-12-27T04:29:11Z</time>
      </trkpt>
      <trkpt lat="42.73308" lon="-0.46448">
        <ele>2330</ele>
        <time>2018-12-27T04:29:15Z</time>
      </trkpt>
      <trkpt lat="42.73312" lon="-0.46459">
        <ele>2334</ele>
        <time>2018-12-27T04:29:17Z</time>
      </trkpt>
      <trkpt lat="42.73319" lon="-0.46454">
        <ele>2338</ele>
        <time>2018-12-27T04:29:20Z</time>
      </trkpt>
      <trkpt lat="42.73327" lon="-0.46458">
        <ele>2344</ele>
        <time>2018-12-27T04:29:22Z</time>
      </trkpt>
      <trkpt lat="42.73336" lon="-0.46457">
        <ele>2349</ele>
        <time>2018-12-27T04:29:24Z</time>
      </trkpt>
      <trkpt lat="42.7335" lon="-0.46459">
        <ele>2357</ele>
        <time>2018-12-27T04:29:28Z</time>
      </trkpt>
      <trkpt lat="42.73357" lon="-0.4645">
        <ele>2359</ele>
        <time>2018-12-27T04:29:30Z</time>
      </trkpt>
      <trkpt lat="42.73361" lon="-0.46448">
        <ele>2361</ele>
        <time>2018-12-27T04:29:32Z</time>
      </trkpt>
      <trkpt lat="42.73376" lon="-0.46429">
        <ele>2363</ele>
        <time>2018-12-27T04:29:37Z</time>
      </trkpt>
      <trkpt lat="42.73395" lon="-0.46363">
        <ele>2367</ele>
        <time>2018-12-27T04:29:51Z</time>
      </trkpt>
      <trkpt lat="42.73404" lon="-0.46349">
        <ele>2370</ele>
        <time>2018-12-27T04:29:55Z</time>
      </trkpt>
      <trkpt lat="42.7341" lon="-0.4635">
        <ele>2374</ele>
        <time>2018-12-27T04:29:56Z</time>
      </trkpt>
      <trkpt lat="42.73422" lon="-0.46345">
        <ele>2378</ele>
        <time>2018-12-27T04:29:59Z</time>
      </trkpt>
      <trkpt lat="42.73437" lon="-0.46334">
        <ele>2384</ele>
        <time>2018-12-27T04:30:04Z</time>
      </trkpt>
      <trkpt lat="42.73443" lon="-0.46336">
        <ele>2388</ele>
        <time>2018-12-27T04:30:06Z</time>
      </trkpt>
      <trkpt lat="42.73455" lon="-0.46347">
        <ele>2392</ele>
        <time>2018-12-27T04:30:09Z</time>
      </trkpt>
      <trkpt lat="42.73461" lon="-0.46352">
        <ele>2394</ele>
        <time>2018-12-27T04:30:12Z</time>
      </trkpt>
      <trkpt lat="42.73475" lon="-0.46351">
        <ele>2400</ele>
        <time>2018-12-27T04:30:15Z</time>
      </trkpt>
      <trkpt lat="42.73492" lon="-0.46321">
        <ele>2412</ele>
        <time>2018-12-27T04:30:23Z</time>
      </trkpt>
      <trkpt lat="42.735" lon="-0.46315">
        <ele>2416</ele>
        <time>2018-12-27T04:30:25Z</time>
      </trkpt>
      <trkpt lat="42.73503" lon="-0.46304">
        <ele>2415</ele>
        <time>2018-12-27T04:30:27Z</time>
      </trkpt>
      <trkpt lat="42.73513" lon="-0.46305">
        <ele>2418</ele>
        <time>2018-12-27T04:30:30Z</time>
      </trkpt>
      <trkpt lat="42.7352" lon="-0.463">
        <ele>2419</ele>
        <time>2018-12-27T04:30:32Z</time>
      </trkpt>
      <trkpt lat="42.73525" lon="-0.4629">
        <ele>2419</ele>
        <time>2018-12-27T04:30:34Z</time>
      </trkpt>
      <trkpt lat="42.73545" lon="-0.46272">
        <ele>2425</ele>
        <time>2018-12-27T04:30:41Z</time>
      </trkpt>
      <trkpt lat="42.73551" lon="-0.46264">
        <ele>2430</ele>
        <time>2018-12-27T04:30:43Z</time>
      </trkpt>
      <trkpt lat="42.73556" lon="-0.46272">
        <ele>2430</ele>
        <time>2018-12-27T04:30:45Z</time>
      </trkpt>
      <trkpt lat="42.73562" lon="-0.46279">
        <ele>2432</ele>
        <time>2018-12-27T04:30:47Z</time>
      </trkpt>
      <trkpt lat="42.73567" lon="-0.46268">
        <ele>2438</ele>
        <time>2018-12-27T04:30:50Z</time>
      </trkpt>
      <trkpt lat="42.73572" lon="-0.46266">
        <ele>2442</ele>
        <time>2018-12-27T04:30:51Z</time>
      </trkpt>
      <trkpt lat="42.73579" lon="-0.46267">
        <ele>2447</ele>
        <time>2018-12-27T04:30:53Z</time>
      </trkpt>
      <trkpt lat="42.73581" lon="-0.46274">
        <ele>2446</ele>
        <time>2018-12-27T04:30:54Z</time>
      </trkpt>
      <trkpt lat="42.73586" lon="-0.46271">
        <ele>2450</ele>
        <time>2018-12-27T04:30:56Z</time>
      </trkpt>
      <trkpt lat="42.73595" lon="-0.46257">
        <ele>2458</ele>
        <time>2018-12-27T04:31:00Z</time>
      </trkpt>
      <trkpt lat="42.73601" lon="-0.46258">
        <ele>2461</ele>
        <time>2018-12-27T04:31:01Z</time>
      </trkpt>
      <trkpt lat="42.73606" lon="-0.4625">
        <ele>2465</ele>
        <time>2018-12-27T04:31:03Z</time>
      </trkpt>
      <trkpt lat="42.73615" lon="-0.46257">
        <ele>2468</ele>
        <time>2018-12-27T04:31:06Z</time>
      </trkpt>
      <trkpt lat="42.73624" lon="-0.46266">
        <ele>2470</ele>
        <time>2018-12-27T04:31:09Z</time>
      </trkpt>
      <trkpt lat="42.73627" lon="-0.46262">
        <ele>2473</ele>
        <time>2018-12-27T04:31:10Z</time>
      </trkpt>
      <trkpt lat="42.7363" lon="-0.46268">
        <ele>2473</ele>
        <time>2018-12-27T04:31:12Z</time>
      </trkpt>
      <trkpt lat="42.73638" lon="-0.46271">
        <ele>2477</ele>
        <time>2018-12-27T04:31:14Z</time>
      </trkpt>
      <trkpt lat="42.7365" lon="-0.4626">
        <ele>2487</ele>
        <time>2018-12-27T04:31:18Z</time>
      </trkpt>
      <trkpt lat="42.7366" lon="-0.46262">
        <ele>2494</ele>
        <time>2018-12-27T04:31:20Z</time>
      </trkpt>
      <trkpt lat="42.73664" lon="-0.46258">
        <ele>2497</ele>
        <time>2018-12-27T04:31:22Z</time>
      </trkpt>
      <trkpt lat="42.73672" lon="-0.46258">
        <ele>2503</ele>
        <time>2018-12-27T04:31:24Z</time>
      </trkpt>
      <trkpt lat="42.73678" lon="-0.46268">
        <ele>2506</ele>
        <time>2018-12-27T04:31:26Z</time>
      </trkpt>
      <trkpt lat="42.73692" lon="-0.46271">
        <ele>2517</ele>
        <time>2018-12-27T04:31:30Z</time>
      </trkpt>
      <trkpt lat="42.73697" lon="-0.4626">
        <ele>2521</ele>
        <time>2018-12-27T04:31:33Z</time>
      </trkpt>
      <trkpt lat="42.73705" lon="-0.46263">
        <ele>2528</ele>
        <time>2018-12-27T04:31:35Z</time>
      </trkpt>
      <trkpt lat="42.73719" lon="-0.4626">
        <ele>2542</ele>
        <time>2018-12-27T04:31:39Z</time>
      </trkpt>
      <trkpt lat="42.73722" lon="-0.46256">
        <ele>2546</ele>
        <time>2018-12-27T04:31:40Z</time>
      </trkpt>
      <trkpt lat="42.73729" lon="-0.46257">
        <ele>2552</ele>
        <time>2018-12-27T04:31:42Z</time>
      </trkpt>
      <trkpt lat="42.73736" lon="-0.46271">
        <ele>2558</ele>
        <time>2018-12-27T04:31:45Z</time>
      </trkpt>
      <trkpt lat="42.73743" lon="-0.46272">
        <ele>2565</ele>
        <time>2018-12-27T04:31:47Z</time>
      </trkpt>
      <trkpt lat="42.73752" lon="-0.46275">
        <ele>2574</ele>
        <time>2018-12-27T04:31:50Z</time>
      </trkpt>
      <trkpt lat="42.73769" lon="-0.46289">
        <ele>2586</ele>
        <time>2018-12-27T04:31:55Z</time>
      </trkpt>
      <trkpt lat="42.73773" lon="-0.46286">
        <ele>2587</ele>
        <time>2018-12-27T04:31:56Z</time>
      </trkpt>
      <trkpt lat="42.73779" lon="-0.46284">
        <ele>2589</ele>
        <time>2018-12-27T04:31:58Z</time>
      </trkpt>
      <trkpt lat="42.73785" lon="-0.46285">
        <ele>2591</ele>
        <time>2018-12-27T04:31:59Z</time>
      </trkpt>
      <trkpt lat="42.73789" lon="-0.46295">
        <ele>2596</ele>
        <time>2018-12-27T04:32:02Z</time>
      </trkpt>
      <trkpt lat="42.73793" lon="-0.46299">
        <ele>2598</ele>
        <time>2018-12-27T04:32:03Z</time>
      </trkpt>
      <trkpt lat="42.73797" lon="-0.46295">
        <ele>2597</ele>
        <time>2018-12-27T04:32:04Z</time>
      </trkpt>
      <trkpt lat="42.73801" lon="-0.46297">
        <ele>2599</ele>
        <time>2018-12-27T04:32:06Z</time>
      </trkpt>
      <trkpt lat="42.73807" lon="-0.46307">
        <ele>2603</ele>
        <time>2018-12-27T04:32:08Z</time>
      </trkpt>
      <trkpt lat="42.73804" lon="-0.46313">
        <ele>2605</ele>
        <time>2018-12-27T04:32:10Z</time>
      </trkpt>
      <trkpt lat="42.73808" lon="-0.46317">
        <ele>2607</ele>
        <time>2018-12-27T04:32:11Z</time>
      </trkpt>
      <trkpt lat="42.73809" lon="-0.46327">
        <ele>2610</ele>
        <time>2018-12-27T04:32:13Z</time>
      </trkpt>
      <trkpt lat="42.73821" lon="-0.46327">
        <ele>2612</ele>
        <time>2018-12-27T04:32:16Z</time>
      </trkpt>
      <trkpt lat="42.73825" lon="-0.46335">
        <ele>2614</ele>
        <time>2018-12-27T04:32:18Z</time>
      </trkpt>
      <trkpt lat="42.7383" lon="-0.46341">
        <ele>2614</ele>
        <time>2018-12-27T04:32:19Z</time>
      </trkpt>
      <trkpt lat="42.73818" lon="-0.46365">
        <ele>2617</ele>
        <time>2018-12-27T04:32:25Z</time>
      </trkpt>
      <trkpt lat="42.73813" lon="-0.4637">
        <ele>2619</ele>
        <time>2018-12-27T04:32:27Z</time>
      </trkpt>
      <trkpt lat="42.7379" lon="-0.46433">
        <ele>2642</ele>
        <time>2018-12-27T04:32:41Z</time>
      </trkpt>
      <trkpt lat="42.73789" lon="-0.46442">
        <ele>2643</ele>
        <time>2018-12-27T04:32:42Z</time>
      </trkpt>
      <trkpt lat="42.73778" lon="-0.46475">
        <ele>2647</ele>
        <time>2018-12-27T04:32:50Z</time>
      </trkpt>
      <trkpt lat="42.73769" lon="-0.46488">
        <ele>2647</ele>
        <time>2018-12-27T04:32:53Z</time>
      </trkpt>
      <trkpt lat="42.73762" lon="-0.46504">
        <ele>2648</ele>
        <time>2018-12-27T04:32:57Z</time>
      </trkpt>
      <trkpt lat="42.73737" lon="-0.46537">
        <ele>2648</ele>
        <time>2018-12-27T04:33:06Z</time>
      </trkpt>
      <trkpt lat="42.73727" lon="-0.46559">
        <ele>2647</ele>
        <time>2018-12-27T04:33:11Z</time>
      </trkpt>
      <trkpt lat="42.73712" lon="-0.46586">
        <ele>2650</ele>
        <time>2018-12-27T04:33:18Z</time>
      </trkpt>
      <trkpt lat="42.73678" lon="-0.46622">
        <ele>2658</ele>
        <time>2018-12-27T04:33:29Z</time>
      </trkpt>
      <trkpt lat="42.73676" lon="-0.4663">
        <ele>2657</ele>
        <time>2018-12-27T04:33:31Z</time>
      </trkpt>
      <trkpt lat="42.73676" lon="-0.46638">
        <ele>2657</ele>
        <time>2018-12-27T04:33:32Z</time>
      </trkpt>
      <trkpt lat="42.73673" lon="-0.46644">
        <ele>2656</ele>
        <time>2018-12-27T04:33:34Z</time>
      </trkpt>
      <trkpt lat="42.73668" lon="-0.46683">
        <ele>2653</ele>
        <time>2018-12-27T04:33:42Z</time>
      </trkpt>
      <trkpt lat="42.73658" lon="-0.46704">
        <ele>2655</ele>
        <time>2018-12-27T04:33:46Z</time>
      </trkpt>
      <trkpt lat="42.73642" lon="-0.46763">
        <ele>2664</ele>
        <time>2018-12-27T04:33:59Z</time>
      </trkpt>
      <trkpt lat="42.73616" lon="-0.4683">
        <ele>2654</ele>
        <time>2018-12-27T04:34:14Z</time>
      </trkpt>
      <trkpt lat="42.73614" lon="-0.46839">
        <ele>2654</ele>
        <time>2018-12-27T04:34:15Z</time>
      </trkpt>
      <trkpt lat="42.73601" lon="-0.46868">
        <ele>2657</ele>
        <time>2018-12-27T04:34:22Z</time>
      </trkpt>
      <trkpt lat="42.73593" lon="-0.46903">
        <ele>2665</ele>
        <time>2018-12-27T04:34:29Z</time>
      </trkpt>
      <trkpt lat="42.73592" lon="-0.46915">
        <ele>2668</ele>
        <time>2018-12-27T04:34:32Z</time>
      </trkpt>
      <trkpt lat="42.73587" lon="-0.46932">
        <ele>2670</ele>
        <time>2018-12-27T04:34:35Z</time>
      </trkpt>
      <trkpt lat="42.73589" lon="-0.46939">
        <ele>2668</ele>
        <time>2018-12-27T04:34:37Z</time>
      </trkpt>
      <trkpt lat="42.73585" lon="-0.46968">
        <ele>2659</ele>
        <time>2018-12-27T04:34:42Z</time>
      </trkpt>
      <trkpt lat="42.73587" lon="-0.46989">
        <ele>2652</ele>
        <time>2018-12-27T04:34:46Z</time>
      </trkpt>
      <trkpt lat="42.73591" lon="-0.47026">
        <ele>2644</ele>
        <time>2018-12-27T04:34:54Z</time>
      </trkpt>
      <trkpt lat="42.73596" lon="-0.47052">
        <ele>2641</ele>
        <time>2018-12-27T04:34:59Z</time>
      </trkpt>
      <trkpt lat="42.736" lon="-0.47088">
        <ele>2645</ele>
        <time>2018-12-27T04:35:06Z</time>
      </trkpt>
      <trkpt lat="42.73604" lon="-0.47093">
        <ele>2645</ele>
        <time>2018-12-27T04:35:08Z</time>
      </trkpt>
      <trkpt lat="42.73606" lon="-0.47101">
        <ele>2646</ele>
        <time>2018-12-27T04:35:09Z</time>
      </trkpt>
      <trkpt lat="42.73609" lon="-0.47134">
        <ele>2641</ele>
        <time>2018-12-27T04:35:16Z</time>
      </trkpt>
      <trkpt lat="42.73618" lon="-0.47164">
        <ele>2638</ele>
        <time>2018-12-27T04:35:22Z</time>
      </trkpt>
      <trkpt lat="42.73632" lon="-0.47189">
        <ele>2632</ele>
        <time>2018-12-27T04:35:28Z</time>
      </trkpt>
      <trkpt lat="42.73634" lon="-0.47209">
        <ele>2625</ele>
        <time>2018-12-27T04:35:32Z</time>
      </trkpt>
      <trkpt lat="42.73641" lon="-0.47236">
        <ele>2619</ele>
        <time>2018-12-27T04:35:38Z</time>
      </trkpt>
      <trkpt lat="42.73636" lon="-0.47255">
        <ele>2614</ele>
        <time>2018-12-27T04:35:42Z</time>
      </trkpt>
      <trkpt lat="42.73642" lon="-0.47303">
        <ele>2608</ele>
        <time>2018-12-27T04:35:51Z</time>
      </trkpt>
      <trkpt lat="42.73655" lon="-0.47348">
        <ele>2604</ele>
        <time>2018-12-27T04:36:01Z</time>
      </trkpt>
      <trkpt lat="42.73671" lon="-0.47438">
        <ele>2593</ele>
        <time>2018-12-27T04:36:19Z</time>
      </trkpt>
      <trkpt lat="42.7368" lon="-0.47468">
        <ele>2591</ele>
        <time>2018-12-27T04:36:25Z</time>
      </trkpt>
      <trkpt lat="42.73688" lon="-0.47491">
        <ele>2591</ele>
        <time>2018-12-27T04:36:30Z</time>
      </trkpt>
      <trkpt lat="42.73698" lon="-0.47582">
        <ele>2585</ele>
        <time>2018-12-27T04:36:48Z</time>
      </trkpt>
      <trkpt lat="42.73698" lon="-0.47616">
        <ele>2585</ele>
        <time>2018-12-27T04:36:55Z</time>
      </trkpt>
      <trkpt lat="42.73701" lon="-0.47646">
        <ele>2589</ele>
        <time>2018-12-27T04:37:01Z</time>
      </trkpt>
      <trkpt lat="42.73704" lon="-0.47661">
        <ele>2593</ele>
        <time>2018-12-27T04:37:04Z</time>
      </trkpt>
      <trkpt lat="42.73697" lon="-0.47692">
        <ele>2592</ele>
        <time>2018-12-27T04:37:10Z</time>
      </trkpt>
      <trkpt lat="42.73701" lon="-0.47707">
        <ele>2594</ele>
        <time>2018-12-27T04:37:13Z</time>
      </trkpt>
      <trkpt lat="42.73699" lon="-0.4775">
        <ele>2594</ele>
        <time>2018-12-27T04:37:22Z</time>
      </trkpt>
      <trkpt lat="42.73696" lon="-0.47774">
        <ele>2595</ele>
        <time>2018-12-27T04:37:27Z</time>
      </trkpt>
      <trkpt lat="42.73696" lon="-0.47804">
        <ele>2598</ele>
        <time>2018-12-27T04:37:33Z</time>
      </trkpt>
      <trkpt lat="42.73701" lon="-0.47858">
        <ele>2602</ele>
        <time>2018-12-27T04:37:43Z</time>
      </trkpt>
      <trkpt lat="42.73704" lon="-0.47942">
        <ele>2588</ele>
        <time>2018-12-27T04:38:00Z</time>
      </trkpt>
      <trkpt lat="42.73711" lon="-0.47955">
        <ele>2586</ele>
        <time>2018-12-27T04:38:03Z</time>
      </trkpt>
      <trkpt lat="42.73714" lon="-0.47981">
        <ele>2582</ele>
        <time>2018-12-27T04:38:08Z</time>
      </trkpt>
      <trkpt lat="42.73723" lon="-0.4802">
        <ele>2575</ele>
        <time>2018-12-27T04:38:16Z</time>
      </trkpt>
      <trkpt lat="42.73738" lon="-0.48072">
        <ele>2569</ele>
        <time>2018-12-27T04:38:27Z</time>
      </trkpt>
      <trkpt lat="42.73751" lon="-0.481">
        <ele>2563</ele>
        <time>2018-12-27T04:38:33Z</time>
      </trkpt>
      <trkpt lat="42.73765" lon="-0.48128">
        <ele>2553</ele>
        <time>2018-12-27T04:38:40Z</time>
      </trkpt>
      <trkpt lat="42.73778" lon="-0.48143">
        <ele>2546</ele>
        <time>2018-12-27T04:38:45Z</time>
      </trkpt>
      <trkpt lat="42.7378" lon="-0.48161">
        <ele>2539</ele>
        <time>2018-12-27T04:38:48Z</time>
      </trkpt>
      <trkpt lat="42.73786" lon="-0.48176">
        <ele>2534</ele>
        <time>2018-12-27T04:38:52Z</time>
      </trkpt>
      <trkpt lat="42.73789" lon="-0.48192">
        <ele>2529</ele>
        <time>2018-12-27T04:38:55Z</time>
      </trkpt>
      <trkpt lat="42.73794" lon="-0.48199">
        <ele>2528</ele>
        <time>2018-12-27T04:38:56Z</time>
      </trkpt>
      <trkpt lat="42.73797" lon="-0.48208">
        <ele>2525</ele>
        <time>2018-12-27T04:38:59Z</time>
      </trkpt>
      <trkpt lat="42.73803" lon="-0.48216">
        <ele>2524</ele>
        <time>2018-12-27T04:39:01Z</time>
      </trkpt>
      <trkpt lat="42.73814" lon="-0.48258">
        <ele>2514</ele>
        <time>2018-12-27T04:39:10Z</time>
      </trkpt>
      <trkpt lat="42.73819" lon="-0.48259">
        <ele>2514</ele>
        <time>2018-12-27T04:39:11Z</time>
      </trkpt>
      <trkpt lat="42.73821" lon="-0.4828">
        <ele>2511</ele>
        <time>2018-12-27T04:39:15Z</time>
      </trkpt>
      <trkpt lat="42.7383" lon="-0.48292">
        <ele>2512</ele>
        <time>2018-12-27T04:39:18Z</time>
      </trkpt>
      <trkpt lat="42.73836" lon="-0.48309">
        <ele>2512</ele>
        <time>2018-12-27T04:39:22Z</time>
      </trkpt>
      <trkpt lat="42.73857" lon="-0.48352">
        <ele>2508</ele>
        <time>2018-12-27T04:39:32Z</time>
      </trkpt>
      <trkpt lat="42.73872" lon="-0.4837">
        <ele>2507</ele>
        <time>2018-12-27T04:39:37Z</time>
      </trkpt>
      <trkpt lat="42.73886" lon="-0.48402">
        <ele>2506</ele>
        <time>2018-12-27T04:39:45Z</time>
      </trkpt>
      <trkpt lat="42.739" lon="-0.48441">
        <ele>2506</ele>
        <time>2018-12-27T04:39:53Z</time>
      </trkpt>
      <trkpt lat="42.73903" lon="-0.48464">
        <ele>2510</ele>
        <time>2018-12-27T04:39:58Z</time>
      </trkpt>
      <trkpt lat="42.73909" lon="-0.48482">
        <ele>2512</ele>
        <time>2018-12-27T04:40:02Z</time>
      </trkpt>
      <trkpt lat="42.73909" lon="-0.48491">
        <ele>2512</ele>
        <time>2018-12-27T04:40:04Z</time>
      </trkpt>
      <trkpt lat="42.73911" lon="-0.48505">
        <ele>2513</ele>
        <time>2018-12-27T04:40:06Z</time>
      </trkpt>
      <trkpt lat="42.7392" lon="-0.48518">
        <ele>2515</ele>
        <time>2018-12-27T04:40:10Z</time>
      </trkpt>
      <trkpt lat="42.73927" lon="-0.48534">
        <ele>2516</ele>
        <time>2018-12-27T04:40:13Z</time>
      </trkpt>
      <trkpt lat="42.73929" lon="-0.48569">
        <ele>2517</ele>
        <time>2018-12-27T04:40:20Z</time>
      </trkpt>
      <trkpt lat="42.73938" lon="-0.48599">
        <ele>2520</ele>
        <time>2018-12-27T04:40:27Z</time>
      </trkpt>
      <trkpt lat="42.73947" lon="-0.48626">
        <ele>2523</ele>
        <time>2018-12-27T04:40:32Z</time>
      </trkpt>
      <trkpt lat="42.73953" lon="-0.48632">
        <ele>2525</ele>
        <time>2018-12-27T04:40:34Z</time>
      </trkpt>
      <trkpt lat="42.73959" lon="-0.48652">
        <ele>2529</ele>
        <time>2018-12-27T04:40:39Z</time>
      </trkpt>
      <trkpt lat="42.73965" lon="-0.4866">
        <ele>2532</ele>
        <time>2018-12-27T04:40:41Z</time>
      </trkpt>
      <trkpt lat="42.73975" lon="-0.48665">
        <ele>2537</ele>
        <time>2018-12-27T04:40:44Z</time>
      </trkpt>
      <trkpt lat="42.7398" lon="-0.48676">
        <ele>2539</ele>
        <time>2018-12-27T04:40:46Z</time>
      </trkpt>
      <trkpt lat="42.73986" lon="-0.48682">
        <ele>2541</ele>
        <time>2018-12-27T04:40:48Z</time>
      </trkpt>
      <trkpt lat="42.73987" lon="-0.48694">
        <ele>2542</ele>
        <time>2018-12-27T04:40:51Z</time>
      </trkpt>
      <trkpt lat="42.73997" lon="-0.48695">
        <ele>2547</ele>
        <time>2018-12-27T04:40:53Z</time>
      </trkpt>
      <trkpt lat="42.74" lon="-0.48689">
        <ele>2547</ele>
        <time>2018-12-27T04:40:55Z</time>
      </trkpt>
      <trkpt lat="42.74006" lon="-0.48695">
        <ele>2547</ele>
        <time>2018-12-27T04:40:57Z</time>
      </trkpt>
      <trkpt lat="42.7401" lon="-0.48703">
        <ele>2548</ele>
        <time>2018-12-27T04:40:59Z</time>
      </trkpt>
      <trkpt lat="42.74022" lon="-0.48718">
        <ele>2551</ele>
        <time>2018-12-27T04:41:03Z</time>
      </trkpt>
      <trkpt lat="42.7403" lon="-0.48724">
        <ele>2552</ele>
        <time>2018-12-27T04:41:05Z</time>
      </trkpt>
      <trkpt lat="42.74035" lon="-0.48722">
        <ele>2549</ele>
        <time>2018-12-27T04:41:07Z</time>
      </trkpt>
      <trkpt lat="42.74041" lon="-0.48744">
        <ele>2551</ele>
        <time>2018-12-27T04:41:11Z</time>
      </trkpt>
      <trkpt lat="42.74044" lon="-0.4877">
        <ele>2553</ele>
        <time>2018-12-27T04:41:16Z</time>
      </trkpt>
      <trkpt lat="42.74041" lon="-0.48782">
        <ele>2553</ele>
        <time>2018-12-27T04:41:19Z</time>
      </trkpt>
      <trkpt lat="42.74045" lon="-0.48801">
        <ele>2549</ele>
        <time>2018-12-27T04:41:23Z</time>
      </trkpt>
      <trkpt lat="42.74033" lon="-0.48811">
        <ele>2546</ele>
        <time>2018-12-27T04:41:26Z</time>
      </trkpt>
      <trkpt lat="42.74022" lon="-0.48825">
        <ele>2538</ele>
        <time>2018-12-27T04:41:30Z</time>
      </trkpt>
      <trkpt lat="42.74021" lon="-0.48833">
        <ele>2534</ele>
        <time>2018-12-27T04:41:32Z</time>
      </trkpt>
      <trkpt lat="42.74016" lon="-0.48844">
        <ele>2529</ele>
        <time>2018-12-27T04:41:35Z</time>
      </trkpt>
      <trkpt lat="42.74024" lon="-0.48843">
        <ele>2532</ele>
        <time>2018-12-27T04:41:37Z</time>
      </trkpt>
      <trkpt lat="42.74018" lon="-0.48858">
        <ele>2525</ele>
        <time>2018-12-27T04:41:40Z</time>
      </trkpt>
      <trkpt lat="42.74012" lon="-0.48866">
        <ele>2521</ele>
        <time>2018-12-27T04:41:42Z</time>
      </trkpt>
      <trkpt lat="42.74016" lon="-0.48872">
        <ele>2519</ele>
        <time>2018-12-27T04:41:44Z</time>
      </trkpt>
      <trkpt lat="42.74026" lon="-0.48862">
        <ele>2526</ele>
        <time>2018-12-27T04:41:47Z</time>
      </trkpt>
      <trkpt lat="42.74036" lon="-0.48863">
        <ele>2523</ele>
        <time>2018-12-27T04:41:50Z</time>
      </trkpt>
      <trkpt lat="42.74044" lon="-0.48862">
        <ele>2520</ele>
        <time>2018-12-27T04:41:52Z</time>
      </trkpt>
      <trkpt lat="42.74044" lon="-0.4887">
        <ele>2516</ele>
        <time>2018-12-27T04:41:53Z</time>
      </trkpt>
      <trkpt lat="42.74067" lon="-0.48859">
        <ele>2512</ele>
        <time>2018-12-27T04:42:00Z</time>
      </trkpt>
      <trkpt lat="42.74111" lon="-0.48854">
        <ele>2494</ele>
        <time>2018-12-27T04:42:12Z</time>
      </trkpt>
      <trkpt lat="42.74127" lon="-0.48854">
        <ele>2487</ele>
        <time>2018-12-27T04:42:16Z</time>
      </trkpt>
      <trkpt lat="42.74132" lon="-0.48851">
        <ele>2486</ele>
        <time>2018-12-27T04:42:17Z</time>
      </trkpt>
      <trkpt lat="42.74147" lon="-0.48849">
        <ele>2481</ele>
        <time>2018-12-27T04:42:21Z</time>
      </trkpt>
      <trkpt lat="42.74166" lon="-0.48844">
        <ele>2475</ele>
        <time>2018-12-27T04:42:26Z</time>
      </trkpt>
      <trkpt lat="42.74211" lon="-0.48837">
        <ele>2461</ele>
        <time>2018-12-27T04:42:39Z</time>
      </trkpt>
      <trkpt lat="42.74241" lon="-0.48829">
        <ele>2453</ele>
        <time>2018-12-27T04:42:47Z</time>
      </trkpt>
      <trkpt lat="42.74253" lon="-0.48829">
        <ele>2450</ele>
        <time>2018-12-27T04:42:50Z</time>
      </trkpt>
      <trkpt lat="42.74265" lon="-0.48832">
        <ele>2448</ele>
        <time>2018-12-27T04:42:53Z</time>
      </trkpt>
      <trkpt lat="42.74282" lon="-0.48832">
        <ele>2445</ele>
        <time>2018-12-27T04:42:57Z</time>
      </trkpt>
      <trkpt lat="42.74304" lon="-0.48837">
        <ele>2440</ele>
        <time>2018-12-27T04:43:04Z</time>
      </trkpt>
      <trkpt lat="42.74327" lon="-0.48833">
        <ele>2441</ele>
        <time>2018-12-27T04:43:10Z</time>
      </trkpt>
      <trkpt lat="42.74333" lon="-0.48835">
        <ele>2441</ele>
        <time>2018-12-27T04:43:11Z</time>
      </trkpt>
      <trkpt lat="42.74334" lon="-0.48828">
        <ele>2442</ele>
        <time>2018-12-27T04:43:13Z</time>
      </trkpt>
      <trkpt lat="42.74342" lon="-0.48809">
        <ele>2443</ele>
        <time>2018-12-27T04:43:17Z</time>
      </trkpt>
      <trkpt lat="42.74342" lon="-0.48802">
        <ele>2441</ele>
        <time>2018-12-27T04:43:18Z</time>
      </trkpt>
      <trkpt lat="42.74351" lon="-0.48778">
        <ele>2430</ele>
        <time>2018-12-27T04:43:24Z</time>
      </trkpt>
      <trkpt lat="42.74356" lon="-0.48772">
        <ele>2429</ele>
        <time>2018-12-27T04:43:25Z</time>
      </trkpt>
      <trkpt lat="42.74359" lon="-0.48764">
        <ele>2425</ele>
        <time>2018-12-27T04:43:27Z</time>
      </trkpt>
      <trkpt lat="42.74365" lon="-0.48753">
        <ele>2423</ele>
        <time>2018-12-27T04:43:30Z</time>
      </trkpt>
      <trkpt lat="42.74372" lon="-0.48726">
        <ele>2416</ele>
        <time>2018-12-27T04:43:36Z</time>
      </trkpt>
      <trkpt lat="42.7438" lon="-0.48707">
        <ele>2412</ele>
        <time>2018-12-27T04:43:40Z</time>
      </trkpt>
      <trkpt lat="42.74388" lon="-0.48674">
        <ele>2400</ele>
        <time>2018-12-27T04:43:47Z</time>
      </trkpt>
      <trkpt lat="42.74386" lon="-0.48666">
        <ele>2396</ele>
        <time>2018-12-27T04:43:48Z</time>
      </trkpt>
      <trkpt lat="42.74386" lon="-0.48657">
        <ele>2390</ele>
        <time>2018-12-27T04:43:50Z</time>
      </trkpt>
      <trkpt lat="42.74362" lon="-0.48666">
        <ele>2385</ele>
        <time>2018-12-27T04:43:57Z</time>
      </trkpt>
      <trkpt lat="42.74353" lon="-0.48664">
        <ele>2383</ele>
        <time>2018-12-27T04:43:59Z</time>
      </trkpt>
      <trkpt lat="42.74348" lon="-0.48658">
        <ele>2380</ele>
        <time>2018-12-27T04:44:01Z</time>
      </trkpt>
      <trkpt lat="42.74342" lon="-0.48656">
        <ele>2379</ele>
        <time>2018-12-27T04:44:02Z</time>
      </trkpt>
      <trkpt lat="42.74338" lon="-0.48652">
        <ele>2377</ele>
        <time>2018-12-27T04:44:04Z</time>
      </trkpt>
      <trkpt lat="42.74336" lon="-0.48645">
        <ele>2374</ele>
        <time>2018-12-27T04:44:05Z</time>
      </trkpt>
      <trkpt lat="42.74325" lon="-0.4863">
        <ele>2369</ele>
        <time>2018-12-27T04:44:10Z</time>
      </trkpt>
      <trkpt lat="42.74315" lon="-0.48601">
        <ele>2355</ele>
        <time>2018-12-27T04:44:16Z</time>
      </trkpt>
      <trkpt lat="42.74315" lon="-0.4859">
        <ele>2349</ele>
        <time>2018-12-27T04:44:18Z</time>
      </trkpt>
      <trkpt lat="42.74309" lon="-0.48577">
        <ele>2342</ele>
        <time>2018-12-27T04:44:21Z</time>
      </trkpt>
      <trkpt lat="42.74315" lon="-0.48571">
        <ele>2339</ele>
        <time>2018-12-27T04:44:23Z</time>
      </trkpt>
      <trkpt lat="42.7431" lon="-0.48563">
        <ele>2335</ele>
        <time>2018-12-27T04:44:25Z</time>
      </trkpt>
      <trkpt lat="42.74307" lon="-0.48542">
        <ele>2325</ele>
        <time>2018-12-27T04:44:29Z</time>
      </trkpt>
      <trkpt lat="42.74312" lon="-0.48531">
        <ele>2321</ele>
        <time>2018-12-27T04:44:32Z</time>
      </trkpt>
      <trkpt lat="42.74314" lon="-0.48517">
        <ele>2317</ele>
        <time>2018-12-27T04:44:35Z</time>
      </trkpt>
      <trkpt lat="42.74311" lon="-0.48502">
        <ele>2313</ele>
        <time>2018-12-27T04:44:38Z</time>
      </trkpt>
      <trkpt lat="42.74311" lon="-0.48489">
        <ele>2311</ele>
        <time>2018-12-27T04:44:40Z</time>
      </trkpt>
      <trkpt lat="42.74312" lon="-0.48466">
        <ele>2308</ele>
        <time>2018-12-27T04:44:45Z</time>
      </trkpt>
      <trkpt lat="42.74316" lon="-0.48455">
        <ele>2306</ele>
        <time>2018-12-27T04:44:47Z</time>
      </trkpt>
      <trkpt lat="42.74307" lon="-0.48427">
        <ele>2302</ele>
        <time>2018-12-27T04:44:53Z</time>
      </trkpt>
      <trkpt lat="42.74306" lon="-0.48399">
        <ele>2292</ele>
        <time>2018-12-27T04:44:58Z</time>
      </trkpt>
      <trkpt lat="42.74307" lon="-0.48386">
        <ele>2287</ele>
        <time>2018-12-27T04:45:01Z</time>
      </trkpt>
      <trkpt lat="42.74291" lon="-0.48354">
        <ele>2275</ele>
        <time>2018-12-27T04:45:08Z</time>
      </trkpt>
      <trkpt lat="42.74284" lon="-0.48317">
        <ele>2269</ele>
        <time>2018-12-27T04:45:16Z</time>
      </trkpt>
      <trkpt lat="42.74276" lon="-0.48303">
        <ele>2268</ele>
        <time>2018-12-27T04:45:19Z</time>
      </trkpt>
      <trkpt lat="42.74262" lon="-0.48301">
        <ele>2270</ele>
        <time>2018-12-27T04:45:23Z</time>
      </trkpt>
      <trkpt lat="42.74256" lon="-0.48302">
        <ele>2271</ele>
        <time>2018-12-27T04:45:25Z</time>
      </trkpt>
      <trkpt lat="42.7425" lon="-0.483">
        <ele>2272</ele>
        <time>2018-12-27T04:45:26Z</time>
      </trkpt>
      <trkpt lat="42.74241" lon="-0.48303">
        <ele>2275</ele>
        <time>2018-12-27T04:45:29Z</time>
      </trkpt>
      <trkpt lat="42.74236" lon="-0.48301">
        <ele>2276</ele>
        <time>2018-12-27T04:45:30Z</time>
      </trkpt>
      <trkpt lat="42.74232" lon="-0.48297">
        <ele>2275</ele>
        <time>2018-12-27T04:45:32Z</time>
      </trkpt>
      <trkpt lat="42.74236" lon="-0.48283">
        <ele>2269</ele>
        <time>2018-12-27T04:45:35Z</time>
      </trkpt>
      <trkpt lat="42.74243" lon="-0.48278">
        <ele>2267</ele>
        <time>2018-12-27T04:45:37Z</time>
      </trkpt>
      <trkpt lat="42.7425" lon="-0.48269">
        <ele>2264</ele>
        <time>2018-12-27T04:45:39Z</time>
      </trkpt>
      <trkpt lat="42.74256" lon="-0.48249">
        <ele>2258</ele>
        <time>2018-12-27T04:45:44Z</time>
      </trkpt>
      <trkpt lat="42.74267" lon="-0.48233">
        <ele>2254</ele>
        <time>2018-12-27T04:45:48Z</time>
      </trkpt>
      <trkpt lat="42.74268" lon="-0.48222">
        <ele>2251</ele>
        <time>2018-12-27T04:45:50Z</time>
      </trkpt>
      <trkpt lat="42.74272" lon="-0.48216">
        <ele>2250</ele>
        <time>2018-12-27T04:45:52Z</time>
      </trkpt>
      <trkpt lat="42.74278" lon="-0.48204">
        <ele>2245</ele>
        <time>2018-12-27T04:45:55Z</time>
      </trkpt>
      <trkpt lat="42.74277" lon="-0.48185">
        <ele>2237</ele>
        <time>2018-12-27T04:45:58Z</time>
      </trkpt>
      <trkpt lat="42.74282" lon="-0.48179">
        <ele>2234</ele>
        <time>2018-12-27T04:46:00Z</time>
      </trkpt>
      <trkpt lat="42.74283" lon="-0.48171">
        <ele>2230</ele>
        <time>2018-12-27T04:46:02Z</time>
      </trkpt>
      <trkpt lat="42.74292" lon="-0.48164">
        <ele>2228</ele>
        <time>2018-12-27T04:46:04Z</time>
      </trkpt>
      <trkpt lat="42.74296" lon="-0.48145">
        <ele>2222</ele>
        <time>2018-12-27T04:46:08Z</time>
      </trkpt>
      <trkpt lat="42.74306" lon="-0.48114">
        <ele>2212</ele>
        <time>2018-12-27T04:46:15Z</time>
      </trkpt>
      <trkpt lat="42.74332" lon="-0.48104">
        <ele>2212</ele>
        <time>2018-12-27T04:46:22Z</time>
      </trkpt>
      <trkpt lat="42.74349" lon="-0.481">
        <ele>2206</ele>
        <time>2018-12-27T04:46:27Z</time>
      </trkpt>
      <trkpt lat="42.74359" lon="-0.481">
        <ele>2203</ele>
        <time>2018-12-27T04:46:29Z</time>
      </trkpt>
      <trkpt lat="42.74363" lon="-0.48096">
        <ele>2201</ele>
        <time>2018-12-27T04:46:31Z</time>
      </trkpt>
      <trkpt lat="42.7437" lon="-0.48084">
        <ele>2198</ele>
        <time>2018-12-27T04:46:34Z</time>
      </trkpt>
      <trkpt lat="42.74374" lon="-0.48062">
        <ele>2189</ele>
        <time>2018-12-27T04:46:38Z</time>
      </trkpt>
      <trkpt lat="42.74383" lon="-0.48039">
        <ele>2182</ele>
        <time>2018-12-27T04:46:43Z</time>
      </trkpt>
      <trkpt lat="42.744" lon="-0.48021">
        <ele>2178</ele>
        <time>2018-12-27T04:46:49Z</time>
      </trkpt>
      <trkpt lat="42.74448" lon="-0.48012">
        <ele>2174</ele>
        <time>2018-12-27T04:47:02Z</time>
      </trkpt>
      <trkpt lat="42.7446" lon="-0.48014">
        <ele>2172</ele>
        <time>2018-12-27T04:47:05Z</time>
      </trkpt>
      <trkpt lat="42.74471" lon="-0.48018">
        <ele>2172</ele>
        <time>2018-12-27T04:47:08Z</time>
      </trkpt>
      <trkpt lat="42.74486" lon="-0.48019">
        <ele>2169</ele>
        <time>2018-12-27T04:47:12Z</time>
      </trkpt>
      <trkpt lat="42.74491" lon="-0.48017">
        <ele>2167</ele>
        <time>2018-12-27T04:47:14Z</time>
      </trkpt>
      <trkpt lat="42.74526" lon="-0.47972">
        <ele>2156</ele>
        <time>2018-12-27T04:47:26Z</time>
      </trkpt>
      <trkpt lat="42.74543" lon="-0.47937">
        <ele>2159</ele>
        <time>2018-12-27T04:47:35Z</time>
      </trkpt>
      <trkpt lat="42.74547" lon="-0.47925">
        <ele>2160</ele>
        <time>2018-12-27T04:47:37Z</time>
      </trkpt>
      <trkpt lat="42.74545" lon="-0.47912">
        <ele>2161</ele>
        <time>2018-12-27T04:47:40Z</time>
      </trkpt>
      <trkpt lat="42.74536" lon="-0.47886">
        <ele>2160</ele>
        <time>2018-12-27T04:47:46Z</time>
      </trkpt>
      <trkpt lat="42.74534" lon="-0.47863">
        <ele>2160</ele>
        <time>2018-12-27T04:47:50Z</time>
      </trkpt>
      <trkpt lat="42.7454" lon="-0.47853">
        <ele>2163</ele>
        <time>2018-12-27T04:47:53Z</time>
      </trkpt>
      <trkpt lat="42.74544" lon="-0.4784">
        <ele>2166</ele>
        <time>2018-12-27T04:47:55Z</time>
      </trkpt>
      <trkpt lat="42.74549" lon="-0.47841">
        <ele>2166</ele>
        <time>2018-12-27T04:47:57Z</time>
      </trkpt>
      <trkpt lat="42.7456" lon="-0.47835">
        <ele>2169</ele>
        <time>2018-12-27T04:48:00Z</time>
      </trkpt>
      <trkpt lat="42.7457" lon="-0.47825">
        <ele>2173</ele>
        <time>2018-12-27T04:48:03Z</time>
      </trkpt>
      <trkpt lat="42.74576" lon="-0.47814">
        <ele>2176</ele>
        <time>2018-12-27T04:48:06Z</time>
      </trkpt>
      <trkpt lat="42.7458" lon="-0.47809">
        <ele>2177</ele>
        <time>2018-12-27T04:48:08Z</time>
      </trkpt>
      <trkpt lat="42.7459" lon="-0.47803">
        <ele>2180</ele>
        <time>2018-12-27T04:48:10Z</time>
      </trkpt>
      <trkpt lat="42.74604" lon="-0.47785">
        <ele>2185</ele>
        <time>2018-12-27T04:48:15Z</time>
      </trkpt>
      <trkpt lat="42.7464" lon="-0.47749">
        <ele>2178</ele>
        <time>2018-12-27T04:48:27Z</time>
      </trkpt>
      <trkpt lat="42.74653" lon="-0.47739">
        <ele>2172</ele>
        <time>2018-12-27T04:48:31Z</time>
      </trkpt>
      <trkpt lat="42.74661" lon="-0.4773">
        <ele>2168</ele>
        <time>2018-12-27T04:48:34Z</time>
      </trkpt>
      <trkpt lat="42.74664" lon="-0.47722">
        <ele>2166</ele>
        <time>2018-12-27T04:48:36Z</time>
      </trkpt>
      <trkpt lat="42.74671" lon="-0.47718">
        <ele>2164</ele>
        <time>2018-12-27T04:48:38Z</time>
      </trkpt>
      <trkpt lat="42.74677" lon="-0.47709">
        <ele>2162</ele>
        <time>2018-12-27T04:48:40Z</time>
      </trkpt>
      <trkpt lat="42.74686" lon="-0.47704">
        <ele>2161</ele>
        <time>2018-12-27T04:48:43Z</time>
      </trkpt>
      <trkpt lat="42.74691" lon="-0.47701">
        <ele>2159</ele>
        <time>2018-12-27T04:48:44Z</time>
      </trkpt>
      <trkpt lat="42.747" lon="-0.47706">
        <ele>2157</ele>
        <time>2018-12-27T04:48:47Z</time>
      </trkpt>
      <trkpt lat="42.74706" lon="-0.47706">
        <ele>2155</ele>
        <time>2018-12-27T04:48:49Z</time>
      </trkpt>
      <trkpt lat="42.74743" lon="-0.4771">
        <ele>2141</ele>
        <time>2018-12-27T04:48:58Z</time>
      </trkpt>
      <trkpt lat="42.74748" lon="-0.47713">
        <ele>2138</ele>
        <time>2018-12-27T04:49:00Z</time>
      </trkpt>
      <trkpt lat="42.74754" lon="-0.47742">
        <ele>2132</ele>
        <time>2018-12-27T04:49:06Z</time>
      </trkpt>
      <trkpt lat="42.74752" lon="-0.47773">
        <ele>2131</ele>
        <time>2018-12-27T04:49:12Z</time>
      </trkpt>
      <trkpt lat="42.74757" lon="-0.47803">
        <ele>2124</ele>
        <time>2018-12-27T04:49:18Z</time>
      </trkpt>
      <trkpt lat="42.74765" lon="-0.47821">
        <ele>2120</ele>
        <time>2018-12-27T04:49:22Z</time>
      </trkpt>
      <trkpt lat="42.74779" lon="-0.4784">
        <ele>2114</ele>
        <time>2018-12-27T04:49:27Z</time>
      </trkpt>
      <trkpt lat="42.74796" lon="-0.47883">
        <ele>2107</ele>
        <time>2018-12-27T04:49:37Z</time>
      </trkpt>
      <trkpt lat="42.74795" lon="-0.47907">
        <ele>2114</ele>
        <time>2018-12-27T04:49:42Z</time>
      </trkpt>
      <trkpt lat="42.74806" lon="-0.4793">
        <ele>2113</ele>
        <time>2018-12-27T04:49:47Z</time>
      </trkpt>
      <trkpt lat="42.74816" lon="-0.47956">
        <ele>2115</ele>
        <time>2018-12-27T04:49:53Z</time>
      </trkpt>
      <trkpt lat="42.7482" lon="-0.47962">
        <ele>2114</ele>
        <time>2018-12-27T04:49:54Z</time>
      </trkpt>
      <trkpt lat="42.74829" lon="-0.47958">
        <ele>2109</ele>
        <time>2018-12-27T04:49:57Z</time>
      </trkpt>
      <trkpt lat="42.7483" lon="-0.47951">
        <ele>2107</ele>
        <time>2018-12-27T04:49:58Z</time>
      </trkpt>
      <trkpt lat="42.74835" lon="-0.47955">
        <ele>2105</ele>
        <time>2018-12-27T04:50:00Z</time>
      </trkpt>
      <trkpt lat="42.74843" lon="-0.47941">
        <ele>2097</ele>
        <time>2018-12-27T04:50:03Z</time>
      </trkpt>
      <trkpt lat="42.74847" lon="-0.47942">
        <ele>2094</ele>
        <time>2018-12-27T04:50:04Z</time>
      </trkpt>
      <trkpt lat="42.74852" lon="-0.47936">
        <ele>2090</ele>
        <time>2018-12-27T04:50:06Z</time>
      </trkpt>
      <trkpt lat="42.74856" lon="-0.47943">
        <ele>2087</ele>
        <time>2018-12-27T04:50:07Z</time>
      </trkpt>
      <trkpt lat="42.74859" lon="-0.47952">
        <ele>2088</ele>
        <time>2018-12-27T04:50:09Z</time>
      </trkpt>
      <trkpt lat="42.74863" lon="-0.47944">
        <ele>2083</ele>
        <time>2018-12-27T04:50:11Z</time>
      </trkpt>
      <trkpt lat="42.74873" lon="-0.47938">
        <ele>2081</ele>
        <time>2018-12-27T04:50:14Z</time>
      </trkpt>
      <trkpt lat="42.74881" lon="-0.47943">
        <ele>2081</ele>
        <time>2018-12-27T04:50:16Z</time>
      </trkpt>
      <trkpt lat="42.74884" lon="-0.47953">
        <ele>2082</ele>
        <time>2018-12-27T04:50:19Z</time>
      </trkpt>
      <trkpt lat="42.74891" lon="-0.47962">
        <ele>2081</ele>
        <time>2018-12-27T04:50:21Z</time>
      </trkpt>
      <trkpt lat="42.74898" lon="-0.47975">
        <ele>2080</ele>
        <time>2018-12-27T04:50:24Z</time>
      </trkpt>
      <trkpt lat="42.7491" lon="-0.47999">
        <ele>2079</ele>
        <time>2018-12-27T04:50:30Z</time>
      </trkpt>
      <trkpt lat="42.74916" lon="-0.48001">
        <ele>2077</ele>
        <time>2018-12-27T04:50:32Z</time>
      </trkpt>
      <trkpt lat="42.74926" lon="-0.48009">
        <ele>2069</ele>
        <time>2018-12-27T04:50:35Z</time>
      </trkpt>
      <trkpt lat="42.74938" lon="-0.48023">
        <ele>2062</ele>
        <time>2018-12-27T04:50:39Z</time>
      </trkpt>
      <trkpt lat="42.74958" lon="-0.4804">
        <ele>2057</ele>
        <time>2018-12-27T04:50:45Z</time>
      </trkpt>
      <trkpt lat="42.74965" lon="-0.4803">
        <ele>2050</ele>
        <time>2018-12-27T04:50:48Z</time>
      </trkpt>
      <trkpt lat="42.74971" lon="-0.48029">
        <ele>2047</ele>
        <time>2018-12-27T04:50:49Z</time>
      </trkpt>
      <trkpt lat="42.74976" lon="-0.48023">
        <ele>2038</ele>
        <time>2018-12-27T04:50:51Z</time>
      </trkpt>
      <trkpt lat="42.74981" lon="-0.48028">
        <ele>2033</ele>
        <time>2018-12-27T04:50:53Z</time>
      </trkpt>
      <trkpt lat="42.74983" lon="-0.4804">
        <ele>2034</ele>
        <time>2018-12-27T04:50:55Z</time>
      </trkpt>
      <trkpt lat="42.75001" lon="-0.48056">
        <ele>2022</ele>
        <time>2018-12-27T04:51:01Z</time>
      </trkpt>
      <trkpt lat="42.75019" lon="-0.48055">
        <ele>1997</ele>
        <time>2018-12-27T04:51:06Z</time>
      </trkpt>
      <trkpt lat="42.7505" lon="-0.4806">
        <ele>1969</ele>
        <time>2018-12-27T04:51:14Z</time>
      </trkpt>
      <trkpt lat="42.7506" lon="-0.48064">
        <ele>1964</ele>
        <time>2018-12-27T04:51:17Z</time>
      </trkpt>
      <trkpt lat="42.7507" lon="-0.48064">
        <ele>1960</ele>
        <time>2018-12-27T04:51:19Z</time>
      </trkpt>
      <trkpt lat="42.75108" lon="-0.48073">
        <ele>1944</ele>
        <time>2018-12-27T04:51:30Z</time>
      </trkpt>
      <trkpt lat="42.7512" lon="-0.48098">
        <ele>1956</ele>
        <time>2018-12-27T04:51:36Z</time>
      </trkpt>
      <trkpt lat="42.75163" lon="-0.48109">
        <ele>1947</ele>
        <time>2018-12-27T04:51:48Z</time>
      </trkpt>
      <trkpt lat="42.75191" lon="-0.48101">
        <ele>1946</ele>
        <time>2018-12-27T04:51:55Z</time>
      </trkpt>
      <trkpt lat="42.75219" lon="-0.48084">
        <ele>1939</ele>
        <time>2018-12-27T04:52:03Z</time>
      </trkpt>
      <trkpt lat="42.75233" lon="-0.48078">
        <ele>1937</ele>
        <time>2018-12-27T04:52:07Z</time>
      </trkpt>
      <trkpt lat="42.75257" lon="-0.4807">
        <ele>1932</ele>
        <time>2018-12-27T04:52:14Z</time>
      </trkpt>
      <trkpt lat="42.7527" lon="-0.48068">
        <ele>1930</ele>
        <time>2018-12-27T04:52:17Z</time>
      </trkpt>
      <trkpt lat="42.75281" lon="-0.48071">
        <ele>1930</ele>
        <time>2018-12-27T04:52:20Z</time>
      </trkpt>
      <trkpt lat="42.75299" lon="-0.4807">
        <ele>1922</ele>
        <time>2018-12-27T04:52:25Z</time>
      </trkpt>
      <trkpt lat="42.75315" lon="-0.48078">
        <ele>1918</ele>
        <time>2018-12-27T04:52:30Z</time>
      </trkpt>
      <trkpt lat="42.75333" lon="-0.48095">
        <ele>1917</ele>
        <time>2018-12-27T04:52:35Z</time>
      </trkpt>
      <trkpt lat="42.75351" lon="-0.48119">
        <ele>1911</ele>
        <time>2018-12-27T04:52:42Z</time>
      </trkpt>
      <trkpt lat="42.75358" lon="-0.48123">
        <ele>1904</ele>
        <time>2018-12-27T04:52:44Z</time>
      </trkpt>
      <trkpt lat="42.75368" lon="-0.48122">
        <ele>1899</ele>
        <time>2018-12-27T04:52:47Z</time>
      </trkpt>
      <trkpt lat="42.75373" lon="-0.4812">
        <ele>1898</ele>
        <time>2018-12-27T04:52:48Z</time>
      </trkpt>
      <trkpt lat="42.75376" lon="-0.48114">
        <ele>1897</ele>
        <time>2018-12-27T04:52:50Z</time>
      </trkpt>
      <trkpt lat="42.75351" lon="-0.48066">
        <ele>1890</ele>
        <time>2018-12-27T04:53:01Z</time>
      </trkpt>
      <trkpt lat="42.75336" lon="-0.48049">
        <ele>1883</ele>
        <time>2018-12-27T04:53:06Z</time>
      </trkpt>
      <trkpt lat="42.75315" lon="-0.48034">
        <ele>1890</ele>
        <time>2018-12-27T04:53:13Z</time>
      </trkpt>
      <trkpt lat="42.75295" lon="-0.48005">
        <ele>1884</ele>
        <time>2018-12-27T04:53:21Z</time>
      </trkpt>
      <trkpt lat="42.75275" lon="-0.48">
        <ele>1887</ele>
        <time>2018-12-27T04:53:26Z</time>
      </trkpt>
      <trkpt lat="42.7524" lon="-0.47985">
        <ele>1869</ele>
        <time>2018-12-27T04:53:36Z</time>
      </trkpt>
      <trkpt lat="42.75208" lon="-0.47992">
        <ele>1875</ele>
        <time>2018-12-27T04:53:44Z</time>
      </trkpt>
      <trkpt lat="42.75199" lon="-0.47999">
        <ele>1878</ele>
        <time>2018-12-27T04:53:47Z</time>
      </trkpt>
      <trkpt lat="42.75184" lon="-0.47998">
        <ele>1878</ele>
        <time>2018-12-27T04:53:51Z</time>
      </trkpt>
      <trkpt lat="42.75169" lon="-0.48005">
        <ele>1884</ele>
        <time>2018-12-27T04:53:55Z</time>
      </trkpt>
      <trkpt lat="42.75158" lon="-0.48003">
        <ele>1886</ele>
        <time>2018-12-27T04:53:58Z</time>
      </trkpt>
      <trkpt lat="42.75114" lon="-0.47984">
        <ele>1885</ele>
        <time>2018-12-27T04:54:11Z</time>
      </trkpt>
      <trkpt lat="42.75109" lon="-0.47983">
        <ele>1886</ele>
        <time>2018-12-27T04:54:12Z</time>
      </trkpt>
      <trkpt lat="42.751" lon="-0.47986">
        <ele>1892</ele>
        <time>2018-12-27T04:54:15Z</time>
      </trkpt>
      <trkpt lat="42.75089" lon="-0.4797">
        <ele>1889</ele>
        <time>2018-12-27T04:54:19Z</time>
      </trkpt>
      <trkpt lat="42.75074" lon="-0.47967">
        <ele>1900</ele>
        <time>2018-12-27T04:54:23Z</time>
      </trkpt>
      <trkpt lat="42.75076" lon="-0.4793">
        <ele>1879</ele>
        <time>2018-12-27T04:54:30Z</time>
      </trkpt>
      <trkpt lat="42.75067" lon="-0.47907">
        <ele>1877</ele>
        <time>2018-12-27T04:54:35Z</time>
      </trkpt>
      <trkpt lat="42.75085" lon="-0.47912">
        <ele>1865</ele>
        <time>2018-12-27T04:54:40Z</time>
      </trkpt>
      <trkpt lat="42.75098" lon="-0.47927">
        <ele>1867</ele>
        <time>2018-12-27T04:54:45Z</time>
      </trkpt>
      <trkpt lat="42.75097" lon="-0.47906">
        <ele>1859</ele>
        <time>2018-12-27T04:54:49Z</time>
      </trkpt>
      <trkpt lat="42.75093" lon="-0.47886">
        <ele>1854</ele>
        <time>2018-12-27T04:54:53Z</time>
      </trkpt>
      <trkpt lat="42.75092" lon="-0.47866">
        <ele>1849</ele>
        <time>2018-12-27T04:54:57Z</time>
      </trkpt>
      <trkpt lat="42.75109" lon="-0.47883">
        <ele>1847</ele>
        <time>2018-12-27T04:55:03Z</time>
      </trkpt>
      <trkpt lat="42.7513" lon="-0.47894">
        <ele>1841</ele>
        <time>2018-12-27T04:55:09Z</time>
      </trkpt>
      <trkpt lat="42.75127" lon="-0.47863">
        <ele>1835</ele>
        <time>2018-12-27T04:55:15Z</time>
      </trkpt>
      <trkpt lat="42.7512" lon="-0.47837">
        <ele>1833</ele>
        <time>2018-12-27T04:55:20Z</time>
      </trkpt>
      <trkpt lat="42.75121" lon="-0.47819">
        <ele>1830</ele>
        <time>2018-12-27T04:55:24Z</time>
      </trkpt>
      <trkpt lat="42.75141" lon="-0.47841">
        <ele>1824</ele>
        <time>2018-12-27T04:55:31Z</time>
      </trkpt>
      <trkpt lat="42.75147" lon="-0.47845">
        <ele>1824</ele>
        <time>2018-12-27T04:55:32Z</time>
      </trkpt>
      <trkpt lat="42.75146" lon="-0.47828">
        <ele>1820</ele>
        <time>2018-12-27T04:55:36Z</time>
      </trkpt>
      <trkpt lat="42.75143" lon="-0.47814">
        <ele>1818</ele>
        <time>2018-12-27T04:55:38Z</time>
      </trkpt>
      <trkpt lat="42.75144" lon="-0.47802">
        <ele>1815</ele>
        <time>2018-12-27T04:55:41Z</time>
      </trkpt>
      <trkpt lat="42.75148" lon="-0.47793">
        <ele>1812</ele>
        <time>2018-12-27T04:55:43Z</time>
      </trkpt>
      <trkpt lat="42.75157" lon="-0.47801">
        <ele>1811</ele>
        <time>2018-12-27T04:55:46Z</time>
      </trkpt>
      <trkpt lat="42.75162" lon="-0.47797">
        <ele>1809</ele>
        <time>2018-12-27T04:55:47Z</time>
      </trkpt>
      <trkpt lat="42.75169" lon="-0.4775">
        <ele>1806</ele>
        <time>2018-12-27T04:55:57Z</time>
      </trkpt>
      <trkpt lat="42.75169" lon="-0.47723">
        <ele>1809</ele>
        <time>2018-12-27T04:56:02Z</time>
      </trkpt>
      <trkpt lat="42.75197" lon="-0.4767">
        <ele>1806</ele>
        <time>2018-12-27T04:56:15Z</time>
      </trkpt>
      <trkpt lat="42.75208" lon="-0.47672">
        <ele>1802</ele>
        <time>2018-12-27T04:56:17Z</time>
      </trkpt>
      <trkpt lat="42.75209" lon="-0.47694">
        <ele>1800</ele>
        <time>2018-12-27T04:56:22Z</time>
      </trkpt>
      <trkpt lat="42.75213" lon="-0.47703">
        <ele>1798</ele>
        <time>2018-12-27T04:56:24Z</time>
      </trkpt>
      <trkpt lat="42.75222" lon="-0.47683">
        <ele>1797</ele>
        <time>2018-12-27T04:56:29Z</time>
      </trkpt>
      <trkpt lat="42.75229" lon="-0.47684">
        <ele>1795</ele>
        <time>2018-12-27T04:56:31Z</time>
      </trkpt>
      <trkpt lat="42.75234" lon="-0.47699">
        <ele>1792</ele>
        <time>2018-12-27T04:56:34Z</time>
      </trkpt>
      <trkpt lat="42.7524" lon="-0.47691">
        <ele>1791</ele>
        <time>2018-12-27T04:56:36Z</time>
      </trkpt>
      <trkpt lat="42.75244" lon="-0.47679">
        <ele>1791</ele>
        <time>2018-12-27T04:56:38Z</time>
      </trkpt>
      <trkpt lat="42.75245" lon="-0.47672">
        <ele>1791</ele>
        <time>2018-12-27T04:56:40Z</time>
      </trkpt>
      <trkpt lat="42.75251" lon="-0.47676">
        <ele>1789</ele>
        <time>2018-12-27T04:56:42Z</time>
      </trkpt>
      <trkpt lat="42.75254" lon="-0.47691">
        <ele>1787</ele>
        <time>2018-12-27T04:56:44Z</time>
      </trkpt>
      <trkpt lat="42.75258" lon="-0.47698">
        <ele>1786</ele>
        <time>2018-12-27T04:56:46Z</time>
      </trkpt>
      <trkpt lat="42.75262" lon="-0.4769">
        <ele>1785</ele>
        <time>2018-12-27T04:56:48Z</time>
      </trkpt>
      <trkpt lat="42.75269" lon="-0.47696">
        <ele>1783</ele>
        <time>2018-12-27T04:56:50Z</time>
      </trkpt>
      <trkpt lat="42.75276" lon="-0.47693">
        <ele>1782</ele>
        <time>2018-12-27T04:56:52Z</time>
      </trkpt>
      <trkpt lat="42.75285" lon="-0.47682">
        <ele>1780</ele>
        <time>2018-12-27T04:56:55Z</time>
      </trkpt>
      <trkpt lat="42.75283" lon="-0.47674">
        <ele>1780</ele>
        <time>2018-12-27T04:56:57Z</time>
      </trkpt>
      <trkpt lat="42.75289" lon="-0.47666">
        <ele>1779</ele>
        <time>2018-12-27T04:56:59Z</time>
      </trkpt>
      <trkpt lat="42.75296" lon="-0.47663">
        <ele>1777</ele>
        <time>2018-12-27T04:57:01Z</time>
      </trkpt>
      <trkpt lat="42.75299" lon="-0.47652">
        <ele>1777</ele>
        <time>2018-12-27T04:57:03Z</time>
      </trkpt>
      <trkpt lat="42.75315" lon="-0.47636">
        <ele>1775</ele>
        <time>2018-12-27T04:57:09Z</time>
      </trkpt>
      <trkpt lat="42.75334" lon="-0.47633">
        <ele>1771</ele>
        <time>2018-12-27T04:57:14Z</time>
      </trkpt>
      <trkpt lat="42.75345" lon="-0.47633">
        <ele>1759</ele>
        <time>2018-12-27T04:57:17Z</time>
      </trkpt>
      <trkpt lat="42.75374" lon="-0.47615">
        <ele>1742</ele>
        <time>2018-12-27T04:57:25Z</time>
      </trkpt>
      <trkpt lat="42.75377" lon="-0.47597">
        <ele>1741</ele>
        <time>2018-12-27T04:57:29Z</time>
      </trkpt>
      <trkpt lat="42.75375" lon="-0.47577">
        <ele>1746</ele>
        <time>2018-12-27T04:57:33Z</time>
      </trkpt>
      <trkpt lat="42.75374" lon="-0.47559">
        <ele>1750</ele>
        <time>2018-12-27T04:57:36Z</time>
      </trkpt>
      <trkpt lat="42.75379" lon="-0.47519">
        <ele>1753</ele>
        <time>2018-12-27T04:57:44Z</time>
      </trkpt>
      <trkpt lat="42.75371" lon="-0.47479">
        <ele>1747</ele>
        <time>2018-12-27T04:57:53Z</time>
      </trkpt>
      <trkpt lat="42.75367" lon="-0.47439">
        <ele>1735</ele>
        <time>2018-12-27T04:58:00Z</time>
      </trkpt>
      <trkpt lat="42.75378" lon="-0.47403">
        <ele>1732</ele>
        <time>2018-12-27T04:58:08Z</time>
      </trkpt>
      <trkpt lat="42.75384" lon="-0.47401">
        <ele>1732</ele>
        <time>2018-12-27T04:58:10Z</time>
      </trkpt>
      <trkpt lat="42.75425" lon="-0.47413">
        <ele>1726</ele>
        <time>2018-12-27T04:58:21Z</time>
      </trkpt>
      <trkpt lat="42.75449" lon="-0.47416">
        <ele>1722</ele>
        <time>2018-12-27T04:58:27Z</time>
      </trkpt>
      <trkpt lat="42.75461" lon="-0.47427">
        <ele>1722</ele>
        <time>2018-12-27T04:58:31Z</time>
      </trkpt>
      <trkpt lat="42.75447" lon="-0.47454">
        <ele>1723</ele>
        <time>2018-12-27T04:58:37Z</time>
      </trkpt>
      <trkpt lat="42.75446" lon="-0.47464">
        <ele>1723</ele>
        <time>2018-12-27T04:58:39Z</time>
      </trkpt>
      <trkpt lat="42.75454" lon="-0.47466">
        <ele>1723</ele>
        <time>2018-12-27T04:58:42Z</time>
      </trkpt>
      <trkpt lat="42.75457" lon="-0.47458">
        <ele>1723</ele>
        <time>2018-12-27T04:58:44Z</time>
      </trkpt>
      <trkpt lat="42.75463" lon="-0.47456">
        <ele>1722</ele>
        <time>2018-12-27T04:58:45Z</time>
      </trkpt>
      <trkpt lat="42.7547" lon="-0.47459">
        <ele>1722</ele>
        <time>2018-12-27T04:58:47Z</time>
      </trkpt>
      <trkpt lat="42.75486" lon="-0.47456">
        <ele>1708</ele>
        <time>2018-12-27T04:58:51Z</time>
      </trkpt>
      <trkpt lat="42.75496" lon="-0.4745">
        <ele>1700</ele>
        <time>2018-12-27T04:58:54Z</time>
      </trkpt>
      <trkpt lat="42.75497" lon="-0.47469">
        <ele>1695</ele>
        <time>2018-12-27T04:58:58Z</time>
      </trkpt>
      <trkpt lat="42.75508" lon="-0.47469">
        <ele>1681</ele>
        <time>2018-12-27T04:59:01Z</time>
      </trkpt>
      <trkpt lat="42.75514" lon="-0.47472">
        <ele>1673</ele>
        <time>2018-12-27T04:59:03Z</time>
      </trkpt>
      <trkpt lat="42.75518" lon="-0.4748">
        <ele>1668</ele>
        <time>2018-12-27T04:59:05Z</time>
      </trkpt>
      <trkpt lat="42.7552" lon="-0.47474">
        <ele>1666</ele>
        <time>2018-12-27T04:59:06Z</time>
      </trkpt>
      <trkpt lat="42.75522" lon="-0.47385">
        <ele>1663</ele>
        <time>2018-12-27T04:59:23Z</time>
      </trkpt>
      <trkpt lat="42.75533" lon="-0.47405">
        <ele>1660</ele>
        <time>2018-12-27T04:59:28Z</time>
      </trkpt>
      <trkpt lat="42.75535" lon="-0.47412">
        <ele>1661</ele>
        <time>2018-12-27T04:59:30Z</time>
      </trkpt>
      <trkpt lat="42.7554" lon="-0.47399">
        <ele>1654</ele>
        <time>2018-12-27T04:59:33Z</time>
      </trkpt>
      <trkpt lat="42.75539" lon="-0.47374">
        <ele>1651</ele>
        <time>2018-12-27T04:59:38Z</time>
      </trkpt>
      <trkpt lat="42.75551" lon="-0.47387">
        <ele>1648</ele>
        <time>2018-12-27T04:59:42Z</time>
      </trkpt>
      <trkpt lat="42.75555" lon="-0.47394">
        <ele>1647</ele>
        <time>2018-12-27T04:59:43Z</time>
      </trkpt>
      <trkpt lat="42.75557" lon="-0.47371">
        <ele>1647</ele>
        <time>2018-12-27T04:59:48Z</time>
      </trkpt>
      <trkpt lat="42.75553" lon="-0.47343">
        <ele>1647</ele>
        <time>2018-12-27T04:59:53Z</time>
      </trkpt>
      <trkpt lat="42.75555" lon="-0.4732">
        <ele>1646</ele>
        <time>2018-12-27T04:59:58Z</time>
      </trkpt>
      <trkpt lat="42.75562" lon="-0.47314">
        <ele>1643</ele>
        <time>2018-12-27T05:00:00Z</time>
      </trkpt>
      <trkpt lat="42.75581" lon="-0.47334">
        <ele>1635</ele>
        <time>2018-12-27T05:00:06Z</time>
      </trkpt>
      <trkpt lat="42.75593" lon="-0.47329">
        <ele>1631</ele>
        <time>2018-12-27T05:00:10Z</time>
      </trkpt>
      <trkpt lat="42.75607" lon="-0.47328">
        <ele>1626</ele>
        <time>2018-12-27T05:00:13Z</time>
      </trkpt>
      <trkpt lat="42.75616" lon="-0.47325">
        <ele>1624</ele>
        <time>2018-12-27T05:00:16Z</time>
      </trkpt>
      <trkpt lat="42.75618" lon="-0.47301">
        <ele>1625</ele>
        <time>2018-12-27T05:00:21Z</time>
      </trkpt>
      <trkpt lat="42.75617" lon="-0.47292">
        <ele>1626</ele>
        <time>2018-12-27T05:00:23Z</time>
      </trkpt>
      <trkpt lat="42.75621" lon="-0.47266">
        <ele>1628</ele>
        <time>2018-12-27T05:00:28Z</time>
      </trkpt>
      <trkpt lat="42.75607" lon="-0.47226">
        <ele>1637</ele>
        <time>2018-12-27T05:00:37Z</time>
      </trkpt>
      <trkpt lat="42.75611" lon="-0.47215">
        <ele>1636</ele>
        <time>2018-12-27T05:00:39Z</time>
      </trkpt>
      <trkpt lat="42.75616" lon="-0.47206">
        <ele>1635</ele>
        <time>2018-12-27T05:00:41Z</time>
      </trkpt>
      <trkpt lat="42.75621" lon="-0.47205">
        <ele>1634</ele>
        <time>2018-12-27T05:00:43Z</time>
      </trkpt>
      <trkpt lat="42.75627" lon="-0.47202">
        <ele>1634</ele>
        <time>2018-12-27T05:00:44Z</time>
      </trkpt>
      <trkpt lat="42.75634" lon="-0.47201">
        <ele>1633</ele>
        <time>2018-12-27T05:00:46Z</time>
      </trkpt>
      <trkpt lat="42.75639" lon="-0.47198">
        <ele>1633</ele>
        <time>2018-12-27T05:00:48Z</time>
      </trkpt>
      <trkpt lat="42.75638" lon="-0.47179">
        <ele>1635</ele>
        <time>2018-12-27T05:00:52Z</time>
      </trkpt>
      <trkpt lat="42.75645" lon="-0.4717">
        <ele>1637</ele>
        <time>2018-12-27T05:00:54Z</time>
      </trkpt>
      <trkpt lat="42.75653" lon="-0.47152">
        <ele>1640</ele>
        <time>2018-12-27T05:00:58Z</time>
      </trkpt>
      <trkpt lat="42.75658" lon="-0.47133">
        <ele>1644</ele>
        <time>2018-12-27T05:01:02Z</time>
      </trkpt>
      <trkpt lat="42.75667" lon="-0.47111">
        <ele>1646</ele>
        <time>2018-12-27T05:01:07Z</time>
      </trkpt>
      <trkpt lat="42.75668" lon="-0.47103">
        <ele>1647</ele>
        <time>2018-12-27T05:01:09Z</time>
      </trkpt>
      <trkpt lat="42.75679" lon="-0.47076">
        <ele>1648</ele>
        <time>2018-12-27T05:01:15Z</time>
      </trkpt>
      <trkpt lat="42.75686" lon="-0.47066">
        <ele>1648</ele>
        <time>2018-12-27T05:01:18Z</time>
      </trkpt>
      <trkpt lat="42.75694" lon="-0.4704">
        <ele>1651</ele>
        <time>2018-12-27T05:01:23Z</time>
      </trkpt>
      <trkpt lat="42.75695" lon="-0.47026">
        <ele>1653</ele>
        <time>2018-12-27T05:01:26Z</time>
      </trkpt>
      <trkpt lat="42.75709" lon="-0.46978">
        <ele>1664</ele>
        <time>2018-12-27T05:01:36Z</time>
      </trkpt>
      <trkpt lat="42.75705" lon="-0.46967">
        <ele>1666</ele>
        <time>2018-12-27T05:01:38Z</time>
      </trkpt>
      <trkpt lat="42.75703" lon="-0.46953">
        <ele>1668</ele>
        <time>2018-12-27T05:01:41Z</time>
      </trkpt>
      <trkpt lat="42.75704" lon="-0.46932">
        <ele>1672</ele>
        <time>2018-12-27T05:01:45Z</time>
      </trkpt>
      <trkpt lat="42.7571" lon="-0.46882">
        <ele>1681</ele>
        <time>2018-12-27T05:01:55Z</time>
      </trkpt>
      <trkpt lat="42.7571" lon="-0.46864">
        <ele>1684</ele>
        <time>2018-12-27T05:01:59Z</time>
      </trkpt>
      <trkpt lat="42.75709" lon="-0.46856">
        <ele>1685</ele>
        <time>2018-12-27T05:02:01Z</time>
      </trkpt>
      <trkpt lat="42.75705" lon="-0.4685">
        <ele>1685</ele>
        <time>2018-12-27T05:02:02Z</time>
      </trkpt>
      <trkpt lat="42.75703" lon="-0.46831">
        <ele>1687</ele>
        <time>2018-12-27T05:02:06Z</time>
      </trkpt>
      <trkpt lat="42.75698" lon="-0.46811">
        <ele>1689</ele>
        <time>2018-12-27T05:02:10Z</time>
      </trkpt>
      <trkpt lat="42.75694" lon="-0.46806">
        <ele>1690</ele>
        <time>2018-12-27T05:02:11Z</time>
      </trkpt>
      <trkpt lat="42.75685" lon="-0.46753">
        <ele>1698</ele>
        <time>2018-12-27T05:02:22Z</time>
      </trkpt>
      <trkpt lat="42.75675" lon="-0.46736">
        <ele>1701</ele>
        <time>2018-12-27T05:02:26Z</time>
      </trkpt>
      <trkpt lat="42.75667" lon="-0.46736">
        <ele>1702</ele>
        <time>2018-12-27T05:02:28Z</time>
      </trkpt>
      <trkpt lat="42.75662" lon="-0.46732">
        <ele>1703</ele>
        <time>2018-12-27T05:02:30Z</time>
      </trkpt>
      <trkpt lat="42.75646" lon="-0.46734">
        <ele>1705</ele>
        <time>2018-12-27T05:02:34Z</time>
      </trkpt>
      <trkpt lat="42.75624" lon="-0.46727">
        <ele>1708</ele>
        <time>2018-12-27T05:02:40Z</time>
      </trkpt>
      <trkpt lat="42.75602" lon="-0.46717">
        <ele>1714</ele>
        <time>2018-12-27T05:02:46Z</time>
      </trkpt>
      <trkpt lat="42.75591" lon="-0.46715">
        <ele>1717</ele>
        <time>2018-12-27T05:02:49Z</time>
      </trkpt>
      <trkpt lat="42.75575" lon="-0.46705">
        <ele>1722</ele>
        <time>2018-12-27T05:02:54Z</time>
      </trkpt>
      <trkpt lat="42.75556" lon="-0.46704">
        <ele>1726</ele>
        <time>2018-12-27T05:02:59Z</time>
      </trkpt>
      <trkpt lat="42.75546" lon="-0.46701">
        <ele>1729</ele>
        <time>2018-12-27T05:03:02Z</time>
      </trkpt>
      <trkpt lat="42.75539" lon="-0.46707">
        <ele>1731</ele>
        <time>2018-12-27T05:03:04Z</time>
      </trkpt>
      <trkpt lat="42.75531" lon="-0.467">
        <ele>1734</ele>
        <time>2018-12-27T05:03:07Z</time>
      </trkpt>
      <trkpt lat="42.75515" lon="-0.46697">
        <ele>1742</ele>
        <time>2018-12-27T05:03:11Z</time>
      </trkpt>
      <trkpt lat="42.75508" lon="-0.46694">
        <ele>1746</ele>
        <time>2018-12-27T05:03:13Z</time>
      </trkpt>
      <trkpt lat="42.75498" lon="-0.46692">
        <ele>1750</ele>
        <time>2018-12-27T05:03:15Z</time>
      </trkpt>
      <trkpt lat="42.75492" lon="-0.46689">
        <ele>1752</ele>
        <time>2018-12-27T05:03:17Z</time>
      </trkpt>
      <trkpt lat="42.75473" lon="-0.46677">
        <ele>1758</ele>
        <time>2018-12-27T05:03:23Z</time>
      </trkpt>
      <trkpt lat="42.75464" lon="-0.46668">
        <ele>1762</ele>
        <time>2018-12-27T05:03:26Z</time>
      </trkpt>
      <trkpt lat="42.75457" lon="-0.46659">
        <ele>1767</ele>
        <time>2018-12-27T05:03:28Z</time>
      </trkpt>
      <trkpt lat="42.75447" lon="-0.46652">
        <ele>1772</ele>
        <time>2018-12-27T05:03:31Z</time>
      </trkpt>
      <trkpt lat="42.75442" lon="-0.46654">
        <ele>1775</ele>
        <time>2018-12-27T05:03:33Z</time>
      </trkpt>
      <trkpt lat="42.7543" lon="-0.46644">
        <ele>1787</ele>
        <time>2018-12-27T05:03:36Z</time>
      </trkpt>
      <trkpt lat="42.75426" lon="-0.46634">
        <ele>1793</ele>
        <time>2018-12-27T05:03:39Z</time>
      </trkpt>
      <trkpt lat="42.7542" lon="-0.46628">
        <ele>1800</ele>
        <time>2018-12-27T05:03:41Z</time>
      </trkpt>
      <trkpt lat="42.75421" lon="-0.46616">
        <ele>1803</ele>
        <time>2018-12-27T05:03:43Z</time>
      </trkpt>
      <trkpt lat="42.75415" lon="-0.46612">
        <ele>1810</ele>
        <time>2018-12-27T05:03:45Z</time>
      </trkpt>
      <trkpt lat="42.75408" lon="-0.46599">
        <ele>1813</ele>
        <time>2018-12-27T05:03:48Z</time>
      </trkpt>
      <trkpt lat="42.75399" lon="-0.46589">
        <ele>1817</ele>
        <time>2018-12-27T05:03:51Z</time>
      </trkpt>
      <trkpt lat="42.7539" lon="-0.46569">
        <ele>1823</ele>
        <time>2018-12-27T05:03:56Z</time>
      </trkpt>
      <trkpt lat="42.75375" lon="-0.46556">
        <ele>1829</ele>
        <time>2018-12-27T05:04:00Z</time>
      </trkpt>
      <trkpt lat="42.7537" lon="-0.46549">
        <ele>1831</ele>
        <time>2018-12-27T05:04:02Z</time>
      </trkpt>
      <trkpt lat="42.75362" lon="-0.46544">
        <ele>1834</ele>
        <time>2018-12-27T05:04:05Z</time>
      </trkpt>
      <trkpt lat="42.75351" lon="-0.46541">
        <ele>1837</ele>
        <time>2018-12-27T05:04:08Z</time>
      </trkpt>
      <trkpt lat="42.75337" lon="-0.46528">
        <ele>1842</ele>
        <time>2018-12-27T05:04:12Z</time>
      </trkpt>
      <trkpt lat="42.75331" lon="-0.46519">
        <ele>1844</ele>
        <time>2018-12-27T05:04:14Z</time>
      </trkpt>
      <trkpt lat="42.75321" lon="-0.46514">
        <ele>1847</ele>
        <time>2018-12-27T05:04:17Z</time>
      </trkpt>
      <trkpt lat="42.75306" lon="-0.46495">
        <ele>1854</ele>
        <time>2018-12-27T05:04:23Z</time>
      </trkpt>
      <trkpt lat="42.75296" lon="-0.4649">
        <ele>1859</ele>
        <time>2018-12-27T05:04:26Z</time>
      </trkpt>
      <trkpt lat="42.75283" lon="-0.46478">
        <ele>1867</ele>
        <time>2018-12-27T05:04:30Z</time>
      </trkpt>
      <trkpt lat="42.75278" lon="-0.46475">
        <ele>1870</ele>
        <time>2018-12-27T05:04:31Z</time>
      </trkpt>
      <trkpt lat="42.75275" lon="-0.46468">
        <ele>1873</ele>
        <time>2018-12-27T05:04:33Z</time>
      </trkpt>
      <trkpt lat="42.75265" lon="-0.46465">
        <ele>1878</ele>
        <time>2018-12-27T05:04:36Z</time>
      </trkpt>
      <trkpt lat="42.75262" lon="-0.46458">
        <ele>1882</ele>
        <time>2018-12-27T05:04:37Z</time>
      </trkpt>
      <trkpt lat="42.75255" lon="-0.46449">
        <ele>1890</ele>
        <time>2018-12-27T05:04:40Z</time>
      </trkpt>
      <trkpt lat="42.75243" lon="-0.46439">
        <ele>1900</ele>
        <time>2018-12-27T05:04:44Z</time>
      </trkpt>
      <trkpt lat="42.75238" lon="-0.4643">
        <ele>1904</ele>
        <time>2018-12-27T05:04:46Z</time>
      </trkpt>
      <trkpt lat="42.75232" lon="-0.46427">
        <ele>1907</ele>
        <time>2018-12-27T05:04:47Z</time>
      </trkpt>
      <trkpt lat="42.7522" lon="-0.46414">
        <ele>1915</ele>
        <time>2018-12-27T05:04:52Z</time>
      </trkpt>
      <trkpt lat="42.75206" lon="-0.46402">
        <ele>1922</ele>
        <time>2018-12-27T05:04:56Z</time>
      </trkpt>
      <trkpt lat="42.75205" lon="-0.46389">
        <ele>1926</ele>
        <time>2018-12-27T05:04:59Z</time>
      </trkpt>
      <trkpt lat="42.75193" lon="-0.46385">
        <ele>1930</ele>
        <time>2018-12-27T05:05:02Z</time>
      </trkpt>
      <trkpt lat="42.75188" lon="-0.46387">
        <ele>1931</ele>
        <time>2018-12-27T05:05:03Z</time>
      </trkpt>
      <trkpt lat="42.75187" lon="-0.46378">
        <ele>1933</ele>
        <time>2018-12-27T05:05:05Z</time>
      </trkpt>
      <trkpt lat="42.75181" lon="-0.46369">
        <ele>1936</ele>
        <time>2018-12-27T05:05:07Z</time>
      </trkpt>
      <trkpt lat="42.75178" lon="-0.46361">
        <ele>1938</ele>
        <time>2018-12-27T05:05:09Z</time>
      </trkpt>
      <trkpt lat="42.75176" lon="-0.46354">
        <ele>1940</ele>
        <time>2018-12-27T05:05:10Z</time>
      </trkpt>
      <trkpt lat="42.75175" lon="-0.46339">
        <ele>1943</ele>
        <time>2018-12-27T05:05:13Z</time>
      </trkpt>
      <trkpt lat="42.75157" lon="-0.46302">
        <ele>1956</ele>
        <time>2018-12-27T05:05:22Z</time>
      </trkpt>
      <trkpt lat="42.75153" lon="-0.46241">
        <ele>1960</ele>
        <time>2018-12-27T05:05:34Z</time>
      </trkpt>
      <trkpt lat="42.75154" lon="-0.46232">
        <ele>1961</ele>
        <time>2018-12-27T05:05:36Z</time>
      </trkpt>
      <trkpt lat="42.75152" lon="-0.46213">
        <ele>1963</ele>
        <time>2018-12-27T05:05:39Z</time>
      </trkpt>
      <trkpt lat="42.75151" lon="-0.46186">
        <ele>1963</ele>
        <time>2018-12-27T05:05:45Z</time>
      </trkpt>
      <trkpt lat="42.75145" lon="-0.46163">
        <ele>1964</ele>
        <time>2018-12-27T05:05:50Z</time>
      </trkpt>
      <trkpt lat="42.75147" lon="-0.46096">
        <ele>1955</ele>
        <time>2018-12-27T05:06:03Z</time>
      </trkpt>
      <trkpt lat="42.75146" lon="-0.46081">
        <ele>1955</ele>
        <time>2018-12-27T05:06:06Z</time>
      </trkpt>
      <trkpt lat="42.75137" lon="-0.46052">
        <ele>1956</ele>
        <time>2018-12-27T05:06:12Z</time>
      </trkpt>
      <trkpt lat="42.75134" lon="-0.46028">
        <ele>1953</ele>
        <time>2018-12-27T05:06:16Z</time>
      </trkpt>
      <trkpt lat="42.75126" lon="-0.46009">
        <ele>1951</ele>
        <time>2018-12-27T05:06:21Z</time>
      </trkpt>
      <trkpt lat="42.75113" lon="-0.45965">
        <ele>1948</ele>
        <time>2018-12-27T05:06:30Z</time>
      </trkpt>
      <trkpt lat="42.75114" lon="-0.45935">
        <ele>1946</ele>
        <time>2018-12-27T05:06:36Z</time>
      </trkpt>
      <trkpt lat="42.75119" lon="-0.45897">
        <ele>1949</ele>
        <time>2018-12-27T05:06:44Z</time>
      </trkpt>
      <trkpt lat="42.7512" lon="-0.45857">
        <ele>1955</ele>
        <time>2018-12-27T05:06:51Z</time>
      </trkpt>
      <trkpt lat="42.75128" lon="-0.45827">
        <ele>1957</ele>
        <time>2018-12-27T05:06:58Z</time>
      </trkpt>
      <trkpt lat="42.75146" lon="-0.45811">
        <ele>1956</ele>
        <time>2018-12-27T05:07:03Z</time>
      </trkpt>
      <trkpt lat="42.75151" lon="-0.45802">
        <ele>1956</ele>
        <time>2018-12-27T05:07:06Z</time>
      </trkpt>
      <trkpt lat="42.75155" lon="-0.4579">
        <ele>1958</ele>
        <time>2018-12-27T05:07:08Z</time>
      </trkpt>
      <trkpt lat="42.75153" lon="-0.45771">
        <ele>1960</ele>
        <time>2018-12-27T05:07:12Z</time>
      </trkpt>
      <trkpt lat="42.75154" lon="-0.45733">
        <ele>1965</ele>
        <time>2018-12-27T05:07:19Z</time>
      </trkpt>
      <trkpt lat="42.75151" lon="-0.45716">
        <ele>1967</ele>
        <time>2018-12-27T05:07:23Z</time>
      </trkpt>
      <trkpt lat="42.75142" lon="-0.45698">
        <ele>1967</ele>
        <time>2018-12-27T05:07:27Z</time>
      </trkpt>
      <trkpt lat="42.75145" lon="-0.45677">
        <ele>1965</ele>
        <time>2018-12-27T05:07:31Z</time>
      </trkpt>
      <trkpt lat="42.75132" lon="-0.45647">
        <ele>1966</ele>
        <time>2018-12-27T05:07:38Z</time>
      </trkpt>
      <trkpt lat="42.75127" lon="-0.45628">
        <ele>1966</ele>
        <time>2018-12-27T05:07:42Z</time>
      </trkpt>
      <trkpt lat="42.75111" lon="-0.45602">
        <ele>1967</ele>
        <time>2018-12-27T05:07:49Z</time>
      </trkpt>
      <trkpt lat="42.75091" lon="-0.45573">
        <ele>1968</ele>
        <time>2018-12-27T05:07:57Z</time>
      </trkpt>
      <trkpt lat="42.75086" lon="-0.45569">
        <ele>1968</ele>
        <time>2018-12-27T05:07:58Z</time>
      </trkpt>
      <trkpt lat="42.75074" lon="-0.45549">
        <ele>1968</ele>
        <time>2018-12-27T05:08:03Z</time>
      </trkpt>
      <trkpt lat="42.75064" lon="-0.45524">
        <ele>1967</ele>
        <time>2018-12-27T05:08:09Z</time>
      </trkpt>
      <trkpt lat="42.75052" lon="-0.45502">
        <ele>1966</ele>
        <time>2018-12-27T05:08:14Z</time>
      </trkpt>
      <trkpt lat="42.7505" lon="-0.45493">
        <ele>1966</ele>
        <time>2018-12-27T05:08:16Z</time>
      </trkpt>
      <trkpt lat="42.75052" lon="-0.45479">
        <ele>1966</ele>
        <time>2018-12-27T05:08:19Z</time>
      </trkpt>
      <trkpt lat="42.75055" lon="-0.45473">
        <ele>1966</ele>
        <time>2018-12-27T05:08:20Z</time>
      </trkpt>
      <trkpt lat="42.75056" lon="-0.45448">
        <ele>1965</ele>
        <time>2018-12-27T05:08:25Z</time>
      </trkpt>
      <trkpt lat="42.75052" lon="-0.45428">
        <ele>1965</ele>
        <time>2018-12-27T05:08:29Z</time>
      </trkpt>
      <trkpt lat="42.75057" lon="-0.45398">
        <ele>1966</ele>
        <time>2018-12-27T05:08:35Z</time>
      </trkpt>
      <trkpt lat="42.75063" lon="-0.45381">
        <ele>1965</ele>
        <time>2018-12-27T05:08:39Z</time>
      </trkpt>
      <trkpt lat="42.75063" lon="-0.45353">
        <ele>1965</ele>
        <time>2018-12-27T05:08:44Z</time>
      </trkpt>
      <trkpt lat="42.75051" lon="-0.453">
        <ele>1971</ele>
        <time>2018-12-27T05:08:55Z</time>
      </trkpt>
      <trkpt lat="42.75051" lon="-0.45287">
        <ele>1971</ele>
        <time>2018-12-27T05:08:58Z</time>
      </trkpt>
      <trkpt lat="42.75049" lon="-0.45276">
        <ele>1973</ele>
        <time>2018-12-27T05:09:00Z</time>
      </trkpt>
      <trkpt lat="42.75049" lon="-0.45263">
        <ele>1974</ele>
        <time>2018-12-27T05:09:03Z</time>
      </trkpt>
      <trkpt lat="42.75045" lon="-0.45253">
        <ele>1976</ele>
        <time>2018-12-27T05:09:05Z</time>
      </trkpt>
      <trkpt lat="42.75045" lon="-0.45235">
        <ele>1977</ele>
        <time>2018-12-27T05:09:08Z</time>
      </trkpt>
      <trkpt lat="42.7505" lon="-0.4522">
        <ele>1976</ele>
        <time>2018-12-27T05:09:12Z</time>
      </trkpt>
      <trkpt lat="42.75053" lon="-0.45204">
        <ele>1976</ele>
        <time>2018-12-27T05:09:15Z</time>
      </trkpt>
      <trkpt lat="42.75049" lon="-0.45197">
        <ele>1979</ele>
        <time>2018-12-27T05:09:17Z</time>
      </trkpt>
      <trkpt lat="42.75049" lon="-0.45182">
        <ele>1980</ele>
        <time>2018-12-27T05:09:19Z</time>
      </trkpt>
      <trkpt lat="42.7504" lon="-0.45153">
        <ele>1984</ele>
        <time>2018-12-27T05:09:26Z</time>
      </trkpt>
      <trkpt lat="42.75044" lon="-0.45134">
        <ele>1984</ele>
        <time>2018-12-27T05:09:30Z</time>
      </trkpt>
      <trkpt lat="42.7504" lon="-0.45119">
        <ele>1985</ele>
        <time>2018-12-27T05:09:32Z</time>
      </trkpt>
      <trkpt lat="42.75034" lon="-0.45103">
        <ele>1987</ele>
        <time>2018-12-27T05:09:36Z</time>
      </trkpt>
      <trkpt lat="42.75027" lon="-0.4509">
        <ele>1990</ele>
        <time>2018-12-27T05:09:39Z</time>
      </trkpt>
      <trkpt lat="42.75026" lon="-0.45082">
        <ele>1991</ele>
        <time>2018-12-27T05:09:41Z</time>
      </trkpt>
      <trkpt lat="42.75013" lon="-0.45067">
        <ele>1995</ele>
        <time>2018-12-27T05:09:45Z</time>
      </trkpt>
      <trkpt lat="42.75005" lon="-0.45065">
        <ele>1997</ele>
        <time>2018-12-27T05:09:48Z</time>
      </trkpt>
      <trkpt lat="42.74997" lon="-0.45056">
        <ele>1999</ele>
        <time>2018-12-27T05:09:50Z</time>
      </trkpt>
      <trkpt lat="42.74983" lon="-0.45034">
        <ele>2003</ele>
        <time>2018-12-27T05:09:56Z</time>
      </trkpt>
      <trkpt lat="42.74966" lon="-0.45015">
        <ele>2009</ele>
        <time>2018-12-27T05:10:02Z</time>
      </trkpt>
      <trkpt lat="42.74961" lon="-0.45003">
        <ele>2012</ele>
        <time>2018-12-27T05:10:05Z</time>
      </trkpt>
      <trkpt lat="42.74948" lon="-0.44985">
        <ele>2017</ele>
        <time>2018-12-27T05:10:10Z</time>
      </trkpt>
      <trkpt lat="42.74938" lon="-0.44981">
        <ele>2019</ele>
        <time>2018-12-27T05:10:12Z</time>
      </trkpt>
      <trkpt lat="42.74929" lon="-0.44962">
        <ele>2020</ele>
        <time>2018-12-27T05:10:17Z</time>
      </trkpt>
      <trkpt lat="42.74922" lon="-0.44926">
        <ele>2022</ele>
        <time>2018-12-27T05:10:24Z</time>
      </trkpt>
      <trkpt lat="42.74906" lon="-0.44917">
        <ele>2023</ele>
        <time>2018-12-27T05:10:28Z</time>
      </trkpt>
      <trkpt lat="42.74885" lon="-0.44889">
        <ele>2027</ele>
        <time>2018-12-27T05:10:36Z</time>
      </trkpt>
      <trkpt lat="42.74879" lon="-0.44871">
        <ele>2032</ele>
        <time>2018-12-27T05:10:40Z</time>
      </trkpt>
      <trkpt lat="42.74851" lon="-0.44852">
        <ele>2039</ele>
        <time>2018-12-27T05:10:49Z</time>
      </trkpt>
      <trkpt lat="42.74804" lon="-0.44839">
        <ele>2050</ele>
        <time>2018-12-27T05:11:01Z</time>
      </trkpt>
      <trkpt lat="42.74764" lon="-0.4482">
        <ele>2058</ele>
        <time>2018-12-27T05:11:13Z</time>
      </trkpt>
      <trkpt lat="42.74757" lon="-0.4481">
        <ele>2061</ele>
        <time>2018-12-27T05:11:16Z</time>
      </trkpt>
      <trkpt lat="42.74748" lon="-0.44802">
        <ele>2063</ele>
        <time>2018-12-27T05:11:18Z</time>
      </trkpt>
      <trkpt lat="42.74759" lon="-0.44789">
        <ele>2064</ele>
        <time>2018-12-27T05:11:22Z</time>
      </trkpt>
      <trkpt lat="42.74758" lon="-0.4478">
        <ele>2066</ele>
        <time>2018-12-27T05:11:24Z</time>
      </trkpt>
      <trkpt lat="42.74752" lon="-0.44766">
        <ele>2067</ele>
        <time>2018-12-27T05:11:27Z</time>
      </trkpt>
      <trkpt lat="42.7475" lon="-0.44751">
        <ele>2068</ele>
        <time>2018-12-27T05:11:30Z</time>
      </trkpt>
      <trkpt lat="42.74757" lon="-0.44733">
        <ele>2069</ele>
        <time>2018-12-27T05:11:34Z</time>
      </trkpt>
      <trkpt lat="42.74766" lon="-0.44705">
        <ele>2070</ele>
        <time>2018-12-27T05:11:40Z</time>
      </trkpt>
      <trkpt lat="42.74776" lon="-0.4468">
        <ele>2071</ele>
        <time>2018-12-27T05:11:46Z</time>
      </trkpt>
      <trkpt lat="42.74779" lon="-0.44659">
        <ele>2072</ele>
        <time>2018-12-27T05:11:50Z</time>
      </trkpt>
      <trkpt lat="42.74785" lon="-0.44635">
        <ele>2072</ele>
        <time>2018-12-27T05:11:55Z</time>
      </trkpt>
      <trkpt lat="42.74786" lon="-0.4461">
        <ele>2074</ele>
        <time>2018-12-27T05:12:00Z</time>
      </trkpt>
      <trkpt lat="42.7478" lon="-0.44593">
        <ele>2076</ele>
        <time>2018-12-27T05:12:04Z</time>
      </trkpt>
      <trkpt lat="42.74764" lon="-0.44577">
        <ele>2079</ele>
        <time>2018-12-27T05:12:09Z</time>
      </trkpt>
      <trkpt lat="42.74749" lon="-0.44551">
        <ele>2083</ele>
        <time>2018-12-27T05:12:15Z</time>
      </trkpt>
      <trkpt lat="42.74737" lon="-0.44545">
        <ele>2084</ele>
        <time>2018-12-27T05:12:19Z</time>
      </trkpt>
      <trkpt lat="42.74722" lon="-0.44533">
        <ele>2084</ele>
        <time>2018-12-27T05:12:23Z</time>
      </trkpt>
      <trkpt lat="42.74711" lon="-0.44531">
        <ele>2083</ele>
        <time>2018-12-27T05:12:26Z</time>
      </trkpt>
      <trkpt lat="42.74689" lon="-0.44529">
        <ele>2081</ele>
        <time>2018-12-27T05:12:32Z</time>
      </trkpt>
      <trkpt lat="42.74675" lon="-0.44513">
        <ele>2080</ele>
        <time>2018-12-27T05:12:37Z</time>
      </trkpt>
      <trkpt lat="42.74641" lon="-0.44462">
        <ele>2082</ele>
        <time>2018-12-27T05:12:51Z</time>
      </trkpt>
      <trkpt lat="42.74628" lon="-0.44448">
        <ele>2084</ele>
        <time>2018-12-27T05:12:55Z</time>
      </trkpt>
      <trkpt lat="42.74612" lon="-0.44439">
        <ele>2086</ele>
        <time>2018-12-27T05:13:00Z</time>
      </trkpt>
      <trkpt lat="42.74591" lon="-0.44424">
        <ele>2090</ele>
        <time>2018-12-27T05:13:06Z</time>
      </trkpt>
      <trkpt lat="42.74559" lon="-0.44409">
        <ele>2101</ele>
        <time>2018-12-27T05:13:15Z</time>
      </trkpt>
      <trkpt lat="42.74542" lon="-0.44397">
        <ele>2101</ele>
        <time>2018-12-27T05:13:20Z</time>
      </trkpt>
      <trkpt lat="42.74527" lon="-0.44391">
        <ele>2101</ele>
        <time>2018-12-27T05:13:24Z</time>
      </trkpt>
      <trkpt lat="42.74489" lon="-0.44346">
        <ele>2094</ele>
        <time>2018-12-27T05:13:38Z</time>
      </trkpt>
      <trkpt lat="42.74471" lon="-0.44339">
        <ele>2097</ele>
        <time>2018-12-27T05:13:43Z</time>
      </trkpt>
      <trkpt lat="42.74463" lon="-0.44333">
        <ele>2097</ele>
        <time>2018-12-27T05:13:45Z</time>
      </trkpt>
      <trkpt lat="42.74445" lon="-0.44322">
        <ele>2099</ele>
        <time>2018-12-27T05:13:51Z</time>
      </trkpt>
      <trkpt lat="42.74415" lon="-0.44302">
        <ele>2100</ele>
        <time>2018-12-27T05:13:59Z</time>
      </trkpt>
      <trkpt lat="42.74389" lon="-0.44294">
        <ele>2100</ele>
        <time>2018-12-27T05:14:07Z</time>
      </trkpt>
      <trkpt lat="42.74382" lon="-0.44282">
        <ele>2102</ele>
        <time>2018-12-27T05:14:10Z</time>
      </trkpt>
      <trkpt lat="42.74363" lon="-0.44264">
        <ele>2109</ele>
        <time>2018-12-27T05:14:16Z</time>
      </trkpt>
      <trkpt lat="42.74367" lon="-0.44239">
        <ele>2109</ele>
        <time>2018-12-27T05:14:21Z</time>
      </trkpt>
      <trkpt lat="42.74391" lon="-0.44218">
        <ele>2107</ele>
        <time>2018-12-27T05:14:29Z</time>
      </trkpt>
      <trkpt lat="42.74398" lon="-0.44199">
        <ele>2108</ele>
        <time>2018-12-27T05:14:33Z</time>
      </trkpt>
      <trkpt lat="42.74406" lon="-0.44196">
        <ele>2107</ele>
        <time>2018-12-27T05:14:35Z</time>
      </trkpt>
      <trkpt lat="42.74401" lon="-0.44188">
        <ele>2107</ele>
        <time>2018-12-27T05:14:37Z</time>
      </trkpt>
      <trkpt lat="42.74377" lon="-0.44176">
        <ele>2109</ele>
        <time>2018-12-27T05:14:44Z</time>
      </trkpt>
      <trkpt lat="42.74367" lon="-0.44167">
        <ele>2110</ele>
        <time>2018-12-27T05:14:47Z</time>
      </trkpt>
      <trkpt lat="42.7436" lon="-0.44164">
        <ele>2111</ele>
        <time>2018-12-27T05:14:49Z</time>
      </trkpt>
      <trkpt lat="42.74349" lon="-0.44163">
        <ele>2113</ele>
        <time>2018-12-27T05:14:52Z</time>
      </trkpt>
      <trkpt lat="42.74342" lon="-0.4415">
        <ele>2114</ele>
        <time>2018-12-27T05:14:55Z</time>
      </trkpt>
      <trkpt lat="42.74338" lon="-0.44105">
        <ele>2114</ele>
        <time>2018-12-27T05:15:04Z</time>
      </trkpt>
      <trkpt lat="42.7432" lon="-0.44081">
        <ele>2117</ele>
        <time>2018-12-27T05:15:11Z</time>
      </trkpt>
      <trkpt lat="42.74298" lon="-0.44075">
        <ele>2119</ele>
        <time>2018-12-27T05:15:17Z</time>
      </trkpt>
      <trkpt lat="42.74289" lon="-0.44062">
        <ele>2118</ele>
        <time>2018-12-27T05:15:20Z</time>
      </trkpt>
      <trkpt lat="42.74276" lon="-0.44056">
        <ele>2118</ele>
        <time>2018-12-27T05:15:24Z</time>
      </trkpt>
      <trkpt lat="42.74255" lon="-0.4404">
        <ele>2121</ele>
        <time>2018-12-27T05:15:31Z</time>
      </trkpt>
      <trkpt lat="42.74245" lon="-0.44028">
        <ele>2120</ele>
        <time>2018-12-27T05:15:34Z</time>
      </trkpt>
      <trkpt lat="42.74216" lon="-0.4401">
        <ele>2120</ele>
        <time>2018-12-27T05:15:42Z</time>
      </trkpt>
      <trkpt lat="42.74205" lon="-0.43992">
        <ele>2120</ele>
        <time>2018-12-27T05:15:47Z</time>
      </trkpt>
      <trkpt lat="42.74191" lon="-0.43975">
        <ele>2122</ele>
        <time>2018-12-27T05:15:52Z</time>
      </trkpt>
      <trkpt lat="42.74183" lon="-0.43938">
        <ele>2126</ele>
        <time>2018-12-27T05:16:00Z</time>
      </trkpt>
      <trkpt lat="42.74184" lon="-0.43928">
        <ele>2126</ele>
        <time>2018-12-27T05:16:02Z</time>
      </trkpt>
      <trkpt lat="42.74176" lon="-0.43904">
        <ele>2124</ele>
        <time>2018-12-27T05:16:07Z</time>
      </trkpt>
      <trkpt lat="42.74165" lon="-0.43884">
        <ele>2123</ele>
        <time>2018-12-27T05:16:12Z</time>
      </trkpt>
      <trkpt lat="42.7414" lon="-0.43874">
        <ele>2123</ele>
        <time>2018-12-27T05:16:19Z</time>
      </trkpt>
      <trkpt lat="42.74136" lon="-0.43861">
        <ele>2124</ele>
        <time>2018-12-27T05:16:22Z</time>
      </trkpt>
      <trkpt lat="42.74136" lon="-0.43849">
        <ele>2125</ele>
        <time>2018-12-27T05:16:24Z</time>
      </trkpt>
      <trkpt lat="42.74131" lon="-0.43845">
        <ele>2125</ele>
        <time>2018-12-27T05:16:25Z</time>
      </trkpt>
      <trkpt lat="42.74134" lon="-0.43836">
        <ele>2126</ele>
        <time>2018-12-27T05:16:27Z</time>
      </trkpt>
      <trkpt lat="42.74107" lon="-0.43795">
        <ele>2129</ele>
        <time>2018-12-27T05:16:38Z</time>
      </trkpt>
      <trkpt lat="42.74093" lon="-0.43761">
        <ele>2128</ele>
        <time>2018-12-27T05:16:46Z</time>
      </trkpt>
      <trkpt lat="42.74082" lon="-0.43743">
        <ele>2128</ele>
        <time>2018-12-27T05:16:50Z</time>
      </trkpt>
      <trkpt lat="42.74083" lon="-0.43737">
        <ele>2128</ele>
        <time>2018-12-27T05:16:52Z</time>
      </trkpt>
      <trkpt lat="42.74075" lon="-0.43712">
        <ele>2130</ele>
        <time>2018-12-27T05:16:57Z</time>
      </trkpt>
      <trkpt lat="42.74068" lon="-0.43713">
        <ele>2131</ele>
        <time>2018-12-27T05:16:59Z</time>
      </trkpt>
      <trkpt lat="42.74063" lon="-0.43712">
        <ele>2132</ele>
        <time>2018-12-27T05:17:00Z</time>
      </trkpt>
      <trkpt lat="42.74045" lon="-0.43696">
        <ele>2138</ele>
        <time>2018-12-27T05:17:06Z</time>
      </trkpt>
      <trkpt lat="42.74042" lon="-0.43689">
        <ele>2139</ele>
        <time>2018-12-27T05:17:08Z</time>
      </trkpt>
      <trkpt lat="42.74021" lon="-0.43669">
        <ele>2146</ele>
        <time>2018-12-27T05:17:14Z</time>
      </trkpt>
      <trkpt lat="42.74016" lon="-0.43666">
        <ele>2147</ele>
        <time>2018-12-27T05:17:16Z</time>
      </trkpt>
      <trkpt lat="42.74005" lon="-0.43655">
        <ele>2150</ele>
        <time>2018-12-27T05:17:19Z</time>
      </trkpt>
      <trkpt lat="42.73991" lon="-0.43644">
        <ele>2152</ele>
        <time>2018-12-27T05:17:24Z</time>
      </trkpt>
      <trkpt lat="42.73976" lon="-0.43642">
        <ele>2154</ele>
        <time>2018-12-27T05:17:28Z</time>
      </trkpt>
      <trkpt lat="42.73966" lon="-0.43637">
        <ele>2155</ele>
        <time>2018-12-27T05:17:31Z</time>
      </trkpt>
      <trkpt lat="42.73952" lon="-0.43621">
        <ele>2157</ele>
        <time>2018-12-27T05:17:36Z</time>
      </trkpt>
      <trkpt lat="42.73945" lon="-0.43617">
        <ele>2158</ele>
        <time>2018-12-27T05:17:38Z</time>
      </trkpt>
      <trkpt lat="42.7394" lon="-0.43611">
        <ele>2159</ele>
        <time>2018-12-27T05:17:39Z</time>
      </trkpt>
      <trkpt lat="42.73934" lon="-0.43574">
        <ele>2158</ele>
        <time>2018-12-27T05:17:47Z</time>
      </trkpt>
      <trkpt lat="42.73926" lon="-0.43563">
        <ele>2157</ele>
        <time>2018-12-27T05:17:50Z</time>
      </trkpt>
      <trkpt lat="42.73905" lon="-0.43523">
        <ele>2153</ele>
        <time>2018-12-27T05:18:00Z</time>
      </trkpt>
      <trkpt lat="42.73893" lon="-0.43516">
        <ele>2154</ele>
        <time>2018-12-27T05:18:03Z</time>
      </trkpt>
      <trkpt lat="42.73887" lon="-0.4351">
        <ele>2153</ele>
        <time>2018-12-27T05:18:05Z</time>
      </trkpt>
      <trkpt lat="42.73882" lon="-0.43511">
        <ele>2154</ele>
        <time>2018-12-27T05:18:06Z</time>
      </trkpt>
      <trkpt lat="42.73865" lon="-0.43524">
        <ele>2160</ele>
        <time>2018-12-27T05:18:11Z</time>
      </trkpt>
      <trkpt lat="42.73854" lon="-0.43515">
        <ele>2159</ele>
        <time>2018-12-27T05:18:15Z</time>
      </trkpt>
      <trkpt lat="42.73844" lon="-0.43502">
        <ele>2157</ele>
        <time>2018-12-27T05:18:19Z</time>
      </trkpt>
      <trkpt lat="42.73833" lon="-0.43498">
        <ele>2158</ele>
        <time>2018-12-27T05:18:22Z</time>
      </trkpt>
      <trkpt lat="42.73833" lon="-0.43491">
        <ele>2157</ele>
        <time>2018-12-27T05:18:23Z</time>
      </trkpt>
      <trkpt lat="42.73823" lon="-0.43479">
        <ele>2159</ele>
        <time>2018-12-27T05:18:27Z</time>
      </trkpt>
      <trkpt lat="42.73816" lon="-0.43464">
        <ele>2161</ele>
        <time>2018-12-27T05:18:30Z</time>
      </trkpt>
      <trkpt lat="42.73811" lon="-0.43446">
        <ele>2163</ele>
        <time>2018-12-27T05:18:34Z</time>
      </trkpt>
      <trkpt lat="42.73806" lon="-0.43435">
        <ele>2166</ele>
        <time>2018-12-27T05:18:36Z</time>
      </trkpt>
      <trkpt lat="42.73803" lon="-0.43425">
        <ele>2168</ele>
        <time>2018-12-27T05:18:39Z</time>
      </trkpt>
      <trkpt lat="42.73798" lon="-0.43422">
        <ele>2171</ele>
        <time>2018-12-27T05:18:40Z</time>
      </trkpt>
      <trkpt lat="42.73789" lon="-0.43414">
        <ele>2175</ele>
        <time>2018-12-27T05:18:43Z</time>
      </trkpt>
      <trkpt lat="42.73789" lon="-0.43396">
        <ele>2175</ele>
        <time>2018-12-27T05:18:46Z</time>
      </trkpt>
      <trkpt lat="42.73785" lon="-0.4338">
        <ele>2177</ele>
        <time>2018-12-27T05:18:50Z</time>
      </trkpt>
      <trkpt lat="42.73772" lon="-0.43365">
        <ele>2183</ele>
        <time>2018-12-27T05:18:54Z</time>
      </trkpt>
      <trkpt lat="42.73766" lon="-0.43359">
        <ele>2186</ele>
        <time>2018-12-27T05:18:56Z</time>
      </trkpt>
      <trkpt lat="42.73766" lon="-0.43351">
        <ele>2186</ele>
        <time>2018-12-27T05:18:58Z</time>
      </trkpt>
      <trkpt lat="42.73757" lon="-0.43338">
        <ele>2190</ele>
        <time>2018-12-27T05:19:01Z</time>
      </trkpt>
      <trkpt lat="42.73753" lon="-0.43336">
        <ele>2191</ele>
        <time>2018-12-27T05:19:02Z</time>
      </trkpt>
      <trkpt lat="42.73748" lon="-0.43337">
        <ele>2194</ele>
        <time>2018-12-27T05:19:04Z</time>
      </trkpt>
      <trkpt lat="42.73739" lon="-0.43331">
        <ele>2199</ele>
        <time>2018-12-27T05:19:06Z</time>
      </trkpt>
      <trkpt lat="42.73738" lon="-0.43324">
        <ele>2201</ele>
        <time>2018-12-27T05:19:08Z</time>
      </trkpt>
      <trkpt lat="42.73726" lon="-0.43307">
        <ele>2214</ele>
        <time>2018-12-27T05:19:12Z</time>
      </trkpt>
      <trkpt lat="42.73725" lon="-0.43298">
        <ele>2216</ele>
        <time>2018-12-27T05:19:14Z</time>
      </trkpt>
      <trkpt lat="42.73722" lon="-0.43292">
        <ele>2218</ele>
        <time>2018-12-27T05:19:16Z</time>
      </trkpt>
      <trkpt lat="42.73718" lon="-0.43288">
        <ele>2222</ele>
        <time>2018-12-27T05:19:17Z</time>
      </trkpt>
      <trkpt lat="42.73717" lon="-0.43279">
        <ele>2223</ele>
        <time>2018-12-27T05:19:19Z</time>
      </trkpt>
      <trkpt lat="42.73711" lon="-0.43273">
        <ele>2228</ele>
        <time>2018-12-27T05:19:21Z</time>
      </trkpt>
      <trkpt lat="42.73707" lon="-0.4328">
        <ele>2230</ele>
        <time>2018-12-27T05:19:22Z</time>
      </trkpt>
      <trkpt lat="42.73704" lon="-0.43274">
        <ele>2233</ele>
        <time>2018-12-27T05:19:24Z</time>
      </trkpt>
      <trkpt lat="42.73695" lon="-0.4327">
        <ele>2241</ele>
        <time>2018-12-27T05:19:26Z</time>
      </trkpt>
      <trkpt lat="42.73683" lon="-0.43256">
        <ele>2244</ele>
        <time>2018-12-27T05:19:31Z</time>
      </trkpt>
      <trkpt lat="42.73674" lon="-0.43232">
        <ele>2241</ele>
        <time>2018-12-27T05:19:36Z</time>
      </trkpt>
      <trkpt lat="42.73671" lon="-0.43208">
        <ele>2239</ele>
        <time>2018-12-27T05:19:41Z</time>
      </trkpt>
      <trkpt lat="42.73671" lon="-0.43173">
        <ele>2238</ele>
        <time>2018-12-27T05:19:47Z</time>
      </trkpt>
      <trkpt lat="42.73677" lon="-0.43139">
        <ele>2236</ele>
        <time>2018-12-27T05:19:54Z</time>
      </trkpt>
      <trkpt lat="42.73676" lon="-0.43106">
        <ele>2235</ele>
        <time>2018-12-27T05:20:01Z</time>
      </trkpt>
      <trkpt lat="42.73678" lon="-0.43089">
        <ele>2236</ele>
        <time>2018-12-27T05:20:04Z</time>
      </trkpt>
      <trkpt lat="42.73691" lon="-0.43058">
        <ele>2240</ele>
        <time>2018-12-27T05:20:11Z</time>
      </trkpt>
      <trkpt lat="42.73698" lon="-0.43037">
        <ele>2242</ele>
        <time>2018-12-27T05:20:16Z</time>
      </trkpt>
      <trkpt lat="42.73699" lon="-0.43015">
        <ele>2242</ele>
        <time>2018-12-27T05:20:20Z</time>
      </trkpt>
      <trkpt lat="42.73711" lon="-0.42992">
        <ele>2242</ele>
        <time>2018-12-27T05:20:26Z</time>
      </trkpt>
      <trkpt lat="42.73709" lon="-0.42986">
        <ele>2243</ele>
        <time>2018-12-27T05:20:27Z</time>
      </trkpt>
      <trkpt lat="42.73715" lon="-0.42963">
        <ele>2246</ele>
        <time>2018-12-27T05:20:32Z</time>
      </trkpt>
      <trkpt lat="42.73719" lon="-0.42953">
        <ele>2249</ele>
        <time>2018-12-27T05:20:34Z</time>
      </trkpt>
      <trkpt lat="42.7374" lon="-0.42928">
        <ele>2252</ele>
        <time>2018-12-27T05:20:41Z</time>
      </trkpt>
      <trkpt lat="42.73745" lon="-0.42925">
        <ele>2253</ele>
        <time>2018-12-27T05:20:43Z</time>
      </trkpt>
      <trkpt lat="42.73759" lon="-0.42912">
        <ele>2252</ele>
        <time>2018-12-27T05:20:47Z</time>
      </trkpt>
      <trkpt lat="42.7378" lon="-0.42876">
        <ele>2255</ele>
        <time>2018-12-27T05:20:56Z</time>
      </trkpt>
      <trkpt lat="42.73813" lon="-0.42839">
        <ele>2252</ele>
        <time>2018-12-27T05:21:08Z</time>
      </trkpt>
      <trkpt lat="42.73824" lon="-0.42818">
        <ele>2255</ele>
        <time>2018-12-27T05:21:13Z</time>
      </trkpt>
      <trkpt lat="42.73835" lon="-0.42811">
        <ele>2255</ele>
        <time>2018-12-27T05:21:16Z</time>
      </trkpt>
      <trkpt lat="42.7384" lon="-0.42804">
        <ele>2257</ele>
        <time>2018-12-27T05:21:18Z</time>
      </trkpt>
      <trkpt lat="42.73846" lon="-0.428">
        <ele>2257</ele>
        <time>2018-12-27T05:21:20Z</time>
      </trkpt>
      <trkpt lat="42.73874" lon="-0.42779">
        <ele>2257</ele>
        <time>2018-12-27T05:21:28Z</time>
      </trkpt>
      <trkpt lat="42.73887" lon="-0.42779">
        <ele>2255</ele>
        <time>2018-12-27T05:21:32Z</time>
      </trkpt>
      <trkpt lat="42.73914" lon="-0.42787">
        <ele>2249</ele>
        <time>2018-12-27T05:21:39Z</time>
      </trkpt>
      <trkpt lat="42.73937" lon="-0.42787">
        <ele>2246</ele>
        <time>2018-12-27T05:21:45Z</time>
      </trkpt>
      <trkpt lat="42.73951" lon="-0.42789">
        <ele>2244</ele>
        <time>2018-12-27T05:21:49Z</time>
      </trkpt>
      <trkpt lat="42.73963" lon="-0.42795">
        <ele>2243</ele>
        <time>2018-12-27T05:21:52Z</time>
      </trkpt>
      <trkpt lat="42.73982" lon="-0.42789">
        <ele>2243</ele>
        <time>2018-12-27T05:21:57Z</time>
      </trkpt>
      <trkpt lat="42.74" lon="-0.42782">
        <ele>2246</ele>
        <time>2018-12-27T05:22:03Z</time>
      </trkpt>
      <trkpt lat="42.74014" lon="-0.42773">
        <ele>2246</ele>
        <time>2018-12-27T05:22:07Z</time>
      </trkpt>
      <trkpt lat="42.74034" lon="-0.42769">
        <ele>2243</ele>
        <time>2018-12-27T05:22:12Z</time>
      </trkpt>
      <trkpt lat="42.74055" lon="-0.4277">
        <ele>2237</ele>
        <time>2018-12-27T05:22:18Z</time>
      </trkpt>
      <trkpt lat="42.74088" lon="-0.42765">
        <ele>2230</ele>
        <time>2018-12-27T05:22:26Z</time>
      </trkpt>
      <trkpt lat="42.74102" lon="-0.42755">
        <ele>2230</ele>
        <time>2018-12-27T05:22:31Z</time>
      </trkpt>
      <trkpt lat="42.74114" lon="-0.42741">
        <ele>2230</ele>
        <time>2018-12-27T05:22:35Z</time>
      </trkpt>
      <trkpt lat="42.74125" lon="-0.42732">
        <ele>2229</ele>
        <time>2018-12-27T05:22:38Z</time>
      </trkpt>
      <trkpt lat="42.74044" lon="-0.42692">
        <ele>2229.3</ele>
        <time>2018-12-27T06:14:47Z</time>
      </trkpt>
      <trkpt lat="42.7404" lon="-0.42689">
        <ele>2227.5</ele>
        <time>2018-12-27T06:14:48Z</time>
      </trkpt>
      <trkpt lat="42.74042" lon="-0.42683">
        <ele>2225.7</ele>
        <time>2018-12-27T06:14:49Z</time>
      </trkpt>
      <trkpt lat="42.74047" lon="-0.42683">
        <ele>2224.8</ele>
        <time>2018-12-27T06:14:50Z</time>
      </trkpt>
      <trkpt lat="42.7405" lon="-0.42677">
        <ele>2221.7</ele>
        <time>2018-12-27T06:14:52Z</time>
      </trkpt>
      <trkpt lat="42.74046" lon="-0.42672">
        <ele>2220</ele>
        <time>2018-12-27T06:14:53Z</time>
      </trkpt>
      <trkpt lat="42.74051" lon="-0.42669">
        <ele>2218.5</ele>
        <time>2018-12-27T06:14:54Z</time>
      </trkpt>
      <trkpt lat="42.74057" lon="-0.42669">
        <ele>2217.7</ele>
        <time>2018-12-27T06:14:56Z</time>
      </trkpt>
      <trkpt lat="42.74061" lon="-0.42665">
        <ele>2215.5</ele>
        <time>2018-12-27T06:14:57Z</time>
      </trkpt>
      <trkpt lat="42.74059" lon="-0.42659">
        <ele>2213.3</ele>
        <time>2018-12-27T06:14:58Z</time>
      </trkpt>
      <trkpt lat="42.74058" lon="-0.42653">
        <ele>2210.2</ele>
        <time>2018-12-27T06:15:00Z</time>
      </trkpt>
      <trkpt lat="42.74062" lon="-0.4265">
        <ele>2208.8</ele>
        <time>2018-12-27T06:15:01Z</time>
      </trkpt>
      <trkpt lat="42.74066" lon="-0.42647">
        <ele>2207.6</ele>
        <time>2018-12-27T06:15:02Z</time>
      </trkpt>
      <trkpt lat="42.7407" lon="-0.42643">
        <ele>2205.4</ele>
        <time>2018-12-27T06:15:03Z</time>
      </trkpt>
      <trkpt lat="42.74075" lon="-0.4264">
        <ele>2203.5</ele>
        <time>2018-12-27T06:15:05Z</time>
      </trkpt>
      <trkpt lat="42.74079" lon="-0.42637">
        <ele>2201.4</ele>
        <time>2018-12-27T06:15:06Z</time>
      </trkpt>
      <trkpt lat="42.74084" lon="-0.42633">
        <ele>2199.6</ele>
        <time>2018-12-27T06:15:07Z</time>
      </trkpt>
      <trkpt lat="42.74085" lon="-0.42627">
        <ele>2197.9</ele>
        <time>2018-12-27T06:15:09Z</time>
      </trkpt>
      <trkpt lat="42.74089" lon="-0.42623">
        <ele>2196.9</ele>
        <time>2018-12-27T06:15:10Z</time>
      </trkpt>
      <trkpt lat="42.74091" lon="-0.42618">
        <ele>2195.6</ele>
        <time>2018-12-27T06:15:11Z</time>
      </trkpt>
      <trkpt lat="42.74096" lon="-0.42615">
        <ele>2194.7</ele>
        <time>2018-12-27T06:15:12Z</time>
      </trkpt>
      <trkpt lat="42.741" lon="-0.42611">
        <ele>2192.6</ele>
        <time>2018-12-27T06:15:14Z</time>
      </trkpt>
      <trkpt lat="42.74099" lon="-0.42604">
        <ele>2190.7</ele>
        <time>2018-12-27T06:15:15Z</time>
      </trkpt>
      <trkpt lat="42.74099" lon="-0.42598">
        <ele>2189</ele>
        <time>2018-12-27T06:15:16Z</time>
      </trkpt>
      <trkpt lat="42.74102" lon="-0.42592">
        <ele>2187.7</ele>
        <time>2018-12-27T06:15:18Z</time>
      </trkpt>
      <trkpt lat="42.74104" lon="-0.42587">
        <ele>2186.4</ele>
        <time>2018-12-27T06:15:19Z</time>
      </trkpt>
      <trkpt lat="42.74104" lon="-0.4258">
        <ele>2185.3</ele>
        <time>2018-12-27T06:15:20Z</time>
      </trkpt>
      <trkpt lat="42.74109" lon="-0.42577">
        <ele>2184.9</ele>
        <time>2018-12-27T06:15:21Z</time>
      </trkpt>
      <trkpt lat="42.74112" lon="-0.42572">
        <ele>2183.4</ele>
        <time>2018-12-27T06:15:23Z</time>
      </trkpt>
      <trkpt lat="42.7411" lon="-0.42566">
        <ele>2182</ele>
        <time>2018-12-27T06:15:24Z</time>
      </trkpt>
      <trkpt lat="42.7411" lon="-0.42559">
        <ele>2181.2</ele>
        <time>2018-12-27T06:15:25Z</time>
      </trkpt>
      <trkpt lat="42.74115" lon="-0.42558">
        <ele>2180.8</ele>
        <time>2018-12-27T06:15:26Z</time>
      </trkpt>
      <trkpt lat="42.74119" lon="-0.42555">
        <ele>2180.2</ele>
        <time>2018-12-27T06:15:28Z</time>
      </trkpt>
      <trkpt lat="42.74123" lon="-0.42553">
        <ele>2178.8</ele>
        <time>2018-12-27T06:15:29Z</time>
      </trkpt>
      <trkpt lat="42.74127" lon="-0.42548">
        <ele>2177.8</ele>
        <time>2018-12-27T06:15:30Z</time>
      </trkpt>
      <trkpt lat="42.74124" lon="-0.42543">
        <ele>2176.5</ele>
        <time>2018-12-27T06:15:31Z</time>
      </trkpt>
      <trkpt lat="42.74121" lon="-0.42538">
        <ele>2174.8</ele>
        <time>2018-12-27T06:15:33Z</time>
      </trkpt>
      <trkpt lat="42.74125" lon="-0.42535">
        <ele>2174.1</ele>
        <time>2018-12-27T06:15:34Z</time>
      </trkpt>
      <trkpt lat="42.7413" lon="-0.42534">
        <ele>2173.6</ele>
        <time>2018-12-27T06:15:35Z</time>
      </trkpt>
      <trkpt lat="42.74135" lon="-0.42535">
        <ele>2173.1</ele>
        <time>2018-12-27T06:15:37Z</time>
      </trkpt>
      <trkpt lat="42.7414" lon="-0.42534">
        <ele>2172.3</ele>
        <time>2018-12-27T06:15:38Z</time>
      </trkpt>
      <trkpt lat="42.74145" lon="-0.42534">
        <ele>2171.7</ele>
        <time>2018-12-27T06:15:39Z</time>
      </trkpt>
      <trkpt lat="42.74149" lon="-0.42531">
        <ele>2170.8</ele>
        <time>2018-12-27T06:15:41Z</time>
      </trkpt>
      <trkpt lat="42.74149" lon="-0.42524">
        <ele>2169.4</ele>
        <time>2018-12-27T06:15:42Z</time>
      </trkpt>
      <trkpt lat="42.74147" lon="-0.42518">
        <ele>2168.4</ele>
        <time>2018-12-27T06:15:43Z</time>
      </trkpt>
      <trkpt lat="42.74145" lon="-0.42511">
        <ele>2166.9</ele>
        <time>2018-12-27T06:15:44Z</time>
      </trkpt>
      <trkpt lat="42.74144" lon="-0.42506">
        <ele>2165</ele>
        <time>2018-12-27T06:15:46Z</time>
      </trkpt>
      <trkpt lat="42.74146" lon="-0.425">
        <ele>2163.8</ele>
        <time>2018-12-27T06:15:47Z</time>
      </trkpt>
      <trkpt lat="42.74149" lon="-0.42496">
        <ele>2162.4</ele>
        <time>2018-12-27T06:15:48Z</time>
      </trkpt>
      <trkpt lat="42.74151" lon="-0.4249">
        <ele>2160.5</ele>
        <time>2018-12-27T06:15:49Z</time>
      </trkpt>
      <trkpt lat="42.74152" lon="-0.42483">
        <ele>2159.6</ele>
        <time>2018-12-27T06:15:51Z</time>
      </trkpt>
      <trkpt lat="42.74154" lon="-0.42478">
        <ele>2158.4</ele>
        <time>2018-12-27T06:15:52Z</time>
      </trkpt>
      <trkpt lat="42.74156" lon="-0.42472">
        <ele>2157.9</ele>
        <time>2018-12-27T06:15:53Z</time>
      </trkpt>
      <trkpt lat="42.7416" lon="-0.42468">
        <ele>2157.5</ele>
        <time>2018-12-27T06:15:54Z</time>
      </trkpt>
      <trkpt lat="42.74162" lon="-0.42463">
        <ele>2157</ele>
        <time>2018-12-27T06:15:56Z</time>
      </trkpt>
      <trkpt lat="42.74163" lon="-0.42456">
        <ele>2156.3</ele>
        <time>2018-12-27T06:15:57Z</time>
      </trkpt>
      <trkpt lat="42.74166" lon="-0.42451">
        <ele>2156.1</ele>
        <time>2018-12-27T06:15:58Z</time>
      </trkpt>
      <trkpt lat="42.74169" lon="-0.42446">
        <ele>2155.9</ele>
        <time>2018-12-27T06:16:00Z</time>
      </trkpt>
      <trkpt lat="42.74172" lon="-0.4244">
        <ele>2155.8</ele>
        <time>2018-12-27T06:16:01Z</time>
      </trkpt>
      <trkpt lat="42.74175" lon="-0.42435">
        <ele>2155.6</ele>
        <time>2018-12-27T06:16:02Z</time>
      </trkpt>
      <trkpt lat="42.74179" lon="-0.4243">
        <ele>2154.9</ele>
        <time>2018-12-27T06:16:04Z</time>
      </trkpt>
      <trkpt lat="42.74182" lon="-0.42425">
        <ele>2154.6</ele>
        <time>2018-12-27T06:16:05Z</time>
      </trkpt>
      <trkpt lat="42.74187" lon="-0.42421">
        <ele>2154.2</ele>
        <time>2018-12-27T06:16:06Z</time>
      </trkpt>
      <trkpt lat="42.7419" lon="-0.42415">
        <ele>2153.3</ele>
        <time>2018-12-27T06:16:08Z</time>
      </trkpt>
      <trkpt lat="42.74192" lon="-0.42409">
        <ele>2151.9</ele>
        <time>2018-12-27T06:16:09Z</time>
      </trkpt>
      <trkpt lat="42.74195" lon="-0.42404">
        <ele>2150.7</ele>
        <time>2018-12-27T06:16:10Z</time>
      </trkpt>
      <trkpt lat="42.74198" lon="-0.42398">
        <ele>2149.2</ele>
        <time>2018-12-27T06:16:12Z</time>
      </trkpt>
      <trkpt lat="42.74201" lon="-0.42393">
        <ele>2148.2</ele>
        <time>2018-12-27T06:16:13Z</time>
      </trkpt>
      <trkpt lat="42.74204" lon="-0.42388">
        <ele>2147.4</ele>
        <time>2018-12-27T06:16:14Z</time>
      </trkpt>
      <trkpt lat="42.74207" lon="-0.42383">
        <ele>2147</ele>
        <time>2018-12-27T06:16:16Z</time>
      </trkpt>
      <trkpt lat="42.7421" lon="-0.42378">
        <ele>2146.1</ele>
        <time>2018-12-27T06:16:17Z</time>
      </trkpt>
      <trkpt lat="42.74213" lon="-0.42372">
        <ele>2145.3</ele>
        <time>2018-12-27T06:16:18Z</time>
      </trkpt>
      <trkpt lat="42.74214" lon="-0.42366">
        <ele>2144.6</ele>
        <time>2018-12-27T06:16:20Z</time>
      </trkpt>
      <trkpt lat="42.74216" lon="-0.4236">
        <ele>2143.5</ele>
        <time>2018-12-27T06:16:21Z</time>
      </trkpt>
      <trkpt lat="42.74219" lon="-0.42355">
        <ele>2142.9</ele>
        <time>2018-12-27T06:16:22Z</time>
      </trkpt>
      <trkpt lat="42.74222" lon="-0.4235">
        <ele>2141.9</ele>
        <time>2018-12-27T06:16:23Z</time>
      </trkpt>
      <trkpt lat="42.74225" lon="-0.42345">
        <ele>2140.9</ele>
        <time>2018-12-27T06:16:25Z</time>
      </trkpt>
      <trkpt lat="42.74227" lon="-0.42338">
        <ele>2139.6</ele>
        <time>2018-12-27T06:16:26Z</time>
      </trkpt>
      <trkpt lat="42.7423" lon="-0.42333">
        <ele>2138.9</ele>
        <time>2018-12-27T06:16:27Z</time>
      </trkpt>
      <trkpt lat="42.74231" lon="-0.42327">
        <ele>2137.9</ele>
        <time>2018-12-27T06:16:29Z</time>
      </trkpt>
      <trkpt lat="42.74232" lon="-0.42321">
        <ele>2137.2</ele>
        <time>2018-12-27T06:16:30Z</time>
      </trkpt>
      <trkpt lat="42.74235" lon="-0.42316">
        <ele>2136.4</ele>
        <time>2018-12-27T06:16:31Z</time>
      </trkpt>
      <trkpt lat="42.74238" lon="-0.42311">
        <ele>2134.8</ele>
        <time>2018-12-27T06:16:32Z</time>
      </trkpt>
      <trkpt lat="42.74241" lon="-0.42306">
        <ele>2133.5</ele>
        <time>2018-12-27T06:16:34Z</time>
      </trkpt>
      <trkpt lat="42.74245" lon="-0.42301">
        <ele>2132.6</ele>
        <time>2018-12-27T06:16:35Z</time>
      </trkpt>
      <trkpt lat="42.74246" lon="-0.42295">
        <ele>2131.5</ele>
        <time>2018-12-27T06:16:36Z</time>
      </trkpt>
      <trkpt lat="42.74245" lon="-0.42288">
        <ele>2129.3</ele>
        <time>2018-12-27T06:16:38Z</time>
      </trkpt>
      <trkpt lat="42.74242" lon="-0.42283">
        <ele>2127.7</ele>
        <time>2018-12-27T06:16:39Z</time>
      </trkpt>
      <trkpt lat="42.7424" lon="-0.42277">
        <ele>2126.2</ele>
        <time>2018-12-27T06:16:40Z</time>
      </trkpt>
      <trkpt lat="42.74243" lon="-0.42272">
        <ele>2124.6</ele>
        <time>2018-12-27T06:16:41Z</time>
      </trkpt>
      <trkpt lat="42.74243" lon="-0.42266">
        <ele>2122.9</ele>
        <time>2018-12-27T06:16:43Z</time>
      </trkpt>
      <trkpt lat="42.74243" lon="-0.42259">
        <ele>2120.8</ele>
        <time>2018-12-27T06:16:44Z</time>
      </trkpt>
      <trkpt lat="42.7424" lon="-0.42254">
        <ele>2119.1</ele>
        <time>2018-12-27T06:16:45Z</time>
      </trkpt>
      <trkpt lat="42.74236" lon="-0.4225">
        <ele>2117.7</ele>
        <time>2018-12-27T06:16:47Z</time>
      </trkpt>
      <trkpt lat="42.74232" lon="-0.42247">
        <ele>2116.4</ele>
        <time>2018-12-27T06:16:48Z</time>
      </trkpt>
      <trkpt lat="42.74227" lon="-0.42245">
        <ele>2115.4</ele>
        <time>2018-12-27T06:16:49Z</time>
      </trkpt>
      <trkpt lat="42.74223" lon="-0.42241">
        <ele>2114.5</ele>
        <time>2018-12-27T06:16:50Z</time>
      </trkpt>
      <trkpt lat="42.74222" lon="-0.42235">
        <ele>2113.6</ele>
        <time>2018-12-27T06:16:52Z</time>
      </trkpt>
      <trkpt lat="42.74219" lon="-0.42229">
        <ele>2112.9</ele>
        <time>2018-12-27T06:16:53Z</time>
      </trkpt>
      <trkpt lat="42.74217" lon="-0.42223">
        <ele>2112.6</ele>
        <time>2018-12-27T06:16:54Z</time>
      </trkpt>
      <trkpt lat="42.74217" lon="-0.42216">
        <ele>2112</ele>
        <time>2018-12-27T06:16:56Z</time>
      </trkpt>
      <trkpt lat="42.74217" lon="-0.4221">
        <ele>2111.7</ele>
        <time>2018-12-27T06:16:57Z</time>
      </trkpt>
      <trkpt lat="42.74217" lon="-0.42203">
        <ele>2111.2</ele>
        <time>2018-12-27T06:16:58Z</time>
      </trkpt>
      <trkpt lat="42.74219" lon="-0.42196">
        <ele>2110.8</ele>
        <time>2018-12-27T06:17:00Z</time>
      </trkpt>
      <trkpt lat="42.74219" lon="-0.4219">
        <ele>2110.1</ele>
        <time>2018-12-27T06:17:01Z</time>
      </trkpt>
      <trkpt lat="42.74219" lon="-0.42183">
        <ele>2109.7</ele>
        <time>2018-12-27T06:17:02Z</time>
      </trkpt>
      <trkpt lat="42.74218" lon="-0.42177">
        <ele>2109.1</ele>
        <time>2018-12-27T06:17:03Z</time>
      </trkpt>
      <trkpt lat="42.7422" lon="-0.4217">
        <ele>2108.4</ele>
        <time>2018-12-27T06:17:05Z</time>
      </trkpt>
      <trkpt lat="42.74221" lon="-0.42163">
        <ele>2107.8</ele>
        <time>2018-12-27T06:17:06Z</time>
      </trkpt>
      <trkpt lat="42.74221" lon="-0.42156">
        <ele>2107.5</ele>
        <time>2018-12-27T06:17:07Z</time>
      </trkpt>
      <trkpt lat="42.7422" lon="-0.42149">
        <ele>2107.1</ele>
        <time>2018-12-27T06:17:09Z</time>
      </trkpt>
      <trkpt lat="42.7422" lon="-0.42142">
        <ele>2106.7</ele>
        <time>2018-12-27T06:17:10Z</time>
      </trkpt>
      <trkpt lat="42.74222" lon="-0.42135">
        <ele>2105.9</ele>
        <time>2018-12-27T06:17:12Z</time>
      </trkpt>
      <trkpt lat="42.74224" lon="-0.4213">
        <ele>2105</ele>
        <time>2018-12-27T06:17:13Z</time>
      </trkpt>
      <trkpt lat="42.74225" lon="-0.42124">
        <ele>2103.4</ele>
        <time>2018-12-27T06:17:14Z</time>
      </trkpt>
      <trkpt lat="42.74225" lon="-0.42117">
        <ele>2102.6</ele>
        <time>2018-12-27T06:17:15Z</time>
      </trkpt>
      <trkpt lat="42.74226" lon="-0.42111">
        <ele>2101.4</ele>
        <time>2018-12-27T06:17:17Z</time>
      </trkpt>
      <trkpt lat="42.74226" lon="-0.42104">
        <ele>2100.8</ele>
        <time>2018-12-27T06:17:18Z</time>
      </trkpt>
      <trkpt lat="42.74228" lon="-0.42098">
        <ele>2099.8</ele>
        <time>2018-12-27T06:17:19Z</time>
      </trkpt>
      <trkpt lat="42.74229" lon="-0.42092">
        <ele>2098.5</ele>
        <time>2018-12-27T06:17:20Z</time>
      </trkpt>
      <trkpt lat="42.7423" lon="-0.42086">
        <ele>2097.9</ele>
        <time>2018-12-27T06:17:22Z</time>
      </trkpt>
      <trkpt lat="42.74228" lon="-0.4208">
        <ele>2096.9</ele>
        <time>2018-12-27T06:17:23Z</time>
      </trkpt>
      <trkpt lat="42.74228" lon="-0.42074">
        <ele>2096</ele>
        <time>2018-12-27T06:17:24Z</time>
      </trkpt>
      <trkpt lat="42.74231" lon="-0.42069">
        <ele>2094.6</ele>
        <time>2018-12-27T06:17:25Z</time>
      </trkpt>
      <trkpt lat="42.74232" lon="-0.42063">
        <ele>2093.1</ele>
        <time>2018-12-27T06:17:27Z</time>
      </trkpt>
      <trkpt lat="42.7423" lon="-0.42057">
        <ele>2092.1</ele>
        <time>2018-12-27T06:17:28Z</time>
      </trkpt>
      <trkpt lat="42.74229" lon="-0.4205">
        <ele>2091.1</ele>
        <time>2018-12-27T06:17:29Z</time>
      </trkpt>
      <trkpt lat="42.74227" lon="-0.42044">
        <ele>2090</ele>
        <time>2018-12-27T06:17:31Z</time>
      </trkpt>
      <trkpt lat="42.74225" lon="-0.42038">
        <ele>2089.1</ele>
        <time>2018-12-27T06:17:32Z</time>
      </trkpt>
      <trkpt lat="42.74225" lon="-0.42031">
        <ele>2088.8</ele>
        <time>2018-12-27T06:17:33Z</time>
      </trkpt>
      <trkpt lat="42.74224" lon="-0.42024">
        <ele>2087.4</ele>
        <time>2018-12-27T06:17:35Z</time>
      </trkpt>
      <trkpt lat="42.7422" lon="-0.4202">
        <ele>2087.3</ele>
        <time>2018-12-27T06:17:36Z</time>
      </trkpt>
      <trkpt lat="42.74216" lon="-0.42014">
        <ele>2086.6</ele>
        <time>2018-12-27T06:17:37Z</time>
      </trkpt>
      <trkpt lat="42.74216" lon="-0.42008">
        <ele>2086.2</ele>
        <time>2018-12-27T06:17:39Z</time>
      </trkpt>
      <trkpt lat="42.74216" lon="-0.42001">
        <ele>2085.3</ele>
        <time>2018-12-27T06:17:40Z</time>
      </trkpt>
      <trkpt lat="42.74215" lon="-0.41994">
        <ele>2084.4</ele>
        <time>2018-12-27T06:17:41Z</time>
      </trkpt>
      <trkpt lat="42.74215" lon="-0.41988">
        <ele>2083.5</ele>
        <time>2018-12-27T06:17:43Z</time>
      </trkpt>
      <trkpt lat="42.74215" lon="-0.41981">
        <ele>2081.6</ele>
        <time>2018-12-27T06:17:44Z</time>
      </trkpt>
      <trkpt lat="42.74216" lon="-0.41975">
        <ele>2080.8</ele>
        <time>2018-12-27T06:17:45Z</time>
      </trkpt>
      <trkpt lat="42.74218" lon="-0.41968">
        <ele>2080.1</ele>
        <time>2018-12-27T06:17:47Z</time>
      </trkpt>
      <trkpt lat="42.74219" lon="-0.41962">
        <ele>2079.6</ele>
        <time>2018-12-27T06:17:48Z</time>
      </trkpt>
      <trkpt lat="42.7422" lon="-0.41955">
        <ele>2079.5</ele>
        <time>2018-12-27T06:17:49Z</time>
      </trkpt>
      <trkpt lat="42.74221" lon="-0.41948">
        <ele>2078.9</ele>
        <time>2018-12-27T06:17:51Z</time>
      </trkpt>
      <trkpt lat="42.74223" lon="-0.41941">
        <ele>2078.7</ele>
        <time>2018-12-27T06:17:52Z</time>
      </trkpt>
      <trkpt lat="42.74226" lon="-0.41936">
        <ele>2079.1</ele>
        <time>2018-12-27T06:17:53Z</time>
      </trkpt>
      <trkpt lat="42.7423" lon="-0.4193">
        <ele>2079</ele>
        <time>2018-12-27T06:17:55Z</time>
      </trkpt>
      <trkpt lat="42.74232" lon="-0.41924">
        <ele>2078.6</ele>
        <time>2018-12-27T06:17:56Z</time>
      </trkpt>
      <trkpt lat="42.74234" lon="-0.41918">
        <ele>2078</ele>
        <time>2018-12-27T06:17:57Z</time>
      </trkpt>
      <trkpt lat="42.74236" lon="-0.41912">
        <ele>2077.5</ele>
        <time>2018-12-27T06:17:59Z</time>
      </trkpt>
      <trkpt lat="42.74239" lon="-0.41906">
        <ele>2075.8</ele>
        <time>2018-12-27T06:18:00Z</time>
      </trkpt>
      <trkpt lat="42.74241" lon="-0.41901">
        <ele>2075.9</ele>
        <time>2018-12-27T06:18:01Z</time>
      </trkpt>
      <trkpt lat="42.74242" lon="-0.41894">
        <ele>2075.6</ele>
        <time>2018-12-27T06:18:03Z</time>
      </trkpt>
      <trkpt lat="42.74245" lon="-0.4189">
        <ele>2074.5</ele>
        <time>2018-12-27T06:18:04Z</time>
      </trkpt>
      <trkpt lat="42.74249" lon="-0.41885">
        <ele>2073.8</ele>
        <time>2018-12-27T06:18:05Z</time>
      </trkpt>
      <trkpt lat="42.74252" lon="-0.4188">
        <ele>2072.6</ele>
        <time>2018-12-27T06:18:07Z</time>
      </trkpt>
      <trkpt lat="42.74255" lon="-0.41874">
        <ele>2070.9</ele>
        <time>2018-12-27T06:18:08Z</time>
      </trkpt>
      <trkpt lat="42.74256" lon="-0.41868">
        <ele>2069.9</ele>
        <time>2018-12-27T06:18:09Z</time>
      </trkpt>
      <trkpt lat="42.74258" lon="-0.41862">
        <ele>2068.9</ele>
        <time>2018-12-27T06:18:11Z</time>
      </trkpt>
      <trkpt lat="42.74262" lon="-0.41857">
        <ele>2069</ele>
        <time>2018-12-27T06:18:12Z</time>
      </trkpt>
      <trkpt lat="42.74265" lon="-0.41853">
        <ele>2067.6</ele>
        <time>2018-12-27T06:18:13Z</time>
      </trkpt>
      <trkpt lat="42.74268" lon="-0.41847">
        <ele>2066.7</ele>
        <time>2018-12-27T06:18:14Z</time>
      </trkpt>
      <trkpt lat="42.7427" lon="-0.41841">
        <ele>2065.7</ele>
        <time>2018-12-27T06:18:16Z</time>
      </trkpt>
      <trkpt lat="42.7427" lon="-0.41835">
        <ele>2064.2</ele>
        <time>2018-12-27T06:18:17Z</time>
      </trkpt>
      <trkpt lat="42.74268" lon="-0.41828">
        <ele>2063</ele>
        <time>2018-12-27T06:18:18Z</time>
      </trkpt>
      <trkpt lat="42.74268" lon="-0.41821">
        <ele>2062.1</ele>
        <time>2018-12-27T06:18:20Z</time>
      </trkpt>
      <trkpt lat="42.74268" lon="-0.41815">
        <ele>2062</ele>
        <time>2018-12-27T06:18:21Z</time>
      </trkpt>
      <trkpt lat="42.74271" lon="-0.41808">
        <ele>2061.5</ele>
        <time>2018-12-27T06:18:23Z</time>
      </trkpt>
      <trkpt lat="42.74274" lon="-0.41803">
        <ele>2061.5</ele>
        <time>2018-12-27T06:18:24Z</time>
      </trkpt>
      <trkpt lat="42.74276" lon="-0.41797">
        <ele>2061</ele>
        <time>2018-12-27T06:18:25Z</time>
      </trkpt>
      <trkpt lat="42.74281" lon="-0.41794">
        <ele>2060.6</ele>
        <time>2018-12-27T06:18:26Z</time>
      </trkpt>
      <trkpt lat="42.74286" lon="-0.41791">
        <ele>2060.5</ele>
        <time>2018-12-27T06:18:28Z</time>
      </trkpt>
      <trkpt lat="42.74289" lon="-0.41786">
        <ele>2060.4</ele>
        <time>2018-12-27T06:18:29Z</time>
      </trkpt>
      <trkpt lat="42.74292" lon="-0.4178">
        <ele>2060.4</ele>
        <time>2018-12-27T06:18:31Z</time>
      </trkpt>
      <trkpt lat="42.74297" lon="-0.41778">
        <ele>2060.3</ele>
        <time>2018-12-27T06:18:32Z</time>
      </trkpt>
      <trkpt lat="42.74301" lon="-0.41773">
        <ele>2060.1</ele>
        <time>2018-12-27T06:18:33Z</time>
      </trkpt>
      <trkpt lat="42.74304" lon="-0.41767">
        <ele>2059.9</ele>
        <time>2018-12-27T06:18:35Z</time>
      </trkpt>
      <trkpt lat="42.74306" lon="-0.41761">
        <ele>2059.5</ele>
        <time>2018-12-27T06:18:36Z</time>
      </trkpt>
      <trkpt lat="42.74308" lon="-0.41755">
        <ele>2059.3</ele>
        <time>2018-12-27T06:18:37Z</time>
      </trkpt>
      <trkpt lat="42.7431" lon="-0.41748">
        <ele>2058.9</ele>
        <time>2018-12-27T06:18:39Z</time>
      </trkpt>
      <trkpt lat="42.74311" lon="-0.41742">
        <ele>2058.5</ele>
        <time>2018-12-27T06:18:40Z</time>
      </trkpt>
      <trkpt lat="42.74312" lon="-0.41735">
        <ele>2058.1</ele>
        <time>2018-12-27T06:18:41Z</time>
      </trkpt>
      <trkpt lat="42.74314" lon="-0.4173">
        <ele>2057.9</ele>
        <time>2018-12-27T06:18:43Z</time>
      </trkpt>
      <trkpt lat="42.74317" lon="-0.41724">
        <ele>2057.6</ele>
        <time>2018-12-27T06:18:44Z</time>
      </trkpt>
      <trkpt lat="42.74322" lon="-0.41721">
        <ele>2057.2</ele>
        <time>2018-12-27T06:18:45Z</time>
      </trkpt>
      <trkpt lat="42.74326" lon="-0.41717">
        <ele>2057.1</ele>
        <time>2018-12-27T06:18:47Z</time>
      </trkpt>
      <trkpt lat="42.7433" lon="-0.41711">
        <ele>2056.9</ele>
        <time>2018-12-27T06:18:48Z</time>
      </trkpt>
      <trkpt lat="42.74333" lon="-0.41707">
        <ele>2056.3</ele>
        <time>2018-12-27T06:18:50Z</time>
      </trkpt>
      <trkpt lat="42.74336" lon="-0.41701">
        <ele>2055.6</ele>
        <time>2018-12-27T06:18:51Z</time>
      </trkpt>
      <trkpt lat="42.74338" lon="-0.41695">
        <ele>2055.4</ele>
        <time>2018-12-27T06:18:52Z</time>
      </trkpt>
      <trkpt lat="42.74341" lon="-0.4169">
        <ele>2055.5</ele>
        <time>2018-12-27T06:18:53Z</time>
      </trkpt>
      <trkpt lat="42.74339" lon="-0.41683">
        <ele>2055.2</ele>
        <time>2018-12-27T06:18:55Z</time>
      </trkpt>
      <trkpt lat="42.74338" lon="-0.41677">
        <ele>2054.8</ele>
        <time>2018-12-27T06:18:56Z</time>
      </trkpt>
      <trkpt lat="42.74339" lon="-0.4167">
        <ele>2055.3</ele>
        <time>2018-12-27T06:18:57Z</time>
      </trkpt>
      <trkpt lat="42.74338" lon="-0.41664">
        <ele>2056.6</ele>
        <time>2018-12-27T06:18:59Z</time>
      </trkpt>
      <trkpt lat="42.7434" lon="-0.41657">
        <ele>2057.3</ele>
        <time>2018-12-27T06:19:00Z</time>
      </trkpt>
      <trkpt lat="42.7434" lon="-0.41651">
        <ele>2057.4</ele>
        <time>2018-12-27T06:19:01Z</time>
      </trkpt>
      <trkpt lat="42.7434" lon="-0.41644">
        <ele>2057.2</ele>
        <time>2018-12-27T06:19:03Z</time>
      </trkpt>
      <trkpt lat="42.74342" lon="-0.41638">
        <ele>2056.8</ele>
        <time>2018-12-27T06:19:04Z</time>
      </trkpt>
      <trkpt lat="42.74342" lon="-0.41632">
        <ele>2056.4</ele>
        <time>2018-12-27T06:19:05Z</time>
      </trkpt>
      <trkpt lat="42.74342" lon="-0.41625">
        <ele>2055.8</ele>
        <time>2018-12-27T06:19:06Z</time>
      </trkpt>
      <trkpt lat="42.74344" lon="-0.41619">
        <ele>2055.8</ele>
        <time>2018-12-27T06:19:08Z</time>
      </trkpt>
      <trkpt lat="42.74343" lon="-0.41613">
        <ele>2054.9</ele>
        <time>2018-12-27T06:19:09Z</time>
      </trkpt>
      <trkpt lat="42.74341" lon="-0.41607">
        <ele>2053.6</ele>
        <time>2018-12-27T06:19:10Z</time>
      </trkpt>
      <trkpt lat="42.74342" lon="-0.416">
        <ele>2053.6</ele>
        <time>2018-12-27T06:19:12Z</time>
      </trkpt>
      <trkpt lat="42.74342" lon="-0.41593">
        <ele>2053.1</ele>
        <time>2018-12-27T06:19:13Z</time>
      </trkpt>
      <trkpt lat="42.74343" lon="-0.41586">
        <ele>2052.3</ele>
        <time>2018-12-27T06:19:14Z</time>
      </trkpt>
      <trkpt lat="42.74344" lon="-0.41579">
        <ele>2051.6</ele>
        <time>2018-12-27T06:19:16Z</time>
      </trkpt>
      <trkpt lat="42.74341" lon="-0.41574">
        <ele>2051</ele>
        <time>2018-12-27T06:19:17Z</time>
      </trkpt>
      <trkpt lat="42.74338" lon="-0.41567">
        <ele>2050.3</ele>
        <time>2018-12-27T06:19:19Z</time>
      </trkpt>
      <trkpt lat="42.74337" lon="-0.4156">
        <ele>2049.2</ele>
        <time>2018-12-27T06:19:20Z</time>
      </trkpt>
      <trkpt lat="42.74335" lon="-0.41554">
        <ele>2048.1</ele>
        <time>2018-12-27T06:19:21Z</time>
      </trkpt>
      <trkpt lat="42.74332" lon="-0.41547">
        <ele>2046</ele>
        <time>2018-12-27T06:19:23Z</time>
      </trkpt>
      <trkpt lat="42.7433" lon="-0.41542">
        <ele>2044.9</ele>
        <time>2018-12-27T06:19:24Z</time>
      </trkpt>
      <trkpt lat="42.74326" lon="-0.41537">
        <ele>2043.9</ele>
        <time>2018-12-27T06:19:25Z</time>
      </trkpt>
      <trkpt lat="42.74325" lon="-0.41531">
        <ele>2042.9</ele>
        <time>2018-12-27T06:19:27Z</time>
      </trkpt>
      <trkpt lat="42.74322" lon="-0.41527">
        <ele>2042.8</ele>
        <time>2018-12-27T06:19:28Z</time>
      </trkpt>
      <trkpt lat="42.74318" lon="-0.41522">
        <ele>2042.6</ele>
        <time>2018-12-27T06:19:29Z</time>
      </trkpt>
      <trkpt lat="42.74315" lon="-0.41518">
        <ele>2042.3</ele>
        <time>2018-12-27T06:19:30Z</time>
      </trkpt>
      <trkpt lat="42.74312" lon="-0.41514">
        <ele>2041.7</ele>
        <time>2018-12-27T06:19:32Z</time>
      </trkpt>
      <trkpt lat="42.74309" lon="-0.41508">
        <ele>2040.7</ele>
        <time>2018-12-27T06:19:33Z</time>
      </trkpt>
      <trkpt lat="42.74309" lon="-0.41501">
        <ele>2040.3</ele>
        <time>2018-12-27T06:19:34Z</time>
      </trkpt>
      <trkpt lat="42.74309" lon="-0.41494">
        <ele>2040.2</ele>
        <time>2018-12-27T06:19:36Z</time>
      </trkpt>
      <trkpt lat="42.74305" lon="-0.41496">
        <ele>2038.1</ele>
        <time>2018-12-27T06:19:37Z</time>
      </trkpt>
      <trkpt lat="42.743" lon="-0.41499">
        <ele>2038.6</ele>
        <time>2018-12-27T06:19:38Z</time>
      </trkpt>
      <trkpt lat="42.74305" lon="-0.41499">
        <ele>2038.5</ele>
        <time>2018-12-27T06:19:40Z</time>
      </trkpt>
      <trkpt lat="42.74301" lon="-0.415">
        <ele>2038.3</ele>
        <time>2018-12-27T06:19:41Z</time>
      </trkpt>
      <trkpt lat="42.74305" lon="-0.41497">
        <ele>2039</ele>
        <time>2018-12-27T06:19:42Z</time>
      </trkpt>
      <trkpt lat="42.74308" lon="-0.41491">
        <ele>2038.6</ele>
        <time>2018-12-27T06:19:44Z</time>
      </trkpt>
      <trkpt lat="42.7431" lon="-0.41485">
        <ele>2038.7</ele>
        <time>2018-12-27T06:19:45Z</time>
      </trkpt>
      <trkpt lat="42.74307" lon="-0.41491">
        <ele>2039.2</ele>
        <time>2018-12-27T06:19:46Z</time>
      </trkpt>
      <trkpt lat="42.74307" lon="-0.41484">
        <ele>2039.6</ele>
        <time>2018-12-27T06:19:47Z</time>
      </trkpt>
      <trkpt lat="42.74304" lon="-0.41489">
        <ele>2039.5</ele>
        <time>2018-12-27T06:19:49Z</time>
      </trkpt>
      <trkpt lat="42.74305" lon="-0.41495">
        <ele>2039.6</ele>
        <time>2018-12-27T06:19:50Z</time>
      </trkpt>
      <trkpt lat="42.74302" lon="-0.41491">
        <ele>2040.2</ele>
        <time>2018-12-27T06:19:51Z</time>
      </trkpt>
      <trkpt lat="42.74306" lon="-0.41493">
        <ele>2040.9</ele>
        <time>2018-12-27T06:19:52Z</time>
      </trkpt>
      <trkpt lat="42.74309" lon="-0.41488">
        <ele>2038.7</ele>
        <time>2018-12-27T06:19:53Z</time>
      </trkpt>
      <trkpt lat="42.7431" lon="-0.41483">
        <ele>2037.7</ele>
        <time>2018-12-27T06:19:55Z</time>
      </trkpt>
      <trkpt lat="42.74309" lon="-0.41476">
        <ele>2036.8</ele>
        <time>2018-12-27T06:19:56Z</time>
      </trkpt>
      <trkpt lat="42.74308" lon="-0.41469">
        <ele>2036.4</ele>
        <time>2018-12-27T06:19:57Z</time>
      </trkpt>
      <trkpt lat="42.74306" lon="-0.41463">
        <ele>2036.1</ele>
        <time>2018-12-27T06:19:59Z</time>
      </trkpt>
      <trkpt lat="42.74305" lon="-0.41457">
        <ele>2035.7</ele>
        <time>2018-12-27T06:20:00Z</time>
      </trkpt>
      <trkpt lat="42.74305" lon="-0.4145">
        <ele>2035.3</ele>
        <time>2018-12-27T06:20:01Z</time>
      </trkpt>
      <trkpt lat="42.74303" lon="-0.41444">
        <ele>2035.3</ele>
        <time>2018-12-27T06:20:02Z</time>
      </trkpt>
      <trkpt lat="42.74303" lon="-0.41438">
        <ele>2034.9</ele>
        <time>2018-12-27T06:20:04Z</time>
      </trkpt>
      <trkpt lat="42.74306" lon="-0.41435">
        <ele>2034.6</ele>
        <time>2018-12-27T06:20:05Z</time>
      </trkpt>
      <trkpt lat="42.74311" lon="-0.41432">
        <ele>2034.7</ele>
        <time>2018-12-27T06:20:06Z</time>
      </trkpt>
      <trkpt lat="42.74314" lon="-0.41427">
        <ele>2033.7</ele>
        <time>2018-12-27T06:20:08Z</time>
      </trkpt>
      <trkpt lat="42.74313" lon="-0.4142">
        <ele>2033</ele>
        <time>2018-12-27T06:20:09Z</time>
      </trkpt>
      <trkpt lat="42.74314" lon="-0.41414">
        <ele>2032.9</ele>
        <time>2018-12-27T06:20:10Z</time>
      </trkpt>
      <trkpt lat="42.74315" lon="-0.41407">
        <ele>2032.4</ele>
        <time>2018-12-27T06:20:12Z</time>
      </trkpt>
      <trkpt lat="42.74316" lon="-0.41401">
        <ele>2032</ele>
        <time>2018-12-27T06:20:13Z</time>
      </trkpt>
      <trkpt lat="42.74316" lon="-0.41394">
        <ele>2031.6</ele>
        <time>2018-12-27T06:20:14Z</time>
      </trkpt>
      <trkpt lat="42.74317" lon="-0.41387">
        <ele>2031</ele>
        <time>2018-12-27T06:20:15Z</time>
      </trkpt>
      <trkpt lat="42.74316" lon="-0.41381">
        <ele>2030.3</ele>
        <time>2018-12-27T06:20:17Z</time>
      </trkpt>
      <trkpt lat="42.74319" lon="-0.41375">
        <ele>2029.5</ele>
        <time>2018-12-27T06:20:18Z</time>
      </trkpt>
      <trkpt lat="42.74321" lon="-0.41369">
        <ele>2028.5</ele>
        <time>2018-12-27T06:20:19Z</time>
      </trkpt>
      <trkpt lat="42.74323" lon="-0.41363">
        <ele>2027.3</ele>
        <time>2018-12-27T06:20:21Z</time>
      </trkpt>
      <trkpt lat="42.74328" lon="-0.41361">
        <ele>2026.3</ele>
        <time>2018-12-27T06:20:22Z</time>
      </trkpt>
      <trkpt lat="42.74332" lon="-0.41358">
        <ele>2025.1</ele>
        <time>2018-12-27T06:20:23Z</time>
      </trkpt>
      <trkpt lat="42.74336" lon="-0.41354">
        <ele>2023.7</ele>
        <time>2018-12-27T06:20:25Z</time>
      </trkpt>
      <trkpt lat="42.74339" lon="-0.4135">
        <ele>2022.7</ele>
        <time>2018-12-27T06:20:26Z</time>
      </trkpt>
      <trkpt lat="42.74343" lon="-0.41345">
        <ele>2021.6</ele>
        <time>2018-12-27T06:20:27Z</time>
      </trkpt>
      <trkpt lat="42.74347" lon="-0.41341">
        <ele>2020.7</ele>
        <time>2018-12-27T06:20:28Z</time>
      </trkpt>
      <trkpt lat="42.7435" lon="-0.41337">
        <ele>2019.9</ele>
        <time>2018-12-27T06:20:30Z</time>
      </trkpt>
      <trkpt lat="42.74355" lon="-0.41334">
        <ele>2019.2</ele>
        <time>2018-12-27T06:20:31Z</time>
      </trkpt>
      <trkpt lat="42.74359" lon="-0.41331">
        <ele>2018.4</ele>
        <time>2018-12-27T06:20:32Z</time>
      </trkpt>
      <trkpt lat="42.74363" lon="-0.41328">
        <ele>2017.6</ele>
        <time>2018-12-27T06:20:34Z</time>
      </trkpt>
      <trkpt lat="42.74368" lon="-0.41327">
        <ele>2016.7</ele>
        <time>2018-12-27T06:20:35Z</time>
      </trkpt>
      <trkpt lat="42.74373" lon="-0.41325">
        <ele>2016</ele>
        <time>2018-12-27T06:20:36Z</time>
      </trkpt>
      <trkpt lat="42.74378" lon="-0.41322">
        <ele>2014.9</ele>
        <time>2018-12-27T06:20:38Z</time>
      </trkpt>
      <trkpt lat="42.74383" lon="-0.41321">
        <ele>2013.9</ele>
        <time>2018-12-27T06:20:39Z</time>
      </trkpt>
      <trkpt lat="42.74388" lon="-0.41319">
        <ele>2012.7</ele>
        <time>2018-12-27T06:20:40Z</time>
      </trkpt>
      <trkpt lat="42.74392" lon="-0.41316">
        <ele>2011.6</ele>
        <time>2018-12-27T06:20:42Z</time>
      </trkpt>
      <trkpt lat="42.74395" lon="-0.41311">
        <ele>2010.7</ele>
        <time>2018-12-27T06:20:43Z</time>
      </trkpt>
      <trkpt lat="42.74399" lon="-0.41308">
        <ele>2010.2</ele>
        <time>2018-12-27T06:20:44Z</time>
      </trkpt>
      <trkpt lat="42.74403" lon="-0.41304">
        <ele>2009.1</ele>
        <time>2018-12-27T06:20:45Z</time>
      </trkpt>
      <trkpt lat="42.74406" lon="-0.41299">
        <ele>2008.5</ele>
        <time>2018-12-27T06:20:47Z</time>
      </trkpt>
      <trkpt lat="42.74409" lon="-0.41295">
        <ele>2007.7</ele>
        <time>2018-12-27T06:20:48Z</time>
      </trkpt>
      <trkpt lat="42.74413" lon="-0.41291">
        <ele>2006.3</ele>
        <time>2018-12-27T06:20:49Z</time>
      </trkpt>
      <trkpt lat="42.74416" lon="-0.41286">
        <ele>2005.1</ele>
        <time>2018-12-27T06:20:50Z</time>
      </trkpt>
      <trkpt lat="42.74419" lon="-0.41282">
        <ele>2004.4</ele>
        <time>2018-12-27T06:20:52Z</time>
      </trkpt>
      <trkpt lat="42.74423" lon="-0.41277">
        <ele>2003.4</ele>
        <time>2018-12-27T06:20:53Z</time>
      </trkpt>
      <trkpt lat="42.74428" lon="-0.41276">
        <ele>2002.3</ele>
        <time>2018-12-27T06:20:54Z</time>
      </trkpt>
      <trkpt lat="42.74432" lon="-0.41273">
        <ele>2001</ele>
        <time>2018-12-27T06:20:56Z</time>
      </trkpt>
      <trkpt lat="42.74434" lon="-0.41267">
        <ele>2000.2</ele>
        <time>2018-12-27T06:20:57Z</time>
      </trkpt>
      <trkpt lat="42.74438" lon="-0.41262">
        <ele>1999.1</ele>
        <time>2018-12-27T06:20:58Z</time>
      </trkpt>
      <trkpt lat="42.74441" lon="-0.41257">
        <ele>1998.1</ele>
        <time>2018-12-27T06:21:00Z</time>
      </trkpt>
      <trkpt lat="42.74444" lon="-0.41251">
        <ele>1997.1</ele>
        <time>2018-12-27T06:21:01Z</time>
      </trkpt>
      <trkpt lat="42.74447" lon="-0.41245">
        <ele>1996.4</ele>
        <time>2018-12-27T06:21:02Z</time>
      </trkpt>
      <trkpt lat="42.74449" lon="-0.4124">
        <ele>1995.7</ele>
        <time>2018-12-27T06:21:04Z</time>
      </trkpt>
      <trkpt lat="42.74452" lon="-0.41234">
        <ele>1994.5</ele>
        <time>2018-12-27T06:21:05Z</time>
      </trkpt>
      <trkpt lat="42.74455" lon="-0.41229">
        <ele>1993.6</ele>
        <time>2018-12-27T06:21:06Z</time>
      </trkpt>
      <trkpt lat="42.74459" lon="-0.41224">
        <ele>1993.1</ele>
        <time>2018-12-27T06:21:08Z</time>
      </trkpt>
      <trkpt lat="42.74462" lon="-0.41219">
        <ele>1992.3</ele>
        <time>2018-12-27T06:21:09Z</time>
      </trkpt>
      <trkpt lat="42.74465" lon="-0.41214">
        <ele>1991.5</ele>
        <time>2018-12-27T06:21:10Z</time>
      </trkpt>
      <trkpt lat="42.74469" lon="-0.41209">
        <ele>1990.7</ele>
        <time>2018-12-27T06:21:12Z</time>
      </trkpt>
      <trkpt lat="42.74473" lon="-0.41203">
        <ele>1990</ele>
        <time>2018-12-27T06:21:13Z</time>
      </trkpt>
      <trkpt lat="42.74475" lon="-0.41197">
        <ele>1989.3</ele>
        <time>2018-12-27T06:21:14Z</time>
      </trkpt>
      <trkpt lat="42.74477" lon="-0.41191">
        <ele>1988.6</ele>
        <time>2018-12-27T06:21:16Z</time>
      </trkpt>
      <trkpt lat="42.74479" lon="-0.41184">
        <ele>1987.9</ele>
        <time>2018-12-27T06:21:17Z</time>
      </trkpt>
      <trkpt lat="42.74482" lon="-0.41179">
        <ele>1987</ele>
        <time>2018-12-27T06:21:19Z</time>
      </trkpt>
      <trkpt lat="42.74484" lon="-0.41173">
        <ele>1986.2</ele>
        <time>2018-12-27T06:21:20Z</time>
      </trkpt>
      <trkpt lat="42.74487" lon="-0.41168">
        <ele>1985.4</ele>
        <time>2018-12-27T06:21:21Z</time>
      </trkpt>
      <trkpt lat="42.74488" lon="-0.41161">
        <ele>1985</ele>
        <time>2018-12-27T06:21:22Z</time>
      </trkpt>
      <trkpt lat="42.74491" lon="-0.41155">
        <ele>1983.8</ele>
        <time>2018-12-27T06:21:24Z</time>
      </trkpt>
      <trkpt lat="42.74494" lon="-0.4115">
        <ele>1982.8</ele>
        <time>2018-12-27T06:21:25Z</time>
      </trkpt>
      <trkpt lat="42.74495" lon="-0.41144">
        <ele>1982</ele>
        <time>2018-12-27T06:21:26Z</time>
      </trkpt>
      <trkpt lat="42.74496" lon="-0.41137">
        <ele>1981.3</ele>
        <time>2018-12-27T06:21:28Z</time>
      </trkpt>
      <trkpt lat="42.74497" lon="-0.41131">
        <ele>1980.5</ele>
        <time>2018-12-27T06:21:29Z</time>
      </trkpt>
      <trkpt lat="42.74497" lon="-0.41124">
        <ele>1979.7</ele>
        <time>2018-12-27T06:21:30Z</time>
      </trkpt>
      <trkpt lat="42.74497" lon="-0.41118">
        <ele>1979</ele>
        <time>2018-12-27T06:21:31Z</time>
      </trkpt>
      <trkpt lat="42.74498" lon="-0.41112">
        <ele>1978.4</ele>
        <time>2018-12-27T06:21:33Z</time>
      </trkpt>
      <trkpt lat="42.74499" lon="-0.41105">
        <ele>1978.4</ele>
        <time>2018-12-27T06:21:34Z</time>
      </trkpt>
      <trkpt lat="42.74501" lon="-0.41099">
        <ele>1977.3</ele>
        <time>2018-12-27T06:21:35Z</time>
      </trkpt>
      <trkpt lat="42.74502" lon="-0.41092">
        <ele>1976.1</ele>
        <time>2018-12-27T06:21:37Z</time>
      </trkpt>
      <trkpt lat="42.74505" lon="-0.41086">
        <ele>1974.9</ele>
        <time>2018-12-27T06:21:38Z</time>
      </trkpt>
      <trkpt lat="42.74506" lon="-0.4108">
        <ele>1974.3</ele>
        <time>2018-12-27T06:21:39Z</time>
      </trkpt>
      <trkpt lat="42.74508" lon="-0.41074">
        <ele>1973.5</ele>
        <time>2018-12-27T06:21:41Z</time>
      </trkpt>
      <trkpt lat="42.74509" lon="-0.41067">
        <ele>1972.6</ele>
        <time>2018-12-27T06:21:42Z</time>
      </trkpt>
      <trkpt lat="42.74512" lon="-0.41063">
        <ele>1971.4</ele>
        <time>2018-12-27T06:21:43Z</time>
      </trkpt>
      <trkpt lat="42.74514" lon="-0.41057">
        <ele>1970</ele>
        <time>2018-12-27T06:21:45Z</time>
      </trkpt>
      <trkpt lat="42.74516" lon="-0.41052">
        <ele>1969</ele>
        <time>2018-12-27T06:21:46Z</time>
      </trkpt>
      <trkpt lat="42.74518" lon="-0.41046">
        <ele>1968.4</ele>
        <time>2018-12-27T06:21:47Z</time>
      </trkpt>
      <trkpt lat="42.74519" lon="-0.4104">
        <ele>1967.4</ele>
        <time>2018-12-27T06:21:48Z</time>
      </trkpt>
      <trkpt lat="42.74521" lon="-0.41033">
        <ele>1966.7</ele>
        <time>2018-12-27T06:21:50Z</time>
      </trkpt>
      <trkpt lat="42.74522" lon="-0.41027">
        <ele>1966.3</ele>
        <time>2018-12-27T06:21:51Z</time>
      </trkpt>
      <trkpt lat="42.74523" lon="-0.4102">
        <ele>1965.7</ele>
        <time>2018-12-27T06:21:52Z</time>
      </trkpt>
      <trkpt lat="42.74523" lon="-0.41014">
        <ele>1965.2</ele>
        <time>2018-12-27T06:21:53Z</time>
      </trkpt>
      <trkpt lat="42.74525" lon="-0.41008">
        <ele>1964.1</ele>
        <time>2018-12-27T06:21:55Z</time>
      </trkpt>
      <trkpt lat="42.74527" lon="-0.41002">
        <ele>1963.1</ele>
        <time>2018-12-27T06:21:56Z</time>
      </trkpt>
      <trkpt lat="42.74528" lon="-0.40995">
        <ele>1962.4</ele>
        <time>2018-12-27T06:21:57Z</time>
      </trkpt>
      <trkpt lat="42.7453" lon="-0.40989">
        <ele>1961.7</ele>
        <time>2018-12-27T06:21:59Z</time>
      </trkpt>
      <trkpt lat="42.74532" lon="-0.40984">
        <ele>1960.8</ele>
        <time>2018-12-27T06:22:00Z</time>
      </trkpt>
      <trkpt lat="42.74534" lon="-0.40977">
        <ele>1960.4</ele>
        <time>2018-12-27T06:22:01Z</time>
      </trkpt>
      <trkpt lat="42.74537" lon="-0.40973">
        <ele>1960.1</ele>
        <time>2018-12-27T06:22:02Z</time>
      </trkpt>
      <trkpt lat="42.74539" lon="-0.40967">
        <ele>1959.2</ele>
        <time>2018-12-27T06:22:04Z</time>
      </trkpt>
      <trkpt lat="42.74541" lon="-0.4096">
        <ele>1959.2</ele>
        <time>2018-12-27T06:22:05Z</time>
      </trkpt>
      <trkpt lat="42.74545" lon="-0.40956">
        <ele>1958.8</ele>
        <time>2018-12-27T06:22:06Z</time>
      </trkpt>
      <trkpt lat="42.74549" lon="-0.40952">
        <ele>1957.5</ele>
        <time>2018-12-27T06:22:08Z</time>
      </trkpt>
      <trkpt lat="42.74553" lon="-0.40948">
        <ele>1956.7</ele>
        <time>2018-12-27T06:22:09Z</time>
      </trkpt>
      <trkpt lat="42.74557" lon="-0.40945">
        <ele>1955.5</ele>
        <time>2018-12-27T06:22:10Z</time>
      </trkpt>
      <trkpt lat="42.7456" lon="-0.4094">
        <ele>1954.3</ele>
        <time>2018-12-27T06:22:12Z</time>
      </trkpt>
      <trkpt lat="42.74561" lon="-0.40934">
        <ele>1953.5</ele>
        <time>2018-12-27T06:22:13Z</time>
      </trkpt>
      <trkpt lat="42.74562" lon="-0.40928">
        <ele>1952.8</ele>
        <time>2018-12-27T06:22:14Z</time>
      </trkpt>
      <trkpt lat="42.74564" lon="-0.40922">
        <ele>1951.8</ele>
        <time>2018-12-27T06:22:15Z</time>
      </trkpt>
      <trkpt lat="42.74566" lon="-0.40916">
        <ele>1950.5</ele>
        <time>2018-12-27T06:22:17Z</time>
      </trkpt>
      <trkpt lat="42.74567" lon="-0.4091">
        <ele>1949.7</ele>
        <time>2018-12-27T06:22:18Z</time>
      </trkpt>
      <trkpt lat="42.74567" lon="-0.40903">
        <ele>1949.2</ele>
        <time>2018-12-27T06:22:19Z</time>
      </trkpt>
      <trkpt lat="42.74567" lon="-0.40897">
        <ele>1948.9</ele>
        <time>2018-12-27T06:22:21Z</time>
      </trkpt>
      <trkpt lat="42.74566" lon="-0.4089">
        <ele>1948.5</ele>
        <time>2018-12-27T06:22:22Z</time>
      </trkpt>
      <trkpt lat="42.74563" lon="-0.40884">
        <ele>1947</ele>
        <time>2018-12-27T06:22:23Z</time>
      </trkpt>
      <trkpt lat="42.74563" lon="-0.40878">
        <ele>1946.2</ele>
        <time>2018-12-27T06:22:25Z</time>
      </trkpt>
      <trkpt lat="42.74563" lon="-0.40871">
        <ele>1945.2</ele>
        <time>2018-12-27T06:22:26Z</time>
      </trkpt>
      <trkpt lat="42.74562" lon="-0.40864">
        <ele>1944.2</ele>
        <time>2018-12-27T06:22:27Z</time>
      </trkpt>
      <trkpt lat="42.74561" lon="-0.40858">
        <ele>1943.6</ele>
        <time>2018-12-27T06:22:28Z</time>
      </trkpt>
      <trkpt lat="42.74561" lon="-0.40851">
        <ele>1941.9</ele>
        <time>2018-12-27T06:22:30Z</time>
      </trkpt>
      <trkpt lat="42.7456" lon="-0.40845">
        <ele>1940.6</ele>
        <time>2018-12-27T06:22:31Z</time>
      </trkpt>
      <trkpt lat="42.74558" lon="-0.40839">
        <ele>1939.2</ele>
        <time>2018-12-27T06:22:32Z</time>
      </trkpt>
      <trkpt lat="42.74559" lon="-0.40832">
        <ele>1938.4</ele>
        <time>2018-12-27T06:22:34Z</time>
      </trkpt>
      <trkpt lat="42.74558" lon="-0.40826">
        <ele>1937.6</ele>
        <time>2018-12-27T06:22:35Z</time>
      </trkpt>
      <trkpt lat="42.74559" lon="-0.40819">
        <ele>1936.6</ele>
        <time>2018-12-27T06:22:36Z</time>
      </trkpt>
      <trkpt lat="42.7456" lon="-0.40812">
        <ele>1935.3</ele>
        <time>2018-12-27T06:22:38Z</time>
      </trkpt>
      <trkpt lat="42.7456" lon="-0.40806">
        <ele>1934.2</ele>
        <time>2018-12-27T06:22:39Z</time>
      </trkpt>
      <trkpt lat="42.7456" lon="-0.408">
        <ele>1934.1</ele>
        <time>2018-12-27T06:22:40Z</time>
      </trkpt>
      <trkpt lat="42.74561" lon="-0.40794">
        <ele>1933.7</ele>
        <time>2018-12-27T06:22:41Z</time>
      </trkpt>
      <trkpt lat="42.7456" lon="-0.40787">
        <ele>1932.5</ele>
        <time>2018-12-27T06:22:43Z</time>
      </trkpt>
      <trkpt lat="42.74561" lon="-0.4078">
        <ele>1931.5</ele>
        <time>2018-12-27T06:22:44Z</time>
      </trkpt>
      <trkpt lat="42.74561" lon="-0.40772">
        <ele>1930.4</ele>
        <time>2018-12-27T06:22:46Z</time>
      </trkpt>
      <trkpt lat="42.7456" lon="-0.40766">
        <ele>1929.2</ele>
        <time>2018-12-27T06:22:47Z</time>
      </trkpt>
      <trkpt lat="42.7456" lon="-0.40759">
        <ele>1927.9</ele>
        <time>2018-12-27T06:22:48Z</time>
      </trkpt>
      <trkpt lat="42.74559" lon="-0.40753">
        <ele>1926.7</ele>
        <time>2018-12-27T06:22:49Z</time>
      </trkpt>
      <trkpt lat="42.74558" lon="-0.40747">
        <ele>1925.1</ele>
        <time>2018-12-27T06:22:51Z</time>
      </trkpt>
      <trkpt lat="42.74557" lon="-0.4074">
        <ele>1924.4</ele>
        <time>2018-12-27T06:22:52Z</time>
      </trkpt>
      <trkpt lat="42.74556" lon="-0.40734">
        <ele>1923.3</ele>
        <time>2018-12-27T06:22:53Z</time>
      </trkpt>
      <trkpt lat="42.74556" lon="-0.40727">
        <ele>1922.3</ele>
        <time>2018-12-27T06:22:55Z</time>
      </trkpt>
      <trkpt lat="42.74556" lon="-0.40721">
        <ele>1921.3</ele>
        <time>2018-12-27T06:22:56Z</time>
      </trkpt>
      <trkpt lat="42.74557" lon="-0.40714">
        <ele>1920.2</ele>
        <time>2018-12-27T06:22:57Z</time>
      </trkpt>
      <trkpt lat="42.74558" lon="-0.40708">
        <ele>1919.1</ele>
        <time>2018-12-27T06:22:58Z</time>
      </trkpt>
      <trkpt lat="42.74558" lon="-0.40702">
        <ele>1917.6</ele>
        <time>2018-12-27T06:23:00Z</time>
      </trkpt>
      <trkpt lat="42.74558" lon="-0.40695">
        <ele>1916.6</ele>
        <time>2018-12-27T06:23:01Z</time>
      </trkpt>
      <trkpt lat="42.74559" lon="-0.40689">
        <ele>1914.6</ele>
        <time>2018-12-27T06:23:02Z</time>
      </trkpt>
      <trkpt lat="42.74561" lon="-0.40683">
        <ele>1912.9</ele>
        <time>2018-12-27T06:23:03Z</time>
      </trkpt>
      <trkpt lat="42.74562" lon="-0.40676">
        <ele>1911.8</ele>
        <time>2018-12-27T06:23:05Z</time>
      </trkpt>
      <trkpt lat="42.74566" lon="-0.40671">
        <ele>1910.6</ele>
        <time>2018-12-27T06:23:06Z</time>
      </trkpt>
      <trkpt lat="42.74569" lon="-0.40666">
        <ele>1909.8</ele>
        <time>2018-12-27T06:23:07Z</time>
      </trkpt>
      <trkpt lat="42.74569" lon="-0.40659">
        <ele>1909.7</ele>
        <time>2018-12-27T06:23:09Z</time>
      </trkpt>
      <trkpt lat="42.74567" lon="-0.40653">
        <ele>1908.7</ele>
        <time>2018-12-27T06:23:10Z</time>
      </trkpt>
      <trkpt lat="42.74564" lon="-0.40647">
        <ele>1908.5</ele>
        <time>2018-12-27T06:23:11Z</time>
      </trkpt>
      <trkpt lat="42.74563" lon="-0.40641">
        <ele>1907.4</ele>
        <time>2018-12-27T06:23:13Z</time>
      </trkpt>
      <trkpt lat="42.74562" lon="-0.40633">
        <ele>1906.2</ele>
        <time>2018-12-27T06:23:14Z</time>
      </trkpt>
      <trkpt lat="42.74561" lon="-0.40626">
        <ele>1906.6</ele>
        <time>2018-12-27T06:23:16Z</time>
      </trkpt>
      <trkpt lat="42.74561" lon="-0.40619">
        <ele>1905.8</ele>
        <time>2018-12-27T06:23:17Z</time>
      </trkpt>
      <trkpt lat="42.7456" lon="-0.40613">
        <ele>1905.3</ele>
        <time>2018-12-27T06:23:18Z</time>
      </trkpt>
      <trkpt lat="42.74561" lon="-0.40607">
        <ele>1904.2</ele>
        <time>2018-12-27T06:23:19Z</time>
      </trkpt>
      <trkpt lat="42.7456" lon="-0.406">
        <ele>1903.3</ele>
        <time>2018-12-27T06:23:21Z</time>
      </trkpt>
      <trkpt lat="42.74559" lon="-0.40593">
        <ele>1902.4</ele>
        <time>2018-12-27T06:23:22Z</time>
      </trkpt>
      <trkpt lat="42.74556" lon="-0.40588">
        <ele>1901.9</ele>
        <time>2018-12-27T06:23:23Z</time>
      </trkpt>
      <trkpt lat="42.74555" lon="-0.40582">
        <ele>1900.9</ele>
        <time>2018-12-27T06:23:25Z</time>
      </trkpt>
      <trkpt lat="42.74555" lon="-0.40575">
        <ele>1899.9</ele>
        <time>2018-12-27T06:23:26Z</time>
      </trkpt>
      <trkpt lat="42.74555" lon="-0.40568">
        <ele>1898.7</ele>
        <time>2018-12-27T06:23:27Z</time>
      </trkpt>
      <trkpt lat="42.74554" lon="-0.40561">
        <ele>1897.2</ele>
        <time>2018-12-27T06:23:29Z</time>
      </trkpt>
      <trkpt lat="42.74555" lon="-0.40555">
        <ele>1896.1</ele>
        <time>2018-12-27T06:23:30Z</time>
      </trkpt>
      <trkpt lat="42.74556" lon="-0.40549">
        <ele>1895.3</ele>
        <time>2018-12-27T06:23:31Z</time>
      </trkpt>
      <trkpt lat="42.74558" lon="-0.40542">
        <ele>1894.3</ele>
        <time>2018-12-27T06:23:33Z</time>
      </trkpt>
      <trkpt lat="42.74558" lon="-0.40535">
        <ele>1892.9</ele>
        <time>2018-12-27T06:23:34Z</time>
      </trkpt>
      <trkpt lat="42.74559" lon="-0.40529">
        <ele>1891.4</ele>
        <time>2018-12-27T06:23:35Z</time>
      </trkpt>
      <trkpt lat="42.74559" lon="-0.40522">
        <ele>1890.1</ele>
        <time>2018-12-27T06:23:37Z</time>
      </trkpt>
      <trkpt lat="42.74558" lon="-0.40516">
        <ele>1888.9</ele>
        <time>2018-12-27T06:23:38Z</time>
      </trkpt>
      <trkpt lat="42.74558" lon="-0.40509">
        <ele>1887.8</ele>
        <time>2018-12-27T06:23:39Z</time>
      </trkpt>
      <trkpt lat="42.74558" lon="-0.40502">
        <ele>1886.6</ele>
        <time>2018-12-27T06:23:41Z</time>
      </trkpt>
      <trkpt lat="42.7456" lon="-0.40495">
        <ele>1885.8</ele>
        <time>2018-12-27T06:23:42Z</time>
      </trkpt>
      <trkpt lat="42.74558" lon="-0.40489">
        <ele>1884.8</ele>
        <time>2018-12-27T06:23:43Z</time>
      </trkpt>
      <trkpt lat="42.74555" lon="-0.40483">
        <ele>1883.2</ele>
        <time>2018-12-27T06:23:45Z</time>
      </trkpt>
      <trkpt lat="42.74553" lon="-0.40476">
        <ele>1882.2</ele>
        <time>2018-12-27T06:23:46Z</time>
      </trkpt>
      <trkpt lat="42.74551" lon="-0.40471">
        <ele>1881.6</ele>
        <time>2018-12-27T06:23:47Z</time>
      </trkpt>
      <trkpt lat="42.7455" lon="-0.40465">
        <ele>1880.7</ele>
        <time>2018-12-27T06:23:48Z</time>
      </trkpt>
      <trkpt lat="42.74547" lon="-0.4046">
        <ele>1879.6</ele>
        <time>2018-12-27T06:23:50Z</time>
      </trkpt>
      <trkpt lat="42.74543" lon="-0.40455">
        <ele>1878.2</ele>
        <time>2018-12-27T06:23:51Z</time>
      </trkpt>
      <trkpt lat="42.74541" lon="-0.4045">
        <ele>1877.3</ele>
        <time>2018-12-27T06:23:52Z</time>
      </trkpt>
      <trkpt lat="42.74543" lon="-0.40444">
        <ele>1876.8</ele>
        <time>2018-12-27T06:23:53Z</time>
      </trkpt>
      <trkpt lat="42.74547" lon="-0.40442">
        <ele>1876.1</ele>
        <time>2018-12-27T06:23:55Z</time>
      </trkpt>
      <trkpt lat="42.74552" lon="-0.40439">
        <ele>1875.8</ele>
        <time>2018-12-27T06:23:56Z</time>
      </trkpt>
      <trkpt lat="42.74557" lon="-0.40436">
        <ele>1874.6</ele>
        <time>2018-12-27T06:23:58Z</time>
      </trkpt>
      <trkpt lat="42.74558" lon="-0.40442">
        <ele>1875.6</ele>
        <time>2018-12-27T06:23:59Z</time>
      </trkpt>
      <trkpt lat="42.74562" lon="-0.40448">
        <ele>1875</ele>
        <time>2018-12-27T06:24:00Z</time>
      </trkpt>
      <trkpt lat="42.74566" lon="-0.40448">
        <ele>1874.7</ele>
        <time>2018-12-27T06:24:02Z</time>
      </trkpt>
      <trkpt lat="42.74566" lon="-0.40441">
        <ele>1875.1</ele>
        <time>2018-12-27T06:24:03Z</time>
      </trkpt>
      <trkpt lat="42.74567" lon="-0.40434">
        <ele>1874.7</ele>
        <time>2018-12-27T06:24:04Z</time>
      </trkpt>
      <trkpt lat="42.74564" lon="-0.4043">
        <ele>1875.6</ele>
        <time>2018-12-27T06:24:06Z</time>
      </trkpt>
      <trkpt lat="42.74564" lon="-0.40423">
        <ele>1876.9</ele>
        <time>2018-12-27T06:24:07Z</time>
      </trkpt>
      <trkpt lat="42.74562" lon="-0.40417">
        <ele>1878</ele>
        <time>2018-12-27T06:24:08Z</time>
      </trkpt>
      <trkpt lat="42.74561" lon="-0.40411">
        <ele>1879</ele>
        <time>2018-12-27T06:24:09Z</time>
      </trkpt>
      <trkpt lat="42.7456" lon="-0.40404">
        <ele>1878.7</ele>
        <time>2018-12-27T06:24:11Z</time>
      </trkpt>
      <trkpt lat="42.74559" lon="-0.40397">
        <ele>1878.8</ele>
        <time>2018-12-27T06:24:12Z</time>
      </trkpt>
      <trkpt lat="42.74556" lon="-0.40394">
        <ele>1878.4</ele>
        <time>2018-12-27T06:24:13Z</time>
      </trkpt>
      <trkpt lat="42.74551" lon="-0.40391">
        <ele>1876.6</ele>
        <time>2018-12-27T06:24:15Z</time>
      </trkpt>
      <trkpt lat="42.74549" lon="-0.40386">
        <ele>1875.4</ele>
        <time>2018-12-27T06:24:16Z</time>
      </trkpt>
      <trkpt lat="42.74547" lon="-0.4038">
        <ele>1874.9</ele>
        <time>2018-12-27T06:24:17Z</time>
      </trkpt>
      <trkpt lat="42.74544" lon="-0.40375">
        <ele>1874</ele>
        <time>2018-12-27T06:24:18Z</time>
      </trkpt>
      <trkpt lat="42.74545" lon="-0.40368">
        <ele>1874</ele>
        <time>2018-12-27T06:24:20Z</time>
      </trkpt>
      <trkpt lat="42.74542" lon="-0.40362">
        <ele>1873.2</ele>
        <time>2018-12-27T06:24:21Z</time>
      </trkpt>
      <trkpt lat="42.74541" lon="-0.40355">
        <ele>1872.6</ele>
        <time>2018-12-27T06:24:23Z</time>
      </trkpt>
      <trkpt lat="42.7454" lon="-0.40348">
        <ele>1872.4</ele>
        <time>2018-12-27T06:24:24Z</time>
      </trkpt>
      <trkpt lat="42.74536" lon="-0.40345">
        <ele>1872.5</ele>
        <time>2018-12-27T06:24:25Z</time>
      </trkpt>
      <trkpt lat="42.74533" lon="-0.40339">
        <ele>1872.1</ele>
        <time>2018-12-27T06:24:26Z</time>
      </trkpt>
      <trkpt lat="42.74534" lon="-0.40332">
        <ele>1871.7</ele>
        <time>2018-12-27T06:24:28Z</time>
      </trkpt>
      <trkpt lat="42.74534" lon="-0.40325">
        <ele>1871.1</ele>
        <time>2018-12-27T06:24:29Z</time>
      </trkpt>
      <trkpt lat="42.74533" lon="-0.40319">
        <ele>1871.7</ele>
        <time>2018-12-27T06:24:30Z</time>
      </trkpt>
      <trkpt lat="42.74529" lon="-0.40316">
        <ele>1872.6</ele>
        <time>2018-12-27T06:24:32Z</time>
      </trkpt>
      <trkpt lat="42.74524" lon="-0.40313">
        <ele>1872</ele>
        <time>2018-12-27T06:24:33Z</time>
      </trkpt>
      <trkpt lat="42.7452" lon="-0.4031">
        <ele>1871.6</ele>
        <time>2018-12-27T06:24:34Z</time>
      </trkpt>
      <trkpt lat="42.74518" lon="-0.40305">
        <ele>1871.1</ele>
        <time>2018-12-27T06:24:36Z</time>
      </trkpt>
      <trkpt lat="42.74515" lon="-0.40298">
        <ele>1869.6</ele>
        <time>2018-12-27T06:24:37Z</time>
      </trkpt>
      <trkpt lat="42.74512" lon="-0.40292">
        <ele>1869.8</ele>
        <time>2018-12-27T06:24:38Z</time>
      </trkpt>
      <trkpt lat="42.7451" lon="-0.40287">
        <ele>1869.7</ele>
        <time>2018-12-27T06:24:40Z</time>
      </trkpt>
      <trkpt lat="42.74508" lon="-0.4028">
        <ele>1870</ele>
        <time>2018-12-27T06:24:41Z</time>
      </trkpt>
      <trkpt lat="42.74509" lon="-0.40274">
        <ele>1869.6</ele>
        <time>2018-12-27T06:24:42Z</time>
      </trkpt>
      <trkpt lat="42.7451" lon="-0.40268">
        <ele>1869.3</ele>
        <time>2018-12-27T06:24:44Z</time>
      </trkpt>
      <trkpt lat="42.74513" lon="-0.40263">
        <ele>1868.8</ele>
        <time>2018-12-27T06:24:45Z</time>
      </trkpt>
      <trkpt lat="42.74516" lon="-0.40256">
        <ele>1868.1</ele>
        <time>2018-12-27T06:24:46Z</time>
      </trkpt>
      <trkpt lat="42.74517" lon="-0.40249">
        <ele>1868.5</ele>
        <time>2018-12-27T06:24:48Z</time>
      </trkpt>
      <trkpt lat="42.74517" lon="-0.40241">
        <ele>1869</ele>
        <time>2018-12-27T06:24:49Z</time>
      </trkpt>
      <trkpt lat="42.74513" lon="-0.40236">
        <ele>1869.2</ele>
        <time>2018-12-27T06:24:51Z</time>
      </trkpt>
      <trkpt lat="42.74508" lon="-0.40235">
        <ele>1869.4</ele>
        <time>2018-12-27T06:24:52Z</time>
      </trkpt>
      <trkpt lat="42.74503" lon="-0.40232">
        <ele>1869.8</ele>
        <time>2018-12-27T06:24:53Z</time>
      </trkpt>
      <trkpt lat="42.74498" lon="-0.40232">
        <ele>1870.4</ele>
        <time>2018-12-27T06:24:55Z</time>
      </trkpt>
      <trkpt lat="42.74494" lon="-0.4023">
        <ele>1870.1</ele>
        <time>2018-12-27T06:24:56Z</time>
      </trkpt>
      <trkpt lat="42.7449" lon="-0.40225">
        <ele>1869.6</ele>
        <time>2018-12-27T06:24:57Z</time>
      </trkpt>
      <trkpt lat="42.74486" lon="-0.40221">
        <ele>1869.5</ele>
        <time>2018-12-27T06:24:59Z</time>
      </trkpt>
      <trkpt lat="42.74482" lon="-0.40216">
        <ele>1869.1</ele>
        <time>2018-12-27T06:25:00Z</time>
      </trkpt>
      <trkpt lat="42.74478" lon="-0.40212">
        <ele>1869.4</ele>
        <time>2018-12-27T06:25:01Z</time>
      </trkpt>
      <trkpt lat="42.74474" lon="-0.40209">
        <ele>1869</ele>
        <time>2018-12-27T06:25:03Z</time>
      </trkpt>
      <trkpt lat="42.7447" lon="-0.40204">
        <ele>1868.4</ele>
        <time>2018-12-27T06:25:04Z</time>
      </trkpt>
      <trkpt lat="42.74466" lon="-0.40199">
        <ele>1868.2</ele>
        <time>2018-12-27T06:25:06Z</time>
      </trkpt>
      <trkpt lat="42.74465" lon="-0.40193">
        <ele>1868</ele>
        <time>2018-12-27T06:25:07Z</time>
      </trkpt>
      <trkpt lat="42.74462" lon="-0.40187">
        <ele>1867.8</ele>
        <time>2018-12-27T06:25:08Z</time>
      </trkpt>
      <trkpt lat="42.74461" lon="-0.4018">
        <ele>1868</ele>
        <time>2018-12-27T06:25:10Z</time>
      </trkpt>
      <trkpt lat="42.74458" lon="-0.40174">
        <ele>1867.4</ele>
        <time>2018-12-27T06:25:11Z</time>
      </trkpt>
      <trkpt lat="42.74456" lon="-0.40168">
        <ele>1868</ele>
        <time>2018-12-27T06:25:12Z</time>
      </trkpt>
      <trkpt lat="42.74452" lon="-0.40168">
        <ele>1867.8</ele>
        <time>2018-12-27T06:25:14Z</time>
      </trkpt>
      <trkpt lat="42.74446" lon="-0.40168">
        <ele>1867.6</ele>
        <time>2018-12-27T06:25:15Z</time>
      </trkpt>
      <trkpt lat="42.74441" lon="-0.40167">
        <ele>1866.8</ele>
        <time>2018-12-27T06:25:16Z</time>
      </trkpt>
      <trkpt lat="42.74436" lon="-0.4017">
        <ele>1866</ele>
        <time>2018-12-27T06:25:18Z</time>
      </trkpt>
      <trkpt lat="42.74431" lon="-0.40173">
        <ele>1865.4</ele>
        <time>2018-12-27T06:25:19Z</time>
      </trkpt>
      <trkpt lat="42.74426" lon="-0.40173">
        <ele>1864.3</ele>
        <time>2018-12-27T06:25:21Z</time>
      </trkpt>
      <trkpt lat="42.7442" lon="-0.40174">
        <ele>1864</ele>
        <time>2018-12-27T06:25:22Z</time>
      </trkpt>
      <trkpt lat="42.74416" lon="-0.40173">
        <ele>1862.7</ele>
        <time>2018-12-27T06:25:23Z</time>
      </trkpt>
      <trkpt lat="42.74411" lon="-0.40172">
        <ele>1861</ele>
        <time>2018-12-27T06:25:25Z</time>
      </trkpt>
      <trkpt lat="42.74406" lon="-0.40174">
        <ele>1859.8</ele>
        <time>2018-12-27T06:25:26Z</time>
      </trkpt>
      <trkpt lat="42.744" lon="-0.40174">
        <ele>1858.6</ele>
        <time>2018-12-27T06:25:28Z</time>
      </trkpt>
      <trkpt lat="42.74395" lon="-0.40174">
        <ele>1856.6</ele>
        <time>2018-12-27T06:25:29Z</time>
      </trkpt>
      <trkpt lat="42.74392" lon="-0.40169">
        <ele>1855.3</ele>
        <time>2018-12-27T06:25:30Z</time>
      </trkpt>
      <trkpt lat="42.74388" lon="-0.40166">
        <ele>1854.3</ele>
        <time>2018-12-27T06:25:32Z</time>
      </trkpt>
      <trkpt lat="42.74383" lon="-0.40165">
        <ele>1853.4</ele>
        <time>2018-12-27T06:25:33Z</time>
      </trkpt>
      <trkpt lat="42.74378" lon="-0.40163">
        <ele>1853.6</ele>
        <time>2018-12-27T06:25:34Z</time>
      </trkpt>
      <trkpt lat="42.74375" lon="-0.40168">
        <ele>1851.7</ele>
        <time>2018-12-27T06:25:35Z</time>
      </trkpt>
      <trkpt lat="42.7437" lon="-0.40166">
        <ele>1850.3</ele>
        <time>2018-12-27T06:25:37Z</time>
      </trkpt>
      <trkpt lat="42.74366" lon="-0.40166">
        <ele>1848.5</ele>
        <time>2018-12-27T06:25:38Z</time>
      </trkpt>
      <trkpt lat="42.74362" lon="-0.40169">
        <ele>1847.3</ele>
        <time>2018-12-27T06:25:39Z</time>
      </trkpt>
      <trkpt lat="42.74361" lon="-0.40176">
        <ele>1844.5</ele>
        <time>2018-12-27T06:25:40Z</time>
      </trkpt>
      <trkpt lat="42.7436" lon="-0.40182">
        <ele>1843.7</ele>
        <time>2018-12-27T06:25:42Z</time>
      </trkpt>
      <trkpt lat="42.74358" lon="-0.40188">
        <ele>1841.7</ele>
        <time>2018-12-27T06:25:43Z</time>
      </trkpt>
      <trkpt lat="42.74354" lon="-0.40183">
        <ele>1840</ele>
        <time>2018-12-27T06:25:44Z</time>
      </trkpt>
      <trkpt lat="42.74349" lon="-0.40184">
        <ele>1838.2</ele>
        <time>2018-12-27T06:25:46Z</time>
      </trkpt>
      <trkpt lat="42.74348" lon="-0.4019">
        <ele>1837.3</ele>
        <time>2018-12-27T06:25:47Z</time>
      </trkpt>
      <trkpt lat="42.74343" lon="-0.40192">
        <ele>1835</ele>
        <time>2018-12-27T06:25:48Z</time>
      </trkpt>
      <trkpt lat="42.74339" lon="-0.40188">
        <ele>1833.6</ele>
        <time>2018-12-27T06:25:49Z</time>
      </trkpt>
      <trkpt lat="42.74336" lon="-0.40193">
        <ele>1832.9</ele>
        <time>2018-12-27T06:25:51Z</time>
      </trkpt>
      <trkpt lat="42.74333" lon="-0.40198">
        <ele>1832</ele>
        <time>2018-12-27T06:25:52Z</time>
      </trkpt>
      <trkpt lat="42.74332" lon="-0.40204">
        <ele>1831.4</ele>
        <time>2018-12-27T06:25:53Z</time>
      </trkpt>
      <trkpt lat="42.74331" lon="-0.4021">
        <ele>1830.9</ele>
        <time>2018-12-27T06:25:54Z</time>
      </trkpt>
      <trkpt lat="42.74332" lon="-0.40217">
        <ele>1830.2</ele>
        <time>2018-12-27T06:25:56Z</time>
      </trkpt>
      <trkpt lat="42.74327" lon="-0.40219">
        <ele>1828.8</ele>
        <time>2018-12-27T06:25:57Z</time>
      </trkpt>
      <trkpt lat="42.74323" lon="-0.40222">
        <ele>1827.8</ele>
        <time>2018-12-27T06:25:58Z</time>
      </trkpt>
      <trkpt lat="42.74319" lon="-0.40222">
        <ele>1826.7</ele>
        <time>2018-12-27T06:25:59Z</time>
      </trkpt>
      <trkpt lat="42.74314" lon="-0.40221">
        <ele>1824.5</ele>
        <time>2018-12-27T06:26:01Z</time>
      </trkpt>
      <trkpt lat="42.74309" lon="-0.4022">
        <ele>1822.9</ele>
        <time>2018-12-27T06:26:02Z</time>
      </trkpt>
      <trkpt lat="42.74306" lon="-0.40216">
        <ele>1819.7</ele>
        <time>2018-12-27T06:26:03Z</time>
      </trkpt>
      <trkpt lat="42.74301" lon="-0.40215">
        <ele>1818.2</ele>
        <time>2018-12-27T06:26:04Z</time>
      </trkpt>
      <trkpt lat="42.74297" lon="-0.40216">
        <ele>1815.5</ele>
        <time>2018-12-27T06:26:06Z</time>
      </trkpt>
      <trkpt lat="42.74292" lon="-0.40214">
        <ele>1813.8</ele>
        <time>2018-12-27T06:26:07Z</time>
      </trkpt>
      <trkpt lat="42.74289" lon="-0.40218">
        <ele>1812.1</ele>
        <time>2018-12-27T06:26:08Z</time>
      </trkpt>
      <trkpt lat="42.74284" lon="-0.40219">
        <ele>1810.8</ele>
        <time>2018-12-27T06:26:09Z</time>
      </trkpt>
      <trkpt lat="42.7428" lon="-0.40215">
        <ele>1809.4</ele>
        <time>2018-12-27T06:26:11Z</time>
      </trkpt>
      <trkpt lat="42.74276" lon="-0.40219">
        <ele>1807.8</ele>
        <time>2018-12-27T06:26:12Z</time>
      </trkpt>
      <trkpt lat="42.74273" lon="-0.40224">
        <ele>1806.8</ele>
        <time>2018-12-27T06:26:13Z</time>
      </trkpt>
      <trkpt lat="42.74271" lon="-0.4023">
        <ele>1805.6</ele>
        <time>2018-12-27T06:26:15Z</time>
      </trkpt>
      <trkpt lat="42.74266" lon="-0.40229">
        <ele>1804.4</ele>
        <time>2018-12-27T06:26:16Z</time>
      </trkpt>
      <trkpt lat="42.74262" lon="-0.40225">
        <ele>1803</ele>
        <time>2018-12-27T06:26:17Z</time>
      </trkpt>
      <trkpt lat="42.74258" lon="-0.40221">
        <ele>1801.9</ele>
        <time>2018-12-27T06:26:19Z</time>
      </trkpt>
      <trkpt lat="42.74258" lon="-0.40227">
        <ele>1801.1</ele>
        <time>2018-12-27T06:26:20Z</time>
      </trkpt>
      <trkpt lat="42.74257" lon="-0.40234">
        <ele>1800.4</ele>
        <time>2018-12-27T06:26:21Z</time>
      </trkpt>
      <trkpt lat="42.74252" lon="-0.40237">
        <ele>1799</ele>
        <time>2018-12-27T06:26:23Z</time>
      </trkpt>
      <trkpt lat="42.74256" lon="-0.40246">
        <ele>1798.7</ele>
        <time>2018-12-27T06:26:24Z</time>
      </trkpt>
      <trkpt lat="42.74253" lon="-0.4024">
        <ele>1798.9</ele>
        <time>2018-12-27T06:26:26Z</time>
      </trkpt>
      <trkpt lat="42.74256" lon="-0.40235">
        <ele>1800.7</ele>
        <time>2018-12-27T06:26:27Z</time>
      </trkpt>
      <trkpt lat="42.74251" lon="-0.40234">
        <ele>1798.1</ele>
        <time>2018-12-27T06:26:28Z</time>
      </trkpt>
      <trkpt lat="42.74246" lon="-0.40231">
        <ele>1797</ele>
        <time>2018-12-27T06:26:30Z</time>
      </trkpt>
      <trkpt lat="42.74242" lon="-0.40228">
        <ele>1795.8</ele>
        <time>2018-12-27T06:26:31Z</time>
      </trkpt>
      <trkpt lat="42.74238" lon="-0.40225">
        <ele>1794.7</ele>
        <time>2018-12-27T06:26:32Z</time>
      </trkpt>
      <trkpt lat="42.74234" lon="-0.40222">
        <ele>1793.6</ele>
        <time>2018-12-27T06:26:33Z</time>
      </trkpt>
      <trkpt lat="42.7423" lon="-0.40218">
        <ele>1792.2</ele>
        <time>2018-12-27T06:26:35Z</time>
      </trkpt>
      <trkpt lat="42.74226" lon="-0.40214">
        <ele>1791.2</ele>
        <time>2018-12-27T06:26:36Z</time>
      </trkpt>
      <trkpt lat="42.74221" lon="-0.40213">
        <ele>1790</ele>
        <time>2018-12-27T06:26:37Z</time>
      </trkpt>
      <trkpt lat="42.74217" lon="-0.40213">
        <ele>1789</ele>
        <time>2018-12-27T06:26:39Z</time>
      </trkpt>
      <trkpt lat="42.74213" lon="-0.40216">
        <ele>1787.9</ele>
        <time>2018-12-27T06:26:40Z</time>
      </trkpt>
      <trkpt lat="42.74208" lon="-0.40218">
        <ele>1787</ele>
        <time>2018-12-27T06:26:41Z</time>
      </trkpt>
      <trkpt lat="42.74204" lon="-0.40222">
        <ele>1785.7</ele>
        <time>2018-12-27T06:26:42Z</time>
      </trkpt>
      <trkpt lat="42.742" lon="-0.40224">
        <ele>1784.6</ele>
        <time>2018-12-27T06:26:44Z</time>
      </trkpt>
      <trkpt lat="42.74196" lon="-0.40229">
        <ele>1782.2</ele>
        <time>2018-12-27T06:26:45Z</time>
      </trkpt>
      <trkpt lat="42.74193" lon="-0.40233">
        <ele>1780.7</ele>
        <time>2018-12-27T06:26:46Z</time>
      </trkpt>
      <trkpt lat="42.74188" lon="-0.40234">
        <ele>1780.2</ele>
        <time>2018-12-27T06:26:48Z</time>
      </trkpt>
      <trkpt lat="42.74183" lon="-0.40234">
        <ele>1779.3</ele>
        <time>2018-12-27T06:26:49Z</time>
      </trkpt>
      <trkpt lat="42.74179" lon="-0.40231">
        <ele>1778.5</ele>
        <time>2018-12-27T06:26:50Z</time>
      </trkpt>
      <trkpt lat="42.74175" lon="-0.40228">
        <ele>1777.1</ele>
        <time>2018-12-27T06:26:51Z</time>
      </trkpt>
      <trkpt lat="42.74172" lon="-0.40223">
        <ele>1776.3</ele>
        <time>2018-12-27T06:26:53Z</time>
      </trkpt>
      <trkpt lat="42.74168" lon="-0.4022">
        <ele>1775</ele>
        <time>2018-12-27T06:26:54Z</time>
      </trkpt>
      <trkpt lat="42.74163" lon="-0.40216">
        <ele>1773.9</ele>
        <time>2018-12-27T06:26:55Z</time>
      </trkpt>
      <trkpt lat="42.74161" lon="-0.4021">
        <ele>1773.1</ele>
        <time>2018-12-27T06:26:57Z</time>
      </trkpt>
      <trkpt lat="42.74159" lon="-0.40204">
        <ele>1772.2</ele>
        <time>2018-12-27T06:26:58Z</time>
      </trkpt>
      <trkpt lat="42.74158" lon="-0.40198">
        <ele>1771.5</ele>
        <time>2018-12-27T06:26:59Z</time>
      </trkpt>
      <trkpt lat="42.74154" lon="-0.40193">
        <ele>1770.8</ele>
        <time>2018-12-27T06:27:00Z</time>
      </trkpt>
      <trkpt lat="42.74151" lon="-0.40188">
        <ele>1769.9</ele>
        <time>2018-12-27T06:27:02Z</time>
      </trkpt>
      <trkpt lat="42.74147" lon="-0.40185">
        <ele>1769.2</ele>
        <time>2018-12-27T06:27:03Z</time>
      </trkpt>
      <trkpt lat="42.74142" lon="-0.40185">
        <ele>1768.6</ele>
        <time>2018-12-27T06:27:04Z</time>
      </trkpt>
      <trkpt lat="42.74138" lon="-0.40181">
        <ele>1768.1</ele>
        <time>2018-12-27T06:27:06Z</time>
      </trkpt>
      <trkpt lat="42.74135" lon="-0.40174">
        <ele>1767.1</ele>
        <time>2018-12-27T06:27:07Z</time>
      </trkpt>
      <trkpt lat="42.74132" lon="-0.40169">
        <ele>1766</ele>
        <time>2018-12-27T06:27:09Z</time>
      </trkpt>
      <trkpt lat="42.74128" lon="-0.40165">
        <ele>1765.1</ele>
        <time>2018-12-27T06:27:10Z</time>
      </trkpt>
      <trkpt lat="42.74126" lon="-0.40158">
        <ele>1764.6</ele>
        <time>2018-12-27T06:27:11Z</time>
      </trkpt>
      <trkpt lat="42.74124" lon="-0.40152">
        <ele>1764.2</ele>
        <time>2018-12-27T06:27:13Z</time>
      </trkpt>
      <trkpt lat="42.74118" lon="-0.4015">
        <ele>1763.5</ele>
        <time>2018-12-27T06:27:14Z</time>
      </trkpt>
      <trkpt lat="42.74115" lon="-0.40146">
        <ele>1763</ele>
        <time>2018-12-27T06:27:15Z</time>
      </trkpt>
      <trkpt lat="42.74112" lon="-0.4014">
        <ele>1762.5</ele>
        <time>2018-12-27T06:27:17Z</time>
      </trkpt>
      <trkpt lat="42.7411" lon="-0.40134">
        <ele>1762</ele>
        <time>2018-12-27T06:27:18Z</time>
      </trkpt>
      <trkpt lat="42.74108" lon="-0.40128">
        <ele>1761.7</ele>
        <time>2018-12-27T06:27:19Z</time>
      </trkpt>
      <trkpt lat="42.74105" lon="-0.40122">
        <ele>1761.4</ele>
        <time>2018-12-27T06:27:21Z</time>
      </trkpt>
      <trkpt lat="42.74101" lon="-0.40118">
        <ele>1761.1</ele>
        <time>2018-12-27T06:27:22Z</time>
      </trkpt>
      <trkpt lat="42.74097" lon="-0.40114">
        <ele>1760.6</ele>
        <time>2018-12-27T06:27:23Z</time>
      </trkpt>
      <trkpt lat="42.74095" lon="-0.40108">
        <ele>1760.2</ele>
        <time>2018-12-27T06:27:25Z</time>
      </trkpt>
      <trkpt lat="42.74092" lon="-0.40102">
        <ele>1759.7</ele>
        <time>2018-12-27T06:27:26Z</time>
      </trkpt>
      <trkpt lat="42.74089" lon="-0.40096">
        <ele>1758.8</ele>
        <time>2018-12-27T06:27:28Z</time>
      </trkpt>
      <trkpt lat="42.74085" lon="-0.40092">
        <ele>1758</ele>
        <time>2018-12-27T06:27:29Z</time>
      </trkpt>
      <trkpt lat="42.74082" lon="-0.40086">
        <ele>1757</ele>
        <time>2018-12-27T06:27:30Z</time>
      </trkpt>
      <trkpt lat="42.74083" lon="-0.4008">
        <ele>1757</ele>
        <time>2018-12-27T06:27:32Z</time>
      </trkpt>
      <trkpt lat="42.74082" lon="-0.40072">
        <ele>1757.1</ele>
        <time>2018-12-27T06:27:33Z</time>
      </trkpt>
      <trkpt lat="42.74079" lon="-0.40068">
        <ele>1757.3</ele>
        <time>2018-12-27T06:27:34Z</time>
      </trkpt>
      <trkpt lat="42.74076" lon="-0.40063">
        <ele>1757.3</ele>
        <time>2018-12-27T06:27:36Z</time>
      </trkpt>
      <trkpt lat="42.74072" lon="-0.40058">
        <ele>1756.9</ele>
        <time>2018-12-27T06:27:37Z</time>
      </trkpt>
      <trkpt lat="42.7407" lon="-0.40051">
        <ele>1756.8</ele>
        <time>2018-12-27T06:27:38Z</time>
      </trkpt>
      <trkpt lat="42.74068" lon="-0.40045">
        <ele>1756.4</ele>
        <time>2018-12-27T06:27:40Z</time>
      </trkpt>
      <trkpt lat="42.74066" lon="-0.40039">
        <ele>1755.8</ele>
        <time>2018-12-27T06:27:41Z</time>
      </trkpt>
      <trkpt lat="42.74064" lon="-0.40034">
        <ele>1754.7</ele>
        <time>2018-12-27T06:27:42Z</time>
      </trkpt>
      <trkpt lat="42.7406" lon="-0.4003">
        <ele>1753.8</ele>
        <time>2018-12-27T06:27:43Z</time>
      </trkpt>
      <trkpt lat="42.74058" lon="-0.40023">
        <ele>1753.7</ele>
        <time>2018-12-27T06:27:45Z</time>
      </trkpt>
      <trkpt lat="42.74056" lon="-0.40018">
        <ele>1753.2</ele>
        <time>2018-12-27T06:27:46Z</time>
      </trkpt>
      <trkpt lat="42.74053" lon="-0.40013">
        <ele>1752.9</ele>
        <time>2018-12-27T06:27:47Z</time>
      </trkpt>
      <trkpt lat="42.74052" lon="-0.40005">
        <ele>1752.5</ele>
        <time>2018-12-27T06:27:49Z</time>
      </trkpt>
      <trkpt lat="42.7405" lon="-0.39998">
        <ele>1752.3</ele>
        <time>2018-12-27T06:27:50Z</time>
      </trkpt>
      <trkpt lat="42.7405" lon="-0.39991">
        <ele>1751.5</ele>
        <time>2018-12-27T06:27:52Z</time>
      </trkpt>
      <trkpt lat="42.7405" lon="-0.39985">
        <ele>1750.8</ele>
        <time>2018-12-27T06:27:53Z</time>
      </trkpt>
      <trkpt lat="42.7405" lon="-0.39978">
        <ele>1749.9</ele>
        <time>2018-12-27T06:27:54Z</time>
      </trkpt>
      <trkpt lat="42.74049" lon="-0.39971">
        <ele>1749.1</ele>
        <time>2018-12-27T06:27:56Z</time>
      </trkpt>
      <trkpt lat="42.74049" lon="-0.39965">
        <ele>1748.5</ele>
        <time>2018-12-27T06:27:57Z</time>
      </trkpt>
      <trkpt lat="42.7405" lon="-0.39958">
        <ele>1748.1</ele>
        <time>2018-12-27T06:27:58Z</time>
      </trkpt>
      <trkpt lat="42.74049" lon="-0.39951">
        <ele>1747.9</ele>
        <time>2018-12-27T06:28:00Z</time>
      </trkpt>
      <trkpt lat="42.74044" lon="-0.39948">
        <ele>1748</ele>
        <time>2018-12-27T06:28:01Z</time>
      </trkpt>
      <trkpt lat="42.7404" lon="-0.39946">
        <ele>1747.7</ele>
        <time>2018-12-27T06:28:02Z</time>
      </trkpt>
      <trkpt lat="42.74036" lon="-0.39942">
        <ele>1747.3</ele>
        <time>2018-12-27T06:28:04Z</time>
      </trkpt>
      <trkpt lat="42.74033" lon="-0.39937">
        <ele>1746.7</ele>
        <time>2018-12-27T06:28:05Z</time>
      </trkpt>
      <trkpt lat="42.74029" lon="-0.39934">
        <ele>1745.9</ele>
        <time>2018-12-27T06:28:06Z</time>
      </trkpt>
      <trkpt lat="42.74026" lon="-0.39928">
        <ele>1745.2</ele>
        <time>2018-12-27T06:28:08Z</time>
      </trkpt>
      <trkpt lat="42.74023" lon="-0.39923">
        <ele>1744.2</ele>
        <time>2018-12-27T06:28:09Z</time>
      </trkpt>
      <trkpt lat="42.74019" lon="-0.39918">
        <ele>1742.9</ele>
        <time>2018-12-27T06:28:10Z</time>
      </trkpt>
      <trkpt lat="42.74017" lon="-0.39912">
        <ele>1742.3</ele>
        <time>2018-12-27T06:28:11Z</time>
      </trkpt>
      <trkpt lat="42.74017" lon="-0.39905">
        <ele>1741.2</ele>
        <time>2018-12-27T06:28:13Z</time>
      </trkpt>
      <trkpt lat="42.74016" lon="-0.39899">
        <ele>1740.1</ele>
        <time>2018-12-27T06:28:14Z</time>
      </trkpt>
      <trkpt lat="42.74015" lon="-0.39892">
        <ele>1739.2</ele>
        <time>2018-12-27T06:28:15Z</time>
      </trkpt>
      <trkpt lat="42.74013" lon="-0.39886">
        <ele>1738.7</ele>
        <time>2018-12-27T06:28:17Z</time>
      </trkpt>
      <trkpt lat="42.7401" lon="-0.3988">
        <ele>1738.3</ele>
        <time>2018-12-27T06:28:18Z</time>
      </trkpt>
      <trkpt lat="42.74009" lon="-0.39875">
        <ele>1737.4</ele>
        <time>2018-12-27T06:28:19Z</time>
      </trkpt>
      <trkpt lat="42.74007" lon="-0.39868">
        <ele>1736.9</ele>
        <time>2018-12-27T06:28:21Z</time>
      </trkpt>
      <trkpt lat="42.74005" lon="-0.39862">
        <ele>1736.9</ele>
        <time>2018-12-27T06:28:22Z</time>
      </trkpt>
      <trkpt lat="42.74003" lon="-0.39855">
        <ele>1736.3</ele>
        <time>2018-12-27T06:28:23Z</time>
      </trkpt>
      <trkpt lat="42.74" lon="-0.3985">
        <ele>1735.9</ele>
        <time>2018-12-27T06:28:25Z</time>
      </trkpt>
      <trkpt lat="42.73997" lon="-0.39844">
        <ele>1735.6</ele>
        <time>2018-12-27T06:28:26Z</time>
      </trkpt>
      <trkpt lat="42.73994" lon="-0.39837">
        <ele>1734.9</ele>
        <time>2018-12-27T06:28:28Z</time>
      </trkpt>
      <trkpt lat="42.73992" lon="-0.39832">
        <ele>1735</ele>
        <time>2018-12-27T06:28:29Z</time>
      </trkpt>
      <trkpt lat="42.73989" lon="-0.39826">
        <ele>1734.3</ele>
        <time>2018-12-27T06:28:30Z</time>
      </trkpt>
      <trkpt lat="42.73988" lon="-0.39819">
        <ele>1733.4</ele>
        <time>2018-12-27T06:28:32Z</time>
      </trkpt>
      <trkpt lat="42.73985" lon="-0.39812">
        <ele>1733.1</ele>
        <time>2018-12-27T06:28:33Z</time>
      </trkpt>
      <trkpt lat="42.73983" lon="-0.39806">
        <ele>1732.3</ele>
        <time>2018-12-27T06:28:35Z</time>
      </trkpt>
      <trkpt lat="42.73981" lon="-0.39799">
        <ele>1732</ele>
        <time>2018-12-27T06:28:36Z</time>
      </trkpt>
      <trkpt lat="42.73979" lon="-0.39793">
        <ele>1731.7</ele>
        <time>2018-12-27T06:28:37Z</time>
      </trkpt>
      <trkpt lat="42.73977" lon="-0.39788">
        <ele>1731.8</ele>
        <time>2018-12-27T06:28:38Z</time>
      </trkpt>
      <trkpt lat="42.73974" lon="-0.39781">
        <ele>1731.4</ele>
        <time>2018-12-27T06:28:40Z</time>
      </trkpt>
      <trkpt lat="42.73973" lon="-0.39776">
        <ele>1731.8</ele>
        <time>2018-12-27T06:28:41Z</time>
      </trkpt>
      <trkpt lat="42.73969" lon="-0.39772">
        <ele>1730.5</ele>
        <time>2018-12-27T06:28:42Z</time>
      </trkpt>
      <trkpt lat="42.73968" lon="-0.39764">
        <ele>1730.5</ele>
        <time>2018-12-27T06:28:44Z</time>
      </trkpt>
      <trkpt lat="42.73966" lon="-0.39758">
        <ele>1730.5</ele>
        <time>2018-12-27T06:28:45Z</time>
      </trkpt>
      <trkpt lat="42.73964" lon="-0.39751">
        <ele>1730.4</ele>
        <time>2018-12-27T06:28:47Z</time>
      </trkpt>
      <trkpt lat="42.73963" lon="-0.39744">
        <ele>1730.1</ele>
        <time>2018-12-27T06:28:48Z</time>
      </trkpt>
      <trkpt lat="42.73963" lon="-0.39737">
        <ele>1729.8</ele>
        <time>2018-12-27T06:28:49Z</time>
      </trkpt>
      <trkpt lat="42.73962" lon="-0.3973">
        <ele>1729.2</ele>
        <time>2018-12-27T06:28:51Z</time>
      </trkpt>
      <trkpt lat="42.73962" lon="-0.39724">
        <ele>1729.2</ele>
        <time>2018-12-27T06:28:52Z</time>
      </trkpt>
      <trkpt lat="42.7396" lon="-0.39717">
        <ele>1729.2</ele>
        <time>2018-12-27T06:28:53Z</time>
      </trkpt>
      <trkpt lat="42.73958" lon="-0.3971">
        <ele>1729.2</ele>
        <time>2018-12-27T06:28:55Z</time>
      </trkpt>
      <trkpt lat="42.73955" lon="-0.39705">
        <ele>1728.8</ele>
        <time>2018-12-27T06:28:56Z</time>
      </trkpt>
      <trkpt lat="42.73953" lon="-0.39698">
        <ele>1728.4</ele>
        <time>2018-12-27T06:28:58Z</time>
      </trkpt>
      <trkpt lat="42.73952" lon="-0.39692">
        <ele>1728.3</ele>
        <time>2018-12-27T06:28:59Z</time>
      </trkpt>
      <trkpt lat="42.7395" lon="-0.39685">
        <ele>1728.1</ele>
        <time>2018-12-27T06:29:00Z</time>
      </trkpt>
      <trkpt lat="42.7395" lon="-0.39678">
        <ele>1728.1</ele>
        <time>2018-12-27T06:29:02Z</time>
      </trkpt>
      <trkpt lat="42.7395" lon="-0.3967">
        <ele>1727.7</ele>
        <time>2018-12-27T06:29:03Z</time>
      </trkpt>
      <trkpt lat="42.73946" lon="-0.39667">
        <ele>1727.4</ele>
        <time>2018-12-27T06:29:05Z</time>
      </trkpt>
      <trkpt lat="42.73943" lon="-0.39661">
        <ele>1727.3</ele>
        <time>2018-12-27T06:29:06Z</time>
      </trkpt>
      <trkpt lat="42.73941" lon="-0.39655">
        <ele>1727</ele>
        <time>2018-12-27T06:29:07Z</time>
      </trkpt>
      <trkpt lat="42.7394" lon="-0.39649">
        <ele>1726.6</ele>
        <time>2018-12-27T06:29:08Z</time>
      </trkpt>
      <trkpt lat="42.7394" lon="-0.39642">
        <ele>1726.2</ele>
        <time>2018-12-27T06:29:10Z</time>
      </trkpt>
      <trkpt lat="42.7394" lon="-0.39635">
        <ele>1726</ele>
        <time>2018-12-27T06:29:11Z</time>
      </trkpt>
      <trkpt lat="42.7394" lon="-0.39628">
        <ele>1725.7</ele>
        <time>2018-12-27T06:29:13Z</time>
      </trkpt>
      <trkpt lat="42.73938" lon="-0.39621">
        <ele>1725.4</ele>
        <time>2018-12-27T06:29:14Z</time>
      </trkpt>
      <trkpt lat="42.73936" lon="-0.39615">
        <ele>1725.1</ele>
        <time>2018-12-27T06:29:15Z</time>
      </trkpt>
      <trkpt lat="42.73934" lon="-0.39608">
        <ele>1724.6</ele>
        <time>2018-12-27T06:29:17Z</time>
      </trkpt>
      <trkpt lat="42.73933" lon="-0.39601">
        <ele>1724.4</ele>
        <time>2018-12-27T06:29:18Z</time>
      </trkpt>
      <trkpt lat="42.73933" lon="-0.39595">
        <ele>1724</ele>
        <time>2018-12-27T06:29:19Z</time>
      </trkpt>
      <trkpt lat="42.73932" lon="-0.39588">
        <ele>1723.6</ele>
        <time>2018-12-27T06:29:21Z</time>
      </trkpt>
      <trkpt lat="42.73932" lon="-0.39581">
        <ele>1723.3</ele>
        <time>2018-12-27T06:29:22Z</time>
      </trkpt>
      <trkpt lat="42.7393" lon="-0.39575">
        <ele>1723.2</ele>
        <time>2018-12-27T06:29:23Z</time>
      </trkpt>
      <trkpt lat="42.73929" lon="-0.39568">
        <ele>1723.4</ele>
        <time>2018-12-27T06:29:25Z</time>
      </trkpt>
      <trkpt lat="42.73927" lon="-0.39562">
        <ele>1723.3</ele>
        <time>2018-12-27T06:29:26Z</time>
      </trkpt>
      <trkpt lat="42.73925" lon="-0.39557">
        <ele>1723</ele>
        <time>2018-12-27T06:29:27Z</time>
      </trkpt>
      <trkpt lat="42.73924" lon="-0.3955">
        <ele>1722.8</ele>
        <time>2018-12-27T06:29:28Z</time>
      </trkpt>
      <trkpt lat="42.73923" lon="-0.39542">
        <ele>1722.9</ele>
        <time>2018-12-27T06:29:30Z</time>
      </trkpt>
      <trkpt lat="42.73923" lon="-0.39536">
        <ele>1723.1</ele>
        <time>2018-12-27T06:29:31Z</time>
      </trkpt>
      <trkpt lat="42.73922" lon="-0.3953">
        <ele>1722.5</ele>
        <time>2018-12-27T06:29:32Z</time>
      </trkpt>
      <trkpt lat="42.7392" lon="-0.39523">
        <ele>1722.2</ele>
        <time>2018-12-27T06:29:34Z</time>
      </trkpt>
      <trkpt lat="42.73918" lon="-0.39517">
        <ele>1722.4</ele>
        <time>2018-12-27T06:29:35Z</time>
      </trkpt>
      <trkpt lat="42.73916" lon="-0.3951">
        <ele>1722.2</ele>
        <time>2018-12-27T06:29:37Z</time>
      </trkpt>
      <trkpt lat="42.73915" lon="-0.39504">
        <ele>1722.1</ele>
        <time>2018-12-27T06:29:38Z</time>
      </trkpt>
      <trkpt lat="42.73913" lon="-0.39496">
        <ele>1721.9</ele>
        <time>2018-12-27T06:29:39Z</time>
      </trkpt>
      <trkpt lat="42.73912" lon="-0.39489">
        <ele>1722.1</ele>
        <time>2018-12-27T06:29:41Z</time>
      </trkpt>
      <trkpt lat="42.73911" lon="-0.39481">
        <ele>1722.2</ele>
        <time>2018-12-27T06:29:42Z</time>
      </trkpt>
      <trkpt lat="42.73909" lon="-0.39475">
        <ele>1722.5</ele>
        <time>2018-12-27T06:29:44Z</time>
      </trkpt>
      <trkpt lat="42.73907" lon="-0.39468">
        <ele>1723.1</ele>
        <time>2018-12-27T06:29:45Z</time>
      </trkpt>
      <trkpt lat="42.73907" lon="-0.39461">
        <ele>1723.4</ele>
        <time>2018-12-27T06:29:47Z</time>
      </trkpt>
      <trkpt lat="42.73907" lon="-0.39455">
        <ele>1723.5</ele>
        <time>2018-12-27T06:29:48Z</time>
      </trkpt>
      <trkpt lat="42.73908" lon="-0.39447">
        <ele>1723.6</ele>
        <time>2018-12-27T06:29:49Z</time>
      </trkpt>
      <trkpt lat="42.73909" lon="-0.3944">
        <ele>1723.9</ele>
        <time>2018-12-27T06:29:51Z</time>
      </trkpt>
      <trkpt lat="42.7391" lon="-0.39432">
        <ele>1724</ele>
        <time>2018-12-27T06:29:52Z</time>
      </trkpt>
      <trkpt lat="42.73911" lon="-0.39425">
        <ele>1724.1</ele>
        <time>2018-12-27T06:29:54Z</time>
      </trkpt>
      <trkpt lat="42.73912" lon="-0.39419">
        <ele>1724.2</ele>
        <time>2018-12-27T06:29:55Z</time>
      </trkpt>
      <trkpt lat="42.73912" lon="-0.39412">
        <ele>1724.4</ele>
        <time>2018-12-27T06:29:56Z</time>
      </trkpt>
      <trkpt lat="42.73913" lon="-0.39405">
        <ele>1724.4</ele>
        <time>2018-12-27T06:29:58Z</time>
      </trkpt>
      <trkpt lat="42.73913" lon="-0.39397">
        <ele>1724.3</ele>
        <time>2018-12-27T06:29:59Z</time>
      </trkpt>
      <trkpt lat="42.73914" lon="-0.3939">
        <ele>1724.5</ele>
        <time>2018-12-27T06:30:01Z</time>
      </trkpt>
      <trkpt lat="42.73914" lon="-0.39384">
        <ele>1724.6</ele>
        <time>2018-12-27T06:30:02Z</time>
      </trkpt>
      <trkpt lat="42.73915" lon="-0.39377">
        <ele>1724.7</ele>
        <time>2018-12-27T06:30:03Z</time>
      </trkpt>
      <trkpt lat="42.73915" lon="-0.3937">
        <ele>1724.9</ele>
        <time>2018-12-27T06:30:05Z</time>
      </trkpt>
      <trkpt lat="42.73914" lon="-0.39362">
        <ele>1725.1</ele>
        <time>2018-12-27T06:30:06Z</time>
      </trkpt>
      <trkpt lat="42.73915" lon="-0.39356">
        <ele>1725</ele>
        <time>2018-12-27T06:30:07Z</time>
      </trkpt>
      <trkpt lat="42.73915" lon="-0.39349">
        <ele>1725.1</ele>
        <time>2018-12-27T06:30:09Z</time>
      </trkpt>
      <trkpt lat="42.73917" lon="-0.3934">
        <ele>1725.2</ele>
        <time>2018-12-27T06:30:11Z</time>
      </trkpt>
      <trkpt lat="42.73917" lon="-0.39333">
        <ele>1725.3</ele>
        <time>2018-12-27T06:30:12Z</time>
      </trkpt>
      <trkpt lat="42.73917" lon="-0.39326">
        <ele>1725.2</ele>
        <time>2018-12-27T06:30:13Z</time>
      </trkpt>
      <trkpt lat="42.73919" lon="-0.3932">
        <ele>1725.2</ele>
        <time>2018-12-27T06:30:15Z</time>
      </trkpt>
      <trkpt lat="42.7392" lon="-0.39313">
        <ele>1725.1</ele>
        <time>2018-12-27T06:30:16Z</time>
      </trkpt>
      <trkpt lat="42.7392" lon="-0.39306">
        <ele>1725.1</ele>
        <time>2018-12-27T06:30:17Z</time>
      </trkpt>
      <trkpt lat="42.7392" lon="-0.393">
        <ele>1724.8</ele>
        <time>2018-12-27T06:30:19Z</time>
      </trkpt>
      <trkpt lat="42.73921" lon="-0.39294">
        <ele>1724.8</ele>
        <time>2018-12-27T06:30:20Z</time>
      </trkpt>
      <trkpt lat="42.73922" lon="-0.39287">
        <ele>1724.9</ele>
        <time>2018-12-27T06:30:21Z</time>
      </trkpt>
      <trkpt lat="42.73924" lon="-0.3928">
        <ele>1724.9</ele>
        <time>2018-12-27T06:30:23Z</time>
      </trkpt>
      <trkpt lat="42.73927" lon="-0.39274">
        <ele>1725</ele>
        <time>2018-12-27T06:30:24Z</time>
      </trkpt>
      <trkpt lat="42.73929" lon="-0.39268">
        <ele>1725</ele>
        <time>2018-12-27T06:30:25Z</time>
      </trkpt>
      <trkpt lat="42.7393" lon="-0.39262">
        <ele>1725</ele>
        <time>2018-12-27T06:30:27Z</time>
      </trkpt>
      <trkpt lat="42.73933" lon="-0.39256">
        <ele>1725</ele>
        <time>2018-12-27T06:30:28Z</time>
      </trkpt>
      <trkpt lat="42.73936" lon="-0.39249">
        <ele>1724.9</ele>
        <time>2018-12-27T06:30:30Z</time>
      </trkpt>
      <trkpt lat="42.73939" lon="-0.39242">
        <ele>1724.9</ele>
        <time>2018-12-27T06:30:31Z</time>
      </trkpt>
      <trkpt lat="42.73941" lon="-0.39234">
        <ele>1724.7</ele>
        <time>2018-12-27T06:30:33Z</time>
      </trkpt>
      <trkpt lat="42.73944" lon="-0.39227">
        <ele>1724.7</ele>
        <time>2018-12-27T06:30:34Z</time>
      </trkpt>
      <trkpt lat="42.73947" lon="-0.39221">
        <ele>1724.7</ele>
        <time>2018-12-27T06:30:36Z</time>
      </trkpt>
      <trkpt lat="42.7395" lon="-0.39214">
        <ele>1724.4</ele>
        <time>2018-12-27T06:30:37Z</time>
      </trkpt>
      <trkpt lat="42.73953" lon="-0.39208">
        <ele>1724.5</ele>
        <time>2018-12-27T06:30:39Z</time>
      </trkpt>
      <trkpt lat="42.73956" lon="-0.39201">
        <ele>1724.2</ele>
        <time>2018-12-27T06:30:40Z</time>
      </trkpt>
      <trkpt lat="42.73958" lon="-0.39195">
        <ele>1723.9</ele>
        <time>2018-12-27T06:30:42Z</time>
      </trkpt>
      <trkpt lat="42.7396" lon="-0.39189">
        <ele>1723.4</ele>
        <time>2018-12-27T06:30:43Z</time>
      </trkpt>
      <trkpt lat="42.73962" lon="-0.39182">
        <ele>1723.1</ele>
        <time>2018-12-27T06:30:44Z</time>
      </trkpt>
      <trkpt lat="42.73965" lon="-0.39176">
        <ele>1723.8</ele>
        <time>2018-12-27T06:30:46Z</time>
      </trkpt>
      <trkpt lat="42.73966" lon="-0.3917">
        <ele>1723.1</ele>
        <time>2018-12-27T06:30:47Z</time>
      </trkpt>
      <trkpt lat="42.73969" lon="-0.39164">
        <ele>1722.7</ele>
        <time>2018-12-27T06:30:48Z</time>
      </trkpt>
      <trkpt lat="42.73973" lon="-0.39158">
        <ele>1722.8</ele>
        <time>2018-12-27T06:30:50Z</time>
      </trkpt>
      <trkpt lat="42.73976" lon="-0.39153">
        <ele>1722.4</ele>
        <time>2018-12-27T06:30:51Z</time>
      </trkpt>
      <trkpt lat="42.73979" lon="-0.39148">
        <ele>1722</ele>
        <time>2018-12-27T06:30:53Z</time>
      </trkpt>
      <trkpt lat="42.73982" lon="-0.39142">
        <ele>1721.8</ele>
        <time>2018-12-27T06:30:54Z</time>
      </trkpt>
      <trkpt lat="42.73986" lon="-0.39137">
        <ele>1721.6</ele>
        <time>2018-12-27T06:30:55Z</time>
      </trkpt>
      <trkpt lat="42.7399" lon="-0.39132">
        <ele>1721.8</ele>
        <time>2018-12-27T06:30:57Z</time>
      </trkpt>
      <trkpt lat="42.73991" lon="-0.39126">
        <ele>1721.4</ele>
        <time>2018-12-27T06:30:58Z</time>
      </trkpt>
      <trkpt lat="42.73993" lon="-0.3912">
        <ele>1720.8</ele>
        <time>2018-12-27T06:30:59Z</time>
      </trkpt>
      <trkpt lat="42.73997" lon="-0.39115">
        <ele>1720.9</ele>
        <time>2018-12-27T06:31:01Z</time>
      </trkpt>
      <trkpt lat="42.74" lon="-0.3911">
        <ele>1721.1</ele>
        <time>2018-12-27T06:31:02Z</time>
      </trkpt>
      <trkpt lat="42.74004" lon="-0.39105">
        <ele>1721</ele>
        <time>2018-12-27T06:31:03Z</time>
      </trkpt>
      <trkpt lat="42.74007" lon="-0.391">
        <ele>1720.6</ele>
        <time>2018-12-27T06:31:05Z</time>
      </trkpt>
      <trkpt lat="42.74011" lon="-0.39095">
        <ele>1720.2</ele>
        <time>2018-12-27T06:31:06Z</time>
      </trkpt>
      <trkpt lat="42.74015" lon="-0.3909">
        <ele>1720.2</ele>
        <time>2018-12-27T06:31:08Z</time>
      </trkpt>
      <trkpt lat="42.74018" lon="-0.39085">
        <ele>1719.7</ele>
        <time>2018-12-27T06:31:09Z</time>
      </trkpt>
      <trkpt lat="42.74021" lon="-0.3908">
        <ele>1719.3</ele>
        <time>2018-12-27T06:31:10Z</time>
      </trkpt>
      <trkpt lat="42.74023" lon="-0.39074">
        <ele>1718.9</ele>
        <time>2018-12-27T06:31:11Z</time>
      </trkpt>
      <trkpt lat="42.74026" lon="-0.39068">
        <ele>1718.5</ele>
        <time>2018-12-27T06:31:13Z</time>
      </trkpt>
      <trkpt lat="42.74028" lon="-0.39061">
        <ele>1718.1</ele>
        <time>2018-12-27T06:31:14Z</time>
      </trkpt>
      <trkpt lat="42.74029" lon="-0.39054">
        <ele>1717.5</ele>
        <time>2018-12-27T06:31:16Z</time>
      </trkpt>
      <trkpt lat="42.74029" lon="-0.39047">
        <ele>1717.3</ele>
        <time>2018-12-27T06:31:17Z</time>
      </trkpt>
      <trkpt lat="42.74029" lon="-0.3904">
        <ele>1716.9</ele>
        <time>2018-12-27T06:31:19Z</time>
      </trkpt>
      <trkpt lat="42.7403" lon="-0.39033">
        <ele>1716.4</ele>
        <time>2018-12-27T06:31:20Z</time>
      </trkpt>
      <trkpt lat="42.7403" lon="-0.39026">
        <ele>1716.2</ele>
        <time>2018-12-27T06:31:21Z</time>
      </trkpt>
      <trkpt lat="42.74031" lon="-0.3902">
        <ele>1716.1</ele>
        <time>2018-12-27T06:31:22Z</time>
      </trkpt>
      <trkpt lat="42.74031" lon="-0.39012">
        <ele>1715.9</ele>
        <time>2018-12-27T06:31:24Z</time>
      </trkpt>
      <trkpt lat="42.74032" lon="-0.39005">
        <ele>1715.4</ele>
        <time>2018-12-27T06:31:25Z</time>
      </trkpt>
      <trkpt lat="42.74033" lon="-0.38999">
        <ele>1715.3</ele>
        <time>2018-12-27T06:31:27Z</time>
      </trkpt>
      <trkpt lat="42.74033" lon="-0.38993">
        <ele>1715.1</ele>
        <time>2018-12-27T06:31:28Z</time>
      </trkpt>
      <trkpt lat="42.74035" lon="-0.38987">
        <ele>1714.5</ele>
        <time>2018-12-27T06:31:29Z</time>
      </trkpt>
      <trkpt lat="42.74038" lon="-0.38983">
        <ele>1714</ele>
        <time>2018-12-27T06:31:30Z</time>
      </trkpt>
      <trkpt lat="42.74039" lon="-0.38976">
        <ele>1714.1</ele>
        <time>2018-12-27T06:31:31Z</time>
      </trkpt>
      <trkpt lat="42.74043" lon="-0.38974">
        <ele>1715</ele>
        <time>2018-12-27T06:31:33Z</time>
      </trkpt>
      <trkpt lat="42.74045" lon="-0.38969">
        <ele>1713.7</ele>
        <time>2018-12-27T06:31:34Z</time>
      </trkpt>
      <trkpt lat="42.74042" lon="-0.38962">
        <ele>1713.1</ele>
        <time>2018-12-27T06:31:35Z</time>
      </trkpt>
      <trkpt lat="42.74042" lon="-0.38956">
        <ele>1713.1</ele>
        <time>2018-12-27T06:31:37Z</time>
      </trkpt>
      <trkpt lat="42.74046" lon="-0.38953">
        <ele>1712.5</ele>
        <time>2018-12-27T06:31:38Z</time>
      </trkpt>
      <trkpt lat="42.74048" lon="-0.38947">
        <ele>1712.4</ele>
        <time>2018-12-27T06:31:39Z</time>
      </trkpt>
      <trkpt lat="42.74051" lon="-0.38942">
        <ele>1713.3</ele>
        <time>2018-12-27T06:31:41Z</time>
      </trkpt>
      <trkpt lat="42.74052" lon="-0.38935">
        <ele>1712.7</ele>
        <time>2018-12-27T06:31:42Z</time>
      </trkpt>
      <trkpt lat="42.74051" lon="-0.38929">
        <ele>1711.5</ele>
        <time>2018-12-27T06:31:43Z</time>
      </trkpt>
      <trkpt lat="42.74051" lon="-0.38922">
        <ele>1711.4</ele>
        <time>2018-12-27T06:31:45Z</time>
      </trkpt>
      <trkpt lat="42.74051" lon="-0.38915">
        <ele>1711.4</ele>
        <time>2018-12-27T06:31:46Z</time>
      </trkpt>
      <trkpt lat="42.7405" lon="-0.38908">
        <ele>1711.3</ele>
        <time>2018-12-27T06:31:47Z</time>
      </trkpt>
      <trkpt lat="42.74051" lon="-0.38901">
        <ele>1711.2</ele>
        <time>2018-12-27T06:31:49Z</time>
      </trkpt>
      <trkpt lat="42.74052" lon="-0.38894">
        <ele>1710.6</ele>
        <time>2018-12-27T06:31:50Z</time>
      </trkpt>
      <trkpt lat="42.74053" lon="-0.38887">
        <ele>1710.2</ele>
        <time>2018-12-27T06:31:51Z</time>
      </trkpt>
      <trkpt lat="42.74055" lon="-0.38881">
        <ele>1709.7</ele>
        <time>2018-12-27T06:31:53Z</time>
      </trkpt>
      <trkpt lat="42.74058" lon="-0.38875">
        <ele>1709.2</ele>
        <time>2018-12-27T06:31:54Z</time>
      </trkpt>
      <trkpt lat="42.7406" lon="-0.38869">
        <ele>1709.3</ele>
        <time>2018-12-27T06:31:55Z</time>
      </trkpt>
      <trkpt lat="42.74061" lon="-0.38863">
        <ele>1709.4</ele>
        <time>2018-12-27T06:31:57Z</time>
      </trkpt>
      <trkpt lat="42.74062" lon="-0.38856">
        <ele>1709.4</ele>
        <time>2018-12-27T06:31:58Z</time>
      </trkpt>
      <trkpt lat="42.74062" lon="-0.3885">
        <ele>1709.3</ele>
        <time>2018-12-27T06:31:59Z</time>
      </trkpt>
      <trkpt lat="42.74061" lon="-0.38843">
        <ele>1709.2</ele>
        <time>2018-12-27T06:32:01Z</time>
      </trkpt>
      <trkpt lat="42.74059" lon="-0.38838">
        <ele>1709.1</ele>
        <time>2018-12-27T06:32:02Z</time>
      </trkpt>
      <trkpt lat="42.74056" lon="-0.38832">
        <ele>1709</ele>
        <time>2018-12-27T06:32:03Z</time>
      </trkpt>
      <trkpt lat="42.74054" lon="-0.38826">
        <ele>1708.7</ele>
        <time>2018-12-27T06:32:04Z</time>
      </trkpt>
      <trkpt lat="42.74051" lon="-0.3882">
        <ele>1708.4</ele>
        <time>2018-12-27T06:32:06Z</time>
      </trkpt>
      <trkpt lat="42.74048" lon="-0.38815">
        <ele>1708</ele>
        <time>2018-12-27T06:32:07Z</time>
      </trkpt>
      <trkpt lat="42.74047" lon="-0.38808">
        <ele>1707.7</ele>
        <time>2018-12-27T06:32:08Z</time>
      </trkpt>
      <trkpt lat="42.74045" lon="-0.38802">
        <ele>1707.5</ele>
        <time>2018-12-27T06:32:10Z</time>
      </trkpt>
      <trkpt lat="42.74043" lon="-0.38797">
        <ele>1707.2</ele>
        <time>2018-12-27T06:32:11Z</time>
      </trkpt>
      <trkpt lat="42.74041" lon="-0.3879">
        <ele>1707</ele>
        <time>2018-12-27T06:32:12Z</time>
      </trkpt>
      <trkpt lat="42.74038" lon="-0.38784">
        <ele>1706.7</ele>
        <time>2018-12-27T06:32:14Z</time>
      </trkpt>
      <trkpt lat="42.74037" lon="-0.38778">
        <ele>1706.5</ele>
        <time>2018-12-27T06:32:15Z</time>
      </trkpt>
      <trkpt lat="42.74035" lon="-0.38771">
        <ele>1706.2</ele>
        <time>2018-12-27T06:32:16Z</time>
      </trkpt>
      <trkpt lat="42.74033" lon="-0.38764">
        <ele>1705.8</ele>
        <time>2018-12-27T06:32:18Z</time>
      </trkpt>
      <trkpt lat="42.74033" lon="-0.38757">
        <ele>1705.3</ele>
        <time>2018-12-27T06:32:19Z</time>
      </trkpt>
      <trkpt lat="42.74033" lon="-0.3875">
        <ele>1705.1</ele>
        <time>2018-12-27T06:32:21Z</time>
      </trkpt>
      <trkpt lat="42.74032" lon="-0.38743">
        <ele>1704.8</ele>
        <time>2018-12-27T06:32:22Z</time>
      </trkpt>
      <trkpt lat="42.74031" lon="-0.38737">
        <ele>1704.6</ele>
        <time>2018-12-27T06:32:23Z</time>
      </trkpt>
      <trkpt lat="42.74029" lon="-0.3873">
        <ele>1704.6</ele>
        <time>2018-12-27T06:32:25Z</time>
      </trkpt>
      <trkpt lat="42.74028" lon="-0.38724">
        <ele>1704.3</ele>
        <time>2018-12-27T06:32:26Z</time>
      </trkpt>
      <trkpt lat="42.74027" lon="-0.38717">
        <ele>1704.1</ele>
        <time>2018-12-27T06:32:27Z</time>
      </trkpt>
      <trkpt lat="42.74025" lon="-0.3871">
        <ele>1703.5</ele>
        <time>2018-12-27T06:32:29Z</time>
      </trkpt>
      <trkpt lat="42.74023" lon="-0.38704">
        <ele>1703.2</ele>
        <time>2018-12-27T06:32:30Z</time>
      </trkpt>
      <trkpt lat="42.74022" lon="-0.38697">
        <ele>1702.9</ele>
        <time>2018-12-27T06:32:31Z</time>
      </trkpt>
      <trkpt lat="42.7402" lon="-0.38691">
        <ele>1702.8</ele>
        <time>2018-12-27T06:32:33Z</time>
      </trkpt>
      <trkpt lat="42.7402" lon="-0.38684">
        <ele>1702.9</ele>
        <time>2018-12-27T06:32:34Z</time>
      </trkpt>
      <trkpt lat="42.74018" lon="-0.38678">
        <ele>1703.1</ele>
        <time>2018-12-27T06:32:35Z</time>
      </trkpt>
      <trkpt lat="42.74017" lon="-0.38671">
        <ele>1702.7</ele>
        <time>2018-12-27T06:32:37Z</time>
      </trkpt>
      <trkpt lat="42.74014" lon="-0.38664">
        <ele>1702.1</ele>
        <time>2018-12-27T06:32:38Z</time>
      </trkpt>
      <trkpt lat="42.74012" lon="-0.38658">
        <ele>1701.3</ele>
        <time>2018-12-27T06:32:40Z</time>
      </trkpt>
      <trkpt lat="42.74009" lon="-0.38652">
        <ele>1701.3</ele>
        <time>2018-12-27T06:32:41Z</time>
      </trkpt>
      <trkpt lat="42.74007" lon="-0.38646">
        <ele>1701.3</ele>
        <time>2018-12-27T06:32:42Z</time>
      </trkpt>
      <trkpt lat="42.74005" lon="-0.3864">
        <ele>1701</ele>
        <time>2018-12-27T06:32:44Z</time>
      </trkpt>
      <trkpt lat="42.74002" lon="-0.38633">
        <ele>1700.7</ele>
        <time>2018-12-27T06:32:45Z</time>
      </trkpt>
      <trkpt lat="42.73998" lon="-0.38628">
        <ele>1700.3</ele>
        <time>2018-12-27T06:32:47Z</time>
      </trkpt>
      <trkpt lat="42.73994" lon="-0.38622">
        <ele>1700.5</ele>
        <time>2018-12-27T06:32:48Z</time>
      </trkpt>
      <trkpt lat="42.73992" lon="-0.38617">
        <ele>1700.1</ele>
        <time>2018-12-27T06:32:49Z</time>
      </trkpt>
      <trkpt lat="42.73987" lon="-0.38613">
        <ele>1699.9</ele>
        <time>2018-12-27T06:32:51Z</time>
      </trkpt>
      <trkpt lat="42.73983" lon="-0.38608">
        <ele>1699.8</ele>
        <time>2018-12-27T06:32:52Z</time>
      </trkpt>
      <trkpt lat="42.7398" lon="-0.38603">
        <ele>1699.4</ele>
        <time>2018-12-27T06:32:54Z</time>
      </trkpt>
      <trkpt lat="42.73976" lon="-0.38598">
        <ele>1699.1</ele>
        <time>2018-12-27T06:32:55Z</time>
      </trkpt>
      <trkpt lat="42.73974" lon="-0.38593">
        <ele>1698.6</ele>
        <time>2018-12-27T06:32:56Z</time>
      </trkpt>
      <trkpt lat="42.7397" lon="-0.38588">
        <ele>1698.1</ele>
        <time>2018-12-27T06:32:57Z</time>
      </trkpt>
      <trkpt lat="42.73966" lon="-0.38584">
        <ele>1698</ele>
        <time>2018-12-27T06:32:59Z</time>
      </trkpt>
      <trkpt lat="42.73963" lon="-0.3858">
        <ele>1697.7</ele>
        <time>2018-12-27T06:33:00Z</time>
      </trkpt>
      <trkpt lat="42.73958" lon="-0.38576">
        <ele>1697.4</ele>
        <time>2018-12-27T06:33:02Z</time>
      </trkpt>
      <trkpt lat="42.73955" lon="-0.38571">
        <ele>1697.3</ele>
        <time>2018-12-27T06:33:03Z</time>
      </trkpt>
      <trkpt lat="42.73951" lon="-0.38565">
        <ele>1696.9</ele>
        <time>2018-12-27T06:33:04Z</time>
      </trkpt>
      <trkpt lat="42.73948" lon="-0.3856">
        <ele>1696.7</ele>
        <time>2018-12-27T06:33:06Z</time>
      </trkpt>
      <trkpt lat="42.73946" lon="-0.38554">
        <ele>1696.7</ele>
        <time>2018-12-27T06:33:07Z</time>
      </trkpt>
      <trkpt lat="42.73943" lon="-0.38548">
        <ele>1696.3</ele>
        <time>2018-12-27T06:33:08Z</time>
      </trkpt>
      <trkpt lat="42.7394" lon="-0.38542">
        <ele>1696.2</ele>
        <time>2018-12-27T06:33:10Z</time>
      </trkpt>
      <trkpt lat="42.73936" lon="-0.38537">
        <ele>1696.1</ele>
        <time>2018-12-27T06:33:11Z</time>
      </trkpt>
      <trkpt lat="42.73932" lon="-0.38533">
        <ele>1695.9</ele>
        <time>2018-12-27T06:33:13Z</time>
      </trkpt>
      <trkpt lat="42.7393" lon="-0.38527">
        <ele>1695.6</ele>
        <time>2018-12-27T06:33:14Z</time>
      </trkpt>
      <trkpt lat="42.73926" lon="-0.38522">
        <ele>1695.3</ele>
        <time>2018-12-27T06:33:15Z</time>
      </trkpt>
      <trkpt lat="42.73922" lon="-0.38517">
        <ele>1695</ele>
        <time>2018-12-27T06:33:17Z</time>
      </trkpt>
      <trkpt lat="42.73919" lon="-0.38512">
        <ele>1694.7</ele>
        <time>2018-12-27T06:33:18Z</time>
      </trkpt>
      <trkpt lat="42.73915" lon="-0.38509">
        <ele>1694.4</ele>
        <time>2018-12-27T06:33:19Z</time>
      </trkpt>
      <trkpt lat="42.73912" lon="-0.38504">
        <ele>1694.3</ele>
        <time>2018-12-27T06:33:21Z</time>
      </trkpt>
      <trkpt lat="42.73907" lon="-0.38499">
        <ele>1694</ele>
        <time>2018-12-27T06:33:22Z</time>
      </trkpt>
      <trkpt lat="42.73903" lon="-0.38496">
        <ele>1693.8</ele>
        <time>2018-12-27T06:33:23Z</time>
      </trkpt>
      <trkpt lat="42.73899" lon="-0.38491">
        <ele>1693.7</ele>
        <time>2018-12-27T06:33:25Z</time>
      </trkpt>
      <trkpt lat="42.73896" lon="-0.38486">
        <ele>1693.8</ele>
        <time>2018-12-27T06:33:26Z</time>
      </trkpt>
      <trkpt lat="42.73893" lon="-0.38482">
        <ele>1694</ele>
        <time>2018-12-27T06:33:27Z</time>
      </trkpt>
      <trkpt lat="42.7389" lon="-0.38478">
        <ele>1693.5</ele>
        <time>2018-12-27T06:33:28Z</time>
      </trkpt>
      <trkpt lat="42.73886" lon="-0.38472">
        <ele>1693.5</ele>
        <time>2018-12-27T06:33:30Z</time>
      </trkpt>
      <trkpt lat="42.73882" lon="-0.38468">
        <ele>1693</ele>
        <time>2018-12-27T06:33:31Z</time>
      </trkpt>
      <trkpt lat="42.73878" lon="-0.38464">
        <ele>1692.8</ele>
        <time>2018-12-27T06:33:32Z</time>
      </trkpt>
      <trkpt lat="42.73874" lon="-0.38459">
        <ele>1692.4</ele>
        <time>2018-12-27T06:33:34Z</time>
      </trkpt>
      <trkpt lat="42.7387" lon="-0.38457">
        <ele>1692</ele>
        <time>2018-12-27T06:33:35Z</time>
      </trkpt>
      <trkpt lat="42.73868" lon="-0.38451">
        <ele>1691.6</ele>
        <time>2018-12-27T06:33:36Z</time>
      </trkpt>
      <trkpt lat="42.73864" lon="-0.38447">
        <ele>1691.4</ele>
        <time>2018-12-27T06:33:38Z</time>
      </trkpt>
      <trkpt lat="42.73861" lon="-0.38441">
        <ele>1690.9</ele>
        <time>2018-12-27T06:33:39Z</time>
      </trkpt>
      <trkpt lat="42.73858" lon="-0.38436">
        <ele>1690.4</ele>
        <time>2018-12-27T06:33:40Z</time>
      </trkpt>
      <trkpt lat="42.73853" lon="-0.38435">
        <ele>1690.4</ele>
        <time>2018-12-27T06:33:42Z</time>
      </trkpt>
      <trkpt lat="42.7385" lon="-0.3843">
        <ele>1690.2</ele>
        <time>2018-12-27T06:33:43Z</time>
      </trkpt>
      <trkpt lat="42.73846" lon="-0.38426">
        <ele>1690</ele>
        <time>2018-12-27T06:33:44Z</time>
      </trkpt>
      <trkpt lat="42.73842" lon="-0.38422">
        <ele>1689.9</ele>
        <time>2018-12-27T06:33:46Z</time>
      </trkpt>
      <trkpt lat="42.73839" lon="-0.38416">
        <ele>1689.7</ele>
        <time>2018-12-27T06:33:47Z</time>
      </trkpt>
      <trkpt lat="42.73834" lon="-0.38412">
        <ele>1689.7</ele>
        <time>2018-12-27T06:33:48Z</time>
      </trkpt>
      <trkpt lat="42.73831" lon="-0.38407">
        <ele>1689.8</ele>
        <time>2018-12-27T06:33:50Z</time>
      </trkpt>
      <trkpt lat="42.73828" lon="-0.38403">
        <ele>1689.8</ele>
        <time>2018-12-27T06:33:51Z</time>
      </trkpt>
      <trkpt lat="42.73825" lon="-0.38398">
        <ele>1689.9</ele>
        <time>2018-12-27T06:33:52Z</time>
      </trkpt>
      <trkpt lat="42.73821" lon="-0.38392">
        <ele>1689.7</ele>
        <time>2018-12-27T06:33:54Z</time>
      </trkpt>
      <trkpt lat="42.73819" lon="-0.38387">
        <ele>1689.6</ele>
        <time>2018-12-27T06:33:55Z</time>
      </trkpt>
      <trkpt lat="42.73817" lon="-0.38381">
        <ele>1689.2</ele>
        <time>2018-12-27T06:33:56Z</time>
      </trkpt>
      <trkpt lat="42.73816" lon="-0.38375">
        <ele>1689.1</ele>
        <time>2018-12-27T06:33:57Z</time>
      </trkpt>
      <trkpt lat="42.73816" lon="-0.38367">
        <ele>1689</ele>
        <time>2018-12-27T06:33:59Z</time>
      </trkpt>
      <trkpt lat="42.73816" lon="-0.38361">
        <ele>1688.8</ele>
        <time>2018-12-27T06:34:00Z</time>
      </trkpt>
      <trkpt lat="42.73817" lon="-0.38353">
        <ele>1688.7</ele>
        <time>2018-12-27T06:34:02Z</time>
      </trkpt>
      <trkpt lat="42.73818" lon="-0.38346">
        <ele>1688.5</ele>
        <time>2018-12-27T06:34:03Z</time>
      </trkpt>
      <trkpt lat="42.7382" lon="-0.3834">
        <ele>1688.4</ele>
        <time>2018-12-27T06:34:04Z</time>
      </trkpt>
      <trkpt lat="42.73822" lon="-0.38333">
        <ele>1688</ele>
        <time>2018-12-27T06:34:06Z</time>
      </trkpt>
      <trkpt lat="42.73823" lon="-0.38326">
        <ele>1687.9</ele>
        <time>2018-12-27T06:34:07Z</time>
      </trkpt>
      <trkpt lat="42.73827" lon="-0.38321">
        <ele>1687.7</ele>
        <time>2018-12-27T06:34:08Z</time>
      </trkpt>
      <trkpt lat="42.73829" lon="-0.38316">
        <ele>1687.4</ele>
        <time>2018-12-27T06:34:10Z</time>
      </trkpt>
      <trkpt lat="42.7383" lon="-0.38309">
        <ele>1686.9</ele>
        <time>2018-12-27T06:34:11Z</time>
      </trkpt>
      <trkpt lat="42.73827" lon="-0.38303">
        <ele>1686.8</ele>
        <time>2018-12-27T06:34:12Z</time>
      </trkpt>
      <trkpt lat="42.73823" lon="-0.38299">
        <ele>1686.5</ele>
        <time>2018-12-27T06:34:14Z</time>
      </trkpt>
      <trkpt lat="42.73821" lon="-0.38294">
        <ele>1686.4</ele>
        <time>2018-12-27T06:34:15Z</time>
      </trkpt>
      <trkpt lat="42.73816" lon="-0.38291">
        <ele>1686.2</ele>
        <time>2018-12-27T06:34:16Z</time>
      </trkpt>
      <trkpt lat="42.73812" lon="-0.38285">
        <ele>1686.1</ele>
        <time>2018-12-27T06:34:18Z</time>
      </trkpt>
      <trkpt lat="42.73808" lon="-0.38281">
        <ele>1686</ele>
        <time>2018-12-27T06:34:19Z</time>
      </trkpt>
      <trkpt lat="42.73804" lon="-0.38278">
        <ele>1685.6</ele>
        <time>2018-12-27T06:34:20Z</time>
      </trkpt>
      <trkpt lat="42.73801" lon="-0.38273">
        <ele>1685.4</ele>
        <time>2018-12-27T06:34:22Z</time>
      </trkpt>
      <trkpt lat="42.73798" lon="-0.38267">
        <ele>1685.3</ele>
        <time>2018-12-27T06:34:23Z</time>
      </trkpt>
      <trkpt lat="42.73794" lon="-0.38264">
        <ele>1685</ele>
        <time>2018-12-27T06:34:24Z</time>
      </trkpt>
      <trkpt lat="42.73789" lon="-0.3826">
        <ele>1684.8</ele>
        <time>2018-12-27T06:34:26Z</time>
      </trkpt>
      <trkpt lat="42.73785" lon="-0.38257">
        <ele>1684.6</ele>
        <time>2018-12-27T06:34:27Z</time>
      </trkpt>
      <trkpt lat="42.7378" lon="-0.38254">
        <ele>1684.2</ele>
        <time>2018-12-27T06:34:29Z</time>
      </trkpt>
      <trkpt lat="42.73775" lon="-0.38252">
        <ele>1684</ele>
        <time>2018-12-27T06:34:30Z</time>
      </trkpt>
      <trkpt lat="42.73771" lon="-0.38248">
        <ele>1684</ele>
        <time>2018-12-27T06:34:31Z</time>
      </trkpt>
      <trkpt lat="42.73768" lon="-0.38243">
        <ele>1683.7</ele>
        <time>2018-12-27T06:34:33Z</time>
      </trkpt>
      <trkpt lat="42.73763" lon="-0.3824">
        <ele>1683.5</ele>
        <time>2018-12-27T06:34:34Z</time>
      </trkpt>
      <trkpt lat="42.73759" lon="-0.38235">
        <ele>1682.7</ele>
        <time>2018-12-27T06:34:35Z</time>
      </trkpt>
      <trkpt lat="42.73756" lon="-0.38231">
        <ele>1682.4</ele>
        <time>2018-12-27T06:34:37Z</time>
      </trkpt>
      <trkpt lat="42.73754" lon="-0.38224">
        <ele>1682.3</ele>
        <time>2018-12-27T06:34:38Z</time>
      </trkpt>
      <trkpt lat="42.73751" lon="-0.38217">
        <ele>1682.2</ele>
        <time>2018-12-27T06:34:40Z</time>
      </trkpt>
      <trkpt lat="42.73748" lon="-0.38211">
        <ele>1682.4</ele>
        <time>2018-12-27T06:34:41Z</time>
      </trkpt>
      <trkpt lat="42.73743" lon="-0.38209">
        <ele>1682.2</ele>
        <time>2018-12-27T06:34:43Z</time>
      </trkpt>
      <trkpt lat="42.73738" lon="-0.38209">
        <ele>1682</ele>
        <time>2018-12-27T06:34:44Z</time>
      </trkpt>
      <trkpt lat="42.73734" lon="-0.38204">
        <ele>1682.2</ele>
        <time>2018-12-27T06:34:45Z</time>
      </trkpt>
      <trkpt lat="42.73731" lon="-0.38199">
        <ele>1681.9</ele>
        <time>2018-12-27T06:34:47Z</time>
      </trkpt>
      <trkpt lat="42.73728" lon="-0.38192">
        <ele>1681.6</ele>
        <time>2018-12-27T06:34:48Z</time>
      </trkpt>
      <trkpt lat="42.73725" lon="-0.38186">
        <ele>1681.2</ele>
        <time>2018-12-27T06:34:49Z</time>
      </trkpt>
      <trkpt lat="42.73722" lon="-0.3818">
        <ele>1680.7</ele>
        <time>2018-12-27T06:34:51Z</time>
      </trkpt>
      <trkpt lat="42.7372" lon="-0.38175">
        <ele>1680.3</ele>
        <time>2018-12-27T06:34:52Z</time>
      </trkpt>
      <trkpt lat="42.73717" lon="-0.38168">
        <ele>1680</ele>
        <time>2018-12-27T06:34:53Z</time>
      </trkpt>
      <trkpt lat="42.73715" lon="-0.38162">
        <ele>1679.5</ele>
        <time>2018-12-27T06:34:55Z</time>
      </trkpt>
      <trkpt lat="42.73713" lon="-0.38155">
        <ele>1679.2</ele>
        <time>2018-12-27T06:34:56Z</time>
      </trkpt>
      <trkpt lat="42.73711" lon="-0.38148">
        <ele>1678.7</ele>
        <time>2018-12-27T06:34:58Z</time>
      </trkpt>
      <trkpt lat="42.7371" lon="-0.38141">
        <ele>1678.1</ele>
        <time>2018-12-27T06:34:59Z</time>
      </trkpt>
      <trkpt lat="42.73709" lon="-0.38134">
        <ele>1677.6</ele>
        <time>2018-12-27T06:35:01Z</time>
      </trkpt>
      <trkpt lat="42.73708" lon="-0.38126">
        <ele>1677</ele>
        <time>2018-12-27T06:35:02Z</time>
      </trkpt>
      <trkpt lat="42.73708" lon="-0.3812">
        <ele>1676.4</ele>
        <time>2018-12-27T06:35:03Z</time>
      </trkpt>
      <trkpt lat="42.73707" lon="-0.38114">
        <ele>1676.1</ele>
        <time>2018-12-27T06:35:05Z</time>
      </trkpt>
      <trkpt lat="42.73707" lon="-0.38107">
        <ele>1675.9</ele>
        <time>2018-12-27T06:35:06Z</time>
      </trkpt>
      <trkpt lat="42.73706" lon="-0.381">
        <ele>1675.6</ele>
        <time>2018-12-27T06:35:07Z</time>
      </trkpt>
      <trkpt lat="42.73706" lon="-0.38094">
        <ele>1675.5</ele>
        <time>2018-12-27T06:35:09Z</time>
      </trkpt>
      <trkpt lat="42.73705" lon="-0.38087">
        <ele>1675.2</ele>
        <time>2018-12-27T06:35:10Z</time>
      </trkpt>
      <trkpt lat="42.73704" lon="-0.3808">
        <ele>1674.8</ele>
        <time>2018-12-27T06:35:11Z</time>
      </trkpt>
      <trkpt lat="42.73702" lon="-0.38073">
        <ele>1674.5</ele>
        <time>2018-12-27T06:35:13Z</time>
      </trkpt>
      <trkpt lat="42.73701" lon="-0.38066">
        <ele>1674.2</ele>
        <time>2018-12-27T06:35:14Z</time>
      </trkpt>
      <trkpt lat="42.73699" lon="-0.38059">
        <ele>1674</ele>
        <time>2018-12-27T06:35:16Z</time>
      </trkpt>
      <trkpt lat="42.73698" lon="-0.38053">
        <ele>1673.7</ele>
        <time>2018-12-27T06:35:17Z</time>
      </trkpt>
      <trkpt lat="42.73697" lon="-0.38047">
        <ele>1673.3</ele>
        <time>2018-12-27T06:35:18Z</time>
      </trkpt>
      <trkpt lat="42.73696" lon="-0.38041">
        <ele>1672.9</ele>
        <time>2018-12-27T06:35:19Z</time>
      </trkpt>
      <trkpt lat="42.73695" lon="-0.38035">
        <ele>1672.8</ele>
        <time>2018-12-27T06:35:21Z</time>
      </trkpt>
      <trkpt lat="42.73694" lon="-0.38028">
        <ele>1672.5</ele>
        <time>2018-12-27T06:35:22Z</time>
      </trkpt>
      <trkpt lat="42.73692" lon="-0.38022">
        <ele>1672.3</ele>
        <time>2018-12-27T06:35:23Z</time>
      </trkpt>
      <trkpt lat="42.7369" lon="-0.38015">
        <ele>1672</ele>
        <time>2018-12-27T06:35:25Z</time>
      </trkpt>
      <trkpt lat="42.73689" lon="-0.38009">
        <ele>1671.7</ele>
        <time>2018-12-27T06:35:26Z</time>
      </trkpt>
      <trkpt lat="42.73688" lon="-0.38002">
        <ele>1671.6</ele>
        <time>2018-12-27T06:35:27Z</time>
      </trkpt>
      <trkpt lat="42.73686" lon="-0.37995">
        <ele>1671.3</ele>
        <time>2018-12-27T06:35:29Z</time>
      </trkpt>
      <trkpt lat="42.73685" lon="-0.37989">
        <ele>1671.1</ele>
        <time>2018-12-27T06:35:30Z</time>
      </trkpt>
      <trkpt lat="42.73683" lon="-0.37983">
        <ele>1670.9</ele>
        <time>2018-12-27T06:35:31Z</time>
      </trkpt>
      <trkpt lat="42.73682" lon="-0.37977">
        <ele>1670.7</ele>
        <time>2018-12-27T06:35:32Z</time>
      </trkpt>
      <trkpt lat="42.7368" lon="-0.37971">
        <ele>1670.3</ele>
        <time>2018-12-27T06:35:34Z</time>
      </trkpt>
      <trkpt lat="42.73679" lon="-0.37965">
        <ele>1670</ele>
        <time>2018-12-27T06:35:35Z</time>
      </trkpt>
      <trkpt lat="42.73678" lon="-0.37958">
        <ele>1669.8</ele>
        <time>2018-12-27T06:35:36Z</time>
      </trkpt>
      <trkpt lat="42.73677" lon="-0.37952">
        <ele>1669.7</ele>
        <time>2018-12-27T06:35:37Z</time>
      </trkpt>
      <trkpt lat="42.73676" lon="-0.37946">
        <ele>1669.2</ele>
        <time>2018-12-27T06:35:39Z</time>
      </trkpt>
      <trkpt lat="42.73674" lon="-0.3794">
        <ele>1669</ele>
        <time>2018-12-27T06:35:40Z</time>
      </trkpt>
      <trkpt lat="42.73673" lon="-0.37932">
        <ele>1668.7</ele>
        <time>2018-12-27T06:35:41Z</time>
      </trkpt>
      <trkpt lat="42.73672" lon="-0.37925">
        <ele>1668.5</ele>
        <time>2018-12-27T06:35:43Z</time>
      </trkpt>
      <trkpt lat="42.73672" lon="-0.37919">
        <ele>1668.1</ele>
        <time>2018-12-27T06:35:44Z</time>
      </trkpt>
      <trkpt lat="42.73672" lon="-0.37912">
        <ele>1667.7</ele>
        <time>2018-12-27T06:35:45Z</time>
      </trkpt>
      <trkpt lat="42.73672" lon="-0.37906">
        <ele>1667.1</ele>
        <time>2018-12-27T06:35:47Z</time>
      </trkpt>
      <trkpt lat="42.73671" lon="-0.37899">
        <ele>1666.9</ele>
        <time>2018-12-27T06:35:48Z</time>
      </trkpt>
      <trkpt lat="42.73671" lon="-0.37893">
        <ele>1666.5</ele>
        <time>2018-12-27T06:35:49Z</time>
      </trkpt>
      <trkpt lat="42.7367" lon="-0.37887">
        <ele>1666.3</ele>
        <time>2018-12-27T06:35:50Z</time>
      </trkpt>
      <trkpt lat="42.73669" lon="-0.3788">
        <ele>1666.1</ele>
        <time>2018-12-27T06:35:52Z</time>
      </trkpt>
      <trkpt lat="42.73668" lon="-0.37873">
        <ele>1665.7</ele>
        <time>2018-12-27T06:35:53Z</time>
      </trkpt>
      <trkpt lat="42.73667" lon="-0.37866">
        <ele>1665.2</ele>
        <time>2018-12-27T06:35:55Z</time>
      </trkpt>
      <trkpt lat="42.73666" lon="-0.37859">
        <ele>1665</ele>
        <time>2018-12-27T06:35:56Z</time>
      </trkpt>
      <trkpt lat="42.73665" lon="-0.37852">
        <ele>1664.9</ele>
        <time>2018-12-27T06:35:57Z</time>
      </trkpt>
      <trkpt lat="42.73664" lon="-0.37846">
        <ele>1664.7</ele>
        <time>2018-12-27T06:35:59Z</time>
      </trkpt>
      <trkpt lat="42.73663" lon="-0.37839">
        <ele>1664.3</ele>
        <time>2018-12-27T06:36:00Z</time>
      </trkpt>
      <trkpt lat="42.73663" lon="-0.37832">
        <ele>1663.9</ele>
        <time>2018-12-27T06:36:01Z</time>
      </trkpt>
      <trkpt lat="42.73663" lon="-0.37825">
        <ele>1663.4</ele>
        <time>2018-12-27T06:36:03Z</time>
      </trkpt>
      <trkpt lat="42.73662" lon="-0.37818">
        <ele>1663.2</ele>
        <time>2018-12-27T06:36:04Z</time>
      </trkpt>
      <trkpt lat="42.73661" lon="-0.37812">
        <ele>1662.8</ele>
        <time>2018-12-27T06:36:05Z</time>
      </trkpt>
      <trkpt lat="42.73661" lon="-0.37805">
        <ele>1662.5</ele>
        <time>2018-12-27T06:36:07Z</time>
      </trkpt>
      <trkpt lat="42.73662" lon="-0.37798">
        <ele>1662.3</ele>
        <time>2018-12-27T06:36:08Z</time>
      </trkpt>
      <trkpt lat="42.73664" lon="-0.37791">
        <ele>1662.1</ele>
        <time>2018-12-27T06:36:10Z</time>
      </trkpt>
      <trkpt lat="42.73664" lon="-0.37785">
        <ele>1662</ele>
        <time>2018-12-27T06:36:11Z</time>
      </trkpt>
      <trkpt lat="42.73667" lon="-0.37779">
        <ele>1661.7</ele>
        <time>2018-12-27T06:36:12Z</time>
      </trkpt>
      <trkpt lat="42.7367" lon="-0.37774">
        <ele>1661.3</ele>
        <time>2018-12-27T06:36:13Z</time>
      </trkpt>
      <trkpt lat="42.73672" lon="-0.37768">
        <ele>1661.3</ele>
        <time>2018-12-27T06:36:15Z</time>
      </trkpt>
      <trkpt lat="42.73675" lon="-0.37762">
        <ele>1661.3</ele>
        <time>2018-12-27T06:36:16Z</time>
      </trkpt>
      <trkpt lat="42.7368" lon="-0.37762">
        <ele>1660.7</ele>
        <time>2018-12-27T06:36:17Z</time>
      </trkpt>
      <trkpt lat="42.73677" lon="-0.37757">
        <ele>1660.4</ele>
        <time>2018-12-27T06:36:19Z</time>
      </trkpt>
      <trkpt lat="42.73672" lon="-0.37757">
        <ele>1660.6</ele>
        <time>2018-12-27T06:36:20Z</time>
      </trkpt>
      <trkpt lat="42.73672" lon="-0.37763">
        <ele>1661.1</ele>
        <time>2018-12-27T06:36:21Z</time>
      </trkpt>
      <trkpt lat="42.73671" lon="-0.37769">
        <ele>1661</ele>
        <time>2018-12-27T06:36:22Z</time>
      </trkpt>
      <trkpt lat="42.7367" lon="-0.37776">
        <ele>1661.6</ele>
        <time>2018-12-27T06:36:24Z</time>
      </trkpt>
      <trkpt lat="42.73671" lon="-0.3777">
        <ele>1661.3</ele>
        <time>2018-12-27T06:36:25Z</time>
      </trkpt>
      <trkpt lat="42.73673" lon="-0.37764">
        <ele>1660.8</ele>
        <time>2018-12-27T06:36:26Z</time>
      </trkpt>
      <trkpt lat="42.73671" lon="-0.37758">
        <ele>1660.5</ele>
        <time>2018-12-27T06:36:28Z</time>
      </trkpt>
      <trkpt lat="42.7367" lon="-0.37751">
        <ele>1660.4</ele>
        <time>2018-12-27T06:36:29Z</time>
      </trkpt>
      <trkpt lat="42.7367" lon="-0.37743">
        <ele>1660.2</ele>
        <time>2018-12-27T06:36:30Z</time>
      </trkpt>
      <trkpt lat="42.7367" lon="-0.37736">
        <ele>1660</ele>
        <time>2018-12-27T06:36:32Z</time>
      </trkpt>
      <trkpt lat="42.7367" lon="-0.37729">
        <ele>1659.9</ele>
        <time>2018-12-27T06:36:33Z</time>
      </trkpt>
      <trkpt lat="42.7367" lon="-0.37721">
        <ele>1659.5</ele>
        <time>2018-12-27T06:36:35Z</time>
      </trkpt>
      <trkpt lat="42.7367" lon="-0.37714">
        <ele>1659.6</ele>
        <time>2018-12-27T06:36:36Z</time>
      </trkpt>
      <trkpt lat="42.73669" lon="-0.37707">
        <ele>1659.2</ele>
        <time>2018-12-27T06:36:38Z</time>
      </trkpt>
      <trkpt lat="42.73669" lon="-0.377">
        <ele>1659</ele>
        <time>2018-12-27T06:36:39Z</time>
      </trkpt>
      <trkpt lat="42.73669" lon="-0.37692">
        <ele>1658.9</ele>
        <time>2018-12-27T06:36:40Z</time>
      </trkpt>
      <trkpt lat="42.73668" lon="-0.37685">
        <ele>1658.7</ele>
        <time>2018-12-27T06:36:42Z</time>
      </trkpt>
      <trkpt lat="42.73667" lon="-0.37679">
        <ele>1658.9</ele>
        <time>2018-12-27T06:36:43Z</time>
      </trkpt>
      <trkpt lat="42.73667" lon="-0.37672">
        <ele>1657.9</ele>
        <time>2018-12-27T06:36:44Z</time>
      </trkpt>
      <trkpt lat="42.73667" lon="-0.37665">
        <ele>1658.1</ele>
        <time>2018-12-27T06:36:46Z</time>
      </trkpt>
      <trkpt lat="42.73667" lon="-0.37659">
        <ele>1658.3</ele>
        <time>2018-12-27T06:36:47Z</time>
      </trkpt>
      <trkpt lat="42.73667" lon="-0.37652">
        <ele>1658.2</ele>
        <time>2018-12-27T06:36:48Z</time>
      </trkpt>
      <trkpt lat="42.73667" lon="-0.37645">
        <ele>1658</ele>
        <time>2018-12-27T06:36:50Z</time>
      </trkpt>
      <trkpt lat="42.73666" lon="-0.37639">
        <ele>1657.9</ele>
        <time>2018-12-27T06:36:51Z</time>
      </trkpt>
      <trkpt lat="42.73667" lon="-0.37633">
        <ele>1657.8</ele>
        <time>2018-12-27T06:36:52Z</time>
      </trkpt>
      <trkpt lat="42.73666" lon="-0.37626">
        <ele>1657.8</ele>
        <time>2018-12-27T06:36:54Z</time>
      </trkpt>
      <trkpt lat="42.73665" lon="-0.37619">
        <ele>1657.7</ele>
        <time>2018-12-27T06:36:55Z</time>
      </trkpt>
      <trkpt lat="42.73664" lon="-0.37612">
        <ele>1657.9</ele>
        <time>2018-12-27T06:36:56Z</time>
      </trkpt>
      <trkpt lat="42.73663" lon="-0.37606">
        <ele>1657.7</ele>
        <time>2018-12-27T06:36:58Z</time>
      </trkpt>
      <trkpt lat="42.73662" lon="-0.376">
        <ele>1657.5</ele>
        <time>2018-12-27T06:36:59Z</time>
      </trkpt>
      <trkpt lat="42.7366" lon="-0.37594">
        <ele>1657.3</ele>
        <time>2018-12-27T06:37:00Z</time>
      </trkpt>
      <trkpt lat="42.73659" lon="-0.37587">
        <ele>1657.1</ele>
        <time>2018-12-27T06:37:01Z</time>
      </trkpt>
      <trkpt lat="42.73657" lon="-0.3758">
        <ele>1656.6</ele>
        <time>2018-12-27T06:37:03Z</time>
      </trkpt>
      <trkpt lat="42.73655" lon="-0.37574">
        <ele>1656.3</ele>
        <time>2018-12-27T06:37:04Z</time>
      </trkpt>
      <trkpt lat="42.73653" lon="-0.37568">
        <ele>1656.2</ele>
        <time>2018-12-27T06:37:05Z</time>
      </trkpt>
      <trkpt lat="42.7365" lon="-0.37562">
        <ele>1656.5</ele>
        <time>2018-12-27T06:37:07Z</time>
      </trkpt>
      <trkpt lat="42.73648" lon="-0.37557">
        <ele>1656.2</ele>
        <time>2018-12-27T06:37:08Z</time>
      </trkpt>
      <trkpt lat="42.73645" lon="-0.3755">
        <ele>1655.9</ele>
        <time>2018-12-27T06:37:09Z</time>
      </trkpt>
      <trkpt lat="42.73643" lon="-0.37545">
        <ele>1655.4</ele>
        <time>2018-12-27T06:37:11Z</time>
      </trkpt>
      <trkpt lat="42.7364" lon="-0.37539">
        <ele>1655</ele>
        <time>2018-12-27T06:37:12Z</time>
      </trkpt>
      <trkpt lat="42.73637" lon="-0.37533">
        <ele>1654.7</ele>
        <time>2018-12-27T06:37:13Z</time>
      </trkpt>
      <trkpt lat="42.73634" lon="-0.37529">
        <ele>1654.6</ele>
        <time>2018-12-27T06:37:15Z</time>
      </trkpt>
      <trkpt lat="42.73631" lon="-0.37524">
        <ele>1654.4</ele>
        <time>2018-12-27T06:37:16Z</time>
      </trkpt>
      <trkpt lat="42.73627" lon="-0.3752">
        <ele>1654.3</ele>
        <time>2018-12-27T06:37:17Z</time>
      </trkpt>
      <trkpt lat="42.73624" lon="-0.37514">
        <ele>1654</ele>
        <time>2018-12-27T06:37:19Z</time>
      </trkpt>
      <trkpt lat="42.7362" lon="-0.3751">
        <ele>1653.8</ele>
        <time>2018-12-27T06:37:20Z</time>
      </trkpt>
      <trkpt lat="42.73616" lon="-0.37505">
        <ele>1653.6</ele>
        <time>2018-12-27T06:37:21Z</time>
      </trkpt>
      <trkpt lat="42.73612" lon="-0.375">
        <ele>1653.5</ele>
        <time>2018-12-27T06:37:23Z</time>
      </trkpt>
      <trkpt lat="42.73608" lon="-0.37497">
        <ele>1653.2</ele>
        <time>2018-12-27T06:37:24Z</time>
      </trkpt>
      <trkpt lat="42.73605" lon="-0.37492">
        <ele>1652.7</ele>
        <time>2018-12-27T06:37:25Z</time>
      </trkpt>
      <trkpt lat="42.73601" lon="-0.37487">
        <ele>1652.3</ele>
        <time>2018-12-27T06:37:27Z</time>
      </trkpt>
      <trkpt lat="42.73598" lon="-0.37481">
        <ele>1651.9</ele>
        <time>2018-12-27T06:37:28Z</time>
      </trkpt>
      <trkpt lat="42.73594" lon="-0.37477">
        <ele>1651.9</ele>
        <time>2018-12-27T06:37:29Z</time>
      </trkpt>
      <trkpt lat="42.7359" lon="-0.37473">
        <ele>1651.5</ele>
        <time>2018-12-27T06:37:31Z</time>
      </trkpt>
      <trkpt lat="42.73587" lon="-0.37469">
        <ele>1651.3</ele>
        <time>2018-12-27T06:37:32Z</time>
      </trkpt>
      <trkpt lat="42.73582" lon="-0.37465">
        <ele>1651.2</ele>
        <time>2018-12-27T06:37:33Z</time>
      </trkpt>
      <trkpt lat="42.73578" lon="-0.37461">
        <ele>1650.8</ele>
        <time>2018-12-27T06:37:35Z</time>
      </trkpt>
      <trkpt lat="42.73573" lon="-0.37458">
        <ele>1650.6</ele>
        <time>2018-12-27T06:37:36Z</time>
      </trkpt>
      <trkpt lat="42.73569" lon="-0.37453">
        <ele>1650.4</ele>
        <time>2018-12-27T06:37:38Z</time>
      </trkpt>
      <trkpt lat="42.73565" lon="-0.37448">
        <ele>1650.2</ele>
        <time>2018-12-27T06:37:39Z</time>
      </trkpt>
      <trkpt lat="42.7356" lon="-0.37444">
        <ele>1649.7</ele>
        <time>2018-12-27T06:37:41Z</time>
      </trkpt>
      <trkpt lat="42.73557" lon="-0.3744">
        <ele>1649.6</ele>
        <time>2018-12-27T06:37:42Z</time>
      </trkpt>
      <trkpt lat="42.73552" lon="-0.37435">
        <ele>1649.3</ele>
        <time>2018-12-27T06:37:43Z</time>
      </trkpt>
      <trkpt lat="42.73549" lon="-0.37431">
        <ele>1649.1</ele>
        <time>2018-12-27T06:37:45Z</time>
      </trkpt>
      <trkpt lat="42.73545" lon="-0.37427">
        <ele>1649</ele>
        <time>2018-12-27T06:37:46Z</time>
      </trkpt>
      <trkpt lat="42.7354" lon="-0.37424">
        <ele>1648.8</ele>
        <time>2018-12-27T06:37:47Z</time>
      </trkpt>
      <trkpt lat="42.73536" lon="-0.37419">
        <ele>1648.4</ele>
        <time>2018-12-27T06:37:49Z</time>
      </trkpt>
      <trkpt lat="42.73532" lon="-0.37415">
        <ele>1648.1</ele>
        <time>2018-12-27T06:37:50Z</time>
      </trkpt>
      <trkpt lat="42.73527" lon="-0.37411">
        <ele>1647.7</ele>
        <time>2018-12-27T06:37:52Z</time>
      </trkpt>
      <trkpt lat="42.73522" lon="-0.37408">
        <ele>1647.4</ele>
        <time>2018-12-27T06:37:53Z</time>
      </trkpt>
      <trkpt lat="42.73517" lon="-0.37406">
        <ele>1647.5</ele>
        <time>2018-12-27T06:37:54Z</time>
      </trkpt>
      <trkpt lat="42.73512" lon="-0.37405">
        <ele>1647.3</ele>
        <time>2018-12-27T06:37:56Z</time>
      </trkpt>
      <trkpt lat="42.73506" lon="-0.37404">
        <ele>1647.4</ele>
        <time>2018-12-27T06:37:57Z</time>
      </trkpt>
      <trkpt lat="42.73501" lon="-0.37404">
        <ele>1647.3</ele>
        <time>2018-12-27T06:37:59Z</time>
      </trkpt>
      <trkpt lat="42.73496" lon="-0.37405">
        <ele>1647.4</ele>
        <time>2018-12-27T06:38:00Z</time>
      </trkpt>
      <trkpt lat="42.73492" lon="-0.37406">
        <ele>1647.6</ele>
        <time>2018-12-27T06:38:01Z</time>
      </trkpt>
      <trkpt lat="42.73487" lon="-0.37407">
        <ele>1647.5</ele>
        <time>2018-12-27T06:38:02Z</time>
      </trkpt>
      <trkpt lat="42.73482" lon="-0.37408">
        <ele>1647.8</ele>
        <time>2018-12-27T06:38:04Z</time>
      </trkpt>
      <trkpt lat="42.73477" lon="-0.37409">
        <ele>1648.1</ele>
        <time>2018-12-27T06:38:05Z</time>
      </trkpt>
      <trkpt lat="42.73473" lon="-0.37411">
        <ele>1648.2</ele>
        <time>2018-12-27T06:38:06Z</time>
      </trkpt>
      <trkpt lat="42.73469" lon="-0.37411">
        <ele>1648.2</ele>
        <time>2018-12-27T06:38:08Z</time>
      </trkpt>
      <trkpt lat="42.73463" lon="-0.37413">
        <ele>1648.7</ele>
        <time>2018-12-27T06:38:09Z</time>
      </trkpt>
      <trkpt lat="42.73458" lon="-0.37413">
        <ele>1648.8</ele>
        <time>2018-12-27T06:38:10Z</time>
      </trkpt>
      <trkpt lat="42.73454" lon="-0.37413">
        <ele>1649.2</ele>
        <time>2018-12-27T06:38:11Z</time>
      </trkpt>
      <trkpt lat="42.7345" lon="-0.37416">
        <ele>1649.2</ele>
        <time>2018-12-27T06:38:13Z</time>
      </trkpt>
      <trkpt lat="42.73445" lon="-0.37415">
        <ele>1649.2</ele>
        <time>2018-12-27T06:38:14Z</time>
      </trkpt>
      <trkpt lat="42.7344" lon="-0.37416">
        <ele>1649.3</ele>
        <time>2018-12-27T06:38:15Z</time>
      </trkpt>
      <trkpt lat="42.73444" lon="-0.37412">
        <ele>1648.4</ele>
        <time>2018-12-27T06:38:17Z</time>
      </trkpt>
      <trkpt lat="42.73442" lon="-0.37406">
        <ele>1648.2</ele>
        <time>2018-12-27T06:38:18Z</time>
      </trkpt>
      <trkpt lat="42.73439" lon="-0.374">
        <ele>1648.1</ele>
        <time>2018-12-27T06:38:19Z</time>
      </trkpt>
      <trkpt lat="42.73435" lon="-0.37397">
        <ele>1647.6</ele>
        <time>2018-12-27T06:38:21Z</time>
      </trkpt>
      <trkpt lat="42.73432" lon="-0.37391">
        <ele>1647.2</ele>
        <time>2018-12-27T06:38:22Z</time>
      </trkpt>
      <trkpt lat="42.73428" lon="-0.37386">
        <ele>1646.5</ele>
        <time>2018-12-27T06:38:23Z</time>
      </trkpt>
      <trkpt lat="42.73424" lon="-0.37381">
        <ele>1646.2</ele>
        <time>2018-12-27T06:38:25Z</time>
      </trkpt>
      <trkpt lat="42.73422" lon="-0.37376">
        <ele>1646.8</ele>
        <time>2018-12-27T06:38:26Z</time>
      </trkpt>
      <trkpt lat="42.7342" lon="-0.37381">
        <ele>1646.3</ele>
        <time>2018-12-27T06:38:27Z</time>
      </trkpt>
      <trkpt lat="42.73416" lon="-0.3738">
        <ele>1645.6</ele>
        <time>2018-12-27T06:38:29Z</time>
      </trkpt>
      <trkpt lat="42.73413" lon="-0.37374">
        <ele>1644.8</ele>
        <time>2018-12-27T06:38:30Z</time>
      </trkpt>
      <trkpt lat="42.73412" lon="-0.37368">
        <ele>1643.5</ele>
        <time>2018-12-27T06:38:31Z</time>
      </trkpt>
      <trkpt lat="42.73408" lon="-0.37364">
        <ele>1642.5</ele>
        <time>2018-12-27T06:38:32Z</time>
      </trkpt>
      <trkpt lat="42.73406" lon="-0.37358">
        <ele>1642.7</ele>
        <time>2018-12-27T06:38:34Z</time>
      </trkpt>
      <trkpt lat="42.73404" lon="-0.37352">
        <ele>1642.8</ele>
        <time>2018-12-27T06:38:35Z</time>
      </trkpt>
      <trkpt lat="42.734" lon="-0.37346">
        <ele>1643.3</ele>
        <time>2018-12-27T06:38:37Z</time>
      </trkpt>
      <trkpt lat="42.73405" lon="-0.37346">
        <ele>1643.2</ele>
        <time>2018-12-27T06:38:38Z</time>
      </trkpt>
      <trkpt lat="42.73404" lon="-0.3734">
        <ele>1642.5</ele>
        <time>2018-12-27T06:38:39Z</time>
      </trkpt>
      <trkpt lat="42.73403" lon="-0.37333">
        <ele>1642.5</ele>
        <time>2018-12-27T06:38:40Z</time>
      </trkpt>
      <trkpt lat="42.73408" lon="-0.37333">
        <ele>1642.4</ele>
        <time>2018-12-27T06:38:42Z</time>
      </trkpt>
      <trkpt lat="42.73412" lon="-0.37331">
        <ele>1642.1</ele>
        <time>2018-12-27T06:38:43Z</time>
      </trkpt>
      <trkpt lat="42.73415" lon="-0.37336">
        <ele>1642.6</ele>
        <time>2018-12-27T06:38:44Z</time>
      </trkpt>
      <trkpt lat="42.7341" lon="-0.37334">
        <ele>1642.2</ele>
        <time>2018-12-27T06:38:46Z</time>
      </trkpt>
      <trkpt lat="42.73415" lon="-0.37335">
        <ele>1642.6</ele>
        <time>2018-12-27T06:38:47Z</time>
      </trkpt>
      <trkpt lat="42.73411" lon="-0.37332">
        <ele>1642.5</ele>
        <time>2018-12-27T06:38:48Z</time>
      </trkpt>
      <trkpt lat="42.73416" lon="-0.37333">
        <ele>1642.2</ele>
        <time>2018-12-27T06:38:50Z</time>
      </trkpt>
      <trkpt lat="42.73419" lon="-0.37337">
        <ele>1641.9</ele>
        <time>2018-12-27T06:38:51Z</time>
      </trkpt>
      <trkpt lat="42.73423" lon="-0.37341">
        <ele>1641.6</ele>
        <time>2018-12-27T06:38:52Z</time>
      </trkpt>
      <trkpt lat="42.73427" lon="-0.37337">
        <ele>1641.9</ele>
        <time>2018-12-27T06:38:53Z</time>
      </trkpt>
      <trkpt lat="42.73431" lon="-0.37334">
        <ele>1641.9</ele>
        <time>2018-12-27T06:38:55Z</time>
      </trkpt>
      <trkpt lat="42.73435" lon="-0.37329">
        <ele>1641.7</ele>
        <time>2018-12-27T06:38:56Z</time>
      </trkpt>
      <trkpt lat="42.73439" lon="-0.37326">
        <ele>1641.6</ele>
        <time>2018-12-27T06:38:57Z</time>
      </trkpt>
      <trkpt lat="42.73443" lon="-0.37322">
        <ele>1641.6</ele>
        <time>2018-12-27T06:38:59Z</time>
      </trkpt>
      <trkpt lat="42.73446" lon="-0.37316">
        <ele>1641.4</ele>
        <time>2018-12-27T06:39:00Z</time>
      </trkpt>
      <trkpt lat="42.7345" lon="-0.37311">
        <ele>1640.8</ele>
        <time>2018-12-27T06:39:01Z</time>
      </trkpt>
      <trkpt lat="42.73455" lon="-0.37309">
        <ele>1641</ele>
        <time>2018-12-27T06:39:03Z</time>
      </trkpt>
      <trkpt lat="42.7345" lon="-0.3731">
        <ele>1640.9</ele>
        <time>2018-12-27T06:39:04Z</time>
      </trkpt>
      <trkpt lat="42.73453" lon="-0.37306">
        <ele>1640.9</ele>
        <time>2018-12-27T06:39:05Z</time>
      </trkpt>
      <trkpt lat="42.73456" lon="-0.373">
        <ele>1641.1</ele>
        <time>2018-12-27T06:39:06Z</time>
      </trkpt>
      <trkpt lat="42.7346" lon="-0.37295">
        <ele>1640.8</ele>
        <time>2018-12-27T06:39:08Z</time>
      </trkpt>
      <trkpt lat="42.73465" lon="-0.37294">
        <ele>1640.5</ele>
        <time>2018-12-27T06:39:09Z</time>
      </trkpt>
      <trkpt lat="42.7347" lon="-0.37291">
        <ele>1640.5</ele>
        <time>2018-12-27T06:39:11Z</time>
      </trkpt>
      <trkpt lat="42.73474" lon="-0.37288">
        <ele>1640.6</ele>
        <time>2018-12-27T06:39:12Z</time>
      </trkpt>
      <trkpt lat="42.73478" lon="-0.37285">
        <ele>1640.5</ele>
        <time>2018-12-27T06:39:13Z</time>
      </trkpt>
      <trkpt lat="42.73483" lon="-0.37283">
        <ele>1640.2</ele>
        <time>2018-12-27T06:39:15Z</time>
      </trkpt>
      <trkpt lat="42.73488" lon="-0.37283">
        <ele>1639.6</ele>
        <time>2018-12-27T06:39:16Z</time>
      </trkpt>
      <trkpt lat="42.73491" lon="-0.37286">
        <ele>1639.4</ele>
        <time>2018-12-27T06:39:17Z</time>
      </trkpt>
      <trkpt lat="42.73494" lon="-0.37281">
        <ele>1639.2</ele>
        <time>2018-12-27T06:39:18Z</time>
      </trkpt>
      <trkpt lat="42.73499" lon="-0.37282">
        <ele>1639.4</ele>
        <time>2018-12-27T06:39:20Z</time>
      </trkpt>
      <trkpt lat="42.73504" lon="-0.37284">
        <ele>1639.5</ele>
        <time>2018-12-27T06:39:21Z</time>
      </trkpt>
      <trkpt lat="42.73509" lon="-0.37287">
        <ele>1639.5</ele>
        <time>2018-12-27T06:39:22Z</time>
      </trkpt>
      <trkpt lat="42.73513" lon="-0.37288">
        <ele>1639.2</ele>
        <time>2018-12-27T06:39:24Z</time>
      </trkpt>
      <trkpt lat="42.73518" lon="-0.37288">
        <ele>1639.4</ele>
        <time>2018-12-27T06:39:25Z</time>
      </trkpt>
      <trkpt lat="42.73523" lon="-0.37287">
        <ele>1639.2</ele>
        <time>2018-12-27T06:39:26Z</time>
      </trkpt>
      <trkpt lat="42.73528" lon="-0.37284">
        <ele>1639.1</ele>
        <time>2018-12-27T06:39:28Z</time>
      </trkpt>
      <trkpt lat="42.73531" lon="-0.37279">
        <ele>1639.3</ele>
        <time>2018-12-27T06:39:29Z</time>
      </trkpt>
      <trkpt lat="42.73534" lon="-0.37274">
        <ele>1639.8</ele>
        <time>2018-12-27T06:39:30Z</time>
      </trkpt>
      <trkpt lat="42.73536" lon="-0.37268">
        <ele>1640.2</ele>
        <time>2018-12-27T06:39:32Z</time>
      </trkpt>
      <trkpt lat="42.73538" lon="-0.37261">
        <ele>1640.7</ele>
        <time>2018-12-27T06:39:33Z</time>
      </trkpt>
      <trkpt lat="42.7354" lon="-0.37256">
        <ele>1640.8</ele>
        <time>2018-12-27T06:39:34Z</time>
      </trkpt>
      <trkpt lat="42.73542" lon="-0.3725">
        <ele>1640.7</ele>
        <time>2018-12-27T06:39:35Z</time>
      </trkpt>
      <trkpt lat="42.73543" lon="-0.37243">
        <ele>1640.6</ele>
        <time>2018-12-27T06:39:37Z</time>
      </trkpt>
      <trkpt lat="42.73545" lon="-0.37238">
        <ele>1640.3</ele>
        <time>2018-12-27T06:39:38Z</time>
      </trkpt>
      <trkpt lat="42.73547" lon="-0.37232">
        <ele>1640.8</ele>
        <time>2018-12-27T06:39:39Z</time>
      </trkpt>
      <trkpt lat="42.73551" lon="-0.37227">
        <ele>1641.2</ele>
        <time>2018-12-27T06:39:41Z</time>
      </trkpt>
      <trkpt lat="42.73553" lon="-0.37221">
        <ele>1641.1</ele>
        <time>2018-12-27T06:39:42Z</time>
      </trkpt>
      <trkpt lat="42.73555" lon="-0.37215">
        <ele>1641.1</ele>
        <time>2018-12-27T06:39:43Z</time>
      </trkpt>
      <trkpt lat="42.73559" lon="-0.3721">
        <ele>1641.2</ele>
        <time>2018-12-27T06:39:45Z</time>
      </trkpt>
      <trkpt lat="42.73563" lon="-0.37205">
        <ele>1641</ele>
        <time>2018-12-27T06:39:46Z</time>
      </trkpt>
      <trkpt lat="42.73567" lon="-0.37201">
        <ele>1640.9</ele>
        <time>2018-12-27T06:39:48Z</time>
      </trkpt>
      <trkpt lat="42.73569" lon="-0.37195">
        <ele>1640.7</ele>
        <time>2018-12-27T06:39:49Z</time>
      </trkpt>
      <trkpt lat="42.73572" lon="-0.37191">
        <ele>1640.5</ele>
        <time>2018-12-27T06:39:50Z</time>
      </trkpt>
      <trkpt lat="42.73577" lon="-0.37188">
        <ele>1640.5</ele>
        <time>2018-12-27T06:39:51Z</time>
      </trkpt>
      <trkpt lat="42.7358" lon="-0.37183">
        <ele>1640.6</ele>
        <time>2018-12-27T06:39:53Z</time>
      </trkpt>
      <trkpt lat="42.73583" lon="-0.37178">
        <ele>1640.9</ele>
        <time>2018-12-27T06:39:54Z</time>
      </trkpt>
      <trkpt lat="42.73588" lon="-0.37176">
        <ele>1640.9</ele>
        <time>2018-12-27T06:39:55Z</time>
      </trkpt>
      <trkpt lat="42.73592" lon="-0.37172">
        <ele>1641.5</ele>
        <time>2018-12-27T06:39:57Z</time>
      </trkpt>
      <trkpt lat="42.73597" lon="-0.3717">
        <ele>1642.3</ele>
        <time>2018-12-27T06:39:58Z</time>
      </trkpt>
      <trkpt lat="42.73598" lon="-0.37164">
        <ele>1641.9</ele>
        <time>2018-12-27T06:39:59Z</time>
      </trkpt>
      <trkpt lat="42.73602" lon="-0.37159">
        <ele>1641.9</ele>
        <time>2018-12-27T06:40:01Z</time>
      </trkpt>
      <trkpt lat="42.73606" lon="-0.37154">
        <ele>1641.9</ele>
        <time>2018-12-27T06:40:02Z</time>
      </trkpt>
      <trkpt lat="42.73609" lon="-0.37148">
        <ele>1641.8</ele>
        <time>2018-12-27T06:40:03Z</time>
      </trkpt>
      <trkpt lat="42.73607" lon="-0.37142">
        <ele>1639.8</ele>
        <time>2018-12-27T06:40:05Z</time>
      </trkpt>
      <trkpt lat="42.73609" lon="-0.37136">
        <ele>1638.5</ele>
        <time>2018-12-27T06:40:06Z</time>
      </trkpt>
      <trkpt lat="42.73613" lon="-0.3714">
        <ele>1638.7</ele>
        <time>2018-12-27T06:40:07Z</time>
      </trkpt>
      <trkpt lat="42.73617" lon="-0.37145">
        <ele>1639.7</ele>
        <time>2018-12-27T06:40:09Z</time>
      </trkpt>
      <trkpt lat="42.73622" lon="-0.37144">
        <ele>1640.8</ele>
        <time>2018-12-27T06:40:10Z</time>
      </trkpt>
      <trkpt lat="42.73626" lon="-0.37141">
        <ele>1640.8</ele>
        <time>2018-12-27T06:40:11Z</time>
      </trkpt>
      <trkpt lat="42.7363" lon="-0.37138">
        <ele>1640.9</ele>
        <time>2018-12-27T06:40:13Z</time>
      </trkpt>
      <trkpt lat="42.73634" lon="-0.37134">
        <ele>1641</ele>
        <time>2018-12-27T06:40:14Z</time>
      </trkpt>
      <trkpt lat="42.73638" lon="-0.37129">
        <ele>1641.5</ele>
        <time>2018-12-27T06:40:15Z</time>
      </trkpt>
      <trkpt lat="42.73642" lon="-0.37126">
        <ele>1641.6</ele>
        <time>2018-12-27T06:40:17Z</time>
      </trkpt>
      <trkpt lat="42.73646" lon="-0.37121">
        <ele>1641.7</ele>
        <time>2018-12-27T06:40:18Z</time>
      </trkpt>
      <trkpt lat="42.7365" lon="-0.37117">
        <ele>1641.6</ele>
        <time>2018-12-27T06:40:19Z</time>
      </trkpt>
      <trkpt lat="42.73654" lon="-0.37112">
        <ele>1641.5</ele>
        <time>2018-12-27T06:40:21Z</time>
      </trkpt>
      <trkpt lat="42.73658" lon="-0.37109">
        <ele>1641.6</ele>
        <time>2018-12-27T06:40:22Z</time>
      </trkpt>
      <trkpt lat="42.73662" lon="-0.37105">
        <ele>1641.5</ele>
        <time>2018-12-27T06:40:23Z</time>
      </trkpt>
      <trkpt lat="42.73666" lon="-0.37101">
        <ele>1641.2</ele>
        <time>2018-12-27T06:40:25Z</time>
      </trkpt>
      <trkpt lat="42.7367" lon="-0.37097">
        <ele>1641.6</ele>
        <time>2018-12-27T06:40:26Z</time>
      </trkpt>
      <trkpt lat="42.73674" lon="-0.37092">
        <ele>1643.1</ele>
        <time>2018-12-27T06:40:27Z</time>
      </trkpt>
      <trkpt lat="42.73677" lon="-0.37086">
        <ele>1642.7</ele>
        <time>2018-12-27T06:40:29Z</time>
      </trkpt>
      <trkpt lat="42.7368" lon="-0.37081">
        <ele>1642</ele>
        <time>2018-12-27T06:40:30Z</time>
      </trkpt>
      <trkpt lat="42.73684" lon="-0.37077">
        <ele>1641.9</ele>
        <time>2018-12-27T06:40:31Z</time>
      </trkpt>
      <trkpt lat="42.73688" lon="-0.37073">
        <ele>1642.6</ele>
        <time>2018-12-27T06:40:33Z</time>
      </trkpt>
      <trkpt lat="42.73691" lon="-0.37068">
        <ele>1642.4</ele>
        <time>2018-12-27T06:40:34Z</time>
      </trkpt>
      <trkpt lat="42.73696" lon="-0.37065">
        <ele>1642</ele>
        <time>2018-12-27T06:40:35Z</time>
      </trkpt>
      <trkpt lat="42.73698" lon="-0.3706">
        <ele>1641.7</ele>
        <time>2018-12-27T06:40:37Z</time>
      </trkpt>
      <trkpt lat="42.73702" lon="-0.37054">
        <ele>1641.7</ele>
        <time>2018-12-27T06:40:38Z</time>
      </trkpt>
      <trkpt lat="42.73705" lon="-0.37048">
        <ele>1641.5</ele>
        <time>2018-12-27T06:40:39Z</time>
      </trkpt>
      <trkpt lat="42.73707" lon="-0.37042">
        <ele>1641.1</ele>
        <time>2018-12-27T06:40:41Z</time>
      </trkpt>
      <trkpt lat="42.73707" lon="-0.37035">
        <ele>1640.6</ele>
        <time>2018-12-27T06:40:42Z</time>
      </trkpt>
      <trkpt lat="42.73708" lon="-0.37028">
        <ele>1640.4</ele>
        <time>2018-12-27T06:40:43Z</time>
      </trkpt>
      <trkpt lat="42.73711" lon="-0.37023">
        <ele>1640.7</ele>
        <time>2018-12-27T06:40:45Z</time>
      </trkpt>
      <trkpt lat="42.73714" lon="-0.37017">
        <ele>1640.9</ele>
        <time>2018-12-27T06:40:46Z</time>
      </trkpt>
      <trkpt lat="42.73718" lon="-0.37013">
        <ele>1641.4</ele>
        <time>2018-12-27T06:40:48Z</time>
      </trkpt>
      <trkpt lat="42.73722" lon="-0.37008">
        <ele>1642.1</ele>
        <time>2018-12-27T06:40:49Z</time>
      </trkpt>
      <trkpt lat="42.73726" lon="-0.37004">
        <ele>1642.8</ele>
        <time>2018-12-27T06:40:50Z</time>
      </trkpt>
      <trkpt lat="42.7373" lon="-0.36999">
        <ele>1643.1</ele>
        <time>2018-12-27T06:40:52Z</time>
      </trkpt>
      <trkpt lat="42.73732" lon="-0.36994">
        <ele>1643.7</ele>
        <time>2018-12-27T06:40:53Z</time>
      </trkpt>
      <trkpt lat="42.73737" lon="-0.36995">
        <ele>1644.7</ele>
        <time>2018-12-27T06:40:54Z</time>
      </trkpt>
      <trkpt lat="42.73733" lon="-0.36992">
        <ele>1644.6</ele>
        <time>2018-12-27T06:40:55Z</time>
      </trkpt>
      <trkpt lat="42.73736" lon="-0.36996">
        <ele>1645.7</ele>
        <time>2018-12-27T06:40:57Z</time>
      </trkpt>
      <trkpt lat="42.7374" lon="-0.36991">
        <ele>1646.4</ele>
        <time>2018-12-27T06:40:58Z</time>
      </trkpt>
      <trkpt lat="42.73744" lon="-0.36986">
        <ele>1648.4</ele>
        <time>2018-12-27T06:40:59Z</time>
      </trkpt>
      <trkpt lat="42.73746" lon="-0.3698">
        <ele>1650.2</ele>
        <time>2018-12-27T06:41:01Z</time>
      </trkpt>
      <trkpt lat="42.73747" lon="-0.36974">
        <ele>1651.3</ele>
        <time>2018-12-27T06:41:02Z</time>
      </trkpt>
      <trkpt lat="42.73749" lon="-0.36967">
        <ele>1654.2</ele>
        <time>2018-12-27T06:41:04Z</time>
      </trkpt>
      <trkpt lat="42.73747" lon="-0.36961">
        <ele>1656</ele>
        <time>2018-12-27T06:41:05Z</time>
      </trkpt>
      <trkpt lat="42.73746" lon="-0.36954">
        <ele>1657.1</ele>
        <time>2018-12-27T06:41:06Z</time>
      </trkpt>
      <trkpt lat="42.73743" lon="-0.3695">
        <ele>1659.4</ele>
        <time>2018-12-27T06:41:07Z</time>
      </trkpt>
      <trkpt lat="42.7374" lon="-0.36943">
        <ele>1660.7</ele>
        <time>2018-12-27T06:41:09Z</time>
      </trkpt>
      <trkpt lat="42.73742" lon="-0.36938">
        <ele>1661.6</ele>
        <time>2018-12-27T06:41:10Z</time>
      </trkpt>
      <trkpt lat="42.73745" lon="-0.36932">
        <ele>1662.2</ele>
        <time>2018-12-27T06:41:11Z</time>
      </trkpt>
      <trkpt lat="42.73747" lon="-0.36926">
        <ele>1662.8</ele>
        <time>2018-12-27T06:41:13Z</time>
      </trkpt>
      <trkpt lat="42.73749" lon="-0.36919">
        <ele>1664.5</ele>
        <time>2018-12-27T06:41:14Z</time>
      </trkpt>
      <trkpt lat="42.73751" lon="-0.36913">
        <ele>1665.5</ele>
        <time>2018-12-27T06:41:15Z</time>
      </trkpt>
      <trkpt lat="42.73754" lon="-0.36908">
        <ele>1666.8</ele>
        <time>2018-12-27T06:41:17Z</time>
      </trkpt>
      <trkpt lat="42.73754" lon="-0.36901">
        <ele>1668.9</ele>
        <time>2018-12-27T06:41:18Z</time>
      </trkpt>
      <trkpt lat="42.7375" lon="-0.36897">
        <ele>1670.4</ele>
        <time>2018-12-27T06:41:19Z</time>
      </trkpt>
      <trkpt lat="42.73747" lon="-0.36892">
        <ele>1672</ele>
        <time>2018-12-27T06:41:21Z</time>
      </trkpt>
      <trkpt lat="42.73743" lon="-0.36887">
        <ele>1674</ele>
        <time>2018-12-27T06:41:22Z</time>
      </trkpt>
      <trkpt lat="42.73739" lon="-0.36882">
        <ele>1676.4</ele>
        <time>2018-12-27T06:41:23Z</time>
      </trkpt>
      <trkpt lat="42.73737" lon="-0.36876">
        <ele>1678.7</ele>
        <time>2018-12-27T06:41:25Z</time>
      </trkpt>
      <trkpt lat="42.73733" lon="-0.36873">
        <ele>1680.6</ele>
        <time>2018-12-27T06:41:26Z</time>
      </trkpt>
      <trkpt lat="42.73729" lon="-0.36869">
        <ele>1682.5</ele>
        <time>2018-12-27T06:41:27Z</time>
      </trkpt>
      <trkpt lat="42.73726" lon="-0.36864">
        <ele>1684.7</ele>
        <time>2018-12-27T06:41:29Z</time>
      </trkpt>
      <trkpt lat="42.73721" lon="-0.3686">
        <ele>1686.3</ele>
        <time>2018-12-27T06:41:30Z</time>
      </trkpt>
      <trkpt lat="42.73722" lon="-0.36853">
        <ele>1689.3</ele>
        <time>2018-12-27T06:41:31Z</time>
      </trkpt>
      <trkpt lat="42.73721" lon="-0.36847">
        <ele>1692</ele>
        <time>2018-12-27T06:41:33Z</time>
      </trkpt>
      <trkpt lat="42.73718" lon="-0.36841">
        <ele>1694</ele>
        <time>2018-12-27T06:41:34Z</time>
      </trkpt>
      <trkpt lat="42.73719" lon="-0.36834">
        <ele>1696.6</ele>
        <time>2018-12-27T06:41:35Z</time>
      </trkpt>
      <trkpt lat="42.73721" lon="-0.36828">
        <ele>1697.2</ele>
        <time>2018-12-27T06:41:37Z</time>
      </trkpt>
      <trkpt lat="42.73724" lon="-0.36823">
        <ele>1697.4</ele>
        <time>2018-12-27T06:41:38Z</time>
      </trkpt>
      <trkpt lat="42.73728" lon="-0.3682">
        <ele>1697.2</ele>
        <time>2018-12-27T06:41:39Z</time>
      </trkpt>
      <trkpt lat="42.73732" lon="-0.36815">
        <ele>1697.5</ele>
        <time>2018-12-27T06:41:40Z</time>
      </trkpt>
      <trkpt lat="42.73735" lon="-0.36811">
        <ele>1697.8</ele>
        <time>2018-12-27T06:41:42Z</time>
      </trkpt>
      <trkpt lat="42.73738" lon="-0.36804">
        <ele>1698.4</ele>
        <time>2018-12-27T06:41:43Z</time>
      </trkpt>
      <trkpt lat="42.73741" lon="-0.36799">
        <ele>1699</ele>
        <time>2018-12-27T06:41:44Z</time>
      </trkpt>
      <trkpt lat="42.73743" lon="-0.36793">
        <ele>1699.2</ele>
        <time>2018-12-27T06:41:46Z</time>
      </trkpt>
      <trkpt lat="42.73746" lon="-0.36788">
        <ele>1699.5</ele>
        <time>2018-12-27T06:41:47Z</time>
      </trkpt>
      <trkpt lat="42.73748" lon="-0.36783">
        <ele>1699.5</ele>
        <time>2018-12-27T06:41:48Z</time>
      </trkpt>
      <trkpt lat="42.7375" lon="-0.36776">
        <ele>1699.5</ele>
        <time>2018-12-27T06:41:50Z</time>
      </trkpt>
      <trkpt lat="42.7375" lon="-0.36768">
        <ele>1698.6</ele>
        <time>2018-12-27T06:41:51Z</time>
      </trkpt>
      <trkpt lat="42.73751" lon="-0.36762">
        <ele>1698.2</ele>
        <time>2018-12-27T06:41:52Z</time>
      </trkpt>
      <trkpt lat="42.73752" lon="-0.36756">
        <ele>1697</ele>
        <time>2018-12-27T06:41:54Z</time>
      </trkpt>
      <trkpt lat="42.73753" lon="-0.36749">
        <ele>1695.7</ele>
        <time>2018-12-27T06:41:55Z</time>
      </trkpt>
      <trkpt lat="42.73755" lon="-0.36743">
        <ele>1694.4</ele>
        <time>2018-12-27T06:41:56Z</time>
      </trkpt>
      <trkpt lat="42.73757" lon="-0.36737">
        <ele>1692.9</ele>
        <time>2018-12-27T06:41:58Z</time>
      </trkpt>
      <trkpt lat="42.73758" lon="-0.3673">
        <ele>1691.5</ele>
        <time>2018-12-27T06:41:59Z</time>
      </trkpt>
      <trkpt lat="42.73759" lon="-0.36724">
        <ele>1691</ele>
        <time>2018-12-27T06:42:00Z</time>
      </trkpt>
      <trkpt lat="42.73761" lon="-0.36718">
        <ele>1690.4</ele>
        <time>2018-12-27T06:42:02Z</time>
      </trkpt>
      <trkpt lat="42.73764" lon="-0.36711">
        <ele>1689.9</ele>
        <time>2018-12-27T06:42:03Z</time>
      </trkpt>
      <trkpt lat="42.73766" lon="-0.36704">
        <ele>1689.5</ele>
        <time>2018-12-27T06:42:05Z</time>
      </trkpt>
      <trkpt lat="42.73768" lon="-0.36697">
        <ele>1688.5</ele>
        <time>2018-12-27T06:42:06Z</time>
      </trkpt>
      <trkpt lat="42.73771" lon="-0.36693">
        <ele>1687.1</ele>
        <time>2018-12-27T06:42:07Z</time>
      </trkpt>
      <trkpt lat="42.73772" lon="-0.36686">
        <ele>1686.3</ele>
        <time>2018-12-27T06:42:09Z</time>
      </trkpt>
      <trkpt lat="42.73773" lon="-0.36679">
        <ele>1686.9</ele>
        <time>2018-12-27T06:42:10Z</time>
      </trkpt>
      <trkpt lat="42.73772" lon="-0.36672">
        <ele>1687.3</ele>
        <time>2018-12-27T06:42:11Z</time>
      </trkpt>
      <trkpt lat="42.73772" lon="-0.36666">
        <ele>1687.5</ele>
        <time>2018-12-27T06:42:13Z</time>
      </trkpt>
      <trkpt lat="42.73772" lon="-0.36659">
        <ele>1687.8</ele>
        <time>2018-12-27T06:42:14Z</time>
      </trkpt>
      <trkpt lat="42.73771" lon="-0.36652">
        <ele>1688.2</ele>
        <time>2018-12-27T06:42:15Z</time>
      </trkpt>
      <trkpt lat="42.73771" lon="-0.36646">
        <ele>1688.3</ele>
        <time>2018-12-27T06:42:16Z</time>
      </trkpt>
      <trkpt lat="42.73772" lon="-0.36639">
        <ele>1688.6</ele>
        <time>2018-12-27T06:42:18Z</time>
      </trkpt>
      <trkpt lat="42.73774" lon="-0.36633">
        <ele>1689</ele>
        <time>2018-12-27T06:42:19Z</time>
      </trkpt>
      <trkpt lat="42.73775" lon="-0.36626">
        <ele>1689.2</ele>
        <time>2018-12-27T06:42:21Z</time>
      </trkpt>
      <trkpt lat="42.73776" lon="-0.36619">
        <ele>1689.5</ele>
        <time>2018-12-27T06:42:22Z</time>
      </trkpt>
      <trkpt lat="42.73777" lon="-0.36612">
        <ele>1690</ele>
        <time>2018-12-27T06:42:23Z</time>
      </trkpt>
      <trkpt lat="42.73779" lon="-0.36606">
        <ele>1690.6</ele>
        <time>2018-12-27T06:42:25Z</time>
      </trkpt>
      <trkpt lat="42.7378" lon="-0.36599">
        <ele>1691.3</ele>
        <time>2018-12-27T06:42:26Z</time>
      </trkpt>
      <trkpt lat="42.73781" lon="-0.36592">
        <ele>1691.9</ele>
        <time>2018-12-27T06:42:27Z</time>
      </trkpt>
      <trkpt lat="42.73782" lon="-0.36586">
        <ele>1692.4</ele>
        <time>2018-12-27T06:42:29Z</time>
      </trkpt>
      <trkpt lat="42.73784" lon="-0.3658">
        <ele>1692.7</ele>
        <time>2018-12-27T06:42:30Z</time>
      </trkpt>
      <trkpt lat="42.73786" lon="-0.36574">
        <ele>1692.3</ele>
        <time>2018-12-27T06:42:31Z</time>
      </trkpt>
      <trkpt lat="42.73785" lon="-0.36567">
        <ele>1691.9</ele>
        <time>2018-12-27T06:42:33Z</time>
      </trkpt>
      <trkpt lat="42.73787" lon="-0.36561">
        <ele>1692.3</ele>
        <time>2018-12-27T06:42:34Z</time>
      </trkpt>
      <trkpt lat="42.73791" lon="-0.36556">
        <ele>1692.8</ele>
        <time>2018-12-27T06:42:35Z</time>
      </trkpt>
      <trkpt lat="42.73794" lon="-0.36551">
        <ele>1693.3</ele>
        <time>2018-12-27T06:42:37Z</time>
      </trkpt>
      <trkpt lat="42.73796" lon="-0.36546">
        <ele>1693.5</ele>
        <time>2018-12-27T06:42:38Z</time>
      </trkpt>
      <trkpt lat="42.73798" lon="-0.3654">
        <ele>1693.5</ele>
        <time>2018-12-27T06:42:39Z</time>
      </trkpt>
      <trkpt lat="42.73799" lon="-0.36533">
        <ele>1693</ele>
        <time>2018-12-27T06:42:40Z</time>
      </trkpt>
      <trkpt lat="42.73801" lon="-0.36527">
        <ele>1691.3</ele>
        <time>2018-12-27T06:42:42Z</time>
      </trkpt>
      <trkpt lat="42.73802" lon="-0.3652">
        <ele>1691.2</ele>
        <time>2018-12-27T06:42:43Z</time>
      </trkpt>
      <trkpt lat="42.738" lon="-0.36515">
        <ele>1691.6</ele>
        <time>2018-12-27T06:42:44Z</time>
      </trkpt>
      <trkpt lat="42.73798" lon="-0.36508">
        <ele>1691.2</ele>
        <time>2018-12-27T06:42:46Z</time>
      </trkpt>
      <trkpt lat="42.73798" lon="-0.36502">
        <ele>1691</ele>
        <time>2018-12-27T06:42:47Z</time>
      </trkpt>
      <trkpt lat="42.73798" lon="-0.36495">
        <ele>1690.9</ele>
        <time>2018-12-27T06:42:48Z</time>
      </trkpt>
      <trkpt lat="42.73798" lon="-0.36488">
        <ele>1690.8</ele>
        <time>2018-12-27T06:42:50Z</time>
      </trkpt>
      <trkpt lat="42.73799" lon="-0.36481">
        <ele>1691.1</ele>
        <time>2018-12-27T06:42:51Z</time>
      </trkpt>
      <trkpt lat="42.73798" lon="-0.36475">
        <ele>1691.3</ele>
        <time>2018-12-27T06:42:52Z</time>
      </trkpt>
      <trkpt lat="42.73799" lon="-0.36468">
        <ele>1691.7</ele>
        <time>2018-12-27T06:42:54Z</time>
      </trkpt>
      <trkpt lat="42.73799" lon="-0.36462">
        <ele>1692.2</ele>
        <time>2018-12-27T06:42:55Z</time>
      </trkpt>
      <trkpt lat="42.73799" lon="-0.36455">
        <ele>1692.6</ele>
        <time>2018-12-27T06:42:56Z</time>
      </trkpt>
      <trkpt lat="42.73799" lon="-0.36448">
        <ele>1692.4</ele>
        <time>2018-12-27T06:42:58Z</time>
      </trkpt>
      <trkpt lat="42.73803" lon="-0.36444">
        <ele>1692.7</ele>
        <time>2018-12-27T06:42:59Z</time>
      </trkpt>
      <trkpt lat="42.73806" lon="-0.36439">
        <ele>1692.9</ele>
        <time>2018-12-27T06:43:00Z</time>
      </trkpt>
      <trkpt lat="42.73809" lon="-0.36433">
        <ele>1692.7</ele>
        <time>2018-12-27T06:43:01Z</time>
      </trkpt>
      <trkpt lat="42.73808" lon="-0.36426">
        <ele>1693.8</ele>
        <time>2018-12-27T06:43:03Z</time>
      </trkpt>
      <trkpt lat="42.73805" lon="-0.3642">
        <ele>1695.3</ele>
        <time>2018-12-27T06:43:04Z</time>
      </trkpt>
      <trkpt lat="42.73804" lon="-0.36414">
        <ele>1696.1</ele>
        <time>2018-12-27T06:43:06Z</time>
      </trkpt>
      <trkpt lat="42.73801" lon="-0.36409">
        <ele>1696.6</ele>
        <time>2018-12-27T06:43:07Z</time>
      </trkpt>
      <trkpt lat="42.73798" lon="-0.36402">
        <ele>1697.4</ele>
        <time>2018-12-27T06:43:08Z</time>
      </trkpt>
      <trkpt lat="42.73801" lon="-0.36397">
        <ele>1698.2</ele>
        <time>2018-12-27T06:43:10Z</time>
      </trkpt>
      <trkpt lat="42.73803" lon="-0.36391">
        <ele>1699.7</ele>
        <time>2018-12-27T06:43:11Z</time>
      </trkpt>
      <trkpt lat="42.73804" lon="-0.36385">
        <ele>1700.9</ele>
        <time>2018-12-27T06:43:12Z</time>
      </trkpt>
      <trkpt lat="42.73806" lon="-0.36379">
        <ele>1701.5</ele>
        <time>2018-12-27T06:43:13Z</time>
      </trkpt>
      <trkpt lat="42.73806" lon="-0.36372">
        <ele>1701.6</ele>
        <time>2018-12-27T06:43:15Z</time>
      </trkpt>
      <trkpt lat="42.73804" lon="-0.36365">
        <ele>1701.4</ele>
        <time>2018-12-27T06:43:16Z</time>
      </trkpt>
      <trkpt lat="42.73803" lon="-0.36359">
        <ele>1701.3</ele>
        <time>2018-12-27T06:43:17Z</time>
      </trkpt>
      <trkpt lat="42.73804" lon="-0.36352">
        <ele>1701.4</ele>
        <time>2018-12-27T06:43:19Z</time>
      </trkpt>
      <trkpt lat="42.73805" lon="-0.36344">
        <ele>1701.7</ele>
        <time>2018-12-27T06:43:20Z</time>
      </trkpt>
      <trkpt lat="42.73807" lon="-0.36338">
        <ele>1702.3</ele>
        <time>2018-12-27T06:43:22Z</time>
      </trkpt>
      <trkpt lat="42.73807" lon="-0.36331">
        <ele>1704.2</ele>
        <time>2018-12-27T06:43:23Z</time>
      </trkpt>
      <trkpt lat="42.73808" lon="-0.36325">
        <ele>1704.9</ele>
        <time>2018-12-27T06:43:24Z</time>
      </trkpt>
      <trkpt lat="42.73808" lon="-0.36318">
        <ele>1705.5</ele>
        <time>2018-12-27T06:43:26Z</time>
      </trkpt>
      <trkpt lat="42.73807" lon="-0.36311">
        <ele>1705.3</ele>
        <time>2018-12-27T06:43:27Z</time>
      </trkpt>
      <trkpt lat="42.73808" lon="-0.36305">
        <ele>1705.1</ele>
        <time>2018-12-27T06:43:28Z</time>
      </trkpt>
      <trkpt lat="42.73806" lon="-0.36298">
        <ele>1705.9</ele>
        <time>2018-12-27T06:43:30Z</time>
      </trkpt>
      <trkpt lat="42.73802" lon="-0.36293">
        <ele>1705.7</ele>
        <time>2018-12-27T06:43:31Z</time>
      </trkpt>
      <trkpt lat="42.73802" lon="-0.36286">
        <ele>1705.6</ele>
        <time>2018-12-27T06:43:33Z</time>
      </trkpt>
      <trkpt lat="42.738" lon="-0.3628">
        <ele>1704.8</ele>
        <time>2018-12-27T06:43:34Z</time>
      </trkpt>
      <trkpt lat="42.73799" lon="-0.36274">
        <ele>1705.2</ele>
        <time>2018-12-27T06:43:35Z</time>
      </trkpt>
      <trkpt lat="42.73797" lon="-0.36268">
        <ele>1706</ele>
        <time>2018-12-27T06:43:36Z</time>
      </trkpt>
      <trkpt lat="42.73795" lon="-0.36262">
        <ele>1706.7</ele>
        <time>2018-12-27T06:43:38Z</time>
      </trkpt>
      <trkpt lat="42.73794" lon="-0.36255">
        <ele>1706.4</ele>
        <time>2018-12-27T06:43:39Z</time>
      </trkpt>
      <trkpt lat="42.73794" lon="-0.36248">
        <ele>1706.1</ele>
        <time>2018-12-27T06:43:40Z</time>
      </trkpt>
      <trkpt lat="42.73792" lon="-0.36242">
        <ele>1706.1</ele>
        <time>2018-12-27T06:43:42Z</time>
      </trkpt>
      <trkpt lat="42.73791" lon="-0.36235">
        <ele>1706.2</ele>
        <time>2018-12-27T06:43:43Z</time>
      </trkpt>
      <trkpt lat="42.73787" lon="-0.36231">
        <ele>1706.9</ele>
        <time>2018-12-27T06:43:44Z</time>
      </trkpt>
      <trkpt lat="42.73784" lon="-0.36227">
        <ele>1707.3</ele>
        <time>2018-12-27T06:43:45Z</time>
      </trkpt>
      <trkpt lat="42.73782" lon="-0.36221">
        <ele>1707.3</ele>
        <time>2018-12-27T06:43:47Z</time>
      </trkpt>
      <trkpt lat="42.7378" lon="-0.36215">
        <ele>1707.6</ele>
        <time>2018-12-27T06:43:48Z</time>
      </trkpt>
      <trkpt lat="42.73778" lon="-0.36209">
        <ele>1708.1</ele>
        <time>2018-12-27T06:43:49Z</time>
      </trkpt>
      <trkpt lat="42.73774" lon="-0.36204">
        <ele>1708.7</ele>
        <time>2018-12-27T06:43:51Z</time>
      </trkpt>
      <trkpt lat="42.73772" lon="-0.36199">
        <ele>1709.2</ele>
        <time>2018-12-27T06:43:52Z</time>
      </trkpt>
      <trkpt lat="42.73768" lon="-0.36195">
        <ele>1709.2</ele>
        <time>2018-12-27T06:43:53Z</time>
      </trkpt>
      <trkpt lat="42.73768" lon="-0.36189">
        <ele>1710.2</ele>
        <time>2018-12-27T06:43:54Z</time>
      </trkpt>
      <trkpt lat="42.73767" lon="-0.36183">
        <ele>1711</ele>
        <time>2018-12-27T06:43:55Z</time>
      </trkpt>
      <trkpt lat="42.73766" lon="-0.36177">
        <ele>1710.4</ele>
        <time>2018-12-27T06:43:57Z</time>
      </trkpt>
      <trkpt lat="42.73771" lon="-0.36178">
        <ele>1710.1</ele>
        <time>2018-12-27T06:43:58Z</time>
      </trkpt>
      <trkpt lat="42.73767" lon="-0.36176">
        <ele>1710.3</ele>
        <time>2018-12-27T06:43:59Z</time>
      </trkpt>
      <trkpt lat="42.73769" lon="-0.36183">
        <ele>1709.9</ele>
        <time>2018-12-27T06:44:01Z</time>
      </trkpt>
      <trkpt lat="42.73771" lon="-0.36189">
        <ele>1710.3</ele>
        <time>2018-12-27T06:44:02Z</time>
      </trkpt>
      <trkpt lat="42.73768" lon="-0.36184">
        <ele>1710.8</ele>
        <time>2018-12-27T06:44:04Z</time>
      </trkpt>
      <trkpt lat="42.73765" lon="-0.36178">
        <ele>1711.2</ele>
        <time>2018-12-27T06:44:05Z</time>
      </trkpt>
      <trkpt lat="42.73764" lon="-0.36171">
        <ele>1712</ele>
        <time>2018-12-27T06:44:06Z</time>
      </trkpt>
      <trkpt lat="42.73761" lon="-0.36165">
        <ele>1712.5</ele>
        <time>2018-12-27T06:44:08Z</time>
      </trkpt>
      <trkpt lat="42.73757" lon="-0.36159">
        <ele>1712.1</ele>
        <time>2018-12-27T06:44:09Z</time>
      </trkpt>
      <trkpt lat="42.73754" lon="-0.36154">
        <ele>1711.6</ele>
        <time>2018-12-27T06:44:11Z</time>
      </trkpt>
      <trkpt lat="42.7375" lon="-0.3615">
        <ele>1712.4</ele>
        <time>2018-12-27T06:44:12Z</time>
      </trkpt>
      <trkpt lat="42.73748" lon="-0.36145">
        <ele>1713.3</ele>
        <time>2018-12-27T06:44:13Z</time>
      </trkpt>
      <trkpt lat="42.73751" lon="-0.36139">
        <ele>1714.8</ele>
        <time>2018-12-27T06:44:14Z</time>
      </trkpt>
      <trkpt lat="42.73752" lon="-0.36133">
        <ele>1716</ele>
        <time>2018-12-27T06:44:16Z</time>
      </trkpt>
      <trkpt lat="42.73749" lon="-0.36128">
        <ele>1716.5</ele>
        <time>2018-12-27T06:44:17Z</time>
      </trkpt>
      <trkpt lat="42.73749" lon="-0.36121">
        <ele>1717.3</ele>
        <time>2018-12-27T06:44:18Z</time>
      </trkpt>
      <trkpt lat="42.73749" lon="-0.36114">
        <ele>1717.6</ele>
        <time>2018-12-27T06:44:20Z</time>
      </trkpt>
      <trkpt lat="42.73747" lon="-0.36108">
        <ele>1718.4</ele>
        <time>2018-12-27T06:44:21Z</time>
      </trkpt>
      <trkpt lat="42.73746" lon="-0.36101">
        <ele>1719.1</ele>
        <time>2018-12-27T06:44:22Z</time>
      </trkpt>
      <trkpt lat="42.73745" lon="-0.36094">
        <ele>1719.3</ele>
        <time>2018-12-27T06:44:24Z</time>
      </trkpt>
      <trkpt lat="42.73745" lon="-0.36087">
        <ele>1719.9</ele>
        <time>2018-12-27T06:44:25Z</time>
      </trkpt>
      <trkpt lat="42.73743" lon="-0.36081">
        <ele>1720.2</ele>
        <time>2018-12-27T06:44:26Z</time>
      </trkpt>
      <trkpt lat="42.73739" lon="-0.36076">
        <ele>1718.3</ele>
        <time>2018-12-27T06:44:28Z</time>
      </trkpt>
      <trkpt lat="42.73736" lon="-0.3607">
        <ele>1717.2</ele>
        <time>2018-12-27T06:44:29Z</time>
      </trkpt>
      <trkpt lat="42.73734" lon="-0.36065">
        <ele>1716.8</ele>
        <time>2018-12-27T06:44:30Z</time>
      </trkpt>
      <trkpt lat="42.7373" lon="-0.3606">
        <ele>1715.7</ele>
        <time>2018-12-27T06:44:32Z</time>
      </trkpt>
      <trkpt lat="42.73727" lon="-0.36055">
        <ele>1714.8</ele>
        <time>2018-12-27T06:44:33Z</time>
      </trkpt>
      <trkpt lat="42.73725" lon="-0.36049">
        <ele>1716.4</ele>
        <time>2018-12-27T06:44:34Z</time>
      </trkpt>
      <trkpt lat="42.73728" lon="-0.36043">
        <ele>1716.7</ele>
        <time>2018-12-27T06:44:36Z</time>
      </trkpt>
      <trkpt lat="42.7373" lon="-0.36038">
        <ele>1717</ele>
        <time>2018-12-27T06:44:37Z</time>
      </trkpt>
      <trkpt lat="42.73732" lon="-0.36031">
        <ele>1716.5</ele>
        <time>2018-12-27T06:44:38Z</time>
      </trkpt>
      <trkpt lat="42.73733" lon="-0.36024">
        <ele>1717.2</ele>
        <time>2018-12-27T06:44:40Z</time>
      </trkpt>
      <trkpt lat="42.73734" lon="-0.36018">
        <ele>1718.2</ele>
        <time>2018-12-27T06:44:41Z</time>
      </trkpt>
      <trkpt lat="42.73733" lon="-0.36011">
        <ele>1718.9</ele>
        <time>2018-12-27T06:44:42Z</time>
      </trkpt>
      <trkpt lat="42.73733" lon="-0.36005">
        <ele>1719.3</ele>
        <time>2018-12-27T06:44:44Z</time>
      </trkpt>
      <trkpt lat="42.73735" lon="-0.35998">
        <ele>1719.2</ele>
        <time>2018-12-27T06:44:45Z</time>
      </trkpt>
      <trkpt lat="42.73736" lon="-0.35991">
        <ele>1719.4</ele>
        <time>2018-12-27T06:44:46Z</time>
      </trkpt>
      <trkpt lat="42.73737" lon="-0.35986">
        <ele>1719.2</ele>
        <time>2018-12-27T06:44:48Z</time>
      </trkpt>
      <trkpt lat="42.7374" lon="-0.35979">
        <ele>1719.2</ele>
        <time>2018-12-27T06:44:49Z</time>
      </trkpt>
      <trkpt lat="42.73741" lon="-0.35973">
        <ele>1718.3</ele>
        <time>2018-12-27T06:44:50Z</time>
      </trkpt>
      <trkpt lat="42.73739" lon="-0.35966">
        <ele>1717.9</ele>
        <time>2018-12-27T06:44:52Z</time>
      </trkpt>
      <trkpt lat="42.73738" lon="-0.3596">
        <ele>1718</ele>
        <time>2018-12-27T06:44:53Z</time>
      </trkpt>
      <trkpt lat="42.73737" lon="-0.35953">
        <ele>1718.7</ele>
        <time>2018-12-27T06:44:54Z</time>
      </trkpt>
      <trkpt lat="42.73738" lon="-0.35946">
        <ele>1719</ele>
        <time>2018-12-27T06:44:56Z</time>
      </trkpt>
      <trkpt lat="42.73739" lon="-0.3594">
        <ele>1718.5</ele>
        <time>2018-12-27T06:44:57Z</time>
      </trkpt>
      <trkpt lat="42.73739" lon="-0.35933">
        <ele>1718.6</ele>
        <time>2018-12-27T06:44:58Z</time>
      </trkpt>
      <trkpt lat="42.73741" lon="-0.35927">
        <ele>1719.3</ele>
        <time>2018-12-27T06:45:00Z</time>
      </trkpt>
      <trkpt lat="42.73741" lon="-0.3592">
        <ele>1720</ele>
        <time>2018-12-27T06:45:01Z</time>
      </trkpt>
      <trkpt lat="42.7374" lon="-0.35913">
        <ele>1720.5</ele>
        <time>2018-12-27T06:45:03Z</time>
      </trkpt>
      <trkpt lat="42.73743" lon="-0.35908">
        <ele>1719.9</ele>
        <time>2018-12-27T06:45:04Z</time>
      </trkpt>
      <trkpt lat="42.73746" lon="-0.35901">
        <ele>1720.2</ele>
        <time>2018-12-27T06:45:05Z</time>
      </trkpt>
      <trkpt lat="42.73747" lon="-0.35895">
        <ele>1720.2</ele>
        <time>2018-12-27T06:45:07Z</time>
      </trkpt>
      <trkpt lat="42.73748" lon="-0.35889">
        <ele>1719.9</ele>
        <time>2018-12-27T06:45:08Z</time>
      </trkpt>
      <trkpt lat="42.73748" lon="-0.35882">
        <ele>1720.1</ele>
        <time>2018-12-27T06:45:09Z</time>
      </trkpt>
      <trkpt lat="42.73743" lon="-0.35879">
        <ele>1720.7</ele>
        <time>2018-12-27T06:45:10Z</time>
      </trkpt>
      <trkpt lat="42.73743" lon="-0.35871">
        <ele>1720.4</ele>
        <time>2018-12-27T06:45:12Z</time>
      </trkpt>
      <trkpt lat="42.73741" lon="-0.35865">
        <ele>1720.7</ele>
        <time>2018-12-27T06:45:13Z</time>
      </trkpt>
      <trkpt lat="42.73739" lon="-0.35858">
        <ele>1721.3</ele>
        <time>2018-12-27T06:45:15Z</time>
      </trkpt>
      <trkpt lat="42.73739" lon="-0.35851">
        <ele>1721.7</ele>
        <time>2018-12-27T06:45:16Z</time>
      </trkpt>
      <trkpt lat="42.73737" lon="-0.35845">
        <ele>1722.6</ele>
        <time>2018-12-27T06:45:17Z</time>
      </trkpt>
      <trkpt lat="42.73736" lon="-0.35838">
        <ele>1722.4</ele>
        <time>2018-12-27T06:45:19Z</time>
      </trkpt>
      <trkpt lat="42.73735" lon="-0.35831">
        <ele>1721.9</ele>
        <time>2018-12-27T06:45:20Z</time>
      </trkpt>
      <trkpt lat="42.73734" lon="-0.35824">
        <ele>1722.1</ele>
        <time>2018-12-27T06:45:21Z</time>
      </trkpt>
      <trkpt lat="42.73733" lon="-0.35818">
        <ele>1723.3</ele>
        <time>2018-12-27T06:45:23Z</time>
      </trkpt>
      <trkpt lat="42.73732" lon="-0.35811">
        <ele>1724.5</ele>
        <time>2018-12-27T06:45:24Z</time>
      </trkpt>
      <trkpt lat="42.7373" lon="-0.35805">
        <ele>1723.4</ele>
        <time>2018-12-27T06:45:25Z</time>
      </trkpt>
      <trkpt lat="42.73728" lon="-0.35799">
        <ele>1723.4</ele>
        <time>2018-12-27T06:45:27Z</time>
      </trkpt>
      <trkpt lat="42.7373" lon="-0.35793">
        <ele>1724.3</ele>
        <time>2018-12-27T06:45:28Z</time>
      </trkpt>
      <trkpt lat="42.73731" lon="-0.35787">
        <ele>1725</ele>
        <time>2018-12-27T06:45:29Z</time>
      </trkpt>
      <trkpt lat="42.7373" lon="-0.35781">
        <ele>1725.3</ele>
        <time>2018-12-27T06:45:30Z</time>
      </trkpt>
      <trkpt lat="42.7373" lon="-0.35774">
        <ele>1726</ele>
        <time>2018-12-27T06:45:32Z</time>
      </trkpt>
      <trkpt lat="42.73728" lon="-0.35767">
        <ele>1727</ele>
        <time>2018-12-27T06:45:33Z</time>
      </trkpt>
      <trkpt lat="42.73727" lon="-0.35761">
        <ele>1727.9</ele>
        <time>2018-12-27T06:45:34Z</time>
      </trkpt>
      <trkpt lat="42.73728" lon="-0.35754">
        <ele>1728.2</ele>
        <time>2018-12-27T06:45:36Z</time>
      </trkpt>
      <trkpt lat="42.73728" lon="-0.35747">
        <ele>1727.5</ele>
        <time>2018-12-27T06:45:37Z</time>
      </trkpt>
      <trkpt lat="42.73729" lon="-0.35741">
        <ele>1727.4</ele>
        <time>2018-12-27T06:45:38Z</time>
      </trkpt>
      <trkpt lat="42.73731" lon="-0.35734">
        <ele>1727.1</ele>
        <time>2018-12-27T06:45:40Z</time>
      </trkpt>
      <trkpt lat="42.7373" lon="-0.35727">
        <ele>1729</ele>
        <time>2018-12-27T06:45:41Z</time>
      </trkpt>
      <trkpt lat="42.73729" lon="-0.35721">
        <ele>1728.5</ele>
        <time>2018-12-27T06:45:42Z</time>
      </trkpt>
      <trkpt lat="42.73728" lon="-0.35714">
        <ele>1729</ele>
        <time>2018-12-27T06:45:44Z</time>
      </trkpt>
      <trkpt lat="42.73727" lon="-0.35708">
        <ele>1728.5</ele>
        <time>2018-12-27T06:45:45Z</time>
      </trkpt>
      <trkpt lat="42.73725" lon="-0.35701">
        <ele>1728.5</ele>
        <time>2018-12-27T06:45:46Z</time>
      </trkpt>
      <trkpt lat="42.73724" lon="-0.35694">
        <ele>1729</ele>
        <time>2018-12-27T06:45:48Z</time>
      </trkpt>
      <trkpt lat="42.73723" lon="-0.35688">
        <ele>1728.8</ele>
        <time>2018-12-27T06:45:49Z</time>
      </trkpt>
      <trkpt lat="42.73721" lon="-0.35681">
        <ele>1728.6</ele>
        <time>2018-12-27T06:45:50Z</time>
      </trkpt>
      <trkpt lat="42.73718" lon="-0.35676">
        <ele>1729.3</ele>
        <time>2018-12-27T06:45:52Z</time>
      </trkpt>
      <trkpt lat="42.73715" lon="-0.3567">
        <ele>1728.8</ele>
        <time>2018-12-27T06:45:53Z</time>
      </trkpt>
      <trkpt lat="42.73712" lon="-0.35665">
        <ele>1728.8</ele>
        <time>2018-12-27T06:45:54Z</time>
      </trkpt>
      <trkpt lat="42.73708" lon="-0.3566">
        <ele>1728.2</ele>
        <time>2018-12-27T06:45:56Z</time>
      </trkpt>
      <trkpt lat="42.73704" lon="-0.35657">
        <ele>1728.1</ele>
        <time>2018-12-27T06:45:57Z</time>
      </trkpt>
      <trkpt lat="42.737" lon="-0.35654">
        <ele>1727.8</ele>
        <time>2018-12-27T06:45:58Z</time>
      </trkpt>
      <trkpt lat="42.73695" lon="-0.3565">
        <ele>1727.5</ele>
        <time>2018-12-27T06:46:00Z</time>
      </trkpt>
      <trkpt lat="42.73693" lon="-0.35645">
        <ele>1727.6</ele>
        <time>2018-12-27T06:46:01Z</time>
      </trkpt>
      <trkpt lat="42.73689" lon="-0.35641">
        <ele>1728.3</ele>
        <time>2018-12-27T06:46:02Z</time>
      </trkpt>
      <trkpt lat="42.73685" lon="-0.35636">
        <ele>1728.6</ele>
        <time>2018-12-27T06:46:04Z</time>
      </trkpt>
      <trkpt lat="42.73681" lon="-0.35633">
        <ele>1728.7</ele>
        <time>2018-12-27T06:46:05Z</time>
      </trkpt>
      <trkpt lat="42.73678" lon="-0.35627">
        <ele>1728.6</ele>
        <time>2018-12-27T06:46:06Z</time>
      </trkpt>
      <trkpt lat="42.73675" lon="-0.35622">
        <ele>1728.7</ele>
        <time>2018-12-27T06:46:08Z</time>
      </trkpt>
      <trkpt lat="42.73672" lon="-0.35617">
        <ele>1729</ele>
        <time>2018-12-27T06:46:09Z</time>
      </trkpt>
      <trkpt lat="42.73668" lon="-0.35613">
        <ele>1729.1</ele>
        <time>2018-12-27T06:46:10Z</time>
      </trkpt>
      <trkpt lat="42.73663" lon="-0.35609">
        <ele>1729.4</ele>
        <time>2018-12-27T06:46:12Z</time>
      </trkpt>
      <trkpt lat="42.73659" lon="-0.35605">
        <ele>1729.5</ele>
        <time>2018-12-27T06:46:13Z</time>
      </trkpt>
      <trkpt lat="42.73655" lon="-0.356">
        <ele>1729.1</ele>
        <time>2018-12-27T06:46:15Z</time>
      </trkpt>
      <trkpt lat="42.73652" lon="-0.35594">
        <ele>1729</ele>
        <time>2018-12-27T06:46:16Z</time>
      </trkpt>
      <trkpt lat="42.7365" lon="-0.35588">
        <ele>1728.1</ele>
        <time>2018-12-27T06:46:17Z</time>
      </trkpt>
      <trkpt lat="42.73649" lon="-0.35582">
        <ele>1727.1</ele>
        <time>2018-12-27T06:46:19Z</time>
      </trkpt>
      <trkpt lat="42.73647" lon="-0.35576">
        <ele>1726.1</ele>
        <time>2018-12-27T06:46:20Z</time>
      </trkpt>
      <trkpt lat="42.73643" lon="-0.35572">
        <ele>1725.9</ele>
        <time>2018-12-27T06:46:21Z</time>
      </trkpt>
      <trkpt lat="42.73641" lon="-0.35566">
        <ele>1724.7</ele>
        <time>2018-12-27T06:46:22Z</time>
      </trkpt>
      <trkpt lat="42.73638" lon="-0.35561">
        <ele>1724.6</ele>
        <time>2018-12-27T06:46:24Z</time>
      </trkpt>
      <trkpt lat="42.73636" lon="-0.35555">
        <ele>1726.1</ele>
        <time>2018-12-27T06:46:25Z</time>
      </trkpt>
      <trkpt lat="42.73633" lon="-0.3555">
        <ele>1727</ele>
        <time>2018-12-27T06:46:26Z</time>
      </trkpt>
      <trkpt lat="42.73633" lon="-0.35543">
        <ele>1728.1</ele>
        <time>2018-12-27T06:46:28Z</time>
      </trkpt>
      <trkpt lat="42.7363" lon="-0.35538">
        <ele>1728.7</ele>
        <time>2018-12-27T06:46:29Z</time>
      </trkpt>
      <trkpt lat="42.73627" lon="-0.35533">
        <ele>1730</ele>
        <time>2018-12-27T06:46:30Z</time>
      </trkpt>
      <trkpt lat="42.73623" lon="-0.35528">
        <ele>1731.5</ele>
        <time>2018-12-27T06:46:32Z</time>
      </trkpt>
      <trkpt lat="42.73623" lon="-0.3552">
        <ele>1732.7</ele>
        <time>2018-12-27T06:46:33Z</time>
      </trkpt>
      <trkpt lat="42.73621" lon="-0.35513">
        <ele>1733.8</ele>
        <time>2018-12-27T06:46:35Z</time>
      </trkpt>
      <trkpt lat="42.73617" lon="-0.35508">
        <ele>1734.4</ele>
        <time>2018-12-27T06:46:36Z</time>
      </trkpt>
      <trkpt lat="42.73615" lon="-0.35503">
        <ele>1735.4</ele>
        <time>2018-12-27T06:46:37Z</time>
      </trkpt>
      <trkpt lat="42.73614" lon="-0.35497">
        <ele>1735.9</ele>
        <time>2018-12-27T06:46:38Z</time>
      </trkpt>
      <trkpt lat="42.73611" lon="-0.35491">
        <ele>1736.4</ele>
        <time>2018-12-27T06:46:40Z</time>
      </trkpt>
      <trkpt lat="42.73609" lon="-0.35486">
        <ele>1738.4</ele>
        <time>2018-12-27T06:46:41Z</time>
      </trkpt>
      <trkpt lat="42.73607" lon="-0.35479">
        <ele>1739.5</ele>
        <time>2018-12-27T06:46:42Z</time>
      </trkpt>
      <trkpt lat="42.73607" lon="-0.35473">
        <ele>1740.3</ele>
        <time>2018-12-27T06:46:44Z</time>
      </trkpt>
      <trkpt lat="42.73608" lon="-0.35466">
        <ele>1740.8</ele>
        <time>2018-12-27T06:46:45Z</time>
      </trkpt>
      <trkpt lat="42.73607" lon="-0.35459">
        <ele>1741.7</ele>
        <time>2018-12-27T06:46:46Z</time>
      </trkpt>
      <trkpt lat="42.73605" lon="-0.35453">
        <ele>1742.2</ele>
        <time>2018-12-27T06:46:48Z</time>
      </trkpt>
      <trkpt lat="42.73603" lon="-0.35447">
        <ele>1742.7</ele>
        <time>2018-12-27T06:46:49Z</time>
      </trkpt>
      <trkpt lat="42.73601" lon="-0.3544">
        <ele>1743.5</ele>
        <time>2018-12-27T06:46:50Z</time>
      </trkpt>
      <trkpt lat="42.736" lon="-0.35433">
        <ele>1744</ele>
        <time>2018-12-27T06:46:52Z</time>
      </trkpt>
      <trkpt lat="42.73598" lon="-0.35426">
        <ele>1744.3</ele>
        <time>2018-12-27T06:46:53Z</time>
      </trkpt>
      <trkpt lat="42.73597" lon="-0.35418">
        <ele>1744.6</ele>
        <time>2018-12-27T06:46:55Z</time>
      </trkpt>
      <trkpt lat="42.73594" lon="-0.35411">
        <ele>1744.8</ele>
        <time>2018-12-27T06:46:56Z</time>
      </trkpt>
      <trkpt lat="42.73594" lon="-0.35403">
        <ele>1745.1</ele>
        <time>2018-12-27T06:46:58Z</time>
      </trkpt>
      <trkpt lat="42.73595" lon="-0.35396">
        <ele>1745.4</ele>
        <time>2018-12-27T06:46:59Z</time>
      </trkpt>
      <trkpt lat="42.73594" lon="-0.3539">
        <ele>1746.2</ele>
        <time>2018-12-27T06:47:00Z</time>
      </trkpt>
      <trkpt lat="42.73593" lon="-0.35382">
        <ele>1747</ele>
        <time>2018-12-27T06:47:02Z</time>
      </trkpt>
      <trkpt lat="42.73592" lon="-0.35376">
        <ele>1747.4</ele>
        <time>2018-12-27T06:47:03Z</time>
      </trkpt>
      <trkpt lat="42.7359" lon="-0.35371">
        <ele>1748.4</ele>
        <time>2018-12-27T06:47:04Z</time>
      </trkpt>
      <trkpt lat="42.73586" lon="-0.35367">
        <ele>1748.9</ele>
        <time>2018-12-27T06:47:06Z</time>
      </trkpt>
      <trkpt lat="42.73583" lon="-0.35362">
        <ele>1749.1</ele>
        <time>2018-12-27T06:47:07Z</time>
      </trkpt>
      <trkpt lat="42.73582" lon="-0.35357">
        <ele>1748.9</ele>
        <time>2018-12-27T06:47:08Z</time>
      </trkpt>
      <trkpt lat="42.73579" lon="-0.35351">
        <ele>1748.7</ele>
        <time>2018-12-27T06:47:09Z</time>
      </trkpt>
      <trkpt lat="42.73577" lon="-0.35345">
        <ele>1749.5</ele>
        <time>2018-12-27T06:47:11Z</time>
      </trkpt>
      <trkpt lat="42.73578" lon="-0.35339">
        <ele>1749.7</ele>
        <time>2018-12-27T06:47:12Z</time>
      </trkpt>
      <trkpt lat="42.73577" lon="-0.35333">
        <ele>1749.4</ele>
        <time>2018-12-27T06:47:13Z</time>
      </trkpt>
      <trkpt lat="42.73582" lon="-0.35332">
        <ele>1750.1</ele>
        <time>2018-12-27T06:47:15Z</time>
      </trkpt>
      <trkpt lat="42.7358" lon="-0.35326">
        <ele>1750.6</ele>
        <time>2018-12-27T06:47:16Z</time>
      </trkpt>
      <trkpt lat="42.7358" lon="-0.35319">
        <ele>1750.3</ele>
        <time>2018-12-27T06:47:17Z</time>
      </trkpt>
      <trkpt lat="42.73575" lon="-0.35318">
        <ele>1750.8</ele>
        <time>2018-12-27T06:47:18Z</time>
      </trkpt>
      <trkpt lat="42.73574" lon="-0.35312">
        <ele>1751.1</ele>
        <time>2018-12-27T06:47:20Z</time>
      </trkpt>
      <trkpt lat="42.73576" lon="-0.35304">
        <ele>1751.3</ele>
        <time>2018-12-27T06:47:21Z</time>
      </trkpt>
      <trkpt lat="42.73575" lon="-0.35297">
        <ele>1751.9</ele>
        <time>2018-12-27T06:47:23Z</time>
      </trkpt>
      <trkpt lat="42.73573" lon="-0.35291">
        <ele>1752</ele>
        <time>2018-12-27T06:47:24Z</time>
      </trkpt>
      <trkpt lat="42.73571" lon="-0.35284">
        <ele>1751.8</ele>
        <time>2018-12-27T06:47:25Z</time>
      </trkpt>
      <trkpt lat="42.7357" lon="-0.35277">
        <ele>1752</ele>
        <time>2018-12-27T06:47:27Z</time>
      </trkpt>
      <trkpt lat="42.73568" lon="-0.35271">
        <ele>1751.9</ele>
        <time>2018-12-27T06:47:28Z</time>
      </trkpt>
      <trkpt lat="42.73566" lon="-0.35265">
        <ele>1751.8</ele>
        <time>2018-12-27T06:47:29Z</time>
      </trkpt>
      <trkpt lat="42.73563" lon="-0.35258">
        <ele>1752</ele>
        <time>2018-12-27T06:47:31Z</time>
      </trkpt>
      <trkpt lat="42.73566" lon="-0.35252">
        <ele>1753.3</ele>
        <time>2018-12-27T06:47:32Z</time>
      </trkpt>
      <trkpt lat="42.73565" lon="-0.35246">
        <ele>1754.1</ele>
        <time>2018-12-27T06:47:34Z</time>
      </trkpt>
      <trkpt lat="42.73565" lon="-0.35239">
        <ele>1754.9</ele>
        <time>2018-12-27T06:47:35Z</time>
      </trkpt>
      <trkpt lat="42.73565" lon="-0.35231">
        <ele>1755.8</ele>
        <time>2018-12-27T06:47:36Z</time>
      </trkpt>
      <trkpt lat="42.73569" lon="-0.35227">
        <ele>1756.1</ele>
        <time>2018-12-27T06:47:38Z</time>
      </trkpt>
      <trkpt lat="42.73572" lon="-0.35222">
        <ele>1756.7</ele>
        <time>2018-12-27T06:47:39Z</time>
      </trkpt>
      <trkpt lat="42.73573" lon="-0.35215">
        <ele>1757.7</ele>
        <time>2018-12-27T06:47:40Z</time>
      </trkpt>
      <trkpt lat="42.73575" lon="-0.35209">
        <ele>1759.1</ele>
        <time>2018-12-27T06:47:42Z</time>
      </trkpt>
      <trkpt lat="42.73577" lon="-0.35201">
        <ele>1759.3</ele>
        <time>2018-12-27T06:47:43Z</time>
      </trkpt>
      <trkpt lat="42.73578" lon="-0.35195">
        <ele>1759.9</ele>
        <time>2018-12-27T06:47:45Z</time>
      </trkpt>
      <trkpt lat="42.7358" lon="-0.35189">
        <ele>1760.6</ele>
        <time>2018-12-27T06:47:46Z</time>
      </trkpt>
      <trkpt lat="42.73581" lon="-0.35182">
        <ele>1761.1</ele>
        <time>2018-12-27T06:47:47Z</time>
      </trkpt>
      <trkpt lat="42.73583" lon="-0.35176">
        <ele>1761.6</ele>
        <time>2018-12-27T06:47:49Z</time>
      </trkpt>
      <trkpt lat="42.73585" lon="-0.35169">
        <ele>1762.8</ele>
        <time>2018-12-27T06:47:50Z</time>
      </trkpt>
      <trkpt lat="42.73587" lon="-0.35163">
        <ele>1763.8</ele>
        <time>2018-12-27T06:47:51Z</time>
      </trkpt>
      <trkpt lat="42.73591" lon="-0.35158">
        <ele>1763.8</ele>
        <time>2018-12-27T06:47:53Z</time>
      </trkpt>
      <trkpt lat="42.73596" lon="-0.35154">
        <ele>1763.5</ele>
        <time>2018-12-27T06:47:54Z</time>
      </trkpt>
      <trkpt lat="42.736" lon="-0.35157">
        <ele>1763.7</ele>
        <time>2018-12-27T06:47:56Z</time>
      </trkpt>
      <trkpt lat="42.736" lon="-0.3515">
        <ele>1764.3</ele>
        <time>2018-12-27T06:47:57Z</time>
      </trkpt>
      <trkpt lat="42.736" lon="-0.35143">
        <ele>1765.6</ele>
        <time>2018-12-27T06:47:58Z</time>
      </trkpt>
      <trkpt lat="42.73603" lon="-0.35137">
        <ele>1766.5</ele>
        <time>2018-12-27T06:48:00Z</time>
      </trkpt>
      <trkpt lat="42.73604" lon="-0.35131">
        <ele>1766.9</ele>
        <time>2018-12-27T06:48:01Z</time>
      </trkpt>
      <trkpt lat="42.73606" lon="-0.35124">
        <ele>1767.3</ele>
        <time>2018-12-27T06:48:02Z</time>
      </trkpt>
      <trkpt lat="42.73607" lon="-0.35117">
        <ele>1767.3</ele>
        <time>2018-12-27T06:48:04Z</time>
      </trkpt>
      <trkpt lat="42.73607" lon="-0.35111">
        <ele>1766.9</ele>
        <time>2018-12-27T06:48:05Z</time>
      </trkpt>
      <trkpt lat="42.73608" lon="-0.35104">
        <ele>1766.3</ele>
        <time>2018-12-27T06:48:06Z</time>
      </trkpt>
      <trkpt lat="42.73611" lon="-0.35099">
        <ele>1765.6</ele>
        <time>2018-12-27T06:48:08Z</time>
      </trkpt>
      <trkpt lat="42.73614" lon="-0.35093">
        <ele>1765</ele>
        <time>2018-12-27T06:48:09Z</time>
      </trkpt>
      <trkpt lat="42.73616" lon="-0.35087">
        <ele>1764.5</ele>
        <time>2018-12-27T06:48:10Z</time>
      </trkpt>
      <trkpt lat="42.73618" lon="-0.35081">
        <ele>1763.9</ele>
        <time>2018-12-27T06:48:12Z</time>
      </trkpt>
      <trkpt lat="42.7362" lon="-0.35075">
        <ele>1763.4</ele>
        <time>2018-12-27T06:48:13Z</time>
      </trkpt>
      <trkpt lat="42.73623" lon="-0.35069">
        <ele>1762.7</ele>
        <time>2018-12-27T06:48:14Z</time>
      </trkpt>
      <trkpt lat="42.73625" lon="-0.35064">
        <ele>1762.1</ele>
        <time>2018-12-27T06:48:15Z</time>
      </trkpt>
      <trkpt lat="42.73629" lon="-0.35059">
        <ele>1761.4</ele>
        <time>2018-12-27T06:48:17Z</time>
      </trkpt>
      <trkpt lat="42.73631" lon="-0.35054">
        <ele>1761</ele>
        <time>2018-12-27T06:48:18Z</time>
      </trkpt>
      <trkpt lat="42.73634" lon="-0.35048">
        <ele>1760.6</ele>
        <time>2018-12-27T06:48:19Z</time>
      </trkpt>
      <trkpt lat="42.73637" lon="-0.35041">
        <ele>1760</ele>
        <time>2018-12-27T06:48:21Z</time>
      </trkpt>
      <trkpt lat="42.73639" lon="-0.35035">
        <ele>1759.5</ele>
        <time>2018-12-27T06:48:22Z</time>
      </trkpt>
      <trkpt lat="42.7364" lon="-0.35028">
        <ele>1759.3</ele>
        <time>2018-12-27T06:48:24Z</time>
      </trkpt>
      <trkpt lat="42.73639" lon="-0.35021">
        <ele>1759.2</ele>
        <time>2018-12-27T06:48:25Z</time>
      </trkpt>
      <trkpt lat="42.73636" lon="-0.35015">
        <ele>1758.7</ele>
        <time>2018-12-27T06:48:26Z</time>
      </trkpt>
      <trkpt lat="42.73633" lon="-0.3501">
        <ele>1758.4</ele>
        <time>2018-12-27T06:48:28Z</time>
      </trkpt>
      <trkpt lat="42.73633" lon="-0.35003">
        <ele>1758.1</ele>
        <time>2018-12-27T06:48:29Z</time>
      </trkpt>
      <trkpt lat="42.73633" lon="-0.34997">
        <ele>1757.9</ele>
        <time>2018-12-27T06:48:30Z</time>
      </trkpt>
      <trkpt lat="42.73632" lon="-0.34989">
        <ele>1757.7</ele>
        <time>2018-12-27T06:48:32Z</time>
      </trkpt>
      <trkpt lat="42.73632" lon="-0.34983">
        <ele>1757.2</ele>
        <time>2018-12-27T06:48:33Z</time>
      </trkpt>
      <trkpt lat="42.73632" lon="-0.34976">
        <ele>1756.9</ele>
        <time>2018-12-27T06:48:34Z</time>
      </trkpt>
      <trkpt lat="42.73633" lon="-0.34969">
        <ele>1756.7</ele>
        <time>2018-12-27T06:48:36Z</time>
      </trkpt>
      <trkpt lat="42.73634" lon="-0.34961">
        <ele>1756.5</ele>
        <time>2018-12-27T06:48:37Z</time>
      </trkpt>
      <trkpt lat="42.73634" lon="-0.34954">
        <ele>1756.3</ele>
        <time>2018-12-27T06:48:39Z</time>
      </trkpt>
      <trkpt lat="42.73635" lon="-0.34947">
        <ele>1756.3</ele>
        <time>2018-12-27T06:48:40Z</time>
      </trkpt>
      <trkpt lat="42.73634" lon="-0.34941">
        <ele>1756.8</ele>
        <time>2018-12-27T06:48:41Z</time>
      </trkpt>
      <trkpt lat="42.73631" lon="-0.34933">
        <ele>1756.8</ele>
        <time>2018-12-27T06:48:43Z</time>
      </trkpt>
      <trkpt lat="42.7363" lon="-0.34927">
        <ele>1756.6</ele>
        <time>2018-12-27T06:48:44Z</time>
      </trkpt>
      <trkpt lat="42.73629" lon="-0.34919">
        <ele>1756.5</ele>
        <time>2018-12-27T06:48:46Z</time>
      </trkpt>
      <trkpt lat="42.73628" lon="-0.34913">
        <ele>1756.4</ele>
        <time>2018-12-27T06:48:47Z</time>
      </trkpt>
      <trkpt lat="42.73629" lon="-0.34907">
        <ele>1755.8</ele>
        <time>2018-12-27T06:48:48Z</time>
      </trkpt>
      <trkpt lat="42.7363" lon="-0.349">
        <ele>1755.5</ele>
        <time>2018-12-27T06:48:50Z</time>
      </trkpt>
      <trkpt lat="42.73631" lon="-0.34893">
        <ele>1755</ele>
        <time>2018-12-27T06:48:51Z</time>
      </trkpt>
      <trkpt lat="42.7363" lon="-0.34887">
        <ele>1755.2</ele>
        <time>2018-12-27T06:48:52Z</time>
      </trkpt>
      <trkpt lat="42.73629" lon="-0.34881">
        <ele>1755.1</ele>
        <time>2018-12-27T06:48:54Z</time>
      </trkpt>
      <trkpt lat="42.73632" lon="-0.34877">
        <ele>1755.1</ele>
        <time>2018-12-27T06:48:55Z</time>
      </trkpt>
      <trkpt lat="42.73635" lon="-0.34872">
        <ele>1754.6</ele>
        <time>2018-12-27T06:48:56Z</time>
      </trkpt>
      <trkpt lat="42.73637" lon="-0.34865">
        <ele>1754.5</ele>
        <time>2018-12-27T06:48:58Z</time>
      </trkpt>
      <trkpt lat="42.73639" lon="-0.34858">
        <ele>1754.2</ele>
        <time>2018-12-27T06:48:59Z</time>
      </trkpt>
      <trkpt lat="42.73641" lon="-0.34852">
        <ele>1753.8</ele>
        <time>2018-12-27T06:49:00Z</time>
      </trkpt>
      <trkpt lat="42.73642" lon="-0.34845">
        <ele>1753.4</ele>
        <time>2018-12-27T06:49:02Z</time>
      </trkpt>
      <trkpt lat="42.73643" lon="-0.3484">
        <ele>1753</ele>
        <time>2018-12-27T06:49:03Z</time>
      </trkpt>
      <trkpt lat="42.73645" lon="-0.34833">
        <ele>1752.3</ele>
        <time>2018-12-27T06:49:04Z</time>
      </trkpt>
      <trkpt lat="42.73645" lon="-0.34826">
        <ele>1751.7</ele>
        <time>2018-12-27T06:49:06Z</time>
      </trkpt>
      <trkpt lat="42.73644" lon="-0.3482">
        <ele>1751.3</ele>
        <time>2018-12-27T06:49:07Z</time>
      </trkpt>
      <trkpt lat="42.73645" lon="-0.34812">
        <ele>1751.8</ele>
        <time>2018-12-27T06:49:08Z</time>
      </trkpt>
      <trkpt lat="42.73646" lon="-0.34806">
        <ele>1751.8</ele>
        <time>2018-12-27T06:49:09Z</time>
      </trkpt>
      <trkpt lat="42.73648" lon="-0.348">
        <ele>1751.1</ele>
        <time>2018-12-27T06:49:11Z</time>
      </trkpt>
      <trkpt lat="42.73649" lon="-0.34794">
        <ele>1751.3</ele>
        <time>2018-12-27T06:49:12Z</time>
      </trkpt>
      <trkpt lat="42.7365" lon="-0.34787">
        <ele>1751.2</ele>
        <time>2018-12-27T06:49:13Z</time>
      </trkpt>
      <trkpt lat="42.73652" lon="-0.34781">
        <ele>1751.1</ele>
        <time>2018-12-27T06:49:15Z</time>
      </trkpt>
      <trkpt lat="42.73653" lon="-0.34775">
        <ele>1750.8</ele>
        <time>2018-12-27T06:49:16Z</time>
      </trkpt>
      <trkpt lat="42.73654" lon="-0.34769">
        <ele>1750.4</ele>
        <time>2018-12-27T06:49:17Z</time>
      </trkpt>
      <trkpt lat="42.73657" lon="-0.34763">
        <ele>1749.7</ele>
        <time>2018-12-27T06:49:19Z</time>
      </trkpt>
      <trkpt lat="42.7366" lon="-0.34757">
        <ele>1748.9</ele>
        <time>2018-12-27T06:49:20Z</time>
      </trkpt>
      <trkpt lat="42.73661" lon="-0.34751">
        <ele>1748.5</ele>
        <time>2018-12-27T06:49:21Z</time>
      </trkpt>
      <trkpt lat="42.73662" lon="-0.34745">
        <ele>1747.9</ele>
        <time>2018-12-27T06:49:22Z</time>
      </trkpt>
      <trkpt lat="42.73662" lon="-0.34738">
        <ele>1747.3</ele>
        <time>2018-12-27T06:49:24Z</time>
      </trkpt>
      <trkpt lat="42.73664" lon="-0.34732">
        <ele>1746.7</ele>
        <time>2018-12-27T06:49:25Z</time>
      </trkpt>
      <trkpt lat="42.73665" lon="-0.34724">
        <ele>1746.4</ele>
        <time>2018-12-27T06:49:26Z</time>
      </trkpt>
      <trkpt lat="42.73663" lon="-0.34718">
        <ele>1746.7</ele>
        <time>2018-12-27T06:49:28Z</time>
      </trkpt>
      <trkpt lat="42.73663" lon="-0.34711">
        <ele>1746.6</ele>
        <time>2018-12-27T06:49:29Z</time>
      </trkpt>
      <trkpt lat="42.73665" lon="-0.34705">
        <ele>1746</ele>
        <time>2018-12-27T06:49:31Z</time>
      </trkpt>
      <trkpt lat="42.7366" lon="-0.34706">
        <ele>1746.8</ele>
        <time>2018-12-27T06:49:32Z</time>
      </trkpt>
      <trkpt lat="42.73665" lon="-0.34703">
        <ele>1746.8</ele>
        <time>2018-12-27T06:49:33Z</time>
      </trkpt>
      <trkpt lat="42.7366" lon="-0.34705">
        <ele>1747.7</ele>
        <time>2018-12-27T06:49:35Z</time>
      </trkpt>
      <trkpt lat="42.73656" lon="-0.34702">
        <ele>1748.1</ele>
        <time>2018-12-27T06:49:36Z</time>
      </trkpt>
      <trkpt lat="42.73662" lon="-0.34699">
        <ele>1747</ele>
        <time>2018-12-27T06:49:37Z</time>
      </trkpt>
      <trkpt lat="42.73663" lon="-0.34706">
        <ele>1746.3</ele>
        <time>2018-12-27T06:49:39Z</time>
      </trkpt>
      <trkpt lat="42.73664" lon="-0.34699">
        <ele>1745.5</ele>
        <time>2018-12-27T06:49:40Z</time>
      </trkpt>
      <trkpt lat="42.73665" lon="-0.34693">
        <ele>1744.8</ele>
        <time>2018-12-27T06:49:41Z</time>
      </trkpt>
      <trkpt lat="42.73663" lon="-0.34688">
        <ele>1743.4</ele>
        <time>2018-12-27T06:49:43Z</time>
      </trkpt>
      <trkpt lat="42.73664" lon="-0.34681">
        <ele>1742.7</ele>
        <time>2018-12-27T06:49:44Z</time>
      </trkpt>
      <trkpt lat="42.73665" lon="-0.34675">
        <ele>1741.5</ele>
        <time>2018-12-27T06:49:45Z</time>
      </trkpt>
      <trkpt lat="42.73668" lon="-0.34669">
        <ele>1740.2</ele>
        <time>2018-12-27T06:49:46Z</time>
      </trkpt>
      <trkpt lat="42.73664" lon="-0.34665">
        <ele>1739.2</ele>
        <time>2018-12-27T06:49:48Z</time>
      </trkpt>
      <trkpt lat="42.73665" lon="-0.34658">
        <ele>1738.2</ele>
        <time>2018-12-27T06:49:49Z</time>
      </trkpt>
      <trkpt lat="42.73663" lon="-0.34653">
        <ele>1736.1</ele>
        <time>2018-12-27T06:49:50Z</time>
      </trkpt>
      <trkpt lat="42.73665" lon="-0.34647">
        <ele>1734.9</ele>
        <time>2018-12-27T06:49:51Z</time>
      </trkpt>
      <trkpt lat="42.73666" lon="-0.34641">
        <ele>1733.6</ele>
        <time>2018-12-27T06:49:53Z</time>
      </trkpt>
      <trkpt lat="42.73664" lon="-0.34635">
        <ele>1732.5</ele>
        <time>2018-12-27T06:49:54Z</time>
      </trkpt>
      <trkpt lat="42.73664" lon="-0.34628">
        <ele>1731.3</ele>
        <time>2018-12-27T06:49:55Z</time>
      </trkpt>
      <trkpt lat="42.73664" lon="-0.34622">
        <ele>1730</ele>
        <time>2018-12-27T06:49:56Z</time>
      </trkpt>
      <trkpt lat="42.73666" lon="-0.34616">
        <ele>1729</ele>
        <time>2018-12-27T06:49:58Z</time>
      </trkpt>
      <trkpt lat="42.73669" lon="-0.34611">
        <ele>1728.7</ele>
        <time>2018-12-27T06:49:59Z</time>
      </trkpt>
      <trkpt lat="42.73667" lon="-0.34604">
        <ele>1728.1</ele>
        <time>2018-12-27T06:50:00Z</time>
      </trkpt>
      <trkpt lat="42.73666" lon="-0.34598">
        <ele>1727.1</ele>
        <time>2018-12-27T06:50:02Z</time>
      </trkpt>
      <trkpt lat="42.73666" lon="-0.34591">
        <ele>1725.4</ele>
        <time>2018-12-27T06:50:03Z</time>
      </trkpt>
      <trkpt lat="42.73668" lon="-0.34585">
        <ele>1724.2</ele>
        <time>2018-12-27T06:50:04Z</time>
      </trkpt>
      <trkpt lat="42.73668" lon="-0.34578">
        <ele>1723.6</ele>
        <time>2018-12-27T06:50:06Z</time>
      </trkpt>
      <trkpt lat="42.73666" lon="-0.34572">
        <ele>1722.6</ele>
        <time>2018-12-27T06:50:07Z</time>
      </trkpt>
      <trkpt lat="42.73666" lon="-0.34565">
        <ele>1721.6</ele>
        <time>2018-12-27T06:50:08Z</time>
      </trkpt>
      <trkpt lat="42.73669" lon="-0.34559">
        <ele>1720.1</ele>
        <time>2018-12-27T06:50:10Z</time>
      </trkpt>
      <trkpt lat="42.73669" lon="-0.34553">
        <ele>1719.5</ele>
        <time>2018-12-27T06:50:11Z</time>
      </trkpt>
      <trkpt lat="42.73671" lon="-0.34546">
        <ele>1718.2</ele>
        <time>2018-12-27T06:50:12Z</time>
      </trkpt>
      <trkpt lat="42.73669" lon="-0.3454">
        <ele>1716.4</ele>
        <time>2018-12-27T06:50:14Z</time>
      </trkpt>
      <trkpt lat="42.7367" lon="-0.34533">
        <ele>1714.8</ele>
        <time>2018-12-27T06:50:15Z</time>
      </trkpt>
      <trkpt lat="42.7367" lon="-0.34527">
        <ele>1712.9</ele>
        <time>2018-12-27T06:50:16Z</time>
      </trkpt>
      <trkpt lat="42.73673" lon="-0.34522">
        <ele>1711.4</ele>
        <time>2018-12-27T06:50:17Z</time>
      </trkpt>
      <trkpt lat="42.73674" lon="-0.34515">
        <ele>1710.2</ele>
        <time>2018-12-27T06:50:19Z</time>
      </trkpt>
      <trkpt lat="42.73676" lon="-0.3451">
        <ele>1709.5</ele>
        <time>2018-12-27T06:50:20Z</time>
      </trkpt>
      <trkpt lat="42.73681" lon="-0.34509">
        <ele>1708.7</ele>
        <time>2018-12-27T06:50:21Z</time>
      </trkpt>
      <trkpt lat="42.73685" lon="-0.34507">
        <ele>1707.7</ele>
        <time>2018-12-27T06:50:22Z</time>
      </trkpt>
      <trkpt lat="42.73688" lon="-0.34502">
        <ele>1705.9</ele>
        <time>2018-12-27T06:50:24Z</time>
      </trkpt>
      <trkpt lat="42.73686" lon="-0.34496">
        <ele>1705</ele>
        <time>2018-12-27T06:50:25Z</time>
      </trkpt>
      <trkpt lat="42.73689" lon="-0.34491">
        <ele>1704.2</ele>
        <time>2018-12-27T06:50:26Z</time>
      </trkpt>
      <trkpt lat="42.73692" lon="-0.34486">
        <ele>1703.3</ele>
        <time>2018-12-27T06:50:27Z</time>
      </trkpt>
      <trkpt lat="42.73692" lon="-0.34479">
        <ele>1702.2</ele>
        <time>2018-12-27T06:50:29Z</time>
      </trkpt>
      <trkpt lat="42.73692" lon="-0.34473">
        <ele>1699.9</ele>
        <time>2018-12-27T06:50:30Z</time>
      </trkpt>
      <trkpt lat="42.73692" lon="-0.34467">
        <ele>1698.9</ele>
        <time>2018-12-27T06:50:31Z</time>
      </trkpt>
      <trkpt lat="42.73691" lon="-0.3446">
        <ele>1697.7</ele>
        <time>2018-12-27T06:50:32Z</time>
      </trkpt>
      <trkpt lat="42.73693" lon="-0.34453">
        <ele>1696.8</ele>
        <time>2018-12-27T06:50:34Z</time>
      </trkpt>
      <trkpt lat="42.73695" lon="-0.34447">
        <ele>1695.7</ele>
        <time>2018-12-27T06:50:35Z</time>
      </trkpt>
      <trkpt lat="42.73696" lon="-0.34441">
        <ele>1695</ele>
        <time>2018-12-27T06:50:36Z</time>
      </trkpt>
      <trkpt lat="42.73699" lon="-0.34435">
        <ele>1694</ele>
        <time>2018-12-27T06:50:38Z</time>
      </trkpt>
      <trkpt lat="42.73701" lon="-0.34429">
        <ele>1693</ele>
        <time>2018-12-27T06:50:39Z</time>
      </trkpt>
      <trkpt lat="42.73705" lon="-0.34425">
        <ele>1691.9</ele>
        <time>2018-12-27T06:50:40Z</time>
      </trkpt>
      <trkpt lat="42.73706" lon="-0.34419">
        <ele>1690.3</ele>
        <time>2018-12-27T06:50:42Z</time>
      </trkpt>
      <trkpt lat="42.73706" lon="-0.34413">
        <ele>1687.8</ele>
        <time>2018-12-27T06:50:43Z</time>
      </trkpt>
      <trkpt lat="42.73708" lon="-0.34407">
        <ele>1686</ele>
        <time>2018-12-27T06:50:44Z</time>
      </trkpt>
      <trkpt lat="42.73711" lon="-0.34402">
        <ele>1684.4</ele>
        <time>2018-12-27T06:50:45Z</time>
      </trkpt>
      <trkpt lat="42.7371" lon="-0.34396">
        <ele>1682.8</ele>
        <time>2018-12-27T06:50:46Z</time>
      </trkpt>
      <trkpt lat="42.73713" lon="-0.34391">
        <ele>1681.1</ele>
        <time>2018-12-27T06:50:48Z</time>
      </trkpt>
      <trkpt lat="42.73715" lon="-0.34385">
        <ele>1680</ele>
        <time>2018-12-27T06:50:49Z</time>
      </trkpt>
      <trkpt lat="42.73713" lon="-0.34379">
        <ele>1678</ele>
        <time>2018-12-27T06:50:50Z</time>
      </trkpt>
      <trkpt lat="42.73714" lon="-0.34373">
        <ele>1677.1</ele>
        <time>2018-12-27T06:50:51Z</time>
      </trkpt>
      <trkpt lat="42.73713" lon="-0.34367">
        <ele>1676.3</ele>
        <time>2018-12-27T06:50:53Z</time>
      </trkpt>
      <trkpt lat="42.7371" lon="-0.34362">
        <ele>1673.6</ele>
        <time>2018-12-27T06:50:54Z</time>
      </trkpt>
      <trkpt lat="42.73708" lon="-0.34356">
        <ele>1672.9</ele>
        <time>2018-12-27T06:50:55Z</time>
      </trkpt>
      <trkpt lat="42.73705" lon="-0.3435">
        <ele>1672.9</ele>
        <time>2018-12-27T06:50:57Z</time>
      </trkpt>
      <trkpt lat="42.737" lon="-0.34352">
        <ele>1672.1</ele>
        <time>2018-12-27T06:50:58Z</time>
      </trkpt>
      <trkpt lat="42.73696" lon="-0.34354">
        <ele>1672.4</ele>
        <time>2018-12-27T06:50:59Z</time>
      </trkpt>
      <trkpt lat="42.73699" lon="-0.34349">
        <ele>1671.9</ele>
        <time>2018-12-27T06:51:01Z</time>
      </trkpt>
      <trkpt lat="42.737" lon="-0.34342">
        <ele>1672.8</ele>
        <time>2018-12-27T06:51:02Z</time>
      </trkpt>
      <trkpt lat="42.73698" lon="-0.34337">
        <ele>1672.3</ele>
        <time>2018-12-27T06:51:03Z</time>
      </trkpt>
      <trkpt lat="42.737" lon="-0.34331">
        <ele>1670.7</ele>
        <time>2018-12-27T06:51:04Z</time>
      </trkpt>
      <trkpt lat="42.73705" lon="-0.34329">
        <ele>1669.2</ele>
        <time>2018-12-27T06:51:06Z</time>
      </trkpt>
      <trkpt lat="42.73703" lon="-0.34322">
        <ele>1668.4</ele>
        <time>2018-12-27T06:51:07Z</time>
      </trkpt>
      <trkpt lat="42.73706" lon="-0.34317">
        <ele>1668.1</ele>
        <time>2018-12-27T06:51:08Z</time>
      </trkpt>
      <trkpt lat="42.73706" lon="-0.34311">
        <ele>1667.3</ele>
        <time>2018-12-27T06:51:10Z</time>
      </trkpt>
      <trkpt lat="42.73703" lon="-0.34305">
        <ele>1665.2</ele>
        <time>2018-12-27T06:51:11Z</time>
      </trkpt>
      <trkpt lat="42.73701" lon="-0.343">
        <ele>1664</ele>
        <time>2018-12-27T06:51:12Z</time>
      </trkpt>
      <trkpt lat="42.73696" lon="-0.34296">
        <ele>1664.3</ele>
        <time>2018-12-27T06:51:13Z</time>
      </trkpt>
      <trkpt lat="42.73692" lon="-0.34293">
        <ele>1664.7</ele>
        <time>2018-12-27T06:51:15Z</time>
      </trkpt>
      <trkpt lat="42.73688" lon="-0.34292">
        <ele>1666.1</ele>
        <time>2018-12-27T06:51:16Z</time>
      </trkpt>
      <trkpt lat="42.73684" lon="-0.34287">
        <ele>1667.6</ele>
        <time>2018-12-27T06:51:17Z</time>
      </trkpt>
      <trkpt lat="42.73681" lon="-0.34283">
        <ele>1668.2</ele>
        <time>2018-12-27T06:51:18Z</time>
      </trkpt>
      <trkpt lat="42.73679" lon="-0.34276">
        <ele>1666.6</ele>
        <time>2018-12-27T06:51:20Z</time>
      </trkpt>
      <trkpt lat="42.73683" lon="-0.34271">
        <ele>1664.2</ele>
        <time>2018-12-27T06:51:21Z</time>
      </trkpt>
      <trkpt lat="42.73686" lon="-0.34266">
        <ele>1663.3</ele>
        <time>2018-12-27T06:51:22Z</time>
      </trkpt>
      <trkpt lat="42.73688" lon="-0.34261">
        <ele>1660.5</ele>
        <time>2018-12-27T06:51:24Z</time>
      </trkpt>
      <trkpt lat="42.73693" lon="-0.34261">
        <ele>1659.8</ele>
        <time>2018-12-27T06:51:25Z</time>
      </trkpt>
      <trkpt lat="42.73694" lon="-0.34255">
        <ele>1659.2</ele>
        <time>2018-12-27T06:51:26Z</time>
      </trkpt>
      <trkpt lat="42.73696" lon="-0.34249">
        <ele>1657.7</ele>
        <time>2018-12-27T06:51:27Z</time>
      </trkpt>
      <trkpt lat="42.73698" lon="-0.34243">
        <ele>1656</ele>
        <time>2018-12-27T06:51:29Z</time>
      </trkpt>
      <trkpt lat="42.73699" lon="-0.34237">
        <ele>1654.4</ele>
        <time>2018-12-27T06:51:30Z</time>
      </trkpt>
      <trkpt lat="42.73702" lon="-0.34231">
        <ele>1653.8</ele>
        <time>2018-12-27T06:51:31Z</time>
      </trkpt>
      <trkpt lat="42.73703" lon="-0.34225">
        <ele>1653</ele>
        <time>2018-12-27T06:51:33Z</time>
      </trkpt>
      <trkpt lat="42.73706" lon="-0.3422">
        <ele>1652</ele>
        <time>2018-12-27T06:51:34Z</time>
      </trkpt>
      <trkpt lat="42.7371" lon="-0.34216">
        <ele>1650.6</ele>
        <time>2018-12-27T06:51:35Z</time>
      </trkpt>
      <trkpt lat="42.73714" lon="-0.34212">
        <ele>1649.4</ele>
        <time>2018-12-27T06:51:36Z</time>
      </trkpt>
      <trkpt lat="42.73715" lon="-0.34206">
        <ele>1647.8</ele>
        <time>2018-12-27T06:51:38Z</time>
      </trkpt>
      <trkpt lat="42.7372" lon="-0.34204">
        <ele>1646.7</ele>
        <time>2018-12-27T06:51:39Z</time>
      </trkpt>
      <trkpt lat="42.73725" lon="-0.34203">
        <ele>1645.4</ele>
        <time>2018-12-27T06:51:40Z</time>
      </trkpt>
      <trkpt lat="42.73729" lon="-0.34201">
        <ele>1644.2</ele>
        <time>2018-12-27T06:51:41Z</time>
      </trkpt>
      <trkpt lat="42.73732" lon="-0.34196">
        <ele>1643</ele>
        <time>2018-12-27T06:51:43Z</time>
      </trkpt>
      <trkpt lat="42.73735" lon="-0.34191">
        <ele>1641</ele>
        <time>2018-12-27T06:51:44Z</time>
      </trkpt>
      <trkpt lat="42.73738" lon="-0.34187">
        <ele>1639.9</ele>
        <time>2018-12-27T06:51:45Z</time>
      </trkpt>
      <trkpt lat="42.73743" lon="-0.34184">
        <ele>1638.3</ele>
        <time>2018-12-27T06:51:47Z</time>
      </trkpt>
      <trkpt lat="42.73745" lon="-0.34179">
        <ele>1636.7</ele>
        <time>2018-12-27T06:51:48Z</time>
      </trkpt>
      <trkpt lat="42.73747" lon="-0.34173">
        <ele>1635.5</ele>
        <time>2018-12-27T06:51:49Z</time>
      </trkpt>
      <trkpt lat="42.73749" lon="-0.34167">
        <ele>1634.7</ele>
        <time>2018-12-27T06:51:50Z</time>
      </trkpt>
      <trkpt lat="42.73748" lon="-0.34161">
        <ele>1632.3</ele>
        <time>2018-12-27T06:51:52Z</time>
      </trkpt>
      <trkpt lat="42.73746" lon="-0.34155">
        <ele>1630.1</ele>
        <time>2018-12-27T06:51:53Z</time>
      </trkpt>
      <trkpt lat="42.73745" lon="-0.34149">
        <ele>1627.8</ele>
        <time>2018-12-27T06:51:54Z</time>
      </trkpt>
      <trkpt lat="42.73743" lon="-0.34144">
        <ele>1626.2</ele>
        <time>2018-12-27T06:51:55Z</time>
      </trkpt>
      <trkpt lat="42.73745" lon="-0.34138">
        <ele>1625</ele>
        <time>2018-12-27T06:51:56Z</time>
      </trkpt>
      <trkpt lat="42.73748" lon="-0.34132">
        <ele>1624</ele>
        <time>2018-12-27T06:51:58Z</time>
      </trkpt>
      <trkpt lat="42.73751" lon="-0.34126">
        <ele>1623.4</ele>
        <time>2018-12-27T06:51:59Z</time>
      </trkpt>
      <trkpt lat="42.73751" lon="-0.3412">
        <ele>1622.1</ele>
        <time>2018-12-27T06:52:00Z</time>
      </trkpt>
      <trkpt lat="42.73753" lon="-0.34115">
        <ele>1621</ele>
        <time>2018-12-27T06:52:02Z</time>
      </trkpt>
      <trkpt lat="42.73755" lon="-0.34109">
        <ele>1619.6</ele>
        <time>2018-12-27T06:52:03Z</time>
      </trkpt>
      <trkpt lat="42.73756" lon="-0.34103">
        <ele>1618.8</ele>
        <time>2018-12-27T06:52:04Z</time>
      </trkpt>
      <trkpt lat="42.73753" lon="-0.34098">
        <ele>1617.4</ele>
        <time>2018-12-27T06:52:05Z</time>
      </trkpt>
      <trkpt lat="42.73753" lon="-0.34092">
        <ele>1616.3</ele>
        <time>2018-12-27T06:52:06Z</time>
      </trkpt>
      <trkpt lat="42.7375" lon="-0.34087">
        <ele>1615.7</ele>
        <time>2018-12-27T06:52:08Z</time>
      </trkpt>
      <trkpt lat="42.73752" lon="-0.34082">
        <ele>1614.7</ele>
        <time>2018-12-27T06:52:09Z</time>
      </trkpt>
      <trkpt lat="42.73754" lon="-0.34075">
        <ele>1613.8</ele>
        <time>2018-12-27T06:52:10Z</time>
      </trkpt>
      <trkpt lat="42.73754" lon="-0.34069">
        <ele>1612.6</ele>
        <time>2018-12-27T06:52:12Z</time>
      </trkpt>
      <trkpt lat="42.73757" lon="-0.34063">
        <ele>1611.7</ele>
        <time>2018-12-27T06:52:13Z</time>
      </trkpt>
      <trkpt lat="42.73756" lon="-0.34056">
        <ele>1610.2</ele>
        <time>2018-12-27T06:52:14Z</time>
      </trkpt>
      <trkpt lat="42.73757" lon="-0.34048">
        <ele>1609.3</ele>
        <time>2018-12-27T06:52:16Z</time>
      </trkpt>
      <trkpt lat="42.73755" lon="-0.34043">
        <ele>1608.7</ele>
        <time>2018-12-27T06:52:17Z</time>
      </trkpt>
      <trkpt lat="42.73755" lon="-0.34036">
        <ele>1607.7</ele>
        <time>2018-12-27T06:52:18Z</time>
      </trkpt>
      <trkpt lat="42.73757" lon="-0.34031">
        <ele>1605.9</ele>
        <time>2018-12-27T06:52:20Z</time>
      </trkpt>
      <trkpt lat="42.73759" lon="-0.34025">
        <ele>1604.4</ele>
        <time>2018-12-27T06:52:21Z</time>
      </trkpt>
      <trkpt lat="42.73763" lon="-0.34023">
        <ele>1602.6</ele>
        <time>2018-12-27T06:52:22Z</time>
      </trkpt>
      <trkpt lat="42.73767" lon="-0.34018">
        <ele>1600.6</ele>
        <time>2018-12-27T06:52:24Z</time>
      </trkpt>
      <trkpt lat="42.73765" lon="-0.34013">
        <ele>1599.9</ele>
        <time>2018-12-27T06:52:25Z</time>
      </trkpt>
      <trkpt lat="42.7376" lon="-0.34011">
        <ele>1598.9</ele>
        <time>2018-12-27T06:52:26Z</time>
      </trkpt>
      <trkpt lat="42.73756" lon="-0.34007">
        <ele>1597.2</ele>
        <time>2018-12-27T06:52:28Z</time>
      </trkpt>
      <trkpt lat="42.73751" lon="-0.34005">
        <ele>1596.3</ele>
        <time>2018-12-27T06:52:29Z</time>
      </trkpt>
      <trkpt lat="42.73754" lon="-0.33999">
        <ele>1594.2</ele>
        <time>2018-12-27T06:52:30Z</time>
      </trkpt>
      <trkpt lat="42.73756" lon="-0.33993">
        <ele>1593.4</ele>
        <time>2018-12-27T06:52:31Z</time>
      </trkpt>
      <trkpt lat="42.73759" lon="-0.33988">
        <ele>1592.9</ele>
        <time>2018-12-27T06:52:33Z</time>
      </trkpt>
      <trkpt lat="42.73761" lon="-0.33982">
        <ele>1591.7</ele>
        <time>2018-12-27T06:52:34Z</time>
      </trkpt>
      <trkpt lat="42.73763" lon="-0.33977">
        <ele>1590.5</ele>
        <time>2018-12-27T06:52:35Z</time>
      </trkpt>
      <trkpt lat="42.73766" lon="-0.33972">
        <ele>1589.3</ele>
        <time>2018-12-27T06:52:36Z</time>
      </trkpt>
      <trkpt lat="42.73768" lon="-0.33966">
        <ele>1588.5</ele>
        <time>2018-12-27T06:52:38Z</time>
      </trkpt>
      <trkpt lat="42.73771" lon="-0.33961">
        <ele>1587.2</ele>
        <time>2018-12-27T06:52:39Z</time>
      </trkpt>
      <trkpt lat="42.73776" lon="-0.33958">
        <ele>1586.8</ele>
        <time>2018-12-27T06:52:40Z</time>
      </trkpt>
      <trkpt lat="42.73775" lon="-0.33952">
        <ele>1586.1</ele>
        <time>2018-12-27T06:52:42Z</time>
      </trkpt>
      <trkpt lat="42.73775" lon="-0.33946">
        <ele>1585.2</ele>
        <time>2018-12-27T06:52:43Z</time>
      </trkpt>
      <trkpt lat="42.73774" lon="-0.3394">
        <ele>1583.6</ele>
        <time>2018-12-27T06:52:44Z</time>
      </trkpt>
      <trkpt lat="42.73775" lon="-0.33934">
        <ele>1581.7</ele>
        <time>2018-12-27T06:52:45Z</time>
      </trkpt>
      <trkpt lat="42.73772" lon="-0.33929">
        <ele>1580.6</ele>
        <time>2018-12-27T06:52:47Z</time>
      </trkpt>
      <trkpt lat="42.73768" lon="-0.33924">
        <ele>1579.5</ele>
        <time>2018-12-27T06:52:48Z</time>
      </trkpt>
      <trkpt lat="42.73766" lon="-0.33918">
        <ele>1579.1</ele>
        <time>2018-12-27T06:52:49Z</time>
      </trkpt>
      <trkpt lat="42.73765" lon="-0.33911">
        <ele>1578.1</ele>
        <time>2018-12-27T06:52:51Z</time>
      </trkpt>
      <trkpt lat="42.73762" lon="-0.33906">
        <ele>1576.3</ele>
        <time>2018-12-27T06:52:52Z</time>
      </trkpt>
      <trkpt lat="42.73759" lon="-0.33901">
        <ele>1576</ele>
        <time>2018-12-27T06:52:53Z</time>
      </trkpt>
      <trkpt lat="42.73761" lon="-0.33896">
        <ele>1576.1</ele>
        <time>2018-12-27T06:52:54Z</time>
      </trkpt>
      <trkpt lat="42.73764" lon="-0.33891">
        <ele>1575.1</ele>
        <time>2018-12-27T06:52:55Z</time>
      </trkpt>
      <trkpt lat="42.73764" lon="-0.33884">
        <ele>1573.4</ele>
        <time>2018-12-27T06:52:57Z</time>
      </trkpt>
      <trkpt lat="42.73761" lon="-0.33879">
        <ele>1572.4</ele>
        <time>2018-12-27T06:52:58Z</time>
      </trkpt>
      <trkpt lat="42.73761" lon="-0.33872">
        <ele>1571.1</ele>
        <time>2018-12-27T06:52:59Z</time>
      </trkpt>
      <trkpt lat="42.73759" lon="-0.33866">
        <ele>1571.1</ele>
        <time>2018-12-27T06:53:01Z</time>
      </trkpt>
      <trkpt lat="42.7376" lon="-0.3386">
        <ele>1571.3</ele>
        <time>2018-12-27T06:53:02Z</time>
      </trkpt>
      <trkpt lat="42.73759" lon="-0.33854">
        <ele>1571.5</ele>
        <time>2018-12-27T06:53:03Z</time>
      </trkpt>
      <trkpt lat="42.73758" lon="-0.33848">
        <ele>1571.9</ele>
        <time>2018-12-27T06:53:04Z</time>
      </trkpt>
      <trkpt lat="42.7376" lon="-0.33841">
        <ele>1572.2</ele>
        <time>2018-12-27T06:53:06Z</time>
      </trkpt>
      <trkpt lat="42.73761" lon="-0.33835">
        <ele>1572.1</ele>
        <time>2018-12-27T06:53:07Z</time>
      </trkpt>
      <trkpt lat="42.73763" lon="-0.33828">
        <ele>1571.9</ele>
        <time>2018-12-27T06:53:08Z</time>
      </trkpt>
      <trkpt lat="42.73763" lon="-0.33821">
        <ele>1571.4</ele>
        <time>2018-12-27T06:53:10Z</time>
      </trkpt>
      <trkpt lat="42.73761" lon="-0.33815">
        <ele>1571.3</ele>
        <time>2018-12-27T06:53:11Z</time>
      </trkpt>
      <trkpt lat="42.73759" lon="-0.33809">
        <ele>1570.8</ele>
        <time>2018-12-27T06:53:12Z</time>
      </trkpt>
      <trkpt lat="42.73757" lon="-0.33803">
        <ele>1570.7</ele>
        <time>2018-12-27T06:53:14Z</time>
      </trkpt>
      <trkpt lat="42.73756" lon="-0.33797">
        <ele>1570.3</ele>
        <time>2018-12-27T06:53:15Z</time>
      </trkpt>
      <trkpt lat="42.73756" lon="-0.33791">
        <ele>1569.6</ele>
        <time>2018-12-27T06:53:16Z</time>
      </trkpt>
      <trkpt lat="42.73757" lon="-0.33784">
        <ele>1568.8</ele>
        <time>2018-12-27T06:53:17Z</time>
      </trkpt>
      <trkpt lat="42.73754" lon="-0.33779">
        <ele>1568.6</ele>
        <time>2018-12-27T06:53:18Z</time>
      </trkpt>
      <trkpt lat="42.73751" lon="-0.33773">
        <ele>1568.7</ele>
        <time>2018-12-27T06:53:20Z</time>
      </trkpt>
      <trkpt lat="42.7375" lon="-0.33767">
        <ele>1568.3</ele>
        <time>2018-12-27T06:53:21Z</time>
      </trkpt>
      <trkpt lat="42.7375" lon="-0.33761">
        <ele>1568.5</ele>
        <time>2018-12-27T06:53:22Z</time>
      </trkpt>
      <trkpt lat="42.73749" lon="-0.33754">
        <ele>1568.5</ele>
        <time>2018-12-27T06:53:24Z</time>
      </trkpt>
      <trkpt lat="42.73748" lon="-0.33747">
        <ele>1568.5</ele>
        <time>2018-12-27T06:53:25Z</time>
      </trkpt>
      <trkpt lat="42.73746" lon="-0.33741">
        <ele>1567.7</ele>
        <time>2018-12-27T06:53:26Z</time>
      </trkpt>
      <trkpt lat="42.73743" lon="-0.33736">
        <ele>1566.2</ele>
        <time>2018-12-27T06:53:28Z</time>
      </trkpt>
      <trkpt lat="42.7374" lon="-0.33731">
        <ele>1564</ele>
        <time>2018-12-27T06:53:29Z</time>
      </trkpt>
      <trkpt lat="42.73736" lon="-0.33728">
        <ele>1563.1</ele>
        <time>2018-12-27T06:53:30Z</time>
      </trkpt>
      <trkpt lat="42.73731" lon="-0.33728">
        <ele>1562.3</ele>
        <time>2018-12-27T06:53:32Z</time>
      </trkpt>
      <trkpt lat="42.73727" lon="-0.33725">
        <ele>1561.3</ele>
        <time>2018-12-27T06:53:33Z</time>
      </trkpt>
      <trkpt lat="42.73722" lon="-0.33727">
        <ele>1560.4</ele>
        <time>2018-12-27T06:53:34Z</time>
      </trkpt>
      <trkpt lat="42.73717" lon="-0.33728">
        <ele>1559</ele>
        <time>2018-12-27T06:53:35Z</time>
      </trkpt>
      <trkpt lat="42.73712" lon="-0.33726">
        <ele>1556.8</ele>
        <time>2018-12-27T06:53:37Z</time>
      </trkpt>
      <trkpt lat="42.73708" lon="-0.33726">
        <ele>1556</ele>
        <time>2018-12-27T06:53:38Z</time>
      </trkpt>
      <trkpt lat="42.73703" lon="-0.33724">
        <ele>1554.8</ele>
        <time>2018-12-27T06:53:39Z</time>
      </trkpt>
      <trkpt lat="42.73699" lon="-0.33722">
        <ele>1554.5</ele>
        <time>2018-12-27T06:53:41Z</time>
      </trkpt>
      <trkpt lat="42.73694" lon="-0.33722">
        <ele>1554.1</ele>
        <time>2018-12-27T06:53:42Z</time>
      </trkpt>
      <trkpt lat="42.73689" lon="-0.33719">
        <ele>1554</ele>
        <time>2018-12-27T06:53:43Z</time>
      </trkpt>
      <trkpt lat="42.73685" lon="-0.33718">
        <ele>1553.9</ele>
        <time>2018-12-27T06:53:44Z</time>
      </trkpt>
      <trkpt lat="42.7368" lon="-0.33718">
        <ele>1553.6</ele>
        <time>2018-12-27T06:53:46Z</time>
      </trkpt>
      <trkpt lat="42.73676" lon="-0.33721">
        <ele>1554</ele>
        <time>2018-12-27T06:53:47Z</time>
      </trkpt>
      <trkpt lat="42.73671" lon="-0.33723">
        <ele>1554.1</ele>
        <time>2018-12-27T06:53:48Z</time>
      </trkpt>
      <trkpt lat="42.73665" lon="-0.33723">
        <ele>1553.1</ele>
        <time>2018-12-27T06:53:50Z</time>
      </trkpt>
      <trkpt lat="42.73659" lon="-0.33721">
        <ele>1553</ele>
        <time>2018-12-27T06:53:51Z</time>
      </trkpt>
      <trkpt lat="42.73655" lon="-0.33726">
        <ele>1553.1</ele>
        <time>2018-12-27T06:53:53Z</time>
      </trkpt>
      <trkpt lat="42.7365" lon="-0.33726">
        <ele>1552.5</ele>
        <time>2018-12-27T06:53:54Z</time>
      </trkpt>
      <trkpt lat="42.73645" lon="-0.33725">
        <ele>1552.3</ele>
        <time>2018-12-27T06:53:56Z</time>
      </trkpt>
      <trkpt lat="42.7364" lon="-0.33724">
        <ele>1552.2</ele>
        <time>2018-12-27T06:53:57Z</time>
      </trkpt>
      <trkpt lat="42.73636" lon="-0.33726">
        <ele>1552</ele>
        <time>2018-12-27T06:53:58Z</time>
      </trkpt>
      <trkpt lat="42.73631" lon="-0.33727">
        <ele>1551.7</ele>
        <time>2018-12-27T06:53:59Z</time>
      </trkpt>
      <trkpt lat="42.73627" lon="-0.33731">
        <ele>1551.6</ele>
        <time>2018-12-27T06:54:01Z</time>
      </trkpt>
      <trkpt lat="42.73624" lon="-0.33736">
        <ele>1551.5</ele>
        <time>2018-12-27T06:54:02Z</time>
      </trkpt>
      <trkpt lat="42.73619" lon="-0.33739">
        <ele>1551.7</ele>
        <time>2018-12-27T06:54:03Z</time>
      </trkpt>
      <trkpt lat="42.73616" lon="-0.33743">
        <ele>1551.9</ele>
        <time>2018-12-27T06:54:05Z</time>
      </trkpt>
      <trkpt lat="42.73612" lon="-0.33745">
        <ele>1551.4</ele>
        <time>2018-12-27T06:54:06Z</time>
      </trkpt>
      <trkpt lat="42.73606" lon="-0.33746">
        <ele>1550.5</ele>
        <time>2018-12-27T06:54:07Z</time>
      </trkpt>
      <trkpt lat="42.73602" lon="-0.33745">
        <ele>1549.9</ele>
        <time>2018-12-27T06:54:09Z</time>
      </trkpt>
      <trkpt lat="42.73598" lon="-0.33739">
        <ele>1549.7</ele>
        <time>2018-12-27T06:54:10Z</time>
      </trkpt>
      <trkpt lat="42.73597" lon="-0.33734">
        <ele>1549.8</ele>
        <time>2018-12-27T06:54:11Z</time>
      </trkpt>
      <trkpt lat="42.73594" lon="-0.33728">
        <ele>1550.2</ele>
        <time>2018-12-27T06:54:12Z</time>
      </trkpt>
      <trkpt lat="42.73592" lon="-0.33721">
        <ele>1551.2</ele>
        <time>2018-12-27T06:54:14Z</time>
      </trkpt>
      <trkpt lat="42.73592" lon="-0.33715">
        <ele>1550.8</ele>
        <time>2018-12-27T06:54:15Z</time>
      </trkpt>
      <trkpt lat="42.73589" lon="-0.3371">
        <ele>1549.9</ele>
        <time>2018-12-27T06:54:16Z</time>
      </trkpt>
      <trkpt lat="42.73589" lon="-0.33704">
        <ele>1549.9</ele>
        <time>2018-12-27T06:54:18Z</time>
      </trkpt>
      <trkpt lat="42.73588" lon="-0.33697">
        <ele>1549.7</ele>
        <time>2018-12-27T06:54:19Z</time>
      </trkpt>
      <trkpt lat="42.73586" lon="-0.33691">
        <ele>1549.4</ele>
        <time>2018-12-27T06:54:20Z</time>
      </trkpt>
      <trkpt lat="42.73584" lon="-0.33686">
        <ele>1549.3</ele>
        <time>2018-12-27T06:54:21Z</time>
      </trkpt>
      <trkpt lat="42.73582" lon="-0.3368">
        <ele>1548.7</ele>
        <time>2018-12-27T06:54:23Z</time>
      </trkpt>
      <trkpt lat="42.73582" lon="-0.33674">
        <ele>1547.7</ele>
        <time>2018-12-27T06:54:24Z</time>
      </trkpt>
      <trkpt lat="42.7358" lon="-0.33669">
        <ele>1547.6</ele>
        <time>2018-12-27T06:54:25Z</time>
      </trkpt>
      <trkpt lat="42.73581" lon="-0.33662">
        <ele>1547.5</ele>
        <time>2018-12-27T06:54:26Z</time>
      </trkpt>
      <trkpt lat="42.73582" lon="-0.33656">
        <ele>1545.8</ele>
        <time>2018-12-27T06:54:28Z</time>
      </trkpt>
      <trkpt lat="42.73586" lon="-0.33652">
        <ele>1544.3</ele>
        <time>2018-12-27T06:54:29Z</time>
      </trkpt>
      <trkpt lat="42.73585" lon="-0.33645">
        <ele>1543.6</ele>
        <time>2018-12-27T06:54:30Z</time>
      </trkpt>
      <trkpt lat="42.73588" lon="-0.3364">
        <ele>1543</ele>
        <time>2018-12-27T06:54:32Z</time>
      </trkpt>
      <trkpt lat="42.7359" lon="-0.33634">
        <ele>1542.4</ele>
        <time>2018-12-27T06:54:33Z</time>
      </trkpt>
      <trkpt lat="42.73591" lon="-0.33628">
        <ele>1541.8</ele>
        <time>2018-12-27T06:54:34Z</time>
      </trkpt>
      <trkpt lat="42.73591" lon="-0.33621">
        <ele>1540.9</ele>
        <time>2018-12-27T06:54:36Z</time>
      </trkpt>
      <trkpt lat="42.73592" lon="-0.33614">
        <ele>1540</ele>
        <time>2018-12-27T06:54:37Z</time>
      </trkpt>
      <trkpt lat="42.73591" lon="-0.33608">
        <ele>1539.3</ele>
        <time>2018-12-27T06:54:38Z</time>
      </trkpt>
      <trkpt lat="42.73592" lon="-0.33601">
        <ele>1538.8</ele>
        <time>2018-12-27T06:54:39Z</time>
      </trkpt>
      <trkpt lat="42.73593" lon="-0.33595">
        <ele>1538.5</ele>
        <time>2018-12-27T06:54:41Z</time>
      </trkpt>
      <trkpt lat="42.73596" lon="-0.3359">
        <ele>1537.9</ele>
        <time>2018-12-27T06:54:42Z</time>
      </trkpt>
      <trkpt lat="42.73596" lon="-0.33583">
        <ele>1537.4</ele>
        <time>2018-12-27T06:54:43Z</time>
      </trkpt>
      <trkpt lat="42.73595" lon="-0.33576">
        <ele>1536.9</ele>
        <time>2018-12-27T06:54:45Z</time>
      </trkpt>
      <trkpt lat="42.73597" lon="-0.33571">
        <ele>1535.5</ele>
        <time>2018-12-27T06:54:46Z</time>
      </trkpt>
      <trkpt lat="42.736" lon="-0.33565">
        <ele>1534.7</ele>
        <time>2018-12-27T06:54:47Z</time>
      </trkpt>
      <trkpt lat="42.73598" lon="-0.3356">
        <ele>1534.5</ele>
        <time>2018-12-27T06:54:48Z</time>
      </trkpt>
      <trkpt lat="42.736" lon="-0.33553">
        <ele>1533.7</ele>
        <time>2018-12-27T06:54:50Z</time>
      </trkpt>
      <trkpt lat="42.736" lon="-0.33546">
        <ele>1533.3</ele>
        <time>2018-12-27T06:54:51Z</time>
      </trkpt>
      <trkpt lat="42.73601" lon="-0.3354">
        <ele>1533</ele>
        <time>2018-12-27T06:54:52Z</time>
      </trkpt>
      <trkpt lat="42.73603" lon="-0.33533">
        <ele>1532.7</ele>
        <time>2018-12-27T06:54:54Z</time>
      </trkpt>
      <trkpt lat="42.73604" lon="-0.33527">
        <ele>1531.5</ele>
        <time>2018-12-27T06:54:55Z</time>
      </trkpt>
      <trkpt lat="42.73604" lon="-0.3352">
        <ele>1530.6</ele>
        <time>2018-12-27T06:54:56Z</time>
      </trkpt>
      <trkpt lat="42.73603" lon="-0.33514">
        <ele>1529.3</ele>
        <time>2018-12-27T06:54:58Z</time>
      </trkpt>
      <trkpt lat="42.73603" lon="-0.33507">
        <ele>1528.5</ele>
        <time>2018-12-27T06:54:59Z</time>
      </trkpt>
      <trkpt lat="42.73603" lon="-0.33501">
        <ele>1527.7</ele>
        <time>2018-12-27T06:55:00Z</time>
      </trkpt>
      <trkpt lat="42.73602" lon="-0.33495">
        <ele>1526.8</ele>
        <time>2018-12-27T06:55:01Z</time>
      </trkpt>
      <trkpt lat="42.73601" lon="-0.33488">
        <ele>1525.8</ele>
        <time>2018-12-27T06:55:03Z</time>
      </trkpt>
      <trkpt lat="42.73601" lon="-0.33481">
        <ele>1525.1</ele>
        <time>2018-12-27T06:55:04Z</time>
      </trkpt>
      <trkpt lat="42.736" lon="-0.33475">
        <ele>1524.4</ele>
        <time>2018-12-27T06:55:05Z</time>
      </trkpt>
      <trkpt lat="42.73601" lon="-0.33468">
        <ele>1523.8</ele>
        <time>2018-12-27T06:55:07Z</time>
      </trkpt>
      <trkpt lat="42.73602" lon="-0.33462">
        <ele>1523.5</ele>
        <time>2018-12-27T06:55:08Z</time>
      </trkpt>
      <trkpt lat="42.73602" lon="-0.33455">
        <ele>1523</ele>
        <time>2018-12-27T06:55:09Z</time>
      </trkpt>
      <trkpt lat="42.73604" lon="-0.33448">
        <ele>1522.5</ele>
        <time>2018-12-27T06:55:11Z</time>
      </trkpt>
      <trkpt lat="42.73604" lon="-0.33442">
        <ele>1522.2</ele>
        <time>2018-12-27T06:55:12Z</time>
      </trkpt>
      <trkpt lat="42.73605" lon="-0.33435">
        <ele>1521.5</ele>
        <time>2018-12-27T06:55:13Z</time>
      </trkpt>
      <trkpt lat="42.73607" lon="-0.33429">
        <ele>1520.8</ele>
        <time>2018-12-27T06:55:15Z</time>
      </trkpt>
      <trkpt lat="42.73607" lon="-0.33422">
        <ele>1520.4</ele>
        <time>2018-12-27T06:55:16Z</time>
      </trkpt>
      <trkpt lat="42.73607" lon="-0.33415">
        <ele>1519</ele>
        <time>2018-12-27T06:55:17Z</time>
      </trkpt>
      <trkpt lat="42.73609" lon="-0.33408">
        <ele>1518.1</ele>
        <time>2018-12-27T06:55:19Z</time>
      </trkpt>
      <trkpt lat="42.7361" lon="-0.33402">
        <ele>1517.2</ele>
        <time>2018-12-27T06:55:20Z</time>
      </trkpt>
      <trkpt lat="42.73611" lon="-0.33396">
        <ele>1516.5</ele>
        <time>2018-12-27T06:55:21Z</time>
      </trkpt>
      <trkpt lat="42.73612" lon="-0.3339">
        <ele>1515.6</ele>
        <time>2018-12-27T06:55:23Z</time>
      </trkpt>
      <trkpt lat="42.73613" lon="-0.33383">
        <ele>1514.1</ele>
        <time>2018-12-27T06:55:24Z</time>
      </trkpt>
      <trkpt lat="42.73613" lon="-0.33377">
        <ele>1513.1</ele>
        <time>2018-12-27T06:55:25Z</time>
      </trkpt>
      <trkpt lat="42.73614" lon="-0.33371">
        <ele>1511.8</ele>
        <time>2018-12-27T06:55:26Z</time>
      </trkpt>
      <trkpt lat="42.73614" lon="-0.33364">
        <ele>1510.9</ele>
        <time>2018-12-27T06:55:27Z</time>
      </trkpt>
      <trkpt lat="42.73615" lon="-0.33358">
        <ele>1509.5</ele>
        <time>2018-12-27T06:55:29Z</time>
      </trkpt>
      <trkpt lat="42.73616" lon="-0.33351">
        <ele>1507.9</ele>
        <time>2018-12-27T06:55:30Z</time>
      </trkpt>
      <trkpt lat="42.73616" lon="-0.33345">
        <ele>1506.5</ele>
        <time>2018-12-27T06:55:31Z</time>
      </trkpt>
      <trkpt lat="42.73615" lon="-0.33338">
        <ele>1505.7</ele>
        <time>2018-12-27T06:55:33Z</time>
      </trkpt>
      <trkpt lat="42.73616" lon="-0.33332">
        <ele>1504.6</ele>
        <time>2018-12-27T06:55:34Z</time>
      </trkpt>
      <trkpt lat="42.73617" lon="-0.33326">
        <ele>1503.7</ele>
        <time>2018-12-27T06:55:35Z</time>
      </trkpt>
      <trkpt lat="42.73615" lon="-0.3332">
        <ele>1502.3</ele>
        <time>2018-12-27T06:55:36Z</time>
      </trkpt>
      <trkpt lat="42.73612" lon="-0.33314">
        <ele>1501</ele>
        <time>2018-12-27T06:55:38Z</time>
      </trkpt>
      <trkpt lat="42.73608" lon="-0.33309">
        <ele>1500.1</ele>
        <time>2018-12-27T06:55:39Z</time>
      </trkpt>
      <trkpt lat="42.73603" lon="-0.33308">
        <ele>1499.4</ele>
        <time>2018-12-27T06:55:41Z</time>
      </trkpt>
      <trkpt lat="42.73599" lon="-0.33305">
        <ele>1499</ele>
        <time>2018-12-27T06:55:42Z</time>
      </trkpt>
      <trkpt lat="42.73593" lon="-0.33304">
        <ele>1498.4</ele>
        <time>2018-12-27T06:55:43Z</time>
      </trkpt>
      <trkpt lat="42.73588" lon="-0.33304">
        <ele>1497.6</ele>
        <time>2018-12-27T06:55:45Z</time>
      </trkpt>
      <trkpt lat="42.73584" lon="-0.33301">
        <ele>1496.4</ele>
        <time>2018-12-27T06:55:46Z</time>
      </trkpt>
      <trkpt lat="42.73583" lon="-0.33295">
        <ele>1495.9</ele>
        <time>2018-12-27T06:55:47Z</time>
      </trkpt>
      <trkpt lat="42.73581" lon="-0.33289">
        <ele>1495.3</ele>
        <time>2018-12-27T06:55:48Z</time>
      </trkpt>
      <trkpt lat="42.73579" lon="-0.33282">
        <ele>1494.5</ele>
        <time>2018-12-27T06:55:50Z</time>
      </trkpt>
      <trkpt lat="42.73577" lon="-0.33277">
        <ele>1493.9</ele>
        <time>2018-12-27T06:55:51Z</time>
      </trkpt>
      <trkpt lat="42.73576" lon="-0.33271">
        <ele>1493.6</ele>
        <time>2018-12-27T06:55:52Z</time>
      </trkpt>
      <trkpt lat="42.73574" lon="-0.33265">
        <ele>1493.6</ele>
        <time>2018-12-27T06:55:54Z</time>
      </trkpt>
      <trkpt lat="42.7357" lon="-0.33261">
        <ele>1493.5</ele>
        <time>2018-12-27T06:55:55Z</time>
      </trkpt>
      <trkpt lat="42.73567" lon="-0.33255">
        <ele>1493.6</ele>
        <time>2018-12-27T06:55:56Z</time>
      </trkpt>
      <trkpt lat="42.73567" lon="-0.33248">
        <ele>1493.6</ele>
        <time>2018-12-27T06:55:58Z</time>
      </trkpt>
      <trkpt lat="42.73566" lon="-0.33241">
        <ele>1493.6</ele>
        <time>2018-12-27T06:55:59Z</time>
      </trkpt>
      <trkpt lat="42.73565" lon="-0.33235">
        <ele>1493.3</ele>
        <time>2018-12-27T06:56:00Z</time>
      </trkpt>
      <trkpt lat="42.73565" lon="-0.33229">
        <ele>1493</ele>
        <time>2018-12-27T06:56:01Z</time>
      </trkpt>
      <trkpt lat="42.73564" lon="-0.33223">
        <ele>1492.5</ele>
        <time>2018-12-27T06:56:03Z</time>
      </trkpt>
      <trkpt lat="42.73563" lon="-0.33216">
        <ele>1491.5</ele>
        <time>2018-12-27T06:56:04Z</time>
      </trkpt>
      <trkpt lat="42.73561" lon="-0.33209">
        <ele>1490.5</ele>
        <time>2018-12-27T06:56:05Z</time>
      </trkpt>
      <trkpt lat="42.73561" lon="-0.33202">
        <ele>1489.7</ele>
        <time>2018-12-27T06:56:07Z</time>
      </trkpt>
      <trkpt lat="42.7356" lon="-0.33196">
        <ele>1489.1</ele>
        <time>2018-12-27T06:56:08Z</time>
      </trkpt>
      <trkpt lat="42.73562" lon="-0.3319">
        <ele>1488.5</ele>
        <time>2018-12-27T06:56:09Z</time>
      </trkpt>
      <trkpt lat="42.73562" lon="-0.33184">
        <ele>1488.3</ele>
        <time>2018-12-27T06:56:11Z</time>
      </trkpt>
      <trkpt lat="42.73563" lon="-0.33176">
        <ele>1487.9</ele>
        <time>2018-12-27T06:56:12Z</time>
      </trkpt>
      <trkpt lat="42.73562" lon="-0.3317">
        <ele>1487.4</ele>
        <time>2018-12-27T06:56:13Z</time>
      </trkpt>
      <trkpt lat="42.73562" lon="-0.33163">
        <ele>1487</ele>
        <time>2018-12-27T06:56:15Z</time>
      </trkpt>
      <trkpt lat="42.73563" lon="-0.33156">
        <ele>1486.3</ele>
        <time>2018-12-27T06:56:16Z</time>
      </trkpt>
      <trkpt lat="42.73564" lon="-0.33149">
        <ele>1485.1</ele>
        <time>2018-12-27T06:56:17Z</time>
      </trkpt>
      <trkpt lat="42.73564" lon="-0.33142">
        <ele>1484.4</ele>
        <time>2018-12-27T06:56:19Z</time>
      </trkpt>
      <trkpt lat="42.73565" lon="-0.33136">
        <ele>1484</ele>
        <time>2018-12-27T06:56:20Z</time>
      </trkpt>
      <trkpt lat="42.73568" lon="-0.33131">
        <ele>1483.2</ele>
        <time>2018-12-27T06:56:21Z</time>
      </trkpt>
      <trkpt lat="42.7357" lon="-0.33124">
        <ele>1482.4</ele>
        <time>2018-12-27T06:56:23Z</time>
      </trkpt>
      <trkpt lat="42.73573" lon="-0.33119">
        <ele>1481.5</ele>
        <time>2018-12-27T06:56:24Z</time>
      </trkpt>
      <trkpt lat="42.73577" lon="-0.33115">
        <ele>1480.9</ele>
        <time>2018-12-27T06:56:25Z</time>
      </trkpt>
      <trkpt lat="42.73579" lon="-0.33109">
        <ele>1480.5</ele>
        <time>2018-12-27T06:56:26Z</time>
      </trkpt>
      <trkpt lat="42.7358" lon="-0.33103">
        <ele>1479.7</ele>
        <time>2018-12-27T06:56:28Z</time>
      </trkpt>
      <trkpt lat="42.73583" lon="-0.33098">
        <ele>1478.9</ele>
        <time>2018-12-27T06:56:29Z</time>
      </trkpt>
      <trkpt lat="42.73583" lon="-0.33091">
        <ele>1478</ele>
        <time>2018-12-27T06:56:30Z</time>
      </trkpt>
      <trkpt lat="42.73583" lon="-0.33085">
        <ele>1476.2</ele>
        <time>2018-12-27T06:56:32Z</time>
      </trkpt>
      <trkpt lat="42.73581" lon="-0.33079">
        <ele>1475</ele>
        <time>2018-12-27T06:56:33Z</time>
      </trkpt>
      <trkpt lat="42.73579" lon="-0.33072">
        <ele>1474</ele>
        <time>2018-12-27T06:56:34Z</time>
      </trkpt>
      <trkpt lat="42.73574" lon="-0.33069">
        <ele>1473.4</ele>
        <time>2018-12-27T06:56:36Z</time>
      </trkpt>
      <trkpt lat="42.73574" lon="-0.33062">
        <ele>1471.4</ele>
        <time>2018-12-27T06:56:37Z</time>
      </trkpt>
      <trkpt lat="42.73578" lon="-0.33058">
        <ele>1470</ele>
        <time>2018-12-27T06:56:38Z</time>
      </trkpt>
      <trkpt lat="42.73582" lon="-0.33057">
        <ele>1469.3</ele>
        <time>2018-12-27T06:56:39Z</time>
      </trkpt>
      <trkpt lat="42.73587" lon="-0.33056">
        <ele>1468.5</ele>
        <time>2018-12-27T06:56:41Z</time>
      </trkpt>
      <trkpt lat="42.73592" lon="-0.33055">
        <ele>1467.9</ele>
        <time>2018-12-27T06:56:42Z</time>
      </trkpt>
      <trkpt lat="42.73596" lon="-0.33052">
        <ele>1466.7</ele>
        <time>2018-12-27T06:56:43Z</time>
      </trkpt>
      <trkpt lat="42.73601" lon="-0.33052">
        <ele>1465.7</ele>
        <time>2018-12-27T06:56:45Z</time>
      </trkpt>
      <trkpt lat="42.73606" lon="-0.33051">
        <ele>1465.2</ele>
        <time>2018-12-27T06:56:46Z</time>
      </trkpt>
      <trkpt lat="42.73611" lon="-0.33053">
        <ele>1464.5</ele>
        <time>2018-12-27T06:56:47Z</time>
      </trkpt>
      <trkpt lat="42.73616" lon="-0.33055">
        <ele>1463.9</ele>
        <time>2018-12-27T06:56:49Z</time>
      </trkpt>
      <trkpt lat="42.7362" lon="-0.33051">
        <ele>1461.4</ele>
        <time>2018-12-27T06:56:50Z</time>
      </trkpt>
      <trkpt lat="42.73625" lon="-0.33049">
        <ele>1460.7</ele>
        <time>2018-12-27T06:56:51Z</time>
      </trkpt>
      <trkpt lat="42.7363" lon="-0.3305">
        <ele>1459.5</ele>
        <time>2018-12-27T06:56:53Z</time>
      </trkpt>
      <trkpt lat="42.73634" lon="-0.33052">
        <ele>1458.4</ele>
        <time>2018-12-27T06:56:54Z</time>
      </trkpt>
      <trkpt lat="42.73637" lon="-0.33058">
        <ele>1457.5</ele>
        <time>2018-12-27T06:56:55Z</time>
      </trkpt>
      <trkpt lat="42.73639" lon="-0.33064">
        <ele>1458.2</ele>
        <time>2018-12-27T06:56:57Z</time>
      </trkpt>
      <trkpt lat="42.7364" lon="-0.33058">
        <ele>1459</ele>
        <time>2018-12-27T06:56:58Z</time>
      </trkpt>
      <trkpt lat="42.73636" lon="-0.33054">
        <ele>1459.9</ele>
        <time>2018-12-27T06:56:59Z</time>
      </trkpt>
      <trkpt lat="42.73632" lon="-0.33049">
        <ele>1460.1</ele>
        <time>2018-12-27T06:57:01Z</time>
      </trkpt>
      <trkpt lat="42.73629" lon="-0.33045">
        <ele>1460.2</ele>
        <time>2018-12-27T06:57:02Z</time>
      </trkpt>
      <trkpt lat="42.73624" lon="-0.33041">
        <ele>1460.5</ele>
        <time>2018-12-27T06:57:03Z</time>
      </trkpt>
      <trkpt lat="42.7362" lon="-0.33037">
        <ele>1460.5</ele>
        <time>2018-12-27T06:57:05Z</time>
      </trkpt>
      <trkpt lat="42.73616" lon="-0.33034">
        <ele>1460.8</ele>
        <time>2018-12-27T06:57:06Z</time>
      </trkpt>
      <trkpt lat="42.73612" lon="-0.33029">
        <ele>1460.8</ele>
        <time>2018-12-27T06:57:07Z</time>
      </trkpt>
      <trkpt lat="42.73608" lon="-0.33027">
        <ele>1461.2</ele>
        <time>2018-12-27T06:57:09Z</time>
      </trkpt>
      <trkpt lat="42.73603" lon="-0.33025">
        <ele>1462.2</ele>
        <time>2018-12-27T06:57:10Z</time>
      </trkpt>
      <trkpt lat="42.73599" lon="-0.33021">
        <ele>1461.9</ele>
        <time>2018-12-27T06:57:11Z</time>
      </trkpt>
      <trkpt lat="42.73595" lon="-0.33018">
        <ele>1462.3</ele>
        <time>2018-12-27T06:57:12Z</time>
      </trkpt>
      <trkpt lat="42.73592" lon="-0.33014">
        <ele>1462.5</ele>
        <time>2018-12-27T06:57:14Z</time>
      </trkpt>
      <trkpt lat="42.73588" lon="-0.3301">
        <ele>1462.1</ele>
        <time>2018-12-27T06:57:15Z</time>
      </trkpt>
      <trkpt lat="42.73583" lon="-0.33007">
        <ele>1461.5</ele>
        <time>2018-12-27T06:57:16Z</time>
      </trkpt>
      <trkpt lat="42.73578" lon="-0.33004">
        <ele>1460.8</ele>
        <time>2018-12-27T06:57:18Z</time>
      </trkpt>
      <trkpt lat="42.73574" lon="-0.33">
        <ele>1460.1</ele>
        <time>2018-12-27T06:57:19Z</time>
      </trkpt>
      <trkpt lat="42.73571" lon="-0.32996">
        <ele>1459.8</ele>
        <time>2018-12-27T06:57:20Z</time>
      </trkpt>
      <trkpt lat="42.73568" lon="-0.32991">
        <ele>1459.1</ele>
        <time>2018-12-27T06:57:22Z</time>
      </trkpt>
      <trkpt lat="42.73564" lon="-0.32987">
        <ele>1458.6</ele>
        <time>2018-12-27T06:57:23Z</time>
      </trkpt>
      <trkpt lat="42.73561" lon="-0.32982">
        <ele>1458</ele>
        <time>2018-12-27T06:57:24Z</time>
      </trkpt>
      <trkpt lat="42.73556" lon="-0.32979">
        <ele>1457.3</ele>
        <time>2018-12-27T06:57:26Z</time>
      </trkpt>
      <trkpt lat="42.73552" lon="-0.32975">
        <ele>1456.9</ele>
        <time>2018-12-27T06:57:27Z</time>
      </trkpt>
      <trkpt lat="42.73548" lon="-0.3297">
        <ele>1456.3</ele>
        <time>2018-12-27T06:57:28Z</time>
      </trkpt>
      <trkpt lat="42.73544" lon="-0.32968">
        <ele>1455.7</ele>
        <time>2018-12-27T06:57:30Z</time>
      </trkpt>
      <trkpt lat="42.73539" lon="-0.32971">
        <ele>1455.1</ele>
        <time>2018-12-27T06:57:31Z</time>
      </trkpt>
      <trkpt lat="42.73535" lon="-0.32975">
        <ele>1454.6</ele>
        <time>2018-12-27T06:57:32Z</time>
      </trkpt>
      <trkpt lat="42.73531" lon="-0.32979">
        <ele>1453.9</ele>
        <time>2018-12-27T06:57:34Z</time>
      </trkpt>
      <trkpt lat="42.73528" lon="-0.32984">
        <ele>1453.4</ele>
        <time>2018-12-27T06:57:35Z</time>
      </trkpt>
      <trkpt lat="42.73525" lon="-0.32991">
        <ele>1452.7</ele>
        <time>2018-12-27T06:57:36Z</time>
      </trkpt>
      <trkpt lat="42.73521" lon="-0.32995">
        <ele>1452.4</ele>
        <time>2018-12-27T06:57:38Z</time>
      </trkpt>
      <trkpt lat="42.73517" lon="-0.33">
        <ele>1451.7</ele>
        <time>2018-12-27T06:57:39Z</time>
      </trkpt>
      <trkpt lat="42.73512" lon="-0.33004">
        <ele>1451.3</ele>
        <time>2018-12-27T06:57:41Z</time>
      </trkpt>
      <trkpt lat="42.73509" lon="-0.33009">
        <ele>1450.5</ele>
        <time>2018-12-27T06:57:42Z</time>
      </trkpt>
      <trkpt lat="42.7351" lon="-0.33002">
        <ele>1448.8</ele>
        <time>2018-12-27T06:57:43Z</time>
      </trkpt>
      <trkpt lat="42.7351" lon="-0.32996">
        <ele>1447.5</ele>
        <time>2018-12-27T06:57:45Z</time>
      </trkpt>
      <trkpt lat="42.73512" lon="-0.3299">
        <ele>1446.3</ele>
        <time>2018-12-27T06:57:46Z</time>
      </trkpt>
      <trkpt lat="42.73512" lon="-0.32983">
        <ele>1444.8</ele>
        <time>2018-12-27T06:57:47Z</time>
      </trkpt>
      <trkpt lat="42.73514" lon="-0.32977">
        <ele>1443.9</ele>
        <time>2018-12-27T06:57:49Z</time>
      </trkpt>
      <trkpt lat="42.73517" lon="-0.32971">
        <ele>1443.3</ele>
        <time>2018-12-27T06:57:50Z</time>
      </trkpt>
      <trkpt lat="42.73515" lon="-0.32965">
        <ele>1442.5</ele>
        <time>2018-12-27T06:57:51Z</time>
      </trkpt>
      <trkpt lat="42.73515" lon="-0.32959">
        <ele>1440.9</ele>
        <time>2018-12-27T06:57:53Z</time>
      </trkpt>
      <trkpt lat="42.73517" lon="-0.32953">
        <ele>1440.2</ele>
        <time>2018-12-27T06:57:54Z</time>
      </trkpt>
      <trkpt lat="42.73518" lon="-0.32946">
        <ele>1439.3</ele>
        <time>2018-12-27T06:57:55Z</time>
      </trkpt>
      <trkpt lat="42.73518" lon="-0.32939">
        <ele>1438.6</ele>
        <time>2018-12-27T06:57:56Z</time>
      </trkpt>
      <trkpt lat="42.73516" lon="-0.32933">
        <ele>1437.6</ele>
        <time>2018-12-27T06:57:58Z</time>
      </trkpt>
      <trkpt lat="42.73516" lon="-0.32927">
        <ele>1436.8</ele>
        <time>2018-12-27T06:57:59Z</time>
      </trkpt>
      <trkpt lat="42.73515" lon="-0.3292">
        <ele>1435.1</ele>
        <time>2018-12-27T06:58:00Z</time>
      </trkpt>
      <trkpt lat="42.7352" lon="-0.32917">
        <ele>1434.3</ele>
        <time>2018-12-27T06:58:02Z</time>
      </trkpt>
      <trkpt lat="42.73522" lon="-0.32912">
        <ele>1431.7</ele>
        <time>2018-12-27T06:58:03Z</time>
      </trkpt>
      <trkpt lat="42.73521" lon="-0.32905">
        <ele>1429.9</ele>
        <time>2018-12-27T06:58:04Z</time>
      </trkpt>
      <trkpt lat="42.73521" lon="-0.32899">
        <ele>1429.9</ele>
        <time>2018-12-27T06:58:05Z</time>
      </trkpt>
      <trkpt lat="42.73516" lon="-0.32896">
        <ele>1427.1</ele>
        <time>2018-12-27T06:58:07Z</time>
      </trkpt>
      <trkpt lat="42.73513" lon="-0.3289">
        <ele>1425.7</ele>
        <time>2018-12-27T06:58:08Z</time>
      </trkpt>
      <trkpt lat="42.73509" lon="-0.32888">
        <ele>1425</ele>
        <time>2018-12-27T06:58:09Z</time>
      </trkpt>
      <trkpt lat="42.73506" lon="-0.32882">
        <ele>1423.5</ele>
        <time>2018-12-27T06:58:11Z</time>
      </trkpt>
      <trkpt lat="42.73506" lon="-0.32876">
        <ele>1422</ele>
        <time>2018-12-27T06:58:12Z</time>
      </trkpt>
      <trkpt lat="42.73507" lon="-0.32869">
        <ele>1420.8</ele>
        <time>2018-12-27T06:58:13Z</time>
      </trkpt>
      <trkpt lat="42.73507" lon="-0.32862">
        <ele>1419.5</ele>
        <time>2018-12-27T06:58:15Z</time>
      </trkpt>
      <trkpt lat="42.73509" lon="-0.32856">
        <ele>1418.7</ele>
        <time>2018-12-27T06:58:16Z</time>
      </trkpt>
      <trkpt lat="42.73506" lon="-0.3285">
        <ele>1417.4</ele>
        <time>2018-12-27T06:58:17Z</time>
      </trkpt>
      <trkpt lat="42.73506" lon="-0.32844">
        <ele>1416.5</ele>
        <time>2018-12-27T06:58:18Z</time>
      </trkpt>
      <trkpt lat="42.7351" lon="-0.3284">
        <ele>1414.6</ele>
        <time>2018-12-27T06:58:20Z</time>
      </trkpt>
      <trkpt lat="42.7351" lon="-0.32834">
        <ele>1413.3</ele>
        <time>2018-12-27T06:58:21Z</time>
      </trkpt>
      <trkpt lat="42.73509" lon="-0.32827">
        <ele>1411.3</ele>
        <time>2018-12-27T06:58:22Z</time>
      </trkpt>
      <trkpt lat="42.73514" lon="-0.32829">
        <ele>1410.4</ele>
        <time>2018-12-27T06:58:24Z</time>
      </trkpt>
      <trkpt lat="42.73518" lon="-0.32833">
        <ele>1409.5</ele>
        <time>2018-12-27T06:58:25Z</time>
      </trkpt>
      <trkpt lat="42.73523" lon="-0.32834">
        <ele>1409.1</ele>
        <time>2018-12-27T06:58:26Z</time>
      </trkpt>
      <trkpt lat="42.73528" lon="-0.32835">
        <ele>1408.6</ele>
        <time>2018-12-27T06:58:28Z</time>
      </trkpt>
      <trkpt lat="42.73531" lon="-0.32841">
        <ele>1407.4</ele>
        <time>2018-12-27T06:58:29Z</time>
      </trkpt>
      <trkpt lat="42.73535" lon="-0.32845">
        <ele>1406.3</ele>
        <time>2018-12-27T06:58:30Z</time>
      </trkpt>
      <trkpt lat="42.73536" lon="-0.32852">
        <ele>1405.4</ele>
        <time>2018-12-27T06:58:32Z</time>
      </trkpt>
      <trkpt lat="42.73536" lon="-0.32859">
        <ele>1404.8</ele>
        <time>2018-12-27T06:58:33Z</time>
      </trkpt>
      <trkpt lat="42.73538" lon="-0.32865">
        <ele>1403.6</ele>
        <time>2018-12-27T06:58:34Z</time>
      </trkpt>
      <trkpt lat="42.73543" lon="-0.32867">
        <ele>1403.1</ele>
        <time>2018-12-27T06:58:36Z</time>
      </trkpt>
      <trkpt lat="42.73548" lon="-0.32866">
        <ele>1402.4</ele>
        <time>2018-12-27T06:58:37Z</time>
      </trkpt>
      <trkpt lat="42.73552" lon="-0.32864">
        <ele>1401.9</ele>
        <time>2018-12-27T06:58:38Z</time>
      </trkpt>
      <trkpt lat="42.73557" lon="-0.32864">
        <ele>1401.4</ele>
        <time>2018-12-27T06:58:40Z</time>
      </trkpt>
      <trkpt lat="42.73562" lon="-0.32863">
        <ele>1401</ele>
        <time>2018-12-27T06:58:41Z</time>
      </trkpt>
      <trkpt lat="42.73567" lon="-0.32861">
        <ele>1400.5</ele>
        <time>2018-12-27T06:58:42Z</time>
      </trkpt>
      <trkpt lat="42.73571" lon="-0.32858">
        <ele>1399.4</ele>
        <time>2018-12-27T06:58:44Z</time>
      </trkpt>
      <trkpt lat="42.73576" lon="-0.32858">
        <ele>1397.3</ele>
        <time>2018-12-27T06:58:45Z</time>
      </trkpt>
      <trkpt lat="42.73573" lon="-0.32853">
        <ele>1395.6</ele>
        <time>2018-12-27T06:58:46Z</time>
      </trkpt>
      <trkpt lat="42.73568" lon="-0.32852">
        <ele>1394.7</ele>
        <time>2018-12-27T06:58:48Z</time>
      </trkpt>
      <trkpt lat="42.73563" lon="-0.32849">
        <ele>1393.4</ele>
        <time>2018-12-27T06:58:49Z</time>
      </trkpt>
      <trkpt lat="42.73562" lon="-0.32843">
        <ele>1392.2</ele>
        <time>2018-12-27T06:58:50Z</time>
      </trkpt>
      <trkpt lat="42.73564" lon="-0.32837">
        <ele>1391.3</ele>
        <time>2018-12-27T06:58:52Z</time>
      </trkpt>
      <trkpt lat="42.73564" lon="-0.32831">
        <ele>1390.4</ele>
        <time>2018-12-27T06:58:53Z</time>
      </trkpt>
      <trkpt lat="42.7356" lon="-0.32828">
        <ele>1389.9</ele>
        <time>2018-12-27T06:58:54Z</time>
      </trkpt>
      <trkpt lat="42.73556" lon="-0.32825">
        <ele>1389.5</ele>
        <time>2018-12-27T06:58:55Z</time>
      </trkpt>
      <trkpt lat="42.73555" lon="-0.32818">
        <ele>1388.5</ele>
        <time>2018-12-27T06:58:57Z</time>
      </trkpt>
      <trkpt lat="42.73555" lon="-0.32812">
        <ele>1386.8</ele>
        <time>2018-12-27T06:58:58Z</time>
      </trkpt>
      <trkpt lat="42.73555" lon="-0.32805">
        <ele>1386.2</ele>
        <time>2018-12-27T06:58:59Z</time>
      </trkpt>
      <trkpt lat="42.73553" lon="-0.32799">
        <ele>1385.6</ele>
        <time>2018-12-27T06:59:01Z</time>
      </trkpt>
      <trkpt lat="42.7355" lon="-0.32794">
        <ele>1384.9</ele>
        <time>2018-12-27T06:59:02Z</time>
      </trkpt>
      <trkpt lat="42.73546" lon="-0.3279">
        <ele>1384.1</ele>
        <time>2018-12-27T06:59:03Z</time>
      </trkpt>
      <trkpt lat="42.73544" lon="-0.32784">
        <ele>1383.1</ele>
        <time>2018-12-27T06:59:05Z</time>
      </trkpt>
      <trkpt lat="42.73545" lon="-0.32777">
        <ele>1382.4</ele>
        <time>2018-12-27T06:59:06Z</time>
      </trkpt>
      <trkpt lat="42.73546" lon="-0.32771">
        <ele>1381.9</ele>
        <time>2018-12-27T06:59:07Z</time>
      </trkpt>
      <trkpt lat="42.73543" lon="-0.32765">
        <ele>1381.3</ele>
        <time>2018-12-27T06:59:09Z</time>
      </trkpt>
      <trkpt lat="42.7354" lon="-0.3276">
        <ele>1380.8</ele>
        <time>2018-12-27T06:59:10Z</time>
      </trkpt>
      <trkpt lat="42.7354" lon="-0.32753">
        <ele>1380.4</ele>
        <time>2018-12-27T06:59:11Z</time>
      </trkpt>
      <trkpt lat="42.73541" lon="-0.32747">
        <ele>1379.6</ele>
        <time>2018-12-27T06:59:13Z</time>
      </trkpt>
      <trkpt lat="42.73544" lon="-0.32742">
        <ele>1379.2</ele>
        <time>2018-12-27T06:59:14Z</time>
      </trkpt>
      <trkpt lat="42.73546" lon="-0.32736">
        <ele>1377.6</ele>
        <time>2018-12-27T06:59:15Z</time>
      </trkpt>
      <trkpt lat="42.73547" lon="-0.3273">
        <ele>1376.5</ele>
        <time>2018-12-27T06:59:16Z</time>
      </trkpt>
      <trkpt lat="42.73547" lon="-0.32723">
        <ele>1375.4</ele>
        <time>2018-12-27T06:59:18Z</time>
      </trkpt>
      <trkpt lat="42.7355" lon="-0.32718">
        <ele>1374.2</ele>
        <time>2018-12-27T06:59:19Z</time>
      </trkpt>
      <trkpt lat="42.73553" lon="-0.32713">
        <ele>1373.8</ele>
        <time>2018-12-27T06:59:20Z</time>
      </trkpt>
      <trkpt lat="42.73555" lon="-0.32706">
        <ele>1371.7</ele>
        <time>2018-12-27T06:59:22Z</time>
      </trkpt>
      <trkpt lat="42.73558" lon="-0.327">
        <ele>1370.6</ele>
        <time>2018-12-27T06:59:23Z</time>
      </trkpt>
      <trkpt lat="42.73557" lon="-0.32694">
        <ele>1369.9</ele>
        <time>2018-12-27T06:59:24Z</time>
      </trkpt>
      <trkpt lat="42.73561" lon="-0.3269">
        <ele>1369</ele>
        <time>2018-12-27T06:59:25Z</time>
      </trkpt>
      <trkpt lat="42.73564" lon="-0.32685">
        <ele>1368.4</ele>
        <time>2018-12-27T06:59:27Z</time>
      </trkpt>
      <trkpt lat="42.73564" lon="-0.32678">
        <ele>1367.3</ele>
        <time>2018-12-27T06:59:28Z</time>
      </trkpt>
      <trkpt lat="42.73566" lon="-0.32671">
        <ele>1366.5</ele>
        <time>2018-12-27T06:59:29Z</time>
      </trkpt>
      <trkpt lat="42.73567" lon="-0.32665">
        <ele>1365.5</ele>
        <time>2018-12-27T06:59:31Z</time>
      </trkpt>
      <trkpt lat="42.73568" lon="-0.32658">
        <ele>1363.9</ele>
        <time>2018-12-27T06:59:32Z</time>
      </trkpt>
      <trkpt lat="42.73569" lon="-0.32652">
        <ele>1363</ele>
        <time>2018-12-27T06:59:33Z</time>
      </trkpt>
      <trkpt lat="42.73569" lon="-0.32646">
        <ele>1362.5</ele>
        <time>2018-12-27T06:59:35Z</time>
      </trkpt>
      <trkpt lat="42.73569" lon="-0.32639">
        <ele>1361.8</ele>
        <time>2018-12-27T06:59:36Z</time>
      </trkpt>
      <trkpt lat="42.73572" lon="-0.32632">
        <ele>1361.1</ele>
        <time>2018-12-27T06:59:37Z</time>
      </trkpt>
      <trkpt lat="42.73572" lon="-0.32626">
        <ele>1360.6</ele>
        <time>2018-12-27T06:59:39Z</time>
      </trkpt>
      <trkpt lat="42.73573" lon="-0.3262">
        <ele>1360.3</ele>
        <time>2018-12-27T06:59:40Z</time>
      </trkpt>
      <trkpt lat="42.7357" lon="-0.32613">
        <ele>1359.9</ele>
        <time>2018-12-27T06:59:41Z</time>
      </trkpt>
      <trkpt lat="42.7357" lon="-0.32607">
        <ele>1359.4</ele>
        <time>2018-12-27T06:59:43Z</time>
      </trkpt>
      <trkpt lat="42.73571" lon="-0.326">
        <ele>1357.5</ele>
        <time>2018-12-27T06:59:44Z</time>
      </trkpt>
      <trkpt lat="42.7357" lon="-0.32594">
        <ele>1356.2</ele>
        <time>2018-12-27T06:59:45Z</time>
      </trkpt>
      <trkpt lat="42.73566" lon="-0.32589">
        <ele>1355</ele>
        <time>2018-12-27T06:59:47Z</time>
      </trkpt>
      <trkpt lat="42.73562" lon="-0.32588">
        <ele>1354</ele>
        <time>2018-12-27T06:59:48Z</time>
      </trkpt>
      <trkpt lat="42.73562" lon="-0.32582">
        <ele>1352.8</ele>
        <time>2018-12-27T06:59:49Z</time>
      </trkpt>
      <trkpt lat="42.73566" lon="-0.32577">
        <ele>1352.2</ele>
        <time>2018-12-27T06:59:50Z</time>
      </trkpt>
      <trkpt lat="42.73568" lon="-0.32572">
        <ele>1351.6</ele>
        <time>2018-12-27T06:59:52Z</time>
      </trkpt>
      <trkpt lat="42.73573" lon="-0.32572">
        <ele>1350.1</ele>
        <time>2018-12-27T06:59:53Z</time>
      </trkpt>
      <trkpt lat="42.73576" lon="-0.32566">
        <ele>1348.6</ele>
        <time>2018-12-27T06:59:54Z</time>
      </trkpt>
      <trkpt lat="42.7358" lon="-0.32563">
        <ele>1347.6</ele>
        <time>2018-12-27T06:59:55Z</time>
      </trkpt>
      <trkpt lat="42.73584" lon="-0.3256">
        <ele>1345.7</ele>
        <time>2018-12-27T06:59:57Z</time>
      </trkpt>
      <trkpt lat="42.73587" lon="-0.32555">
        <ele>1345</ele>
        <time>2018-12-27T06:59:58Z</time>
      </trkpt>
      <trkpt lat="42.7359" lon="-0.3255">
        <ele>1344.2</ele>
        <time>2018-12-27T06:59:59Z</time>
      </trkpt>
      <trkpt lat="42.73593" lon="-0.32544">
        <ele>1342.9</ele>
        <time>2018-12-27T07:00:01Z</time>
      </trkpt>
      <trkpt lat="42.73595" lon="-0.32538">
        <ele>1342.1</ele>
        <time>2018-12-27T07:00:02Z</time>
      </trkpt>
      <trkpt lat="42.73598" lon="-0.32532">
        <ele>1341.1</ele>
        <time>2018-12-27T07:00:03Z</time>
      </trkpt>
      <trkpt lat="42.73599" lon="-0.32527">
        <ele>1339.9</ele>
        <time>2018-12-27T07:00:04Z</time>
      </trkpt>
      <trkpt lat="42.73603" lon="-0.32522">
        <ele>1339.2</ele>
        <time>2018-12-27T07:00:06Z</time>
      </trkpt>
      <trkpt lat="42.73607" lon="-0.32519">
        <ele>1338.1</ele>
        <time>2018-12-27T07:00:07Z</time>
      </trkpt>
      <trkpt lat="42.73609" lon="-0.32514">
        <ele>1336.9</ele>
        <time>2018-12-27T07:00:08Z</time>
      </trkpt>
      <trkpt lat="42.73611" lon="-0.32508">
        <ele>1336.3</ele>
        <time>2018-12-27T07:00:10Z</time>
      </trkpt>
      <trkpt lat="42.73613" lon="-0.32502">
        <ele>1336</ele>
        <time>2018-12-27T07:00:11Z</time>
      </trkpt>
      <trkpt lat="42.73614" lon="-0.32495">
        <ele>1335.6</ele>
        <time>2018-12-27T07:00:12Z</time>
      </trkpt>
      <trkpt lat="42.73615" lon="-0.32488">
        <ele>1335.1</ele>
        <time>2018-12-27T07:00:13Z</time>
      </trkpt>
      <trkpt lat="42.73617" lon="-0.32482">
        <ele>1333.8</ele>
        <time>2018-12-27T07:00:15Z</time>
      </trkpt>
      <trkpt lat="42.73619" lon="-0.32476">
        <ele>1332.6</ele>
        <time>2018-12-27T07:00:16Z</time>
      </trkpt>
      <trkpt lat="42.7362" lon="-0.3247">
        <ele>1330.9</ele>
        <time>2018-12-27T07:00:17Z</time>
      </trkpt>
      <trkpt lat="42.73622" lon="-0.32464">
        <ele>1329.9</ele>
        <time>2018-12-27T07:00:19Z</time>
      </trkpt>
      <trkpt lat="42.73622" lon="-0.32458">
        <ele>1329</ele>
        <time>2018-12-27T07:00:20Z</time>
      </trkpt>
      <trkpt lat="42.73626" lon="-0.32454">
        <ele>1327.8</ele>
        <time>2018-12-27T07:00:21Z</time>
      </trkpt>
      <trkpt lat="42.73629" lon="-0.32449">
        <ele>1326.5</ele>
        <time>2018-12-27T07:00:22Z</time>
      </trkpt>
      <trkpt lat="42.73631" lon="-0.32443">
        <ele>1325</ele>
        <time>2018-12-27T07:00:24Z</time>
      </trkpt>
      <trkpt lat="42.73633" lon="-0.32437">
        <ele>1323.4</ele>
        <time>2018-12-27T07:00:25Z</time>
      </trkpt>
      <trkpt lat="42.73637" lon="-0.32432">
        <ele>1322.3</ele>
        <time>2018-12-27T07:00:26Z</time>
      </trkpt>
      <trkpt lat="42.73639" lon="-0.32426">
        <ele>1321.1</ele>
        <time>2018-12-27T07:00:28Z</time>
      </trkpt>
      <trkpt lat="42.73639" lon="-0.32419">
        <ele>1319.8</ele>
        <time>2018-12-27T07:00:29Z</time>
      </trkpt>
      <trkpt lat="42.73642" lon="-0.32413">
        <ele>1318.4</ele>
        <time>2018-12-27T07:00:31Z</time>
      </trkpt>
      <trkpt lat="42.73644" lon="-0.32407">
        <ele>1317.8</ele>
        <time>2018-12-27T07:00:32Z</time>
      </trkpt>
      <trkpt lat="42.73649" lon="-0.32404">
        <ele>1317.8</ele>
        <time>2018-12-27T07:00:33Z</time>
      </trkpt>
      <trkpt lat="42.73646" lon="-0.32409">
        <ele>1316.4</ele>
        <time>2018-12-27T07:00:34Z</time>
      </trkpt>
      <trkpt lat="42.73644" lon="-0.32402">
        <ele>1315.7</ele>
        <time>2018-12-27T07:00:36Z</time>
      </trkpt>
      <trkpt lat="42.73646" lon="-0.32396">
        <ele>1314.8</ele>
        <time>2018-12-27T07:00:37Z</time>
      </trkpt>
      <trkpt lat="42.73647" lon="-0.3239">
        <ele>1313.5</ele>
        <time>2018-12-27T07:00:38Z</time>
      </trkpt>
      <trkpt lat="42.7365" lon="-0.32385">
        <ele>1312</ele>
        <time>2018-12-27T07:00:40Z</time>
      </trkpt>
      <trkpt lat="42.73652" lon="-0.32378">
        <ele>1311.3</ele>
        <time>2018-12-27T07:00:41Z</time>
      </trkpt>
      <trkpt lat="42.73656" lon="-0.32375">
        <ele>1310.8</ele>
        <time>2018-12-27T07:00:42Z</time>
      </trkpt>
      <trkpt lat="42.73657" lon="-0.32369">
        <ele>1308</ele>
        <time>2018-12-27T07:00:44Z</time>
      </trkpt>
      <trkpt lat="42.73659" lon="-0.32362">
        <ele>1306.3</ele>
        <time>2018-12-27T07:00:45Z</time>
      </trkpt>
      <trkpt lat="42.73663" lon="-0.32358">
        <ele>1305.4</ele>
        <time>2018-12-27T07:00:46Z</time>
      </trkpt>
      <trkpt lat="42.73667" lon="-0.32353">
        <ele>1304.3</ele>
        <time>2018-12-27T07:00:48Z</time>
      </trkpt>
      <trkpt lat="42.73667" lon="-0.32346">
        <ele>1303.2</ele>
        <time>2018-12-27T07:00:49Z</time>
      </trkpt>
      <trkpt lat="42.73668" lon="-0.3234">
        <ele>1302.6</ele>
        <time>2018-12-27T07:00:50Z</time>
      </trkpt>
      <trkpt lat="42.73666" lon="-0.32334">
        <ele>1301.4</ele>
        <time>2018-12-27T07:00:51Z</time>
      </trkpt>
      <trkpt lat="42.73664" lon="-0.32328">
        <ele>1300.6</ele>
        <time>2018-12-27T07:00:53Z</time>
      </trkpt>
      <trkpt lat="42.7366" lon="-0.32323">
        <ele>1299.7</ele>
        <time>2018-12-27T07:00:54Z</time>
      </trkpt>
      <trkpt lat="42.73656" lon="-0.3232">
        <ele>1298.8</ele>
        <time>2018-12-27T07:00:55Z</time>
      </trkpt>
      <trkpt lat="42.73653" lon="-0.32314">
        <ele>1297.5</ele>
        <time>2018-12-27T07:00:57Z</time>
      </trkpt>
      <trkpt lat="42.73651" lon="-0.32309">
        <ele>1296.1</ele>
        <time>2018-12-27T07:00:58Z</time>
      </trkpt>
      <trkpt lat="42.73651" lon="-0.32303">
        <ele>1294.8</ele>
        <time>2018-12-27T07:00:59Z</time>
      </trkpt>
      <trkpt lat="42.73652" lon="-0.32297">
        <ele>1293.5</ele>
        <time>2018-12-27T07:01:00Z</time>
      </trkpt>
      <trkpt lat="42.73648" lon="-0.32293">
        <ele>1291.6</ele>
        <time>2018-12-27T07:01:02Z</time>
      </trkpt>
      <trkpt lat="42.73645" lon="-0.32288">
        <ele>1290.7</ele>
        <time>2018-12-27T07:01:03Z</time>
      </trkpt>
      <trkpt lat="42.73646" lon="-0.32281">
        <ele>1289.9</ele>
        <time>2018-12-27T07:01:04Z</time>
      </trkpt>
      <trkpt lat="42.73649" lon="-0.32276">
        <ele>1286.8</ele>
        <time>2018-12-27T07:01:05Z</time>
      </trkpt>
      <trkpt lat="42.73652" lon="-0.32272">
        <ele>1286</ele>
        <time>2018-12-27T07:01:07Z</time>
      </trkpt>
      <trkpt lat="42.73649" lon="-0.32266">
        <ele>1284.8</ele>
        <time>2018-12-27T07:01:08Z</time>
      </trkpt>
      <trkpt lat="42.73645" lon="-0.32263">
        <ele>1284</ele>
        <time>2018-12-27T07:01:09Z</time>
      </trkpt>
      <trkpt lat="42.7364" lon="-0.32261">
        <ele>1283.5</ele>
        <time>2018-12-27T07:01:11Z</time>
      </trkpt>
      <trkpt lat="42.73639" lon="-0.32255">
        <ele>1282</ele>
        <time>2018-12-27T07:01:12Z</time>
      </trkpt>
      <trkpt lat="42.73636" lon="-0.3225">
        <ele>1279</ele>
        <time>2018-12-27T07:01:13Z</time>
      </trkpt>
      <trkpt lat="42.73637" lon="-0.32244">
        <ele>1277.2</ele>
        <time>2018-12-27T07:01:14Z</time>
      </trkpt>
      <trkpt lat="42.73633" lon="-0.32239">
        <ele>1276.3</ele>
        <time>2018-12-27T07:01:16Z</time>
      </trkpt>
      <trkpt lat="42.73635" lon="-0.32232">
        <ele>1275.4</ele>
        <time>2018-12-27T07:01:17Z</time>
      </trkpt>
      <trkpt lat="42.73633" lon="-0.32226">
        <ele>1274.5</ele>
        <time>2018-12-27T07:01:19Z</time>
      </trkpt>
      <trkpt lat="42.73628" lon="-0.32225">
        <ele>1273.2</ele>
        <time>2018-12-27T07:01:20Z</time>
      </trkpt>
      <trkpt lat="42.73625" lon="-0.32221">
        <ele>1271.6</ele>
        <time>2018-12-27T07:01:21Z</time>
      </trkpt>
      <trkpt lat="42.7362" lon="-0.32217">
        <ele>1270.6</ele>
        <time>2018-12-27T07:01:23Z</time>
      </trkpt>
      <trkpt lat="42.73615" lon="-0.32216">
        <ele>1269.3</ele>
        <time>2018-12-27T07:01:24Z</time>
      </trkpt>
      <trkpt lat="42.73616" lon="-0.3221">
        <ele>1269.4</ele>
        <time>2018-12-27T07:01:25Z</time>
      </trkpt>
      <trkpt lat="42.73617" lon="-0.32203">
        <ele>1269.7</ele>
        <time>2018-12-27T07:01:27Z</time>
      </trkpt>
      <trkpt lat="42.73617" lon="-0.32197">
        <ele>1268.8</ele>
        <time>2018-12-27T07:01:28Z</time>
      </trkpt>
      <trkpt lat="42.73618" lon="-0.32191">
        <ele>1268</ele>
        <time>2018-12-27T07:01:29Z</time>
      </trkpt>
      <trkpt lat="42.73617" lon="-0.32184">
        <ele>1268.1</ele>
        <time>2018-12-27T07:01:30Z</time>
      </trkpt>
      <trkpt lat="42.73615" lon="-0.32178">
        <ele>1267.9</ele>
        <time>2018-12-27T07:01:32Z</time>
      </trkpt>
      <trkpt lat="42.73611" lon="-0.32177">
        <ele>1267.5</ele>
        <time>2018-12-27T07:01:33Z</time>
      </trkpt>
      <trkpt lat="42.73606" lon="-0.3218">
        <ele>1265.7</ele>
        <time>2018-12-27T07:01:34Z</time>
      </trkpt>
      <trkpt lat="42.73601" lon="-0.32181">
        <ele>1266</ele>
        <time>2018-12-27T07:01:36Z</time>
      </trkpt>
      <trkpt lat="42.73596" lon="-0.32178">
        <ele>1266.8</ele>
        <time>2018-12-27T07:01:37Z</time>
      </trkpt>
      <trkpt lat="42.73598" lon="-0.32171">
        <ele>1266.7</ele>
        <time>2018-12-27T07:01:39Z</time>
      </trkpt>
      <trkpt lat="42.736" lon="-0.32165">
        <ele>1266.5</ele>
        <time>2018-12-27T07:01:40Z</time>
      </trkpt>
      <trkpt lat="42.73603" lon="-0.32161">
        <ele>1265.8</ele>
        <time>2018-12-27T07:01:41Z</time>
      </trkpt>
      <trkpt lat="42.73604" lon="-0.32155">
        <ele>1265.2</ele>
        <time>2018-12-27T07:01:42Z</time>
      </trkpt>
      <trkpt lat="42.73607" lon="-0.32149">
        <ele>1263.5</ele>
        <time>2018-12-27T07:01:44Z</time>
      </trkpt>
      <trkpt lat="42.7361" lon="-0.32144">
        <ele>1261.9</ele>
        <time>2018-12-27T07:01:45Z</time>
      </trkpt>
      <trkpt lat="42.73613" lon="-0.32138">
        <ele>1260.4</ele>
        <time>2018-12-27T07:01:47Z</time>
      </trkpt>
      <trkpt lat="42.73615" lon="-0.32132">
        <ele>1257.7</ele>
        <time>2018-12-27T07:01:48Z</time>
      </trkpt>
      <trkpt lat="42.73619" lon="-0.32128">
        <ele>1257.4</ele>
        <time>2018-12-27T07:01:49Z</time>
      </trkpt>
      <trkpt lat="42.73621" lon="-0.32122">
        <ele>1257.4</ele>
        <time>2018-12-27T07:01:50Z</time>
      </trkpt>
      <trkpt lat="42.73622" lon="-0.32115">
        <ele>1257.2</ele>
        <time>2018-12-27T07:01:52Z</time>
      </trkpt>
      <trkpt lat="42.73624" lon="-0.32109">
        <ele>1256.9</ele>
        <time>2018-12-27T07:01:53Z</time>
      </trkpt>
      <trkpt lat="42.73623" lon="-0.32103">
        <ele>1256.4</ele>
        <time>2018-12-27T07:01:54Z</time>
      </trkpt>
      <trkpt lat="42.73628" lon="-0.321">
        <ele>1256.3</ele>
        <time>2018-12-27T07:01:56Z</time>
      </trkpt>
      <trkpt lat="42.73633" lon="-0.32096">
        <ele>1256.4</ele>
        <time>2018-12-27T07:01:57Z</time>
      </trkpt>
      <trkpt lat="42.73636" lon="-0.32092">
        <ele>1256.2</ele>
        <time>2018-12-27T07:01:58Z</time>
      </trkpt>
      <trkpt lat="42.73636" lon="-0.32085">
        <ele>1255.9</ele>
        <time>2018-12-27T07:02:00Z</time>
      </trkpt>
      <trkpt lat="42.73637" lon="-0.32078">
        <ele>1254.7</ele>
        <time>2018-12-27T07:02:01Z</time>
      </trkpt>
      <trkpt lat="42.73639" lon="-0.32073">
        <ele>1253.4</ele>
        <time>2018-12-27T07:02:02Z</time>
      </trkpt>
      <trkpt lat="42.73639" lon="-0.32066">
        <ele>1252</ele>
        <time>2018-12-27T07:02:04Z</time>
      </trkpt>
      <trkpt lat="42.73643" lon="-0.32063">
        <ele>1251.4</ele>
        <time>2018-12-27T07:02:05Z</time>
      </trkpt>
      <trkpt lat="42.73645" lon="-0.32056">
        <ele>1250.7</ele>
        <time>2018-12-27T07:02:06Z</time>
      </trkpt>
      <trkpt lat="42.73649" lon="-0.32055">
        <ele>1250</ele>
        <time>2018-12-27T07:02:07Z</time>
      </trkpt>
      <trkpt lat="42.73654" lon="-0.32051">
        <ele>1248.5</ele>
        <time>2018-12-27T07:02:09Z</time>
      </trkpt>
      <trkpt lat="42.73656" lon="-0.32046">
        <ele>1246.1</ele>
        <time>2018-12-27T07:02:10Z</time>
      </trkpt>
      <trkpt lat="42.73658" lon="-0.3204">
        <ele>1244.2</ele>
        <time>2018-12-27T07:02:11Z</time>
      </trkpt>
      <trkpt lat="42.73658" lon="-0.32033">
        <ele>1242.6</ele>
        <time>2018-12-27T07:02:12Z</time>
      </trkpt>
      <trkpt lat="42.73661" lon="-0.32028">
        <ele>1241.8</ele>
        <time>2018-12-27T07:02:14Z</time>
      </trkpt>
      <trkpt lat="42.73666" lon="-0.3203">
        <ele>1240.2</ele>
        <time>2018-12-27T07:02:15Z</time>
      </trkpt>
      <trkpt lat="42.73664" lon="-0.32024">
        <ele>1238.8</ele>
        <time>2018-12-27T07:02:16Z</time>
      </trkpt>
      <trkpt lat="42.73663" lon="-0.32018">
        <ele>1236.9</ele>
        <time>2018-12-27T07:02:18Z</time>
      </trkpt>
      <trkpt lat="42.73666" lon="-0.32012">
        <ele>1235.6</ele>
        <time>2018-12-27T07:02:19Z</time>
      </trkpt>
      <trkpt lat="42.73671" lon="-0.32011">
        <ele>1235.3</ele>
        <time>2018-12-27T07:02:20Z</time>
      </trkpt>
      <trkpt lat="42.73675" lon="-0.32012">
        <ele>1235.1</ele>
        <time>2018-12-27T07:02:22Z</time>
      </trkpt>
      <trkpt lat="42.73678" lon="-0.32017">
        <ele>1234.2</ele>
        <time>2018-12-27T07:02:23Z</time>
      </trkpt>
      <trkpt lat="42.73679" lon="-0.32024">
        <ele>1231.2</ele>
        <time>2018-12-27T07:02:24Z</time>
      </trkpt>
      <trkpt lat="42.73681" lon="-0.32018">
        <ele>1229.3</ele>
        <time>2018-12-27T07:02:25Z</time>
      </trkpt>
      <trkpt lat="42.73684" lon="-0.32012">
        <ele>1227.5</ele>
        <time>2018-12-27T07:02:27Z</time>
      </trkpt>
      <trkpt lat="42.73688" lon="-0.3201">
        <ele>1226.3</ele>
        <time>2018-12-27T07:02:28Z</time>
      </trkpt>
      <trkpt lat="42.73692" lon="-0.32005">
        <ele>1225.9</ele>
        <time>2018-12-27T07:02:29Z</time>
      </trkpt>
      <trkpt lat="42.73693" lon="-0.31999">
        <ele>1225.6</ele>
        <time>2018-12-27T07:02:31Z</time>
      </trkpt>
      <trkpt lat="42.73691" lon="-0.31993">
        <ele>1225</ele>
        <time>2018-12-27T07:02:32Z</time>
      </trkpt>
      <trkpt lat="42.73693" lon="-0.31986">
        <ele>1224.8</ele>
        <time>2018-12-27T07:02:33Z</time>
      </trkpt>
      <trkpt lat="42.73693" lon="-0.31979">
        <ele>1223.9</ele>
        <time>2018-12-27T07:02:35Z</time>
      </trkpt>
      <trkpt lat="42.73698" lon="-0.31977">
        <ele>1222.8</ele>
        <time>2018-12-27T07:02:36Z</time>
      </trkpt>
      <trkpt lat="42.73701" lon="-0.31973">
        <ele>1221.6</ele>
        <time>2018-12-27T07:02:37Z</time>
      </trkpt>
      <trkpt lat="42.73699" lon="-0.31967">
        <ele>1220.1</ele>
        <time>2018-12-27T07:02:39Z</time>
      </trkpt>
      <trkpt lat="42.73699" lon="-0.31961">
        <ele>1218.6</ele>
        <time>2018-12-27T07:02:40Z</time>
      </trkpt>
      <trkpt lat="42.73704" lon="-0.31962">
        <ele>1215.7</ele>
        <time>2018-12-27T07:02:41Z</time>
      </trkpt>
      <trkpt lat="42.73702" lon="-0.31955">
        <ele>1215.1</ele>
        <time>2018-12-27T07:02:42Z</time>
      </trkpt>
      <trkpt lat="42.73698" lon="-0.31952">
        <ele>1216.3</ele>
        <time>2018-12-27T07:02:44Z</time>
      </trkpt>
      <trkpt lat="42.73693" lon="-0.31953">
        <ele>1215.6</ele>
        <time>2018-12-27T07:02:45Z</time>
      </trkpt>
      <trkpt lat="42.73697" lon="-0.31948">
        <ele>1214</ele>
        <time>2018-12-27T07:02:47Z</time>
      </trkpt>
      <trkpt lat="42.73694" lon="-0.31944">
        <ele>1213.2</ele>
        <time>2018-12-27T07:02:48Z</time>
      </trkpt>
      <trkpt lat="42.73696" lon="-0.31938">
        <ele>1212.6</ele>
        <time>2018-12-27T07:02:49Z</time>
      </trkpt>
      <trkpt lat="42.73694" lon="-0.31931">
        <ele>1211.3</ele>
        <time>2018-12-27T07:02:51Z</time>
      </trkpt>
      <trkpt lat="42.73692" lon="-0.31925">
        <ele>1210.6</ele>
        <time>2018-12-27T07:02:52Z</time>
      </trkpt>
      <trkpt lat="42.73694" lon="-0.31919">
        <ele>1209.6</ele>
        <time>2018-12-27T07:02:53Z</time>
      </trkpt>
      <trkpt lat="42.73698" lon="-0.31915">
        <ele>1208.8</ele>
        <time>2018-12-27T07:02:55Z</time>
      </trkpt>
      <trkpt lat="42.73696" lon="-0.31908">
        <ele>1208.6</ele>
        <time>2018-12-27T07:02:56Z</time>
      </trkpt>
      <trkpt lat="42.73695" lon="-0.319">
        <ele>1208.5</ele>
        <time>2018-12-27T07:02:57Z</time>
      </trkpt>
      <trkpt lat="42.7369" lon="-0.31899">
        <ele>1208.3</ele>
        <time>2018-12-27T07:02:59Z</time>
      </trkpt>
      <trkpt lat="42.73687" lon="-0.31894">
        <ele>1207.6</ele>
        <time>2018-12-27T07:03:00Z</time>
      </trkpt>
      <trkpt lat="42.73689" lon="-0.31887">
        <ele>1207.4</ele>
        <time>2018-12-27T07:03:02Z</time>
      </trkpt>
      <trkpt lat="42.73691" lon="-0.31879">
        <ele>1207.5</ele>
        <time>2018-12-27T07:03:03Z</time>
      </trkpt>
      <trkpt lat="42.73691" lon="-0.31871">
        <ele>1207.6</ele>
        <time>2018-12-27T07:03:05Z</time>
      </trkpt>
      <trkpt lat="42.73694" lon="-0.31864">
        <ele>1207.8</ele>
        <time>2018-12-27T07:03:06Z</time>
      </trkpt>
      <trkpt lat="42.73696" lon="-0.31857">
        <ele>1208</ele>
        <time>2018-12-27T07:03:08Z</time>
      </trkpt>
      <trkpt lat="42.73697" lon="-0.31851">
        <ele>1208.2</ele>
        <time>2018-12-27T07:03:09Z</time>
      </trkpt>
      <trkpt lat="42.73699" lon="-0.31845">
        <ele>1208.3</ele>
        <time>2018-12-27T07:03:10Z</time>
      </trkpt>
      <trkpt lat="42.73702" lon="-0.3184">
        <ele>1208.5</ele>
        <time>2018-12-27T07:03:12Z</time>
      </trkpt>
      <trkpt lat="42.73706" lon="-0.31834">
        <ele>1208.4</ele>
        <time>2018-12-27T07:03:13Z</time>
      </trkpt>
      <trkpt lat="42.73709" lon="-0.31828">
        <ele>1208.3</ele>
        <time>2018-12-27T07:03:14Z</time>
      </trkpt>
      <trkpt lat="42.73713" lon="-0.31824">
        <ele>1208.3</ele>
        <time>2018-12-27T07:03:16Z</time>
      </trkpt>
      <trkpt lat="42.73716" lon="-0.31819">
        <ele>1208.4</ele>
        <time>2018-12-27T07:03:17Z</time>
      </trkpt>
      <trkpt lat="42.73719" lon="-0.31813">
        <ele>1208.7</ele>
        <time>2018-12-27T07:03:19Z</time>
      </trkpt>
      <trkpt lat="42.73717" lon="-0.31807">
        <ele>1208.9</ele>
        <time>2018-12-27T07:03:20Z</time>
      </trkpt>
      <trkpt lat="42.73716" lon="-0.318">
        <ele>1209</ele>
        <time>2018-12-27T07:03:21Z</time>
      </trkpt>
      <trkpt lat="42.73718" lon="-0.31794">
        <ele>1209</ele>
        <time>2018-12-27T07:03:23Z</time>
      </trkpt>
      <trkpt lat="42.73722" lon="-0.3179">
        <ele>1209</ele>
        <time>2018-12-27T07:03:24Z</time>
      </trkpt>
      <trkpt lat="42.73726" lon="-0.31785">
        <ele>1209.1</ele>
        <time>2018-12-27T07:03:25Z</time>
      </trkpt>
      <trkpt lat="42.7373" lon="-0.31781">
        <ele>1209.1</ele>
        <time>2018-12-27T07:03:27Z</time>
      </trkpt>
      <trkpt lat="42.73735" lon="-0.31779">
        <ele>1209.1</ele>
        <time>2018-12-27T07:03:28Z</time>
      </trkpt>
      <trkpt lat="42.73731" lon="-0.31784">
        <ele>1209</ele>
        <time>2018-12-27T07:03:29Z</time>
      </trkpt>
      <trkpt lat="42.73727" lon="-0.3178">
        <ele>1209</ele>
        <time>2018-12-27T07:03:31Z</time>
      </trkpt>
      <trkpt lat="42.73723" lon="-0.31775">
        <ele>1209</ele>
        <time>2018-12-27T07:03:32Z</time>
      </trkpt>
      <trkpt lat="42.73723" lon="-0.31768">
        <ele>1209.1</ele>
        <time>2018-12-27T07:03:33Z</time>
      </trkpt>
      <trkpt lat="42.73724" lon="-0.31762">
        <ele>1209</ele>
        <time>2018-12-27T07:03:35Z</time>
      </trkpt>
      <trkpt lat="42.7358" lon="-0.31416">
        <ele>1175.3</ele>
        <time>2018-12-27T08:15:15Z</time>
      </trkpt>
      <trkpt lat="42.73578" lon="-0.31409">
        <ele>1178.3</ele>
        <time>2018-12-27T08:15:16Z</time>
      </trkpt>
      <trkpt lat="42.73578" lon="-0.3141">
        <ele>1171.5</ele>
        <time>2018-12-27T08:15:16Z</time>
      </trkpt>
      <trkpt lat="42.73578" lon="-0.3141">
        <ele>1175.8</ele>
        <time>2018-12-27T08:15:16Z</time>
      </trkpt>
      <trkpt lat="42.73589" lon="-0.31424">
        <ele>1174.9</ele>
        <time>2018-12-27T08:15:20Z</time>
      </trkpt>
      <trkpt lat="42.73585" lon="-0.31422">
        <ele>1174.9</ele>
        <time>2018-12-27T08:15:21Z</time>
      </trkpt>
      <trkpt lat="42.73586" lon="-0.31416">
        <ele>1174.5</ele>
        <time>2018-12-27T08:15:23Z</time>
      </trkpt>
      <trkpt lat="42.73586" lon="-0.31427">
        <ele>1174.4</ele>
        <time>2018-12-27T08:15:25Z</time>
      </trkpt>
      <trkpt lat="42.73578" lon="-0.31413">
        <ele>1175.4</ele>
        <time>2018-12-27T08:15:28Z</time>
      </trkpt>
      <trkpt lat="42.73555" lon="-0.31435">
        <ele>1170.6</ele>
        <time>2018-12-27T08:15:36Z</time>
      </trkpt>
      <trkpt lat="42.73554" lon="-0.31435">
        <ele>1174.5</ele>
        <time>2018-12-27T08:15:36Z</time>
      </trkpt>
      <trkpt lat="42.73538" lon="-0.31445">
        <ele>1172</ele>
        <time>2018-12-27T08:15:41Z</time>
      </trkpt>
      <trkpt lat="42.73534" lon="-0.31435">
        <ele>1172</ele>
        <time>2018-12-27T08:15:43Z</time>
      </trkpt>
      <trkpt lat="42.73538" lon="-0.31434">
        <ele>1171.5</ele>
        <time>2018-12-27T08:15:44Z</time>
      </trkpt>
      <trkpt lat="42.7353" lon="-0.31433">
        <ele>1171.5</ele>
        <time>2018-12-27T08:15:46Z</time>
      </trkpt>
      <trkpt lat="42.73537" lon="-0.31433">
        <ele>1171.5</ele>
        <time>2018-12-27T08:15:48Z</time>
      </trkpt>
      <trkpt lat="42.73537" lon="-0.31425">
        <ele>1172.1</ele>
        <time>2018-12-27T08:15:50Z</time>
      </trkpt>
      <trkpt lat="42.73495" lon="-0.31336">
        <ele>1167.7</ele>
        <time>2018-12-27T08:16:10Z</time>
      </trkpt>
      <trkpt lat="42.73496" lon="-0.31336">
        <ele>1163.9</ele>
        <time>2018-12-27T08:16:10Z</time>
      </trkpt>
      <trkpt lat="42.73496" lon="-0.31336">
        <ele>1172</ele>
        <time>2018-12-27T08:16:10Z</time>
      </trkpt>
      <trkpt lat="42.73495" lon="-0.31336">
        <ele>1166.3</ele>
        <time>2018-12-27T08:16:10Z</time>
      </trkpt>
      <trkpt lat="42.73501" lon="-0.31302">
        <ele>1165.8</ele>
        <time>2018-12-27T08:16:17Z</time>
      </trkpt>
      <trkpt lat="42.73516" lon="-0.31268">
        <ele>1165.8</ele>
        <time>2018-12-27T08:16:25Z</time>
      </trkpt>
      <trkpt lat="42.73517" lon="-0.31249">
        <ele>1166.7</ele>
        <time>2018-12-27T08:16:29Z</time>
      </trkpt>
      <trkpt lat="42.73526" lon="-0.31245">
        <ele>1166.7</ele>
        <time>2018-12-27T08:16:31Z</time>
      </trkpt>
      <trkpt lat="42.73526" lon="-0.31236">
        <ele>1167.2</ele>
        <time>2018-12-27T08:16:33Z</time>
      </trkpt>
      <trkpt lat="42.73528" lon="-0.31243">
        <ele>1167.2</ele>
        <time>2018-12-27T08:16:35Z</time>
      </trkpt>
      <trkpt lat="42.73537" lon="-0.31247">
        <ele>1166.7</ele>
        <time>2018-12-27T08:16:37Z</time>
      </trkpt>
      <trkpt lat="42.7353" lon="-0.31243">
        <ele>1166.8</ele>
        <time>2018-12-27T08:16:39Z</time>
      </trkpt>
      <trkpt lat="42.73529" lon="-0.31237">
        <ele>1166.8</ele>
        <time>2018-12-27T08:16:40Z</time>
      </trkpt>
      <trkpt lat="42.73533" lon="-0.31245">
        <ele>1166.3</ele>
        <time>2018-12-27T08:16:42Z</time>
      </trkpt>
      <trkpt lat="42.73525" lon="-0.3124">
        <ele>1165.8</ele>
        <time>2018-12-27T08:16:45Z</time>
      </trkpt>
      <trkpt lat="42.73527" lon="-0.31237">
        <ele>1166.3</ele>
        <time>2018-12-27T08:16:45Z</time>
      </trkpt>
      <trkpt lat="42.73531" lon="-0.3124">
        <ele>1165.4</ele>
        <time>2018-12-27T08:16:46Z</time>
      </trkpt>
      <trkpt lat="42.73529" lon="-0.31231">
        <ele>1162.4</ele>
        <time>2018-12-27T08:16:48Z</time>
      </trkpt>
      <trkpt lat="42.73528" lon="-0.3123">
        <ele>1169.1</ele>
        <time>2018-12-27T08:16:48Z</time>
      </trkpt>
      <trkpt lat="42.73505" lon="-0.31219">
        <ele>1166.2</ele>
        <time>2018-12-27T08:16:55Z</time>
      </trkpt>
      <trkpt lat="42.73414" lon="-0.31227">
        <ele>1164.8</ele>
        <time>2018-12-27T08:17:19Z</time>
      </trkpt>
      <trkpt lat="42.7336" lon="-0.31219">
        <ele>1163.3</ele>
        <time>2018-12-27T08:17:34Z</time>
      </trkpt>
      <trkpt lat="42.73345" lon="-0.31214">
        <ele>1165.8</ele>
        <time>2018-12-27T08:17:38Z</time>
      </trkpt>
      <trkpt lat="42.733" lon="-0.31186">
        <ele>1164.8</ele>
        <time>2018-12-27T08:17:51Z</time>
      </trkpt>
      <trkpt lat="42.73296" lon="-0.31183">
        <ele>1161.4</ele>
        <time>2018-12-27T08:17:52Z</time>
      </trkpt>
      <trkpt lat="42.73293" lon="-0.31182">
        <ele>1164.9</ele>
        <time>2018-12-27T08:17:53Z</time>
      </trkpt>
      <trkpt lat="42.73275" lon="-0.31172">
        <ele>1163</ele>
        <time>2018-12-27T08:17:58Z</time>
      </trkpt>
      <trkpt lat="42.73258" lon="-0.3117">
        <ele>1163.3</ele>
        <time>2018-12-27T08:18:03Z</time>
      </trkpt>
      <trkpt lat="42.73255" lon="-0.31153">
        <ele>1163.3</ele>
        <time>2018-12-27T08:18:06Z</time>
      </trkpt>
      <trkpt lat="42.7326" lon="-0.31144">
        <ele>1163.3</ele>
        <time>2018-12-27T08:18:09Z</time>
      </trkpt>
      <trkpt lat="42.73245" lon="-0.31119">
        <ele>1163.3</ele>
        <time>2018-12-27T08:18:15Z</time>
      </trkpt>
      <trkpt lat="42.7324" lon="-0.31126">
        <ele>1163.8</ele>
        <time>2018-12-27T08:18:17Z</time>
      </trkpt>
      <trkpt lat="42.73219" lon="-0.31116">
        <ele>1163.9</ele>
        <time>2018-12-27T08:18:23Z</time>
      </trkpt>
      <trkpt lat="42.73241" lon="-0.31127">
        <ele>1163.9</ele>
        <time>2018-12-27T08:18:29Z</time>
      </trkpt>
      <trkpt lat="42.73241" lon="-0.31149">
        <ele>1163.9</ele>
        <time>2018-12-27T08:18:33Z</time>
      </trkpt>
      <trkpt lat="42.73246" lon="-0.31142">
        <ele>1162.5</ele>
        <time>2018-12-27T08:18:35Z</time>
      </trkpt>
      <trkpt lat="42.73268" lon="-0.31157">
        <ele>1163</ele>
        <time>2018-12-27T08:18:42Z</time>
      </trkpt>
      <trkpt lat="42.73241" lon="-0.31144">
        <ele>1162.9</ele>
        <time>2018-12-27T08:18:49Z</time>
      </trkpt>
      <trkpt lat="42.73208" lon="-0.31114">
        <ele>1160</ele>
        <time>2018-12-27T08:19:00Z</time>
      </trkpt>
      <trkpt lat="42.73176" lon="-0.31095">
        <ele>1159.5</ele>
        <time>2018-12-27T08:19:09Z</time>
      </trkpt>
      <trkpt lat="42.73081" lon="-0.31016">
        <ele>1155.6</ele>
        <time>2018-12-27T08:19:39Z</time>
      </trkpt>
      <trkpt lat="42.73082" lon="-0.30993">
        <ele>1154.2</ele>
        <time>2018-12-27T08:19:43Z</time>
      </trkpt>
      <trkpt lat="42.73089" lon="-0.30984">
        <ele>1151.4</ele>
        <time>2018-12-27T08:19:46Z</time>
      </trkpt>
      <trkpt lat="42.73082" lon="-0.30929">
        <ele>1132.7</ele>
        <time>2018-12-27T08:19:57Z</time>
      </trkpt>
      <trkpt lat="42.73081" lon="-0.30929">
        <ele>1138.8</ele>
        <time>2018-12-27T08:19:57Z</time>
      </trkpt>
      <trkpt lat="42.7308" lon="-0.30929">
        <ele>1135.1</ele>
        <time>2018-12-27T08:19:58Z</time>
      </trkpt>
      <trkpt lat="42.73073" lon="-0.30917">
        <ele>1134.1</ele>
        <time>2018-12-27T08:20:01Z</time>
      </trkpt>
      <trkpt lat="42.73032" lon="-0.30895">
        <ele>1131.1</ele>
        <time>2018-12-27T08:20:12Z</time>
      </trkpt>
      <trkpt lat="42.73027" lon="-0.30881">
        <ele>1131.7</ele>
        <time>2018-12-27T08:20:15Z</time>
      </trkpt>
      <trkpt lat="42.73035" lon="-0.30866">
        <ele>1130.7</ele>
        <time>2018-12-27T08:20:19Z</time>
      </trkpt>
      <trkpt lat="42.73035" lon="-0.30843">
        <ele>1131.7</ele>
        <time>2018-12-27T08:20:24Z</time>
      </trkpt>
      <trkpt lat="42.72997" lon="-0.308">
        <ele>1130.6</ele>
        <time>2018-12-27T08:20:37Z</time>
      </trkpt>
      <trkpt lat="42.72984" lon="-0.30776">
        <ele>1133.1</ele>
        <time>2018-12-27T08:20:43Z</time>
      </trkpt>
      <trkpt lat="42.72965" lon="-0.30763">
        <ele>1133.6</ele>
        <time>2018-12-27T08:20:48Z</time>
      </trkpt>
      <trkpt lat="42.72959" lon="-0.30742">
        <ele>1135.1</ele>
        <time>2018-12-27T08:20:53Z</time>
      </trkpt>
      <trkpt lat="42.72962" lon="-0.30697">
        <ele>1136.4</ele>
        <time>2018-12-27T08:21:01Z</time>
      </trkpt>
      <trkpt lat="42.72989" lon="-0.30603">
        <ele>1137.9</ele>
        <time>2018-12-27T08:21:21Z</time>
      </trkpt>
      <trkpt lat="42.72996" lon="-0.30562">
        <ele>1139.9</ele>
        <time>2018-12-27T08:21:29Z</time>
      </trkpt>
      <trkpt lat="42.72984" lon="-0.30453">
        <ele>1140.4</ele>
        <time>2018-12-27T08:21:51Z</time>
      </trkpt>
      <trkpt lat="42.73004" lon="-0.30375">
        <ele>1143.1</ele>
        <time>2018-12-27T08:22:07Z</time>
      </trkpt>
      <trkpt lat="42.73007" lon="-0.30401">
        <ele>1145.5</ele>
        <time>2018-12-27T08:22:12Z</time>
      </trkpt>
      <trkpt lat="42.73015" lon="-0.30404">
        <ele>1148.9</ele>
        <time>2018-12-27T08:22:14Z</time>
      </trkpt>
      <trkpt lat="42.73017" lon="-0.30399">
        <ele>1148.4</ele>
        <time>2018-12-27T08:22:16Z</time>
      </trkpt>
      <trkpt lat="42.73016" lon="-0.30337">
        <ele>1155.6</ele>
        <time>2018-12-27T08:22:28Z</time>
      </trkpt>
      <trkpt lat="42.73019" lon="-0.30333">
        <ele>1156.2</ele>
        <time>2018-12-27T08:22:29Z</time>
      </trkpt>
      <trkpt lat="42.73023" lon="-0.30336">
        <ele>1156.6</ele>
        <time>2018-12-27T08:22:30Z</time>
      </trkpt>
      <trkpt lat="42.73033" lon="-0.30354">
        <ele>1155.6</ele>
        <time>2018-12-27T08:22:35Z</time>
      </trkpt>
      <trkpt lat="42.73046" lon="-0.30411">
        <ele>1162.4</ele>
        <time>2018-12-27T08:22:46Z</time>
      </trkpt>
      <trkpt lat="42.73047" lon="-0.3041">
        <ele>1166.3</ele>
        <time>2018-12-27T08:22:46Z</time>
      </trkpt>
      <trkpt lat="42.73053" lon="-0.30401">
        <ele>1167.8</ele>
        <time>2018-12-27T08:22:49Z</time>
      </trkpt>
      <trkpt lat="42.73052" lon="-0.30379">
        <ele>1169.6</ele>
        <time>2018-12-27T08:22:53Z</time>
      </trkpt>
      <trkpt lat="42.73051" lon="-0.30375">
        <ele>1165.8</ele>
        <time>2018-12-27T08:22:54Z</time>
      </trkpt>
      <trkpt lat="42.73051" lon="-0.30373">
        <ele>1170.1</ele>
        <time>2018-12-27T08:22:54Z</time>
      </trkpt>
      <trkpt lat="42.73049" lon="-0.30338">
        <ele>1173.4</ele>
        <time>2018-12-27T08:23:01Z</time>
      </trkpt>
      <trkpt lat="42.73059" lon="-0.30349">
        <ele>1175.8</ele>
        <time>2018-12-27T08:23:05Z</time>
      </trkpt>
      <trkpt lat="42.73067" lon="-0.30373">
        <ele>1175.4</ele>
        <time>2018-12-27T08:23:10Z</time>
      </trkpt>
      <trkpt lat="42.73081" lon="-0.30396">
        <ele>1181.6</ele>
        <time>2018-12-27T08:23:16Z</time>
      </trkpt>
      <trkpt lat="42.73086" lon="-0.30416">
        <ele>1180.7</ele>
        <time>2018-12-27T08:23:20Z</time>
      </trkpt>
      <trkpt lat="42.73082" lon="-0.30448">
        <ele>1182.1</ele>
        <time>2018-12-27T08:23:26Z</time>
      </trkpt>
      <trkpt lat="42.73084" lon="-0.30462">
        <ele>1185.5</ele>
        <time>2018-12-27T08:23:29Z</time>
      </trkpt>
      <trkpt lat="42.73086" lon="-0.30467">
        <ele>1181.7</ele>
        <time>2018-12-27T08:23:30Z</time>
      </trkpt>
      <trkpt lat="42.73085" lon="-0.30482">
        <ele>1188.4</ele>
        <time>2018-12-27T08:23:33Z</time>
      </trkpt>
      <trkpt lat="42.73093" lon="-0.30503">
        <ele>1190.7</ele>
        <time>2018-12-27T08:23:38Z</time>
      </trkpt>
      <trkpt lat="42.73093" lon="-0.30504">
        <ele>1187.5</ele>
        <time>2018-12-27T08:23:38Z</time>
      </trkpt>
      <trkpt lat="42.73093" lon="-0.30505">
        <ele>1192.7</ele>
        <time>2018-12-27T08:23:38Z</time>
      </trkpt>
      <trkpt lat="42.73099" lon="-0.30515">
        <ele>1192.7</ele>
        <time>2018-12-27T08:23:41Z</time>
      </trkpt>
      <trkpt lat="42.73079" lon="-0.30472">
        <ele>1185.4</ele>
        <time>2018-12-27T08:23:51Z</time>
      </trkpt>
      <trkpt lat="42.73094" lon="-0.30448">
        <ele>1188.4</ele>
        <time>2018-12-27T08:23:57Z</time>
      </trkpt>
      <trkpt lat="42.73096" lon="-0.30417">
        <ele>1191.3</ele>
        <time>2018-12-27T08:24:03Z</time>
      </trkpt>
      <trkpt lat="42.73096" lon="-0.30412">
        <ele>1187.9</ele>
        <time>2018-12-27T08:24:04Z</time>
      </trkpt>
      <trkpt lat="42.73097" lon="-0.30409">
        <ele>1191.8</ele>
        <time>2018-12-27T08:24:04Z</time>
      </trkpt>
      <trkpt lat="42.731" lon="-0.30389">
        <ele>1192.8</ele>
        <time>2018-12-27T08:24:09Z</time>
      </trkpt>
      <trkpt lat="42.73095" lon="-0.3034">
        <ele>1197.6</ele>
        <time>2018-12-27T08:24:18Z</time>
      </trkpt>
      <trkpt lat="42.73085" lon="-0.30322">
        <ele>1200.3</ele>
        <time>2018-12-27T08:24:23Z</time>
      </trkpt>
      <trkpt lat="42.73077" lon="-0.30295">
        <ele>1201.4</ele>
        <time>2018-12-27T08:24:28Z</time>
      </trkpt>
      <trkpt lat="42.73082" lon="-0.30281">
        <ele>1205.1</ele>
        <time>2018-12-27T08:24:31Z</time>
      </trkpt>
      <trkpt lat="42.73087" lon="-0.30279">
        <ele>1204.2</ele>
        <time>2018-12-27T08:24:33Z</time>
      </trkpt>
      <trkpt lat="42.73123" lon="-0.30345">
        <ele>1208.6</ele>
        <time>2018-12-27T08:24:49Z</time>
      </trkpt>
      <trkpt lat="42.73128" lon="-0.30383">
        <ele>1210.5</ele>
        <time>2018-12-27T08:24:56Z</time>
      </trkpt>
      <trkpt lat="42.73129" lon="-0.30431">
        <ele>1214.9</ele>
        <time>2018-12-27T08:25:06Z</time>
      </trkpt>
      <trkpt lat="42.73135" lon="-0.30452">
        <ele>1215.7</ele>
        <time>2018-12-27T08:25:10Z</time>
      </trkpt>
      <trkpt lat="42.73163" lon="-0.3052">
        <ele>1223.4</ele>
        <time>2018-12-27T08:25:25Z</time>
      </trkpt>
      <trkpt lat="42.73201" lon="-0.30584">
        <ele>1230.2</ele>
        <time>2018-12-27T08:25:41Z</time>
      </trkpt>
      <trkpt lat="42.73207" lon="-0.30607">
        <ele>1231.2</ele>
        <time>2018-12-27T08:25:46Z</time>
      </trkpt>
      <trkpt lat="42.73209" lon="-0.30709">
        <ele>1240.8</ele>
        <time>2018-12-27T08:26:06Z</time>
      </trkpt>
      <trkpt lat="42.73219" lon="-0.30705">
        <ele>1241.3</ele>
        <time>2018-12-27T08:26:09Z</time>
      </trkpt>
      <trkpt lat="42.73227" lon="-0.30652">
        <ele>1244.6</ele>
        <time>2018-12-27T08:26:20Z</time>
      </trkpt>
      <trkpt lat="42.73226" lon="-0.30559">
        <ele>1253.7</ele>
        <time>2018-12-27T08:26:38Z</time>
      </trkpt>
      <trkpt lat="42.73231" lon="-0.30556">
        <ele>1253.2</ele>
        <time>2018-12-27T08:26:39Z</time>
      </trkpt>
      <trkpt lat="42.73231" lon="-0.30557">
        <ele>1257.2</ele>
        <time>2018-12-27T08:26:39Z</time>
      </trkpt>
      <trkpt lat="42.73236" lon="-0.30562">
        <ele>1254.8</ele>
        <time>2018-12-27T08:26:41Z</time>
      </trkpt>
      <trkpt lat="42.73244" lon="-0.30617">
        <ele>1260.4</ele>
        <time>2018-12-27T08:26:52Z</time>
      </trkpt>
      <trkpt lat="42.73265" lon="-0.30679">
        <ele>1266.8</ele>
        <time>2018-12-27T08:27:05Z</time>
      </trkpt>
      <trkpt lat="42.73278" lon="-0.30697">
        <ele>1269.2</ele>
        <time>2018-12-27T08:27:10Z</time>
      </trkpt>
      <trkpt lat="42.73281" lon="-0.3069">
        <ele>1268.2</ele>
        <time>2018-12-27T08:27:12Z</time>
      </trkpt>
      <trkpt lat="42.73278" lon="-0.30677">
        <ele>1274.4</ele>
        <time>2018-12-27T08:27:15Z</time>
      </trkpt>
      <trkpt lat="42.73278" lon="-0.30619">
        <ele>1274</ele>
        <time>2018-12-27T08:27:26Z</time>
      </trkpt>
      <trkpt lat="42.73278" lon="-0.30618">
        <ele>1277.7</ele>
        <time>2018-12-27T08:27:26Z</time>
      </trkpt>
      <trkpt lat="42.73278" lon="-0.30617">
        <ele>1274.4</ele>
        <time>2018-12-27T08:27:26Z</time>
      </trkpt>
      <trkpt lat="42.73277" lon="-0.30611">
        <ele>1278.8</ele>
        <time>2018-12-27T08:27:27Z</time>
      </trkpt>
      <trkpt lat="42.73277" lon="-0.30608">
        <ele>1274.8</ele>
        <time>2018-12-27T08:27:28Z</time>
      </trkpt>
      <trkpt lat="42.73276" lon="-0.3058">
        <ele>1278.8</ele>
        <time>2018-12-27T08:27:34Z</time>
      </trkpt>
      <trkpt lat="42.73278" lon="-0.30565">
        <ele>1279.8</ele>
        <time>2018-12-27T08:27:37Z</time>
      </trkpt>
      <trkpt lat="42.7329" lon="-0.30557">
        <ele>1280.7</ele>
        <time>2018-12-27T08:27:40Z</time>
      </trkpt>
      <trkpt lat="42.73299" lon="-0.30567">
        <ele>1281.6</ele>
        <time>2018-12-27T08:27:43Z</time>
      </trkpt>
      <trkpt lat="42.73308" lon="-0.30649">
        <ele>1285</ele>
        <time>2018-12-27T08:28:00Z</time>
      </trkpt>
      <trkpt lat="42.73318" lon="-0.30679">
        <ele>1286.4</ele>
        <time>2018-12-27T08:28:06Z</time>
      </trkpt>
      <trkpt lat="42.7334" lon="-0.30709">
        <ele>1285.4</ele>
        <time>2018-12-27T08:28:14Z</time>
      </trkpt>
      <trkpt lat="42.73361" lon="-0.3072">
        <ele>1285.9</ele>
        <time>2018-12-27T08:28:20Z</time>
      </trkpt>
      <trkpt lat="42.73376" lon="-0.30735">
        <ele>1284.9</ele>
        <time>2018-12-27T08:28:25Z</time>
      </trkpt>
      <trkpt lat="42.73389" lon="-0.3076">
        <ele>1283.5</ele>
        <time>2018-12-27T08:28:31Z</time>
      </trkpt>
      <trkpt lat="42.734" lon="-0.30798">
        <ele>1281.6</ele>
        <time>2018-12-27T08:28:39Z</time>
      </trkpt>
      <trkpt lat="42.73413" lon="-0.30812">
        <ele>1281.2</ele>
        <time>2018-12-27T08:28:44Z</time>
      </trkpt>
      <trkpt lat="42.73426" lon="-0.30811">
        <ele>1278.7</ele>
        <time>2018-12-27T08:28:47Z</time>
      </trkpt>
      <trkpt lat="42.7346" lon="-0.30794">
        <ele>1278.3</ele>
        <time>2018-12-27T08:28:57Z</time>
      </trkpt>
      <trkpt lat="42.73488" lon="-0.30759">
        <ele>1280.7</ele>
        <time>2018-12-27T08:29:07Z</time>
      </trkpt>
      <trkpt lat="42.73529" lon="-0.30729">
        <ele>1279.3</ele>
        <time>2018-12-27T08:29:19Z</time>
      </trkpt>
      <trkpt lat="42.73572" lon="-0.30729">
        <ele>1276.4</ele>
        <time>2018-12-27T08:29:31Z</time>
      </trkpt>
      <trkpt lat="42.73593" lon="-0.30735">
        <ele>1275.9</ele>
        <time>2018-12-27T08:29:37Z</time>
      </trkpt>
      <trkpt lat="42.73625" lon="-0.30764">
        <ele>1278.2</ele>
        <time>2018-12-27T08:29:47Z</time>
      </trkpt>
      <trkpt lat="42.73665" lon="-0.30771">
        <ele>1277.2</ele>
        <time>2018-12-27T08:29:58Z</time>
      </trkpt>
      <trkpt lat="42.737" lon="-0.30792">
        <ele>1278.8</ele>
        <time>2018-12-27T08:30:08Z</time>
      </trkpt>
      <trkpt lat="42.7372" lon="-0.30799">
        <ele>1279.7</ele>
        <time>2018-12-27T08:30:14Z</time>
      </trkpt>
      <trkpt lat="42.73747" lon="-0.30821">
        <ele>1281.7</ele>
        <time>2018-12-27T08:30:22Z</time>
      </trkpt>
      <trkpt lat="42.73767" lon="-0.30821">
        <ele>1285.4</ele>
        <time>2018-12-27T08:30:27Z</time>
      </trkpt>
      <trkpt lat="42.73784" lon="-0.30828">
        <ele>1286.9</ele>
        <time>2018-12-27T08:30:32Z</time>
      </trkpt>
      <trkpt lat="42.73785" lon="-0.30828">
        <ele>1290.2</ele>
        <time>2018-12-27T08:30:32Z</time>
      </trkpt>
      <trkpt lat="42.73793" lon="-0.30829">
        <ele>1290.8</ele>
        <time>2018-12-27T08:30:34Z</time>
      </trkpt>
      <trkpt lat="42.73795" lon="-0.3083">
        <ele>1287.4</ele>
        <time>2018-12-27T08:30:35Z</time>
      </trkpt>
      <trkpt lat="42.73796" lon="-0.3083">
        <ele>1291.8</ele>
        <time>2018-12-27T08:30:35Z</time>
      </trkpt>
      <trkpt lat="42.73811" lon="-0.30834">
        <ele>1291.7</ele>
        <time>2018-12-27T08:30:39Z</time>
      </trkpt>
      <trkpt lat="42.73838" lon="-0.30856">
        <ele>1296.5</ele>
        <time>2018-12-27T08:30:48Z</time>
      </trkpt>
      <trkpt lat="42.73843" lon="-0.30857">
        <ele>1293.7</ele>
        <time>2018-12-27T08:30:49Z</time>
      </trkpt>
      <trkpt lat="42.73844" lon="-0.30858">
        <ele>1303.2</ele>
        <time>2018-12-27T08:30:49Z</time>
      </trkpt>
      <trkpt lat="42.73848" lon="-0.30861">
        <ele>1295.5</ele>
        <time>2018-12-27T08:30:51Z</time>
      </trkpt>
      <trkpt lat="42.7385" lon="-0.30863">
        <ele>1302.8</ele>
        <time>2018-12-27T08:30:51Z</time>
      </trkpt>
      <trkpt lat="42.73851" lon="-0.30863">
        <ele>1298.4</ele>
        <time>2018-12-27T08:30:51Z</time>
      </trkpt>
      <trkpt lat="42.73865" lon="-0.30879">
        <ele>1302.3</ele>
        <time>2018-12-27T08:30:56Z</time>
      </trkpt>
      <trkpt lat="42.73877" lon="-0.3088">
        <ele>1302.2</ele>
        <time>2018-12-27T08:31:00Z</time>
      </trkpt>
      <trkpt lat="42.73878" lon="-0.30888">
        <ele>1304.3</ele>
        <time>2018-12-27T08:31:01Z</time>
      </trkpt>
      <trkpt lat="42.73887" lon="-0.30894">
        <ele>1302.2</ele>
        <time>2018-12-27T08:31:04Z</time>
      </trkpt>
      <trkpt lat="42.73888" lon="-0.30894">
        <ele>1305.6</ele>
        <time>2018-12-27T08:31:04Z</time>
      </trkpt>
      <trkpt lat="42.739" lon="-0.30907">
        <ele>1309.9</ele>
        <time>2018-12-27T08:31:08Z</time>
      </trkpt>
      <trkpt lat="42.739" lon="-0.30908">
        <ele>1300.8</ele>
        <time>2018-12-27T08:31:08Z</time>
      </trkpt>
      <trkpt lat="42.73901" lon="-0.30908">
        <ele>1309.5</ele>
        <time>2018-12-27T08:31:09Z</time>
      </trkpt>
      <trkpt lat="42.73904" lon="-0.30911">
        <ele>1303.8</ele>
        <time>2018-12-27T08:31:09Z</time>
      </trkpt>
      <trkpt lat="42.73904" lon="-0.30912">
        <ele>1311.9</ele>
        <time>2018-12-27T08:31:10Z</time>
      </trkpt>
      <trkpt lat="42.73907" lon="-0.30913">
        <ele>1302.3</ele>
        <time>2018-12-27T08:31:10Z</time>
      </trkpt>
      <trkpt lat="42.73907" lon="-0.30914">
        <ele>1313.9</ele>
        <time>2018-12-27T08:31:11Z</time>
      </trkpt>
      <trkpt lat="42.73909" lon="-0.30915">
        <ele>1303.7</ele>
        <time>2018-12-27T08:31:11Z</time>
      </trkpt>
      <trkpt lat="42.73909" lon="-0.30916">
        <ele>1313.3</ele>
        <time>2018-12-27T08:31:11Z</time>
      </trkpt>
      <trkpt lat="42.7391" lon="-0.30917">
        <ele>1304.6</ele>
        <time>2018-12-27T08:31:12Z</time>
      </trkpt>
      <trkpt lat="42.73913" lon="-0.3092">
        <ele>1314.7</ele>
        <time>2018-12-27T08:31:12Z</time>
      </trkpt>
      <trkpt lat="42.73914" lon="-0.30921">
        <ele>1309.5</ele>
        <time>2018-12-27T08:31:13Z</time>
      </trkpt>
      <trkpt lat="42.73923" lon="-0.30928">
        <ele>1309.5</ele>
        <time>2018-12-27T08:31:16Z</time>
      </trkpt>
      <trkpt lat="42.73929" lon="-0.30936">
        <ele>1312.8</ele>
        <time>2018-12-27T08:31:18Z</time>
      </trkpt>
      <trkpt lat="42.73938" lon="-0.30944">
        <ele>1311.4</ele>
        <time>2018-12-27T08:31:21Z</time>
      </trkpt>
      <trkpt lat="42.73939" lon="-0.30944">
        <ele>1314.8</ele>
        <time>2018-12-27T08:31:21Z</time>
      </trkpt>
      <trkpt lat="42.73962" lon="-0.30957">
        <ele>1314.4</ele>
        <time>2018-12-27T08:31:28Z</time>
      </trkpt>
      <trkpt lat="42.73976" lon="-0.30972">
        <ele>1317.7</ele>
        <time>2018-12-27T08:31:32Z</time>
      </trkpt>
      <trkpt lat="42.73981" lon="-0.30974">
        <ele>1317.1</ele>
        <time>2018-12-27T08:31:34Z</time>
      </trkpt>
      <trkpt lat="42.73989" lon="-0.30985">
        <ele>1317.2</ele>
        <time>2018-12-27T08:31:37Z</time>
      </trkpt>
      <trkpt lat="42.73997" lon="-0.31028">
        <ele>1319.2</ele>
        <time>2018-12-27T08:31:46Z</time>
      </trkpt>
      <trkpt lat="42.74017" lon="-0.31041">
        <ele>1320</ele>
        <time>2018-12-27T08:31:51Z</time>
      </trkpt>
      <trkpt lat="42.74016" lon="-0.31046">
        <ele>1318.6</ele>
        <time>2018-12-27T08:31:53Z</time>
      </trkpt>
      <trkpt lat="42.74029" lon="-0.31051">
        <ele>1318.2</ele>
        <time>2018-12-27T08:31:56Z</time>
      </trkpt>
      <trkpt lat="42.74099" lon="-0.31027">
        <ele>1313.8</ele>
        <time>2018-12-27T08:32:15Z</time>
      </trkpt>
      <trkpt lat="42.74143" lon="-0.30987">
        <ele>1311.4</ele>
        <time>2018-12-27T08:32:30Z</time>
      </trkpt>
      <trkpt lat="42.74153" lon="-0.30966">
        <ele>1309.5</ele>
        <time>2018-12-27T08:32:34Z</time>
      </trkpt>
      <trkpt lat="42.7416" lon="-0.3092">
        <ele>1307.5</ele>
        <time>2018-12-27T08:32:44Z</time>
      </trkpt>
      <trkpt lat="42.74176" lon="-0.30882">
        <ele>1305.6</ele>
        <time>2018-12-27T08:32:52Z</time>
      </trkpt>
      <trkpt lat="42.74195" lon="-0.30863">
        <ele>1304.7</ele>
        <time>2018-12-27T08:32:59Z</time>
      </trkpt>
      <trkpt lat="42.74208" lon="-0.30834">
        <ele>1302.7</ele>
        <time>2018-12-27T08:33:05Z</time>
      </trkpt>
      <trkpt lat="42.74211" lon="-0.30783">
        <ele>1303.2</ele>
        <time>2018-12-27T08:33:15Z</time>
      </trkpt>
      <trkpt lat="42.74194" lon="-0.3071">
        <ele>1300.8</ele>
        <time>2018-12-27T08:33:30Z</time>
      </trkpt>
      <trkpt lat="42.74193" lon="-0.30686">
        <ele>1300.8</ele>
        <time>2018-12-27T08:33:35Z</time>
      </trkpt>
      <trkpt lat="42.74199" lon="-0.30663">
        <ele>1299.8</ele>
        <time>2018-12-27T08:33:40Z</time>
      </trkpt>
      <trkpt lat="42.74217" lon="-0.30642">
        <ele>1299.9</ele>
        <time>2018-12-27T08:33:46Z</time>
      </trkpt>
      <trkpt lat="42.74231" lon="-0.30635">
        <ele>1299.9</ele>
        <time>2018-12-27T08:33:50Z</time>
      </trkpt>
      <trkpt lat="42.74264" lon="-0.30651">
        <ele>1300.4</ele>
        <time>2018-12-27T08:33:59Z</time>
      </trkpt>
      <trkpt lat="42.74286" lon="-0.30643">
        <ele>1300.3</ele>
        <time>2018-12-27T08:34:05Z</time>
      </trkpt>
      <trkpt lat="42.74297" lon="-0.30645">
        <ele>1300.9</ele>
        <time>2018-12-27T08:34:08Z</time>
      </trkpt>
      <trkpt lat="42.74296" lon="-0.30636">
        <ele>1300.9</ele>
        <time>2018-12-27T08:34:10Z</time>
      </trkpt>
      <trkpt lat="42.74312" lon="-0.3062">
        <ele>1300.9</ele>
        <time>2018-12-27T08:34:15Z</time>
      </trkpt>
      <trkpt lat="42.74334" lon="-0.30614">
        <ele>1302.3</ele>
        <time>2018-12-27T08:34:21Z</time>
      </trkpt>
      <trkpt lat="42.7437" lon="-0.30625">
        <ele>1302.2</ele>
        <time>2018-12-27T08:34:31Z</time>
      </trkpt>
      <trkpt lat="42.74389" lon="-0.30623">
        <ele>1304.6</ele>
        <time>2018-12-27T08:34:36Z</time>
      </trkpt>
      <trkpt lat="42.7441" lon="-0.30613">
        <ele>1305.1</ele>
        <time>2018-12-27T08:34:42Z</time>
      </trkpt>
      <trkpt lat="42.74447" lon="-0.30611">
        <ele>1307</ele>
        <time>2018-12-27T08:34:52Z</time>
      </trkpt>
      <trkpt lat="42.74455" lon="-0.3062">
        <ele>1308.1</ele>
        <time>2018-12-27T08:34:55Z</time>
      </trkpt>
      <trkpt lat="42.74506" lon="-0.30632">
        <ele>1309</ele>
        <time>2018-12-27T08:35:09Z</time>
      </trkpt>
      <trkpt lat="42.74548" lon="-0.30653">
        <ele>1311</ele>
        <time>2018-12-27T08:35:21Z</time>
      </trkpt>
      <trkpt lat="42.74583" lon="-0.30688">
        <ele>1312.3</ele>
        <time>2018-12-27T08:35:32Z</time>
      </trkpt>
      <trkpt lat="42.74625" lon="-0.30745">
        <ele>1313.8</ele>
        <time>2018-12-27T08:35:48Z</time>
      </trkpt>
      <trkpt lat="42.74655" lon="-0.30766">
        <ele>1313.9</ele>
        <time>2018-12-27T08:35:57Z</time>
      </trkpt>
      <trkpt lat="42.74717" lon="-0.30775">
        <ele>1310.4</ele>
        <time>2018-12-27T08:36:14Z</time>
      </trkpt>
      <trkpt lat="42.74737" lon="-0.30782">
        <ele>1310.9</ele>
        <time>2018-12-27T08:36:19Z</time>
      </trkpt>
      <trkpt lat="42.74751" lon="-0.30792">
        <ele>1310.9</ele>
        <time>2018-12-27T08:36:23Z</time>
      </trkpt>
      <trkpt lat="42.74813" lon="-0.3085">
        <ele>1311</ele>
        <time>2018-12-27T08:36:44Z</time>
      </trkpt>
      <trkpt lat="42.74815" lon="-0.30859">
        <ele>1311.5</ele>
        <time>2018-12-27T08:36:45Z</time>
      </trkpt>
      <trkpt lat="42.74806" lon="-0.30872">
        <ele>1310.9</ele>
        <time>2018-12-27T08:36:49Z</time>
      </trkpt>
      <trkpt lat="42.74871" lon="-0.30857">
        <ele>1310</ele>
        <time>2018-12-27T08:37:07Z</time>
      </trkpt>
      <trkpt lat="42.74878" lon="-0.30849">
        <ele>1309.9</ele>
        <time>2018-12-27T08:37:09Z</time>
      </trkpt>
      <trkpt lat="42.74897" lon="-0.30841">
        <ele>1309.6</ele>
        <time>2018-12-27T08:37:14Z</time>
      </trkpt>
      <trkpt lat="42.74917" lon="-0.30843">
        <ele>1309</ele>
        <time>2018-12-27T08:37:20Z</time>
      </trkpt>
      <trkpt lat="42.74994" lon="-0.30876">
        <ele>1308</ele>
        <time>2018-12-27T08:37:41Z</time>
      </trkpt>
      <trkpt lat="42.75039" lon="-0.30926">
        <ele>1303.8</ele>
        <time>2018-12-27T08:37:57Z</time>
      </trkpt>
      <trkpt lat="42.75053" lon="-0.30934">
        <ele>1303.7</ele>
        <time>2018-12-27T08:38:01Z</time>
      </trkpt>
      <trkpt lat="42.75115" lon="-0.30952">
        <ele>1303.7</ele>
        <time>2018-12-27T08:38:18Z</time>
      </trkpt>
      <trkpt lat="42.75172" lon="-0.30979">
        <ele>1301.8</ele>
        <time>2018-12-27T08:38:34Z</time>
      </trkpt>
      <trkpt lat="42.752" lon="-0.30984">
        <ele>1302.2</ele>
        <time>2018-12-27T08:38:41Z</time>
      </trkpt>
      <trkpt lat="42.75222" lon="-0.30994">
        <ele>1302.8</ele>
        <time>2018-12-27T08:38:48Z</time>
      </trkpt>
      <trkpt lat="42.75261" lon="-0.3103">
        <ele>1303.3</ele>
        <time>2018-12-27T08:39:00Z</time>
      </trkpt>
      <trkpt lat="42.75326" lon="-0.31102">
        <ele>1305.2</ele>
        <time>2018-12-27T08:39:22Z</time>
      </trkpt>
      <trkpt lat="42.7539" lon="-0.31137">
        <ele>1303.7</ele>
        <time>2018-12-27T08:39:41Z</time>
      </trkpt>
      <trkpt lat="42.75436" lon="-0.31224">
        <ele>1306.2</ele>
        <time>2018-12-27T08:40:02Z</time>
      </trkpt>
      <trkpt lat="42.75499" lon="-0.31281">
        <ele>1305.6</ele>
        <time>2018-12-27T08:40:22Z</time>
      </trkpt>
      <trkpt lat="42.75557" lon="-0.3135">
        <ele>1305.1</ele>
        <time>2018-12-27T08:40:43Z</time>
      </trkpt>
      <trkpt lat="42.75634" lon="-0.31391">
        <ele>1307.5</ele>
        <time>2018-12-27T08:41:05Z</time>
      </trkpt>
      <trkpt lat="42.75651" lon="-0.31394">
        <ele>1309</ele>
        <time>2018-12-27T08:41:09Z</time>
      </trkpt>
      <trkpt lat="42.75671" lon="-0.31386">
        <ele>1309.6</ele>
        <time>2018-12-27T08:41:15Z</time>
      </trkpt>
      <trkpt lat="42.75718" lon="-0.31339">
        <ele>1309</ele>
        <time>2018-12-27T08:41:30Z</time>
      </trkpt>
      <trkpt lat="42.75738" lon="-0.3134">
        <ele>1309</ele>
        <time>2018-12-27T08:41:36Z</time>
      </trkpt>
      <trkpt lat="42.75752" lon="-0.31358">
        <ele>1309.5</ele>
        <time>2018-12-27T08:41:41Z</time>
      </trkpt>
      <trkpt lat="42.75743" lon="-0.31429">
        <ele>1306.2</ele>
        <time>2018-12-27T08:41:55Z</time>
      </trkpt>
      <trkpt lat="42.75746" lon="-0.31442">
        <ele>1304.6</ele>
        <time>2018-12-27T08:41:58Z</time>
      </trkpt>
      <trkpt lat="42.75794" lon="-0.31489">
        <ele>1301.4</ele>
        <time>2018-12-27T08:42:13Z</time>
      </trkpt>
      <trkpt lat="42.75816" lon="-0.31529">
        <ele>1298.9</ele>
        <time>2018-12-27T08:42:23Z</time>
      </trkpt>
      <trkpt lat="42.75841" lon="-0.31557">
        <ele>1298.5</ele>
        <time>2018-12-27T08:42:32Z</time>
      </trkpt>
      <trkpt lat="42.75843" lon="-0.31575">
        <ele>1299.4</ele>
        <time>2018-12-27T08:42:35Z</time>
      </trkpt>
      <trkpt lat="42.7593" lon="-0.31654">
        <ele>1298.4</ele>
        <time>2018-12-27T08:43:03Z</time>
      </trkpt>
      <trkpt lat="42.76007" lon="-0.31742">
        <ele>1296.5</ele>
        <time>2018-12-27T08:43:30Z</time>
      </trkpt>
      <trkpt lat="42.7603" lon="-0.31792">
        <ele>1295.1</ele>
        <time>2018-12-27T08:43:42Z</time>
      </trkpt>
      <trkpt lat="42.76074" lon="-0.3186">
        <ele>1295</ele>
        <time>2018-12-27T08:43:59Z</time>
      </trkpt>
      <trkpt lat="42.76092" lon="-0.31918">
        <ele>1297.5</ele>
        <time>2018-12-27T08:44:12Z</time>
      </trkpt>
      <trkpt lat="42.7614" lon="-0.32">
        <ele>1299</ele>
        <time>2018-12-27T08:44:32Z</time>
      </trkpt>
      <trkpt lat="42.76147" lon="-0.32026">
        <ele>1298.5</ele>
        <time>2018-12-27T08:44:38Z</time>
      </trkpt>
      <trkpt lat="42.76147" lon="-0.32037">
        <ele>1299.8</ele>
        <time>2018-12-27T08:44:40Z</time>
      </trkpt>
      <trkpt lat="42.76144" lon="-0.32037">
        <ele>1299.5</ele>
        <time>2018-12-27T08:44:41Z</time>
      </trkpt>
      <trkpt lat="42.76145" lon="-0.32038">
        <ele>1302.2</ele>
        <time>2018-12-27T08:44:41Z</time>
      </trkpt>
      <trkpt lat="42.76146" lon="-0.32039">
        <ele>1298.9</ele>
        <time>2018-12-27T08:44:41Z</time>
      </trkpt>
      <trkpt lat="42.76167" lon="-0.32076">
        <ele>1298.9</ele>
        <time>2018-12-27T08:44:51Z</time>
      </trkpt>
      <trkpt lat="42.76254" lon="-0.32172">
        <ele>1299.9</ele>
        <time>2018-12-27T08:45:21Z</time>
      </trkpt>
      <trkpt lat="42.76296" lon="-0.32173">
        <ele>1282.6</ele>
        <time>2018-12-27T09:15:47Z</time>
      </trkpt>
      <trkpt lat="42.76295" lon="-0.32171">
        <ele>1282.7</ele>
        <time>2018-12-27T09:15:47Z</time>
      </trkpt>
      <trkpt lat="42.7629" lon="-0.32168">
        <ele>1282.3</ele>
        <time>2018-12-27T09:15:48Z</time>
      </trkpt>
      <trkpt lat="42.76284" lon="-0.32162">
        <ele>1281.9</ele>
        <time>2018-12-27T09:15:50Z</time>
      </trkpt>
      <trkpt lat="42.76283" lon="-0.32161">
        <ele>1281.9</ele>
        <time>2018-12-27T09:15:51Z</time>
      </trkpt>
      <trkpt lat="42.76279" lon="-0.32155">
        <ele>1281.9</ele>
        <time>2018-12-27T09:15:52Z</time>
      </trkpt>
      <trkpt lat="42.76275" lon="-0.32147">
        <ele>1282.2</ele>
        <time>2018-12-27T09:15:54Z</time>
      </trkpt>
      <trkpt lat="42.76268" lon="-0.32137">
        <ele>1281.9</ele>
        <time>2018-12-27T09:15:57Z</time>
      </trkpt>
      <trkpt lat="42.76269" lon="-0.32132">
        <ele>1282.7</ele>
        <time>2018-12-27T09:15:58Z</time>
      </trkpt>
      <trkpt lat="42.76269" lon="-0.3213">
        <ele>1283.2</ele>
        <time>2018-12-27T09:15:58Z</time>
      </trkpt>
      <trkpt lat="42.76269" lon="-0.3212">
        <ele>1285.2</ele>
        <time>2018-12-27T09:16:00Z</time>
      </trkpt>
      <trkpt lat="42.76272" lon="-0.32116">
        <ele>1287.5</ele>
        <time>2018-12-27T09:16:01Z</time>
      </trkpt>
      <trkpt lat="42.7627" lon="-0.32108">
        <ele>1289</ele>
        <time>2018-12-27T09:16:03Z</time>
      </trkpt>
      <trkpt lat="42.76267" lon="-0.32096">
        <ele>1291.5</ele>
        <time>2018-12-27T09:16:05Z</time>
      </trkpt>
      <trkpt lat="42.76266" lon="-0.32092">
        <ele>1292.4</ele>
        <time>2018-12-27T09:16:06Z</time>
      </trkpt>
      <trkpt lat="42.76266" lon="-0.32087">
        <ele>1293.6</ele>
        <time>2018-12-27T09:16:07Z</time>
      </trkpt>
      <trkpt lat="42.76264" lon="-0.32085">
        <ele>1293.4</ele>
        <time>2018-12-27T09:16:08Z</time>
      </trkpt>
      <trkpt lat="42.76261" lon="-0.32081">
        <ele>1293.5</ele>
        <time>2018-12-27T09:16:09Z</time>
      </trkpt>
      <trkpt lat="42.76254" lon="-0.32073">
        <ele>1293.3</ele>
        <time>2018-12-27T09:16:11Z</time>
      </trkpt>
      <trkpt lat="42.7625" lon="-0.32066">
        <ele>1294</ele>
        <time>2018-12-27T09:16:13Z</time>
      </trkpt>
      <trkpt lat="42.76247" lon="-0.32058">
        <ele>1295.3</ele>
        <time>2018-12-27T09:16:15Z</time>
      </trkpt>
      <trkpt lat="42.76246" lon="-0.32057">
        <ele>1295.2</ele>
        <time>2018-12-27T09:16:15Z</time>
      </trkpt>
      <trkpt lat="42.76242" lon="-0.32047">
        <ele>1296.4</ele>
        <time>2018-12-27T09:16:17Z</time>
      </trkpt>
      <trkpt lat="42.76241" lon="-0.32044">
        <ele>1296.8</ele>
        <time>2018-12-27T09:16:18Z</time>
      </trkpt>
      <trkpt lat="42.7624" lon="-0.32036">
        <ele>1298.4</ele>
        <time>2018-12-27T09:16:20Z</time>
      </trkpt>
      <trkpt lat="42.76239" lon="-0.32033">
        <ele>1298.9</ele>
        <time>2018-12-27T09:16:20Z</time>
      </trkpt>
      <trkpt lat="42.76237" lon="-0.32028">
        <ele>1299.7</ele>
        <time>2018-12-27T09:16:21Z</time>
      </trkpt>
      <trkpt lat="42.76235" lon="-0.3202">
        <ele>1300.9</ele>
        <time>2018-12-27T09:16:23Z</time>
      </trkpt>
      <trkpt lat="42.7623" lon="-0.32013">
        <ele>1300.7</ele>
        <time>2018-12-27T09:16:25Z</time>
      </trkpt>
      <trkpt lat="42.76226" lon="-0.32007">
        <ele>1300.9</ele>
        <time>2018-12-27T09:16:27Z</time>
      </trkpt>
      <trkpt lat="42.76225" lon="-0.32004">
        <ele>1301</ele>
        <time>2018-12-27T09:16:27Z</time>
      </trkpt>
      <trkpt lat="42.76219" lon="-0.31998">
        <ele>1300.2</ele>
        <time>2018-12-27T09:16:29Z</time>
      </trkpt>
      <trkpt lat="42.76216" lon="-0.31989">
        <ele>1301.2</ele>
        <time>2018-12-27T09:16:31Z</time>
      </trkpt>
      <trkpt lat="42.76214" lon="-0.31984">
        <ele>1301.6</ele>
        <time>2018-12-27T09:16:32Z</time>
      </trkpt>
      <trkpt lat="42.76211" lon="-0.31978">
        <ele>1301.8</ele>
        <time>2018-12-27T09:16:34Z</time>
      </trkpt>
      <trkpt lat="42.76212" lon="-0.31977">
        <ele>1302.1</ele>
        <time>2018-12-27T09:16:34Z</time>
      </trkpt>
      <trkpt lat="42.76212" lon="-0.31969">
        <ele>1304.1</ele>
        <time>2018-12-27T09:16:35Z</time>
      </trkpt>
      <trkpt lat="42.76212" lon="-0.31962">
        <ele>1306</ele>
        <time>2018-12-27T09:16:37Z</time>
      </trkpt>
      <trkpt lat="42.76212" lon="-0.31957">
        <ele>1306.9</ele>
        <time>2018-12-27T09:16:38Z</time>
      </trkpt>
      <trkpt lat="42.76213" lon="-0.31953">
        <ele>1308.7</ele>
        <time>2018-12-27T09:16:39Z</time>
      </trkpt>
      <trkpt lat="42.76215" lon="-0.31948">
        <ele>1310.8</ele>
        <time>2018-12-27T09:16:40Z</time>
      </trkpt>
      <trkpt lat="42.76215" lon="-0.31948">
        <ele>1310.9</ele>
        <time>2018-12-27T09:16:40Z</time>
      </trkpt>
      <trkpt lat="42.76218" lon="-0.31946">
        <ele>1312.8</ele>
        <time>2018-12-27T09:16:41Z</time>
      </trkpt>
      <trkpt lat="42.7622" lon="-0.31944">
        <ele>1314.3</ele>
        <time>2018-12-27T09:16:41Z</time>
      </trkpt>
      <trkpt lat="42.76221" lon="-0.31943">
        <ele>1314.8</ele>
        <time>2018-12-27T09:16:42Z</time>
      </trkpt>
      <trkpt lat="42.76222" lon="-0.31937">
        <ele>1317.2</ele>
        <time>2018-12-27T09:16:43Z</time>
      </trkpt>
      <trkpt lat="42.76223" lon="-0.31932">
        <ele>1319.1</ele>
        <time>2018-12-27T09:16:44Z</time>
      </trkpt>
      <trkpt lat="42.76223" lon="-0.31929">
        <ele>1319.9</ele>
        <time>2018-12-27T09:16:45Z</time>
      </trkpt>
      <trkpt lat="42.76222" lon="-0.31921">
        <ele>1321.5</ele>
        <time>2018-12-27T09:16:46Z</time>
      </trkpt>
      <trkpt lat="42.76222" lon="-0.31921">
        <ele>1321.8</ele>
        <time>2018-12-27T09:16:46Z</time>
      </trkpt>
      <trkpt lat="42.76223" lon="-0.31918">
        <ele>1323</ele>
        <time>2018-12-27T09:16:47Z</time>
      </trkpt>
      <trkpt lat="42.76223" lon="-0.31914">
        <ele>1324.2</ele>
        <time>2018-12-27T09:16:47Z</time>
      </trkpt>
      <trkpt lat="42.76226" lon="-0.31911">
        <ele>1326.3</ele>
        <time>2018-12-27T09:16:49Z</time>
      </trkpt>
      <trkpt lat="42.76228" lon="-0.31911">
        <ele>1327.1</ele>
        <time>2018-12-27T09:16:49Z</time>
      </trkpt>
      <trkpt lat="42.76232" lon="-0.31913">
        <ele>1328.4</ele>
        <time>2018-12-27T09:16:50Z</time>
      </trkpt>
      <trkpt lat="42.76233" lon="-0.31913">
        <ele>1328.6</ele>
        <time>2018-12-27T09:16:50Z</time>
      </trkpt>
      <trkpt lat="42.76236" lon="-0.31914">
        <ele>1329.6</ele>
        <time>2018-12-27T09:16:51Z</time>
      </trkpt>
      <trkpt lat="42.76238" lon="-0.31909">
        <ele>1332.1</ele>
        <time>2018-12-27T09:16:52Z</time>
      </trkpt>
      <trkpt lat="42.7624" lon="-0.31904">
        <ele>1334.4</ele>
        <time>2018-12-27T09:16:53Z</time>
      </trkpt>
      <trkpt lat="42.76241" lon="-0.31903">
        <ele>1335.3</ele>
        <time>2018-12-27T09:16:54Z</time>
      </trkpt>
      <trkpt lat="42.76242" lon="-0.31897">
        <ele>1337.2</ele>
        <time>2018-12-27T09:16:55Z</time>
      </trkpt>
      <trkpt lat="42.76244" lon="-0.31892">
        <ele>1339.7</ele>
        <time>2018-12-27T09:16:56Z</time>
      </trkpt>
      <trkpt lat="42.76245" lon="-0.31892">
        <ele>1339.9</ele>
        <time>2018-12-27T09:16:56Z</time>
      </trkpt>
      <trkpt lat="42.76248" lon="-0.31892">
        <ele>1341.3</ele>
        <time>2018-12-27T09:16:57Z</time>
      </trkpt>
      <trkpt lat="42.76249" lon="-0.31892">
        <ele>1341.5</ele>
        <time>2018-12-27T09:16:57Z</time>
      </trkpt>
      <trkpt lat="42.76253" lon="-0.31889">
        <ele>1344.5</ele>
        <time>2018-12-27T09:16:59Z</time>
      </trkpt>
      <trkpt lat="42.76258" lon="-0.31889">
        <ele>1346.4</ele>
        <time>2018-12-27T09:17:00Z</time>
      </trkpt>
      <trkpt lat="42.76259" lon="-0.31889">
        <ele>1346.9</ele>
        <time>2018-12-27T09:17:00Z</time>
      </trkpt>
      <trkpt lat="42.76262" lon="-0.31888">
        <ele>1348.6</ele>
        <time>2018-12-27T09:17:01Z</time>
      </trkpt>
      <trkpt lat="42.76262" lon="-0.31883">
        <ele>1350</ele>
        <time>2018-12-27T09:17:02Z</time>
      </trkpt>
      <trkpt lat="42.76262" lon="-0.31882">
        <ele>1350.4</ele>
        <time>2018-12-27T09:17:02Z</time>
      </trkpt>
      <trkpt lat="42.76266" lon="-0.31877">
        <ele>1353.5</ele>
        <time>2018-12-27T09:17:04Z</time>
      </trkpt>
      <trkpt lat="42.76267" lon="-0.31874">
        <ele>1354.8</ele>
        <time>2018-12-27T09:17:04Z</time>
      </trkpt>
      <trkpt lat="42.76269" lon="-0.31866">
        <ele>1357.8</ele>
        <time>2018-12-27T09:17:06Z</time>
      </trkpt>
      <trkpt lat="42.76272" lon="-0.31862">
        <ele>1360.1</ele>
        <time>2018-12-27T09:17:07Z</time>
      </trkpt>
      <trkpt lat="42.76274" lon="-0.31859">
        <ele>1361.8</ele>
        <time>2018-12-27T09:17:08Z</time>
      </trkpt>
      <trkpt lat="42.76274" lon="-0.31857">
        <ele>1362.6</ele>
        <time>2018-12-27T09:17:09Z</time>
      </trkpt>
      <trkpt lat="42.76277" lon="-0.31853">
        <ele>1364.5</ele>
        <time>2018-12-27T09:17:09Z</time>
      </trkpt>
      <trkpt lat="42.76279" lon="-0.3185">
        <ele>1366.4</ele>
        <time>2018-12-27T09:17:10Z</time>
      </trkpt>
      <trkpt lat="42.76283" lon="-0.31846">
        <ele>1368.9</ele>
        <time>2018-12-27T09:17:12Z</time>
      </trkpt>
      <trkpt lat="42.76284" lon="-0.3184">
        <ele>1370.8</ele>
        <time>2018-12-27T09:17:13Z</time>
      </trkpt>
      <trkpt lat="42.76285" lon="-0.31838">
        <ele>1372</ele>
        <time>2018-12-27T09:17:13Z</time>
      </trkpt>
      <trkpt lat="42.76286" lon="-0.31836">
        <ele>1372.7</ele>
        <time>2018-12-27T09:17:14Z</time>
      </trkpt>
      <trkpt lat="42.76287" lon="-0.31831">
        <ele>1374.5</ele>
        <time>2018-12-27T09:17:15Z</time>
      </trkpt>
      <trkpt lat="42.7629" lon="-0.31826">
        <ele>1376.7</ele>
        <time>2018-12-27T09:17:16Z</time>
      </trkpt>
      <trkpt lat="42.7629" lon="-0.31824">
        <ele>1377</ele>
        <time>2018-12-27T09:17:16Z</time>
      </trkpt>
      <trkpt lat="42.76291" lon="-0.31818">
        <ele>1379.2</ele>
        <time>2018-12-27T09:17:18Z</time>
      </trkpt>
      <trkpt lat="42.76293" lon="-0.3181">
        <ele>1381.6</ele>
        <time>2018-12-27T09:17:19Z</time>
      </trkpt>
      <trkpt lat="42.76293" lon="-0.31804">
        <ele>1383</ele>
        <time>2018-12-27T09:17:20Z</time>
      </trkpt>
      <trkpt lat="42.76293" lon="-0.31795">
        <ele>1385.2</ele>
        <time>2018-12-27T09:17:22Z</time>
      </trkpt>
      <trkpt lat="42.76294" lon="-0.31787">
        <ele>1388</ele>
        <time>2018-12-27T09:17:24Z</time>
      </trkpt>
      <trkpt lat="42.76294" lon="-0.31784">
        <ele>1388.9</ele>
        <time>2018-12-27T09:17:24Z</time>
      </trkpt>
      <trkpt lat="42.76293" lon="-0.31777">
        <ele>1391.8</ele>
        <time>2018-12-27T09:17:26Z</time>
      </trkpt>
      <trkpt lat="42.76293" lon="-0.31776">
        <ele>1391.9</ele>
        <time>2018-12-27T09:17:26Z</time>
      </trkpt>
      <trkpt lat="42.76291" lon="-0.31773">
        <ele>1393</ele>
        <time>2018-12-27T09:17:27Z</time>
      </trkpt>
      <trkpt lat="42.76291" lon="-0.31772">
        <ele>1392.9</ele>
        <time>2018-12-27T09:17:27Z</time>
      </trkpt>
      <trkpt lat="42.7629" lon="-0.31771">
        <ele>1393.3</ele>
        <time>2018-12-27T09:17:27Z</time>
      </trkpt>
      <trkpt lat="42.7629" lon="-0.31761">
        <ele>1397.1</ele>
        <time>2018-12-27T09:17:29Z</time>
      </trkpt>
      <trkpt lat="42.7629" lon="-0.31759">
        <ele>1397.7</ele>
        <time>2018-12-27T09:17:30Z</time>
      </trkpt>
      <trkpt lat="42.76288" lon="-0.31753">
        <ele>1399.5</ele>
        <time>2018-12-27T09:17:31Z</time>
      </trkpt>
      <trkpt lat="42.76287" lon="-0.31753">
        <ele>1399.2</ele>
        <time>2018-12-27T09:17:31Z</time>
      </trkpt>
      <trkpt lat="42.76287" lon="-0.31752">
        <ele>1399.3</ele>
        <time>2018-12-27T09:17:31Z</time>
      </trkpt>
      <trkpt lat="42.76286" lon="-0.3175">
        <ele>1400.1</ele>
        <time>2018-12-27T09:17:32Z</time>
      </trkpt>
      <trkpt lat="42.76285" lon="-0.31745">
        <ele>1401.6</ele>
        <time>2018-12-27T09:17:33Z</time>
      </trkpt>
      <trkpt lat="42.76285" lon="-0.3174">
        <ele>1403.7</ele>
        <time>2018-12-27T09:17:34Z</time>
      </trkpt>
      <trkpt lat="42.76284" lon="-0.31728">
        <ele>1407.9</ele>
        <time>2018-12-27T09:17:36Z</time>
      </trkpt>
      <trkpt lat="42.76285" lon="-0.31719">
        <ele>1411.4</ele>
        <time>2018-12-27T09:17:38Z</time>
      </trkpt>
      <trkpt lat="42.76285" lon="-0.31709">
        <ele>1415.4</ele>
        <time>2018-12-27T09:17:40Z</time>
      </trkpt>
      <trkpt lat="42.76285" lon="-0.31708">
        <ele>1415.8</ele>
        <time>2018-12-27T09:17:40Z</time>
      </trkpt>
      <trkpt lat="42.76282" lon="-0.31706">
        <ele>1415.6</ele>
        <time>2018-12-27T09:17:41Z</time>
      </trkpt>
      <trkpt lat="42.76278" lon="-0.31704">
        <ele>1415.8</ele>
        <time>2018-12-27T09:17:42Z</time>
      </trkpt>
      <trkpt lat="42.76275" lon="-0.31699">
        <ele>1416.7</ele>
        <time>2018-12-27T09:17:43Z</time>
      </trkpt>
      <trkpt lat="42.76272" lon="-0.31693">
        <ele>1418.4</ele>
        <time>2018-12-27T09:17:45Z</time>
      </trkpt>
      <trkpt lat="42.7627" lon="-0.31683">
        <ele>1421.3</ele>
        <time>2018-12-27T09:17:47Z</time>
      </trkpt>
      <trkpt lat="42.76269" lon="-0.3168">
        <ele>1422.4</ele>
        <time>2018-12-27T09:17:47Z</time>
      </trkpt>
      <trkpt lat="42.76267" lon="-0.31674">
        <ele>1424.3</ele>
        <time>2018-12-27T09:17:49Z</time>
      </trkpt>
      <trkpt lat="42.76268" lon="-0.31669">
        <ele>1426.1</ele>
        <time>2018-12-27T09:17:50Z</time>
      </trkpt>
      <trkpt lat="42.7627" lon="-0.31665">
        <ele>1428</ele>
        <time>2018-12-27T09:17:51Z</time>
      </trkpt>
      <trkpt lat="42.76272" lon="-0.31663">
        <ele>1429</ele>
        <time>2018-12-27T09:17:51Z</time>
      </trkpt>
      <trkpt lat="42.76271" lon="-0.31657">
        <ele>1430.9</ele>
        <time>2018-12-27T09:17:52Z</time>
      </trkpt>
      <trkpt lat="42.7627" lon="-0.31652">
        <ele>1432.3</ele>
        <time>2018-12-27T09:17:53Z</time>
      </trkpt>
      <trkpt lat="42.76268" lon="-0.31652">
        <ele>1432.4</ele>
        <time>2018-12-27T09:17:54Z</time>
      </trkpt>
      <trkpt lat="42.76268" lon="-0.31652">
        <ele>1432.3</ele>
        <time>2018-12-27T09:17:54Z</time>
      </trkpt>
      <trkpt lat="42.76266" lon="-0.31647">
        <ele>1433.6</ele>
        <time>2018-12-27T09:17:55Z</time>
      </trkpt>
      <trkpt lat="42.76263" lon="-0.31644">
        <ele>1434.3</ele>
        <time>2018-12-27T09:17:56Z</time>
      </trkpt>
      <trkpt lat="42.7626" lon="-0.3164">
        <ele>1435.4</ele>
        <time>2018-12-27T09:17:57Z</time>
      </trkpt>
      <trkpt lat="42.7626" lon="-0.31639">
        <ele>1435.6</ele>
        <time>2018-12-27T09:17:57Z</time>
      </trkpt>
      <trkpt lat="42.76259" lon="-0.31634">
        <ele>1437.3</ele>
        <time>2018-12-27T09:17:58Z</time>
      </trkpt>
      <trkpt lat="42.76258" lon="-0.31632">
        <ele>1438.1</ele>
        <time>2018-12-27T09:17:59Z</time>
      </trkpt>
      <trkpt lat="42.76253" lon="-0.31624">
        <ele>1440.4</ele>
        <time>2018-12-27T09:18:01Z</time>
      </trkpt>
      <trkpt lat="42.76254" lon="-0.31617">
        <ele>1443</ele>
        <time>2018-12-27T09:18:02Z</time>
      </trkpt>
      <trkpt lat="42.76253" lon="-0.31616">
        <ele>1443.4</ele>
        <time>2018-12-27T09:18:02Z</time>
      </trkpt>
      <trkpt lat="42.76252" lon="-0.31611">
        <ele>1445.4</ele>
        <time>2018-12-27T09:18:03Z</time>
      </trkpt>
      <trkpt lat="42.76252" lon="-0.31609">
        <ele>1446.1</ele>
        <time>2018-12-27T09:18:04Z</time>
      </trkpt>
      <trkpt lat="42.76251" lon="-0.31607">
        <ele>1447</ele>
        <time>2018-12-27T09:18:04Z</time>
      </trkpt>
      <trkpt lat="42.7625" lon="-0.316">
        <ele>1449.4</ele>
        <time>2018-12-27T09:18:05Z</time>
      </trkpt>
      <trkpt lat="42.7625" lon="-0.31596">
        <ele>1451.1</ele>
        <time>2018-12-27T09:18:06Z</time>
      </trkpt>
      <trkpt lat="42.76248" lon="-0.3159">
        <ele>1453.3</ele>
        <time>2018-12-27T09:18:08Z</time>
      </trkpt>
      <trkpt lat="42.76246" lon="-0.31584">
        <ele>1455.4</ele>
        <time>2018-12-27T09:18:09Z</time>
      </trkpt>
      <trkpt lat="42.76247" lon="-0.31583">
        <ele>1455.8</ele>
        <time>2018-12-27T09:18:09Z</time>
      </trkpt>
      <trkpt lat="42.76247" lon="-0.31582">
        <ele>1456.4</ele>
        <time>2018-12-27T09:18:09Z</time>
      </trkpt>
      <trkpt lat="42.76248" lon="-0.31577">
        <ele>1458.4</ele>
        <time>2018-12-27T09:18:10Z</time>
      </trkpt>
      <trkpt lat="42.76248" lon="-0.31577">
        <ele>1458.6</ele>
        <time>2018-12-27T09:18:11Z</time>
      </trkpt>
      <trkpt lat="42.76247" lon="-0.31574">
        <ele>1459.4</ele>
        <time>2018-12-27T09:18:11Z</time>
      </trkpt>
      <trkpt lat="42.76246" lon="-0.31568">
        <ele>1461.9</ele>
        <time>2018-12-27T09:18:12Z</time>
      </trkpt>
      <trkpt lat="42.76245" lon="-0.31563">
        <ele>1464</ele>
        <time>2018-12-27T09:18:13Z</time>
      </trkpt>
      <trkpt lat="42.76245" lon="-0.31559">
        <ele>1465.4</ele>
        <time>2018-12-27T09:18:14Z</time>
      </trkpt>
      <trkpt lat="42.76244" lon="-0.31558">
        <ele>1465.8</ele>
        <time>2018-12-27T09:18:14Z</time>
      </trkpt>
      <trkpt lat="42.76244" lon="-0.31552">
        <ele>1468</ele>
        <time>2018-12-27T09:18:15Z</time>
      </trkpt>
      <trkpt lat="42.76244" lon="-0.31551">
        <ele>1468.5</ele>
        <time>2018-12-27T09:18:16Z</time>
      </trkpt>
      <trkpt lat="42.76245" lon="-0.31545">
        <ele>1471</ele>
        <time>2018-12-27T09:18:17Z</time>
      </trkpt>
      <trkpt lat="42.76243" lon="-0.31541">
        <ele>1472.6</ele>
        <time>2018-12-27T09:18:18Z</time>
      </trkpt>
      <trkpt lat="42.76242" lon="-0.3154">
        <ele>1472.8</ele>
        <time>2018-12-27T09:18:18Z</time>
      </trkpt>
      <trkpt lat="42.76241" lon="-0.31539">
        <ele>1473.2</ele>
        <time>2018-12-27T09:18:18Z</time>
      </trkpt>
      <trkpt lat="42.76239" lon="-0.3154">
        <ele>1473</ele>
        <time>2018-12-27T09:18:19Z</time>
      </trkpt>
      <trkpt lat="42.76236" lon="-0.31536">
        <ele>1474.4</ele>
        <time>2018-12-27T09:18:20Z</time>
      </trkpt>
      <trkpt lat="42.7623" lon="-0.31534">
        <ele>1474.9</ele>
        <time>2018-12-27T09:18:22Z</time>
      </trkpt>
      <trkpt lat="42.76224" lon="-0.3153">
        <ele>1476.6</ele>
        <time>2018-12-27T09:18:24Z</time>
      </trkpt>
      <trkpt lat="42.76219" lon="-0.31524">
        <ele>1478.9</ele>
        <time>2018-12-27T09:18:25Z</time>
      </trkpt>
      <trkpt lat="42.76216" lon="-0.31521">
        <ele>1480.1</ele>
        <time>2018-12-27T09:18:26Z</time>
      </trkpt>
      <trkpt lat="42.76217" lon="-0.31519">
        <ele>1481</ele>
        <time>2018-12-27T09:18:27Z</time>
      </trkpt>
      <trkpt lat="42.76222" lon="-0.31512">
        <ele>1483.9</ele>
        <time>2018-12-27T09:18:29Z</time>
      </trkpt>
      <trkpt lat="42.76223" lon="-0.31511">
        <ele>1484.6</ele>
        <time>2018-12-27T09:18:29Z</time>
      </trkpt>
      <trkpt lat="42.76223" lon="-0.31506">
        <ele>1486.6</ele>
        <time>2018-12-27T09:18:30Z</time>
      </trkpt>
      <trkpt lat="42.76223" lon="-0.31505">
        <ele>1487</ele>
        <time>2018-12-27T09:18:30Z</time>
      </trkpt>
      <trkpt lat="42.76224" lon="-0.31497">
        <ele>1490.5</ele>
        <time>2018-12-27T09:18:32Z</time>
      </trkpt>
      <trkpt lat="42.76224" lon="-0.31495">
        <ele>1490.9</ele>
        <time>2018-12-27T09:18:32Z</time>
      </trkpt>
      <trkpt lat="42.76224" lon="-0.31489">
        <ele>1493.5</ele>
        <time>2018-12-27T09:18:33Z</time>
      </trkpt>
      <trkpt lat="42.76219" lon="-0.31489">
        <ele>1493.8</ele>
        <time>2018-12-27T09:18:34Z</time>
      </trkpt>
      <trkpt lat="42.76217" lon="-0.31484">
        <ele>1496.1</ele>
        <time>2018-12-27T09:18:35Z</time>
      </trkpt>
      <trkpt lat="42.76218" lon="-0.31475">
        <ele>1499.8</ele>
        <time>2018-12-27T09:18:37Z</time>
      </trkpt>
      <trkpt lat="42.7622" lon="-0.31469">
        <ele>1502.4</ele>
        <time>2018-12-27T09:18:39Z</time>
      </trkpt>
      <trkpt lat="42.7622" lon="-0.31462">
        <ele>1505.2</ele>
        <time>2018-12-27T09:18:40Z</time>
      </trkpt>
      <trkpt lat="42.76219" lon="-0.31459">
        <ele>1506.7</ele>
        <time>2018-12-27T09:18:41Z</time>
      </trkpt>
      <trkpt lat="42.76219" lon="-0.31456">
        <ele>1507.9</ele>
        <time>2018-12-27T09:18:41Z</time>
      </trkpt>
      <trkpt lat="42.76217" lon="-0.31448">
        <ele>1510.6</ele>
        <time>2018-12-27T09:18:43Z</time>
      </trkpt>
      <trkpt lat="42.76214" lon="-0.31442">
        <ele>1513.2</ele>
        <time>2018-12-27T09:18:44Z</time>
      </trkpt>
      <trkpt lat="42.7621" lon="-0.31438">
        <ele>1514.8</ele>
        <time>2018-12-27T09:18:45Z</time>
      </trkpt>
      <trkpt lat="42.7621" lon="-0.31433">
        <ele>1516.8</ele>
        <time>2018-12-27T09:18:47Z</time>
      </trkpt>
      <trkpt lat="42.76209" lon="-0.31425">
        <ele>1519.6</ele>
        <time>2018-12-27T09:18:48Z</time>
      </trkpt>
      <trkpt lat="42.76208" lon="-0.31417">
        <ele>1522.5</ele>
        <time>2018-12-27T09:18:50Z</time>
      </trkpt>
      <trkpt lat="42.7621" lon="-0.31409">
        <ele>1525.1</ele>
        <time>2018-12-27T09:18:51Z</time>
      </trkpt>
      <trkpt lat="42.7621" lon="-0.31403">
        <ele>1527</ele>
        <time>2018-12-27T09:18:52Z</time>
      </trkpt>
      <trkpt lat="42.76211" lon="-0.31396">
        <ele>1529.2</ele>
        <time>2018-12-27T09:18:54Z</time>
      </trkpt>
      <trkpt lat="42.7621" lon="-0.31388">
        <ele>1532.2</ele>
        <time>2018-12-27T09:18:55Z</time>
      </trkpt>
      <trkpt lat="42.7621" lon="-0.31381">
        <ele>1534.6</ele>
        <time>2018-12-27T09:18:57Z</time>
      </trkpt>
      <trkpt lat="42.76207" lon="-0.31375">
        <ele>1536.6</ele>
        <time>2018-12-27T09:18:58Z</time>
      </trkpt>
      <trkpt lat="42.76207" lon="-0.31368">
        <ele>1539.3</ele>
        <time>2018-12-27T09:18:59Z</time>
      </trkpt>
      <trkpt lat="42.76207" lon="-0.31359">
        <ele>1542.2</ele>
        <time>2018-12-27T09:19:01Z</time>
      </trkpt>
      <trkpt lat="42.76208" lon="-0.31354">
        <ele>1544.3</ele>
        <time>2018-12-27T09:19:02Z</time>
      </trkpt>
      <trkpt lat="42.76206" lon="-0.3135">
        <ele>1545.3</ele>
        <time>2018-12-27T09:19:03Z</time>
      </trkpt>
      <trkpt lat="42.76197" lon="-0.31353">
        <ele>1542.4</ele>
        <time>2018-12-27T09:19:05Z</time>
      </trkpt>
      <trkpt lat="42.76191" lon="-0.31351">
        <ele>1541.6</ele>
        <time>2018-12-27T09:19:07Z</time>
      </trkpt>
      <trkpt lat="42.76191" lon="-0.3135">
        <ele>1541.8</ele>
        <time>2018-12-27T09:19:07Z</time>
      </trkpt>
      <trkpt lat="42.76193" lon="-0.31342">
        <ele>1545.2</ele>
        <time>2018-12-27T09:19:09Z</time>
      </trkpt>
      <trkpt lat="42.76194" lon="-0.31333">
        <ele>1548.7</ele>
        <time>2018-12-27T09:19:11Z</time>
      </trkpt>
      <trkpt lat="42.76195" lon="-0.31324">
        <ele>1551.9</ele>
        <time>2018-12-27T09:19:13Z</time>
      </trkpt>
      <trkpt lat="42.76194" lon="-0.31317">
        <ele>1554.3</ele>
        <time>2018-12-27T09:19:14Z</time>
      </trkpt>
      <trkpt lat="42.76192" lon="-0.31312">
        <ele>1555.7</ele>
        <time>2018-12-27T09:19:15Z</time>
      </trkpt>
      <trkpt lat="42.76189" lon="-0.31307">
        <ele>1557.2</ele>
        <time>2018-12-27T09:19:16Z</time>
      </trkpt>
      <trkpt lat="42.76191" lon="-0.31302">
        <ele>1559.2</ele>
        <time>2018-12-27T09:19:17Z</time>
      </trkpt>
      <trkpt lat="42.76193" lon="-0.31293">
        <ele>1562.9</ele>
        <time>2018-12-27T09:19:19Z</time>
      </trkpt>
      <trkpt lat="42.76195" lon="-0.31286">
        <ele>1565.5</ele>
        <time>2018-12-27T09:19:21Z</time>
      </trkpt>
      <trkpt lat="42.76195" lon="-0.31285">
        <ele>1566</ele>
        <time>2018-12-27T09:19:21Z</time>
      </trkpt>
      <trkpt lat="42.76197" lon="-0.31276">
        <ele>1569.5</ele>
        <time>2018-12-27T09:19:23Z</time>
      </trkpt>
      <trkpt lat="42.76197" lon="-0.31268">
        <ele>1572.5</ele>
        <time>2018-12-27T09:19:24Z</time>
      </trkpt>
      <trkpt lat="42.76195" lon="-0.31265">
        <ele>1573.2</ele>
        <time>2018-12-27T09:19:25Z</time>
      </trkpt>
      <trkpt lat="42.76193" lon="-0.31263">
        <ele>1573.4</ele>
        <time>2018-12-27T09:19:26Z</time>
      </trkpt>
      <trkpt lat="42.76189" lon="-0.31265">
        <ele>1572.4</ele>
        <time>2018-12-27T09:19:27Z</time>
      </trkpt>
      <trkpt lat="42.76186" lon="-0.31263">
        <ele>1572.7</ele>
        <time>2018-12-27T09:19:28Z</time>
      </trkpt>
      <trkpt lat="42.76182" lon="-0.31262">
        <ele>1572.3</ele>
        <time>2018-12-27T09:19:29Z</time>
      </trkpt>
      <trkpt lat="42.7618" lon="-0.3126">
        <ele>1573.1</ele>
        <time>2018-12-27T09:19:29Z</time>
      </trkpt>
      <trkpt lat="42.76181" lon="-0.31256">
        <ele>1574.8</ele>
        <time>2018-12-27T09:19:30Z</time>
      </trkpt>
      <trkpt lat="42.76183" lon="-0.31251">
        <ele>1576.8</ele>
        <time>2018-12-27T09:19:31Z</time>
      </trkpt>
      <trkpt lat="42.76183" lon="-0.31248">
        <ele>1577.9</ele>
        <time>2018-12-27T09:19:32Z</time>
      </trkpt>
      <trkpt lat="42.76183" lon="-0.31246">
        <ele>1578.8</ele>
        <time>2018-12-27T09:19:32Z</time>
      </trkpt>
      <trkpt lat="42.76184" lon="-0.31243">
        <ele>1579.8</ele>
        <time>2018-12-27T09:19:33Z</time>
      </trkpt>
      <trkpt lat="42.76184" lon="-0.31238">
        <ele>1581.8</ele>
        <time>2018-12-27T09:19:34Z</time>
      </trkpt>
      <trkpt lat="42.7618" lon="-0.31242">
        <ele>1579.9</ele>
        <time>2018-12-27T09:19:35Z</time>
      </trkpt>
      <trkpt lat="42.76178" lon="-0.31243">
        <ele>1579.6</ele>
        <time>2018-12-27T09:19:36Z</time>
      </trkpt>
      <trkpt lat="42.76172" lon="-0.31243">
        <ele>1578.5</ele>
        <time>2018-12-27T09:19:37Z</time>
      </trkpt>
      <trkpt lat="42.76168" lon="-0.31241">
        <ele>1578.9</ele>
        <time>2018-12-27T09:19:38Z</time>
      </trkpt>
      <trkpt lat="42.76167" lon="-0.3124">
        <ele>1579.2</ele>
        <time>2018-12-27T09:19:39Z</time>
      </trkpt>
      <trkpt lat="42.76162" lon="-0.3124">
        <ele>1579</ele>
        <time>2018-12-27T09:19:40Z</time>
      </trkpt>
      <trkpt lat="42.7616" lon="-0.31235">
        <ele>1580.9</ele>
        <time>2018-12-27T09:19:41Z</time>
      </trkpt>
      <trkpt lat="42.76158" lon="-0.31234">
        <ele>1581</ele>
        <time>2018-12-27T09:19:42Z</time>
      </trkpt>
      <trkpt lat="42.76154" lon="-0.31236">
        <ele>1579.6</ele>
        <time>2018-12-27T09:19:43Z</time>
      </trkpt>
      <trkpt lat="42.76149" lon="-0.31233">
        <ele>1580.5</ele>
        <time>2018-12-27T09:19:44Z</time>
      </trkpt>
      <trkpt lat="42.76151" lon="-0.31229">
        <ele>1582.6</ele>
        <time>2018-12-27T09:19:45Z</time>
      </trkpt>
      <trkpt lat="42.76152" lon="-0.31226">
        <ele>1583.9</ele>
        <time>2018-12-27T09:19:46Z</time>
      </trkpt>
      <trkpt lat="42.76151" lon="-0.31224">
        <ele>1584.5</ele>
        <time>2018-12-27T09:19:46Z</time>
      </trkpt>
      <trkpt lat="42.76148" lon="-0.31222">
        <ele>1585.2</ele>
        <time>2018-12-27T09:19:47Z</time>
      </trkpt>
      <trkpt lat="42.7615" lon="-0.31215">
        <ele>1588.2</ele>
        <time>2018-12-27T09:19:48Z</time>
      </trkpt>
      <trkpt lat="42.76149" lon="-0.31211">
        <ele>1590.2</ele>
        <time>2018-12-27T09:19:49Z</time>
      </trkpt>
      <trkpt lat="42.76148" lon="-0.31209">
        <ele>1590.9</ele>
        <time>2018-12-27T09:19:50Z</time>
      </trkpt>
      <trkpt lat="42.76147" lon="-0.31206">
        <ele>1591.8</ele>
        <time>2018-12-27T09:19:50Z</time>
      </trkpt>
      <trkpt lat="42.76145" lon="-0.31203">
        <ele>1592.7</ele>
        <time>2018-12-27T09:19:51Z</time>
      </trkpt>
      <trkpt lat="42.76145" lon="-0.31196">
        <ele>1594.5</ele>
        <time>2018-12-27T09:19:52Z</time>
      </trkpt>
      <trkpt lat="42.76148" lon="-0.31188">
        <ele>1597.2</ele>
        <time>2018-12-27T09:19:54Z</time>
      </trkpt>
      <trkpt lat="42.76149" lon="-0.31178">
        <ele>1600.2</ele>
        <time>2018-12-27T09:19:56Z</time>
      </trkpt>
      <trkpt lat="42.76153" lon="-0.31169">
        <ele>1603.2</ele>
        <time>2018-12-27T09:19:58Z</time>
      </trkpt>
      <trkpt lat="42.76154" lon="-0.31167">
        <ele>1604.1</ele>
        <time>2018-12-27T09:19:59Z</time>
      </trkpt>
      <trkpt lat="42.76161" lon="-0.31151">
        <ele>1609.3</ele>
        <time>2018-12-27T09:20:02Z</time>
      </trkpt>
      <trkpt lat="42.76165" lon="-0.3114">
        <ele>1612.7</ele>
        <time>2018-12-27T09:20:05Z</time>
      </trkpt>
      <trkpt lat="42.76169" lon="-0.31132">
        <ele>1615.6</ele>
        <time>2018-12-27T09:20:07Z</time>
      </trkpt>
      <trkpt lat="42.76174" lon="-0.31121">
        <ele>1618.8</ele>
        <time>2018-12-27T09:20:09Z</time>
      </trkpt>
      <trkpt lat="42.76179" lon="-0.31109">
        <ele>1621.2</ele>
        <time>2018-12-27T09:20:12Z</time>
      </trkpt>
      <trkpt lat="42.7618" lon="-0.311">
        <ele>1623.4</ele>
        <time>2018-12-27T09:20:14Z</time>
      </trkpt>
      <trkpt lat="42.76182" lon="-0.31097">
        <ele>1624.4</ele>
        <time>2018-12-27T09:20:15Z</time>
      </trkpt>
      <trkpt lat="42.76184" lon="-0.31094">
        <ele>1625.6</ele>
        <time>2018-12-27T09:20:15Z</time>
      </trkpt>
      <trkpt lat="42.76185" lon="-0.31091">
        <ele>1626.6</ele>
        <time>2018-12-27T09:20:16Z</time>
      </trkpt>
      <trkpt lat="42.76185" lon="-0.31089">
        <ele>1626.8</ele>
        <time>2018-12-27T09:20:16Z</time>
      </trkpt>
      <trkpt lat="42.76185" lon="-0.31089">
        <ele>1627.3</ele>
        <time>2018-12-27T09:20:17Z</time>
      </trkpt>
      <trkpt lat="42.76188" lon="-0.31086">
        <ele>1629</ele>
        <time>2018-12-27T09:20:17Z</time>
      </trkpt>
      <trkpt lat="42.76189" lon="-0.31082">
        <ele>1630.1</ele>
        <time>2018-12-27T09:20:18Z</time>
      </trkpt>
      <trkpt lat="42.76189" lon="-0.31077">
        <ele>1631.7</ele>
        <time>2018-12-27T09:20:19Z</time>
      </trkpt>
      <trkpt lat="42.76189" lon="-0.3107">
        <ele>1633</ele>
        <time>2018-12-27T09:20:20Z</time>
      </trkpt>
      <trkpt lat="42.76191" lon="-0.31058">
        <ele>1637.2</ele>
        <time>2018-12-27T09:20:23Z</time>
      </trkpt>
      <trkpt lat="42.762" lon="-0.31049">
        <ele>1645.6</ele>
        <time>2018-12-27T09:20:26Z</time>
      </trkpt>
      <trkpt lat="42.76213" lon="-0.3104">
        <ele>1653.6</ele>
        <time>2018-12-27T09:20:30Z</time>
      </trkpt>
      <trkpt lat="42.76217" lon="-0.31035">
        <ele>1653.1</ele>
        <time>2018-12-27T09:20:31Z</time>
      </trkpt>
      <trkpt lat="42.76217" lon="-0.31026">
        <ele>1652.7</ele>
        <time>2018-12-27T09:20:33Z</time>
      </trkpt>
      <trkpt lat="42.76215" lon="-0.31013">
        <ele>1652</ele>
        <time>2018-12-27T09:20:36Z</time>
      </trkpt>
      <trkpt lat="42.76221" lon="-0.31002">
        <ele>1652.2</ele>
        <time>2018-12-27T09:20:38Z</time>
      </trkpt>
      <trkpt lat="42.76227" lon="-0.30991">
        <ele>1653.1</ele>
        <time>2018-12-27T09:20:41Z</time>
      </trkpt>
      <trkpt lat="42.76231" lon="-0.30983">
        <ele>1654</ele>
        <time>2018-12-27T09:20:43Z</time>
      </trkpt>
      <trkpt lat="42.76238" lon="-0.30978">
        <ele>1656</ele>
        <time>2018-12-27T09:20:45Z</time>
      </trkpt>
      <trkpt lat="42.76239" lon="-0.30978">
        <ele>1656</ele>
        <time>2018-12-27T09:20:45Z</time>
      </trkpt>
      <trkpt lat="42.76243" lon="-0.30977">
        <ele>1657</ele>
        <time>2018-12-27T09:20:46Z</time>
      </trkpt>
      <trkpt lat="42.76247" lon="-0.30972">
        <ele>1658.6</ele>
        <time>2018-12-27T09:20:48Z</time>
      </trkpt>
      <trkpt lat="42.7625" lon="-0.30968">
        <ele>1660</ele>
        <time>2018-12-27T09:20:49Z</time>
      </trkpt>
      <trkpt lat="42.76252" lon="-0.30964">
        <ele>1661.1</ele>
        <time>2018-12-27T09:20:50Z</time>
      </trkpt>
      <trkpt lat="42.76257" lon="-0.30957">
        <ele>1663.3</ele>
        <time>2018-12-27T09:20:52Z</time>
      </trkpt>
      <trkpt lat="42.7626" lon="-0.30954">
        <ele>1664.2</ele>
        <time>2018-12-27T09:20:53Z</time>
      </trkpt>
      <trkpt lat="42.76266" lon="-0.30949">
        <ele>1666</ele>
        <time>2018-12-27T09:20:55Z</time>
      </trkpt>
      <trkpt lat="42.76269" lon="-0.30948">
        <ele>1666.8</ele>
        <time>2018-12-27T09:20:56Z</time>
      </trkpt>
      <trkpt lat="42.76271" lon="-0.30947">
        <ele>1667.6</ele>
        <time>2018-12-27T09:20:56Z</time>
      </trkpt>
      <trkpt lat="42.76276" lon="-0.30944">
        <ele>1669.4</ele>
        <time>2018-12-27T09:20:58Z</time>
      </trkpt>
      <trkpt lat="42.76278" lon="-0.30943">
        <ele>1670.1</ele>
        <time>2018-12-27T09:20:58Z</time>
      </trkpt>
      <trkpt lat="42.7628" lon="-0.30941">
        <ele>1670.6</ele>
        <time>2018-12-27T09:20:59Z</time>
      </trkpt>
      <trkpt lat="42.76281" lon="-0.3094">
        <ele>1670.9</ele>
        <time>2018-12-27T09:20:59Z</time>
      </trkpt>
      <trkpt lat="42.76286" lon="-0.30937">
        <ele>1672.6</ele>
        <time>2018-12-27T09:21:01Z</time>
      </trkpt>
      <trkpt lat="42.76289" lon="-0.30931">
        <ele>1673.8</ele>
        <time>2018-12-27T09:21:02Z</time>
      </trkpt>
      <trkpt lat="42.76289" lon="-0.30929">
        <ele>1673.7</ele>
        <time>2018-12-27T09:21:02Z</time>
      </trkpt>
      <trkpt lat="42.7629" lon="-0.30925">
        <ele>1674.2</ele>
        <time>2018-12-27T09:21:03Z</time>
      </trkpt>
      <trkpt lat="42.76293" lon="-0.3092">
        <ele>1674.7</ele>
        <time>2018-12-27T09:21:05Z</time>
      </trkpt>
      <trkpt lat="42.76296" lon="-0.30908">
        <ele>1675</ele>
        <time>2018-12-27T09:21:07Z</time>
      </trkpt>
      <trkpt lat="42.76299" lon="-0.30896">
        <ele>1675.7</ele>
        <time>2018-12-27T09:21:10Z</time>
      </trkpt>
      <trkpt lat="42.763" lon="-0.30881">
        <ele>1676.1</ele>
        <time>2018-12-27T09:21:12Z</time>
      </trkpt>
      <trkpt lat="42.763" lon="-0.3087">
        <ele>1677.1</ele>
        <time>2018-12-27T09:21:15Z</time>
      </trkpt>
      <trkpt lat="42.763" lon="-0.30859">
        <ele>1678.4</ele>
        <time>2018-12-27T09:21:17Z</time>
      </trkpt>
      <trkpt lat="42.763" lon="-0.30854">
        <ele>1678.8</ele>
        <time>2018-12-27T09:21:18Z</time>
      </trkpt>
      <trkpt lat="42.76297" lon="-0.30848">
        <ele>1678.8</ele>
        <time>2018-12-27T09:21:19Z</time>
      </trkpt>
      <trkpt lat="42.76294" lon="-0.30831">
        <ele>1679.5</ele>
        <time>2018-12-27T09:21:23Z</time>
      </trkpt>
      <trkpt lat="42.76292" lon="-0.30818">
        <ele>1680.5</ele>
        <time>2018-12-27T09:21:25Z</time>
      </trkpt>
      <trkpt lat="42.76292" lon="-0.30811">
        <ele>1681</ele>
        <time>2018-12-27T09:21:26Z</time>
      </trkpt>
      <trkpt lat="42.7629" lon="-0.30807">
        <ele>1680.4</ele>
        <time>2018-12-27T09:21:27Z</time>
      </trkpt>
      <trkpt lat="42.76287" lon="-0.30801">
        <ele>1679.5</ele>
        <time>2018-12-27T09:21:29Z</time>
      </trkpt>
      <trkpt lat="42.7628" lon="-0.30791">
        <ele>1677.1</ele>
        <time>2018-12-27T09:21:32Z</time>
      </trkpt>
      <trkpt lat="42.76271" lon="-0.30785">
        <ele>1673.9</ele>
        <time>2018-12-27T09:21:34Z</time>
      </trkpt>
      <trkpt lat="42.7626" lon="-0.30776">
        <ele>1669.8</ele>
        <time>2018-12-27T09:21:38Z</time>
      </trkpt>
      <trkpt lat="42.76247" lon="-0.30771">
        <ele>1663.6</ele>
        <time>2018-12-27T09:21:41Z</time>
      </trkpt>
      <trkpt lat="42.76242" lon="-0.30764">
        <ele>1661.8</ele>
        <time>2018-12-27T09:21:43Z</time>
      </trkpt>
      <trkpt lat="42.76238" lon="-0.30753">
        <ele>1660.7</ele>
        <time>2018-12-27T09:21:45Z</time>
      </trkpt>
      <trkpt lat="42.76236" lon="-0.30741">
        <ele>1661.2</ele>
        <time>2018-12-27T09:21:48Z</time>
      </trkpt>
      <trkpt lat="42.76235" lon="-0.30727">
        <ele>1663.1</ele>
        <time>2018-12-27T09:21:51Z</time>
      </trkpt>
      <trkpt lat="42.76232" lon="-0.30709">
        <ele>1663.6</ele>
        <time>2018-12-27T09:21:54Z</time>
      </trkpt>
      <trkpt lat="42.76234" lon="-0.30692">
        <ele>1666.6</ele>
        <time>2018-12-27T09:21:58Z</time>
      </trkpt>
      <trkpt lat="42.76238" lon="-0.30675">
        <ele>1672.4</ele>
        <time>2018-12-27T09:22:01Z</time>
      </trkpt>
      <trkpt lat="42.76244" lon="-0.30661">
        <ele>1679.2</ele>
        <time>2018-12-27T09:22:05Z</time>
      </trkpt>
      <trkpt lat="42.76245" lon="-0.30643">
        <ele>1681.8</ele>
        <time>2018-12-27T09:22:08Z</time>
      </trkpt>
      <trkpt lat="42.76243" lon="-0.30629">
        <ele>1682</ele>
        <time>2018-12-27T09:22:11Z</time>
      </trkpt>
      <trkpt lat="42.76243" lon="-0.30626">
        <ele>1682.1</ele>
        <time>2018-12-27T09:22:11Z</time>
      </trkpt>
      <trkpt lat="42.76244" lon="-0.30615">
        <ele>1684.7</ele>
        <time>2018-12-27T09:22:14Z</time>
      </trkpt>
      <trkpt lat="42.76246" lon="-0.30608">
        <ele>1687.1</ele>
        <time>2018-12-27T09:22:15Z</time>
      </trkpt>
      <trkpt lat="42.76252" lon="-0.30593">
        <ele>1693.2</ele>
        <time>2018-12-27T09:22:18Z</time>
      </trkpt>
      <trkpt lat="42.76255" lon="-0.30582">
        <ele>1697.3</ele>
        <time>2018-12-27T09:22:21Z</time>
      </trkpt>
      <trkpt lat="42.76255" lon="-0.30574">
        <ele>1697.6</ele>
        <time>2018-12-27T09:22:22Z</time>
      </trkpt>
      <trkpt lat="42.76253" lon="-0.30565">
        <ele>1697.3</ele>
        <time>2018-12-27T09:22:24Z</time>
      </trkpt>
      <trkpt lat="42.76249" lon="-0.30557">
        <ele>1694.8</ele>
        <time>2018-12-27T09:22:26Z</time>
      </trkpt>
      <trkpt lat="42.76242" lon="-0.30542">
        <ele>1691.6</ele>
        <time>2018-12-27T09:22:29Z</time>
      </trkpt>
      <trkpt lat="42.76236" lon="-0.30527">
        <ele>1691.3</ele>
        <time>2018-12-27T09:22:33Z</time>
      </trkpt>
      <trkpt lat="42.76234" lon="-0.30514">
        <ele>1693</ele>
        <time>2018-12-27T09:22:35Z</time>
      </trkpt>
      <trkpt lat="42.76233" lon="-0.30506">
        <ele>1694.5</ele>
        <time>2018-12-27T09:22:37Z</time>
      </trkpt>
      <trkpt lat="42.76233" lon="-0.30504">
        <ele>1695.2</ele>
        <time>2018-12-27T09:22:37Z</time>
      </trkpt>
      <trkpt lat="42.76232" lon="-0.30499">
        <ele>1695.8</ele>
        <time>2018-12-27T09:22:38Z</time>
      </trkpt>
      <trkpt lat="42.76232" lon="-0.30498">
        <ele>1696.1</ele>
        <time>2018-12-27T09:22:39Z</time>
      </trkpt>
      <trkpt lat="42.76229" lon="-0.30484">
        <ele>1697.6</ele>
        <time>2018-12-27T09:22:41Z</time>
      </trkpt>
      <trkpt lat="42.76227" lon="-0.30474">
        <ele>1699.1</ele>
        <time>2018-12-27T09:22:43Z</time>
      </trkpt>
      <trkpt lat="42.76223" lon="-0.30463">
        <ele>1699</ele>
        <time>2018-12-27T09:22:46Z</time>
      </trkpt>
      <trkpt lat="42.76222" lon="-0.30462">
        <ele>1699.2</ele>
        <time>2018-12-27T09:22:46Z</time>
      </trkpt>
      <trkpt lat="42.7622" lon="-0.30451">
        <ele>1700.9</ele>
        <time>2018-12-27T09:22:48Z</time>
      </trkpt>
      <trkpt lat="42.7622" lon="-0.30449">
        <ele>1701.3</ele>
        <time>2018-12-27T09:22:49Z</time>
      </trkpt>
      <trkpt lat="42.76218" lon="-0.30443">
        <ele>1702.3</ele>
        <time>2018-12-27T09:22:50Z</time>
      </trkpt>
      <trkpt lat="42.76217" lon="-0.3044">
        <ele>1702.4</ele>
        <time>2018-12-27T09:22:51Z</time>
      </trkpt>
      <trkpt lat="42.76213" lon="-0.30433">
        <ele>1702.9</ele>
        <time>2018-12-27T09:22:52Z</time>
      </trkpt>
      <trkpt lat="42.76207" lon="-0.30424">
        <ele>1702.8</ele>
        <time>2018-12-27T09:22:55Z</time>
      </trkpt>
      <trkpt lat="42.76201" lon="-0.3041">
        <ele>1709.2</ele>
        <time>2018-12-27T09:22:58Z</time>
      </trkpt>
      <trkpt lat="42.76197" lon="-0.30394">
        <ele>1715.6</ele>
        <time>2018-12-27T09:23:01Z</time>
      </trkpt>
      <trkpt lat="42.76197" lon="-0.30385">
        <ele>1718.4</ele>
        <time>2018-12-27T09:23:03Z</time>
      </trkpt>
      <trkpt lat="42.76196" lon="-0.30382">
        <ele>1719.5</ele>
        <time>2018-12-27T09:23:04Z</time>
      </trkpt>
      <trkpt lat="42.76194" lon="-0.30377">
        <ele>1721.6</ele>
        <time>2018-12-27T09:23:05Z</time>
      </trkpt>
      <trkpt lat="42.76192" lon="-0.30374">
        <ele>1722.8</ele>
        <time>2018-12-27T09:23:05Z</time>
      </trkpt>
      <trkpt lat="42.76189" lon="-0.30371">
        <ele>1724.7</ele>
        <time>2018-12-27T09:23:06Z</time>
      </trkpt>
      <trkpt lat="42.76189" lon="-0.30371">
        <ele>1724.7</ele>
        <time>2018-12-27T09:23:07Z</time>
      </trkpt>
      <trkpt lat="42.76185" lon="-0.30372">
        <ele>1725.3</ele>
        <time>2018-12-27T09:23:08Z</time>
      </trkpt>
      <trkpt lat="42.76184" lon="-0.30372">
        <ele>1725.4</ele>
        <time>2018-12-27T09:23:08Z</time>
      </trkpt>
      <trkpt lat="42.76181" lon="-0.30369">
        <ele>1727.1</ele>
        <time>2018-12-27T09:23:09Z</time>
      </trkpt>
      <trkpt lat="42.76177" lon="-0.30366">
        <ele>1728.7</ele>
        <time>2018-12-27T09:23:10Z</time>
      </trkpt>
      <trkpt lat="42.76176" lon="-0.30366">
        <ele>1728.7</ele>
        <time>2018-12-27T09:23:10Z</time>
      </trkpt>
      <trkpt lat="42.76171" lon="-0.30363">
        <ele>1730.6</ele>
        <time>2018-12-27T09:23:12Z</time>
      </trkpt>
      <trkpt lat="42.76165" lon="-0.30356">
        <ele>1733.6</ele>
        <time>2018-12-27T09:23:14Z</time>
      </trkpt>
      <trkpt lat="42.76163" lon="-0.30355">
        <ele>1734.1</ele>
        <time>2018-12-27T09:23:15Z</time>
      </trkpt>
      <trkpt lat="42.76154" lon="-0.3035">
        <ele>1736.5</ele>
        <time>2018-12-27T09:23:17Z</time>
      </trkpt>
      <trkpt lat="42.76148" lon="-0.30348">
        <ele>1737.7</ele>
        <time>2018-12-27T09:23:19Z</time>
      </trkpt>
      <trkpt lat="42.76142" lon="-0.30345">
        <ele>1739</ele>
        <time>2018-12-27T09:23:20Z</time>
      </trkpt>
      <trkpt lat="42.76137" lon="-0.30338">
        <ele>1740.9</ele>
        <time>2018-12-27T09:23:22Z</time>
      </trkpt>
      <trkpt lat="42.76133" lon="-0.3033">
        <ele>1742.5</ele>
        <time>2018-12-27T09:23:24Z</time>
      </trkpt>
      <trkpt lat="42.76128" lon="-0.30325">
        <ele>1743.4</ele>
        <time>2018-12-27T09:23:26Z</time>
      </trkpt>
      <trkpt lat="42.76127" lon="-0.30325">
        <ele>1743.6</ele>
        <time>2018-12-27T09:23:26Z</time>
      </trkpt>
      <trkpt lat="42.76125" lon="-0.30322">
        <ele>1744.2</ele>
        <time>2018-12-27T09:23:27Z</time>
      </trkpt>
      <trkpt lat="42.76123" lon="-0.30319">
        <ele>1745.4</ele>
        <time>2018-12-27T09:23:28Z</time>
      </trkpt>
      <trkpt lat="42.76121" lon="-0.30317">
        <ele>1746.3</ele>
        <time>2018-12-27T09:23:28Z</time>
      </trkpt>
      <trkpt lat="42.7612" lon="-0.30315">
        <ele>1746.8</ele>
        <time>2018-12-27T09:23:29Z</time>
      </trkpt>
      <trkpt lat="42.76118" lon="-0.30312">
        <ele>1748.2</ele>
        <time>2018-12-27T09:23:30Z</time>
      </trkpt>
      <trkpt lat="42.76116" lon="-0.3031">
        <ele>1749.4</ele>
        <time>2018-12-27T09:23:31Z</time>
      </trkpt>
      <trkpt lat="42.7611" lon="-0.30303">
        <ele>1752.7</ele>
        <time>2018-12-27T09:23:32Z</time>
      </trkpt>
      <trkpt lat="42.76108" lon="-0.30298">
        <ele>1754.5</ele>
        <time>2018-12-27T09:23:34Z</time>
      </trkpt>
      <trkpt lat="42.76106" lon="-0.30298">
        <ele>1755.4</ele>
        <time>2018-12-27T09:23:34Z</time>
      </trkpt>
      <trkpt lat="42.76104" lon="-0.30292">
        <ele>1756.9</ele>
        <time>2018-12-27T09:23:35Z</time>
      </trkpt>
      <trkpt lat="42.76104" lon="-0.30286">
        <ele>1758.8</ele>
        <time>2018-12-27T09:23:37Z</time>
      </trkpt>
      <trkpt lat="42.76099" lon="-0.30276">
        <ele>1763.3</ele>
        <time>2018-12-27T09:23:39Z</time>
      </trkpt>
      <trkpt lat="42.76095" lon="-0.30265">
        <ele>1767.4</ele>
        <time>2018-12-27T09:23:41Z</time>
      </trkpt>
      <trkpt lat="42.76093" lon="-0.30257">
        <ele>1770.4</ele>
        <time>2018-12-27T09:23:43Z</time>
      </trkpt>
      <trkpt lat="42.76093" lon="-0.30255">
        <ele>1770.9</ele>
        <time>2018-12-27T09:23:43Z</time>
      </trkpt>
      <trkpt lat="42.76092" lon="-0.30248">
        <ele>1772.5</ele>
        <time>2018-12-27T09:23:45Z</time>
      </trkpt>
      <trkpt lat="42.76092" lon="-0.30243">
        <ele>1773.9</ele>
        <time>2018-12-27T09:23:46Z</time>
      </trkpt>
      <trkpt lat="42.7609" lon="-0.30237">
        <ele>1776.1</ele>
        <time>2018-12-27T09:23:47Z</time>
      </trkpt>
      <trkpt lat="42.76089" lon="-0.30234">
        <ele>1777.3</ele>
        <time>2018-12-27T09:23:48Z</time>
      </trkpt>
      <trkpt lat="42.76087" lon="-0.30231">
        <ele>1778.9</ele>
        <time>2018-12-27T09:23:49Z</time>
      </trkpt>
      <trkpt lat="42.76083" lon="-0.30227">
        <ele>1780.8</ele>
        <time>2018-12-27T09:23:50Z</time>
      </trkpt>
      <trkpt lat="42.76081" lon="-0.30221">
        <ele>1782.9</ele>
        <time>2018-12-27T09:23:51Z</time>
      </trkpt>
      <trkpt lat="42.76082" lon="-0.30218">
        <ele>1783.4</ele>
        <time>2018-12-27T09:23:52Z</time>
      </trkpt>
      <trkpt lat="42.7608" lon="-0.30213">
        <ele>1784.9</ele>
        <time>2018-12-27T09:23:53Z</time>
      </trkpt>
      <trkpt lat="42.7608" lon="-0.30207">
        <ele>1786.5</ele>
        <time>2018-12-27T09:23:54Z</time>
      </trkpt>
      <trkpt lat="42.76078" lon="-0.30199">
        <ele>1789</ele>
        <time>2018-12-27T09:23:56Z</time>
      </trkpt>
      <trkpt lat="42.76077" lon="-0.30194">
        <ele>1790.2</ele>
        <time>2018-12-27T09:23:57Z</time>
      </trkpt>
      <trkpt lat="42.76077" lon="-0.30192">
        <ele>1790.5</ele>
        <time>2018-12-27T09:23:57Z</time>
      </trkpt>
      <trkpt lat="42.76075" lon="-0.30184">
        <ele>1792.5</ele>
        <time>2018-12-27T09:23:58Z</time>
      </trkpt>
      <trkpt lat="42.76072" lon="-0.30177">
        <ele>1794.6</ele>
        <time>2018-12-27T09:24:00Z</time>
      </trkpt>
      <trkpt lat="42.76072" lon="-0.30176">
        <ele>1794.9</ele>
        <time>2018-12-27T09:24:00Z</time>
      </trkpt>
      <trkpt lat="42.76069" lon="-0.30166">
        <ele>1797.2</ele>
        <time>2018-12-27T09:24:02Z</time>
      </trkpt>
      <trkpt lat="42.76066" lon="-0.30159">
        <ele>1798.6</ele>
        <time>2018-12-27T09:24:04Z</time>
      </trkpt>
      <trkpt lat="42.76064" lon="-0.30153">
        <ele>1799.7</ele>
        <time>2018-12-27T09:24:05Z</time>
      </trkpt>
      <trkpt lat="42.76057" lon="-0.30144">
        <ele>1800.9</ele>
        <time>2018-12-27T09:24:08Z</time>
      </trkpt>
      <trkpt lat="42.76056" lon="-0.30143">
        <ele>1801.2</ele>
        <time>2018-12-27T09:24:08Z</time>
      </trkpt>
      <trkpt lat="42.76053" lon="-0.30138">
        <ele>1801.7</ele>
        <time>2018-12-27T09:24:09Z</time>
      </trkpt>
      <trkpt lat="42.76051" lon="-0.30136">
        <ele>1801.9</ele>
        <time>2018-12-27T09:24:10Z</time>
      </trkpt>
      <trkpt lat="42.76047" lon="-0.30126">
        <ele>1802.3</ele>
        <time>2018-12-27T09:24:12Z</time>
      </trkpt>
      <trkpt lat="42.76044" lon="-0.30117">
        <ele>1803.7</ele>
        <time>2018-12-27T09:24:14Z</time>
      </trkpt>
      <trkpt lat="42.7604" lon="-0.30108">
        <ele>1806.1</ele>
        <time>2018-12-27T09:24:16Z</time>
      </trkpt>
      <trkpt lat="42.76033" lon="-0.301">
        <ele>1811.6</ele>
        <time>2018-12-27T09:24:19Z</time>
      </trkpt>
      <trkpt lat="42.76024" lon="-0.30086">
        <ele>1818.8</ele>
        <time>2018-12-27T09:24:22Z</time>
      </trkpt>
      <trkpt lat="42.7602" lon="-0.30071">
        <ele>1823.2</ele>
        <time>2018-12-27T09:24:26Z</time>
      </trkpt>
      <trkpt lat="42.76018" lon="-0.30068">
        <ele>1824.6</ele>
        <time>2018-12-27T09:24:26Z</time>
      </trkpt>
      <trkpt lat="42.7601" lon="-0.30066">
        <ele>1829.5</ele>
        <time>2018-12-27T09:24:29Z</time>
      </trkpt>
      <trkpt lat="42.76009" lon="-0.30067">
        <ele>1830.3</ele>
        <time>2018-12-27T09:24:29Z</time>
      </trkpt>
      <trkpt lat="42.76004" lon="-0.30063">
        <ele>1833</ele>
        <time>2018-12-27T09:24:30Z</time>
      </trkpt>
      <trkpt lat="42.76004" lon="-0.30062">
        <ele>1833.7</ele>
        <time>2018-12-27T09:24:31Z</time>
      </trkpt>
      <trkpt lat="42.75998" lon="-0.30054">
        <ele>1837.8</ele>
        <time>2018-12-27T09:24:33Z</time>
      </trkpt>
      <trkpt lat="42.75998" lon="-0.30053">
        <ele>1838.1</ele>
        <time>2018-12-27T09:24:33Z</time>
      </trkpt>
      <trkpt lat="42.75996" lon="-0.30049">
        <ele>1839.6</ele>
        <time>2018-12-27T09:24:34Z</time>
      </trkpt>
      <trkpt lat="42.75994" lon="-0.30042">
        <ele>1840.9</ele>
        <time>2018-12-27T09:24:35Z</time>
      </trkpt>
      <trkpt lat="42.75989" lon="-0.30035">
        <ele>1845.1</ele>
        <time>2018-12-27T09:24:37Z</time>
      </trkpt>
      <trkpt lat="42.75983" lon="-0.30026">
        <ele>1849.3</ele>
        <time>2018-12-27T09:24:40Z</time>
      </trkpt>
      <trkpt lat="42.75982" lon="-0.30019">
        <ele>1851</ele>
        <time>2018-12-27T09:24:41Z</time>
      </trkpt>
      <trkpt lat="42.75981" lon="-0.30013">
        <ele>1852.8</ele>
        <time>2018-12-27T09:24:42Z</time>
      </trkpt>
      <trkpt lat="42.75979" lon="-0.30003">
        <ele>1854.8</ele>
        <time>2018-12-27T09:24:44Z</time>
      </trkpt>
      <trkpt lat="42.75976" lon="-0.29995">
        <ele>1857.5</ele>
        <time>2018-12-27T09:24:46Z</time>
      </trkpt>
      <trkpt lat="42.75971" lon="-0.29987">
        <ele>1860.3</ele>
        <time>2018-12-27T09:24:48Z</time>
      </trkpt>
      <trkpt lat="42.7597" lon="-0.29982">
        <ele>1861.5</ele>
        <time>2018-12-27T09:24:49Z</time>
      </trkpt>
      <trkpt lat="42.75968" lon="-0.2998">
        <ele>1862.5</ele>
        <time>2018-12-27T09:24:50Z</time>
      </trkpt>
      <trkpt lat="42.75966" lon="-0.29976">
        <ele>1863.5</ele>
        <time>2018-12-27T09:24:51Z</time>
      </trkpt>
      <trkpt lat="42.75965" lon="-0.29972">
        <ele>1864.2</ele>
        <time>2018-12-27T09:24:51Z</time>
      </trkpt>
      <trkpt lat="42.75963" lon="-0.29966">
        <ele>1865.8</ele>
        <time>2018-12-27T09:24:53Z</time>
      </trkpt>
      <trkpt lat="42.7596" lon="-0.29964">
        <ele>1866.8</ele>
        <time>2018-12-27T09:24:54Z</time>
      </trkpt>
      <trkpt lat="42.75958" lon="-0.29959">
        <ele>1868.2</ele>
        <time>2018-12-27T09:24:55Z</time>
      </trkpt>
      <trkpt lat="42.75958" lon="-0.29958">
        <ele>1868.5</ele>
        <time>2018-12-27T09:24:55Z</time>
      </trkpt>
      <trkpt lat="42.75956" lon="-0.29951">
        <ele>1870.2</ele>
        <time>2018-12-27T09:24:56Z</time>
      </trkpt>
      <trkpt lat="42.75953" lon="-0.29943">
        <ele>1872.3</ele>
        <time>2018-12-27T09:24:58Z</time>
      </trkpt>
      <trkpt lat="42.75952" lon="-0.29939">
        <ele>1873.8</ele>
        <time>2018-12-27T09:24:59Z</time>
      </trkpt>
      <trkpt lat="42.7595" lon="-0.29932">
        <ele>1875.6</ele>
        <time>2018-12-27T09:25:00Z</time>
      </trkpt>
      <trkpt lat="42.75948" lon="-0.29928">
        <ele>1876.9</ele>
        <time>2018-12-27T09:25:01Z</time>
      </trkpt>
      <trkpt lat="42.75946" lon="-0.29923">
        <ele>1878.1</ele>
        <time>2018-12-27T09:25:03Z</time>
      </trkpt>
      <trkpt lat="42.75944" lon="-0.29918">
        <ele>1879.6</ele>
        <time>2018-12-27T09:25:04Z</time>
      </trkpt>
      <trkpt lat="42.75945" lon="-0.29914">
        <ele>1879.8</ele>
        <time>2018-12-27T09:25:04Z</time>
      </trkpt>
      <trkpt lat="42.75943" lon="-0.2991">
        <ele>1880.6</ele>
        <time>2018-12-27T09:25:05Z</time>
      </trkpt>
      <trkpt lat="42.7594" lon="-0.29907">
        <ele>1882.8</ele>
        <time>2018-12-27T09:25:06Z</time>
      </trkpt>
      <trkpt lat="42.75934" lon="-0.29906">
        <ele>1886.2</ele>
        <time>2018-12-27T09:25:08Z</time>
      </trkpt>
      <trkpt lat="42.75934" lon="-0.29905">
        <ele>1886.4</ele>
        <time>2018-12-27T09:25:08Z</time>
      </trkpt>
      <trkpt lat="42.75933" lon="-0.29902">
        <ele>1887.2</ele>
        <time>2018-12-27T09:25:09Z</time>
      </trkpt>
      <trkpt lat="42.75932" lon="-0.29898">
        <ele>1887.8</ele>
        <time>2018-12-27T09:25:09Z</time>
      </trkpt>
      <trkpt lat="42.75932" lon="-0.29897">
        <ele>1888.1</ele>
        <time>2018-12-27T09:25:10Z</time>
      </trkpt>
      <trkpt lat="42.75932" lon="-0.29894">
        <ele>1888.5</ele>
        <time>2018-12-27T09:25:10Z</time>
      </trkpt>
      <trkpt lat="42.75931" lon="-0.29893">
        <ele>1888.5</ele>
        <time>2018-12-27T09:25:11Z</time>
      </trkpt>
      <trkpt lat="42.7593" lon="-0.29891">
        <ele>1889.3</ele>
        <time>2018-12-27T09:25:11Z</time>
      </trkpt>
      <trkpt lat="42.7593" lon="-0.29889">
        <ele>1889.5</ele>
        <time>2018-12-27T09:25:11Z</time>
      </trkpt>
      <trkpt lat="42.7593" lon="-0.29888">
        <ele>1889.4</ele>
        <time>2018-12-27T09:25:12Z</time>
      </trkpt>
      <trkpt lat="42.7593" lon="-0.29887">
        <ele>1889.6</ele>
        <time>2018-12-27T09:25:12Z</time>
      </trkpt>
      <trkpt lat="42.75927" lon="-0.29884">
        <ele>1891.3</ele>
        <time>2018-12-27T09:25:13Z</time>
      </trkpt>
      <trkpt lat="42.75927" lon="-0.29884">
        <ele>1891.6</ele>
        <time>2018-12-27T09:25:13Z</time>
      </trkpt>
      <trkpt lat="42.75923" lon="-0.29881">
        <ele>1893.7</ele>
        <time>2018-12-27T09:25:14Z</time>
      </trkpt>
      <trkpt lat="42.75921" lon="-0.29881">
        <ele>1894.9</ele>
        <time>2018-12-27T09:25:15Z</time>
      </trkpt>
      <trkpt lat="42.75919" lon="-0.29887">
        <ele>1896</ele>
        <time>2018-12-27T09:25:16Z</time>
      </trkpt>
      <trkpt lat="42.75918" lon="-0.29888">
        <ele>1896.3</ele>
        <time>2018-12-27T09:25:16Z</time>
      </trkpt>
      <trkpt lat="42.75916" lon="-0.29889">
        <ele>1897.1</ele>
        <time>2018-12-27T09:25:17Z</time>
      </trkpt>
      <trkpt lat="42.75917" lon="-0.29894">
        <ele>1896.5</ele>
        <time>2018-12-27T09:25:18Z</time>
      </trkpt>
      <trkpt lat="42.75917" lon="-0.29908">
        <ele>1895.9</ele>
        <time>2018-12-27T09:25:20Z</time>
      </trkpt>
      <trkpt lat="42.75919" lon="-0.29913">
        <ele>1894.7</ele>
        <time>2018-12-27T09:25:21Z</time>
      </trkpt>
      <trkpt lat="42.75919" lon="-0.29917">
        <ele>1894.8</ele>
        <time>2018-12-27T09:25:22Z</time>
      </trkpt>
      <trkpt lat="42.75918" lon="-0.2992">
        <ele>1894.9</ele>
        <time>2018-12-27T09:25:23Z</time>
      </trkpt>
      <trkpt lat="42.75919" lon="-0.29935">
        <ele>1893.8</ele>
        <time>2018-12-27T09:25:26Z</time>
      </trkpt>
      <trkpt lat="42.75918" lon="-0.29947">
        <ele>1893.6</ele>
        <time>2018-12-27T09:25:28Z</time>
      </trkpt>
      <trkpt lat="42.75918" lon="-0.29958">
        <ele>1893.4</ele>
        <time>2018-12-27T09:25:30Z</time>
      </trkpt>
      <trkpt lat="42.75918" lon="-0.29964">
        <ele>1892.5</ele>
        <time>2018-12-27T09:25:31Z</time>
      </trkpt>
      <trkpt lat="42.75916" lon="-0.29981">
        <ele>1893</ele>
        <time>2018-12-27T09:25:35Z</time>
      </trkpt>
      <trkpt lat="42.75916" lon="-0.29997">
        <ele>1891.5</ele>
        <time>2018-12-27T09:25:38Z</time>
      </trkpt>
      <trkpt lat="42.75917" lon="-0.30004">
        <ele>1890.4</ele>
        <time>2018-12-27T09:25:39Z</time>
      </trkpt>
      <trkpt lat="42.75918" lon="-0.30011">
        <ele>1889.3</ele>
        <time>2018-12-27T09:25:41Z</time>
      </trkpt>
      <trkpt lat="42.7592" lon="-0.30027">
        <ele>1886.7</ele>
        <time>2018-12-27T09:25:44Z</time>
      </trkpt>
      <trkpt lat="42.7592" lon="-0.3005">
        <ele>1884.4</ele>
        <time>2018-12-27T09:25:48Z</time>
      </trkpt>
      <trkpt lat="42.75914" lon="-0.30069">
        <ele>1883.6</ele>
        <time>2018-12-27T09:25:53Z</time>
      </trkpt>
      <trkpt lat="42.7591" lon="-0.30086">
        <ele>1882</ele>
        <time>2018-12-27T09:25:56Z</time>
      </trkpt>
      <trkpt lat="42.75904" lon="-0.30101">
        <ele>1881.2</ele>
        <time>2018-12-27T09:25:59Z</time>
      </trkpt>
      <trkpt lat="42.75901" lon="-0.30117">
        <ele>1878.2</ele>
        <time>2018-12-27T09:26:03Z</time>
      </trkpt>
      <trkpt lat="42.75899" lon="-0.30136">
        <ele>1873</ele>
        <time>2018-12-27T09:26:06Z</time>
      </trkpt>
      <trkpt lat="42.75895" lon="-0.30157">
        <ele>1867.2</ele>
        <time>2018-12-27T09:26:11Z</time>
      </trkpt>
      <trkpt lat="42.75892" lon="-0.30173">
        <ele>1862.7</ele>
        <time>2018-12-27T09:26:14Z</time>
      </trkpt>
      <trkpt lat="42.75886" lon="-0.30187">
        <ele>1859.2</ele>
        <time>2018-12-27T09:26:17Z</time>
      </trkpt>
      <trkpt lat="42.75881" lon="-0.30195">
        <ele>1857.6</ele>
        <time>2018-12-27T09:26:19Z</time>
      </trkpt>
      <trkpt lat="42.75877" lon="-0.30199">
        <ele>1857.2</ele>
        <time>2018-12-27T09:26:20Z</time>
      </trkpt>
      <trkpt lat="42.75863" lon="-0.30206">
        <ele>1856.7</ele>
        <time>2018-12-27T09:26:24Z</time>
      </trkpt>
      <trkpt lat="42.75849" lon="-0.30209">
        <ele>1857.3</ele>
        <time>2018-12-27T09:26:28Z</time>
      </trkpt>
      <trkpt lat="42.75835" lon="-0.30217">
        <ele>1856</ele>
        <time>2018-12-27T09:26:32Z</time>
      </trkpt>
      <trkpt lat="42.7583" lon="-0.30219">
        <ele>1855.9</ele>
        <time>2018-12-27T09:26:34Z</time>
      </trkpt>
      <trkpt lat="42.75825" lon="-0.3022">
        <ele>1856.1</ele>
        <time>2018-12-27T09:26:35Z</time>
      </trkpt>
      <trkpt lat="42.75813" lon="-0.30223">
        <ele>1856.6</ele>
        <time>2018-12-27T09:26:38Z</time>
      </trkpt>
      <trkpt lat="42.7581" lon="-0.30224">
        <ele>1856.5</ele>
        <time>2018-12-27T09:26:39Z</time>
      </trkpt>
      <trkpt lat="42.75797" lon="-0.30232">
        <ele>1855.3</ele>
        <time>2018-12-27T09:26:43Z</time>
      </trkpt>
      <trkpt lat="42.75791" lon="-0.30234">
        <ele>1855.2</ele>
        <time>2018-12-27T09:26:45Z</time>
      </trkpt>
      <trkpt lat="42.75785" lon="-0.30236">
        <ele>1854.5</ele>
        <time>2018-12-27T09:26:46Z</time>
      </trkpt>
      <trkpt lat="42.75769" lon="-0.30243">
        <ele>1851.9</ele>
        <time>2018-12-27T09:26:51Z</time>
      </trkpt>
      <trkpt lat="42.75759" lon="-0.30251">
        <ele>1849.4</ele>
        <time>2018-12-27T09:26:54Z</time>
      </trkpt>
      <trkpt lat="42.75747" lon="-0.30255">
        <ele>1848.9</ele>
        <time>2018-12-27T09:26:57Z</time>
      </trkpt>
      <trkpt lat="42.75734" lon="-0.30261">
        <ele>1848.3</ele>
        <time>2018-12-27T09:27:01Z</time>
      </trkpt>
      <trkpt lat="42.75723" lon="-0.30267">
        <ele>1848</ele>
        <time>2018-12-27T09:27:04Z</time>
      </trkpt>
      <trkpt lat="42.75711" lon="-0.30272">
        <ele>1848.2</ele>
        <time>2018-12-27T09:27:07Z</time>
      </trkpt>
      <trkpt lat="42.75696" lon="-0.30278">
        <ele>1846</ele>
        <time>2018-12-27T09:27:11Z</time>
      </trkpt>
      <trkpt lat="42.75679" lon="-0.30285">
        <ele>1842.7</ele>
        <time>2018-12-27T09:27:16Z</time>
      </trkpt>
      <trkpt lat="42.75677" lon="-0.30284">
        <ele>1842.4</ele>
        <time>2018-12-27T09:27:17Z</time>
      </trkpt>
      <trkpt lat="42.75672" lon="-0.30279">
        <ele>1842.4</ele>
        <time>2018-12-27T09:27:18Z</time>
      </trkpt>
      <trkpt lat="42.75671" lon="-0.30276">
        <ele>1842.4</ele>
        <time>2018-12-27T09:27:19Z</time>
      </trkpt>
      <trkpt lat="42.75671" lon="-0.30268">
        <ele>1843.2</ele>
        <time>2018-12-27T09:27:21Z</time>
      </trkpt>
      <trkpt lat="42.75672" lon="-0.30264">
        <ele>1843.7</ele>
        <time>2018-12-27T09:27:21Z</time>
      </trkpt>
      <trkpt lat="42.75672" lon="-0.3025">
        <ele>1845.4</ele>
        <time>2018-12-27T09:27:24Z</time>
      </trkpt>
      <trkpt lat="42.75672" lon="-0.30247">
        <ele>1845.8</ele>
        <time>2018-12-27T09:27:25Z</time>
      </trkpt>
      <trkpt lat="42.7567" lon="-0.30231">
        <ele>1847.1</ele>
        <time>2018-12-27T09:27:28Z</time>
      </trkpt>
      <trkpt lat="42.75668" lon="-0.30217">
        <ele>1848.3</ele>
        <time>2018-12-27T09:27:31Z</time>
      </trkpt>
      <trkpt lat="42.75667" lon="-0.30202">
        <ele>1849</ele>
        <time>2018-12-27T09:27:34Z</time>
      </trkpt>
      <trkpt lat="42.75665" lon="-0.30184">
        <ele>1848.4</ele>
        <time>2018-12-27T09:27:37Z</time>
      </trkpt>
      <trkpt lat="42.75664" lon="-0.30166">
        <ele>1847.8</ele>
        <time>2018-12-27T09:27:41Z</time>
      </trkpt>
      <trkpt lat="42.75663" lon="-0.3015">
        <ele>1847</ele>
        <time>2018-12-27T09:27:44Z</time>
      </trkpt>
      <trkpt lat="42.75662" lon="-0.30133">
        <ele>1846.5</ele>
        <time>2018-12-27T09:27:47Z</time>
      </trkpt>
      <trkpt lat="42.75663" lon="-0.30115">
        <ele>1847.2</ele>
        <time>2018-12-27T09:27:51Z</time>
      </trkpt>
      <trkpt lat="42.75665" lon="-0.30099">
        <ele>1849</ele>
        <time>2018-12-27T09:27:54Z</time>
      </trkpt>
      <trkpt lat="42.75667" lon="-0.30083">
        <ele>1850.9</ele>
        <time>2018-12-27T09:27:57Z</time>
      </trkpt>
      <trkpt lat="42.75669" lon="-0.30064">
        <ele>1852.6</ele>
        <time>2018-12-27T09:28:01Z</time>
      </trkpt>
      <trkpt lat="42.75669" lon="-0.30045">
        <ele>1853.4</ele>
        <time>2018-12-27T09:28:05Z</time>
      </trkpt>
      <trkpt lat="42.75667" lon="-0.30029">
        <ele>1854.6</ele>
        <time>2018-12-27T09:28:08Z</time>
      </trkpt>
      <trkpt lat="42.75663" lon="-0.30013">
        <ele>1855.4</ele>
        <time>2018-12-27T09:28:11Z</time>
      </trkpt>
      <trkpt lat="42.75656" lon="-0.29991">
        <ele>1855.1</ele>
        <time>2018-12-27T09:28:16Z</time>
      </trkpt>
      <trkpt lat="42.75649" lon="-0.29972">
        <ele>1854.1</ele>
        <time>2018-12-27T09:28:20Z</time>
      </trkpt>
      <trkpt lat="42.75646" lon="-0.29956">
        <ele>1855.1</ele>
        <time>2018-12-27T09:28:23Z</time>
      </trkpt>
      <trkpt lat="42.75645" lon="-0.29937">
        <ele>1858.7</ele>
        <time>2018-12-27T09:28:27Z</time>
      </trkpt>
      <trkpt lat="42.75642" lon="-0.29921">
        <ele>1860.7</ele>
        <time>2018-12-27T09:28:30Z</time>
      </trkpt>
      <trkpt lat="42.75637" lon="-0.29897">
        <ele>1863.9</ele>
        <time>2018-12-27T09:28:35Z</time>
      </trkpt>
      <trkpt lat="42.75635" lon="-0.29875">
        <ele>1867.9</ele>
        <time>2018-12-27T09:28:39Z</time>
      </trkpt>
      <trkpt lat="42.75636" lon="-0.29859">
        <ele>1871.4</ele>
        <time>2018-12-27T09:28:42Z</time>
      </trkpt>
      <trkpt lat="42.75637" lon="-0.2984">
        <ele>1875.5</ele>
        <time>2018-12-27T09:28:46Z</time>
      </trkpt>
      <trkpt lat="42.75637" lon="-0.29824">
        <ele>1878.7</ele>
        <time>2018-12-27T09:28:49Z</time>
      </trkpt>
      <trkpt lat="42.75636" lon="-0.29812">
        <ele>1880.2</ele>
        <time>2018-12-27T09:28:52Z</time>
      </trkpt>
      <trkpt lat="42.75633" lon="-0.29805">
        <ele>1880</ele>
        <time>2018-12-27T09:28:53Z</time>
      </trkpt>
      <trkpt lat="42.75623" lon="-0.29785">
        <ele>1878.9</ele>
        <time>2018-12-27T09:28:58Z</time>
      </trkpt>
      <trkpt lat="42.75616" lon="-0.29771">
        <ele>1879.6</ele>
        <time>2018-12-27T09:29:01Z</time>
      </trkpt>
      <trkpt lat="42.75606" lon="-0.2975">
        <ele>1881.2</ele>
        <time>2018-12-27T09:29:06Z</time>
      </trkpt>
      <trkpt lat="42.75605" lon="-0.29747">
        <ele>1881.5</ele>
        <time>2018-12-27T09:29:07Z</time>
      </trkpt>
      <trkpt lat="42.75599" lon="-0.29734">
        <ele>1882.9</ele>
        <time>2018-12-27T09:29:10Z</time>
      </trkpt>
      <trkpt lat="42.75587" lon="-0.29713">
        <ele>1884.5</ele>
        <time>2018-12-27T09:29:15Z</time>
      </trkpt>
      <trkpt lat="42.75577" lon="-0.29699">
        <ele>1885.5</ele>
        <time>2018-12-27T09:29:19Z</time>
      </trkpt>
      <trkpt lat="42.75562" lon="-0.29684">
        <ele>1884.9</ele>
        <time>2018-12-27T09:29:24Z</time>
      </trkpt>
      <trkpt lat="42.75549" lon="-0.29672">
        <ele>1884.4</ele>
        <time>2018-12-27T09:29:28Z</time>
      </trkpt>
      <trkpt lat="42.75536" lon="-0.29663">
        <ele>1882.3</ele>
        <time>2018-12-27T09:29:32Z</time>
      </trkpt>
      <trkpt lat="42.75525" lon="-0.29654">
        <ele>1880.6</ele>
        <time>2018-12-27T09:29:35Z</time>
      </trkpt>
      <trkpt lat="42.75513" lon="-0.29638">
        <ele>1881.2</ele>
        <time>2018-12-27T09:29:40Z</time>
      </trkpt>
      <trkpt lat="42.75507" lon="-0.29623">
        <ele>1884.3</ele>
        <time>2018-12-27T09:29:43Z</time>
      </trkpt>
      <trkpt lat="42.755" lon="-0.29601">
        <ele>1889.3</ele>
        <time>2018-12-27T09:29:48Z</time>
      </trkpt>
      <trkpt lat="42.75491" lon="-0.29582">
        <ele>1892.7</ele>
        <time>2018-12-27T09:29:52Z</time>
      </trkpt>
      <trkpt lat="42.7548" lon="-0.29574">
        <ele>1890.9</ele>
        <time>2018-12-27T09:29:56Z</time>
      </trkpt>
      <trkpt lat="42.75465" lon="-0.29565">
        <ele>1887.7</ele>
        <time>2018-12-27T09:30:00Z</time>
      </trkpt>
      <trkpt lat="42.7545" lon="-0.29555">
        <ele>1886.2</ele>
        <time>2018-12-27T09:30:04Z</time>
      </trkpt>
      <trkpt lat="42.75438" lon="-0.29545">
        <ele>1886.8</ele>
        <time>2018-12-27T09:30:08Z</time>
      </trkpt>
      <trkpt lat="42.75422" lon="-0.29528">
        <ele>1888.4</ele>
        <time>2018-12-27T09:30:14Z</time>
      </trkpt>
      <trkpt lat="42.75413" lon="-0.29512">
        <ele>1891.3</ele>
        <time>2018-12-27T09:30:18Z</time>
      </trkpt>
      <trkpt lat="42.75407" lon="-0.29491">
        <ele>1897</ele>
        <time>2018-12-27T09:30:22Z</time>
      </trkpt>
      <trkpt lat="42.75398" lon="-0.29469">
        <ele>1902.4</ele>
        <time>2018-12-27T09:30:27Z</time>
      </trkpt>
      <trkpt lat="42.75386" lon="-0.29456">
        <ele>1903.1</ele>
        <time>2018-12-27T09:30:31Z</time>
      </trkpt>
      <trkpt lat="42.75367" lon="-0.29444">
        <ele>1902.3</ele>
        <time>2018-12-27T09:30:37Z</time>
      </trkpt>
      <trkpt lat="42.75364" lon="-0.29443">
        <ele>1902.3</ele>
        <time>2018-12-27T09:30:37Z</time>
      </trkpt>
      <trkpt lat="42.75352" lon="-0.29446">
        <ele>1898.9</ele>
        <time>2018-12-27T09:30:41Z</time>
      </trkpt>
      <trkpt lat="42.75339" lon="-0.29459">
        <ele>1891.9</ele>
        <time>2018-12-27T09:30:45Z</time>
      </trkpt>
      <trkpt lat="42.75325" lon="-0.29463">
        <ele>1888.2</ele>
        <time>2018-12-27T09:30:49Z</time>
      </trkpt>
      <trkpt lat="42.75314" lon="-0.29455">
        <ele>1888.4</ele>
        <time>2018-12-27T09:30:52Z</time>
      </trkpt>
      <trkpt lat="42.75309" lon="-0.29449">
        <ele>1889.4</ele>
        <time>2018-12-27T09:30:54Z</time>
      </trkpt>
      <trkpt lat="42.75298" lon="-0.29438">
        <ele>1890.3</ele>
        <time>2018-12-27T09:30:58Z</time>
      </trkpt>
      <trkpt lat="42.75279" lon="-0.29426">
        <ele>1894.2</ele>
        <time>2018-12-27T09:31:03Z</time>
      </trkpt>
      <trkpt lat="42.75265" lon="-0.29414">
        <ele>1898.9</ele>
        <time>2018-12-27T09:31:08Z</time>
      </trkpt>
      <trkpt lat="42.75248" lon="-0.29401">
        <ele>1904.4</ele>
        <time>2018-12-27T09:31:13Z</time>
      </trkpt>
      <trkpt lat="42.75232" lon="-0.29386">
        <ele>1910.2</ele>
        <time>2018-12-27T09:31:18Z</time>
      </trkpt>
      <trkpt lat="42.75215" lon="-0.29378">
        <ele>1913.7</ele>
        <time>2018-12-27T09:31:23Z</time>
      </trkpt>
      <trkpt lat="42.75211" lon="-0.29387">
        <ele>1911.4</ele>
        <time>2018-12-27T09:31:25Z</time>
      </trkpt>
      <trkpt lat="42.75207" lon="-0.29405">
        <ele>1906.8</ele>
        <time>2018-12-27T09:31:29Z</time>
      </trkpt>
      <trkpt lat="42.75199" lon="-0.29421">
        <ele>1902.2</ele>
        <time>2018-12-27T09:31:32Z</time>
      </trkpt>
      <trkpt lat="42.75185" lon="-0.29437">
        <ele>1897.8</ele>
        <time>2018-12-27T09:31:37Z</time>
      </trkpt>
      <trkpt lat="42.75172" lon="-0.29435">
        <ele>1898.2</ele>
        <time>2018-12-27T09:31:41Z</time>
      </trkpt>
      <trkpt lat="42.7516" lon="-0.29424">
        <ele>1900.9</ele>
        <time>2018-12-27T09:31:45Z</time>
      </trkpt>
      <trkpt lat="42.75142" lon="-0.29412">
        <ele>1904.1</ele>
        <time>2018-12-27T09:31:50Z</time>
      </trkpt>
      <trkpt lat="42.75129" lon="-0.2941">
        <ele>1904.4</ele>
        <time>2018-12-27T09:31:53Z</time>
      </trkpt>
      <trkpt lat="42.75116" lon="-0.29409">
        <ele>1907.5</ele>
        <time>2018-12-27T09:31:57Z</time>
      </trkpt>
      <trkpt lat="42.75103" lon="-0.29398">
        <ele>1915.1</ele>
        <time>2018-12-27T09:32:01Z</time>
      </trkpt>
      <trkpt lat="42.75086" lon="-0.29392">
        <ele>1922.6</ele>
        <time>2018-12-27T09:32:06Z</time>
      </trkpt>
      <trkpt lat="42.75073" lon="-0.29399">
        <ele>1924.7</ele>
        <time>2018-12-27T09:32:09Z</time>
      </trkpt>
      <trkpt lat="42.75059" lon="-0.29412">
        <ele>1925.2</ele>
        <time>2018-12-27T09:32:14Z</time>
      </trkpt>
      <trkpt lat="42.75044" lon="-0.29429">
        <ele>1924.2</ele>
        <time>2018-12-27T09:32:19Z</time>
      </trkpt>
      <trkpt lat="42.75042" lon="-0.29431">
        <ele>1923.7</ele>
        <time>2018-12-27T09:32:20Z</time>
      </trkpt>
      <trkpt lat="42.75029" lon="-0.2945">
        <ele>1918.1</ele>
        <time>2018-12-27T09:32:25Z</time>
      </trkpt>
      <trkpt lat="42.75027" lon="-0.29453">
        <ele>1917.3</ele>
        <time>2018-12-27T09:32:26Z</time>
      </trkpt>
      <trkpt lat="42.75014" lon="-0.29475">
        <ele>1912.9</ele>
        <time>2018-12-27T09:32:31Z</time>
      </trkpt>
      <trkpt lat="42.75012" lon="-0.29478">
        <ele>1912.3</ele>
        <time>2018-12-27T09:32:32Z</time>
      </trkpt>
      <trkpt lat="42.75001" lon="-0.29496">
        <ele>1909.1</ele>
        <time>2018-12-27T09:32:37Z</time>
      </trkpt>
      <trkpt lat="42.74988" lon="-0.29518">
        <ele>1904.4</ele>
        <time>2018-12-27T09:32:42Z</time>
      </trkpt>
      <trkpt lat="42.74978" lon="-0.29543">
        <ele>1898.5</ele>
        <time>2018-12-27T09:32:48Z</time>
      </trkpt>
      <trkpt lat="42.74976" lon="-0.29549">
        <ele>1896.9</ele>
        <time>2018-12-27T09:32:49Z</time>
      </trkpt>
      <trkpt lat="42.74972" lon="-0.29557">
        <ele>1893.9</ele>
        <time>2018-12-27T09:32:51Z</time>
      </trkpt>
      <trkpt lat="42.74964" lon="-0.29573">
        <ele>1888.6</ele>
        <time>2018-12-27T09:32:55Z</time>
      </trkpt>
      <trkpt lat="42.7495" lon="-0.29586">
        <ele>1882.5</ele>
        <time>2018-12-27T09:32:59Z</time>
      </trkpt>
      <trkpt lat="42.74933" lon="-0.29589">
        <ele>1878</ele>
        <time>2018-12-27T09:33:04Z</time>
      </trkpt>
      <trkpt lat="42.74913" lon="-0.29589">
        <ele>1874.5</ele>
        <time>2018-12-27T09:33:09Z</time>
      </trkpt>
      <trkpt lat="42.74893" lon="-0.29582">
        <ele>1873.4</ele>
        <time>2018-12-27T09:33:15Z</time>
      </trkpt>
      <trkpt lat="42.74874" lon="-0.29571">
        <ele>1873.6</ele>
        <time>2018-12-27T09:33:20Z</time>
      </trkpt>
      <trkpt lat="42.74857" lon="-0.29561">
        <ele>1871.9</ele>
        <time>2018-12-27T09:33:25Z</time>
      </trkpt>
      <trkpt lat="42.74853" lon="-0.29558">
        <ele>1871.7</ele>
        <time>2018-12-27T09:33:26Z</time>
      </trkpt>
      <trkpt lat="42.74838" lon="-0.29546">
        <ele>1870.4</ele>
        <time>2018-12-27T09:33:31Z</time>
      </trkpt>
      <trkpt lat="42.74831" lon="-0.29541">
        <ele>1869.5</ele>
        <time>2018-12-27T09:33:33Z</time>
      </trkpt>
      <trkpt lat="42.74816" lon="-0.29525">
        <ele>1868.2</ele>
        <time>2018-12-27T09:33:38Z</time>
      </trkpt>
      <trkpt lat="42.7481" lon="-0.2952">
        <ele>1867.5</ele>
        <time>2018-12-27T09:33:40Z</time>
      </trkpt>
      <trkpt lat="42.74796" lon="-0.29499">
        <ele>1868.8</ele>
        <time>2018-12-27T09:33:46Z</time>
      </trkpt>
      <trkpt lat="42.74793" lon="-0.2948">
        <ele>1873.3</ele>
        <time>2018-12-27T09:33:49Z</time>
      </trkpt>
      <trkpt lat="42.74792" lon="-0.29463">
        <ele>1877.9</ele>
        <time>2018-12-27T09:33:53Z</time>
      </trkpt>
      <trkpt lat="42.74785" lon="-0.29443">
        <ele>1882.4</ele>
        <time>2018-12-27T09:33:57Z</time>
      </trkpt>
      <trkpt lat="42.74782" lon="-0.29442">
        <ele>1882.5</ele>
        <time>2018-12-27T09:33:58Z</time>
      </trkpt>
      <trkpt lat="42.74776" lon="-0.29441">
        <ele>1882.4</ele>
        <time>2018-12-27T09:33:59Z</time>
      </trkpt>
      <trkpt lat="42.74762" lon="-0.29444">
        <ele>1880.6</ele>
        <time>2018-12-27T09:34:03Z</time>
      </trkpt>
      <trkpt lat="42.74744" lon="-0.29444">
        <ele>1879.1</ele>
        <time>2018-12-27T09:34:08Z</time>
      </trkpt>
      <trkpt lat="42.74738" lon="-0.29444">
        <ele>1878.7</ele>
        <time>2018-12-27T09:34:10Z</time>
      </trkpt>
      <trkpt lat="42.74719" lon="-0.29442">
        <ele>1877.8</ele>
        <time>2018-12-27T09:34:15Z</time>
      </trkpt>
      <trkpt lat="42.747" lon="-0.29441">
        <ele>1875.7</ele>
        <time>2018-12-27T09:34:20Z</time>
      </trkpt>
      <trkpt lat="42.74693" lon="-0.29442">
        <ele>1874.1</ele>
        <time>2018-12-27T09:34:22Z</time>
      </trkpt>
      <trkpt lat="42.74674" lon="-0.29444">
        <ele>1869.6</ele>
        <time>2018-12-27T09:34:27Z</time>
      </trkpt>
      <trkpt lat="42.74653" lon="-0.29445">
        <ele>1865.4</ele>
        <time>2018-12-27T09:34:32Z</time>
      </trkpt>
      <trkpt lat="42.74647" lon="-0.29444">
        <ele>1864.3</ele>
        <time>2018-12-27T09:34:34Z</time>
      </trkpt>
      <trkpt lat="42.74627" lon="-0.29439">
        <ele>1862.4</ele>
        <time>2018-12-27T09:34:39Z</time>
      </trkpt>
      <trkpt lat="42.74624" lon="-0.29438">
        <ele>1861.8</ele>
        <time>2018-12-27T09:34:40Z</time>
      </trkpt>
      <trkpt lat="42.74603" lon="-0.29429">
        <ele>1859.2</ele>
        <time>2018-12-27T09:34:46Z</time>
      </trkpt>
      <trkpt lat="42.74601" lon="-0.29427">
        <ele>1859.2</ele>
        <time>2018-12-27T09:34:47Z</time>
      </trkpt>
      <trkpt lat="42.74582" lon="-0.29416">
        <ele>1858.2</ele>
        <time>2018-12-27T09:34:52Z</time>
      </trkpt>
      <trkpt lat="42.74573" lon="-0.29409">
        <ele>1858.8</ele>
        <time>2018-12-27T09:34:55Z</time>
      </trkpt>
      <trkpt lat="42.74554" lon="-0.29397">
        <ele>1858.6</ele>
        <time>2018-12-27T09:35:01Z</time>
      </trkpt>
      <trkpt lat="42.74551" lon="-0.29396">
        <ele>1858.4</ele>
        <time>2018-12-27T09:35:01Z</time>
      </trkpt>
      <trkpt lat="42.74532" lon="-0.29386">
        <ele>1857</ele>
        <time>2018-12-27T09:35:07Z</time>
      </trkpt>
      <trkpt lat="42.74512" lon="-0.29375">
        <ele>1855.3</ele>
        <time>2018-12-27T09:35:13Z</time>
      </trkpt>
      <trkpt lat="42.74506" lon="-0.29372">
        <ele>1854.2</ele>
        <time>2018-12-27T09:35:14Z</time>
      </trkpt>
      <trkpt lat="42.74488" lon="-0.29361">
        <ele>1850.2</ele>
        <time>2018-12-27T09:35:20Z</time>
      </trkpt>
      <trkpt lat="42.7447" lon="-0.29345">
        <ele>1847.2</ele>
        <time>2018-12-27T09:35:25Z</time>
      </trkpt>
      <trkpt lat="42.74464" lon="-0.29335">
        <ele>1847.1</ele>
        <time>2018-12-27T09:35:28Z</time>
      </trkpt>
      <trkpt lat="42.74462" lon="-0.29326">
        <ele>1848.1</ele>
        <time>2018-12-27T09:35:30Z</time>
      </trkpt>
      <trkpt lat="42.74465" lon="-0.29302">
        <ele>1853.5</ele>
        <time>2018-12-27T09:35:35Z</time>
      </trkpt>
      <trkpt lat="42.74464" lon="-0.29286">
        <ele>1857</ele>
        <time>2018-12-27T09:35:38Z</time>
      </trkpt>
      <trkpt lat="42.74462" lon="-0.29283">
        <ele>1857.1</ele>
        <time>2018-12-27T09:35:38Z</time>
      </trkpt>
      <trkpt lat="42.74446" lon="-0.29271">
        <ele>1858.1</ele>
        <time>2018-12-27T09:35:43Z</time>
      </trkpt>
      <trkpt lat="42.74432" lon="-0.29265">
        <ele>1858</ele>
        <time>2018-12-27T09:35:47Z</time>
      </trkpt>
      <trkpt lat="42.74412" lon="-0.29258">
        <ele>1857.9</ele>
        <time>2018-12-27T09:35:53Z</time>
      </trkpt>
      <trkpt lat="42.74409" lon="-0.29257">
        <ele>1857.8</ele>
        <time>2018-12-27T09:35:54Z</time>
      </trkpt>
      <trkpt lat="42.7439" lon="-0.29255">
        <ele>1856.6</ele>
        <time>2018-12-27T09:35:59Z</time>
      </trkpt>
      <trkpt lat="42.7438" lon="-0.29254">
        <ele>1855.7</ele>
        <time>2018-12-27T09:36:01Z</time>
      </trkpt>
      <trkpt lat="42.74359" lon="-0.29251">
        <ele>1848.2</ele>
        <time>2018-12-27T09:36:07Z</time>
      </trkpt>
      <trkpt lat="42.74352" lon="-0.29251">
        <ele>1845.2</ele>
        <time>2018-12-27T09:36:09Z</time>
      </trkpt>
      <trkpt lat="42.74334" lon="-0.29248">
        <ele>1837</ele>
        <time>2018-12-27T09:36:14Z</time>
      </trkpt>
      <trkpt lat="42.7433" lon="-0.29248">
        <ele>1835.3</ele>
        <time>2018-12-27T09:36:15Z</time>
      </trkpt>
      <trkpt lat="42.74312" lon="-0.29244">
        <ele>1827.5</ele>
        <time>2018-12-27T09:36:20Z</time>
      </trkpt>
      <trkpt lat="42.74309" lon="-0.29243">
        <ele>1826.3</ele>
        <time>2018-12-27T09:36:21Z</time>
      </trkpt>
      <trkpt lat="42.7429" lon="-0.29229">
        <ele>1820.7</ele>
        <time>2018-12-27T09:36:26Z</time>
      </trkpt>
      <trkpt lat="42.74279" lon="-0.29213">
        <ele>1817.7</ele>
        <time>2018-12-27T09:36:31Z</time>
      </trkpt>
      <trkpt lat="42.74276" lon="-0.29191">
        <ele>1818.7</ele>
        <time>2018-12-27T09:36:35Z</time>
      </trkpt>
      <trkpt lat="42.74277" lon="-0.29168">
        <ele>1822.4</ele>
        <time>2018-12-27T09:36:40Z</time>
      </trkpt>
      <trkpt lat="42.74279" lon="-0.29139">
        <ele>1826.5</ele>
        <time>2018-12-27T09:36:45Z</time>
      </trkpt>
      <trkpt lat="42.74279" lon="-0.29134">
        <ele>1827.2</ele>
        <time>2018-12-27T09:36:46Z</time>
      </trkpt>
      <trkpt lat="42.74281" lon="-0.29115">
        <ele>1829.9</ele>
        <time>2018-12-27T09:36:50Z</time>
      </trkpt>
      <trkpt lat="42.74284" lon="-0.29101">
        <ele>1832.1</ele>
        <time>2018-12-27T09:36:53Z</time>
      </trkpt>
      <trkpt lat="42.74288" lon="-0.29077">
        <ele>1835.1</ele>
        <time>2018-12-27T09:36:58Z</time>
      </trkpt>
      <trkpt lat="42.74283" lon="-0.29061">
        <ele>1832</ele>
        <time>2018-12-27T09:37:01Z</time>
      </trkpt>
      <trkpt lat="42.74274" lon="-0.29042">
        <ele>1826.2</ele>
        <time>2018-12-27T09:37:06Z</time>
      </trkpt>
      <trkpt lat="42.74262" lon="-0.29032">
        <ele>1819.8</ele>
        <time>2018-12-27T09:37:09Z</time>
      </trkpt>
      <trkpt lat="42.74251" lon="-0.29013">
        <ele>1815.2</ele>
        <time>2018-12-27T09:37:14Z</time>
      </trkpt>
      <trkpt lat="42.74249" lon="-0.2899">
        <ele>1817.2</ele>
        <time>2018-12-27T09:37:19Z</time>
      </trkpt>
      <trkpt lat="42.74251" lon="-0.28966">
        <ele>1820.6</ele>
        <time>2018-12-27T09:37:23Z</time>
      </trkpt>
      <trkpt lat="42.7425" lon="-0.28953">
        <ele>1821.4</ele>
        <time>2018-12-27T09:37:26Z</time>
      </trkpt>
      <trkpt lat="42.74248" lon="-0.28949">
        <ele>1820.8</ele>
        <time>2018-12-27T09:37:27Z</time>
      </trkpt>
      <trkpt lat="42.74237" lon="-0.28926">
        <ele>1818.1</ele>
        <time>2018-12-27T09:37:32Z</time>
      </trkpt>
      <trkpt lat="42.74232" lon="-0.28907">
        <ele>1818.2</ele>
        <time>2018-12-27T09:37:36Z</time>
      </trkpt>
      <trkpt lat="42.74225" lon="-0.28886">
        <ele>1818.7</ele>
        <time>2018-12-27T09:37:41Z</time>
      </trkpt>
      <trkpt lat="42.74223" lon="-0.28884">
        <ele>1817.5</ele>
        <time>2018-12-27T09:37:42Z</time>
      </trkpt>
      <trkpt lat="42.74213" lon="-0.28879">
        <ele>1813.4</ele>
        <time>2018-12-27T09:37:44Z</time>
      </trkpt>
      <trkpt lat="42.74196" lon="-0.28869">
        <ele>1810.7</ele>
        <time>2018-12-27T09:37:49Z</time>
      </trkpt>
      <trkpt lat="42.74183" lon="-0.28853">
        <ele>1812.8</ele>
        <time>2018-12-27T09:37:54Z</time>
      </trkpt>
      <trkpt lat="42.74181" lon="-0.28849">
        <ele>1813.8</ele>
        <time>2018-12-27T09:37:55Z</time>
      </trkpt>
      <trkpt lat="42.74169" lon="-0.28832">
        <ele>1816.7</ele>
        <time>2018-12-27T09:37:59Z</time>
      </trkpt>
      <trkpt lat="42.74155" lon="-0.28832">
        <ele>1812.6</ele>
        <time>2018-12-27T09:38:03Z</time>
      </trkpt>
      <trkpt lat="42.74136" lon="-0.28838">
        <ele>1804.9</ele>
        <time>2018-12-27T09:38:08Z</time>
      </trkpt>
      <trkpt lat="42.74133" lon="-0.28839">
        <ele>1803.5</ele>
        <time>2018-12-27T09:38:09Z</time>
      </trkpt>
      <trkpt lat="42.74115" lon="-0.2885">
        <ele>1794.3</ele>
        <time>2018-12-27T09:38:14Z</time>
      </trkpt>
      <trkpt lat="42.74097" lon="-0.2886">
        <ele>1785.8</ele>
        <time>2018-12-27T09:38:20Z</time>
      </trkpt>
      <trkpt lat="42.74087" lon="-0.28865">
        <ele>1781.5</ele>
        <time>2018-12-27T09:38:23Z</time>
      </trkpt>
      <trkpt lat="42.74074" lon="-0.2886">
        <ele>1779.6</ele>
        <time>2018-12-27T09:38:26Z</time>
      </trkpt>
      <trkpt lat="42.74059" lon="-0.28843">
        <ele>1781.3</ele>
        <time>2018-12-27T09:38:31Z</time>
      </trkpt>
      <trkpt lat="42.74043" lon="-0.28823">
        <ele>1783.1</ele>
        <time>2018-12-27T09:38:37Z</time>
      </trkpt>
      <trkpt lat="42.74031" lon="-0.28815">
        <ele>1784.8</ele>
        <time>2018-12-27T09:38:41Z</time>
      </trkpt>
      <trkpt lat="42.7401" lon="-0.28808">
        <ele>1786.3</ele>
        <time>2018-12-27T09:38:46Z</time>
      </trkpt>
      <trkpt lat="42.73992" lon="-0.28805">
        <ele>1786.4</ele>
        <time>2018-12-27T09:38:51Z</time>
      </trkpt>
      <trkpt lat="42.73989" lon="-0.28804">
        <ele>1786.4</ele>
        <time>2018-12-27T09:38:52Z</time>
      </trkpt>
      <trkpt lat="42.73968" lon="-0.28805">
        <ele>1785.4</ele>
        <time>2018-12-27T09:38:58Z</time>
      </trkpt>
      <trkpt lat="42.73952" lon="-0.28816">
        <ele>1781.6</ele>
        <time>2018-12-27T09:39:02Z</time>
      </trkpt>
      <trkpt lat="42.73941" lon="-0.28837">
        <ele>1776.3</ele>
        <time>2018-12-27T09:39:08Z</time>
      </trkpt>
      <trkpt lat="42.73935" lon="-0.28856">
        <ele>1773.4</ele>
        <time>2018-12-27T09:39:12Z</time>
      </trkpt>
      <trkpt lat="42.73925" lon="-0.28881">
        <ele>1770.2</ele>
        <time>2018-12-27T09:39:17Z</time>
      </trkpt>
      <trkpt lat="42.73915" lon="-0.28898">
        <ele>1768</ele>
        <time>2018-12-27T09:39:21Z</time>
      </trkpt>
      <trkpt lat="42.73911" lon="-0.28901">
        <ele>1767.9</ele>
        <time>2018-12-27T09:39:23Z</time>
      </trkpt>
      <trkpt lat="42.73908" lon="-0.28898">
        <ele>1767.8</ele>
        <time>2018-12-27T09:39:24Z</time>
      </trkpt>
      <trkpt lat="42.73904" lon="-0.28882">
        <ele>1767.9</ele>
        <time>2018-12-27T09:39:27Z</time>
      </trkpt>
      <trkpt lat="42.73904" lon="-0.28877">
        <ele>1767.8</ele>
        <time>2018-12-27T09:39:28Z</time>
      </trkpt>
      <trkpt lat="42.73899" lon="-0.28858">
        <ele>1766.7</ele>
        <time>2018-12-27T09:39:32Z</time>
      </trkpt>
      <trkpt lat="42.7389" lon="-0.28836">
        <ele>1763.9</ele>
        <time>2018-12-27T09:39:37Z</time>
      </trkpt>
      <trkpt lat="42.73884" lon="-0.28819">
        <ele>1761.3</ele>
        <time>2018-12-27T09:39:41Z</time>
      </trkpt>
      <trkpt lat="42.7388" lon="-0.288">
        <ele>1758.4</ele>
        <time>2018-12-27T09:39:44Z</time>
      </trkpt>
      <trkpt lat="42.73876" lon="-0.28803">
        <ele>1757.3</ele>
        <time>2018-12-27T09:39:46Z</time>
      </trkpt>
      <trkpt lat="42.73872" lon="-0.2881">
        <ele>1756.4</ele>
        <time>2018-12-27T09:39:47Z</time>
      </trkpt>
      <trkpt lat="42.73869" lon="-0.28818">
        <ele>1755.4</ele>
        <time>2018-12-27T09:39:49Z</time>
      </trkpt>
      <trkpt lat="42.73865" lon="-0.28825">
        <ele>1754.3</ele>
        <time>2018-12-27T09:39:51Z</time>
      </trkpt>
      <trkpt lat="42.73863" lon="-0.28824">
        <ele>1753.6</ele>
        <time>2018-12-27T09:39:51Z</time>
      </trkpt>
      <trkpt lat="42.73857" lon="-0.28812">
        <ele>1749.4</ele>
        <time>2018-12-27T09:39:54Z</time>
      </trkpt>
      <trkpt lat="42.73848" lon="-0.28791">
        <ele>1741.8</ele>
        <time>2018-12-27T09:39:59Z</time>
      </trkpt>
      <trkpt lat="42.73845" lon="-0.28786">
        <ele>1738.9</ele>
        <time>2018-12-27T09:40:00Z</time>
      </trkpt>
      <trkpt lat="42.73841" lon="-0.28788">
        <ele>1737.4</ele>
        <time>2018-12-27T09:40:01Z</time>
      </trkpt>
      <trkpt lat="42.73838" lon="-0.28792">
        <ele>1736.3</ele>
        <time>2018-12-27T09:40:02Z</time>
      </trkpt>
      <trkpt lat="42.73836" lon="-0.28798">
        <ele>1736.2</ele>
        <time>2018-12-27T09:40:04Z</time>
      </trkpt>
      <trkpt lat="42.73832" lon="-0.28804">
        <ele>1735.4</ele>
        <time>2018-12-27T09:40:05Z</time>
      </trkpt>
      <trkpt lat="42.73828" lon="-0.28795">
        <ele>1731.9</ele>
        <time>2018-12-27T09:40:07Z</time>
      </trkpt>
      <trkpt lat="42.73828" lon="-0.28791">
        <ele>1731</ele>
        <time>2018-12-27T09:40:08Z</time>
      </trkpt>
      <trkpt lat="42.73824" lon="-0.28775">
        <ele>1726.2</ele>
        <time>2018-12-27T09:40:11Z</time>
      </trkpt>
      <trkpt lat="42.73821" lon="-0.2878">
        <ele>1725.2</ele>
        <time>2018-12-27T09:40:13Z</time>
      </trkpt>
      <trkpt lat="42.73816" lon="-0.28803">
        <ele>1726.8</ele>
        <time>2018-12-27T09:40:17Z</time>
      </trkpt>
      <trkpt lat="42.73816" lon="-0.28818">
        <ele>1729.6</ele>
        <time>2018-12-27T09:40:20Z</time>
      </trkpt>
      <trkpt lat="42.73812" lon="-0.28825">
        <ele>1729.2</ele>
        <time>2018-12-27T09:40:22Z</time>
      </trkpt>
      <trkpt lat="42.7381" lon="-0.28825">
        <ele>1728.5</ele>
        <time>2018-12-27T09:40:22Z</time>
      </trkpt>
      <trkpt lat="42.73808" lon="-0.28824">
        <ele>1727.2</ele>
        <time>2018-12-27T09:40:23Z</time>
      </trkpt>
      <trkpt lat="42.73805" lon="-0.28818">
        <ele>1724.5</ele>
        <time>2018-12-27T09:40:24Z</time>
      </trkpt>
      <trkpt lat="42.73803" lon="-0.28801">
        <ele>1719.9</ele>
        <time>2018-12-27T09:40:28Z</time>
      </trkpt>
      <trkpt lat="42.73799" lon="-0.28783">
        <ele>1714.5</ele>
        <time>2018-12-27T09:40:31Z</time>
      </trkpt>
      <trkpt lat="42.7379" lon="-0.28763">
        <ele>1706.2</ele>
        <time>2018-12-27T09:40:36Z</time>
      </trkpt>
      <trkpt lat="42.73787" lon="-0.28746">
        <ele>1701.9</ele>
        <time>2018-12-27T09:40:40Z</time>
      </trkpt>
      <trkpt lat="42.73786" lon="-0.28739">
        <ele>1700.3</ele>
        <time>2018-12-27T09:40:41Z</time>
      </trkpt>
      <trkpt lat="42.73783" lon="-0.28742">
        <ele>1699.5</ele>
        <time>2018-12-27T09:40:42Z</time>
      </trkpt>
      <trkpt lat="42.73778" lon="-0.28747">
        <ele>1698.8</ele>
        <time>2018-12-27T09:40:43Z</time>
      </trkpt>
      <trkpt lat="42.73776" lon="-0.28754">
        <ele>1699.3</ele>
        <time>2018-12-27T09:40:45Z</time>
      </trkpt>
      <trkpt lat="42.73777" lon="-0.28769">
        <ele>1702.3</ele>
        <time>2018-12-27T09:40:48Z</time>
      </trkpt>
      <trkpt lat="42.73778" lon="-0.28771">
        <ele>1703.3</ele>
        <time>2018-12-27T09:40:48Z</time>
      </trkpt>
      <trkpt lat="42.73779" lon="-0.28776">
        <ele>1704.5</ele>
        <time>2018-12-27T09:40:49Z</time>
      </trkpt>
      <trkpt lat="42.73777" lon="-0.2878">
        <ele>1704.5</ele>
        <time>2018-12-27T09:40:50Z</time>
      </trkpt>
      <trkpt lat="42.73772" lon="-0.28797">
        <ele>1706.4</ele>
        <time>2018-12-27T09:40:54Z</time>
      </trkpt>
      <trkpt lat="42.73761" lon="-0.28803">
        <ele>1704.6</ele>
        <time>2018-12-27T09:40:57Z</time>
      </trkpt>
      <trkpt lat="42.73756" lon="-0.28815">
        <ele>1706.4</ele>
        <time>2018-12-27T09:41:00Z</time>
      </trkpt>
      <trkpt lat="42.73747" lon="-0.2882">
        <ele>1705.2</ele>
        <time>2018-12-27T09:41:02Z</time>
      </trkpt>
      <trkpt lat="42.73738" lon="-0.28818">
        <ele>1702</ele>
        <time>2018-12-27T09:41:05Z</time>
      </trkpt>
      <trkpt lat="42.73729" lon="-0.28819">
        <ele>1699.7</ele>
        <time>2018-12-27T09:41:07Z</time>
      </trkpt>
      <trkpt lat="42.73713" lon="-0.28832">
        <ele>1699.8</ele>
        <time>2018-12-27T09:41:12Z</time>
      </trkpt>
      <trkpt lat="42.73703" lon="-0.28844">
        <ele>1703.9</ele>
        <time>2018-12-27T09:41:16Z</time>
      </trkpt>
      <trkpt lat="42.73691" lon="-0.28848">
        <ele>1707</ele>
        <time>2018-12-27T09:41:19Z</time>
      </trkpt>
      <trkpt lat="42.73681" lon="-0.28843">
        <ele>1706</ele>
        <time>2018-12-27T09:41:22Z</time>
      </trkpt>
      <trkpt lat="42.73666" lon="-0.28847">
        <ele>1709.4</ele>
        <time>2018-12-27T09:41:26Z</time>
      </trkpt>
      <trkpt lat="42.73657" lon="-0.28847">
        <ele>1710.5</ele>
        <time>2018-12-27T09:41:28Z</time>
      </trkpt>
      <trkpt lat="42.73651" lon="-0.28834">
        <ele>1705.6</ele>
        <time>2018-12-27T09:41:31Z</time>
      </trkpt>
      <trkpt lat="42.73645" lon="-0.28822">
        <ele>1701.3</ele>
        <time>2018-12-27T09:41:34Z</time>
      </trkpt>
      <trkpt lat="42.73643" lon="-0.28821">
        <ele>1701.1</ele>
        <time>2018-12-27T09:41:35Z</time>
      </trkpt>
      <trkpt lat="42.73636" lon="-0.28811">
        <ele>1697.5</ele>
        <time>2018-12-27T09:41:37Z</time>
      </trkpt>
      <trkpt lat="42.73625" lon="-0.28797">
        <ele>1692.6</ele>
        <time>2018-12-27T09:41:41Z</time>
      </trkpt>
      <trkpt lat="42.73621" lon="-0.28791">
        <ele>1690.7</ele>
        <time>2018-12-27T09:41:43Z</time>
      </trkpt>
      <trkpt lat="42.73615" lon="-0.28789">
        <ele>1690.7</ele>
        <time>2018-12-27T09:41:44Z</time>
      </trkpt>
      <trkpt lat="42.73607" lon="-0.28779">
        <ele>1688</ele>
        <time>2018-12-27T09:41:47Z</time>
      </trkpt>
      <trkpt lat="42.73596" lon="-0.28764">
        <ele>1683.5</ele>
        <time>2018-12-27T09:41:52Z</time>
      </trkpt>
      <trkpt lat="42.73585" lon="-0.28755">
        <ele>1681.9</ele>
        <time>2018-12-27T09:41:55Z</time>
      </trkpt>
      <trkpt lat="42.73571" lon="-0.28749">
        <ele>1682</ele>
        <time>2018-12-27T09:41:59Z</time>
      </trkpt>
      <trkpt lat="42.73564" lon="-0.28741">
        <ele>1679.6</ele>
        <time>2018-12-27T09:42:01Z</time>
      </trkpt>
      <trkpt lat="42.73562" lon="-0.28729">
        <ele>1674.7</ele>
        <time>2018-12-27T09:42:04Z</time>
      </trkpt>
      <trkpt lat="42.73561" lon="-0.28707">
        <ele>1665.1</ele>
        <time>2018-12-27T09:42:08Z</time>
      </trkpt>
      <trkpt lat="42.7356" lon="-0.28704">
        <ele>1664.2</ele>
        <time>2018-12-27T09:42:09Z</time>
      </trkpt>
      <trkpt lat="42.7355" lon="-0.28688">
        <ele>1660.6</ele>
        <time>2018-12-27T09:42:13Z</time>
      </trkpt>
      <trkpt lat="42.73546" lon="-0.2868">
        <ele>1658.4</ele>
        <time>2018-12-27T09:42:15Z</time>
      </trkpt>
      <trkpt lat="42.73547" lon="-0.28676">
        <ele>1657</ele>
        <time>2018-12-27T09:42:15Z</time>
      </trkpt>
      <trkpt lat="42.73552" lon="-0.28664">
        <ele>1652.1</ele>
        <time>2018-12-27T09:42:18Z</time>
      </trkpt>
      <trkpt lat="42.73555" lon="-0.28651">
        <ele>1647</ele>
        <time>2018-12-27T09:42:21Z</time>
      </trkpt>
      <trkpt lat="42.73551" lon="-0.28633">
        <ele>1641.5</ele>
        <time>2018-12-27T09:42:25Z</time>
      </trkpt>
      <trkpt lat="42.73548" lon="-0.28629">
        <ele>1640.3</ele>
        <time>2018-12-27T09:42:26Z</time>
      </trkpt>
      <trkpt lat="42.73545" lon="-0.28622">
        <ele>1638.6</ele>
        <time>2018-12-27T09:42:27Z</time>
      </trkpt>
      <trkpt lat="42.73544" lon="-0.28619">
        <ele>1637.8</ele>
        <time>2018-12-27T09:42:28Z</time>
      </trkpt>
      <trkpt lat="42.73542" lon="-0.28609">
        <ele>1634.7</ele>
        <time>2018-12-27T09:42:30Z</time>
      </trkpt>
      <trkpt lat="42.73538" lon="-0.2859">
        <ele>1628.2</ele>
        <time>2018-12-27T09:42:34Z</time>
      </trkpt>
      <trkpt lat="42.73531" lon="-0.28575">
        <ele>1623.1</ele>
        <time>2018-12-27T09:42:37Z</time>
      </trkpt>
      <trkpt lat="42.7352" lon="-0.2856">
        <ele>1617</ele>
        <time>2018-12-27T09:42:42Z</time>
      </trkpt>
      <trkpt lat="42.73512" lon="-0.28546">
        <ele>1610.6</ele>
        <time>2018-12-27T09:42:45Z</time>
      </trkpt>
      <trkpt lat="42.7351" lon="-0.28543">
        <ele>1609.1</ele>
        <time>2018-12-27T09:42:46Z</time>
      </trkpt>
      <trkpt lat="42.73503" lon="-0.28534">
        <ele>1604.9</ele>
        <time>2018-12-27T09:42:48Z</time>
      </trkpt>
      <trkpt lat="42.735" lon="-0.28526">
        <ele>1600.9</ele>
        <time>2018-12-27T09:42:50Z</time>
      </trkpt>
      <trkpt lat="42.73492" lon="-0.28522">
        <ele>1598.5</ele>
        <time>2018-12-27T09:42:53Z</time>
      </trkpt>
      <trkpt lat="42.73487" lon="-0.28519">
        <ele>1596.6</ele>
        <time>2018-12-27T09:42:54Z</time>
      </trkpt>
      <trkpt lat="42.73486" lon="-0.28516">
        <ele>1595.3</ele>
        <time>2018-12-27T09:42:54Z</time>
      </trkpt>
      <trkpt lat="42.73485" lon="-0.28511">
        <ele>1592.9</ele>
        <time>2018-12-27T09:42:56Z</time>
      </trkpt>
      <trkpt lat="42.73477" lon="-0.28509">
        <ele>1591</ele>
        <time>2018-12-27T09:42:58Z</time>
      </trkpt>
      <trkpt lat="42.73471" lon="-0.28511">
        <ele>1591.4</ele>
        <time>2018-12-27T09:43:00Z</time>
      </trkpt>
      <trkpt lat="42.73463" lon="-0.28508">
        <ele>1589.2</ele>
        <time>2018-12-27T09:43:02Z</time>
      </trkpt>
      <trkpt lat="42.7346" lon="-0.28507">
        <ele>1588.5</ele>
        <time>2018-12-27T09:43:03Z</time>
      </trkpt>
      <trkpt lat="42.73458" lon="-0.28509">
        <ele>1589.1</ele>
        <time>2018-12-27T09:43:03Z</time>
      </trkpt>
      <trkpt lat="42.7345" lon="-0.28508">
        <ele>1587.8</ele>
        <time>2018-12-27T09:43:05Z</time>
      </trkpt>
      <trkpt lat="42.73445" lon="-0.28499">
        <ele>1583.2</ele>
        <time>2018-12-27T09:43:08Z</time>
      </trkpt>
      <trkpt lat="42.7344" lon="-0.28497">
        <ele>1581.9</ele>
        <time>2018-12-27T09:43:09Z</time>
      </trkpt>
      <trkpt lat="42.73435" lon="-0.28498">
        <ele>1581.5</ele>
        <time>2018-12-27T09:43:10Z</time>
      </trkpt>
      <trkpt lat="42.73437" lon="-0.28492">
        <ele>1579.3</ele>
        <time>2018-12-27T09:43:11Z</time>
      </trkpt>
      <trkpt lat="42.73433" lon="-0.28487">
        <ele>1576.5</ele>
        <time>2018-12-27T09:43:13Z</time>
      </trkpt>
      <trkpt lat="42.7343" lon="-0.28484">
        <ele>1574.5</ele>
        <time>2018-12-27T09:43:14Z</time>
      </trkpt>
      <trkpt lat="42.73418" lon="-0.28472">
        <ele>1567.4</ele>
        <time>2018-12-27T09:43:18Z</time>
      </trkpt>
      <trkpt lat="42.73414" lon="-0.28464">
        <ele>1563</ele>
        <time>2018-12-27T09:43:20Z</time>
      </trkpt>
      <trkpt lat="42.73411" lon="-0.28463">
        <ele>1562.2</ele>
        <time>2018-12-27T09:43:21Z</time>
      </trkpt>
      <trkpt lat="42.73395" lon="-0.28454">
        <ele>1556.6</ele>
        <time>2018-12-27T09:43:25Z</time>
      </trkpt>
      <trkpt lat="42.73382" lon="-0.28443">
        <ele>1551.7</ele>
        <time>2018-12-27T09:43:29Z</time>
      </trkpt>
      <trkpt lat="42.73382" lon="-0.28441">
        <ele>1551</ele>
        <time>2018-12-27T09:43:30Z</time>
      </trkpt>
      <trkpt lat="42.73376" lon="-0.28434">
        <ele>1548</ele>
        <time>2018-12-27T09:43:32Z</time>
      </trkpt>
      <trkpt lat="42.73367" lon="-0.28429">
        <ele>1547.1</ele>
        <time>2018-12-27T09:43:34Z</time>
      </trkpt>
      <trkpt lat="42.73365" lon="-0.28429">
        <ele>1547</ele>
        <time>2018-12-27T09:43:35Z</time>
      </trkpt>
      <trkpt lat="42.73355" lon="-0.28418">
        <ele>1543.7</ele>
        <time>2018-12-27T09:43:38Z</time>
      </trkpt>
      <trkpt lat="42.73353" lon="-0.28414">
        <ele>1542.6</ele>
        <time>2018-12-27T09:43:39Z</time>
      </trkpt>
      <trkpt lat="42.73349" lon="-0.28405">
        <ele>1539.7</ele>
        <time>2018-12-27T09:43:41Z</time>
      </trkpt>
      <trkpt lat="42.73347" lon="-0.28401">
        <ele>1538.5</ele>
        <time>2018-12-27T09:43:42Z</time>
      </trkpt>
      <trkpt lat="42.73335" lon="-0.2839">
        <ele>1534.9</ele>
        <time>2018-12-27T09:43:46Z</time>
      </trkpt>
      <trkpt lat="42.73328" lon="-0.28382">
        <ele>1531.9</ele>
        <time>2018-12-27T09:43:49Z</time>
      </trkpt>
      <trkpt lat="42.73315" lon="-0.28365">
        <ele>1525.6</ele>
        <time>2018-12-27T09:43:53Z</time>
      </trkpt>
      <trkpt lat="42.73302" lon="-0.28356">
        <ele>1521.8</ele>
        <time>2018-12-27T09:43:57Z</time>
      </trkpt>
      <trkpt lat="42.7329" lon="-0.28354">
        <ele>1519.8</ele>
        <time>2018-12-27T09:44:00Z</time>
      </trkpt>
      <trkpt lat="42.73284" lon="-0.28354">
        <ele>1518.4</ele>
        <time>2018-12-27T09:44:02Z</time>
      </trkpt>
      <trkpt lat="42.73278" lon="-0.28358">
        <ele>1518.9</ele>
        <time>2018-12-27T09:44:04Z</time>
      </trkpt>
      <trkpt lat="42.73267" lon="-0.28364">
        <ele>1519.4</ele>
        <time>2018-12-27T09:44:07Z</time>
      </trkpt>
      <trkpt lat="42.73261" lon="-0.28368">
        <ele>1520.2</ele>
        <time>2018-12-27T09:44:09Z</time>
      </trkpt>
      <trkpt lat="42.73258" lon="-0.28373">
        <ele>1521.6</ele>
        <time>2018-12-27T09:44:10Z</time>
      </trkpt>
      <trkpt lat="42.73247" lon="-0.28386">
        <ele>1525.8</ele>
        <time>2018-12-27T09:44:14Z</time>
      </trkpt>
      <trkpt lat="42.73245" lon="-0.28388">
        <ele>1526.3</ele>
        <time>2018-12-27T09:44:15Z</time>
      </trkpt>
      <trkpt lat="42.73229" lon="-0.28391">
        <ele>1525.8</ele>
        <time>2018-12-27T09:44:19Z</time>
      </trkpt>
      <trkpt lat="42.73212" lon="-0.28387">
        <ele>1521.4</ele>
        <time>2018-12-27T09:44:23Z</time>
      </trkpt>
      <trkpt lat="42.73197" lon="-0.28384">
        <ele>1513.5</ele>
        <time>2018-12-27T09:44:28Z</time>
      </trkpt>
      <trkpt lat="42.73178" lon="-0.28386">
        <ele>1504</ele>
        <time>2018-12-27T09:44:33Z</time>
      </trkpt>
      <trkpt lat="42.73163" lon="-0.28388">
        <ele>1497.3</ele>
        <time>2018-12-27T09:44:37Z</time>
      </trkpt>
      <trkpt lat="42.73147" lon="-0.2839">
        <ele>1489.5</ele>
        <time>2018-12-27T09:44:41Z</time>
      </trkpt>
      <trkpt lat="42.73135" lon="-0.28392">
        <ele>1483.8</ele>
        <time>2018-12-27T09:44:44Z</time>
      </trkpt>
      <trkpt lat="42.73132" lon="-0.28393">
        <ele>1482.5</ele>
        <time>2018-12-27T09:44:45Z</time>
      </trkpt>
      <trkpt lat="42.73111" lon="-0.28399">
        <ele>1473.3</ele>
        <time>2018-12-27T09:44:51Z</time>
      </trkpt>
      <trkpt lat="42.73096" lon="-0.28412">
        <ele>1469</ele>
        <time>2018-12-27T09:44:55Z</time>
      </trkpt>
      <trkpt lat="42.73082" lon="-0.28423">
        <ele>1463.7</ele>
        <time>2018-12-27T09:45:00Z</time>
      </trkpt>
      <trkpt lat="42.73079" lon="-0.28424">
        <ele>1462.1</ele>
        <time>2018-12-27T09:45:01Z</time>
      </trkpt>
      <trkpt lat="42.73081" lon="-0.28419">
        <ele>1462</ele>
        <time>2018-12-27T09:45:02Z</time>
      </trkpt>
      <trkpt lat="42.73084" lon="-0.28411">
        <ele>1461.8</ele>
        <time>2018-12-27T09:45:03Z</time>
      </trkpt>
      <trkpt lat="42.73086" lon="-0.28401">
        <ele>1460</ele>
        <time>2018-12-27T09:45:06Z</time>
      </trkpt>
      <trkpt lat="42.73084" lon="-0.28399">
        <ele>1458.3</ele>
        <time>2018-12-27T09:45:06Z</time>
      </trkpt>
      <trkpt lat="42.73077" lon="-0.28403">
        <ele>1455.4</ele>
        <time>2018-12-27T09:45:08Z</time>
      </trkpt>
      <trkpt lat="42.73071" lon="-0.2841">
        <ele>1453.9</ele>
        <time>2018-12-27T09:45:10Z</time>
      </trkpt>
      <trkpt lat="42.73064" lon="-0.28418">
        <ele>1451.3</ele>
        <time>2018-12-27T09:45:13Z</time>
      </trkpt>
      <trkpt lat="42.73061" lon="-0.28419">
        <ele>1449.8</ele>
        <time>2018-12-27T09:45:14Z</time>
      </trkpt>
      <trkpt lat="42.73053" lon="-0.28429">
        <ele>1447.4</ele>
        <time>2018-12-27T09:45:16Z</time>
      </trkpt>
      <trkpt lat="42.73044" lon="-0.28446">
        <ele>1444.6</ele>
        <time>2018-12-27T09:45:20Z</time>
      </trkpt>
      <trkpt lat="42.73031" lon="-0.28466">
        <ele>1440.4</ele>
        <time>2018-12-27T09:45:26Z</time>
      </trkpt>
      <trkpt lat="42.73024" lon="-0.28482">
        <ele>1438.3</ele>
        <time>2018-12-27T09:45:29Z</time>
      </trkpt>
      <trkpt lat="42.73016" lon="-0.28499">
        <ele>1435.9</ele>
        <time>2018-12-27T09:45:33Z</time>
      </trkpt>
      <trkpt lat="42.73006" lon="-0.28515">
        <ele>1432.6</ele>
        <time>2018-12-27T09:45:38Z</time>
      </trkpt>
      <trkpt lat="42.72996" lon="-0.28531">
        <ele>1428.9</ele>
        <time>2018-12-27T09:45:42Z</time>
      </trkpt>
      <trkpt lat="42.72982" lon="-0.28552">
        <ele>1424.8</ele>
        <time>2018-12-27T09:45:47Z</time>
      </trkpt>
      <trkpt lat="42.72972" lon="-0.28566">
        <ele>1422.1</ele>
        <time>2018-12-27T09:45:51Z</time>
      </trkpt>
      <trkpt lat="42.72967" lon="-0.28579">
        <ele>1422.1</ele>
        <time>2018-12-27T09:45:54Z</time>
      </trkpt>
      <trkpt lat="42.72961" lon="-0.28589">
        <ele>1420.7</ele>
        <time>2018-12-27T09:45:57Z</time>
      </trkpt>
      <trkpt lat="42.7295" lon="-0.28598">
        <ele>1415.9</ele>
        <time>2018-12-27T09:46:00Z</time>
      </trkpt>
      <trkpt lat="42.72948" lon="-0.28589">
        <ele>1413.7</ele>
        <time>2018-12-27T09:46:02Z</time>
      </trkpt>
      <trkpt lat="42.7295" lon="-0.28578">
        <ele>1412.6</ele>
        <time>2018-12-27T09:46:04Z</time>
      </trkpt>
      <trkpt lat="42.72948" lon="-0.28572">
        <ele>1410.7</ele>
        <time>2018-12-27T09:46:05Z</time>
      </trkpt>
      <trkpt lat="42.72944" lon="-0.28565">
        <ele>1407.1</ele>
        <time>2018-12-27T09:46:07Z</time>
      </trkpt>
      <trkpt lat="42.72939" lon="-0.28561">
        <ele>1403.3</ele>
        <time>2018-12-27T09:46:09Z</time>
      </trkpt>
      <trkpt lat="42.7293" lon="-0.28564">
        <ele>1398.9</ele>
        <time>2018-12-27T09:46:11Z</time>
      </trkpt>
      <trkpt lat="42.72928" lon="-0.28576">
        <ele>1399.5</ele>
        <time>2018-12-27T09:46:13Z</time>
      </trkpt>
      <trkpt lat="42.72921" lon="-0.28578">
        <ele>1396.2</ele>
        <time>2018-12-27T09:46:15Z</time>
      </trkpt>
      <trkpt lat="42.72915" lon="-0.28596">
        <ele>1394.9</ele>
        <time>2018-12-27T09:46:19Z</time>
      </trkpt>
      <trkpt lat="42.72914" lon="-0.28599">
        <ele>1395.2</ele>
        <time>2018-12-27T09:46:20Z</time>
      </trkpt>
      <trkpt lat="42.7291" lon="-0.2861">
        <ele>1394.3</ele>
        <time>2018-12-27T09:46:22Z</time>
      </trkpt>
      <trkpt lat="42.72908" lon="-0.28612">
        <ele>1393.7</ele>
        <time>2018-12-27T09:46:23Z</time>
      </trkpt>
      <trkpt lat="42.729" lon="-0.28618">
        <ele>1389.3</ele>
        <time>2018-12-27T09:46:25Z</time>
      </trkpt>
      <trkpt lat="42.72885" lon="-0.28633">
        <ele>1381.3</ele>
        <time>2018-12-27T09:46:30Z</time>
      </trkpt>
      <trkpt lat="42.72878" lon="-0.28648">
        <ele>1376.9</ele>
        <time>2018-12-27T09:46:34Z</time>
      </trkpt>
      <trkpt lat="42.72871" lon="-0.28668">
        <ele>1373.4</ele>
        <time>2018-12-27T09:46:38Z</time>
      </trkpt>
      <trkpt lat="42.72865" lon="-0.28686">
        <ele>1370.2</ele>
        <time>2018-12-27T09:46:42Z</time>
      </trkpt>
      <trkpt lat="42.72858" lon="-0.2871">
        <ele>1366.7</ele>
        <time>2018-12-27T09:46:47Z</time>
      </trkpt>
      <trkpt lat="42.72857" lon="-0.28736">
        <ele>1369.9</ele>
        <time>2018-12-27T09:46:52Z</time>
      </trkpt>
      <trkpt lat="42.72855" lon="-0.28746">
        <ele>1370</ele>
        <time>2018-12-27T09:46:54Z</time>
      </trkpt>
      <trkpt lat="42.72855" lon="-0.28747">
        <ele>1370</ele>
        <time>2018-12-27T09:46:54Z</time>
      </trkpt>
      <trkpt lat="42.72854" lon="-0.28742">
        <ele>1368.9</ele>
        <time>2018-12-27T09:46:55Z</time>
      </trkpt>
      <trkpt lat="42.72853" lon="-0.28739">
        <ele>1367.9</ele>
        <time>2018-12-27T09:46:56Z</time>
      </trkpt>
      <trkpt lat="42.7285" lon="-0.2873">
        <ele>1364.9</ele>
        <time>2018-12-27T09:46:58Z</time>
      </trkpt>
      <trkpt lat="42.72849" lon="-0.28723">
        <ele>1363.9</ele>
        <time>2018-12-27T09:46:59Z</time>
      </trkpt>
      <trkpt lat="42.72849" lon="-0.2872">
        <ele>1363.2</ele>
        <time>2018-12-27T09:47:00Z</time>
      </trkpt>
      <trkpt lat="42.72845" lon="-0.28712">
        <ele>1360</ele>
        <time>2018-12-27T09:47:02Z</time>
      </trkpt>
      <trkpt lat="42.72842" lon="-0.28696">
        <ele>1357.8</ele>
        <time>2018-12-27T09:47:05Z</time>
      </trkpt>
      <trkpt lat="42.72836" lon="-0.2868">
        <ele>1354.3</ele>
        <time>2018-12-27T09:47:08Z</time>
      </trkpt>
      <trkpt lat="42.72834" lon="-0.28671">
        <ele>1353.1</ele>
        <time>2018-12-27T09:47:10Z</time>
      </trkpt>
      <trkpt lat="42.72828" lon="-0.28657">
        <ele>1349.3</ele>
        <time>2018-12-27T09:47:14Z</time>
      </trkpt>
      <trkpt lat="42.72829" lon="-0.28653">
        <ele>1349.5</ele>
        <time>2018-12-27T09:47:14Z</time>
      </trkpt>
      <trkpt lat="42.7283" lon="-0.28636">
        <ele>1350.2</ele>
        <time>2018-12-27T09:47:18Z</time>
      </trkpt>
      <trkpt lat="42.72831" lon="-0.28625">
        <ele>1350.2</ele>
        <time>2018-12-27T09:47:20Z</time>
      </trkpt>
      <trkpt lat="42.72831" lon="-0.28617">
        <ele>1349.4</ele>
        <time>2018-12-27T09:47:21Z</time>
      </trkpt>
      <trkpt lat="42.72834" lon="-0.28601">
        <ele>1349.7</ele>
        <time>2018-12-27T09:47:25Z</time>
      </trkpt>
      <trkpt lat="42.72832" lon="-0.28594">
        <ele>1347.7</ele>
        <time>2018-12-27T09:47:26Z</time>
      </trkpt>
      <trkpt lat="42.72827" lon="-0.28592">
        <ele>1344.7</ele>
        <time>2018-12-27T09:47:28Z</time>
      </trkpt>
      <trkpt lat="42.72816" lon="-0.28585">
        <ele>1338.5</ele>
        <time>2018-12-27T09:47:31Z</time>
      </trkpt>
      <trkpt lat="42.72805" lon="-0.28582">
        <ele>1332.3</ele>
        <time>2018-12-27T09:47:34Z</time>
      </trkpt>
      <trkpt lat="42.72802" lon="-0.2858">
        <ele>1330.4</ele>
        <time>2018-12-27T09:47:35Z</time>
      </trkpt>
      <trkpt lat="42.72803" lon="-0.28581">
        <ele>1331</ele>
        <time>2018-12-27T09:47:35Z</time>
      </trkpt>
      <trkpt lat="42.72808" lon="-0.28576">
        <ele>1333.2</ele>
        <time>2018-12-27T09:47:37Z</time>
      </trkpt>
      <trkpt lat="42.72811" lon="-0.2857">
        <ele>1334.5</ele>
        <time>2018-12-27T09:47:38Z</time>
      </trkpt>
      <trkpt lat="42.72817" lon="-0.28565">
        <ele>1336.9</ele>
        <time>2018-12-27T09:47:40Z</time>
      </trkpt>
      <trkpt lat="42.72825" lon="-0.28548">
        <ele>1339.8</ele>
        <time>2018-12-27T09:47:44Z</time>
      </trkpt>
      <trkpt lat="42.7283" lon="-0.28532">
        <ele>1339.9</ele>
        <time>2018-12-27T09:47:47Z</time>
      </trkpt>
      <trkpt lat="42.72833" lon="-0.2851">
        <ele>1337.5</ele>
        <time>2018-12-27T09:47:52Z</time>
      </trkpt>
      <trkpt lat="42.72835" lon="-0.28483">
        <ele>1334.3</ele>
        <time>2018-12-27T09:47:57Z</time>
      </trkpt>
      <trkpt lat="42.72835" lon="-0.28458">
        <ele>1330</ele>
        <time>2018-12-27T09:48:02Z</time>
      </trkpt>
      <trkpt lat="42.7284" lon="-0.2843">
        <ele>1325.4</ele>
        <time>2018-12-27T09:48:07Z</time>
      </trkpt>
      <trkpt lat="42.72846" lon="-0.28408">
        <ele>1322.6</ele>
        <time>2018-12-27T09:48:12Z</time>
      </trkpt>
      <trkpt lat="42.72853" lon="-0.28387">
        <ele>1321.1</ele>
        <time>2018-12-27T09:48:16Z</time>
      </trkpt>
      <trkpt lat="42.72862" lon="-0.28362">
        <ele>1318.6</ele>
        <time>2018-12-27T09:48:22Z</time>
      </trkpt>
      <trkpt lat="42.72865" lon="-0.28345">
        <ele>1314.9</ele>
        <time>2018-12-27T09:48:25Z</time>
      </trkpt>
      <trkpt lat="42.72867" lon="-0.28325">
        <ele>1309.3</ele>
        <time>2018-12-27T09:48:29Z</time>
      </trkpt>
      <trkpt lat="42.72866" lon="-0.28318">
        <ele>1306.5</ele>
        <time>2018-12-27T09:48:31Z</time>
      </trkpt>
      <trkpt lat="42.72862" lon="-0.28318">
        <ele>1304</ele>
        <time>2018-12-27T09:48:32Z</time>
      </trkpt>
      <trkpt lat="42.72854" lon="-0.2833">
        <ele>1303.9</ele>
        <time>2018-12-27T09:48:35Z</time>
      </trkpt>
      <trkpt lat="42.72846" lon="-0.28341">
        <ele>1303.5</ele>
        <time>2018-12-27T09:48:38Z</time>
      </trkpt>
      <trkpt lat="42.72842" lon="-0.28347">
        <ele>1303</ele>
        <time>2018-12-27T09:48:40Z</time>
      </trkpt>
      <trkpt lat="42.72834" lon="-0.28357">
        <ele>1301.8</ele>
        <time>2018-12-27T09:48:43Z</time>
      </trkpt>
      <trkpt lat="42.72828" lon="-0.28362">
        <ele>1300.5</ele>
        <time>2018-12-27T09:48:44Z</time>
      </trkpt>
      <trkpt lat="42.7282" lon="-0.28367">
        <ele>1297.8</ele>
        <time>2018-12-27T09:48:47Z</time>
      </trkpt>
      <trkpt lat="42.72824" lon="-0.28365">
        <ele>1299.3</ele>
        <time>2018-12-27T09:48:48Z</time>
      </trkpt>
      <trkpt lat="42.72827" lon="-0.28362">
        <ele>1299.9</ele>
        <time>2018-12-27T09:48:49Z</time>
      </trkpt>
      <trkpt lat="42.72837" lon="-0.28344">
        <ele>1299.9</ele>
        <time>2018-12-27T09:48:53Z</time>
      </trkpt>
      <trkpt lat="42.72848" lon="-0.28324">
        <ele>1299.1</ele>
        <time>2018-12-27T09:48:58Z</time>
      </trkpt>
      <trkpt lat="42.72849" lon="-0.28319">
        <ele>1298.2</ele>
        <time>2018-12-27T09:48:59Z</time>
      </trkpt>
      <trkpt lat="42.72851" lon="-0.28299">
        <ele>1292.3</ele>
        <time>2018-12-27T09:49:03Z</time>
      </trkpt>
      <trkpt lat="42.72848" lon="-0.2828">
        <ele>1286.8</ele>
        <time>2018-12-27T09:49:07Z</time>
      </trkpt>
      <trkpt lat="42.72852" lon="-0.28261">
        <ele>1285.9</ele>
        <time>2018-12-27T09:49:11Z</time>
      </trkpt>
      <trkpt lat="42.7286" lon="-0.28245">
        <ele>1287</ele>
        <time>2018-12-27T09:49:15Z</time>
      </trkpt>
      <trkpt lat="42.72849" lon="-0.28246">
        <ele>1282.4</ele>
        <time>2018-12-27T09:49:17Z</time>
      </trkpt>
      <trkpt lat="42.72842" lon="-0.28251">
        <ele>1279.4</ele>
        <time>2018-12-27T09:49:20Z</time>
      </trkpt>
      <trkpt lat="42.72834" lon="-0.28256">
        <ele>1276.5</ele>
        <time>2018-12-27T09:49:22Z</time>
      </trkpt>
      <trkpt lat="42.72826" lon="-0.28259">
        <ele>1273.4</ele>
        <time>2018-12-27T09:49:24Z</time>
      </trkpt>
      <trkpt lat="42.72822" lon="-0.28259">
        <ele>1271.6</ele>
        <time>2018-12-27T09:49:25Z</time>
      </trkpt>
      <trkpt lat="42.72821" lon="-0.28265">
        <ele>1271.4</ele>
        <time>2018-12-27T09:49:26Z</time>
      </trkpt>
      <trkpt lat="42.72817" lon="-0.28267">
        <ele>1269.9</ele>
        <time>2018-12-27T09:49:27Z</time>
      </trkpt>
      <trkpt lat="42.72813" lon="-0.28269">
        <ele>1268.1</ele>
        <time>2018-12-27T09:49:28Z</time>
      </trkpt>
      <trkpt lat="42.72804" lon="-0.28275">
        <ele>1264.2</ele>
        <time>2018-12-27T09:49:31Z</time>
      </trkpt>
      <trkpt lat="42.728" lon="-0.28276">
        <ele>1262.8</ele>
        <time>2018-12-27T09:49:32Z</time>
      </trkpt>
      <trkpt lat="42.72792" lon="-0.28286">
        <ele>1259.4</ele>
        <time>2018-12-27T09:49:35Z</time>
      </trkpt>
      <trkpt lat="42.72792" lon="-0.28284">
        <ele>1259.3</ele>
        <time>2018-12-27T09:49:36Z</time>
      </trkpt>
      <trkpt lat="42.72795" lon="-0.2828">
        <ele>1260.8</ele>
        <time>2018-12-27T09:49:37Z</time>
      </trkpt>
      <trkpt lat="42.72794" lon="-0.28264">
        <ele>1258.6</ele>
        <time>2018-12-27T09:49:40Z</time>
      </trkpt>
      <trkpt lat="42.72786" lon="-0.28262">
        <ele>1255.9</ele>
        <time>2018-12-27T09:49:42Z</time>
      </trkpt>
      <trkpt lat="42.72775" lon="-0.28261">
        <ele>1253.3</ele>
        <time>2018-12-27T09:49:45Z</time>
      </trkpt>
      <trkpt lat="42.72771" lon="-0.28259">
        <ele>1252.4</ele>
        <time>2018-12-27T09:49:46Z</time>
      </trkpt>
      <trkpt lat="42.72766" lon="-0.28255">
        <ele>1250.7</ele>
        <time>2018-12-27T09:49:48Z</time>
      </trkpt>
      <trkpt lat="42.72753" lon="-0.2825">
        <ele>1247.2</ele>
        <time>2018-12-27T09:49:51Z</time>
      </trkpt>
      <trkpt lat="42.72742" lon="-0.28243">
        <ele>1243.9</ele>
        <time>2018-12-27T09:49:55Z</time>
      </trkpt>
      <trkpt lat="42.7273" lon="-0.28236">
        <ele>1240.5</ele>
        <time>2018-12-27T09:49:58Z</time>
      </trkpt>
      <trkpt lat="42.72718" lon="-0.2823">
        <ele>1236.9</ele>
        <time>2018-12-27T09:50:02Z</time>
      </trkpt>
      <trkpt lat="42.72707" lon="-0.28224">
        <ele>1233.9</ele>
        <time>2018-12-27T09:50:05Z</time>
      </trkpt>
      <trkpt lat="42.72692" lon="-0.28228">
        <ele>1232.1</ele>
        <time>2018-12-27T09:50:09Z</time>
      </trkpt>
      <trkpt lat="42.7268" lon="-0.28225">
        <ele>1230.2</ele>
        <time>2018-12-27T09:50:12Z</time>
      </trkpt>
      <trkpt lat="42.72666" lon="-0.28222">
        <ele>1227.8</ele>
        <time>2018-12-27T09:50:16Z</time>
      </trkpt>
      <trkpt lat="42.72664" lon="-0.28224">
        <ele>1227.7</ele>
        <time>2018-12-27T09:50:17Z</time>
      </trkpt>
      <trkpt lat="42.72658" lon="-0.28232">
        <ele>1228.2</ele>
        <time>2018-12-27T09:50:19Z</time>
      </trkpt>
      <trkpt lat="42.72652" lon="-0.28233">
        <ele>1227.5</ele>
        <time>2018-12-27T09:50:20Z</time>
      </trkpt>
      <trkpt lat="42.72649" lon="-0.28231">
        <ele>1226.8</ele>
        <time>2018-12-27T09:50:21Z</time>
      </trkpt>
      <trkpt lat="42.72639" lon="-0.28224">
        <ele>1224.4</ele>
        <time>2018-12-27T09:50:24Z</time>
      </trkpt>
      <trkpt lat="42.7263" lon="-0.28216">
        <ele>1221.9</ele>
        <time>2018-12-27T09:50:27Z</time>
      </trkpt>
      <trkpt lat="42.72613" lon="-0.282">
        <ele>1217.3</ele>
        <time>2018-12-27T09:50:33Z</time>
      </trkpt>
      <trkpt lat="42.72597" lon="-0.28184">
        <ele>1213.8</ele>
        <time>2018-12-27T09:50:38Z</time>
      </trkpt>
      <trkpt lat="42.72583" lon="-0.28171">
        <ele>1211</ele>
        <time>2018-12-27T09:50:42Z</time>
      </trkpt>
      <trkpt lat="42.72569" lon="-0.28168">
        <ele>1208.9</ele>
        <time>2018-12-27T09:50:46Z</time>
      </trkpt>
      <trkpt lat="42.7255" lon="-0.2817">
        <ele>1205.8</ele>
        <time>2018-12-27T09:50:51Z</time>
      </trkpt>
      <trkpt lat="42.72535" lon="-0.28171">
        <ele>1203.2</ele>
        <time>2018-12-27T09:50:55Z</time>
      </trkpt>
      <trkpt lat="42.72514" lon="-0.28176">
        <ele>1198.9</ele>
        <time>2018-12-27T09:51:01Z</time>
      </trkpt>
      <trkpt lat="42.72493" lon="-0.28179">
        <ele>1194.8</ele>
        <time>2018-12-27T09:51:07Z</time>
      </trkpt>
      <trkpt lat="42.72475" lon="-0.28183">
        <ele>1191</ele>
        <time>2018-12-27T09:51:11Z</time>
      </trkpt>
      <trkpt lat="42.72463" lon="-0.28181">
        <ele>1188.6</ele>
        <time>2018-12-27T09:51:15Z</time>
      </trkpt>
      <trkpt lat="42.72447" lon="-0.28175">
        <ele>1186.1</ele>
        <time>2018-12-27T09:51:19Z</time>
      </trkpt>
      <trkpt lat="42.72429" lon="-0.28176">
        <ele>1183.2</ele>
        <time>2018-12-27T09:51:24Z</time>
      </trkpt>
      <trkpt lat="42.7241" lon="-0.28182">
        <ele>1180.5</ele>
        <time>2018-12-27T09:51:29Z</time>
      </trkpt>
      <trkpt lat="42.72394" lon="-0.28187">
        <ele>1178.1</ele>
        <time>2018-12-27T09:51:34Z</time>
      </trkpt>
      <trkpt lat="42.72383" lon="-0.28189">
        <ele>1176.6</ele>
        <time>2018-12-27T09:51:37Z</time>
      </trkpt>
      <trkpt lat="42.72368" lon="-0.28189">
        <ele>1174.2</ele>
        <time>2018-12-27T09:51:41Z</time>
      </trkpt>
      <trkpt lat="42.72349" lon="-0.2818">
        <ele>1170.7</ele>
        <time>2018-12-27T09:51:46Z</time>
      </trkpt>
      <trkpt lat="42.72335" lon="-0.28163">
        <ele>1167.9</ele>
        <time>2018-12-27T09:51:51Z</time>
      </trkpt>
      <trkpt lat="42.72317" lon="-0.28155">
        <ele>1164.8</ele>
        <time>2018-12-27T09:51:56Z</time>
      </trkpt>
      <trkpt lat="42.72302" lon="-0.28148">
        <ele>1162.1</ele>
        <time>2018-12-27T09:52:00Z</time>
      </trkpt>
      <trkpt lat="42.72299" lon="-0.28146">
        <ele>1161.6</ele>
        <time>2018-12-27T09:52:01Z</time>
      </trkpt>
      <trkpt lat="42.72294" lon="-0.28136">
        <ele>1160.7</ele>
        <time>2018-12-27T09:52:03Z</time>
      </trkpt>
      <trkpt lat="42.72292" lon="-0.28133">
        <ele>1160.3</ele>
        <time>2018-12-27T09:52:04Z</time>
      </trkpt>
      <trkpt lat="42.72285" lon="-0.28113">
        <ele>1158.6</ele>
        <time>2018-12-27T09:52:09Z</time>
      </trkpt>
      <trkpt lat="42.7228" lon="-0.28092">
        <ele>1157.3</ele>
        <time>2018-12-27T09:52:13Z</time>
      </trkpt>
      <trkpt lat="42.72272" lon="-0.28068">
        <ele>1155.6</ele>
        <time>2018-12-27T09:52:18Z</time>
      </trkpt>
      <trkpt lat="42.72258" lon="-0.28059">
        <ele>1153.4</ele>
        <time>2018-12-27T09:52:22Z</time>
      </trkpt>
      <trkpt lat="42.72244" lon="-0.28064">
        <ele>1151.2</ele>
        <time>2018-12-27T09:52:26Z</time>
      </trkpt>
      <trkpt lat="42.72228" lon="-0.28073">
        <ele>1148.8</ele>
        <time>2018-12-27T09:52:31Z</time>
      </trkpt>
      <trkpt lat="42.72208" lon="-0.28084">
        <ele>1145.6</ele>
        <time>2018-12-27T09:52:36Z</time>
      </trkpt>
      <trkpt lat="42.72192" lon="-0.28095">
        <ele>1147</ele>
        <time>2018-12-27T09:52:41Z</time>
      </trkpt>
      <trkpt lat="42.72173" lon="-0.28098">
        <ele>1148.7</ele>
        <time>2018-12-27T09:52:46Z</time>
      </trkpt>
      <trkpt lat="42.72158" lon="-0.28088">
        <ele>1150.8</ele>
        <time>2018-12-27T09:52:51Z</time>
      </trkpt>
      <trkpt lat="42.72143" lon="-0.2807">
        <ele>1153.6</ele>
        <time>2018-12-27T09:52:56Z</time>
      </trkpt>
      <trkpt lat="42.7214" lon="-0.28055">
        <ele>1155</ele>
        <time>2018-12-27T09:52:59Z</time>
      </trkpt>
      <trkpt lat="42.72142" lon="-0.28035">
        <ele>1156.3</ele>
        <time>2018-12-27T09:53:03Z</time>
      </trkpt>
      <trkpt lat="42.72144" lon="-0.28027">
        <ele>1156.7</ele>
        <time>2018-12-27T09:53:05Z</time>
      </trkpt>
      <trkpt lat="42.72152" lon="-0.28025">
        <ele>1155.5</ele>
        <time>2018-12-27T09:53:07Z</time>
      </trkpt>
      <trkpt lat="42.72152" lon="-0.28026">
        <ele>1155.5</ele>
        <time>2018-12-27T09:53:07Z</time>
      </trkpt>
      <trkpt lat="42.72151" lon="-0.28028">
        <ele>1155.6</ele>
        <time>2018-12-27T09:53:08Z</time>
      </trkpt>
      <trkpt lat="42.72149" lon="-0.28029">
        <ele>1155.6</ele>
        <time>2018-12-27T09:53:08Z</time>
      </trkpt>
      <trkpt lat="42.72147" lon="-0.28028">
        <ele>1156</ele>
        <time>2018-12-27T09:53:09Z</time>
      </trkpt>
      <trkpt lat="42.72147" lon="-0.28024">
        <ele>1156.4</ele>
        <time>2018-12-27T09:53:09Z</time>
      </trkpt>
      <trkpt lat="42.72149" lon="-0.28004">
        <ele>1157.9</ele>
        <time>2018-12-27T09:53:13Z</time>
      </trkpt>
      <trkpt lat="42.72157" lon="-0.27989">
        <ele>1157.8</ele>
        <time>2018-12-27T09:53:17Z</time>
      </trkpt>
      <trkpt lat="42.72165" lon="-0.27982">
        <ele>1156.6</ele>
        <time>2018-12-27T09:53:20Z</time>
      </trkpt>
      <trkpt lat="42.7217" lon="-0.2798">
        <ele>1155.8</ele>
        <time>2018-12-27T09:53:21Z</time>
      </trkpt>
      <trkpt lat="42.72173" lon="-0.27982">
        <ele>1155.1</ele>
        <time>2018-12-27T09:53:22Z</time>
      </trkpt>
      <trkpt lat="42.72179" lon="-0.2799">
        <ele>1153.4</ele>
        <time>2018-12-27T09:53:24Z</time>
      </trkpt>
      <trkpt lat="42.72184" lon="-0.27998">
        <ele>1152.1</ele>
        <time>2018-12-27T09:53:26Z</time>
      </trkpt>
      <trkpt lat="42.72188" lon="-0.28001">
        <ele>1151.2</ele>
        <time>2018-12-27T09:53:27Z</time>
      </trkpt>
      <trkpt lat="42.7219" lon="-0.27999">
        <ele>1150.9</ele>
        <time>2018-12-27T09:53:28Z</time>
      </trkpt>
      <trkpt lat="42.72191" lon="-0.27997">
        <ele>1150.7</ele>
        <time>2018-12-27T09:53:29Z</time>
      </trkpt>
      <trkpt lat="42.72194" lon="-0.27992">
        <ele>1150.5</ele>
        <time>2018-12-27T09:53:30Z</time>
      </trkpt>
      <trkpt lat="42.72194" lon="-0.2799">
        <ele>1150.5</ele>
        <time>2018-12-27T09:53:30Z</time>
      </trkpt>
      <trkpt lat="42.72196" lon="-0.27987">
        <ele>1150.5</ele>
        <time>2018-12-27T09:53:31Z</time>
      </trkpt>
      <trkpt lat="42.72199" lon="-0.27984">
        <ele>1150</ele>
        <time>2018-12-27T09:53:32Z</time>
      </trkpt>
      <trkpt lat="42.722" lon="-0.27981">
        <ele>1150</ele>
        <time>2018-12-27T09:53:33Z</time>
      </trkpt>
      <trkpt lat="42.72206" lon="-0.27974">
        <ele>1149</ele>
        <time>2018-12-27T09:53:35Z</time>
      </trkpt>
      <trkpt lat="42.72211" lon="-0.27963">
        <ele>1149.2</ele>
        <time>2018-12-27T09:53:37Z</time>
      </trkpt>
      <trkpt lat="42.72214" lon="-0.27953">
        <ele>1149.9</ele>
        <time>2018-12-27T09:53:39Z</time>
      </trkpt>
      <trkpt lat="42.72214" lon="-0.27952">
        <ele>1150</ele>
        <time>2018-12-27T09:53:40Z</time>
      </trkpt>
      <trkpt lat="42.72214" lon="-0.27947">
        <ele>1150.6</ele>
        <time>2018-12-27T09:53:41Z</time>
      </trkpt>
      <trkpt lat="42.72213" lon="-0.27943">
        <ele>1150.7</ele>
        <time>2018-12-27T09:53:41Z</time>
      </trkpt>
      <trkpt lat="42.72207" lon="-0.27931">
        <ele>1151.5</ele>
        <time>2018-12-27T09:53:44Z</time>
      </trkpt>
      <trkpt lat="42.72205" lon="-0.27922">
        <ele>1152.9</ele>
        <time>2018-12-27T09:53:46Z</time>
      </trkpt>
      <trkpt lat="42.72204" lon="-0.27911">
        <ele>1154.2</ele>
        <time>2018-12-27T09:53:48Z</time>
      </trkpt>
      <trkpt lat="42.72204" lon="-0.2791">
        <ele>1154.2</ele>
        <time>2018-12-27T09:53:49Z</time>
      </trkpt>
      <trkpt lat="42.72205" lon="-0.27908">
        <ele>1154.2</ele>
        <time>2018-12-27T09:53:49Z</time>
      </trkpt>
      <trkpt lat="42.72204" lon="-0.27902">
        <ele>1154.9</ele>
        <time>2018-12-27T09:53:50Z</time>
      </trkpt>
      <trkpt lat="42.72201" lon="-0.27893">
        <ele>1156.4</ele>
        <time>2018-12-27T09:53:52Z</time>
      </trkpt>
      <trkpt lat="42.72201" lon="-0.2789">
        <ele>1156.8</ele>
        <time>2018-12-27T09:53:53Z</time>
      </trkpt>
      <trkpt lat="42.72198" lon="-0.27874">
        <ele>1159.1</ele>
        <time>2018-12-27T09:53:56Z</time>
      </trkpt>
      <trkpt lat="42.72196" lon="-0.27859">
        <ele>1160.9</ele>
        <time>2018-12-27T09:53:59Z</time>
      </trkpt>
      <trkpt lat="42.72197" lon="-0.27839">
        <ele>1162.4</ele>
        <time>2018-12-27T09:54:03Z</time>
      </trkpt>
      <trkpt lat="42.72199" lon="-0.27823">
        <ele>1163.4</ele>
        <time>2018-12-27T09:54:06Z</time>
      </trkpt>
      <trkpt lat="42.72201" lon="-0.27817">
        <ele>1163.5</ele>
        <time>2018-12-27T09:54:07Z</time>
      </trkpt>
      <trkpt lat="42.72201" lon="-0.27812">
        <ele>1164</ele>
        <time>2018-12-27T09:54:08Z</time>
      </trkpt>
      <trkpt lat="42.72202" lon="-0.27807">
        <ele>1164.3</ele>
        <time>2018-12-27T09:54:09Z</time>
      </trkpt>
      <trkpt lat="42.72201" lon="-0.27799">
        <ele>1165.2</ele>
        <time>2018-12-27T09:54:11Z</time>
      </trkpt>
      <trkpt lat="42.72197" lon="-0.27788">
        <ele>1167.2</ele>
        <time>2018-12-27T09:54:13Z</time>
      </trkpt>
      <trkpt lat="42.72196" lon="-0.27786">
        <ele>1167.8</ele>
        <time>2018-12-27T09:54:14Z</time>
      </trkpt>
      <trkpt lat="42.7219" lon="-0.27771">
        <ele>1170.6</ele>
        <time>2018-12-27T09:54:17Z</time>
      </trkpt>
      <trkpt lat="42.72189" lon="-0.2777">
        <ele>1171.1</ele>
        <time>2018-12-27T09:54:17Z</time>
      </trkpt>
      <trkpt lat="42.72184" lon="-0.27763">
        <ele>1172.7</ele>
        <time>2018-12-27T09:54:19Z</time>
      </trkpt>
      <trkpt lat="42.72179" lon="-0.27755">
        <ele>1174.7</ele>
        <time>2018-12-27T09:54:22Z</time>
      </trkpt>
      <trkpt lat="42.72174" lon="-0.27741">
        <ele>1176.7</ele>
        <time>2018-12-27T09:54:25Z</time>
      </trkpt>
      <trkpt lat="42.72173" lon="-0.27728">
        <ele>1178.1</ele>
        <time>2018-12-27T09:54:27Z</time>
      </trkpt>
      <trkpt lat="42.72171" lon="-0.2772">
        <ele>1179</ele>
        <time>2018-12-27T09:54:29Z</time>
      </trkpt>
      <trkpt lat="42.72171" lon="-0.27717">
        <ele>1179.1</ele>
        <time>2018-12-27T09:54:29Z</time>
      </trkpt>
      <trkpt lat="42.7217" lon="-0.27705">
        <ele>1180.4</ele>
        <time>2018-12-27T09:54:32Z</time>
      </trkpt>
      <trkpt lat="42.7217" lon="-0.277">
        <ele>1180.7</ele>
        <time>2018-12-27T09:54:33Z</time>
      </trkpt>
      <trkpt lat="42.72171" lon="-0.27694">
        <ele>1181.2</ele>
        <time>2018-12-27T09:54:34Z</time>
      </trkpt>
      <trkpt lat="42.72169" lon="-0.27683">
        <ele>1182.3</ele>
        <time>2018-12-27T09:54:36Z</time>
      </trkpt>
      <trkpt lat="42.72168" lon="-0.27678">
        <ele>1182.8</ele>
        <time>2018-12-27T09:54:37Z</time>
      </trkpt>
      <trkpt lat="42.72169" lon="-0.27669">
        <ele>1183.4</ele>
        <time>2018-12-27T09:54:39Z</time>
      </trkpt>
      <trkpt lat="42.72168" lon="-0.2765">
        <ele>1185.1</ele>
        <time>2018-12-27T09:54:43Z</time>
      </trkpt>
      <trkpt lat="42.72168" lon="-0.27633">
        <ele>1186.5</ele>
        <time>2018-12-27T09:54:46Z</time>
      </trkpt>
      <trkpt lat="42.72167" lon="-0.27626">
        <ele>1187</ele>
        <time>2018-12-27T09:54:47Z</time>
      </trkpt>
      <trkpt lat="42.72165" lon="-0.27619">
        <ele>1187.7</ele>
        <time>2018-12-27T09:54:49Z</time>
      </trkpt>
      <trkpt lat="42.72165" lon="-0.27618">
        <ele>1187.7</ele>
        <time>2018-12-27T09:54:49Z</time>
      </trkpt>
      <trkpt lat="42.72166" lon="-0.27614">
        <ele>1188.2</ele>
        <time>2018-12-27T09:54:50Z</time>
      </trkpt>
      <trkpt lat="42.72165" lon="-0.27612">
        <ele>1188.4</ele>
        <time>2018-12-27T09:54:50Z</time>
      </trkpt>
      <trkpt lat="42.72167" lon="-0.27607">
        <ele>1189.1</ele>
        <time>2018-12-27T09:54:51Z</time>
      </trkpt>
      <trkpt lat="42.72166" lon="-0.27604">
        <ele>1189.2</ele>
        <time>2018-12-27T09:54:52Z</time>
      </trkpt>
      <trkpt lat="42.72162" lon="-0.27599">
        <ele>1189.5</ele>
        <time>2018-12-27T09:54:53Z</time>
      </trkpt>
      <trkpt lat="42.72161" lon="-0.27596">
        <ele>1189.5</ele>
        <time>2018-12-27T09:54:54Z</time>
      </trkpt>
      <trkpt lat="42.7216" lon="-0.27594">
        <ele>1189.5</ele>
        <time>2018-12-27T09:54:54Z</time>
      </trkpt>
      <trkpt lat="42.72159" lon="-0.27593">
        <ele>1189.4</ele>
        <time>2018-12-27T09:54:55Z</time>
      </trkpt>
      <trkpt lat="42.72158" lon="-0.2759">
        <ele>1189.8</ele>
        <time>2018-12-27T09:54:55Z</time>
      </trkpt>
      <trkpt lat="42.7216" lon="-0.27588">
        <ele>1190.2</ele>
        <time>2018-12-27T09:54:56Z</time>
      </trkpt>
      <trkpt lat="42.72163" lon="-0.27587">
        <ele>1190.7</ele>
        <time>2018-12-27T09:54:57Z</time>
      </trkpt>
      <trkpt lat="42.72168" lon="-0.27586">
        <ele>1191.7</ele>
        <time>2018-12-27T09:54:58Z</time>
      </trkpt>
      <trkpt lat="42.72169" lon="-0.27586">
        <ele>1191.8</ele>
        <time>2018-12-27T09:54:58Z</time>
      </trkpt>
      <trkpt lat="42.7217" lon="-0.27588">
        <ele>1191.9</ele>
        <time>2018-12-27T09:54:59Z</time>
      </trkpt>
      <trkpt lat="42.72172" lon="-0.2759">
        <ele>1191.9</ele>
        <time>2018-12-27T09:54:59Z</time>
      </trkpt>
      <trkpt lat="42.72174" lon="-0.27586">
        <ele>1192.8</ele>
        <time>2018-12-27T09:55:00Z</time>
      </trkpt>
      <trkpt lat="42.72174" lon="-0.27585">
        <ele>1193</ele>
        <time>2018-12-27T09:55:01Z</time>
      </trkpt>
      <trkpt lat="42.72174" lon="-0.27576">
        <ele>1194.3</ele>
        <time>2018-12-27T09:55:02Z</time>
      </trkpt>
      <trkpt lat="42.72173" lon="-0.27572">
        <ele>1194.3</ele>
        <time>2018-12-27T09:55:03Z</time>
      </trkpt>
      <trkpt lat="42.7217" lon="-0.2757">
        <ele>1194</ele>
        <time>2018-12-27T09:55:04Z</time>
      </trkpt>
      <trkpt lat="42.72165" lon="-0.27562">
        <ele>1193.9</ele>
        <time>2018-12-27T09:55:06Z</time>
      </trkpt>
      <trkpt lat="42.72165" lon="-0.27558">
        <ele>1194.1</ele>
        <time>2018-12-27T09:55:07Z</time>
      </trkpt>
      <trkpt lat="42.72163" lon="-0.27553">
        <ele>1194.4</ele>
        <time>2018-12-27T09:55:08Z</time>
      </trkpt>
      <trkpt lat="42.7216" lon="-0.27546">
        <ele>1194.1</ele>
        <time>2018-12-27T09:55:09Z</time>
      </trkpt>
      <trkpt lat="42.72158" lon="-0.27538">
        <ele>1194.3</ele>
        <time>2018-12-27T09:55:11Z</time>
      </trkpt>
      <trkpt lat="42.72155" lon="-0.27535">
        <ele>1194.1</ele>
        <time>2018-12-27T09:55:12Z</time>
      </trkpt>
      <trkpt lat="42.72155" lon="-0.27534">
        <ele>1194.3</ele>
        <time>2018-12-27T09:55:12Z</time>
      </trkpt>
      <trkpt lat="42.7215" lon="-0.27521">
        <ele>1194.8</ele>
        <time>2018-12-27T09:55:15Z</time>
      </trkpt>
      <trkpt lat="42.72149" lon="-0.2752">
        <ele>1194.8</ele>
        <time>2018-12-27T09:55:16Z</time>
      </trkpt>
      <trkpt lat="42.72146" lon="-0.27513">
        <ele>1194.8</ele>
        <time>2018-12-27T09:55:17Z</time>
      </trkpt>
      <trkpt lat="42.72144" lon="-0.27503">
        <ele>1196.2</ele>
        <time>2018-12-27T09:55:19Z</time>
      </trkpt>
      <trkpt lat="42.72137" lon="-0.27491">
        <ele>1195.3</ele>
        <time>2018-12-27T09:55:22Z</time>
      </trkpt>
      <trkpt lat="42.72133" lon="-0.27479">
        <ele>1195.4</ele>
        <time>2018-12-27T09:55:25Z</time>
      </trkpt>
      <trkpt lat="42.72128" lon="-0.2747">
        <ele>1194.9</ele>
        <time>2018-12-27T09:55:27Z</time>
      </trkpt>
      <trkpt lat="42.72122" lon="-0.2746">
        <ele>1195.3</ele>
        <time>2018-12-27T09:55:29Z</time>
      </trkpt>
      <trkpt lat="42.72115" lon="-0.27447">
        <ele>1199.4</ele>
        <time>2018-12-27T09:55:33Z</time>
      </trkpt>
      <trkpt lat="42.7211" lon="-0.27439">
        <ele>1201.7</ele>
        <time>2018-12-27T09:55:35Z</time>
      </trkpt>
      <trkpt lat="42.72109" lon="-0.27437">
        <ele>1202.3</ele>
        <time>2018-12-27T09:55:35Z</time>
      </trkpt>
      <trkpt lat="42.721" lon="-0.27425">
        <ele>1205.6</ele>
        <time>2018-12-27T09:55:39Z</time>
      </trkpt>
      <trkpt lat="42.72098" lon="-0.27423">
        <ele>1206</ele>
        <time>2018-12-27T09:55:39Z</time>
      </trkpt>
      <trkpt lat="42.72094" lon="-0.27415">
        <ele>1207.7</ele>
        <time>2018-12-27T09:55:41Z</time>
      </trkpt>
      <trkpt lat="42.72092" lon="-0.2741">
        <ele>1208.4</ele>
        <time>2018-12-27T09:55:42Z</time>
      </trkpt>
      <trkpt lat="42.72091" lon="-0.27407">
        <ele>1209</ele>
        <time>2018-12-27T09:55:43Z</time>
      </trkpt>
      <trkpt lat="42.72086" lon="-0.27399">
        <ele>1210.3</ele>
        <time>2018-12-27T09:55:45Z</time>
      </trkpt>
      <trkpt lat="42.72083" lon="-0.2739">
        <ele>1211.5</ele>
        <time>2018-12-27T09:55:47Z</time>
      </trkpt>
      <trkpt lat="42.72082" lon="-0.27385">
        <ele>1212.1</ele>
        <time>2018-12-27T09:55:48Z</time>
      </trkpt>
      <trkpt lat="42.72081" lon="-0.27382">
        <ele>1212.5</ele>
        <time>2018-12-27T09:55:48Z</time>
      </trkpt>
      <trkpt lat="42.72079" lon="-0.27375">
        <ele>1213.2</ele>
        <time>2018-12-27T09:55:50Z</time>
      </trkpt>
      <trkpt lat="42.72077" lon="-0.27366">
        <ele>1214.8</ele>
        <time>2018-12-27T09:55:52Z</time>
      </trkpt>
      <trkpt lat="42.72077" lon="-0.27361">
        <ele>1216</ele>
        <time>2018-12-27T09:55:53Z</time>
      </trkpt>
      <trkpt lat="42.72078" lon="-0.2736">
        <ele>1216.3</ele>
        <time>2018-12-27T09:55:53Z</time>
      </trkpt>
      <trkpt lat="42.72075" lon="-0.27351">
        <ele>1218.1</ele>
        <time>2018-12-27T09:55:55Z</time>
      </trkpt>
      <trkpt lat="42.72071" lon="-0.27342">
        <ele>1219.2</ele>
        <time>2018-12-27T09:55:57Z</time>
      </trkpt>
      <trkpt lat="42.7207" lon="-0.27336">
        <ele>1220.3</ele>
        <time>2018-12-27T09:55:58Z</time>
      </trkpt>
      <trkpt lat="42.72069" lon="-0.27334">
        <ele>1220.5</ele>
        <time>2018-12-27T09:55:59Z</time>
      </trkpt>
      <trkpt lat="42.72067" lon="-0.27331">
        <ele>1220.8</ele>
        <time>2018-12-27T09:56:00Z</time>
      </trkpt>
      <trkpt lat="42.72065" lon="-0.27325">
        <ele>1221.5</ele>
        <time>2018-12-27T09:56:01Z</time>
      </trkpt>
      <trkpt lat="42.72063" lon="-0.27317">
        <ele>1222.8</ele>
        <time>2018-12-27T09:56:02Z</time>
      </trkpt>
      <trkpt lat="42.72062" lon="-0.27314">
        <ele>1223</ele>
        <time>2018-12-27T09:56:03Z</time>
      </trkpt>
      <trkpt lat="42.72062" lon="-0.27311">
        <ele>1223.7</ele>
        <time>2018-12-27T09:56:04Z</time>
      </trkpt>
      <trkpt lat="42.72062" lon="-0.27309">
        <ele>1223.8</ele>
        <time>2018-12-27T09:56:04Z</time>
      </trkpt>
      <trkpt lat="42.72058" lon="-0.27299">
        <ele>1224.9</ele>
        <time>2018-12-27T09:56:06Z</time>
      </trkpt>
      <trkpt lat="42.72054" lon="-0.27288">
        <ele>1226</ele>
        <time>2018-12-27T09:56:09Z</time>
      </trkpt>
      <trkpt lat="42.72049" lon="-0.27281">
        <ele>1227.3</ele>
        <time>2018-12-27T09:56:11Z</time>
      </trkpt>
      <trkpt lat="42.72044" lon="-0.27274">
        <ele>1228.1</ele>
        <time>2018-12-27T09:56:12Z</time>
      </trkpt>
      <trkpt lat="42.72043" lon="-0.2727">
        <ele>1229</ele>
        <time>2018-12-27T09:56:13Z</time>
      </trkpt>
      <trkpt lat="42.72041" lon="-0.27267">
        <ele>1229.5</ele>
        <time>2018-12-27T09:56:14Z</time>
      </trkpt>
      <trkpt lat="42.72035" lon="-0.27259">
        <ele>1231.9</ele>
        <time>2018-12-27T09:56:16Z</time>
      </trkpt>
      <trkpt lat="42.72031" lon="-0.27252">
        <ele>1233.8</ele>
        <time>2018-12-27T09:56:18Z</time>
      </trkpt>
      <trkpt lat="42.72029" lon="-0.2725">
        <ele>1234.4</ele>
        <time>2018-12-27T09:56:19Z</time>
      </trkpt>
      <trkpt lat="42.72024" lon="-0.27242">
        <ele>1236.3</ele>
        <time>2018-12-27T09:56:21Z</time>
      </trkpt>
      <trkpt lat="42.72017" lon="-0.27232">
        <ele>1237.9</ele>
        <time>2018-12-27T09:56:23Z</time>
      </trkpt>
      <trkpt lat="42.72012" lon="-0.27228">
        <ele>1238.3</ele>
        <time>2018-12-27T09:56:25Z</time>
      </trkpt>
      <trkpt lat="42.72003" lon="-0.27222">
        <ele>1238.4</ele>
        <time>2018-12-27T09:56:28Z</time>
      </trkpt>
      <trkpt lat="42.72" lon="-0.27221">
        <ele>1238.1</ele>
        <time>2018-12-27T09:56:29Z</time>
      </trkpt>
      <trkpt lat="42.71999" lon="-0.27221">
        <ele>1237.9</ele>
        <time>2018-12-27T09:56:29Z</time>
      </trkpt>
      <trkpt lat="42.71993" lon="-0.27224">
        <ele>1236.9</ele>
        <time>2018-12-27T09:56:30Z</time>
      </trkpt>
      <trkpt lat="42.71992" lon="-0.27225">
        <ele>1236.7</ele>
        <time>2018-12-27T09:56:31Z</time>
      </trkpt>
      <trkpt lat="42.7199" lon="-0.27227">
        <ele>1236.3</ele>
        <time>2018-12-27T09:56:32Z</time>
      </trkpt>
      <trkpt lat="42.71987" lon="-0.27227">
        <ele>1236</ele>
        <time>2018-12-27T09:56:32Z</time>
      </trkpt>
      <trkpt lat="42.71983" lon="-0.27223">
        <ele>1235.9</ele>
        <time>2018-12-27T09:56:34Z</time>
      </trkpt>
      <trkpt lat="42.71981" lon="-0.27221">
        <ele>1235.8</ele>
        <time>2018-12-27T09:56:34Z</time>
      </trkpt>
      <trkpt lat="42.71976" lon="-0.27217">
        <ele>1235.5</ele>
        <time>2018-12-27T09:56:36Z</time>
      </trkpt>
      <trkpt lat="42.71975" lon="-0.27216">
        <ele>1235.4</ele>
        <time>2018-12-27T09:56:36Z</time>
      </trkpt>
      <trkpt lat="42.71971" lon="-0.27208">
        <ele>1235.2</ele>
        <time>2018-12-27T09:56:38Z</time>
      </trkpt>
      <trkpt lat="42.7197" lon="-0.27206">
        <ele>1235.3</ele>
        <time>2018-12-27T09:56:39Z</time>
      </trkpt>
      <trkpt lat="42.71964" lon="-0.2719">
        <ele>1236.2</ele>
        <time>2018-12-27T09:56:42Z</time>
      </trkpt>
      <trkpt lat="42.71959" lon="-0.27171">
        <ele>1237.2</ele>
        <time>2018-12-27T09:56:46Z</time>
      </trkpt>
      <trkpt lat="42.71956" lon="-0.27154">
        <ele>1239.5</ele>
        <time>2018-12-27T09:56:49Z</time>
      </trkpt>
      <trkpt lat="42.7195" lon="-0.27143">
        <ele>1241.5</ele>
        <time>2018-12-27T09:56:52Z</time>
      </trkpt>
      <trkpt lat="42.71944" lon="-0.27133">
        <ele>1243.7</ele>
        <time>2018-12-27T09:56:55Z</time>
      </trkpt>
      <trkpt lat="42.71938" lon="-0.27122">
        <ele>1245.9</ele>
        <time>2018-12-27T09:56:57Z</time>
      </trkpt>
      <trkpt lat="42.71938" lon="-0.27119">
        <ele>1246.6</ele>
        <time>2018-12-27T09:56:58Z</time>
      </trkpt>
      <trkpt lat="42.71936" lon="-0.27112">
        <ele>1248.2</ele>
        <time>2018-12-27T09:56:59Z</time>
      </trkpt>
      <trkpt lat="42.71934" lon="-0.27107">
        <ele>1249.5</ele>
        <time>2018-12-27T09:57:01Z</time>
      </trkpt>
      <trkpt lat="42.71927" lon="-0.27093">
        <ele>1252.4</ele>
        <time>2018-12-27T09:57:04Z</time>
      </trkpt>
      <trkpt lat="42.71921" lon="-0.27076">
        <ele>1255.1</ele>
        <time>2018-12-27T09:57:08Z</time>
      </trkpt>
      <trkpt lat="42.71915" lon="-0.27067">
        <ele>1256</ele>
        <time>2018-12-27T09:57:10Z</time>
      </trkpt>
      <trkpt lat="42.71911" lon="-0.27056">
        <ele>1257</ele>
        <time>2018-12-27T09:57:12Z</time>
      </trkpt>
      <trkpt lat="42.7191" lon="-0.27052">
        <ele>1257.4</ele>
        <time>2018-12-27T09:57:13Z</time>
      </trkpt>
      <trkpt lat="42.71908" lon="-0.27041">
        <ele>1258.3</ele>
        <time>2018-12-27T09:57:15Z</time>
      </trkpt>
      <trkpt lat="42.71907" lon="-0.27038">
        <ele>1258.6</ele>
        <time>2018-12-27T09:57:16Z</time>
      </trkpt>
      <trkpt lat="42.71902" lon="-0.27023">
        <ele>1260.4</ele>
        <time>2018-12-27T09:57:19Z</time>
      </trkpt>
      <trkpt lat="42.71901" lon="-0.27006">
        <ele>1262.9</ele>
        <time>2018-12-27T09:57:22Z</time>
      </trkpt>
      <trkpt lat="42.71898" lon="-0.26997">
        <ele>1263.4</ele>
        <time>2018-12-27T09:57:24Z</time>
      </trkpt>
      <trkpt lat="42.71896" lon="-0.26995">
        <ele>1263.3</ele>
        <time>2018-12-27T09:57:25Z</time>
      </trkpt>
      <trkpt lat="42.71889" lon="-0.26983">
        <ele>1262.2</ele>
        <time>2018-12-27T09:57:28Z</time>
      </trkpt>
      <trkpt lat="42.71889" lon="-0.26981">
        <ele>1262.5</ele>
        <time>2018-12-27T09:57:29Z</time>
      </trkpt>
      <trkpt lat="42.71888" lon="-0.26974">
        <ele>1263.1</ele>
        <time>2018-12-27T09:57:30Z</time>
      </trkpt>
      <trkpt lat="42.71889" lon="-0.26969">
        <ele>1264.1</ele>
        <time>2018-12-27T09:57:31Z</time>
      </trkpt>
      <trkpt lat="42.71889" lon="-0.26961">
        <ele>1265.1</ele>
        <time>2018-12-27T09:57:33Z</time>
      </trkpt>
      <trkpt lat="42.71888" lon="-0.26946">
        <ele>1267.3</ele>
        <time>2018-12-27T09:57:35Z</time>
      </trkpt>
      <trkpt lat="42.71885" lon="-0.26932">
        <ele>1268.3</ele>
        <time>2018-12-27T09:57:38Z</time>
      </trkpt>
      <trkpt lat="42.7188" lon="-0.26918">
        <ele>1268.8</ele>
        <time>2018-12-27T09:57:41Z</time>
      </trkpt>
      <trkpt lat="42.71875" lon="-0.26907">
        <ele>1268.4</ele>
        <time>2018-12-27T09:57:44Z</time>
      </trkpt>
      <trkpt lat="42.71874" lon="-0.26897">
        <ele>1270.4</ele>
        <time>2018-12-27T09:57:46Z</time>
      </trkpt>
      <trkpt lat="42.71873" lon="-0.26878">
        <ele>1274.1</ele>
        <time>2018-12-27T09:57:50Z</time>
      </trkpt>
      <trkpt lat="42.71873" lon="-0.26866">
        <ele>1276.4</ele>
        <time>2018-12-27T09:57:52Z</time>
      </trkpt>
      <trkpt lat="42.71873" lon="-0.26847">
        <ele>1279.7</ele>
        <time>2018-12-27T09:57:56Z</time>
      </trkpt>
      <trkpt lat="42.71868" lon="-0.26835">
        <ele>1283.4</ele>
        <time>2018-12-27T09:57:58Z</time>
      </trkpt>
      <trkpt lat="42.71867" lon="-0.2683">
        <ele>1284.6</ele>
        <time>2018-12-27T09:57:59Z</time>
      </trkpt>
      <trkpt lat="42.71865" lon="-0.26827">
        <ele>1285.9</ele>
        <time>2018-12-27T09:58:00Z</time>
      </trkpt>
      <trkpt lat="42.71865" lon="-0.26824">
        <ele>1286.5</ele>
        <time>2018-12-27T09:58:01Z</time>
      </trkpt>
      <trkpt lat="42.71864" lon="-0.26817">
        <ele>1287.9</ele>
        <time>2018-12-27T09:58:02Z</time>
      </trkpt>
      <trkpt lat="42.71864" lon="-0.26808">
        <ele>1289.3</ele>
        <time>2018-12-27T09:58:04Z</time>
      </trkpt>
      <trkpt lat="42.71862" lon="-0.26793">
        <ele>1292.4</ele>
        <time>2018-12-27T09:58:07Z</time>
      </trkpt>
      <trkpt lat="42.71863" lon="-0.26779">
        <ele>1293.2</ele>
        <time>2018-12-27T09:58:10Z</time>
      </trkpt>
      <trkpt lat="42.71861" lon="-0.26764">
        <ele>1294.6</ele>
        <time>2018-12-27T09:58:13Z</time>
      </trkpt>
      <trkpt lat="42.7186" lon="-0.26755">
        <ele>1295.5</ele>
        <time>2018-12-27T09:58:15Z</time>
      </trkpt>
      <trkpt lat="42.7186" lon="-0.26754">
        <ele>1295.4</ele>
        <time>2018-12-27T09:58:15Z</time>
      </trkpt>
      <trkpt lat="42.7186" lon="-0.26749">
        <ele>1295.7</ele>
        <time>2018-12-27T09:58:16Z</time>
      </trkpt>
      <trkpt lat="42.7186" lon="-0.26743">
        <ele>1296.2</ele>
        <time>2018-12-27T09:58:17Z</time>
      </trkpt>
      <trkpt lat="42.7186" lon="-0.26741">
        <ele>1296.3</ele>
        <time>2018-12-27T09:58:17Z</time>
      </trkpt>
      <trkpt lat="42.7186" lon="-0.26736">
        <ele>1296.5</ele>
        <time>2018-12-27T09:58:18Z</time>
      </trkpt>
      <trkpt lat="42.7186" lon="-0.26734">
        <ele>1296.9</ele>
        <time>2018-12-27T09:58:19Z</time>
      </trkpt>
      <trkpt lat="42.71862" lon="-0.26725">
        <ele>1296.9</ele>
        <time>2018-12-27T09:58:20Z</time>
      </trkpt>
      <trkpt lat="42.71863" lon="-0.26718">
        <ele>1297</ele>
        <time>2018-12-27T09:58:22Z</time>
      </trkpt>
      <trkpt lat="42.71866" lon="-0.26712">
        <ele>1296.9</ele>
        <time>2018-12-27T09:58:23Z</time>
      </trkpt>
      <trkpt lat="42.71868" lon="-0.26704">
        <ele>1297.2</ele>
        <time>2018-12-27T09:58:25Z</time>
      </trkpt>
      <trkpt lat="42.71867" lon="-0.26694">
        <ele>1298.3</ele>
        <time>2018-12-27T09:58:27Z</time>
      </trkpt>
      <trkpt lat="42.71864" lon="-0.26682">
        <ele>1300.5</ele>
        <time>2018-12-27T09:58:29Z</time>
      </trkpt>
      <trkpt lat="42.71864" lon="-0.26672">
        <ele>1301.5</ele>
        <time>2018-12-27T09:58:32Z</time>
      </trkpt>
      <trkpt lat="42.71865" lon="-0.26666">
        <ele>1302.2</ele>
        <time>2018-12-27T09:58:33Z</time>
      </trkpt>
      <trkpt lat="42.71865" lon="-0.26657">
        <ele>1303.3</ele>
        <time>2018-12-27T09:58:34Z</time>
      </trkpt>
      <trkpt lat="42.71863" lon="-0.26639">
        <ele>1305.5</ele>
        <time>2018-12-27T09:58:38Z</time>
      </trkpt>
      <trkpt lat="42.7187" lon="-0.26623">
        <ele>1306.1</ele>
        <time>2018-12-27T09:58:42Z</time>
      </trkpt>
      <trkpt lat="42.71877" lon="-0.26608">
        <ele>1307</ele>
        <time>2018-12-27T09:58:45Z</time>
      </trkpt>
      <trkpt lat="42.71882" lon="-0.26592">
        <ele>1310.5</ele>
        <time>2018-12-27T09:58:48Z</time>
      </trkpt>
      <trkpt lat="42.7189" lon="-0.26577">
        <ele>1314.1</ele>
        <time>2018-12-27T09:58:52Z</time>
      </trkpt>
      <trkpt lat="42.71892" lon="-0.26561">
        <ele>1315.4</ele>
        <time>2018-12-27T09:58:55Z</time>
      </trkpt>
      <trkpt lat="42.71897" lon="-0.26558">
        <ele>1317.1</ele>
        <time>2018-12-27T09:58:57Z</time>
      </trkpt>
      <trkpt lat="42.71902" lon="-0.26553">
        <ele>1318.5</ele>
        <time>2018-12-27T09:58:58Z</time>
      </trkpt>
      <trkpt lat="42.71905" lon="-0.26536">
        <ele>1319.3</ele>
        <time>2018-12-27T09:59:02Z</time>
      </trkpt>
      <trkpt lat="42.71906" lon="-0.26521">
        <ele>1318.9</ele>
        <time>2018-12-27T09:59:05Z</time>
      </trkpt>
      <trkpt lat="42.71908" lon="-0.26505">
        <ele>1318.5</ele>
        <time>2018-12-27T09:59:08Z</time>
      </trkpt>
      <trkpt lat="42.71912" lon="-0.26491">
        <ele>1318.6</ele>
        <time>2018-12-27T09:59:11Z</time>
      </trkpt>
      <trkpt lat="42.71913" lon="-0.26473">
        <ele>1317.5</ele>
        <time>2018-12-27T09:59:14Z</time>
      </trkpt>
      <trkpt lat="42.71922" lon="-0.2646">
        <ele>1317.5</ele>
        <time>2018-12-27T09:59:18Z</time>
      </trkpt>
      <trkpt lat="42.71927" lon="-0.26445">
        <ele>1318.8</ele>
        <time>2018-12-27T09:59:21Z</time>
      </trkpt>
      <trkpt lat="42.71928" lon="-0.26441">
        <ele>1319.3</ele>
        <time>2018-12-27T09:59:22Z</time>
      </trkpt>
      <trkpt lat="42.71929" lon="-0.26432">
        <ele>1319.9</ele>
        <time>2018-12-27T09:59:24Z</time>
      </trkpt>
      <trkpt lat="42.71935" lon="-0.26422">
        <ele>1320.2</ele>
        <time>2018-12-27T09:59:27Z</time>
      </trkpt>
      <trkpt lat="42.71941" lon="-0.26417">
        <ele>1320.2</ele>
        <time>2018-12-27T09:59:28Z</time>
      </trkpt>
      <trkpt lat="42.71944" lon="-0.26417">
        <ele>1320</ele>
        <time>2018-12-27T09:59:29Z</time>
      </trkpt>
      <trkpt lat="42.71947" lon="-0.26416">
        <ele>1319.9</ele>
        <time>2018-12-27T09:59:30Z</time>
      </trkpt>
      <trkpt lat="42.71947" lon="-0.26412">
        <ele>1319.8</ele>
        <time>2018-12-27T09:59:31Z</time>
      </trkpt>
      <trkpt lat="42.7195" lon="-0.26412">
        <ele>1319.7</ele>
        <time>2018-12-27T09:59:31Z</time>
      </trkpt>
      <trkpt lat="42.7195" lon="-0.26414">
        <ele>1319.7</ele>
        <time>2018-12-27T09:59:32Z</time>
      </trkpt>
      <trkpt lat="42.71947" lon="-0.26415">
        <ele>1319.7</ele>
        <time>2018-12-27T09:59:32Z</time>
      </trkpt>
      <trkpt lat="42.71947" lon="-0.26415">
        <ele>1319.7</ele>
        <time>2018-12-27T09:59:32Z</time>
      </trkpt>
      <trkpt lat="42.71945" lon="-0.26418">
        <ele>1319.9</ele>
        <time>2018-12-27T09:59:33Z</time>
      </trkpt>
      <trkpt lat="42.71944" lon="-0.26419">
        <ele>1320</ele>
        <time>2018-12-27T09:59:34Z</time>
      </trkpt>
      <trkpt lat="42.71934" lon="-0.26416">
        <ele>1320.7</ele>
        <time>2018-12-27T09:59:36Z</time>
      </trkpt>
      <trkpt lat="42.71932" lon="-0.26415">
        <ele>1320.9</ele>
        <time>2018-12-27T09:59:37Z</time>
      </trkpt>
      <trkpt lat="42.71925" lon="-0.26415">
        <ele>1321.4</ele>
        <time>2018-12-27T09:59:39Z</time>
      </trkpt>
      <trkpt lat="42.71925" lon="-0.26414">
        <ele>1321.5</ele>
        <time>2018-12-27T09:59:39Z</time>
      </trkpt>
      <trkpt lat="42.71922" lon="-0.26418">
        <ele>1321.3</ele>
        <time>2018-12-27T09:59:40Z</time>
      </trkpt>
      <trkpt lat="42.71921" lon="-0.26421">
        <ele>1321</ele>
        <time>2018-12-27T09:59:41Z</time>
      </trkpt>
      <trkpt lat="42.71916" lon="-0.26423">
        <ele>1321.1</ele>
        <time>2018-12-27T09:59:42Z</time>
      </trkpt>
      <trkpt lat="42.71914" lon="-0.26424">
        <ele>1321.1</ele>
        <time>2018-12-27T09:59:43Z</time>
      </trkpt>
      <trkpt lat="42.71906" lon="-0.26424">
        <ele>1321.4</ele>
        <time>2018-12-27T09:59:45Z</time>
      </trkpt>
      <trkpt lat="42.71899" lon="-0.2642">
        <ele>1322.3</ele>
        <time>2018-12-27T09:59:47Z</time>
      </trkpt>
      <trkpt lat="42.71894" lon="-0.26417">
        <ele>1323.2</ele>
        <time>2018-12-27T09:59:48Z</time>
      </trkpt>
      <trkpt lat="42.71891" lon="-0.26416">
        <ele>1323.6</ele>
        <time>2018-12-27T09:59:49Z</time>
      </trkpt>
      <trkpt lat="42.71888" lon="-0.26413">
        <ele>1324.6</ele>
        <time>2018-12-27T09:59:50Z</time>
      </trkpt>
      <trkpt lat="42.71883" lon="-0.26412">
        <ele>1325</ele>
        <time>2018-12-27T09:59:51Z</time>
      </trkpt>
      <trkpt lat="42.71882" lon="-0.26411">
        <ele>1325.4</ele>
        <time>2018-12-27T09:59:52Z</time>
      </trkpt>
      <trkpt lat="42.7188" lon="-0.26412">
        <ele>1325.5</ele>
        <time>2018-12-27T09:59:52Z</time>
      </trkpt>
      <trkpt lat="42.71878" lon="-0.26413">
        <ele>1325.1</ele>
        <time>2018-12-27T09:59:53Z</time>
      </trkpt>
      <trkpt lat="42.71874" lon="-0.26413">
        <ele>1326.2</ele>
        <time>2018-12-27T09:59:54Z</time>
      </trkpt>
      <trkpt lat="42.71874" lon="-0.26414">
        <ele>1326.4</ele>
        <time>2018-12-27T09:59:54Z</time>
      </trkpt>
      <trkpt lat="42.71868" lon="-0.26415">
        <ele>1331</ele>
        <time>2018-12-27T09:59:56Z</time>
      </trkpt>
      <trkpt lat="42.71865" lon="-0.26417">
        <ele>1333.4</ele>
        <time>2018-12-27T09:59:57Z</time>
      </trkpt>
      <trkpt lat="42.71865" lon="-0.26416">
        <ele>1333.9</ele>
        <time>2018-12-27T09:59:57Z</time>
      </trkpt>
      <trkpt lat="42.71866" lon="-0.26412">
        <ele>1333.7</ele>
        <time>2018-12-27T09:59:58Z</time>
      </trkpt>
      <trkpt lat="42.71867" lon="-0.26409">
        <ele>1333.8</ele>
        <time>2018-12-27T09:59:58Z</time>
      </trkpt>
      <trkpt lat="42.71867" lon="-0.26405">
        <ele>1334.3</ele>
        <time>2018-12-27T09:59:59Z</time>
      </trkpt>
      <trkpt lat="42.71868" lon="-0.264">
        <ele>1334.2</ele>
        <time>2018-12-27T10:00:00Z</time>
      </trkpt>
      <trkpt lat="42.71871" lon="-0.26396">
        <ele>1333.3</ele>
        <time>2018-12-27T10:00:01Z</time>
      </trkpt>
      <trkpt lat="42.71871" lon="-0.26394">
        <ele>1333.4</ele>
        <time>2018-12-27T10:00:01Z</time>
      </trkpt>
      <trkpt lat="42.71876" lon="-0.26391">
        <ele>1330.9</ele>
        <time>2018-12-27T10:00:03Z</time>
      </trkpt>
      <trkpt lat="42.71878" lon="-0.26389">
        <ele>1331.3</ele>
        <time>2018-12-27T10:00:03Z</time>
      </trkpt>
      <trkpt lat="42.71878" lon="-0.26386">
        <ele>1331.6</ele>
        <time>2018-12-27T10:00:04Z</time>
      </trkpt>
      <trkpt lat="42.71882" lon="-0.26381">
        <ele>1332.3</ele>
        <time>2018-12-27T10:00:05Z</time>
      </trkpt>
      <trkpt lat="42.71881" lon="-0.26379">
        <ele>1332.8</ele>
        <time>2018-12-27T10:00:06Z</time>
      </trkpt>
      <trkpt lat="42.71881" lon="-0.26379">
        <ele>1332.8</ele>
        <time>2018-12-27T10:00:06Z</time>
      </trkpt>
      <trkpt lat="42.71883" lon="-0.26374">
        <ele>1333.8</ele>
        <time>2018-12-27T10:00:07Z</time>
      </trkpt>
      <trkpt lat="42.71883" lon="-0.26373">
        <ele>1334.1</ele>
        <time>2018-12-27T10:00:07Z</time>
      </trkpt>
      <trkpt lat="42.71882" lon="-0.26374">
        <ele>1333.8</ele>
        <time>2018-12-27T10:00:07Z</time>
      </trkpt>
      <trkpt lat="42.71874" lon="-0.26374">
        <ele>1336.7</ele>
        <time>2018-12-27T10:00:10Z</time>
      </trkpt>
      <trkpt lat="42.71867" lon="-0.26371">
        <ele>1342.7</ele>
        <time>2018-12-27T10:00:12Z</time>
      </trkpt>
      <trkpt lat="42.71864" lon="-0.2637">
        <ele>1344.7</ele>
        <time>2018-12-27T10:00:12Z</time>
      </trkpt>
      <trkpt lat="42.71857" lon="-0.26367">
        <ele>1350.3</ele>
        <time>2018-12-27T10:00:14Z</time>
      </trkpt>
      <trkpt lat="42.71857" lon="-0.26369">
        <ele>1350.3</ele>
        <time>2018-12-27T10:00:15Z</time>
      </trkpt>
      <trkpt lat="42.71855" lon="-0.2637">
        <ele>1351.1</ele>
        <time>2018-12-27T10:00:15Z</time>
      </trkpt>
      <trkpt lat="42.71855" lon="-0.26371">
        <ele>1351.4</ele>
        <time>2018-12-27T10:00:15Z</time>
      </trkpt>
      <trkpt lat="42.71852" lon="-0.26371">
        <ele>1353.5</ele>
        <time>2018-12-27T10:00:16Z</time>
      </trkpt>
      <trkpt lat="42.71849" lon="-0.26371">
        <ele>1355.5</ele>
        <time>2018-12-27T10:00:17Z</time>
      </trkpt>
      <trkpt lat="42.71844" lon="-0.26371">
        <ele>1359.1</ele>
        <time>2018-12-27T10:00:18Z</time>
      </trkpt>
      <trkpt lat="42.7184" lon="-0.26371">
        <ele>1362.1</ele>
        <time>2018-12-27T10:00:19Z</time>
      </trkpt>
      <trkpt lat="42.71841" lon="-0.26371">
        <ele>1361.8</ele>
        <time>2018-12-27T10:00:19Z</time>
      </trkpt>
      <trkpt lat="42.71843" lon="-0.26368">
        <ele>1360.4</ele>
        <time>2018-12-27T10:00:20Z</time>
      </trkpt>
      <trkpt lat="42.71845" lon="-0.26368">
        <ele>1359</ele>
        <time>2018-12-27T10:00:21Z</time>
      </trkpt>
      <trkpt lat="42.71845" lon="-0.26367">
        <ele>1359.2</ele>
        <time>2018-12-27T10:00:21Z</time>
      </trkpt>
      <trkpt lat="42.7185" lon="-0.26366">
        <ele>1356</ele>
        <time>2018-12-27T10:00:22Z</time>
      </trkpt>
      <trkpt lat="42.71855" lon="-0.26363">
        <ele>1353</ele>
        <time>2018-12-27T10:00:24Z</time>
      </trkpt>
      <trkpt lat="42.71863" lon="-0.26357">
        <ele>1348.9</ele>
        <time>2018-12-27T10:00:26Z</time>
      </trkpt>
      <trkpt lat="42.71862" lon="-0.2635">
        <ele>1351.8</ele>
        <time>2018-12-27T10:00:28Z</time>
      </trkpt>
      <trkpt lat="42.71858" lon="-0.26338">
        <ele>1357.1</ele>
        <time>2018-12-27T10:00:30Z</time>
      </trkpt>
      <trkpt lat="42.71862" lon="-0.26331">
        <ele>1356.6</ele>
        <time>2018-12-27T10:00:32Z</time>
      </trkpt>
      <trkpt lat="42.71862" lon="-0.26324">
        <ele>1358.2</ele>
        <time>2018-12-27T10:00:33Z</time>
      </trkpt>
      <trkpt lat="42.71862" lon="-0.26321">
        <ele>1359.2</ele>
        <time>2018-12-27T10:00:34Z</time>
      </trkpt>
      <trkpt lat="42.71861" lon="-0.26318">
        <ele>1360.3</ele>
        <time>2018-12-27T10:00:34Z</time>
      </trkpt>
      <trkpt lat="42.7186" lon="-0.26311">
        <ele>1362.7</ele>
        <time>2018-12-27T10:00:36Z</time>
      </trkpt>
      <trkpt lat="42.71859" lon="-0.26308">
        <ele>1364.2</ele>
        <time>2018-12-27T10:00:37Z</time>
      </trkpt>
      <trkpt lat="42.71857" lon="-0.26307">
        <ele>1365.2</ele>
        <time>2018-12-27T10:00:37Z</time>
      </trkpt>
      <trkpt lat="42.71859" lon="-0.26302">
        <ele>1365.7</ele>
        <time>2018-12-27T10:00:38Z</time>
      </trkpt>
      <trkpt lat="42.71862" lon="-0.26301">
        <ele>1364.1</ele>
        <time>2018-12-27T10:00:39Z</time>
      </trkpt>
      <trkpt lat="42.71867" lon="-0.26296">
        <ele>1363.5</ele>
        <time>2018-12-27T10:00:41Z</time>
      </trkpt>
      <trkpt lat="42.71869" lon="-0.26295">
        <ele>1362.9</ele>
        <time>2018-12-27T10:00:41Z</time>
      </trkpt>
      <trkpt lat="42.71871" lon="-0.26294">
        <ele>1361.9</ele>
        <time>2018-12-27T10:00:42Z</time>
      </trkpt>
      <trkpt lat="42.71871" lon="-0.2629">
        <ele>1363.3</ele>
        <time>2018-12-27T10:00:43Z</time>
      </trkpt>
      <trkpt lat="42.71871" lon="-0.26285">
        <ele>1364.4</ele>
        <time>2018-12-27T10:00:44Z</time>
      </trkpt>
      <trkpt lat="42.71874" lon="-0.26283">
        <ele>1363.9</ele>
        <time>2018-12-27T10:00:44Z</time>
      </trkpt>
      <trkpt lat="42.71873" lon="-0.26279">
        <ele>1365</ele>
        <time>2018-12-27T10:00:45Z</time>
      </trkpt>
      <trkpt lat="42.71874" lon="-0.26276">
        <ele>1365.4</ele>
        <time>2018-12-27T10:00:46Z</time>
      </trkpt>
      <trkpt lat="42.71875" lon="-0.2627">
        <ele>1366.8</ele>
        <time>2018-12-27T10:00:47Z</time>
      </trkpt>
      <trkpt lat="42.71877" lon="-0.26269">
        <ele>1366.7</ele>
        <time>2018-12-27T10:00:48Z</time>
      </trkpt>
      <trkpt lat="42.7188" lon="-0.26262">
        <ele>1367.4</ele>
        <time>2018-12-27T10:00:49Z</time>
      </trkpt>
      <trkpt lat="42.71878" lon="-0.26255">
        <ele>1369.7</ele>
        <time>2018-12-27T10:00:51Z</time>
      </trkpt>
      <trkpt lat="42.71879" lon="-0.26252">
        <ele>1370.5</ele>
        <time>2018-12-27T10:00:51Z</time>
      </trkpt>
      <trkpt lat="42.71881" lon="-0.26251">
        <ele>1370</ele>
        <time>2018-12-27T10:00:52Z</time>
      </trkpt>
      <trkpt lat="42.71881" lon="-0.26242">
        <ele>1372.2</ele>
        <time>2018-12-27T10:00:53Z</time>
      </trkpt>
      <trkpt lat="42.71883" lon="-0.26242">
        <ele>1371.9</ele>
        <time>2018-12-27T10:00:54Z</time>
      </trkpt>
      <trkpt lat="42.71879" lon="-0.26233">
        <ele>1375.4</ele>
        <time>2018-12-27T10:00:56Z</time>
      </trkpt>
      <trkpt lat="42.71879" lon="-0.26226">
        <ele>1377.3</ele>
        <time>2018-12-27T10:00:57Z</time>
      </trkpt>
      <trkpt lat="42.71879" lon="-0.26225">
        <ele>1377.5</ele>
        <time>2018-12-27T10:00:57Z</time>
      </trkpt>
      <trkpt lat="42.71875" lon="-0.26216">
        <ele>1380.8</ele>
        <time>2018-12-27T10:00:59Z</time>
      </trkpt>
      <trkpt lat="42.71874" lon="-0.26215">
        <ele>1381.7</ele>
        <time>2018-12-27T10:01:00Z</time>
      </trkpt>
      <trkpt lat="42.71873" lon="-0.26215">
        <ele>1382.4</ele>
        <time>2018-12-27T10:01:00Z</time>
      </trkpt>
      <trkpt lat="42.7187" lon="-0.26211">
        <ele>1384.8</ele>
        <time>2018-12-27T10:01:01Z</time>
      </trkpt>
      <trkpt lat="42.71868" lon="-0.26205">
        <ele>1386.7</ele>
        <time>2018-12-27T10:01:02Z</time>
      </trkpt>
      <trkpt lat="42.71864" lon="-0.262">
        <ele>1389</ele>
        <time>2018-12-27T10:01:04Z</time>
      </trkpt>
      <trkpt lat="42.71862" lon="-0.26193">
        <ele>1390.5</ele>
        <time>2018-12-27T10:01:05Z</time>
      </trkpt>
      <trkpt lat="42.7186" lon="-0.26189">
        <ele>1391.8</ele>
        <time>2018-12-27T10:01:06Z</time>
      </trkpt>
      <trkpt lat="42.71858" lon="-0.26186">
        <ele>1392.7</ele>
        <time>2018-12-27T10:01:07Z</time>
      </trkpt>
      <trkpt lat="42.71854" lon="-0.26178">
        <ele>1395.6</ele>
        <time>2018-12-27T10:01:09Z</time>
      </trkpt>
      <trkpt lat="42.71851" lon="-0.26172">
        <ele>1397.6</ele>
        <time>2018-12-27T10:01:10Z</time>
      </trkpt>
      <trkpt lat="42.71848" lon="-0.26165">
        <ele>1399.4</ele>
        <time>2018-12-27T10:01:12Z</time>
      </trkpt>
      <trkpt lat="42.71845" lon="-0.26155">
        <ele>1401.5</ele>
        <time>2018-12-27T10:01:14Z</time>
      </trkpt>
      <trkpt lat="42.71844" lon="-0.26152">
        <ele>1402.4</ele>
        <time>2018-12-27T10:01:15Z</time>
      </trkpt>
      <trkpt lat="42.71843" lon="-0.26145">
        <ele>1403.7</ele>
        <time>2018-12-27T10:01:16Z</time>
      </trkpt>
      <trkpt lat="42.71843" lon="-0.26135">
        <ele>1404.8</ele>
        <time>2018-12-27T10:01:18Z</time>
      </trkpt>
      <trkpt lat="42.71844" lon="-0.26132">
        <ele>1404.8</ele>
        <time>2018-12-27T10:01:19Z</time>
      </trkpt>
      <trkpt lat="42.71845" lon="-0.26124">
        <ele>1404.8</ele>
        <time>2018-12-27T10:01:20Z</time>
      </trkpt>
      <trkpt lat="42.71847" lon="-0.26122">
        <ele>1404.5</ele>
        <time>2018-12-27T10:01:21Z</time>
      </trkpt>
      <trkpt lat="42.71855" lon="-0.26112">
        <ele>1402.8</ele>
        <time>2018-12-27T10:01:24Z</time>
      </trkpt>
      <trkpt lat="42.71858" lon="-0.26102">
        <ele>1403</ele>
        <time>2018-12-27T10:01:26Z</time>
      </trkpt>
      <trkpt lat="42.71859" lon="-0.26093">
        <ele>1404</ele>
        <time>2018-12-27T10:01:28Z</time>
      </trkpt>
      <trkpt lat="42.71861" lon="-0.26085">
        <ele>1404.5</ele>
        <time>2018-12-27T10:01:29Z</time>
      </trkpt>
      <trkpt lat="42.7186" lon="-0.26078">
        <ele>1405.6</ele>
        <time>2018-12-27T10:01:31Z</time>
      </trkpt>
      <trkpt lat="42.71861" lon="-0.26072">
        <ele>1406</ele>
        <time>2018-12-27T10:01:32Z</time>
      </trkpt>
      <trkpt lat="42.71863" lon="-0.26068">
        <ele>1405.9</ele>
        <time>2018-12-27T10:01:33Z</time>
      </trkpt>
      <trkpt lat="42.71863" lon="-0.26068">
        <ele>1406</ele>
        <time>2018-12-27T10:01:33Z</time>
      </trkpt>
      <trkpt lat="42.71864" lon="-0.2606">
        <ele>1406.6</ele>
        <time>2018-12-27T10:01:34Z</time>
      </trkpt>
      <trkpt lat="42.71867" lon="-0.26053">
        <ele>1406.6</ele>
        <time>2018-12-27T10:01:36Z</time>
      </trkpt>
      <trkpt lat="42.71869" lon="-0.26047">
        <ele>1407.1</ele>
        <time>2018-12-27T10:01:37Z</time>
      </trkpt>
      <trkpt lat="42.71869" lon="-0.26043">
        <ele>1407.5</ele>
        <time>2018-12-27T10:01:38Z</time>
      </trkpt>
      <trkpt lat="42.7187" lon="-0.26041">
        <ele>1407.7</ele>
        <time>2018-12-27T10:01:39Z</time>
      </trkpt>
      <trkpt lat="42.71871" lon="-0.26033">
        <ele>1408.8</ele>
        <time>2018-12-27T10:01:40Z</time>
      </trkpt>
      <trkpt lat="42.71872" lon="-0.26019">
        <ele>1410.8</ele>
        <time>2018-12-27T10:01:43Z</time>
      </trkpt>
      <trkpt lat="42.71871" lon="-0.26012">
        <ele>1412.3</ele>
        <time>2018-12-27T10:01:44Z</time>
      </trkpt>
      <trkpt lat="42.71871" lon="-0.26009">
        <ele>1412.6</ele>
        <time>2018-12-27T10:01:45Z</time>
      </trkpt>
      <trkpt lat="42.71874" lon="-0.26">
        <ele>1413.5</ele>
        <time>2018-12-27T10:01:47Z</time>
      </trkpt>
      <trkpt lat="42.71876" lon="-0.25997">
        <ele>1413.4</ele>
        <time>2018-12-27T10:01:48Z</time>
      </trkpt>
      <trkpt lat="42.7188" lon="-0.25986">
        <ele>1414.8</ele>
        <time>2018-12-27T10:01:50Z</time>
      </trkpt>
      <trkpt lat="42.71881" lon="-0.25972">
        <ele>1417</ele>
        <time>2018-12-27T10:01:53Z</time>
      </trkpt>
      <trkpt lat="42.71879" lon="-0.25961">
        <ele>1419.2</ele>
        <time>2018-12-27T10:01:55Z</time>
      </trkpt>
      <trkpt lat="42.71878" lon="-0.25955">
        <ele>1420.1</ele>
        <time>2018-12-27T10:01:56Z</time>
      </trkpt>
      <trkpt lat="42.71878" lon="-0.25945">
        <ele>1421.2</ele>
        <time>2018-12-27T10:01:58Z</time>
      </trkpt>
      <trkpt lat="42.71882" lon="-0.25929">
        <ele>1422.5</ele>
        <time>2018-12-27T10:02:01Z</time>
      </trkpt>
      <trkpt lat="42.7189" lon="-0.2592">
        <ele>1422.6</ele>
        <time>2018-12-27T10:02:04Z</time>
      </trkpt>
      <trkpt lat="42.719" lon="-0.25913">
        <ele>1422.4</ele>
        <time>2018-12-27T10:02:07Z</time>
      </trkpt>
      <trkpt lat="42.71904" lon="-0.25908">
        <ele>1422.4</ele>
        <time>2018-12-27T10:02:09Z</time>
      </trkpt>
      <trkpt lat="42.71904" lon="-0.25907">
        <ele>1422.4</ele>
        <time>2018-12-27T10:02:09Z</time>
      </trkpt>
      <trkpt lat="42.71907" lon="-0.25908">
        <ele>1421.9</ele>
        <time>2018-12-27T10:02:10Z</time>
      </trkpt>
      <trkpt lat="42.71909" lon="-0.25907">
        <ele>1421.8</ele>
        <time>2018-12-27T10:02:10Z</time>
      </trkpt>
      <trkpt lat="42.71912" lon="-0.25901">
        <ele>1422.1</ele>
        <time>2018-12-27T10:02:12Z</time>
      </trkpt>
      <trkpt lat="42.71914" lon="-0.25898">
        <ele>1422.3</ele>
        <time>2018-12-27T10:02:12Z</time>
      </trkpt>
      <trkpt lat="42.71916" lon="-0.25894">
        <ele>1422.7</ele>
        <time>2018-12-27T10:02:13Z</time>
      </trkpt>
      <trkpt lat="42.71918" lon="-0.25889">
        <ele>1423</ele>
        <time>2018-12-27T10:02:15Z</time>
      </trkpt>
      <trkpt lat="42.7192" lon="-0.25882">
        <ele>1423.9</ele>
        <time>2018-12-27T10:02:16Z</time>
      </trkpt>
      <trkpt lat="42.71919" lon="-0.2588">
        <ele>1424</ele>
        <time>2018-12-27T10:02:16Z</time>
      </trkpt>
      <trkpt lat="42.71918" lon="-0.25878">
        <ele>1424.5</ele>
        <time>2018-12-27T10:02:17Z</time>
      </trkpt>
      <trkpt lat="42.71916" lon="-0.25872">
        <ele>1425.5</ele>
        <time>2018-12-27T10:02:18Z</time>
      </trkpt>
      <trkpt lat="42.71916" lon="-0.25859">
        <ele>1427</ele>
        <time>2018-12-27T10:02:21Z</time>
      </trkpt>
      <trkpt lat="42.71915" lon="-0.25846">
        <ele>1428.6</ele>
        <time>2018-12-27T10:02:23Z</time>
      </trkpt>
      <trkpt lat="42.71913" lon="-0.25834">
        <ele>1430.1</ele>
        <time>2018-12-27T10:02:26Z</time>
      </trkpt>
      <trkpt lat="42.71914" lon="-0.25822">
        <ele>1431.3</ele>
        <time>2018-12-27T10:02:28Z</time>
      </trkpt>
      <trkpt lat="42.71915" lon="-0.2582">
        <ele>1431.5</ele>
        <time>2018-12-27T10:02:28Z</time>
      </trkpt>
      <trkpt lat="42.71916" lon="-0.25818">
        <ele>1431.6</ele>
        <time>2018-12-27T10:02:29Z</time>
      </trkpt>
      <trkpt lat="42.71917" lon="-0.25812">
        <ele>1432.2</ele>
        <time>2018-12-27T10:02:30Z</time>
      </trkpt>
      <trkpt lat="42.71917" lon="-0.2581">
        <ele>1432.5</ele>
        <time>2018-12-27T10:02:31Z</time>
      </trkpt>
      <trkpt lat="42.71918" lon="-0.25795">
        <ele>1434</ele>
        <time>2018-12-27T10:02:34Z</time>
      </trkpt>
      <trkpt lat="42.71921" lon="-0.25773">
        <ele>1435.5</ele>
        <time>2018-12-27T10:02:38Z</time>
      </trkpt>
      <trkpt lat="42.71921" lon="-0.25755">
        <ele>1436.8</ele>
        <time>2018-12-27T10:02:42Z</time>
      </trkpt>
      <trkpt lat="42.71919" lon="-0.25741">
        <ele>1438.3</ele>
        <time>2018-12-27T10:02:44Z</time>
      </trkpt>
      <trkpt lat="42.71913" lon="-0.25718">
        <ele>1440.9</ele>
        <time>2018-12-27T10:02:49Z</time>
      </trkpt>
      <trkpt lat="42.7191" lon="-0.25698">
        <ele>1442.8</ele>
        <time>2018-12-27T10:02:53Z</time>
      </trkpt>
      <trkpt lat="42.71912" lon="-0.25675">
        <ele>1444</ele>
        <time>2018-12-27T10:02:58Z</time>
      </trkpt>
      <trkpt lat="42.71916" lon="-0.25652">
        <ele>1444.5</ele>
        <time>2018-12-27T10:03:02Z</time>
      </trkpt>
      <trkpt lat="42.71927" lon="-0.25636">
        <ele>1443.4</ele>
        <time>2018-12-27T10:03:06Z</time>
      </trkpt>
      <trkpt lat="42.71931" lon="-0.25618">
        <ele>1443.5</ele>
        <time>2018-12-27T10:03:10Z</time>
      </trkpt>
      <trkpt lat="42.71933" lon="-0.25596">
        <ele>1444.2</ele>
        <time>2018-12-27T10:03:14Z</time>
      </trkpt>
      <trkpt lat="42.71933" lon="-0.25575">
        <ele>1445.1</ele>
        <time>2018-12-27T10:03:19Z</time>
      </trkpt>
      <trkpt lat="42.7193" lon="-0.25559">
        <ele>1446.2</ele>
        <time>2018-12-27T10:03:22Z</time>
      </trkpt>
      <trkpt lat="42.71926" lon="-0.25539">
        <ele>1447.5</ele>
        <time>2018-12-27T10:03:26Z</time>
      </trkpt>
      <trkpt lat="42.71919" lon="-0.25525">
        <ele>1448.6</ele>
        <time>2018-12-27T10:03:29Z</time>
      </trkpt>
      <trkpt lat="42.71915" lon="-0.25512">
        <ele>1449.4</ele>
        <time>2018-12-27T10:03:32Z</time>
      </trkpt>
      <trkpt lat="42.71906" lon="-0.25497">
        <ele>1450.5</ele>
        <time>2018-12-27T10:03:36Z</time>
      </trkpt>
      <trkpt lat="42.71898" lon="-0.2548">
        <ele>1451.6</ele>
        <time>2018-12-27T10:03:40Z</time>
      </trkpt>
      <trkpt lat="42.71888" lon="-0.25464">
        <ele>1452.6</ele>
        <time>2018-12-27T10:03:44Z</time>
      </trkpt>
      <trkpt lat="42.71878" lon="-0.25446">
        <ele>1453</ele>
        <time>2018-12-27T10:03:48Z</time>
      </trkpt>
      <trkpt lat="42.71872" lon="-0.25436">
        <ele>1453.3</ele>
        <time>2018-12-27T10:03:51Z</time>
      </trkpt>
      <trkpt lat="42.71865" lon="-0.2542">
        <ele>1453.7</ele>
        <time>2018-12-27T10:03:54Z</time>
      </trkpt>
      <trkpt lat="42.71861" lon="-0.25407">
        <ele>1453.8</ele>
        <time>2018-12-27T10:03:57Z</time>
      </trkpt>
      <trkpt lat="42.71855" lon="-0.25387">
        <ele>1454</ele>
        <time>2018-12-27T10:04:01Z</time>
      </trkpt>
      <trkpt lat="42.7185" lon="-0.2537">
        <ele>1454.5</ele>
        <time>2018-12-27T10:04:05Z</time>
      </trkpt>
      <trkpt lat="42.71841" lon="-0.25361">
        <ele>1456.1</ele>
        <time>2018-12-27T10:04:08Z</time>
      </trkpt>
      <trkpt lat="42.71832" lon="-0.25353">
        <ele>1458.1</ele>
        <time>2018-12-27T10:04:11Z</time>
      </trkpt>
      <trkpt lat="42.71819" lon="-0.25354">
        <ele>1461.1</ele>
        <time>2018-12-27T10:04:14Z</time>
      </trkpt>
      <trkpt lat="42.71815" lon="-0.2535">
        <ele>1462</ele>
        <time>2018-12-27T10:04:16Z</time>
      </trkpt>
      <trkpt lat="42.71815" lon="-0.25347">
        <ele>1461.9</ele>
        <time>2018-12-27T10:04:16Z</time>
      </trkpt>
      <trkpt lat="42.71812" lon="-0.25344">
        <ele>1462.4</ele>
        <time>2018-12-27T10:04:17Z</time>
      </trkpt>
      <trkpt lat="42.71812" lon="-0.25341">
        <ele>1462.6</ele>
        <time>2018-12-27T10:04:18Z</time>
      </trkpt>
      <trkpt lat="42.71813" lon="-0.25326">
        <ele>1462.1</ele>
        <time>2018-12-27T10:04:21Z</time>
      </trkpt>
      <trkpt lat="42.71814" lon="-0.25322">
        <ele>1461.9</ele>
        <time>2018-12-27T10:04:21Z</time>
      </trkpt>
      <trkpt lat="42.71821" lon="-0.25305">
        <ele>1460</ele>
        <time>2018-12-27T10:04:25Z</time>
      </trkpt>
      <trkpt lat="42.71834" lon="-0.25285">
        <ele>1457</ele>
        <time>2018-12-27T10:04:30Z</time>
      </trkpt>
      <trkpt lat="42.71836" lon="-0.25283">
        <ele>1456.5</ele>
        <time>2018-12-27T10:04:31Z</time>
      </trkpt>
      <trkpt lat="42.71846" lon="-0.25269">
        <ele>1454.2</ele>
        <time>2018-12-27T10:04:35Z</time>
      </trkpt>
      <trkpt lat="42.71845" lon="-0.25259">
        <ele>1454.3</ele>
        <time>2018-12-27T10:04:37Z</time>
      </trkpt>
      <trkpt lat="42.71845" lon="-0.25255">
        <ele>1454.6</ele>
        <time>2018-12-27T10:04:38Z</time>
      </trkpt>
      <trkpt lat="42.7185" lon="-0.25242">
        <ele>1453.3</ele>
        <time>2018-12-27T10:04:41Z</time>
      </trkpt>
      <trkpt lat="42.71859" lon="-0.25232">
        <ele>1450.4</ele>
        <time>2018-12-27T10:04:44Z</time>
      </trkpt>
      <trkpt lat="42.71864" lon="-0.25222">
        <ele>1448.9</ele>
        <time>2018-12-27T10:04:46Z</time>
      </trkpt>
      <trkpt lat="42.71865" lon="-0.25214">
        <ele>1448.4</ele>
        <time>2018-12-27T10:04:48Z</time>
      </trkpt>
      <trkpt lat="42.7187" lon="-0.25188">
        <ele>1447.1</ele>
        <time>2018-12-27T10:04:53Z</time>
      </trkpt>
      <trkpt lat="42.71871" lon="-0.25185">
        <ele>1447.1</ele>
        <time>2018-12-27T10:04:54Z</time>
      </trkpt>
      <trkpt lat="42.71873" lon="-0.25169">
        <ele>1447</ele>
        <time>2018-12-27T10:04:57Z</time>
      </trkpt>
      <trkpt lat="42.71875" lon="-0.25145">
        <ele>1446.6</ele>
        <time>2018-12-27T10:05:02Z</time>
      </trkpt>
      <trkpt lat="42.71876" lon="-0.25141">
        <ele>1446.5</ele>
        <time>2018-12-27T10:05:02Z</time>
      </trkpt>
      <trkpt lat="42.71878" lon="-0.25118">
        <ele>1447</ele>
        <time>2018-12-27T10:05:07Z</time>
      </trkpt>
      <trkpt lat="42.71885" lon="-0.25097">
        <ele>1447.4</ele>
        <time>2018-12-27T10:05:11Z</time>
      </trkpt>
      <trkpt lat="42.71889" lon="-0.25077">
        <ele>1448.3</ele>
        <time>2018-12-27T10:05:15Z</time>
      </trkpt>
      <trkpt lat="42.71887" lon="-0.25056">
        <ele>1450.4</ele>
        <time>2018-12-27T10:05:19Z</time>
      </trkpt>
      <trkpt lat="42.71885" lon="-0.25035">
        <ele>1452.3</ele>
        <time>2018-12-27T10:05:24Z</time>
      </trkpt>
      <trkpt lat="42.71888" lon="-0.25016">
        <ele>1452.3</ele>
        <time>2018-12-27T10:05:28Z</time>
      </trkpt>
      <trkpt lat="42.7189" lon="-0.25012">
        <ele>1451.9</ele>
        <time>2018-12-27T10:05:28Z</time>
      </trkpt>
      <trkpt lat="42.7189" lon="-0.25008">
        <ele>1452</ele>
        <time>2018-12-27T10:05:29Z</time>
      </trkpt>
      <trkpt lat="42.71891" lon="-0.25007">
        <ele>1451.8</ele>
        <time>2018-12-27T10:05:30Z</time>
      </trkpt>
      <trkpt lat="42.71902" lon="-0.25">
        <ele>1449.1</ele>
        <time>2018-12-27T10:05:33Z</time>
      </trkpt>
      <trkpt lat="42.7191" lon="-0.24996">
        <ele>1446.9</ele>
        <time>2018-12-27T10:05:35Z</time>
      </trkpt>
      <trkpt lat="42.71916" lon="-0.24996">
        <ele>1445.4</ele>
        <time>2018-12-27T10:05:37Z</time>
      </trkpt>
      <trkpt lat="42.71925" lon="-0.25004">
        <ele>1442.4</ele>
        <time>2018-12-27T10:05:40Z</time>
      </trkpt>
      <trkpt lat="42.71931" lon="-0.2502">
        <ele>1439.9</ele>
        <time>2018-12-27T10:05:43Z</time>
      </trkpt>
      <trkpt lat="42.71935" lon="-0.25022">
        <ele>1438.9</ele>
        <time>2018-12-27T10:05:44Z</time>
      </trkpt>
      <trkpt lat="42.71941" lon="-0.25019">
        <ele>1437.2</ele>
        <time>2018-12-27T10:05:46Z</time>
      </trkpt>
      <trkpt lat="42.71946" lon="-0.25003">
        <ele>1436.9</ele>
        <time>2018-12-27T10:05:49Z</time>
      </trkpt>
      <trkpt lat="42.71954" lon="-0.24978">
        <ele>1436</ele>
        <time>2018-12-27T10:05:55Z</time>
      </trkpt>
      <trkpt lat="42.71964" lon="-0.24961">
        <ele>1434.8</ele>
        <time>2018-12-27T10:05:59Z</time>
      </trkpt>
      <trkpt lat="42.71975" lon="-0.24943">
        <ele>1434.7</ele>
        <time>2018-12-27T10:06:03Z</time>
      </trkpt>
      <trkpt lat="42.71987" lon="-0.24931">
        <ele>1433.9</ele>
        <time>2018-12-27T10:06:08Z</time>
      </trkpt>
      <trkpt lat="42.71999" lon="-0.24909">
        <ele>1434.3</ele>
        <time>2018-12-27T10:06:13Z</time>
      </trkpt>
      <trkpt lat="42.72006" lon="-0.24891">
        <ele>1435.2</ele>
        <time>2018-12-27T10:06:17Z</time>
      </trkpt>
      <trkpt lat="42.72005" lon="-0.24864">
        <ele>1438</ele>
        <time>2018-12-27T10:06:22Z</time>
      </trkpt>
      <trkpt lat="42.72007" lon="-0.24845">
        <ele>1439</ele>
        <time>2018-12-27T10:06:26Z</time>
      </trkpt>
      <trkpt lat="42.7201" lon="-0.24832">
        <ele>1439.3</ele>
        <time>2018-12-27T10:06:29Z</time>
      </trkpt>
      <trkpt lat="42.72012" lon="-0.24815">
        <ele>1440.1</ele>
        <time>2018-12-27T10:06:32Z</time>
      </trkpt>
      <trkpt lat="42.72014" lon="-0.24788">
        <ele>1441.7</ele>
        <time>2018-12-27T10:06:37Z</time>
      </trkpt>
      <trkpt lat="42.72011" lon="-0.24768">
        <ele>1444.7</ele>
        <time>2018-12-27T10:06:41Z</time>
      </trkpt>
      <trkpt lat="42.72007" lon="-0.24752">
        <ele>1447.9</ele>
        <time>2018-12-27T10:06:45Z</time>
      </trkpt>
      <trkpt lat="42.72004" lon="-0.24737">
        <ele>1451</ele>
        <time>2018-12-27T10:06:48Z</time>
      </trkpt>
      <trkpt lat="42.72002" lon="-0.24719">
        <ele>1454</ele>
        <time>2018-12-27T10:06:51Z</time>
      </trkpt>
      <trkpt lat="42.72002" lon="-0.24705">
        <ele>1455.6</ele>
        <time>2018-12-27T10:06:54Z</time>
      </trkpt>
      <trkpt lat="42.72001" lon="-0.24689">
        <ele>1456.7</ele>
        <time>2018-12-27T10:06:57Z</time>
      </trkpt>
      <trkpt lat="42.71999" lon="-0.24671">
        <ele>1458.9</ele>
        <time>2018-12-27T10:07:01Z</time>
      </trkpt>
      <trkpt lat="42.71997" lon="-0.24653">
        <ele>1460.4</ele>
        <time>2018-12-27T10:07:04Z</time>
      </trkpt>
      <trkpt lat="42.71992" lon="-0.24637">
        <ele>1464.4</ele>
        <time>2018-12-27T10:07:08Z</time>
      </trkpt>
      <trkpt lat="42.71987" lon="-0.24624">
        <ele>1467.9</ele>
        <time>2018-12-27T10:07:10Z</time>
      </trkpt>
      <trkpt lat="42.71983" lon="-0.246">
        <ele>1470.9</ele>
        <time>2018-12-27T10:07:15Z</time>
      </trkpt>
      <trkpt lat="42.71978" lon="-0.24586">
        <ele>1473.7</ele>
        <time>2018-12-27T10:07:18Z</time>
      </trkpt>
      <trkpt lat="42.71975" lon="-0.2457">
        <ele>1475.8</ele>
        <time>2018-12-27T10:07:22Z</time>
      </trkpt>
      <trkpt lat="42.71974" lon="-0.24559">
        <ele>1476.3</ele>
        <time>2018-12-27T10:07:24Z</time>
      </trkpt>
      <trkpt lat="42.7197" lon="-0.24541">
        <ele>1478.2</ele>
        <time>2018-12-27T10:07:27Z</time>
      </trkpt>
      <trkpt lat="42.71971" lon="-0.24525">
        <ele>1477.3</ele>
        <time>2018-12-27T10:07:31Z</time>
      </trkpt>
      <trkpt lat="42.71977" lon="-0.24509">
        <ele>1473</ele>
        <time>2018-12-27T10:07:34Z</time>
      </trkpt>
      <trkpt lat="42.71984" lon="-0.24494">
        <ele>1468.5</ele>
        <time>2018-12-27T10:07:38Z</time>
      </trkpt>
      <trkpt lat="42.71993" lon="-0.24482">
        <ele>1463.5</ele>
        <time>2018-12-27T10:07:41Z</time>
      </trkpt>
      <trkpt lat="42.72" lon="-0.24466">
        <ele>1459.6</ele>
        <time>2018-12-27T10:07:45Z</time>
      </trkpt>
      <trkpt lat="42.72007" lon="-0.24451">
        <ele>1456.3</ele>
        <time>2018-12-27T10:07:48Z</time>
      </trkpt>
      <trkpt lat="42.72012" lon="-0.24429">
        <ele>1453.7</ele>
        <time>2018-12-27T10:07:53Z</time>
      </trkpt>
      <trkpt lat="42.72014" lon="-0.24411">
        <ele>1453.2</ele>
        <time>2018-12-27T10:07:56Z</time>
      </trkpt>
      <trkpt lat="42.72011" lon="-0.24399">
        <ele>1455</ele>
        <time>2018-12-27T10:07:59Z</time>
      </trkpt>
      <trkpt lat="42.7201" lon="-0.24384">
        <ele>1455.4</ele>
        <time>2018-12-27T10:08:02Z</time>
      </trkpt>
      <trkpt lat="42.72013" lon="-0.24366">
        <ele>1454.5</ele>
        <time>2018-12-27T10:08:05Z</time>
      </trkpt>
      <trkpt lat="42.7201" lon="-0.24351">
        <ele>1456.4</ele>
        <time>2018-12-27T10:08:08Z</time>
      </trkpt>
      <trkpt lat="42.72" lon="-0.24341">
        <ele>1460.9</ele>
        <time>2018-12-27T10:08:12Z</time>
      </trkpt>
      <trkpt lat="42.71996" lon="-0.24337">
        <ele>1462.7</ele>
        <time>2018-12-27T10:08:13Z</time>
      </trkpt>
      <trkpt lat="42.71997" lon="-0.2433">
        <ele>1462.5</ele>
        <time>2018-12-27T10:08:15Z</time>
      </trkpt>
      <trkpt lat="42.7199" lon="-0.2432">
        <ele>1465.9</ele>
        <time>2018-12-27T10:08:17Z</time>
      </trkpt>
      <trkpt lat="42.71985" lon="-0.24308">
        <ele>1468.2</ele>
        <time>2018-12-27T10:08:20Z</time>
      </trkpt>
      <trkpt lat="42.71978" lon="-0.243">
        <ele>1471.6</ele>
        <time>2018-12-27T10:08:22Z</time>
      </trkpt>
      <trkpt lat="42.71973" lon="-0.24288">
        <ele>1473.7</ele>
        <time>2018-12-27T10:08:25Z</time>
      </trkpt>
      <trkpt lat="42.71966" lon="-0.24277">
        <ele>1476.4</ele>
        <time>2018-12-27T10:08:28Z</time>
      </trkpt>
      <trkpt lat="42.71965" lon="-0.24262">
        <ele>1476.3</ele>
        <time>2018-12-27T10:08:31Z</time>
      </trkpt>
      <trkpt lat="42.71967" lon="-0.24252">
        <ele>1475.2</ele>
        <time>2018-12-27T10:08:33Z</time>
      </trkpt>
      <trkpt lat="42.71963" lon="-0.24249">
        <ele>1476.7</ele>
        <time>2018-12-27T10:08:34Z</time>
      </trkpt>
      <trkpt lat="42.71962" lon="-0.24244">
        <ele>1477.2</ele>
        <time>2018-12-27T10:08:35Z</time>
      </trkpt>
      <trkpt lat="42.71953" lon="-0.24231">
        <ele>1481.2</ele>
        <time>2018-12-27T10:08:39Z</time>
      </trkpt>
      <trkpt lat="42.71939" lon="-0.24216">
        <ele>1490.5</ele>
        <time>2018-12-27T10:08:44Z</time>
      </trkpt>
      <trkpt lat="42.71937" lon="-0.24214">
        <ele>1491.9</ele>
        <time>2018-12-27T10:08:44Z</time>
      </trkpt>
      <trkpt lat="42.71932" lon="-0.24203">
        <ele>1494</ele>
        <time>2018-12-27T10:08:47Z</time>
      </trkpt>
      <trkpt lat="42.7193" lon="-0.24191">
        <ele>1493.1</ele>
        <time>2018-12-27T10:08:49Z</time>
      </trkpt>
      <trkpt lat="42.71933" lon="-0.24187">
        <ele>1490.5</ele>
        <time>2018-12-27T10:08:50Z</time>
      </trkpt>
      <trkpt lat="42.71937" lon="-0.24178">
        <ele>1485.8</ele>
        <time>2018-12-27T10:08:52Z</time>
      </trkpt>
      <trkpt lat="42.71939" lon="-0.24176">
        <ele>1484.5</ele>
        <time>2018-12-27T10:08:53Z</time>
      </trkpt>
      <trkpt lat="42.71937" lon="-0.24172">
        <ele>1484.9</ele>
        <time>2018-12-27T10:08:54Z</time>
      </trkpt>
      <trkpt lat="42.71933" lon="-0.24171">
        <ele>1487.8</ele>
        <time>2018-12-27T10:08:55Z</time>
      </trkpt>
      <trkpt lat="42.71927" lon="-0.24167">
        <ele>1490.4</ele>
        <time>2018-12-27T10:08:57Z</time>
      </trkpt>
      <trkpt lat="42.71925" lon="-0.24162">
        <ele>1491.4</ele>
        <time>2018-12-27T10:08:58Z</time>
      </trkpt>
      <trkpt lat="42.71923" lon="-0.24162">
        <ele>1492.7</ele>
        <time>2018-12-27T10:08:58Z</time>
      </trkpt>
      <trkpt lat="42.71913" lon="-0.24158">
        <ele>1498</ele>
        <time>2018-12-27T10:09:01Z</time>
      </trkpt>
      <trkpt lat="42.71912" lon="-0.24157">
        <ele>1498.7</ele>
        <time>2018-12-27T10:09:01Z</time>
      </trkpt>
      <trkpt lat="42.71911" lon="-0.24154">
        <ele>1498.9</ele>
        <time>2018-12-27T10:09:02Z</time>
      </trkpt>
      <trkpt lat="42.71906" lon="-0.24146">
        <ele>1500.9</ele>
        <time>2018-12-27T10:09:04Z</time>
      </trkpt>
      <trkpt lat="42.719" lon="-0.24143">
        <ele>1504.1</ele>
        <time>2018-12-27T10:09:06Z</time>
      </trkpt>
      <trkpt lat="42.719" lon="-0.24142">
        <ele>1503.8</ele>
        <time>2018-12-27T10:09:06Z</time>
      </trkpt>
      <trkpt lat="42.71896" lon="-0.24138">
        <ele>1505.5</ele>
        <time>2018-12-27T10:09:07Z</time>
      </trkpt>
      <trkpt lat="42.71897" lon="-0.2413">
        <ele>1503.5</ele>
        <time>2018-12-27T10:09:09Z</time>
      </trkpt>
      <trkpt lat="42.71894" lon="-0.24118">
        <ele>1503.2</ele>
        <time>2018-12-27T10:09:11Z</time>
      </trkpt>
      <trkpt lat="42.7189" lon="-0.24116">
        <ele>1505.5</ele>
        <time>2018-12-27T10:09:12Z</time>
      </trkpt>
      <trkpt lat="42.71887" lon="-0.24109">
        <ele>1505.7</ele>
        <time>2018-12-27T10:09:14Z</time>
      </trkpt>
      <trkpt lat="42.71883" lon="-0.24106">
        <ele>1508.1</ele>
        <time>2018-12-27T10:09:15Z</time>
      </trkpt>
      <trkpt lat="42.7188" lon="-0.24102">
        <ele>1508.8</ele>
        <time>2018-12-27T10:09:16Z</time>
      </trkpt>
      <trkpt lat="42.71878" lon="-0.24094">
        <ele>1508.7</ele>
        <time>2018-12-27T10:09:18Z</time>
      </trkpt>
      <trkpt lat="42.71878" lon="-0.24092">
        <ele>1508.3</ele>
        <time>2018-12-27T10:09:18Z</time>
      </trkpt>
      <trkpt lat="42.71875" lon="-0.24086">
        <ele>1508.7</ele>
        <time>2018-12-27T10:09:20Z</time>
      </trkpt>
      <trkpt lat="42.7187" lon="-0.24083">
        <ele>1511.6</ele>
        <time>2018-12-27T10:09:21Z</time>
      </trkpt>
      <trkpt lat="42.71864" lon="-0.24076">
        <ele>1514.1</ele>
        <time>2018-12-27T10:09:23Z</time>
      </trkpt>
      <trkpt lat="42.71858" lon="-0.24061">
        <ele>1515.1</ele>
        <time>2018-12-27T10:09:27Z</time>
      </trkpt>
      <trkpt lat="42.71856" lon="-0.24059">
        <ele>1516</ele>
        <time>2018-12-27T10:09:27Z</time>
      </trkpt>
      <trkpt lat="42.71853" lon="-0.24056">
        <ele>1517.4</ele>
        <time>2018-12-27T10:09:28Z</time>
      </trkpt>
      <trkpt lat="42.7185" lon="-0.24049">
        <ele>1518.2</ele>
        <time>2018-12-27T10:09:30Z</time>
      </trkpt>
      <trkpt lat="42.71849" lon="-0.24047">
        <ele>1518.2</ele>
        <time>2018-12-27T10:09:31Z</time>
      </trkpt>
      <trkpt lat="42.71848" lon="-0.24045">
        <ele>1518.2</ele>
        <time>2018-12-27T10:09:31Z</time>
      </trkpt>
      <trkpt lat="42.71848" lon="-0.24043">
        <ele>1517.9</ele>
        <time>2018-12-27T10:09:31Z</time>
      </trkpt>
      <trkpt lat="42.71846" lon="-0.24038">
        <ele>1518.5</ele>
        <time>2018-12-27T10:09:32Z</time>
      </trkpt>
      <trkpt lat="42.71844" lon="-0.24033">
        <ele>1519.1</ele>
        <time>2018-12-27T10:09:34Z</time>
      </trkpt>
      <trkpt lat="42.71844" lon="-0.2403">
        <ele>1518.5</ele>
        <time>2018-12-27T10:09:34Z</time>
      </trkpt>
      <trkpt lat="42.71845" lon="-0.24028">
        <ele>1518.2</ele>
        <time>2018-12-27T10:09:34Z</time>
      </trkpt>
      <trkpt lat="42.71843" lon="-0.24022">
        <ele>1518</ele>
        <time>2018-12-27T10:09:36Z</time>
      </trkpt>
      <trkpt lat="42.71844" lon="-0.24019">
        <ele>1517.1</ele>
        <time>2018-12-27T10:09:36Z</time>
      </trkpt>
      <trkpt lat="42.71845" lon="-0.24017">
        <ele>1516.6</ele>
        <time>2018-12-27T10:09:37Z</time>
      </trkpt>
      <trkpt lat="42.71845" lon="-0.24016">
        <ele>1516.1</ele>
        <time>2018-12-27T10:09:37Z</time>
      </trkpt>
      <trkpt lat="42.71844" lon="-0.24011">
        <ele>1515.9</ele>
        <time>2018-12-27T10:09:38Z</time>
      </trkpt>
      <trkpt lat="42.71846" lon="-0.24007">
        <ele>1514</ele>
        <time>2018-12-27T10:09:39Z</time>
      </trkpt>
      <trkpt lat="42.71845" lon="-0.24001">
        <ele>1513.4</ele>
        <time>2018-12-27T10:09:40Z</time>
      </trkpt>
      <trkpt lat="42.71847" lon="-0.23997">
        <ele>1512.1</ele>
        <time>2018-12-27T10:09:41Z</time>
      </trkpt>
      <trkpt lat="42.71849" lon="-0.23994">
        <ele>1510.6</ele>
        <time>2018-12-27T10:09:42Z</time>
      </trkpt>
      <trkpt lat="42.7185" lon="-0.23987">
        <ele>1509.1</ele>
        <time>2018-12-27T10:09:43Z</time>
      </trkpt>
      <trkpt lat="42.71851" lon="-0.23985">
        <ele>1507.9</ele>
        <time>2018-12-27T10:09:44Z</time>
      </trkpt>
      <trkpt lat="42.71852" lon="-0.23982">
        <ele>1507</ele>
        <time>2018-12-27T10:09:44Z</time>
      </trkpt>
      <trkpt lat="42.71851" lon="-0.23976">
        <ele>1506.6</ele>
        <time>2018-12-27T10:09:46Z</time>
      </trkpt>
      <trkpt lat="42.71851" lon="-0.23973">
        <ele>1506.2</ele>
        <time>2018-12-27T10:09:46Z</time>
      </trkpt>
      <trkpt lat="42.71848" lon="-0.23963">
        <ele>1506.6</ele>
        <time>2018-12-27T10:09:48Z</time>
      </trkpt>
      <trkpt lat="42.71839" lon="-0.23951">
        <ele>1509.3</ele>
        <time>2018-12-27T10:09:52Z</time>
      </trkpt>
      <trkpt lat="42.7183" lon="-0.23936">
        <ele>1511.7</ele>
        <time>2018-12-27T10:09:55Z</time>
      </trkpt>
      <trkpt lat="42.71823" lon="-0.23922">
        <ele>1512.8</ele>
        <time>2018-12-27T10:09:59Z</time>
      </trkpt>
      <trkpt lat="42.71816" lon="-0.23914">
        <ele>1514.8</ele>
        <time>2018-12-27T10:10:01Z</time>
      </trkpt>
      <trkpt lat="42.71809" lon="-0.23904">
        <ele>1516.1</ele>
        <time>2018-12-27T10:10:04Z</time>
      </trkpt>
      <trkpt lat="42.71802" lon="-0.23894">
        <ele>1517.7</ele>
        <time>2018-12-27T10:10:06Z</time>
      </trkpt>
      <trkpt lat="42.71792" lon="-0.23886">
        <ele>1520.7</ele>
        <time>2018-12-27T10:10:09Z</time>
      </trkpt>
      <trkpt lat="42.71783" lon="-0.23883">
        <ele>1523.8</ele>
        <time>2018-12-27T10:10:12Z</time>
      </trkpt>
      <trkpt lat="42.71778" lon="-0.23879">
        <ele>1524.7</ele>
        <time>2018-12-27T10:10:14Z</time>
      </trkpt>
      <trkpt lat="42.71774" lon="-0.23875">
        <ele>1525.6</ele>
        <time>2018-12-27T10:10:15Z</time>
      </trkpt>
      <trkpt lat="42.7177" lon="-0.23875">
        <ele>1527.4</ele>
        <time>2018-12-27T10:10:16Z</time>
      </trkpt>
      <trkpt lat="42.71765" lon="-0.23869">
        <ele>1527.5</ele>
        <time>2018-12-27T10:10:18Z</time>
      </trkpt>
      <trkpt lat="42.71763" lon="-0.23866">
        <ele>1527.3</ele>
        <time>2018-12-27T10:10:19Z</time>
      </trkpt>
      <trkpt lat="42.7176" lon="-0.23853">
        <ele>1525.6</ele>
        <time>2018-12-27T10:10:21Z</time>
      </trkpt>
      <trkpt lat="42.71753" lon="-0.23845">
        <ele>1525.8</ele>
        <time>2018-12-27T10:10:24Z</time>
      </trkpt>
      <trkpt lat="42.71751" lon="-0.23843">
        <ele>1526.2</ele>
        <time>2018-12-27T10:10:24Z</time>
      </trkpt>
      <trkpt lat="42.71743" lon="-0.23836">
        <ele>1527.1</ele>
        <time>2018-12-27T10:10:27Z</time>
      </trkpt>
      <trkpt lat="42.7174" lon="-0.23832">
        <ele>1527.1</ele>
        <time>2018-12-27T10:10:28Z</time>
      </trkpt>
      <trkpt lat="42.71737" lon="-0.23827">
        <ele>1526.6</ele>
        <time>2018-12-27T10:10:29Z</time>
      </trkpt>
      <trkpt lat="42.71729" lon="-0.23822">
        <ele>1528</ele>
        <time>2018-12-27T10:10:32Z</time>
      </trkpt>
      <trkpt lat="42.71727" lon="-0.23822">
        <ele>1528.4</ele>
        <time>2018-12-27T10:10:32Z</time>
      </trkpt>
      <trkpt lat="42.71715" lon="-0.23817">
        <ele>1531.1</ele>
        <time>2018-12-27T10:10:35Z</time>
      </trkpt>
      <trkpt lat="42.71708" lon="-0.23809">
        <ele>1531.1</ele>
        <time>2018-12-27T10:10:38Z</time>
      </trkpt>
      <trkpt lat="42.71699" lon="-0.23798">
        <ele>1531.6</ele>
        <time>2018-12-27T10:10:41Z</time>
      </trkpt>
      <trkpt lat="42.71688" lon="-0.23792">
        <ele>1534.3</ele>
        <time>2018-12-27T10:10:44Z</time>
      </trkpt>
      <trkpt lat="42.71684" lon="-0.23787">
        <ele>1534.8</ele>
        <time>2018-12-27T10:10:46Z</time>
      </trkpt>
      <trkpt lat="42.71679" lon="-0.23778">
        <ele>1534.7</ele>
        <time>2018-12-27T10:10:48Z</time>
      </trkpt>
      <trkpt lat="42.71671" lon="-0.2376">
        <ele>1534.2</ele>
        <time>2018-12-27T10:10:52Z</time>
      </trkpt>
      <trkpt lat="42.71661" lon="-0.23754">
        <ele>1536.5</ele>
        <time>2018-12-27T10:10:55Z</time>
      </trkpt>
      <trkpt lat="42.71651" lon="-0.23743">
        <ele>1537.8</ele>
        <time>2018-12-27T10:10:58Z</time>
      </trkpt>
      <trkpt lat="42.71639" lon="-0.23728">
        <ele>1538.8</ele>
        <time>2018-12-27T10:11:03Z</time>
      </trkpt>
      <trkpt lat="42.71628" lon="-0.23714">
        <ele>1539.4</ele>
        <time>2018-12-27T10:11:07Z</time>
      </trkpt>
      <trkpt lat="42.7162" lon="-0.23701">
        <ele>1538.3</ele>
        <time>2018-12-27T10:11:10Z</time>
      </trkpt>
      <trkpt lat="42.71618" lon="-0.23682">
        <ele>1533.9</ele>
        <time>2018-12-27T10:11:14Z</time>
      </trkpt>
      <trkpt lat="42.71614" lon="-0.23665">
        <ele>1530.4</ele>
        <time>2018-12-27T10:11:17Z</time>
      </trkpt>
      <trkpt lat="42.71606" lon="-0.23645">
        <ele>1526.5</ele>
        <time>2018-12-27T10:11:22Z</time>
      </trkpt>
      <trkpt lat="42.71599" lon="-0.23631">
        <ele>1523.6</ele>
        <time>2018-12-27T10:11:25Z</time>
      </trkpt>
      <trkpt lat="42.7159" lon="-0.23624">
        <ele>1523.6</ele>
        <time>2018-12-27T10:11:28Z</time>
      </trkpt>
      <trkpt lat="42.71578" lon="-0.2361">
        <ele>1522</ele>
        <time>2018-12-27T10:11:32Z</time>
      </trkpt>
      <trkpt lat="42.71571" lon="-0.23592">
        <ele>1517.9</ele>
        <time>2018-12-27T10:11:36Z</time>
      </trkpt>
      <trkpt lat="42.71564" lon="-0.23587">
        <ele>1517.8</ele>
        <time>2018-12-27T10:11:38Z</time>
      </trkpt>
      <trkpt lat="42.71561" lon="-0.23586">
        <ele>1517.7</ele>
        <time>2018-12-27T10:11:39Z</time>
      </trkpt>
      <trkpt lat="42.71551" lon="-0.23583">
        <ele>1518.6</ele>
        <time>2018-12-27T10:11:42Z</time>
      </trkpt>
      <trkpt lat="42.71548" lon="-0.23584">
        <ele>1519.4</ele>
        <time>2018-12-27T10:11:43Z</time>
      </trkpt>
      <trkpt lat="42.71538" lon="-0.23584">
        <ele>1520.5</ele>
        <time>2018-12-27T10:11:45Z</time>
      </trkpt>
      <trkpt lat="42.71531" lon="-0.23572">
        <ele>1517.2</ele>
        <time>2018-12-27T10:11:48Z</time>
      </trkpt>
      <trkpt lat="42.71525" lon="-0.23564">
        <ele>1515.1</ele>
        <time>2018-12-27T10:11:51Z</time>
      </trkpt>
      <trkpt lat="42.7152" lon="-0.23562">
        <ele>1514.7</ele>
        <time>2018-12-27T10:11:52Z</time>
      </trkpt>
      <trkpt lat="42.71515" lon="-0.23561">
        <ele>1514.8</ele>
        <time>2018-12-27T10:11:54Z</time>
      </trkpt>
      <trkpt lat="42.71501" lon="-0.23554">
        <ele>1513.5</ele>
        <time>2018-12-27T10:11:58Z</time>
      </trkpt>
      <trkpt lat="42.71495" lon="-0.23547">
        <ele>1511.7</ele>
        <time>2018-12-27T10:12:00Z</time>
      </trkpt>
      <trkpt lat="42.71495" lon="-0.23544">
        <ele>1510.5</ele>
        <time>2018-12-27T10:12:00Z</time>
      </trkpt>
      <trkpt lat="42.71493" lon="-0.23535">
        <ele>1510.7</ele>
        <time>2018-12-27T10:12:02Z</time>
      </trkpt>
      <trkpt lat="42.71492" lon="-0.23533">
        <ele>1510.9</ele>
        <time>2018-12-27T10:12:03Z</time>
      </trkpt>
      <trkpt lat="42.7149" lon="-0.23534">
        <ele>1510.9</ele>
        <time>2018-12-27T10:12:03Z</time>
      </trkpt>
      <trkpt lat="42.71488" lon="-0.23534">
        <ele>1511</ele>
        <time>2018-12-27T10:12:04Z</time>
      </trkpt>
      <trkpt lat="42.71484" lon="-0.23536">
        <ele>1511</ele>
        <time>2018-12-27T10:12:05Z</time>
      </trkpt>
      <trkpt lat="42.71475" lon="-0.23536">
        <ele>1511.6</ele>
        <time>2018-12-27T10:12:07Z</time>
      </trkpt>
      <trkpt lat="42.71468" lon="-0.23541">
        <ele>1511.6</ele>
        <time>2018-12-27T10:12:09Z</time>
      </trkpt>
      <trkpt lat="42.71461" lon="-0.23549">
        <ele>1514.3</ele>
        <time>2018-12-27T10:12:12Z</time>
      </trkpt>
      <trkpt lat="42.71455" lon="-0.23554">
        <ele>1516.3</ele>
        <time>2018-12-27T10:12:14Z</time>
      </trkpt>
      <trkpt lat="42.71454" lon="-0.23555">
        <ele>1516.7</ele>
        <time>2018-12-27T10:12:14Z</time>
      </trkpt>
      <trkpt lat="42.71446" lon="-0.23557">
        <ele>1517.4</ele>
        <time>2018-12-27T10:12:16Z</time>
      </trkpt>
      <trkpt lat="42.71443" lon="-0.23558">
        <ele>1517.7</ele>
        <time>2018-12-27T10:12:17Z</time>
      </trkpt>
      <trkpt lat="42.71437" lon="-0.23559">
        <ele>1518</ele>
        <time>2018-12-27T10:12:19Z</time>
      </trkpt>
      <trkpt lat="42.71428" lon="-0.23555">
        <ele>1517.2</ele>
        <time>2018-12-27T10:12:21Z</time>
      </trkpt>
      <trkpt lat="42.71416" lon="-0.23551">
        <ele>1516.2</ele>
        <time>2018-12-27T10:12:24Z</time>
      </trkpt>
      <trkpt lat="42.71402" lon="-0.23545">
        <ele>1514.8</ele>
        <time>2018-12-27T10:12:28Z</time>
      </trkpt>
      <trkpt lat="42.71393" lon="-0.23539">
        <ele>1514.8</ele>
        <time>2018-12-27T10:12:31Z</time>
      </trkpt>
      <trkpt lat="42.71386" lon="-0.23535">
        <ele>1515.5</ele>
        <time>2018-12-27T10:12:33Z</time>
      </trkpt>
      <trkpt lat="42.71382" lon="-0.23531">
        <ele>1516.2</ele>
        <time>2018-12-27T10:12:34Z</time>
      </trkpt>
      <trkpt lat="42.71378" lon="-0.23526">
        <ele>1517</ele>
        <time>2018-12-27T10:12:36Z</time>
      </trkpt>
      <trkpt lat="42.7138" lon="-0.23525">
        <ele>1516.9</ele>
        <time>2018-12-27T10:12:36Z</time>
      </trkpt>
      <trkpt lat="42.7139" lon="-0.23526">
        <ele>1516.6</ele>
        <time>2018-12-27T10:12:39Z</time>
      </trkpt>
      <trkpt lat="42.71407" lon="-0.2353">
        <ele>1515.3</ele>
        <time>2018-12-27T10:12:43Z</time>
      </trkpt>
      <trkpt lat="42.71422" lon="-0.2353">
        <ele>1514.8</ele>
        <time>2018-12-27T10:12:47Z</time>
      </trkpt>
      <trkpt lat="42.71437" lon="-0.23522">
        <ele>1515.1</ele>
        <time>2018-12-27T10:12:52Z</time>
      </trkpt>
      <trkpt lat="42.71448" lon="-0.23511">
        <ele>1515.9</ele>
        <time>2018-12-27T10:12:55Z</time>
      </trkpt>
      <trkpt lat="42.71461" lon="-0.23497">
        <ele>1516.6</ele>
        <time>2018-12-27T10:13:00Z</time>
      </trkpt>
      <trkpt lat="42.71476" lon="-0.23489">
        <ele>1516.4</ele>
        <time>2018-12-27T10:13:04Z</time>
      </trkpt>
      <trkpt lat="42.71494" lon="-0.23486">
        <ele>1515.3</ele>
        <time>2018-12-27T10:13:09Z</time>
      </trkpt>
      <trkpt lat="42.71498" lon="-0.23485">
        <ele>1515.1</ele>
        <time>2018-12-27T10:13:10Z</time>
      </trkpt>
      <trkpt lat="42.71517" lon="-0.23486">
        <ele>1513.7</ele>
        <time>2018-12-27T10:13:15Z</time>
      </trkpt>
      <trkpt lat="42.7152" lon="-0.23487">
        <ele>1513.2</ele>
        <time>2018-12-27T10:13:16Z</time>
      </trkpt>
      <trkpt lat="42.71537" lon="-0.23493">
        <ele>1511.6</ele>
        <time>2018-12-27T10:13:20Z</time>
      </trkpt>
      <trkpt lat="42.71556" lon="-0.23504">
        <ele>1509.3</ele>
        <time>2018-12-27T10:13:26Z</time>
      </trkpt>
      <trkpt lat="42.71574" lon="-0.23511">
        <ele>1507.3</ele>
        <time>2018-12-27T10:13:31Z</time>
      </trkpt>
      <trkpt lat="42.71594" lon="-0.23513">
        <ele>1505.3</ele>
        <time>2018-12-27T10:13:36Z</time>
      </trkpt>
      <trkpt lat="42.71597" lon="-0.23513">
        <ele>1505.1</ele>
        <time>2018-12-27T10:13:37Z</time>
      </trkpt>
      <trkpt lat="42.71615" lon="-0.23511">
        <ele>1504.2</ele>
        <time>2018-12-27T10:13:42Z</time>
      </trkpt>
      <trkpt lat="42.71634" lon="-0.23511">
        <ele>1503.3</ele>
        <time>2018-12-27T10:13:47Z</time>
      </trkpt>
      <trkpt lat="42.71651" lon="-0.23513">
        <ele>1503.1</ele>
        <time>2018-12-27T10:13:52Z</time>
      </trkpt>
      <trkpt lat="42.71659" lon="-0.2351">
        <ele>1503.7</ele>
        <time>2018-12-27T10:13:54Z</time>
      </trkpt>
      <trkpt lat="42.71662" lon="-0.23509">
        <ele>1504.1</ele>
        <time>2018-12-27T10:13:55Z</time>
      </trkpt>
      <trkpt lat="42.71668" lon="-0.23508">
        <ele>1504.5</ele>
        <time>2018-12-27T10:13:56Z</time>
      </trkpt>
      <trkpt lat="42.71678" lon="-0.2351">
        <ele>1504</ele>
        <time>2018-12-27T10:13:59Z</time>
      </trkpt>
      <trkpt lat="42.71687" lon="-0.23516">
        <ele>1502.3</ele>
        <time>2018-12-27T10:14:02Z</time>
      </trkpt>
      <trkpt lat="42.71693" lon="-0.23524">
        <ele>1500.2</ele>
        <time>2018-12-27T10:14:04Z</time>
      </trkpt>
      <trkpt lat="42.71699" lon="-0.23537">
        <ele>1496.4</ele>
        <time>2018-12-27T10:14:07Z</time>
      </trkpt>
      <trkpt lat="42.71701" lon="-0.23543">
        <ele>1495.3</ele>
        <time>2018-12-27T10:14:08Z</time>
      </trkpt>
      <trkpt lat="42.71702" lon="-0.23544">
        <ele>1495.2</ele>
        <time>2018-12-27T10:14:09Z</time>
      </trkpt>
      <trkpt lat="42.71706" lon="-0.23551">
        <ele>1495.1</ele>
        <time>2018-12-27T10:14:10Z</time>
      </trkpt>
      <trkpt lat="42.71709" lon="-0.23551">
        <ele>1495.2</ele>
        <time>2018-12-27T10:14:11Z</time>
      </trkpt>
      <trkpt lat="42.7171" lon="-0.23551">
        <ele>1495.7</ele>
        <time>2018-12-27T10:14:11Z</time>
      </trkpt>
      <trkpt lat="42.71712" lon="-0.23551">
        <ele>1496.1</ele>
        <time>2018-12-27T10:14:12Z</time>
      </trkpt>
      <trkpt lat="42.71717" lon="-0.23543">
        <ele>1497.8</ele>
        <time>2018-12-27T10:14:14Z</time>
      </trkpt>
      <trkpt lat="42.7172" lon="-0.2354">
        <ele>1499.3</ele>
        <time>2018-12-27T10:14:15Z</time>
      </trkpt>
      <trkpt lat="42.71722" lon="-0.2354">
        <ele>1499.9</ele>
        <time>2018-12-27T10:14:15Z</time>
      </trkpt>
      <trkpt lat="42.71725" lon="-0.23543">
        <ele>1500.5</ele>
        <time>2018-12-27T10:14:16Z</time>
      </trkpt>
      <trkpt lat="42.71728" lon="-0.23544">
        <ele>1501.6</ele>
        <time>2018-12-27T10:14:17Z</time>
      </trkpt>
      <trkpt lat="42.71732" lon="-0.23544">
        <ele>1502.8</ele>
        <time>2018-12-27T10:14:18Z</time>
      </trkpt>
      <trkpt lat="42.71733" lon="-0.23543">
        <ele>1503.3</ele>
        <time>2018-12-27T10:14:19Z</time>
      </trkpt>
      <trkpt lat="42.71738" lon="-0.23543">
        <ele>1504.8</ele>
        <time>2018-12-27T10:14:20Z</time>
      </trkpt>
      <trkpt lat="42.71743" lon="-0.23544">
        <ele>1506.5</ele>
        <time>2018-12-27T10:14:21Z</time>
      </trkpt>
      <trkpt lat="42.71748" lon="-0.23542">
        <ele>1508.4</ele>
        <time>2018-12-27T10:14:23Z</time>
      </trkpt>
      <trkpt lat="42.71749" lon="-0.23541">
        <ele>1508.8</ele>
        <time>2018-12-27T10:14:23Z</time>
      </trkpt>
      <trkpt lat="42.71751" lon="-0.2354">
        <ele>1509.6</ele>
        <time>2018-12-27T10:14:24Z</time>
      </trkpt>
      <trkpt lat="42.71751" lon="-0.23538">
        <ele>1510.2</ele>
        <time>2018-12-27T10:14:24Z</time>
      </trkpt>
      <trkpt lat="42.71751" lon="-0.23533">
        <ele>1511.3</ele>
        <time>2018-12-27T10:14:25Z</time>
      </trkpt>
      <trkpt lat="42.71752" lon="-0.23532">
        <ele>1511.9</ele>
        <time>2018-12-27T10:14:25Z</time>
      </trkpt>
      <trkpt lat="42.71752" lon="-0.23531">
        <ele>1512</ele>
        <time>2018-12-27T10:14:25Z</time>
      </trkpt>
      <trkpt lat="42.71754" lon="-0.23528">
        <ele>1513.1</ele>
        <time>2018-12-27T10:14:26Z</time>
      </trkpt>
      <trkpt lat="42.71758" lon="-0.23524">
        <ele>1515.5</ele>
        <time>2018-12-27T10:14:28Z</time>
      </trkpt>
      <trkpt lat="42.71761" lon="-0.23519">
        <ele>1517.4</ele>
        <time>2018-12-27T10:14:29Z</time>
      </trkpt>
      <trkpt lat="42.71765" lon="-0.23512">
        <ele>1520.1</ele>
        <time>2018-12-27T10:14:31Z</time>
      </trkpt>
      <trkpt lat="42.7177" lon="-0.23506">
        <ele>1522.8</ele>
        <time>2018-12-27T10:14:32Z</time>
      </trkpt>
      <trkpt lat="42.71777" lon="-0.23501">
        <ele>1525.5</ele>
        <time>2018-12-27T10:14:35Z</time>
      </trkpt>
      <trkpt lat="42.71784" lon="-0.235">
        <ele>1527.4</ele>
        <time>2018-12-27T10:14:36Z</time>
      </trkpt>
      <trkpt lat="42.71792" lon="-0.23494">
        <ele>1530.5</ele>
        <time>2018-12-27T10:14:39Z</time>
      </trkpt>
      <trkpt lat="42.71793" lon="-0.23492">
        <ele>1530.8</ele>
        <time>2018-12-27T10:14:39Z</time>
      </trkpt>
      <trkpt lat="42.71795" lon="-0.23489">
        <ele>1531.4</ele>
        <time>2018-12-27T10:14:40Z</time>
      </trkpt>
      <trkpt lat="42.71797" lon="-0.23488">
        <ele>1531.7</ele>
        <time>2018-12-27T10:14:41Z</time>
      </trkpt>
      <trkpt lat="42.71806" lon="-0.23491">
        <ele>1531.8</ele>
        <time>2018-12-27T10:14:43Z</time>
      </trkpt>
      <trkpt lat="42.71813" lon="-0.23494">
        <ele>1531.7</ele>
        <time>2018-12-27T10:14:45Z</time>
      </trkpt>
      <trkpt lat="42.71815" lon="-0.23494">
        <ele>1531.9</ele>
        <time>2018-12-27T10:14:46Z</time>
      </trkpt>
      <trkpt lat="42.71824" lon="-0.2349">
        <ele>1533.2</ele>
        <time>2018-12-27T10:14:48Z</time>
      </trkpt>
      <trkpt lat="42.71834" lon="-0.23481">
        <ele>1535.4</ele>
        <time>2018-12-27T10:14:51Z</time>
      </trkpt>
      <trkpt lat="42.71834" lon="-0.23478">
        <ele>1535.8</ele>
        <time>2018-12-27T10:14:52Z</time>
      </trkpt>
      <trkpt lat="42.71835" lon="-0.23475">
        <ele>1536.4</ele>
        <time>2018-12-27T10:14:52Z</time>
      </trkpt>
      <trkpt lat="42.71835" lon="-0.23474">
        <ele>1536.7</ele>
        <time>2018-12-27T10:14:53Z</time>
      </trkpt>
      <trkpt lat="42.71837" lon="-0.23473">
        <ele>1536.9</ele>
        <time>2018-12-27T10:14:53Z</time>
      </trkpt>
      <trkpt lat="42.7184" lon="-0.23471">
        <ele>1537.3</ele>
        <time>2018-12-27T10:14:54Z</time>
      </trkpt>
      <trkpt lat="42.71842" lon="-0.2347">
        <ele>1537.7</ele>
        <time>2018-12-27T10:14:55Z</time>
      </trkpt>
      <trkpt lat="42.71843" lon="-0.23469">
        <ele>1538</ele>
        <time>2018-12-27T10:14:55Z</time>
      </trkpt>
      <trkpt lat="42.71844" lon="-0.23467">
        <ele>1538.3</ele>
        <time>2018-12-27T10:14:55Z</time>
      </trkpt>
      <trkpt lat="42.71845" lon="-0.23465">
        <ele>1538.7</ele>
        <time>2018-12-27T10:14:56Z</time>
      </trkpt>
      <trkpt lat="42.71848" lon="-0.23462">
        <ele>1539.5</ele>
        <time>2018-12-27T10:14:57Z</time>
      </trkpt>
      <trkpt lat="42.71848" lon="-0.23461">
        <ele>1539.7</ele>
        <time>2018-12-27T10:14:57Z</time>
      </trkpt>
      <trkpt lat="42.7185" lon="-0.23456">
        <ele>1540.9</ele>
        <time>2018-12-27T10:14:58Z</time>
      </trkpt>
      <trkpt lat="42.71852" lon="-0.23452">
        <ele>1541.7</ele>
        <time>2018-12-27T10:14:59Z</time>
      </trkpt>
      <trkpt lat="42.71853" lon="-0.23443">
        <ele>1543.8</ele>
        <time>2018-12-27T10:15:01Z</time>
      </trkpt>
      <trkpt lat="42.71855" lon="-0.23424">
        <ele>1548.1</ele>
        <time>2018-12-27T10:15:05Z</time>
      </trkpt>
      <trkpt lat="42.71858" lon="-0.23412">
        <ele>1550.9</ele>
        <time>2018-12-27T10:15:07Z</time>
      </trkpt>
      <trkpt lat="42.7186" lon="-0.23412">
        <ele>1551.1</ele>
        <time>2018-12-27T10:15:08Z</time>
      </trkpt>
      <trkpt lat="42.71865" lon="-0.23407">
        <ele>1552.6</ele>
        <time>2018-12-27T10:15:09Z</time>
      </trkpt>
      <trkpt lat="42.71868" lon="-0.23402">
        <ele>1553.7</ele>
        <time>2018-12-27T10:15:10Z</time>
      </trkpt>
      <trkpt lat="42.71869" lon="-0.23396">
        <ele>1555.1</ele>
        <time>2018-12-27T10:15:12Z</time>
      </trkpt>
      <trkpt lat="42.71873" lon="-0.23391">
        <ele>1556.6</ele>
        <time>2018-12-27T10:15:13Z</time>
      </trkpt>
      <trkpt lat="42.71874" lon="-0.23388">
        <ele>1557.2</ele>
        <time>2018-12-27T10:15:14Z</time>
      </trkpt>
      <trkpt lat="42.71874" lon="-0.23382">
        <ele>1558.6</ele>
        <time>2018-12-27T10:15:15Z</time>
      </trkpt>
      <trkpt lat="42.71874" lon="-0.23381">
        <ele>1558.7</ele>
        <time>2018-12-27T10:15:15Z</time>
      </trkpt>
      <trkpt lat="42.71872" lon="-0.23379">
        <ele>1559.2</ele>
        <time>2018-12-27T10:15:16Z</time>
      </trkpt>
      <trkpt lat="42.7187" lon="-0.23376">
        <ele>1559.5</ele>
        <time>2018-12-27T10:15:17Z</time>
      </trkpt>
      <trkpt lat="42.7187" lon="-0.23375">
        <ele>1559.8</ele>
        <time>2018-12-27T10:15:17Z</time>
      </trkpt>
      <trkpt lat="42.71869" lon="-0.23371">
        <ele>1560.8</ele>
        <time>2018-12-27T10:15:18Z</time>
      </trkpt>
      <trkpt lat="42.7187" lon="-0.2337">
        <ele>1561.1</ele>
        <time>2018-12-27T10:15:18Z</time>
      </trkpt>
      <trkpt lat="42.71872" lon="-0.23366">
        <ele>1562.1</ele>
        <time>2018-12-27T10:15:19Z</time>
      </trkpt>
      <trkpt lat="42.71873" lon="-0.23359">
        <ele>1563.9</ele>
        <time>2018-12-27T10:15:20Z</time>
      </trkpt>
      <trkpt lat="42.71873" lon="-0.23358">
        <ele>1564.2</ele>
        <time>2018-12-27T10:15:21Z</time>
      </trkpt>
      <trkpt lat="42.71872" lon="-0.23357">
        <ele>1564.6</ele>
        <time>2018-12-27T10:15:21Z</time>
      </trkpt>
      <trkpt lat="42.71869" lon="-0.23354">
        <ele>1565.3</ele>
        <time>2018-12-27T10:15:22Z</time>
      </trkpt>
      <trkpt lat="42.71867" lon="-0.2335">
        <ele>1566.4</ele>
        <time>2018-12-27T10:15:23Z</time>
      </trkpt>
      <trkpt lat="42.71865" lon="-0.23344">
        <ele>1568.1</ele>
        <time>2018-12-27T10:15:24Z</time>
      </trkpt>
      <trkpt lat="42.71865" lon="-0.23343">
        <ele>1568.5</ele>
        <time>2018-12-27T10:15:25Z</time>
      </trkpt>
      <trkpt lat="42.71864" lon="-0.2334">
        <ele>1569.4</ele>
        <time>2018-12-27T10:15:25Z</time>
      </trkpt>
      <trkpt lat="42.71864" lon="-0.23338">
        <ele>1569.8</ele>
        <time>2018-12-27T10:15:25Z</time>
      </trkpt>
      <trkpt lat="42.71862" lon="-0.23333">
        <ele>1571.3</ele>
        <time>2018-12-27T10:15:27Z</time>
      </trkpt>
      <trkpt lat="42.71862" lon="-0.2333">
        <ele>1572.3</ele>
        <time>2018-12-27T10:15:27Z</time>
      </trkpt>
      <trkpt lat="42.7186" lon="-0.23326">
        <ele>1573.7</ele>
        <time>2018-12-27T10:15:28Z</time>
      </trkpt>
      <trkpt lat="42.7186" lon="-0.2332">
        <ele>1575.5</ele>
        <time>2018-12-27T10:15:29Z</time>
      </trkpt>
      <trkpt lat="42.71862" lon="-0.23316">
        <ele>1576.5</ele>
        <time>2018-12-27T10:15:30Z</time>
      </trkpt>
      <trkpt lat="42.71864" lon="-0.23312">
        <ele>1577.2</ele>
        <time>2018-12-27T10:15:31Z</time>
      </trkpt>
      <trkpt lat="42.71864" lon="-0.23308">
        <ele>1578.4</ele>
        <time>2018-12-27T10:15:32Z</time>
      </trkpt>
      <trkpt lat="42.71864" lon="-0.23306">
        <ele>1578.8</ele>
        <time>2018-12-27T10:15:32Z</time>
      </trkpt>
      <trkpt lat="42.71863" lon="-0.23303">
        <ele>1579.9</ele>
        <time>2018-12-27T10:15:33Z</time>
      </trkpt>
      <trkpt lat="42.71862" lon="-0.23301">
        <ele>1580.5</ele>
        <time>2018-12-27T10:15:33Z</time>
      </trkpt>
      <trkpt lat="42.71862" lon="-0.23297">
        <ele>1581.6</ele>
        <time>2018-12-27T10:15:34Z</time>
      </trkpt>
      <trkpt lat="42.71861" lon="-0.2329">
        <ele>1583.9</ele>
        <time>2018-12-27T10:15:36Z</time>
      </trkpt>
      <trkpt lat="42.7186" lon="-0.23283">
        <ele>1586</ele>
        <time>2018-12-27T10:15:37Z</time>
      </trkpt>
      <trkpt lat="42.71859" lon="-0.23278">
        <ele>1587.8</ele>
        <time>2018-12-27T10:15:38Z</time>
      </trkpt>
      <trkpt lat="42.71857" lon="-0.2327">
        <ele>1590.5</ele>
        <time>2018-12-27T10:15:40Z</time>
      </trkpt>
      <trkpt lat="42.71854" lon="-0.23258">
        <ele>1594.5</ele>
        <time>2018-12-27T10:15:42Z</time>
      </trkpt>
      <trkpt lat="42.71852" lon="-0.23257">
        <ele>1595.4</ele>
        <time>2018-12-27T10:15:43Z</time>
      </trkpt>
      <trkpt lat="42.71852" lon="-0.23254">
        <ele>1596.3</ele>
        <time>2018-12-27T10:15:43Z</time>
      </trkpt>
      <trkpt lat="42.7185" lon="-0.23249">
        <ele>1598</ele>
        <time>2018-12-27T10:15:44Z</time>
      </trkpt>
      <trkpt lat="42.7185" lon="-0.23239">
        <ele>1601</ele>
        <time>2018-12-27T10:15:46Z</time>
      </trkpt>
      <trkpt lat="42.71848" lon="-0.23234">
        <ele>1603</ele>
        <time>2018-12-27T10:15:47Z</time>
      </trkpt>
      <trkpt lat="42.71847" lon="-0.23233">
        <ele>1603.5</ele>
        <time>2018-12-27T10:15:48Z</time>
      </trkpt>
      <trkpt lat="42.71846" lon="-0.23227">
        <ele>1605.5</ele>
        <time>2018-12-27T10:15:49Z</time>
      </trkpt>
      <trkpt lat="42.71847" lon="-0.23219">
        <ele>1607.6</ele>
        <time>2018-12-27T10:15:50Z</time>
      </trkpt>
      <trkpt lat="42.71847" lon="-0.23218">
        <ele>1607.9</ele>
        <time>2018-12-27T10:15:51Z</time>
      </trkpt>
      <trkpt lat="42.71844" lon="-0.23209">
        <ele>1611.5</ele>
        <time>2018-12-27T10:15:53Z</time>
      </trkpt>
      <trkpt lat="42.71842" lon="-0.23203">
        <ele>1613.4</ele>
        <time>2018-12-27T10:15:54Z</time>
      </trkpt>
      <trkpt lat="42.71841" lon="-0.23199">
        <ele>1614.7</ele>
        <time>2018-12-27T10:15:55Z</time>
      </trkpt>
      <trkpt lat="42.71841" lon="-0.23197">
        <ele>1614.6</ele>
        <time>2018-12-27T10:15:55Z</time>
      </trkpt>
      <trkpt lat="42.71841" lon="-0.23192">
        <ele>1615.7</ele>
        <time>2018-12-27T10:15:56Z</time>
      </trkpt>
      <trkpt lat="42.71842" lon="-0.23187">
        <ele>1616.1</ele>
        <time>2018-12-27T10:15:57Z</time>
      </trkpt>
      <trkpt lat="42.71842" lon="-0.23183">
        <ele>1617</ele>
        <time>2018-12-27T10:15:58Z</time>
      </trkpt>
      <trkpt lat="42.7184" lon="-0.23177">
        <ele>1618.6</ele>
        <time>2018-12-27T10:15:59Z</time>
      </trkpt>
      <trkpt lat="42.71839" lon="-0.23176">
        <ele>1619.1</ele>
        <time>2018-12-27T10:15:59Z</time>
      </trkpt>
      <trkpt lat="42.71838" lon="-0.23172">
        <ele>1620.3</ele>
        <time>2018-12-27T10:16:00Z</time>
      </trkpt>
      <trkpt lat="42.71838" lon="-0.23171">
        <ele>1620.6</ele>
        <time>2018-12-27T10:16:00Z</time>
      </trkpt>
      <trkpt lat="42.71838" lon="-0.23169">
        <ele>1621</ele>
        <time>2018-12-27T10:16:01Z</time>
      </trkpt>
      <trkpt lat="42.71836" lon="-0.23161">
        <ele>1622.9</ele>
        <time>2018-12-27T10:16:03Z</time>
      </trkpt>
      <trkpt lat="42.71835" lon="-0.23158">
        <ele>1624</ele>
        <time>2018-12-27T10:16:03Z</time>
      </trkpt>
      <trkpt lat="42.71832" lon="-0.23147">
        <ele>1626.5</ele>
        <time>2018-12-27T10:16:05Z</time>
      </trkpt>
      <trkpt lat="42.71831" lon="-0.23134">
        <ele>1629.3</ele>
        <time>2018-12-27T10:16:08Z</time>
      </trkpt>
      <trkpt lat="42.71831" lon="-0.23131">
        <ele>1629.8</ele>
        <time>2018-12-27T10:16:09Z</time>
      </trkpt>
      <trkpt lat="42.71832" lon="-0.23122">
        <ele>1631.1</ele>
        <time>2018-12-27T10:16:11Z</time>
      </trkpt>
      <trkpt lat="42.71832" lon="-0.23119">
        <ele>1631.4</ele>
        <time>2018-12-27T10:16:11Z</time>
      </trkpt>
      <trkpt lat="42.71832" lon="-0.23113">
        <ele>1632.3</ele>
        <time>2018-12-27T10:16:12Z</time>
      </trkpt>
      <trkpt lat="42.71829" lon="-0.23103">
        <ele>1634.4</ele>
        <time>2018-12-27T10:16:14Z</time>
      </trkpt>
      <trkpt lat="42.71823" lon="-0.23091">
        <ele>1637.8</ele>
        <time>2018-12-27T10:16:17Z</time>
      </trkpt>
      <trkpt lat="42.71815" lon="-0.23085">
        <ele>1641.2</ele>
        <time>2018-12-27T10:16:20Z</time>
      </trkpt>
      <trkpt lat="42.71811" lon="-0.23077">
        <ele>1643</ele>
        <time>2018-12-27T10:16:21Z</time>
      </trkpt>
      <trkpt lat="42.71808" lon="-0.23072">
        <ele>1644.5</ele>
        <time>2018-12-27T10:16:23Z</time>
      </trkpt>
      <trkpt lat="42.71807" lon="-0.2307">
        <ele>1645</ele>
        <time>2018-12-27T10:16:23Z</time>
      </trkpt>
      <trkpt lat="42.71806" lon="-0.23064">
        <ele>1646.1</ele>
        <time>2018-12-27T10:16:24Z</time>
      </trkpt>
      <trkpt lat="42.71808" lon="-0.2306">
        <ele>1646.2</ele>
        <time>2018-12-27T10:16:25Z</time>
      </trkpt>
      <trkpt lat="42.71809" lon="-0.23058">
        <ele>1646.1</ele>
        <time>2018-12-27T10:16:26Z</time>
      </trkpt>
      <trkpt lat="42.71809" lon="-0.2305">
        <ele>1646.8</ele>
        <time>2018-12-27T10:16:27Z</time>
      </trkpt>
      <trkpt lat="42.71809" lon="-0.23049">
        <ele>1647.1</ele>
        <time>2018-12-27T10:16:28Z</time>
      </trkpt>
      <trkpt lat="42.71807" lon="-0.23044">
        <ele>1648.1</ele>
        <time>2018-12-27T10:16:29Z</time>
      </trkpt>
      <trkpt lat="42.71807" lon="-0.23043">
        <ele>1648.4</ele>
        <time>2018-12-27T10:16:29Z</time>
      </trkpt>
      <trkpt lat="42.71804" lon="-0.23033">
        <ele>1649.9</ele>
        <time>2018-12-27T10:16:31Z</time>
      </trkpt>
      <trkpt lat="42.71801" lon="-0.23025">
        <ele>1651.3</ele>
        <time>2018-12-27T10:16:33Z</time>
      </trkpt>
      <trkpt lat="42.71798" lon="-0.23021">
        <ele>1652.3</ele>
        <time>2018-12-27T10:16:34Z</time>
      </trkpt>
      <trkpt lat="42.71796" lon="-0.23018">
        <ele>1653</ele>
        <time>2018-12-27T10:16:35Z</time>
      </trkpt>
      <trkpt lat="42.71797" lon="-0.23016">
        <ele>1653.2</ele>
        <time>2018-12-27T10:16:35Z</time>
      </trkpt>
      <trkpt lat="42.71797" lon="-0.23016">
        <ele>1653</ele>
        <time>2018-12-27T10:16:35Z</time>
      </trkpt>
      <trkpt lat="42.71798" lon="-0.23011">
        <ele>1653.3</ele>
        <time>2018-12-27T10:16:36Z</time>
      </trkpt>
      <trkpt lat="42.71798" lon="-0.23005">
        <ele>1653.9</ele>
        <time>2018-12-27T10:16:37Z</time>
      </trkpt>
      <trkpt lat="42.71797" lon="-0.23002">
        <ele>1654.4</ele>
        <time>2018-12-27T10:16:38Z</time>
      </trkpt>
      <trkpt lat="42.71791" lon="-0.22998">
        <ele>1655.9</ele>
        <time>2018-12-27T10:16:40Z</time>
      </trkpt>
      <trkpt lat="42.71786" lon="-0.22993">
        <ele>1660</ele>
        <time>2018-12-27T10:16:41Z</time>
      </trkpt>
      <trkpt lat="42.71783" lon="-0.22989">
        <ele>1662.8</ele>
        <time>2018-12-27T10:16:43Z</time>
      </trkpt>
      <trkpt lat="42.71781" lon="-0.22984">
        <ele>1664.4</ele>
        <time>2018-12-27T10:16:44Z</time>
      </trkpt>
      <trkpt lat="42.71781" lon="-0.22984">
        <ele>1664.6</ele>
        <time>2018-12-27T10:16:44Z</time>
      </trkpt>
      <trkpt lat="42.7178" lon="-0.22981">
        <ele>1665.5</ele>
        <time>2018-12-27T10:16:44Z</time>
      </trkpt>
      <trkpt lat="42.7178" lon="-0.22981">
        <ele>1665.5</ele>
        <time>2018-12-27T10:16:44Z</time>
      </trkpt>
      <trkpt lat="42.71779" lon="-0.22976">
        <ele>1666.8</ele>
        <time>2018-12-27T10:16:45Z</time>
      </trkpt>
      <trkpt lat="42.71777" lon="-0.22973">
        <ele>1668.2</ele>
        <time>2018-12-27T10:16:46Z</time>
      </trkpt>
      <trkpt lat="42.71774" lon="-0.22968">
        <ele>1670.8</ele>
        <time>2018-12-27T10:16:47Z</time>
      </trkpt>
      <trkpt lat="42.71773" lon="-0.22963">
        <ele>1671.8</ele>
        <time>2018-12-27T10:16:49Z</time>
      </trkpt>
      <trkpt lat="42.71773" lon="-0.22961">
        <ele>1672.3</ele>
        <time>2018-12-27T10:16:49Z</time>
      </trkpt>
      <trkpt lat="42.71773" lon="-0.22958">
        <ele>1672.7</ele>
        <time>2018-12-27T10:16:50Z</time>
      </trkpt>
      <trkpt lat="42.71771" lon="-0.22953">
        <ele>1674.7</ele>
        <time>2018-12-27T10:16:51Z</time>
      </trkpt>
      <trkpt lat="42.71771" lon="-0.22947">
        <ele>1675.6</ele>
        <time>2018-12-27T10:16:52Z</time>
      </trkpt>
      <trkpt lat="42.71772" lon="-0.22945">
        <ele>1675.2</ele>
        <time>2018-12-27T10:16:52Z</time>
      </trkpt>
      <trkpt lat="42.71771" lon="-0.22936">
        <ele>1676.7</ele>
        <time>2018-12-27T10:16:54Z</time>
      </trkpt>
      <trkpt lat="42.71773" lon="-0.22932">
        <ele>1676.3</ele>
        <time>2018-12-27T10:16:55Z</time>
      </trkpt>
      <trkpt lat="42.71772" lon="-0.22927">
        <ele>1677.3</ele>
        <time>2018-12-27T10:16:56Z</time>
      </trkpt>
      <trkpt lat="42.71772" lon="-0.22926">
        <ele>1677.4</ele>
        <time>2018-12-27T10:16:56Z</time>
      </trkpt>
      <trkpt lat="42.71772" lon="-0.22916">
        <ele>1679.1</ele>
        <time>2018-12-27T10:16:58Z</time>
      </trkpt>
      <trkpt lat="42.71773" lon="-0.22908">
        <ele>1679.6</ele>
        <time>2018-12-27T10:16:59Z</time>
      </trkpt>
      <trkpt lat="42.71774" lon="-0.22901">
        <ele>1680.1</ele>
        <time>2018-12-27T10:17:01Z</time>
      </trkpt>
      <trkpt lat="42.71775" lon="-0.22901">
        <ele>1679.3</ele>
        <time>2018-12-27T10:17:01Z</time>
      </trkpt>
      <trkpt lat="42.71776" lon="-0.22893">
        <ele>1679.9</ele>
        <time>2018-12-27T10:17:03Z</time>
      </trkpt>
      <trkpt lat="42.71777" lon="-0.22888">
        <ele>1680.2</ele>
        <time>2018-12-27T10:17:04Z</time>
      </trkpt>
      <trkpt lat="42.71777" lon="-0.22883">
        <ele>1680.9</ele>
        <time>2018-12-27T10:17:05Z</time>
      </trkpt>
      <trkpt lat="42.71776" lon="-0.22882">
        <ele>1681.4</ele>
        <time>2018-12-27T10:17:05Z</time>
      </trkpt>
      <trkpt lat="42.71772" lon="-0.22876">
        <ele>1684.8</ele>
        <time>2018-12-27T10:17:07Z</time>
      </trkpt>
      <trkpt lat="42.71772" lon="-0.22865">
        <ele>1686.6</ele>
        <time>2018-12-27T10:17:09Z</time>
      </trkpt>
      <trkpt lat="42.71771" lon="-0.22851">
        <ele>1689.5</ele>
        <time>2018-12-27T10:17:12Z</time>
      </trkpt>
      <trkpt lat="42.71768" lon="-0.22839">
        <ele>1693.8</ele>
        <time>2018-12-27T10:17:14Z</time>
      </trkpt>
      <trkpt lat="42.7176" lon="-0.22833">
        <ele>1699.2</ele>
        <time>2018-12-27T10:17:17Z</time>
      </trkpt>
      <trkpt lat="42.71759" lon="-0.2283">
        <ele>1700</ele>
        <time>2018-12-27T10:17:17Z</time>
      </trkpt>
      <trkpt lat="42.71759" lon="-0.22824">
        <ele>1700.7</ele>
        <time>2018-12-27T10:17:18Z</time>
      </trkpt>
      <trkpt lat="42.71756" lon="-0.22817">
        <ele>1703.4</ele>
        <time>2018-12-27T10:17:20Z</time>
      </trkpt>
      <trkpt lat="42.71757" lon="-0.22816">
        <ele>1703.5</ele>
        <time>2018-12-27T10:17:20Z</time>
      </trkpt>
      <trkpt lat="42.71755" lon="-0.22811">
        <ele>1705.3</ele>
        <time>2018-12-27T10:17:21Z</time>
      </trkpt>
      <trkpt lat="42.71754" lon="-0.22801">
        <ele>1707.1</ele>
        <time>2018-12-27T10:17:23Z</time>
      </trkpt>
      <trkpt lat="42.71754" lon="-0.22798">
        <ele>1707.8</ele>
        <time>2018-12-27T10:17:24Z</time>
      </trkpt>
      <trkpt lat="42.71753" lon="-0.22795">
        <ele>1708.4</ele>
        <time>2018-12-27T10:17:24Z</time>
      </trkpt>
      <trkpt lat="42.71753" lon="-0.22787">
        <ele>1710.1</ele>
        <time>2018-12-27T10:17:26Z</time>
      </trkpt>
      <trkpt lat="42.71752" lon="-0.22783">
        <ele>1711.1</ele>
        <time>2018-12-27T10:17:27Z</time>
      </trkpt>
      <trkpt lat="42.71752" lon="-0.22781">
        <ele>1711.9</ele>
        <time>2018-12-27T10:17:27Z</time>
      </trkpt>
      <trkpt lat="42.71751" lon="-0.22778">
        <ele>1712.6</ele>
        <time>2018-12-27T10:17:28Z</time>
      </trkpt>
      <trkpt lat="42.71749" lon="-0.22776">
        <ele>1713.9</ele>
        <time>2018-12-27T10:17:28Z</time>
      </trkpt>
      <trkpt lat="42.71748" lon="-0.22773">
        <ele>1714.8</ele>
        <time>2018-12-27T10:17:29Z</time>
      </trkpt>
      <trkpt lat="42.71747" lon="-0.2277">
        <ele>1716</ele>
        <time>2018-12-27T10:17:30Z</time>
      </trkpt>
      <trkpt lat="42.71744" lon="-0.22764">
        <ele>1718.8</ele>
        <time>2018-12-27T10:17:31Z</time>
      </trkpt>
      <trkpt lat="42.71744" lon="-0.22762">
        <ele>1719</ele>
        <time>2018-12-27T10:17:32Z</time>
      </trkpt>
      <trkpt lat="42.71744" lon="-0.22759">
        <ele>1719.4</ele>
        <time>2018-12-27T10:17:32Z</time>
      </trkpt>
      <trkpt lat="42.71743" lon="-0.22752">
        <ele>1721.5</ele>
        <time>2018-12-27T10:17:34Z</time>
      </trkpt>
      <trkpt lat="42.71743" lon="-0.22751">
        <ele>1721.5</ele>
        <time>2018-12-27T10:17:34Z</time>
      </trkpt>
      <trkpt lat="42.71741" lon="-0.22744">
        <ele>1723.5</ele>
        <time>2018-12-27T10:17:35Z</time>
      </trkpt>
      <trkpt lat="42.71742" lon="-0.22741">
        <ele>1723.9</ele>
        <time>2018-12-27T10:17:36Z</time>
      </trkpt>
      <trkpt lat="42.71742" lon="-0.22737">
        <ele>1724.6</ele>
        <time>2018-12-27T10:17:37Z</time>
      </trkpt>
      <trkpt lat="42.71743" lon="-0.22729">
        <ele>1725.7</ele>
        <time>2018-12-27T10:17:38Z</time>
      </trkpt>
      <trkpt lat="42.71742" lon="-0.22725">
        <ele>1726.8</ele>
        <time>2018-12-27T10:17:39Z</time>
      </trkpt>
      <trkpt lat="42.71738" lon="-0.22722">
        <ele>1728.8</ele>
        <time>2018-12-27T10:17:40Z</time>
      </trkpt>
      <trkpt lat="42.71738" lon="-0.22721">
        <ele>1729.1</ele>
        <time>2018-12-27T10:17:40Z</time>
      </trkpt>
      <trkpt lat="42.71739" lon="-0.22717">
        <ele>1729.3</ele>
        <time>2018-12-27T10:17:41Z</time>
      </trkpt>
      <trkpt lat="42.71735" lon="-0.22715">
        <ele>1731.5</ele>
        <time>2018-12-27T10:17:43Z</time>
      </trkpt>
      <trkpt lat="42.71728" lon="-0.2272">
        <ele>1733.2</ele>
        <time>2018-12-27T10:17:45Z</time>
      </trkpt>
      <trkpt lat="42.71728" lon="-0.22721">
        <ele>1733.3</ele>
        <time>2018-12-27T10:17:45Z</time>
      </trkpt>
      <trkpt lat="42.71726" lon="-0.22725">
        <ele>1733.4</ele>
        <time>2018-12-27T10:17:46Z</time>
      </trkpt>
      <trkpt lat="42.71725" lon="-0.22728">
        <ele>1733.3</ele>
        <time>2018-12-27T10:17:46Z</time>
      </trkpt>
      <trkpt lat="42.71724" lon="-0.22731">
        <ele>1733.3</ele>
        <time>2018-12-27T10:17:47Z</time>
      </trkpt>
      <trkpt lat="42.71721" lon="-0.22736">
        <ele>1733.9</ele>
        <time>2018-12-27T10:17:48Z</time>
      </trkpt>
      <trkpt lat="42.71717" lon="-0.2274">
        <ele>1734.8</ele>
        <time>2018-12-27T10:17:50Z</time>
      </trkpt>
      <trkpt lat="42.71717" lon="-0.22741">
        <ele>1735.1</ele>
        <time>2018-12-27T10:17:50Z</time>
      </trkpt>
      <trkpt lat="42.71712" lon="-0.22749">
        <ele>1735.9</ele>
        <time>2018-12-27T10:17:52Z</time>
      </trkpt>
      <trkpt lat="42.7171" lon="-0.22752">
        <ele>1736.6</ele>
        <time>2018-12-27T10:17:53Z</time>
      </trkpt>
      <trkpt lat="42.71709" lon="-0.22755">
        <ele>1736.7</ele>
        <time>2018-12-27T10:17:53Z</time>
      </trkpt>
      <trkpt lat="42.71709" lon="-0.22757">
        <ele>1736.3</ele>
        <time>2018-12-27T10:17:54Z</time>
      </trkpt>
      <trkpt lat="42.71708" lon="-0.22761">
        <ele>1736.4</ele>
        <time>2018-12-27T10:17:54Z</time>
      </trkpt>
      <trkpt lat="42.71705" lon="-0.22766">
        <ele>1737.5</ele>
        <time>2018-12-27T10:17:56Z</time>
      </trkpt>
      <trkpt lat="42.71698" lon="-0.22769">
        <ele>1741.3</ele>
        <time>2018-12-27T10:17:58Z</time>
      </trkpt>
      <trkpt lat="42.71696" lon="-0.22768">
        <ele>1742.9</ele>
        <time>2018-12-27T10:17:58Z</time>
      </trkpt>
      <trkpt lat="42.71695" lon="-0.22766">
        <ele>1743.4</ele>
        <time>2018-12-27T10:17:59Z</time>
      </trkpt>
      <trkpt lat="42.71694" lon="-0.2276">
        <ele>1745.3</ele>
        <time>2018-12-27T10:18:00Z</time>
      </trkpt>
      <trkpt lat="42.71693" lon="-0.22759">
        <ele>1746</ele>
        <time>2018-12-27T10:18:00Z</time>
      </trkpt>
      <trkpt lat="42.71691" lon="-0.22751">
        <ele>1748.2</ele>
        <time>2018-12-27T10:18:02Z</time>
      </trkpt>
      <trkpt lat="42.71691" lon="-0.22747">
        <ele>1749.1</ele>
        <time>2018-12-27T10:18:03Z</time>
      </trkpt>
      <trkpt lat="42.71691" lon="-0.22744">
        <ele>1749.4</ele>
        <time>2018-12-27T10:18:03Z</time>
      </trkpt>
      <trkpt lat="42.71691" lon="-0.22744">
        <ele>1749.4</ele>
        <time>2018-12-27T10:18:03Z</time>
      </trkpt>
      <trkpt lat="42.7169" lon="-0.22739">
        <ele>1750.8</ele>
        <time>2018-12-27T10:18:04Z</time>
      </trkpt>
      <trkpt lat="42.7169" lon="-0.22738">
        <ele>1751</ele>
        <time>2018-12-27T10:18:04Z</time>
      </trkpt>
      <trkpt lat="42.7169" lon="-0.22734">
        <ele>1751.9</ele>
        <time>2018-12-27T10:18:05Z</time>
      </trkpt>
      <trkpt lat="42.71686" lon="-0.22729">
        <ele>1754.8</ele>
        <time>2018-12-27T10:18:07Z</time>
      </trkpt>
      <trkpt lat="42.71685" lon="-0.22723">
        <ele>1756.7</ele>
        <time>2018-12-27T10:18:08Z</time>
      </trkpt>
      <trkpt lat="42.71685" lon="-0.22719">
        <ele>1757.5</ele>
        <time>2018-12-27T10:18:09Z</time>
      </trkpt>
      <trkpt lat="42.71685" lon="-0.22713">
        <ele>1758</ele>
        <time>2018-12-27T10:18:10Z</time>
      </trkpt>
      <trkpt lat="42.71687" lon="-0.22703">
        <ele>1758.8</ele>
        <time>2018-12-27T10:18:12Z</time>
      </trkpt>
      <trkpt lat="42.71689" lon="-0.22698">
        <ele>1758.4</ele>
        <time>2018-12-27T10:18:13Z</time>
      </trkpt>
      <trkpt lat="42.71691" lon="-0.22696">
        <ele>1757.4</ele>
        <time>2018-12-27T10:18:14Z</time>
      </trkpt>
      <trkpt lat="42.71694" lon="-0.22693">
        <ele>1755.9</ele>
        <time>2018-12-27T10:18:15Z</time>
      </trkpt>
      <trkpt lat="42.71698" lon="-0.22685">
        <ele>1754.2</ele>
        <time>2018-12-27T10:18:17Z</time>
      </trkpt>
      <trkpt lat="42.717" lon="-0.22679">
        <ele>1754.1</ele>
        <time>2018-12-27T10:18:18Z</time>
      </trkpt>
      <trkpt lat="42.71699" lon="-0.22673">
        <ele>1755.3</ele>
        <time>2018-12-27T10:18:19Z</time>
      </trkpt>
      <trkpt lat="42.71698" lon="-0.22669">
        <ele>1757.1</ele>
        <time>2018-12-27T10:18:20Z</time>
      </trkpt>
      <trkpt lat="42.71698" lon="-0.22664">
        <ele>1757.5</ele>
        <time>2018-12-27T10:18:21Z</time>
      </trkpt>
      <trkpt lat="42.71702" lon="-0.22654">
        <ele>1756.6</ele>
        <time>2018-12-27T10:18:23Z</time>
      </trkpt>
      <trkpt lat="42.71704" lon="-0.22644">
        <ele>1756.2</ele>
        <time>2018-12-27T10:18:25Z</time>
      </trkpt>
      <trkpt lat="42.71707" lon="-0.22629">
        <ele>1756.4</ele>
        <time>2018-12-27T10:18:28Z</time>
      </trkpt>
      <trkpt lat="42.71709" lon="-0.22614">
        <ele>1759.5</ele>
        <time>2018-12-27T10:18:31Z</time>
      </trkpt>
      <trkpt lat="42.7171" lon="-0.22599">
        <ele>1763.8</ele>
        <time>2018-12-27T10:18:34Z</time>
      </trkpt>
      <trkpt lat="42.71714" lon="-0.22589">
        <ele>1766</ele>
        <time>2018-12-27T10:18:36Z</time>
      </trkpt>
      <trkpt lat="42.71715" lon="-0.22589">
        <ele>1765.8</ele>
        <time>2018-12-27T10:18:37Z</time>
      </trkpt>
      <trkpt lat="42.7172" lon="-0.22585">
        <ele>1765.9</ele>
        <time>2018-12-27T10:18:38Z</time>
      </trkpt>
      <trkpt lat="42.71727" lon="-0.22581">
        <ele>1765.8</ele>
        <time>2018-12-27T10:18:40Z</time>
      </trkpt>
      <trkpt lat="42.7173" lon="-0.2258">
        <ele>1765.4</ele>
        <time>2018-12-27T10:18:41Z</time>
      </trkpt>
      <trkpt lat="42.71737" lon="-0.22579">
        <ele>1764</ele>
        <time>2018-12-27T10:18:43Z</time>
      </trkpt>
      <trkpt lat="42.7174" lon="-0.22574">
        <ele>1765</ele>
        <time>2018-12-27T10:18:44Z</time>
      </trkpt>
      <trkpt lat="42.71741" lon="-0.22571">
        <ele>1765.9</ele>
        <time>2018-12-27T10:18:45Z</time>
      </trkpt>
      <trkpt lat="42.71741" lon="-0.2257">
        <ele>1766.4</ele>
        <time>2018-12-27T10:18:45Z</time>
      </trkpt>
      <trkpt lat="42.71742" lon="-0.22565">
        <ele>1768</ele>
        <time>2018-12-27T10:18:46Z</time>
      </trkpt>
      <trkpt lat="42.71743" lon="-0.22561">
        <ele>1768.9</ele>
        <time>2018-12-27T10:18:47Z</time>
      </trkpt>
      <trkpt lat="42.71744" lon="-0.22556">
        <ele>1770.2</ele>
        <time>2018-12-27T10:18:48Z</time>
      </trkpt>
      <trkpt lat="42.71745" lon="-0.22553">
        <ele>1771.2</ele>
        <time>2018-12-27T10:18:49Z</time>
      </trkpt>
      <trkpt lat="42.71746" lon="-0.22549">
        <ele>1772.3</ele>
        <time>2018-12-27T10:18:49Z</time>
      </trkpt>
      <trkpt lat="42.71748" lon="-0.22544">
        <ele>1773.7</ele>
        <time>2018-12-27T10:18:51Z</time>
      </trkpt>
      <trkpt lat="42.7175" lon="-0.2254">
        <ele>1774.6</ele>
        <time>2018-12-27T10:18:51Z</time>
      </trkpt>
      <trkpt lat="42.71754" lon="-0.22532">
        <ele>1775.8</ele>
        <time>2018-12-27T10:18:53Z</time>
      </trkpt>
      <trkpt lat="42.71754" lon="-0.22526">
        <ele>1776.9</ele>
        <time>2018-12-27T10:18:54Z</time>
      </trkpt>
      <trkpt lat="42.71754" lon="-0.22525">
        <ele>1777.1</ele>
        <time>2018-12-27T10:18:55Z</time>
      </trkpt>
      <trkpt lat="42.71755" lon="-0.22523">
        <ele>1777.4</ele>
        <time>2018-12-27T10:18:55Z</time>
      </trkpt>
      <trkpt lat="42.71755" lon="-0.22521">
        <ele>1778</ele>
        <time>2018-12-27T10:18:56Z</time>
      </trkpt>
      <trkpt lat="42.71751" lon="-0.2252">
        <ele>1779</ele>
        <time>2018-12-27T10:18:57Z</time>
      </trkpt>
      <trkpt lat="42.71754" lon="-0.22516">
        <ele>1779.4</ele>
        <time>2018-12-27T10:18:58Z</time>
      </trkpt>
      <trkpt lat="42.71755" lon="-0.22515">
        <ele>1779.5</ele>
        <time>2018-12-27T10:18:58Z</time>
      </trkpt>
      <trkpt lat="42.71758" lon="-0.2251">
        <ele>1779.9</ele>
        <time>2018-12-27T10:18:59Z</time>
      </trkpt>
      <trkpt lat="42.7176" lon="-0.22504">
        <ele>1781.2</ele>
        <time>2018-12-27T10:19:01Z</time>
      </trkpt>
      <trkpt lat="42.71759" lon="-0.22496">
        <ele>1783.3</ele>
        <time>2018-12-27T10:19:02Z</time>
      </trkpt>
      <trkpt lat="42.71757" lon="-0.22493">
        <ele>1784.3</ele>
        <time>2018-12-27T10:19:03Z</time>
      </trkpt>
      <trkpt lat="42.7175" lon="-0.22484">
        <ele>1788</ele>
        <time>2018-12-27T10:19:06Z</time>
      </trkpt>
      <trkpt lat="42.71742" lon="-0.22471">
        <ele>1792.9</ele>
        <time>2018-12-27T10:19:09Z</time>
      </trkpt>
      <trkpt lat="42.71732" lon="-0.2246">
        <ele>1797.4</ele>
        <time>2018-12-27T10:19:12Z</time>
      </trkpt>
      <trkpt lat="42.71719" lon="-0.22446">
        <ele>1801.4</ele>
        <time>2018-12-27T10:19:17Z</time>
      </trkpt>
      <trkpt lat="42.71714" lon="-0.22429">
        <ele>1803.7</ele>
        <time>2018-12-27T10:19:20Z</time>
      </trkpt>
      <trkpt lat="42.7171" lon="-0.22415">
        <ele>1806.1</ele>
        <time>2018-12-27T10:19:23Z</time>
      </trkpt>
      <trkpt lat="42.71709" lon="-0.22405">
        <ele>1807.2</ele>
        <time>2018-12-27T10:19:25Z</time>
      </trkpt>
      <trkpt lat="42.71714" lon="-0.2239">
        <ele>1806.7</ele>
        <time>2018-12-27T10:19:28Z</time>
      </trkpt>
      <trkpt lat="42.71717" lon="-0.22376">
        <ele>1806.4</ele>
        <time>2018-12-27T10:19:31Z</time>
      </trkpt>
      <trkpt lat="42.71718" lon="-0.22374">
        <ele>1805.9</ele>
        <time>2018-12-27T10:19:32Z</time>
      </trkpt>
      <trkpt lat="42.71719" lon="-0.22371">
        <ele>1805.4</ele>
        <time>2018-12-27T10:19:32Z</time>
      </trkpt>
      <trkpt lat="42.7172" lon="-0.22363">
        <ele>1805.4</ele>
        <time>2018-12-27T10:19:34Z</time>
      </trkpt>
      <trkpt lat="42.7172" lon="-0.22361">
        <ele>1805.4</ele>
        <time>2018-12-27T10:19:35Z</time>
      </trkpt>
      <trkpt lat="42.71717" lon="-0.22345">
        <ele>1807.5</ele>
        <time>2018-12-27T10:19:38Z</time>
      </trkpt>
      <trkpt lat="42.71714" lon="-0.22331">
        <ele>1809.4</ele>
        <time>2018-12-27T10:19:41Z</time>
      </trkpt>
      <trkpt lat="42.71712" lon="-0.2231">
        <ele>1811</ele>
        <time>2018-12-27T10:19:45Z</time>
      </trkpt>
      <trkpt lat="42.71715" lon="-0.22297">
        <ele>1810.4</ele>
        <time>2018-12-27T10:19:47Z</time>
      </trkpt>
      <trkpt lat="42.71715" lon="-0.22286">
        <ele>1811.3</ele>
        <time>2018-12-27T10:19:49Z</time>
      </trkpt>
      <trkpt lat="42.71713" lon="-0.22278">
        <ele>1813.8</ele>
        <time>2018-12-27T10:19:51Z</time>
      </trkpt>
      <trkpt lat="42.71713" lon="-0.22269">
        <ele>1815.4</ele>
        <time>2018-12-27T10:19:53Z</time>
      </trkpt>
      <trkpt lat="42.71713" lon="-0.22266">
        <ele>1816</ele>
        <time>2018-12-27T10:19:53Z</time>
      </trkpt>
      <trkpt lat="42.71711" lon="-0.2225">
        <ele>1820.5</ele>
        <time>2018-12-27T10:19:57Z</time>
      </trkpt>
      <trkpt lat="42.71706" lon="-0.22242">
        <ele>1825</ele>
        <time>2018-12-27T10:19:59Z</time>
      </trkpt>
      <trkpt lat="42.71706" lon="-0.22241">
        <ele>1825.5</ele>
        <time>2018-12-27T10:19:59Z</time>
      </trkpt>
      <trkpt lat="42.71705" lon="-0.22228">
        <ele>1828.5</ele>
        <time>2018-12-27T10:20:01Z</time>
      </trkpt>
      <trkpt lat="42.71704" lon="-0.2221">
        <ele>1832.6</ele>
        <time>2018-12-27T10:20:05Z</time>
      </trkpt>
      <trkpt lat="42.71703" lon="-0.22192">
        <ele>1831.2</ele>
        <time>2018-12-27T10:20:09Z</time>
      </trkpt>
      <trkpt lat="42.71702" lon="-0.22178">
        <ele>1830.2</ele>
        <time>2018-12-27T10:20:11Z</time>
      </trkpt>
      <trkpt lat="42.71702" lon="-0.2217">
        <ele>1829</ele>
        <time>2018-12-27T10:20:13Z</time>
      </trkpt>
      <trkpt lat="42.71707" lon="-0.22159">
        <ele>1823.9</ele>
        <time>2018-12-27T10:20:15Z</time>
      </trkpt>
      <trkpt lat="42.71707" lon="-0.22145">
        <ele>1822.2</ele>
        <time>2018-12-27T10:20:18Z</time>
      </trkpt>
      <trkpt lat="42.71703" lon="-0.22129">
        <ele>1822.6</ele>
        <time>2018-12-27T10:20:21Z</time>
      </trkpt>
      <trkpt lat="42.71695" lon="-0.22116">
        <ele>1828.4</ele>
        <time>2018-12-27T10:20:25Z</time>
      </trkpt>
      <trkpt lat="42.71695" lon="-0.22111">
        <ele>1828.3</ele>
        <time>2018-12-27T10:20:26Z</time>
      </trkpt>
      <trkpt lat="42.71693" lon="-0.221">
        <ele>1829.4</ele>
        <time>2018-12-27T10:20:28Z</time>
      </trkpt>
      <trkpt lat="42.71696" lon="-0.22084">
        <ele>1826.5</ele>
        <time>2018-12-27T10:20:31Z</time>
      </trkpt>
      <trkpt lat="42.71695" lon="-0.22075">
        <ele>1826.3</ele>
        <time>2018-12-27T10:20:33Z</time>
      </trkpt>
      <trkpt lat="42.71694" lon="-0.22073">
        <ele>1826.9</ele>
        <time>2018-12-27T10:20:33Z</time>
      </trkpt>
      <trkpt lat="42.71695" lon="-0.22055">
        <ele>1825.4</ele>
        <time>2018-12-27T10:20:37Z</time>
      </trkpt>
      <trkpt lat="42.71692" lon="-0.22042">
        <ele>1826.7</ele>
        <time>2018-12-27T10:20:40Z</time>
      </trkpt>
      <trkpt lat="42.71689" lon="-0.22023">
        <ele>1827.8</ele>
        <time>2018-12-27T10:20:43Z</time>
      </trkpt>
      <trkpt lat="42.71684" lon="-0.22008">
        <ele>1829.8</ele>
        <time>2018-12-27T10:20:47Z</time>
      </trkpt>
      <trkpt lat="42.71679" lon="-0.21995">
        <ele>1832.2</ele>
        <time>2018-12-27T10:20:50Z</time>
      </trkpt>
      <trkpt lat="42.71676" lon="-0.21987">
        <ele>1833.7</ele>
        <time>2018-12-27T10:20:51Z</time>
      </trkpt>
      <trkpt lat="42.71674" lon="-0.21974">
        <ele>1833.8</ele>
        <time>2018-12-27T10:20:54Z</time>
      </trkpt>
      <trkpt lat="42.71674" lon="-0.2197">
        <ele>1833.5</ele>
        <time>2018-12-27T10:20:55Z</time>
      </trkpt>
      <trkpt lat="42.71675" lon="-0.21957">
        <ele>1832.2</ele>
        <time>2018-12-27T10:20:57Z</time>
      </trkpt>
      <trkpt lat="42.71673" lon="-0.21944">
        <ele>1832.1</ele>
        <time>2018-12-27T10:21:00Z</time>
      </trkpt>
      <trkpt lat="42.71671" lon="-0.21939">
        <ele>1833.1</ele>
        <time>2018-12-27T10:21:01Z</time>
      </trkpt>
      <trkpt lat="42.71672" lon="-0.21936">
        <ele>1832.6</ele>
        <time>2018-12-27T10:21:02Z</time>
      </trkpt>
      <trkpt lat="42.71671" lon="-0.21932">
        <ele>1832.7</ele>
        <time>2018-12-27T10:21:02Z</time>
      </trkpt>
      <trkpt lat="42.7167" lon="-0.21925">
        <ele>1832.3</ele>
        <time>2018-12-27T10:21:04Z</time>
      </trkpt>
      <trkpt lat="42.71668" lon="-0.21916">
        <ele>1833.1</ele>
        <time>2018-12-27T10:21:06Z</time>
      </trkpt>
      <trkpt lat="42.71667" lon="-0.21913">
        <ele>1833</ele>
        <time>2018-12-27T10:21:06Z</time>
      </trkpt>
      <trkpt lat="42.71668" lon="-0.21908">
        <ele>1832.6</ele>
        <time>2018-12-27T10:21:07Z</time>
      </trkpt>
      <trkpt lat="42.71669" lon="-0.21907">
        <ele>1831.9</ele>
        <time>2018-12-27T10:21:08Z</time>
      </trkpt>
      <trkpt lat="42.71669" lon="-0.219">
        <ele>1831.2</ele>
        <time>2018-12-27T10:21:09Z</time>
      </trkpt>
      <trkpt lat="42.71668" lon="-0.21899">
        <ele>1831.7</ele>
        <time>2018-12-27T10:21:09Z</time>
      </trkpt>
      <trkpt lat="42.71668" lon="-0.21898">
        <ele>1831.6</ele>
        <time>2018-12-27T10:21:10Z</time>
      </trkpt>
      <trkpt lat="42.71665" lon="-0.21894">
        <ele>1833.1</ele>
        <time>2018-12-27T10:21:11Z</time>
      </trkpt>
      <trkpt lat="42.71664" lon="-0.21893">
        <ele>1833.5</ele>
        <time>2018-12-27T10:21:11Z</time>
      </trkpt>
      <trkpt lat="42.71663" lon="-0.21891">
        <ele>1833.7</ele>
        <time>2018-12-27T10:21:12Z</time>
      </trkpt>
      <trkpt lat="42.71661" lon="-0.21887">
        <ele>1834.2</ele>
        <time>2018-12-27T10:21:12Z</time>
      </trkpt>
      <trkpt lat="42.7166" lon="-0.21884">
        <ele>1834.5</ele>
        <time>2018-12-27T10:21:13Z</time>
      </trkpt>
      <trkpt lat="42.71661" lon="-0.21883">
        <ele>1834.1</ele>
        <time>2018-12-27T10:21:13Z</time>
      </trkpt>
      <trkpt lat="42.71661" lon="-0.21882">
        <ele>1834.1</ele>
        <time>2018-12-27T10:21:14Z</time>
      </trkpt>
      <trkpt lat="42.7166" lon="-0.2188">
        <ele>1834.3</ele>
        <time>2018-12-27T10:21:14Z</time>
      </trkpt>
      <trkpt lat="42.71659" lon="-0.21878">
        <ele>1834.7</ele>
        <time>2018-12-27T10:21:14Z</time>
      </trkpt>
      <trkpt lat="42.71658" lon="-0.21878">
        <ele>1835.3</ele>
        <time>2018-12-27T10:21:15Z</time>
      </trkpt>
      <trkpt lat="42.71655" lon="-0.21876">
        <ele>1836.2</ele>
        <time>2018-12-27T10:21:15Z</time>
      </trkpt>
      <trkpt lat="42.71655" lon="-0.21876">
        <ele>1836.6</ele>
        <time>2018-12-27T10:21:16Z</time>
      </trkpt>
      <trkpt lat="42.71653" lon="-0.21868">
        <ele>1837.5</ele>
        <time>2018-12-27T10:21:17Z</time>
      </trkpt>
      <trkpt lat="42.71652" lon="-0.21863">
        <ele>1838</ele>
        <time>2018-12-27T10:21:18Z</time>
      </trkpt>
      <trkpt lat="42.71653" lon="-0.21858">
        <ele>1838</ele>
        <time>2018-12-27T10:21:19Z</time>
      </trkpt>
      <trkpt lat="42.71652" lon="-0.21856">
        <ele>1838.2</ele>
        <time>2018-12-27T10:21:20Z</time>
      </trkpt>
      <trkpt lat="42.71652" lon="-0.2185">
        <ele>1838.6</ele>
        <time>2018-12-27T10:21:21Z</time>
      </trkpt>
      <trkpt lat="42.7165" lon="-0.21842">
        <ele>1839.3</ele>
        <time>2018-12-27T10:21:22Z</time>
      </trkpt>
      <trkpt lat="42.71654" lon="-0.21838">
        <ele>1838</ele>
        <time>2018-12-27T10:21:24Z</time>
      </trkpt>
      <trkpt lat="42.71658" lon="-0.21833">
        <ele>1836.9</ele>
        <time>2018-12-27T10:21:25Z</time>
      </trkpt>
      <trkpt lat="42.71659" lon="-0.2183">
        <ele>1836.6</ele>
        <time>2018-12-27T10:21:26Z</time>
      </trkpt>
      <trkpt lat="42.71662" lon="-0.21828">
        <ele>1835.7</ele>
        <time>2018-12-27T10:21:27Z</time>
      </trkpt>
      <trkpt lat="42.71663" lon="-0.21825">
        <ele>1835.3</ele>
        <time>2018-12-27T10:21:27Z</time>
      </trkpt>
      <trkpt lat="42.71666" lon="-0.21822">
        <ele>1834.6</ele>
        <time>2018-12-27T10:21:28Z</time>
      </trkpt>
      <trkpt lat="42.71668" lon="-0.2182">
        <ele>1834.2</ele>
        <time>2018-12-27T10:21:29Z</time>
      </trkpt>
      <trkpt lat="42.7167" lon="-0.21817">
        <ele>1833.9</ele>
        <time>2018-12-27T10:21:30Z</time>
      </trkpt>
      <trkpt lat="42.71672" lon="-0.21816">
        <ele>1833.3</ele>
        <time>2018-12-27T10:21:30Z</time>
      </trkpt>
      <trkpt lat="42.71673" lon="-0.21812">
        <ele>1833.3</ele>
        <time>2018-12-27T10:21:31Z</time>
      </trkpt>
      <trkpt lat="42.71675" lon="-0.21811">
        <ele>1832.8</ele>
        <time>2018-12-27T10:21:32Z</time>
      </trkpt>
      <trkpt lat="42.71677" lon="-0.21808">
        <ele>1832.5</ele>
        <time>2018-12-27T10:21:32Z</time>
      </trkpt>
      <trkpt lat="42.71678" lon="-0.21803">
        <ele>1832.7</ele>
        <time>2018-12-27T10:21:33Z</time>
      </trkpt>
      <trkpt lat="42.7168" lon="-0.21802">
        <ele>1832.4</ele>
        <time>2018-12-27T10:21:34Z</time>
      </trkpt>
      <trkpt lat="42.71685" lon="-0.21801">
        <ele>1831.3</ele>
        <time>2018-12-27T10:21:35Z</time>
      </trkpt>
      <trkpt lat="42.71684" lon="-0.21796">
        <ele>1832</ele>
        <time>2018-12-27T10:21:36Z</time>
      </trkpt>
      <trkpt lat="42.71682" lon="-0.21785">
        <ele>1833.4</ele>
        <time>2018-12-27T10:21:38Z</time>
      </trkpt>
      <trkpt lat="42.71682" lon="-0.21782">
        <ele>1833.6</ele>
        <time>2018-12-27T10:21:39Z</time>
      </trkpt>
      <trkpt lat="42.71681" lon="-0.2176">
        <ele>1834.8</ele>
        <time>2018-12-27T10:21:43Z</time>
      </trkpt>
      <trkpt lat="42.71681" lon="-0.21741">
        <ele>1835.8</ele>
        <time>2018-12-27T10:21:47Z</time>
      </trkpt>
      <trkpt lat="42.71681" lon="-0.2172">
        <ele>1836.8</ele>
        <time>2018-12-27T10:21:51Z</time>
      </trkpt>
      <trkpt lat="42.7168" lon="-0.21695">
        <ele>1838.5</ele>
        <time>2018-12-27T10:21:56Z</time>
      </trkpt>
      <trkpt lat="42.71685" lon="-0.21674">
        <ele>1839.3</ele>
        <time>2018-12-27T10:22:00Z</time>
      </trkpt>
      <trkpt lat="42.71693" lon="-0.21657">
        <ele>1839.2</ele>
        <time>2018-12-27T10:22:04Z</time>
      </trkpt>
      <trkpt lat="42.71701" lon="-0.21637">
        <ele>1839</ele>
        <time>2018-12-27T10:22:09Z</time>
      </trkpt>
      <trkpt lat="42.71701" lon="-0.21623">
        <ele>1840.1</ele>
        <time>2018-12-27T10:22:11Z</time>
      </trkpt>
      <trkpt lat="42.71696" lon="-0.21609">
        <ele>1842.5</ele>
        <time>2018-12-27T10:22:14Z</time>
      </trkpt>
      <trkpt lat="42.71694" lon="-0.21597">
        <ele>1844.3</ele>
        <time>2018-12-27T10:22:17Z</time>
      </trkpt>
      <trkpt lat="42.71689" lon="-0.21582">
        <ele>1847</ele>
        <time>2018-12-27T10:22:20Z</time>
      </trkpt>
      <trkpt lat="42.71683" lon="-0.21571">
        <ele>1849.3</ele>
        <time>2018-12-27T10:22:23Z</time>
      </trkpt>
      <trkpt lat="42.71679" lon="-0.21559">
        <ele>1851.3</ele>
        <time>2018-12-27T10:22:25Z</time>
      </trkpt>
      <trkpt lat="42.71678" lon="-0.21538">
        <ele>1853.7</ele>
        <time>2018-12-27T10:22:29Z</time>
      </trkpt>
      <trkpt lat="42.71676" lon="-0.21523">
        <ele>1856.1</ele>
        <time>2018-12-27T10:22:33Z</time>
      </trkpt>
      <trkpt lat="42.71672" lon="-0.21507">
        <ele>1858.9</ele>
        <time>2018-12-27T10:22:36Z</time>
      </trkpt>
      <trkpt lat="42.71669" lon="-0.21498">
        <ele>1860.8</ele>
        <time>2018-12-27T10:22:38Z</time>
      </trkpt>
      <trkpt lat="42.71667" lon="-0.21491">
        <ele>1862.1</ele>
        <time>2018-12-27T10:22:39Z</time>
      </trkpt>
      <trkpt lat="42.7167" lon="-0.21483">
        <ele>1862.6</ele>
        <time>2018-12-27T10:22:41Z</time>
      </trkpt>
      <trkpt lat="42.71671" lon="-0.21474">
        <ele>1863.5</ele>
        <time>2018-12-27T10:22:43Z</time>
      </trkpt>
      <trkpt lat="42.7167" lon="-0.21473">
        <ele>1863.7</ele>
        <time>2018-12-27T10:22:43Z</time>
      </trkpt>
      <trkpt lat="42.71671" lon="-0.2147">
        <ele>1864.1</ele>
        <time>2018-12-27T10:22:44Z</time>
      </trkpt>
      <trkpt lat="42.71669" lon="-0.21465">
        <ele>1865.1</ele>
        <time>2018-12-27T10:22:45Z</time>
      </trkpt>
      <trkpt lat="42.71669" lon="-0.21463">
        <ele>1865.4</ele>
        <time>2018-12-27T10:22:45Z</time>
      </trkpt>
      <trkpt lat="42.71669" lon="-0.21462">
        <ele>1865.4</ele>
        <time>2018-12-27T10:22:45Z</time>
      </trkpt>
      <trkpt lat="42.7167" lon="-0.21457">
        <ele>1866</ele>
        <time>2018-12-27T10:22:46Z</time>
      </trkpt>
      <trkpt lat="42.7167" lon="-0.21456">
        <ele>1866.2</ele>
        <time>2018-12-27T10:22:47Z</time>
      </trkpt>
      <trkpt lat="42.71669" lon="-0.21452">
        <ele>1867.1</ele>
        <time>2018-12-27T10:22:47Z</time>
      </trkpt>
      <trkpt lat="42.71668" lon="-0.21444">
        <ele>1868.4</ele>
        <time>2018-12-27T10:22:49Z</time>
      </trkpt>
      <trkpt lat="42.7167" lon="-0.21431">
        <ele>1870.2</ele>
        <time>2018-12-27T10:22:52Z</time>
      </trkpt>
      <trkpt lat="42.71669" lon="-0.21415">
        <ele>1873</ele>
        <time>2018-12-27T10:22:55Z</time>
      </trkpt>
      <trkpt lat="42.71668" lon="-0.21406">
        <ele>1874.9</ele>
        <time>2018-12-27T10:22:56Z</time>
      </trkpt>
      <trkpt lat="42.71669" lon="-0.214">
        <ele>1875.7</ele>
        <time>2018-12-27T10:22:58Z</time>
      </trkpt>
      <trkpt lat="42.71667" lon="-0.21398">
        <ele>1876.5</ele>
        <time>2018-12-27T10:22:58Z</time>
      </trkpt>
      <trkpt lat="42.71666" lon="-0.21396">
        <ele>1877.5</ele>
        <time>2018-12-27T10:22:59Z</time>
      </trkpt>
      <trkpt lat="42.71665" lon="-0.21393">
        <ele>1878.1</ele>
        <time>2018-12-27T10:22:59Z</time>
      </trkpt>
      <trkpt lat="42.71665" lon="-0.21392">
        <ele>1878.4</ele>
        <time>2018-12-27T10:23:00Z</time>
      </trkpt>
      <trkpt lat="42.71662" lon="-0.21392">
        <ele>1879.1</ele>
        <time>2018-12-27T10:23:00Z</time>
      </trkpt>
      <trkpt lat="42.71662" lon="-0.21393">
        <ele>1879.3</ele>
        <time>2018-12-27T10:23:01Z</time>
      </trkpt>
      <trkpt lat="42.71661" lon="-0.21393">
        <ele>1879.4</ele>
        <time>2018-12-27T10:23:01Z</time>
      </trkpt>
      <trkpt lat="42.71658" lon="-0.21393">
        <ele>1880.3</ele>
        <time>2018-12-27T10:23:02Z</time>
      </trkpt>
      <trkpt lat="42.71657" lon="-0.21388">
        <ele>1881.7</ele>
        <time>2018-12-27T10:23:03Z</time>
      </trkpt>
      <trkpt lat="42.71654" lon="-0.21381">
        <ele>1884.1</ele>
        <time>2018-12-27T10:23:04Z</time>
      </trkpt>
      <trkpt lat="42.71652" lon="-0.21378">
        <ele>1885.1</ele>
        <time>2018-12-27T10:23:05Z</time>
      </trkpt>
      <trkpt lat="42.71651" lon="-0.21372">
        <ele>1886.8</ele>
        <time>2018-12-27T10:23:06Z</time>
      </trkpt>
      <trkpt lat="42.71649" lon="-0.21367">
        <ele>1888.8</ele>
        <time>2018-12-27T10:23:07Z</time>
      </trkpt>
      <trkpt lat="42.71644" lon="-0.21353">
        <ele>1893.5</ele>
        <time>2018-12-27T10:23:10Z</time>
      </trkpt>
      <trkpt lat="42.71642" lon="-0.21342">
        <ele>1897.1</ele>
        <time>2018-12-27T10:23:13Z</time>
      </trkpt>
      <trkpt lat="42.71639" lon="-0.21329">
        <ele>1901.4</ele>
        <time>2018-12-27T10:23:15Z</time>
      </trkpt>
      <trkpt lat="42.71636" lon="-0.21319">
        <ele>1904.5</ele>
        <time>2018-12-27T10:23:17Z</time>
      </trkpt>
      <trkpt lat="42.71634" lon="-0.21312">
        <ele>1906.9</ele>
        <time>2018-12-27T10:23:19Z</time>
      </trkpt>
      <trkpt lat="42.71634" lon="-0.21311">
        <ele>1907.1</ele>
        <time>2018-12-27T10:23:19Z</time>
      </trkpt>
      <trkpt lat="42.71634" lon="-0.21303">
        <ele>1909.2</ele>
        <time>2018-12-27T10:23:21Z</time>
      </trkpt>
      <trkpt lat="42.71635" lon="-0.21299">
        <ele>1909.7</ele>
        <time>2018-12-27T10:23:21Z</time>
      </trkpt>
      <trkpt lat="42.71641" lon="-0.21293">
        <ele>1909.3</ele>
        <time>2018-12-27T10:23:23Z</time>
      </trkpt>
      <trkpt lat="42.71643" lon="-0.21288">
        <ele>1908.5</ele>
        <time>2018-12-27T10:23:24Z</time>
      </trkpt>
      <trkpt lat="42.71647" lon="-0.21287">
        <ele>1907.2</ele>
        <time>2018-12-27T10:23:25Z</time>
      </trkpt>
      <trkpt lat="42.71648" lon="-0.21284">
        <ele>1906.8</ele>
        <time>2018-12-27T10:23:26Z</time>
      </trkpt>
      <trkpt lat="42.71648" lon="-0.21282">
        <ele>1906.6</ele>
        <time>2018-12-27T10:23:26Z</time>
      </trkpt>
      <trkpt lat="42.71649" lon="-0.21276">
        <ele>1906</ele>
        <time>2018-12-27T10:23:28Z</time>
      </trkpt>
      <trkpt lat="42.71649" lon="-0.21271">
        <ele>1905.8</ele>
        <time>2018-12-27T10:23:28Z</time>
      </trkpt>
      <trkpt lat="42.71646" lon="-0.21261">
        <ele>1906.1</ele>
        <time>2018-12-27T10:23:31Z</time>
      </trkpt>
      <trkpt lat="42.71648" lon="-0.21251">
        <ele>1905.2</ele>
        <time>2018-12-27T10:23:33Z</time>
      </trkpt>
      <trkpt lat="42.7165" lon="-0.21242">
        <ele>1904.2</ele>
        <time>2018-12-27T10:23:35Z</time>
      </trkpt>
      <trkpt lat="42.71651" lon="-0.21238">
        <ele>1904</ele>
        <time>2018-12-27T10:23:35Z</time>
      </trkpt>
      <trkpt lat="42.71649" lon="-0.21234">
        <ele>1904</ele>
        <time>2018-12-27T10:23:36Z</time>
      </trkpt>
      <trkpt lat="42.71649" lon="-0.21232">
        <ele>1904</ele>
        <time>2018-12-27T10:23:37Z</time>
      </trkpt>
      <trkpt lat="42.71648" lon="-0.21231">
        <ele>1904.1</ele>
        <time>2018-12-27T10:23:37Z</time>
      </trkpt>
      <trkpt lat="42.71647" lon="-0.21223">
        <ele>1903.7</ele>
        <time>2018-12-27T10:23:38Z</time>
      </trkpt>
      <trkpt lat="42.71645" lon="-0.21213">
        <ele>1903.3</ele>
        <time>2018-12-27T10:23:40Z</time>
      </trkpt>
      <trkpt lat="42.71646" lon="-0.21204">
        <ele>1903</ele>
        <time>2018-12-27T10:23:42Z</time>
      </trkpt>
      <trkpt lat="42.71646" lon="-0.21201">
        <ele>1903.1</ele>
        <time>2018-12-27T10:23:43Z</time>
      </trkpt>
      <trkpt lat="42.71646" lon="-0.2119">
        <ele>1903</ele>
        <time>2018-12-27T10:23:45Z</time>
      </trkpt>
      <trkpt lat="42.71641" lon="-0.2118">
        <ele>1902.9</ele>
        <time>2018-12-27T10:23:47Z</time>
      </trkpt>
      <trkpt lat="42.71637" lon="-0.21171">
        <ele>1902.5</ele>
        <time>2018-12-27T10:23:49Z</time>
      </trkpt>
      <trkpt lat="42.71632" lon="-0.2116">
        <ele>1901.7</ele>
        <time>2018-12-27T10:23:52Z</time>
      </trkpt>
      <trkpt lat="42.71629" lon="-0.2115">
        <ele>1901</ele>
        <time>2018-12-27T10:23:54Z</time>
      </trkpt>
      <trkpt lat="42.71627" lon="-0.21141">
        <ele>1900.2</ele>
        <time>2018-12-27T10:23:56Z</time>
      </trkpt>
      <trkpt lat="42.71626" lon="-0.21139">
        <ele>1900</ele>
        <time>2018-12-27T10:23:56Z</time>
      </trkpt>
      <trkpt lat="42.71624" lon="-0.2113">
        <ele>1899.7</ele>
        <time>2018-12-27T10:23:58Z</time>
      </trkpt>
      <trkpt lat="42.71621" lon="-0.21122">
        <ele>1901.1</ele>
        <time>2018-12-27T10:24:00Z</time>
      </trkpt>
      <trkpt lat="42.7162" lon="-0.21118">
        <ele>1901.8</ele>
        <time>2018-12-27T10:24:01Z</time>
      </trkpt>
      <trkpt lat="42.7162" lon="-0.21111">
        <ele>1902.5</ele>
        <time>2018-12-27T10:24:02Z</time>
      </trkpt>
      <trkpt lat="42.71623" lon="-0.211">
        <ele>1902.4</ele>
        <time>2018-12-27T10:24:04Z</time>
      </trkpt>
      <trkpt lat="42.71628" lon="-0.21094">
        <ele>1903.1</ele>
        <time>2018-12-27T10:24:06Z</time>
      </trkpt>
      <trkpt lat="42.7163" lon="-0.21088">
        <ele>1904.3</ele>
        <time>2018-12-27T10:24:08Z</time>
      </trkpt>
      <trkpt lat="42.71632" lon="-0.21087">
        <ele>1904.8</ele>
        <time>2018-12-27T10:24:08Z</time>
      </trkpt>
      <trkpt lat="42.71637" lon="-0.21085">
        <ele>1906.3</ele>
        <time>2018-12-27T10:24:09Z</time>
      </trkpt>
      <trkpt lat="42.7164" lon="-0.21083">
        <ele>1907.3</ele>
        <time>2018-12-27T10:24:10Z</time>
      </trkpt>
      <trkpt lat="42.71641" lon="-0.21081">
        <ele>1907.6</ele>
        <time>2018-12-27T10:24:11Z</time>
      </trkpt>
      <trkpt lat="42.71644" lon="-0.21081">
        <ele>1908.5</ele>
        <time>2018-12-27T10:24:11Z</time>
      </trkpt>
      <trkpt lat="42.71645" lon="-0.2108">
        <ele>1908.9</ele>
        <time>2018-12-27T10:24:12Z</time>
      </trkpt>
      <trkpt lat="42.71647" lon="-0.21081">
        <ele>1909.1</ele>
        <time>2018-12-27T10:24:12Z</time>
      </trkpt>
      <trkpt lat="42.71648" lon="-0.21081">
        <ele>1909.5</ele>
        <time>2018-12-27T10:24:13Z</time>
      </trkpt>
      <trkpt lat="42.71652" lon="-0.21076">
        <ele>1911.2</ele>
        <time>2018-12-27T10:24:14Z</time>
      </trkpt>
      <trkpt lat="42.71654" lon="-0.2107">
        <ele>1912.7</ele>
        <time>2018-12-27T10:24:16Z</time>
      </trkpt>
      <trkpt lat="42.71659" lon="-0.21066">
        <ele>1914.6</ele>
        <time>2018-12-27T10:24:17Z</time>
      </trkpt>
      <trkpt lat="42.7166" lon="-0.21066">
        <ele>1914.9</ele>
        <time>2018-12-27T10:24:17Z</time>
      </trkpt>
      <trkpt lat="42.71662" lon="-0.21062">
        <ele>1915.9</ele>
        <time>2018-12-27T10:24:18Z</time>
      </trkpt>
      <trkpt lat="42.71662" lon="-0.21059">
        <ele>1916.6</ele>
        <time>2018-12-27T10:24:19Z</time>
      </trkpt>
      <trkpt lat="42.71662" lon="-0.21055">
        <ele>1916.9</ele>
        <time>2018-12-27T10:24:20Z</time>
      </trkpt>
      <trkpt lat="42.71661" lon="-0.21051">
        <ele>1917.4</ele>
        <time>2018-12-27T10:24:20Z</time>
      </trkpt>
      <trkpt lat="42.71662" lon="-0.21039">
        <ele>1919.7</ele>
        <time>2018-12-27T10:24:23Z</time>
      </trkpt>
      <trkpt lat="42.71664" lon="-0.21038">
        <ele>1920.3</ele>
        <time>2018-12-27T10:24:23Z</time>
      </trkpt>
      <trkpt lat="42.71668" lon="-0.21035">
        <ele>1922</ele>
        <time>2018-12-27T10:24:24Z</time>
      </trkpt>
      <trkpt lat="42.7167" lon="-0.21031">
        <ele>1923.2</ele>
        <time>2018-12-27T10:24:25Z</time>
      </trkpt>
      <trkpt lat="42.71671" lon="-0.21027">
        <ele>1924.4</ele>
        <time>2018-12-27T10:24:26Z</time>
      </trkpt>
      <trkpt lat="42.71673" lon="-0.2102">
        <ele>1926.3</ele>
        <time>2018-12-27T10:24:28Z</time>
      </trkpt>
      <trkpt lat="42.71673" lon="-0.2101">
        <ele>1927.8</ele>
        <time>2018-12-27T10:24:30Z</time>
      </trkpt>
      <trkpt lat="42.71669" lon="-0.21001">
        <ele>1928.3</ele>
        <time>2018-12-27T10:24:32Z</time>
      </trkpt>
      <trkpt lat="42.71667" lon="-0.20996">
        <ele>1928.6</ele>
        <time>2018-12-27T10:24:33Z</time>
      </trkpt>
      <trkpt lat="42.7167" lon="-0.20991">
        <ele>1930.2</ele>
        <time>2018-12-27T10:24:34Z</time>
      </trkpt>
      <trkpt lat="42.71672" lon="-0.20987">
        <ele>1931.7</ele>
        <time>2018-12-27T10:24:35Z</time>
      </trkpt>
      <trkpt lat="42.71679" lon="-0.20983">
        <ele>1934.1</ele>
        <time>2018-12-27T10:24:37Z</time>
      </trkpt>
      <trkpt lat="42.7168" lon="-0.20981">
        <ele>1934.7</ele>
        <time>2018-12-27T10:24:38Z</time>
      </trkpt>
      <trkpt lat="42.71681" lon="-0.20978">
        <ele>1935.5</ele>
        <time>2018-12-27T10:24:38Z</time>
      </trkpt>
      <trkpt lat="42.71685" lon="-0.20976">
        <ele>1937</ele>
        <time>2018-12-27T10:24:39Z</time>
      </trkpt>
      <trkpt lat="42.71686" lon="-0.20974">
        <ele>1937.4</ele>
        <time>2018-12-27T10:24:40Z</time>
      </trkpt>
      <trkpt lat="42.71687" lon="-0.20971">
        <ele>1938.2</ele>
        <time>2018-12-27T10:24:40Z</time>
      </trkpt>
      <trkpt lat="42.71687" lon="-0.2097">
        <ele>1938.6</ele>
        <time>2018-12-27T10:24:41Z</time>
      </trkpt>
      <trkpt lat="42.71688" lon="-0.20969">
        <ele>1939</ele>
        <time>2018-12-27T10:24:41Z</time>
      </trkpt>
      <trkpt lat="42.7169" lon="-0.20966">
        <ele>1940.1</ele>
        <time>2018-12-27T10:24:42Z</time>
      </trkpt>
      <trkpt lat="42.71691" lon="-0.20964">
        <ele>1940.5</ele>
        <time>2018-12-27T10:24:42Z</time>
      </trkpt>
      <trkpt lat="42.7169" lon="-0.20961">
        <ele>1940.7</ele>
        <time>2018-12-27T10:24:43Z</time>
      </trkpt>
      <trkpt lat="42.71688" lon="-0.20961">
        <ele>1940.3</ele>
        <time>2018-12-27T10:24:43Z</time>
      </trkpt>
      <trkpt lat="42.71683" lon="-0.20959">
        <ele>1939.2</ele>
        <time>2018-12-27T10:24:45Z</time>
      </trkpt>
      <trkpt lat="42.71675" lon="-0.20958">
        <ele>1937.3</ele>
        <time>2018-12-27T10:24:47Z</time>
      </trkpt>
      <trkpt lat="42.71673" lon="-0.20956">
        <ele>1937.5</ele>
        <time>2018-12-27T10:24:47Z</time>
      </trkpt>
      <trkpt lat="42.71672" lon="-0.20955">
        <ele>1937.7</ele>
        <time>2018-12-27T10:24:48Z</time>
      </trkpt>
      <trkpt lat="42.71673" lon="-0.20953">
        <ele>1938.4</ele>
        <time>2018-12-27T10:24:48Z</time>
      </trkpt>
      <trkpt lat="42.7167" lon="-0.20951">
        <ele>1938.9</ele>
        <time>2018-12-27T10:24:49Z</time>
      </trkpt>
      <trkpt lat="42.71666" lon="-0.20949">
        <ele>1938.4</ele>
        <time>2018-12-27T10:24:50Z</time>
      </trkpt>
      <trkpt lat="42.71661" lon="-0.20945">
        <ele>1938.7</ele>
        <time>2018-12-27T10:24:52Z</time>
      </trkpt>
      <trkpt lat="42.71658" lon="-0.20943">
        <ele>1939</ele>
        <time>2018-12-27T10:24:52Z</time>
      </trkpt>
      <trkpt lat="42.71658" lon="-0.20941">
        <ele>1939.6</ele>
        <time>2018-12-27T10:24:53Z</time>
      </trkpt>
      <trkpt lat="42.71657" lon="-0.20939">
        <ele>1940.4</ele>
        <time>2018-12-27T10:24:53Z</time>
      </trkpt>
      <trkpt lat="42.71657" lon="-0.20937">
        <ele>1941</ele>
        <time>2018-12-27T10:24:54Z</time>
      </trkpt>
      <trkpt lat="42.71655" lon="-0.20934">
        <ele>1942.1</ele>
        <time>2018-12-27T10:24:54Z</time>
      </trkpt>
      <trkpt lat="42.71655" lon="-0.20932">
        <ele>1943</ele>
        <time>2018-12-27T10:24:55Z</time>
      </trkpt>
      <trkpt lat="42.71654" lon="-0.20929">
        <ele>1943.5</ele>
        <time>2018-12-27T10:24:55Z</time>
      </trkpt>
      <trkpt lat="42.71652" lon="-0.20927">
        <ele>1944.2</ele>
        <time>2018-12-27T10:24:56Z</time>
      </trkpt>
      <trkpt lat="42.71651" lon="-0.20921">
        <ele>1946.4</ele>
        <time>2018-12-27T10:24:57Z</time>
      </trkpt>
      <trkpt lat="42.71649" lon="-0.20917">
        <ele>1947.6</ele>
        <time>2018-12-27T10:24:58Z</time>
      </trkpt>
      <trkpt lat="42.71645" lon="-0.20911">
        <ele>1949.3</ele>
        <time>2018-12-27T10:25:00Z</time>
      </trkpt>
      <trkpt lat="42.71646" lon="-0.20908">
        <ele>1950.7</ele>
        <time>2018-12-27T10:25:00Z</time>
      </trkpt>
      <trkpt lat="42.71648" lon="-0.20908">
        <ele>1951.3</ele>
        <time>2018-12-27T10:25:01Z</time>
      </trkpt>
      <trkpt lat="42.71649" lon="-0.20908">
        <ele>1951.5</ele>
        <time>2018-12-27T10:25:01Z</time>
      </trkpt>
      <trkpt lat="42.71653" lon="-0.20907">
        <ele>1952.5</ele>
        <time>2018-12-27T10:25:02Z</time>
      </trkpt>
      <trkpt lat="42.71658" lon="-0.20909">
        <ele>1952.8</ele>
        <time>2018-12-27T10:25:04Z</time>
      </trkpt>
      <trkpt lat="42.71663" lon="-0.20908">
        <ele>1953.9</ele>
        <time>2018-12-27T10:25:05Z</time>
      </trkpt>
      <trkpt lat="42.71664" lon="-0.20904">
        <ele>1955.8</ele>
        <time>2018-12-27T10:25:06Z</time>
      </trkpt>
      <trkpt lat="42.71664" lon="-0.20903">
        <ele>1956.3</ele>
        <time>2018-12-27T10:25:06Z</time>
      </trkpt>
      <trkpt lat="42.71661" lon="-0.20895">
        <ele>1958.8</ele>
        <time>2018-12-27T10:25:08Z</time>
      </trkpt>
      <trkpt lat="42.7166" lon="-0.20895">
        <ele>1958.8</ele>
        <time>2018-12-27T10:25:08Z</time>
      </trkpt>
      <trkpt lat="42.71656" lon="-0.20894">
        <ele>1958.6</ele>
        <time>2018-12-27T10:25:09Z</time>
      </trkpt>
      <trkpt lat="42.71653" lon="-0.20888">
        <ele>1960.1</ele>
        <time>2018-12-27T10:25:10Z</time>
      </trkpt>
      <trkpt lat="42.71652" lon="-0.20889">
        <ele>1960.1</ele>
        <time>2018-12-27T10:25:11Z</time>
      </trkpt>
      <trkpt lat="42.71651" lon="-0.20888">
        <ele>1959.9</ele>
        <time>2018-12-27T10:25:11Z</time>
      </trkpt>
      <trkpt lat="42.7165" lon="-0.20887">
        <ele>1960.3</ele>
        <time>2018-12-27T10:25:11Z</time>
      </trkpt>
      <trkpt lat="42.71647" lon="-0.20883">
        <ele>1961.7</ele>
        <time>2018-12-27T10:25:13Z</time>
      </trkpt>
      <trkpt lat="42.71641" lon="-0.20879">
        <ele>1962.6</ele>
        <time>2018-12-27T10:25:14Z</time>
      </trkpt>
      <trkpt lat="42.71641" lon="-0.20878">
        <ele>1962.9</ele>
        <time>2018-12-27T10:25:14Z</time>
      </trkpt>
      <trkpt lat="42.71639" lon="-0.20875">
        <ele>1963.8</ele>
        <time>2018-12-27T10:25:15Z</time>
      </trkpt>
      <trkpt lat="42.71637" lon="-0.20872">
        <ele>1964.9</ele>
        <time>2018-12-27T10:25:16Z</time>
      </trkpt>
      <trkpt lat="42.71637" lon="-0.20872">
        <ele>1965</ele>
        <time>2018-12-27T10:25:16Z</time>
      </trkpt>
      <trkpt lat="42.71639" lon="-0.20867">
        <ele>1967.5</ele>
        <time>2018-12-27T10:25:17Z</time>
      </trkpt>
      <trkpt lat="42.71637" lon="-0.20863">
        <ele>1969.3</ele>
        <time>2018-12-27T10:25:18Z</time>
      </trkpt>
      <trkpt lat="42.71634" lon="-0.20862">
        <ele>1969.5</ele>
        <time>2018-12-27T10:25:19Z</time>
      </trkpt>
      <trkpt lat="42.71631" lon="-0.20861">
        <ele>1969.6</ele>
        <time>2018-12-27T10:25:20Z</time>
      </trkpt>
      <trkpt lat="42.7163" lon="-0.2086">
        <ele>1969.5</ele>
        <time>2018-12-27T10:25:20Z</time>
      </trkpt>
      <trkpt lat="42.71629" lon="-0.20859">
        <ele>1970</ele>
        <time>2018-12-27T10:25:20Z</time>
      </trkpt>
      <trkpt lat="42.71627" lon="-0.20858">
        <ele>1970.2</ele>
        <time>2018-12-27T10:25:21Z</time>
      </trkpt>
      <trkpt lat="42.71622" lon="-0.20853">
        <ele>1971.4</ele>
        <time>2018-12-27T10:25:23Z</time>
      </trkpt>
      <trkpt lat="42.7162" lon="-0.20848">
        <ele>1973.3</ele>
        <time>2018-12-27T10:25:24Z</time>
      </trkpt>
      <trkpt lat="42.71618" lon="-0.20846">
        <ele>1973.8</ele>
        <time>2018-12-27T10:25:24Z</time>
      </trkpt>
      <trkpt lat="42.71617" lon="-0.20845">
        <ele>1973.9</ele>
        <time>2018-12-27T10:25:25Z</time>
      </trkpt>
      <trkpt lat="42.71612" lon="-0.20839">
        <ele>1975.8</ele>
        <time>2018-12-27T10:25:26Z</time>
      </trkpt>
      <trkpt lat="42.7161" lon="-0.20837">
        <ele>1976</ele>
        <time>2018-12-27T10:25:27Z</time>
      </trkpt>
      <trkpt lat="42.71609" lon="-0.20835">
        <ele>1977</ele>
        <time>2018-12-27T10:25:28Z</time>
      </trkpt>
      <trkpt lat="42.71608" lon="-0.20834">
        <ele>1977.1</ele>
        <time>2018-12-27T10:25:28Z</time>
      </trkpt>
      <trkpt lat="42.71603" lon="-0.2083">
        <ele>1977.8</ele>
        <time>2018-12-27T10:25:30Z</time>
      </trkpt>
      <trkpt lat="42.71597" lon="-0.20826">
        <ele>1978.4</ele>
        <time>2018-12-27T10:25:31Z</time>
      </trkpt>
      <trkpt lat="42.71597" lon="-0.20826">
        <ele>1978.1</ele>
        <time>2018-12-27T10:25:31Z</time>
      </trkpt>
      <trkpt lat="42.71595" lon="-0.20822">
        <ele>1979.8</ele>
        <time>2018-12-27T10:25:32Z</time>
      </trkpt>
      <trkpt lat="42.71595" lon="-0.20819">
        <ele>1981.1</ele>
        <time>2018-12-27T10:25:33Z</time>
      </trkpt>
      <trkpt lat="42.71595" lon="-0.20817">
        <ele>1982.2</ele>
        <time>2018-12-27T10:25:33Z</time>
      </trkpt>
      <trkpt lat="42.71593" lon="-0.20815">
        <ele>1982.8</ele>
        <time>2018-12-27T10:25:34Z</time>
      </trkpt>
      <trkpt lat="42.71592" lon="-0.20815">
        <ele>1982.3</ele>
        <time>2018-12-27T10:25:34Z</time>
      </trkpt>
      <trkpt lat="42.71589" lon="-0.20813">
        <ele>1983.1</ele>
        <time>2018-12-27T10:25:35Z</time>
      </trkpt>
      <trkpt lat="42.71585" lon="-0.20812">
        <ele>1982.5</ele>
        <time>2018-12-27T10:25:36Z</time>
      </trkpt>
      <trkpt lat="42.71587" lon="-0.20808">
        <ele>1984.8</ele>
        <time>2018-12-27T10:25:37Z</time>
      </trkpt>
      <trkpt lat="42.71584" lon="-0.20806">
        <ele>1985.2</ele>
        <time>2018-12-27T10:25:38Z</time>
      </trkpt>
      <trkpt lat="42.71579" lon="-0.20807">
        <ele>1984.1</ele>
        <time>2018-12-27T10:25:39Z</time>
      </trkpt>
      <trkpt lat="42.71579" lon="-0.20806">
        <ele>1984.2</ele>
        <time>2018-12-27T10:25:40Z</time>
      </trkpt>
      <trkpt lat="42.71577" lon="-0.208">
        <ele>1987</ele>
        <time>2018-12-27T10:25:41Z</time>
      </trkpt>
      <trkpt lat="42.71577" lon="-0.208">
        <ele>1987.1</ele>
        <time>2018-12-27T10:25:41Z</time>
      </trkpt>
      <trkpt lat="42.71574" lon="-0.20801">
        <ele>1985.6</ele>
        <time>2018-12-27T10:25:42Z</time>
      </trkpt>
      <trkpt lat="42.71569" lon="-0.20802">
        <ele>1984.2</ele>
        <time>2018-12-27T10:25:43Z</time>
      </trkpt>
      <trkpt lat="42.71564" lon="-0.208">
        <ele>1983.9</ele>
        <time>2018-12-27T10:25:44Z</time>
      </trkpt>
      <trkpt lat="42.71564" lon="-0.20795">
        <ele>1986.7</ele>
        <time>2018-12-27T10:25:45Z</time>
      </trkpt>
      <trkpt lat="42.71565" lon="-0.20789">
        <ele>1990.3</ele>
        <time>2018-12-27T10:25:47Z</time>
      </trkpt>
      <trkpt lat="42.71559" lon="-0.20791">
        <ele>1988</ele>
        <time>2018-12-27T10:25:48Z</time>
      </trkpt>
      <trkpt lat="42.71557" lon="-0.20792">
        <ele>1987.1</ele>
        <time>2018-12-27T10:25:49Z</time>
      </trkpt>
      <trkpt lat="42.71553" lon="-0.20791">
        <ele>1986.6</ele>
        <time>2018-12-27T10:25:50Z</time>
      </trkpt>
      <trkpt lat="42.71551" lon="-0.2079">
        <ele>1987</ele>
        <time>2018-12-27T10:25:51Z</time>
      </trkpt>
      <trkpt lat="42.7155" lon="-0.2079">
        <ele>1986.6</ele>
        <time>2018-12-27T10:25:51Z</time>
      </trkpt>
      <trkpt lat="42.71544" lon="-0.20789">
        <ele>1985.8</ele>
        <time>2018-12-27T10:25:53Z</time>
      </trkpt>
      <trkpt lat="42.71541" lon="-0.20787">
        <ele>1986.5</ele>
        <time>2018-12-27T10:25:53Z</time>
      </trkpt>
      <trkpt lat="42.71541" lon="-0.20785">
        <ele>1987.7</ele>
        <time>2018-12-27T10:25:54Z</time>
      </trkpt>
      <trkpt lat="42.71544" lon="-0.2078">
        <ele>1990.9</ele>
        <time>2018-12-27T10:25:55Z</time>
      </trkpt>
      <trkpt lat="42.71546" lon="-0.20774">
        <ele>1995.1</ele>
        <time>2018-12-27T10:25:56Z</time>
      </trkpt>
      <trkpt lat="42.7154" lon="-0.20774">
        <ele>1993.9</ele>
        <time>2018-12-27T10:25:58Z</time>
      </trkpt>
      <trkpt lat="42.71539" lon="-0.20773">
        <ele>1993.9</ele>
        <time>2018-12-27T10:25:58Z</time>
      </trkpt>
      <trkpt lat="42.71539" lon="-0.20769">
        <ele>1995.7</ele>
        <time>2018-12-27T10:25:59Z</time>
      </trkpt>
      <trkpt lat="42.71538" lon="-0.20768">
        <ele>1996.5</ele>
        <time>2018-12-27T10:25:59Z</time>
      </trkpt>
      <trkpt lat="42.71534" lon="-0.20769">
        <ele>1994.3</ele>
        <time>2018-12-27T10:26:00Z</time>
      </trkpt>
      <trkpt lat="42.71531" lon="-0.2077">
        <ele>1993</ele>
        <time>2018-12-27T10:26:01Z</time>
      </trkpt>
      <trkpt lat="42.71525" lon="-0.2077">
        <ele>1990.6</ele>
        <time>2018-12-27T10:26:03Z</time>
      </trkpt>
      <trkpt lat="42.71525" lon="-0.20769">
        <ele>1991.2</ele>
        <time>2018-12-27T10:26:03Z</time>
      </trkpt>
      <trkpt lat="42.71523" lon="-0.20763">
        <ele>1994</ele>
        <time>2018-12-27T10:26:04Z</time>
      </trkpt>
      <trkpt lat="42.71514" lon="-0.20766">
        <ele>1989</ele>
        <time>2018-12-27T10:26:07Z</time>
      </trkpt>
      <trkpt lat="42.71511" lon="-0.20763">
        <ele>1989.5</ele>
        <time>2018-12-27T10:26:08Z</time>
      </trkpt>
      <trkpt lat="42.71511" lon="-0.20762">
        <ele>1990.3</ele>
        <time>2018-12-27T10:26:08Z</time>
      </trkpt>
      <trkpt lat="42.71511" lon="-0.2076">
        <ele>1991.4</ele>
        <time>2018-12-27T10:26:09Z</time>
      </trkpt>
      <trkpt lat="42.7151" lon="-0.20755">
        <ele>1993.7</ele>
        <time>2018-12-27T10:26:10Z</time>
      </trkpt>
      <trkpt lat="42.71503" lon="-0.20755">
        <ele>1991.3</ele>
        <time>2018-12-27T10:26:11Z</time>
      </trkpt>
      <trkpt lat="42.71501" lon="-0.20756">
        <ele>1990.1</ele>
        <time>2018-12-27T10:26:12Z</time>
      </trkpt>
      <trkpt lat="42.715" lon="-0.20755">
        <ele>1989.8</ele>
        <time>2018-12-27T10:26:12Z</time>
      </trkpt>
      <trkpt lat="42.71496" lon="-0.20752">
        <ele>1990</ele>
        <time>2018-12-27T10:26:13Z</time>
      </trkpt>
      <trkpt lat="42.71496" lon="-0.2075">
        <ele>1991.5</ele>
        <time>2018-12-27T10:26:14Z</time>
      </trkpt>
      <trkpt lat="42.71497" lon="-0.20749">
        <ele>1992.4</ele>
        <time>2018-12-27T10:26:14Z</time>
      </trkpt>
      <trkpt lat="42.71497" lon="-0.20748">
        <ele>1992.7</ele>
        <time>2018-12-27T10:26:14Z</time>
      </trkpt>
      <trkpt lat="42.71493" lon="-0.20747">
        <ele>1991.8</ele>
        <time>2018-12-27T10:26:15Z</time>
      </trkpt>
      <trkpt lat="42.71491" lon="-0.20743">
        <ele>1993.2</ele>
        <time>2018-12-27T10:26:16Z</time>
      </trkpt>
      <trkpt lat="42.71491" lon="-0.2074">
        <ele>1994.7</ele>
        <time>2018-12-27T10:26:17Z</time>
      </trkpt>
      <trkpt lat="42.7149" lon="-0.20738">
        <ele>1995.6</ele>
        <time>2018-12-27T10:26:17Z</time>
      </trkpt>
      <trkpt lat="42.71488" lon="-0.20737">
        <ele>1995.7</ele>
        <time>2018-12-27T10:26:18Z</time>
      </trkpt>
      <trkpt lat="42.71486" lon="-0.20735">
        <ele>1995.6</ele>
        <time>2018-12-27T10:26:19Z</time>
      </trkpt>
      <trkpt lat="42.71483" lon="-0.20732">
        <ele>1995.9</ele>
        <time>2018-12-27T10:26:20Z</time>
      </trkpt>
      <trkpt lat="42.71477" lon="-0.20733">
        <ele>1993.6</ele>
        <time>2018-12-27T10:26:21Z</time>
      </trkpt>
      <trkpt lat="42.71477" lon="-0.20728">
        <ele>1996</ele>
        <time>2018-12-27T10:26:22Z</time>
      </trkpt>
      <trkpt lat="42.71474" lon="-0.20728">
        <ele>1994.4</ele>
        <time>2018-12-27T10:26:23Z</time>
      </trkpt>
      <trkpt lat="42.71472" lon="-0.20729">
        <ele>1993.5</ele>
        <time>2018-12-27T10:26:24Z</time>
      </trkpt>
      <trkpt lat="42.7147" lon="-0.20725">
        <ele>1994.9</ele>
        <time>2018-12-27T10:26:24Z</time>
      </trkpt>
      <trkpt lat="42.7147" lon="-0.20721">
        <ele>1996.6</ele>
        <time>2018-12-27T10:26:25Z</time>
      </trkpt>
      <trkpt lat="42.71466" lon="-0.20721">
        <ele>1995.6</ele>
        <time>2018-12-27T10:26:26Z</time>
      </trkpt>
      <trkpt lat="42.71465" lon="-0.2072">
        <ele>1995.6</ele>
        <time>2018-12-27T10:26:26Z</time>
      </trkpt>
      <trkpt lat="42.71464" lon="-0.20715">
        <ele>1997.6</ele>
        <time>2018-12-27T10:26:27Z</time>
      </trkpt>
      <trkpt lat="42.71462" lon="-0.20714">
        <ele>1997.6</ele>
        <time>2018-12-27T10:26:28Z</time>
      </trkpt>
      <trkpt lat="42.71462" lon="-0.20713">
        <ele>1998.2</ele>
        <time>2018-12-27T10:26:28Z</time>
      </trkpt>
      <trkpt lat="42.7146" lon="-0.20712">
        <ele>1997.9</ele>
        <time>2018-12-27T10:26:29Z</time>
      </trkpt>
      <trkpt lat="42.71458" lon="-0.20714">
        <ele>1996.1</ele>
        <time>2018-12-27T10:26:29Z</time>
      </trkpt>
      <trkpt lat="42.71449" lon="-0.20715">
        <ele>1991.8</ele>
        <time>2018-12-27T10:26:32Z</time>
      </trkpt>
      <trkpt lat="42.71448" lon="-0.20714">
        <ele>1991.7</ele>
        <time>2018-12-27T10:26:32Z</time>
      </trkpt>
      <trkpt lat="42.71447" lon="-0.20709">
        <ele>1993.4</ele>
        <time>2018-12-27T10:26:33Z</time>
      </trkpt>
      <trkpt lat="42.7145" lon="-0.20702">
        <ele>1998.4</ele>
        <time>2018-12-27T10:26:35Z</time>
      </trkpt>
      <trkpt lat="42.71451" lon="-0.20701">
        <ele>1999.1</ele>
        <time>2018-12-27T10:26:35Z</time>
      </trkpt>
      <trkpt lat="42.71457" lon="-0.20697">
        <ele>2003.5</ele>
        <time>2018-12-27T10:26:37Z</time>
      </trkpt>
      <trkpt lat="42.71463" lon="-0.20696">
        <ele>2006.5</ele>
        <time>2018-12-27T10:26:39Z</time>
      </trkpt>
      <trkpt lat="42.71465" lon="-0.20695">
        <ele>2007.5</ele>
        <time>2018-12-27T10:26:39Z</time>
      </trkpt>
      <trkpt lat="42.71469" lon="-0.20692">
        <ele>2010.7</ele>
        <time>2018-12-27T10:26:40Z</time>
      </trkpt>
      <trkpt lat="42.71472" lon="-0.20688">
        <ele>2013.8</ele>
        <time>2018-12-27T10:26:42Z</time>
      </trkpt>
      <trkpt lat="42.71474" lon="-0.20687">
        <ele>2015</ele>
        <time>2018-12-27T10:26:42Z</time>
      </trkpt>
      <trkpt lat="42.71478" lon="-0.20684">
        <ele>2018.1</ele>
        <time>2018-12-27T10:26:43Z</time>
      </trkpt>
      <trkpt lat="42.71479" lon="-0.20683">
        <ele>2018.6</ele>
        <time>2018-12-27T10:26:43Z</time>
      </trkpt>
      <trkpt lat="42.71481" lon="-0.20677">
        <ele>2022.4</ele>
        <time>2018-12-27T10:26:45Z</time>
      </trkpt>
      <trkpt lat="42.71482" lon="-0.20677">
        <ele>2022.8</ele>
        <time>2018-12-27T10:26:45Z</time>
      </trkpt>
      <trkpt lat="42.71483" lon="-0.20675">
        <ele>2023.9</ele>
        <time>2018-12-27T10:26:45Z</time>
      </trkpt>
      <trkpt lat="42.71489" lon="-0.20671">
        <ele>2028</ele>
        <time>2018-12-27T10:26:47Z</time>
      </trkpt>
      <trkpt lat="42.71491" lon="-0.2067">
        <ele>2029.3</ele>
        <time>2018-12-27T10:26:48Z</time>
      </trkpt>
      <trkpt lat="42.71493" lon="-0.20668">
        <ele>2031.2</ele>
        <time>2018-12-27T10:26:48Z</time>
      </trkpt>
      <trkpt lat="42.71494" lon="-0.20668">
        <ele>2031.2</ele>
        <time>2018-12-27T10:26:49Z</time>
      </trkpt>
      <trkpt lat="42.71494" lon="-0.20667">
        <ele>2032.2</ele>
        <time>2018-12-27T10:26:49Z</time>
      </trkpt>
      <trkpt lat="42.71497" lon="-0.20665">
        <ele>2034.1</ele>
        <time>2018-12-27T10:26:50Z</time>
      </trkpt>
      <trkpt lat="42.715" lon="-0.20665">
        <ele>2035.3</ele>
        <time>2018-12-27T10:26:50Z</time>
      </trkpt>
      <trkpt lat="42.71503" lon="-0.20662">
        <ele>2037.9</ele>
        <time>2018-12-27T10:26:51Z</time>
      </trkpt>
      <trkpt lat="42.71503" lon="-0.20661">
        <ele>2038.4</ele>
        <time>2018-12-27T10:26:52Z</time>
      </trkpt>
      <trkpt lat="42.71511" lon="-0.20655">
        <ele>2044.4</ele>
        <time>2018-12-27T10:26:54Z</time>
      </trkpt>
      <trkpt lat="42.71513" lon="-0.20654">
        <ele>2045.7</ele>
        <time>2018-12-27T10:26:55Z</time>
      </trkpt>
      <trkpt lat="42.71516" lon="-0.20654">
        <ele>2046.6</ele>
        <time>2018-12-27T10:26:55Z</time>
      </trkpt>
      <trkpt lat="42.71521" lon="-0.20652">
        <ele>2049.4</ele>
        <time>2018-12-27T10:26:57Z</time>
      </trkpt>
      <trkpt lat="42.71526" lon="-0.20648">
        <ele>2053.1</ele>
        <time>2018-12-27T10:26:58Z</time>
      </trkpt>
      <trkpt lat="42.71529" lon="-0.20645">
        <ele>2056.3</ele>
        <time>2018-12-27T10:26:59Z</time>
      </trkpt>
      <trkpt lat="42.71531" lon="-0.20644">
        <ele>2057.2</ele>
        <time>2018-12-27T10:27:00Z</time>
      </trkpt>
      <trkpt lat="42.71536" lon="-0.2064">
        <ele>2060.6</ele>
        <time>2018-12-27T10:27:01Z</time>
      </trkpt>
      <trkpt lat="42.71541" lon="-0.20637">
        <ele>2064.5</ele>
        <time>2018-12-27T10:27:03Z</time>
      </trkpt>
      <trkpt lat="42.71544" lon="-0.20634">
        <ele>2066.7</ele>
        <time>2018-12-27T10:27:04Z</time>
      </trkpt>
      <trkpt lat="42.71544" lon="-0.20632">
        <ele>2067.7</ele>
        <time>2018-12-27T10:27:04Z</time>
      </trkpt>
      <trkpt lat="42.71548" lon="-0.20627">
        <ele>2071.1</ele>
        <time>2018-12-27T10:27:06Z</time>
      </trkpt>
      <trkpt lat="42.71551" lon="-0.20623">
        <ele>2073.9</ele>
        <time>2018-12-27T10:27:07Z</time>
      </trkpt>
      <trkpt lat="42.71556" lon="-0.2062">
        <ele>2076.7</ele>
        <time>2018-12-27T10:27:08Z</time>
      </trkpt>
      <trkpt lat="42.71558" lon="-0.20614">
        <ele>2079.4</ele>
        <time>2018-12-27T10:27:09Z</time>
      </trkpt>
      <trkpt lat="42.71558" lon="-0.2061">
        <ele>2080.8</ele>
        <time>2018-12-27T10:27:10Z</time>
      </trkpt>
      <trkpt lat="42.71557" lon="-0.20609">
        <ele>2081</ele>
        <time>2018-12-27T10:27:10Z</time>
      </trkpt>
      <trkpt lat="42.71557" lon="-0.20608">
        <ele>2081.4</ele>
        <time>2018-12-27T10:27:11Z</time>
      </trkpt>
      <trkpt lat="42.71558" lon="-0.20605">
        <ele>2083</ele>
        <time>2018-12-27T10:27:11Z</time>
      </trkpt>
      <trkpt lat="42.71558" lon="-0.20599">
        <ele>2085.1</ele>
        <time>2018-12-27T10:27:12Z</time>
      </trkpt>
      <trkpt lat="42.71557" lon="-0.20595">
        <ele>2086.2</ele>
        <time>2018-12-27T10:27:13Z</time>
      </trkpt>
      <trkpt lat="42.71554" lon="-0.20593">
        <ele>2086.4</ele>
        <time>2018-12-27T10:27:14Z</time>
      </trkpt>
      <trkpt lat="42.71555" lon="-0.20589">
        <ele>2088</ele>
        <time>2018-12-27T10:27:15Z</time>
      </trkpt>
      <trkpt lat="42.71556" lon="-0.20584">
        <ele>2090.2</ele>
        <time>2018-12-27T10:27:16Z</time>
      </trkpt>
      <trkpt lat="42.71557" lon="-0.20579">
        <ele>2092.6</ele>
        <time>2018-12-27T10:27:17Z</time>
      </trkpt>
      <trkpt lat="42.71553" lon="-0.20579">
        <ele>2091.2</ele>
        <time>2018-12-27T10:27:18Z</time>
      </trkpt>
      <trkpt lat="42.71551" lon="-0.20577">
        <ele>2091.3</ele>
        <time>2018-12-27T10:27:19Z</time>
      </trkpt>
      <trkpt lat="42.71552" lon="-0.20575">
        <ele>2092.4</ele>
        <time>2018-12-27T10:27:19Z</time>
      </trkpt>
      <trkpt lat="42.71552" lon="-0.20574">
        <ele>2093</ele>
        <time>2018-12-27T10:27:19Z</time>
      </trkpt>
      <trkpt lat="42.71552" lon="-0.20566">
        <ele>2096.1</ele>
        <time>2018-12-27T10:27:21Z</time>
      </trkpt>
      <trkpt lat="42.71551" lon="-0.20563">
        <ele>2096.8</ele>
        <time>2018-12-27T10:27:21Z</time>
      </trkpt>
      <trkpt lat="42.71552" lon="-0.2056">
        <ele>2098.2</ele>
        <time>2018-12-27T10:27:22Z</time>
      </trkpt>
      <trkpt lat="42.71553" lon="-0.20559">
        <ele>2099.2</ele>
        <time>2018-12-27T10:27:23Z</time>
      </trkpt>
      <trkpt lat="42.71556" lon="-0.20557">
        <ele>2100.9</ele>
        <time>2018-12-27T10:27:23Z</time>
      </trkpt>
      <trkpt lat="42.71556" lon="-0.20556">
        <ele>2101.1</ele>
        <time>2018-12-27T10:27:24Z</time>
      </trkpt>
      <trkpt lat="42.71556" lon="-0.20548">
        <ele>2104.1</ele>
        <time>2018-12-27T10:27:25Z</time>
      </trkpt>
      <trkpt lat="42.71555" lon="-0.20545">
        <ele>2105</ele>
        <time>2018-12-27T10:27:26Z</time>
      </trkpt>
      <trkpt lat="42.71555" lon="-0.20536">
        <ele>2108.4</ele>
        <time>2018-12-27T10:27:28Z</time>
      </trkpt>
      <trkpt lat="42.71557" lon="-0.20533">
        <ele>2110.2</ele>
        <time>2018-12-27T10:27:28Z</time>
      </trkpt>
      <trkpt lat="42.71558" lon="-0.2053">
        <ele>2111.5</ele>
        <time>2018-12-27T10:27:29Z</time>
      </trkpt>
      <trkpt lat="42.71559" lon="-0.20528">
        <ele>2112.8</ele>
        <time>2018-12-27T10:27:29Z</time>
      </trkpt>
      <trkpt lat="42.7156" lon="-0.20524">
        <ele>2114.4</ele>
        <time>2018-12-27T10:27:30Z</time>
      </trkpt>
      <trkpt lat="42.7156" lon="-0.20523">
        <ele>2114.8</ele>
        <time>2018-12-27T10:27:30Z</time>
      </trkpt>
      <trkpt lat="42.71561" lon="-0.20523">
        <ele>2115.4</ele>
        <time>2018-12-27T10:27:31Z</time>
      </trkpt>
      <trkpt lat="42.71563" lon="-0.20522">
        <ele>2116.1</ele>
        <time>2018-12-27T10:27:31Z</time>
      </trkpt>
      <trkpt lat="42.71564" lon="-0.20523">
        <ele>2116.7</ele>
        <time>2018-12-27T10:27:32Z</time>
      </trkpt>
      <trkpt lat="42.71567" lon="-0.20523">
        <ele>2117.5</ele>
        <time>2018-12-27T10:27:32Z</time>
      </trkpt>
      <trkpt lat="42.71572" lon="-0.20525">
        <ele>2119</ele>
        <time>2018-12-27T10:27:34Z</time>
      </trkpt>
      <trkpt lat="42.71573" lon="-0.20526">
        <ele>2119.2</ele>
        <time>2018-12-27T10:27:34Z</time>
      </trkpt>
      <trkpt lat="42.71577" lon="-0.20526">
        <ele>2120.2</ele>
        <time>2018-12-27T10:27:35Z</time>
      </trkpt>
      <trkpt lat="42.71577" lon="-0.20525">
        <ele>2120.9</ele>
        <time>2018-12-27T10:27:35Z</time>
      </trkpt>
      <trkpt lat="42.71577" lon="-0.2052">
        <ele>2122.3</ele>
        <time>2018-12-27T10:27:36Z</time>
      </trkpt>
      <trkpt lat="42.71574" lon="-0.20508">
        <ele>2125.1</ele>
        <time>2018-12-27T10:27:39Z</time>
      </trkpt>
      <trkpt lat="42.71571" lon="-0.20496">
        <ele>2128.4</ele>
        <time>2018-12-27T10:27:41Z</time>
      </trkpt>
      <trkpt lat="42.7157" lon="-0.20488">
        <ele>2130.6</ele>
        <time>2018-12-27T10:27:43Z</time>
      </trkpt>
      <trkpt lat="42.71565" lon="-0.20479">
        <ele>2132.3</ele>
        <time>2018-12-27T10:27:45Z</time>
      </trkpt>
      <trkpt lat="42.71563" lon="-0.20477">
        <ele>2132.3</ele>
        <time>2018-12-27T10:27:46Z</time>
      </trkpt>
      <trkpt lat="42.71556" lon="-0.20468">
        <ele>2133</ele>
        <time>2018-12-27T10:27:48Z</time>
      </trkpt>
      <trkpt lat="42.71552" lon="-0.20461">
        <ele>2133.8</ele>
        <time>2018-12-27T10:27:50Z</time>
      </trkpt>
      <trkpt lat="42.71547" lon="-0.20447">
        <ele>2136.5</ele>
        <time>2018-12-27T10:27:53Z</time>
      </trkpt>
      <trkpt lat="42.71544" lon="-0.20443">
        <ele>2136.9</ele>
        <time>2018-12-27T10:27:54Z</time>
      </trkpt>
      <trkpt lat="42.71544" lon="-0.20439">
        <ele>2138</ele>
        <time>2018-12-27T10:27:55Z</time>
      </trkpt>
      <trkpt lat="42.71543" lon="-0.20434">
        <ele>2139.2</ele>
        <time>2018-12-27T10:27:56Z</time>
      </trkpt>
      <trkpt lat="42.71546" lon="-0.20432">
        <ele>2140.7</ele>
        <time>2018-12-27T10:27:57Z</time>
      </trkpt>
      <trkpt lat="42.71551" lon="-0.20428">
        <ele>2144</ele>
        <time>2018-12-27T10:27:58Z</time>
      </trkpt>
      <trkpt lat="42.71558" lon="-0.20424">
        <ele>2147.7</ele>
        <time>2018-12-27T10:28:00Z</time>
      </trkpt>
      <trkpt lat="42.71563" lon="-0.20421">
        <ele>2150.1</ele>
        <time>2018-12-27T10:28:02Z</time>
      </trkpt>
      <trkpt lat="42.7156" lon="-0.20415">
        <ele>2151.2</ele>
        <time>2018-12-27T10:28:03Z</time>
      </trkpt>
      <trkpt lat="42.71558" lon="-0.20408">
        <ele>2152.6</ele>
        <time>2018-12-27T10:28:04Z</time>
      </trkpt>
      <trkpt lat="42.71556" lon="-0.20399">
        <ele>2154.9</ele>
        <time>2018-12-27T10:28:06Z</time>
      </trkpt>
      <trkpt lat="42.71556" lon="-0.20394">
        <ele>2156.3</ele>
        <time>2018-12-27T10:28:07Z</time>
      </trkpt>
      <trkpt lat="42.71556" lon="-0.20391">
        <ele>2157.3</ele>
        <time>2018-12-27T10:28:08Z</time>
      </trkpt>
      <trkpt lat="42.71557" lon="-0.20389">
        <ele>2158.3</ele>
        <time>2018-12-27T10:28:08Z</time>
      </trkpt>
      <trkpt lat="42.71557" lon="-0.20386">
        <ele>2159</ele>
        <time>2018-12-27T10:28:09Z</time>
      </trkpt>
      <trkpt lat="42.71557" lon="-0.20385">
        <ele>2159.3</ele>
        <time>2018-12-27T10:28:09Z</time>
      </trkpt>
      <trkpt lat="42.71556" lon="-0.20383">
        <ele>2159.9</ele>
        <time>2018-12-27T10:28:10Z</time>
      </trkpt>
      <trkpt lat="42.71555" lon="-0.20381">
        <ele>2160.1</ele>
        <time>2018-12-27T10:28:10Z</time>
      </trkpt>
      <trkpt lat="42.71555" lon="-0.2038">
        <ele>2160.6</ele>
        <time>2018-12-27T10:28:10Z</time>
      </trkpt>
      <trkpt lat="42.71556" lon="-0.20379">
        <ele>2160.9</ele>
        <time>2018-12-27T10:28:11Z</time>
      </trkpt>
      <trkpt lat="42.71557" lon="-0.20378">
        <ele>2161.5</ele>
        <time>2018-12-27T10:28:11Z</time>
      </trkpt>
      <trkpt lat="42.71558" lon="-0.20378">
        <ele>2162.1</ele>
        <time>2018-12-27T10:28:11Z</time>
      </trkpt>
      <trkpt lat="42.71559" lon="-0.20377">
        <ele>2162.4</ele>
        <time>2018-12-27T10:28:11Z</time>
      </trkpt>
      <trkpt lat="42.71561" lon="-0.20376">
        <ele>2163.6</ele>
        <time>2018-12-27T10:28:12Z</time>
      </trkpt>
      <trkpt lat="42.71565" lon="-0.20376">
        <ele>2165</ele>
        <time>2018-12-27T10:28:13Z</time>
      </trkpt>
      <trkpt lat="42.71568" lon="-0.20375">
        <ele>2165.9</ele>
        <time>2018-12-27T10:28:14Z</time>
      </trkpt>
      <trkpt lat="42.71572" lon="-0.20375">
        <ele>2166.9</ele>
        <time>2018-12-27T10:28:15Z</time>
      </trkpt>
      <trkpt lat="42.71572" lon="-0.20374">
        <ele>2167.2</ele>
        <time>2018-12-27T10:28:15Z</time>
      </trkpt>
      <trkpt lat="42.7157" lon="-0.20367">
        <ele>2168.1</ele>
        <time>2018-12-27T10:28:17Z</time>
      </trkpt>
      <trkpt lat="42.71569" lon="-0.20365">
        <ele>2168.3</ele>
        <time>2018-12-27T10:28:17Z</time>
      </trkpt>
      <trkpt lat="42.71568" lon="-0.20363">
        <ele>2168.7</ele>
        <time>2018-12-27T10:28:18Z</time>
      </trkpt>
      <trkpt lat="42.71569" lon="-0.20362">
        <ele>2169.1</ele>
        <time>2018-12-27T10:28:18Z</time>
      </trkpt>
      <trkpt lat="42.71569" lon="-0.20361">
        <ele>2169.4</ele>
        <time>2018-12-27T10:28:18Z</time>
      </trkpt>
      <trkpt lat="42.7157" lon="-0.20362">
        <ele>2169.4</ele>
        <time>2018-12-27T10:28:18Z</time>
      </trkpt>
      <trkpt lat="42.71574" lon="-0.20363">
        <ele>2170.5</ele>
        <time>2018-12-27T10:28:19Z</time>
      </trkpt>
      <trkpt lat="42.71579" lon="-0.20364">
        <ele>2171.9</ele>
        <time>2018-12-27T10:28:21Z</time>
      </trkpt>
      <trkpt lat="42.71582" lon="-0.20363">
        <ele>2172.6</ele>
        <time>2018-12-27T10:28:21Z</time>
      </trkpt>
      <trkpt lat="42.71586" lon="-0.20366">
        <ele>2173.3</ele>
        <time>2018-12-27T10:28:22Z</time>
      </trkpt>
      <trkpt lat="42.71596" lon="-0.20376">
        <ele>2174.1</ele>
        <time>2018-12-27T10:28:26Z</time>
      </trkpt>
      <trkpt lat="42.71602" lon="-0.2038">
        <ele>2174.7</ele>
        <time>2018-12-27T10:28:28Z</time>
      </trkpt>
      <trkpt lat="42.71606" lon="-0.20384">
        <ele>2174.9</ele>
        <time>2018-12-27T10:28:29Z</time>
      </trkpt>
      <trkpt lat="42.71608" lon="-0.20386">
        <ele>2174.8</ele>
        <time>2018-12-27T10:28:30Z</time>
      </trkpt>
      <trkpt lat="42.71612" lon="-0.20388">
        <ele>2175.5</ele>
        <time>2018-12-27T10:28:31Z</time>
      </trkpt>
      <trkpt lat="42.71616" lon="-0.20391">
        <ele>2176.1</ele>
        <time>2018-12-27T10:28:32Z</time>
      </trkpt>
      <trkpt lat="42.7162" lon="-0.20402">
        <ele>2174.3</ele>
        <time>2018-12-27T10:28:34Z</time>
      </trkpt>
      <trkpt lat="42.71622" lon="-0.20409">
        <ele>2173.1</ele>
        <time>2018-12-27T10:28:36Z</time>
      </trkpt>
      <trkpt lat="42.71623" lon="-0.20417">
        <ele>2171.3</ele>
        <time>2018-12-27T10:28:37Z</time>
      </trkpt>
      <trkpt lat="42.71626" lon="-0.20425">
        <ele>2169.8</ele>
        <time>2018-12-27T10:28:39Z</time>
      </trkpt>
      <trkpt lat="42.71626" lon="-0.20426">
        <ele>2169.7</ele>
        <time>2018-12-27T10:28:39Z</time>
      </trkpt>
      <trkpt lat="42.71626" lon="-0.20434">
        <ele>2167.8</ele>
        <time>2018-12-27T10:28:41Z</time>
      </trkpt>
      <trkpt lat="42.71628" lon="-0.20443">
        <ele>2165.7</ele>
        <time>2018-12-27T10:28:43Z</time>
      </trkpt>
      <trkpt lat="42.71632" lon="-0.20448">
        <ele>2164.8</ele>
        <time>2018-12-27T10:28:44Z</time>
      </trkpt>
      <trkpt lat="42.71633" lon="-0.20453">
        <ele>2163.4</ele>
        <time>2018-12-27T10:28:45Z</time>
      </trkpt>
      <trkpt lat="42.71636" lon="-0.20456">
        <ele>2163</ele>
        <time>2018-12-27T10:28:46Z</time>
      </trkpt>
      <trkpt lat="42.71638" lon="-0.20459">
        <ele>2162.8</ele>
        <time>2018-12-27T10:28:47Z</time>
      </trkpt>
      <trkpt lat="42.71644" lon="-0.20461">
        <ele>2162.6</ele>
        <time>2018-12-27T10:28:49Z</time>
      </trkpt>
      <trkpt lat="42.71646" lon="-0.2046">
        <ele>2163.3</ele>
        <time>2018-12-27T10:28:49Z</time>
      </trkpt>
      <trkpt lat="42.71649" lon="-0.20461">
        <ele>2163.3</ele>
        <time>2018-12-27T10:28:50Z</time>
      </trkpt>
      <trkpt lat="42.71652" lon="-0.20466">
        <ele>2162.4</ele>
        <time>2018-12-27T10:28:51Z</time>
      </trkpt>
      <trkpt lat="42.71655" lon="-0.20468">
        <ele>2162.1</ele>
        <time>2018-12-27T10:28:52Z</time>
      </trkpt>
      <trkpt lat="42.71656" lon="-0.20466">
        <ele>2162.9</ele>
        <time>2018-12-27T10:28:53Z</time>
      </trkpt>
      <trkpt lat="42.71658" lon="-0.20453">
        <ele>2167.1</ele>
        <time>2018-12-27T10:28:55Z</time>
      </trkpt>
      <trkpt lat="42.71668" lon="-0.20438">
        <ele>2173.1</ele>
        <time>2018-12-27T10:28:59Z</time>
      </trkpt>
      <trkpt lat="42.71676" lon="-0.20425">
        <ele>2178.6</ele>
        <time>2018-12-27T10:29:03Z</time>
      </trkpt>
      <trkpt lat="42.71683" lon="-0.20415">
        <ele>2182.8</ele>
        <time>2018-12-27T10:29:05Z</time>
      </trkpt>
      <trkpt lat="42.71689" lon="-0.20408">
        <ele>2186.7</ele>
        <time>2018-12-27T10:29:08Z</time>
      </trkpt>
      <trkpt lat="42.7169" lon="-0.20404">
        <ele>2188.1</ele>
        <time>2018-12-27T10:29:08Z</time>
      </trkpt>
      <trkpt lat="42.71691" lon="-0.20402">
        <ele>2189.1</ele>
        <time>2018-12-27T10:29:09Z</time>
      </trkpt>
      <trkpt lat="42.71693" lon="-0.20396">
        <ele>2191.4</ele>
        <time>2018-12-27T10:29:10Z</time>
      </trkpt>
      <trkpt lat="42.71694" lon="-0.20395">
        <ele>2192</ele>
        <time>2018-12-27T10:29:10Z</time>
      </trkpt>
      <trkpt lat="42.71695" lon="-0.20392">
        <ele>2193.2</ele>
        <time>2018-12-27T10:29:11Z</time>
      </trkpt>
      <trkpt lat="42.71701" lon="-0.20388">
        <ele>2195.9</ele>
        <time>2018-12-27T10:29:13Z</time>
      </trkpt>
      <trkpt lat="42.71708" lon="-0.20383">
        <ele>2198.9</ele>
        <time>2018-12-27T10:29:15Z</time>
      </trkpt>
      <trkpt lat="42.71715" lon="-0.20383">
        <ele>2198.8</ele>
        <time>2018-12-27T10:29:17Z</time>
      </trkpt>
      <trkpt lat="42.71722" lon="-0.20383">
        <ele>2198.7</ele>
        <time>2018-12-27T10:29:19Z</time>
      </trkpt>
      <trkpt lat="42.71734" lon="-0.20381">
        <ele>2199.2</ele>
        <time>2018-12-27T10:29:22Z</time>
      </trkpt>
      <trkpt lat="42.71738" lon="-0.20379">
        <ele>2199.8</ele>
        <time>2018-12-27T10:29:23Z</time>
      </trkpt>
      <trkpt lat="42.7174" lon="-0.20376">
        <ele>2201.2</ele>
        <time>2018-12-27T10:29:24Z</time>
      </trkpt>
      <trkpt lat="42.71741" lon="-0.20375">
        <ele>2201.5</ele>
        <time>2018-12-27T10:29:24Z</time>
      </trkpt>
      <trkpt lat="42.71742" lon="-0.20374">
        <ele>2202.2</ele>
        <time>2018-12-27T10:29:24Z</time>
      </trkpt>
      <trkpt lat="42.71742" lon="-0.20371">
        <ele>2203.5</ele>
        <time>2018-12-27T10:29:25Z</time>
      </trkpt>
      <trkpt lat="42.71742" lon="-0.2037">
        <ele>2203.8</ele>
        <time>2018-12-27T10:29:25Z</time>
      </trkpt>
      <trkpt lat="42.71745" lon="-0.20368">
        <ele>2204.6</ele>
        <time>2018-12-27T10:29:26Z</time>
      </trkpt>
      <trkpt lat="42.71749" lon="-0.20367">
        <ele>2205.2</ele>
        <time>2018-12-27T10:29:27Z</time>
      </trkpt>
      <trkpt lat="42.71754" lon="-0.20371">
        <ele>2203.4</ele>
        <time>2018-12-27T10:29:29Z</time>
      </trkpt>
      <trkpt lat="42.71763" lon="-0.20373">
        <ele>2202.6</ele>
        <time>2018-12-27T10:29:31Z</time>
      </trkpt>
      <trkpt lat="42.7177" lon="-0.20375">
        <ele>2201.6</ele>
        <time>2018-12-27T10:29:33Z</time>
      </trkpt>
      <trkpt lat="42.71772" lon="-0.20374">
        <ele>2201.8</ele>
        <time>2018-12-27T10:29:34Z</time>
      </trkpt>
      <trkpt lat="42.71773" lon="-0.20374">
        <ele>2201.5</ele>
        <time>2018-12-27T10:29:34Z</time>
      </trkpt>
      <trkpt lat="42.71778" lon="-0.20374">
        <ele>2201.6</ele>
        <time>2018-12-27T10:29:35Z</time>
      </trkpt>
      <trkpt lat="42.71778" lon="-0.20374">
        <ele>2201.9</ele>
        <time>2018-12-27T10:29:35Z</time>
      </trkpt>
      <trkpt lat="42.71783" lon="-0.20374">
        <ele>2201.7</ele>
        <time>2018-12-27T10:29:36Z</time>
      </trkpt>
      <trkpt lat="42.7179" lon="-0.20378">
        <ele>2199.8</ele>
        <time>2018-12-27T10:29:38Z</time>
      </trkpt>
      <trkpt lat="42.71796" lon="-0.20381">
        <ele>2199.3</ele>
        <time>2018-12-27T10:29:40Z</time>
      </trkpt>
      <trkpt lat="42.71802" lon="-0.2039">
        <ele>2195.8</ele>
        <time>2018-12-27T10:29:43Z</time>
      </trkpt>
      <trkpt lat="42.71803" lon="-0.20396">
        <ele>2192.9</ele>
        <time>2018-12-27T10:29:44Z</time>
      </trkpt>
      <trkpt lat="42.71805" lon="-0.20396">
        <ele>2193.2</ele>
        <time>2018-12-27T10:29:44Z</time>
      </trkpt>
      <trkpt lat="42.71805" lon="-0.20394">
        <ele>2194.7</ele>
        <time>2018-12-27T10:29:45Z</time>
      </trkpt>
      <trkpt lat="42.71805" lon="-0.20391">
        <ele>2195.7</ele>
        <time>2018-12-27T10:29:45Z</time>
      </trkpt>
      <trkpt lat="42.71804" lon="-0.20387">
        <ele>2198.2</ele>
        <time>2018-12-27T10:29:46Z</time>
      </trkpt>
      <trkpt lat="42.71805" lon="-0.20385">
        <ele>2199</ele>
        <time>2018-12-27T10:29:47Z</time>
      </trkpt>
      <trkpt lat="42.71805" lon="-0.20385">
        <ele>2199</ele>
        <time>2018-12-27T10:29:47Z</time>
      </trkpt>
      <trkpt lat="42.71806" lon="-0.20386">
        <ele>2199</ele>
        <time>2018-12-27T10:29:47Z</time>
      </trkpt>
      <trkpt lat="42.71807" lon="-0.20386">
        <ele>2199</ele>
        <time>2018-12-27T10:29:47Z</time>
      </trkpt>
      <trkpt lat="42.71809" lon="-0.20388">
        <ele>2198.7</ele>
        <time>2018-12-27T10:29:48Z</time>
      </trkpt>
      <trkpt lat="42.7181" lon="-0.20388">
        <ele>2198.8</ele>
        <time>2018-12-27T10:29:48Z</time>
      </trkpt>
      <trkpt lat="42.71812" lon="-0.20384">
        <ele>2201.5</ele>
        <time>2018-12-27T10:29:49Z</time>
      </trkpt>
      <trkpt lat="42.7181" lon="-0.20378">
        <ele>2204.1</ele>
        <time>2018-12-27T10:29:50Z</time>
      </trkpt>
      <trkpt lat="42.71808" lon="-0.20372">
        <ele>2206.2</ele>
        <time>2018-12-27T10:29:52Z</time>
      </trkpt>
      <trkpt lat="42.71809" lon="-0.20371">
        <ele>2207.5</ele>
        <time>2018-12-27T10:29:52Z</time>
      </trkpt>
      <trkpt lat="42.7181" lon="-0.2037">
        <ele>2207.7</ele>
        <time>2018-12-27T10:29:52Z</time>
      </trkpt>
      <trkpt lat="42.71813" lon="-0.20371">
        <ele>2208.1</ele>
        <time>2018-12-27T10:29:53Z</time>
      </trkpt>
      <trkpt lat="42.71817" lon="-0.2037">
        <ele>2209.3</ele>
        <time>2018-12-27T10:29:54Z</time>
      </trkpt>
      <trkpt lat="42.71823" lon="-0.20369">
        <ele>2211.3</ele>
        <time>2018-12-27T10:29:56Z</time>
      </trkpt>
      <trkpt lat="42.71828" lon="-0.20366">
        <ele>2213.6</ele>
        <time>2018-12-27T10:29:57Z</time>
      </trkpt>
      <trkpt lat="42.71829" lon="-0.20366">
        <ele>2214.2</ele>
        <time>2018-12-27T10:29:58Z</time>
      </trkpt>
      <trkpt lat="42.71834" lon="-0.20362">
        <ele>2217.1</ele>
        <time>2018-12-27T10:29:59Z</time>
      </trkpt>
      <trkpt lat="42.71836" lon="-0.20358">
        <ele>2218.9</ele>
        <time>2018-12-27T10:30:00Z</time>
      </trkpt>
      <trkpt lat="42.71837" lon="-0.20357">
        <ele>2219.4</ele>
        <time>2018-12-27T10:30:00Z</time>
      </trkpt>
      <trkpt lat="42.71839" lon="-0.20356">
        <ele>2220.3</ele>
        <time>2018-12-27T10:30:01Z</time>
      </trkpt>
      <trkpt lat="42.7184" lon="-0.20353">
        <ele>2222</ele>
        <time>2018-12-27T10:30:02Z</time>
      </trkpt>
      <trkpt lat="42.7184" lon="-0.20349">
        <ele>2223.8</ele>
        <time>2018-12-27T10:30:02Z</time>
      </trkpt>
      <trkpt lat="42.71844" lon="-0.20348">
        <ele>2224.6</ele>
        <time>2018-12-27T10:30:03Z</time>
      </trkpt>
      <trkpt lat="42.71848" lon="-0.20345">
        <ele>2226.5</ele>
        <time>2018-12-27T10:30:05Z</time>
      </trkpt>
      <trkpt lat="42.71851" lon="-0.20344">
        <ele>2227.6</ele>
        <time>2018-12-27T10:30:05Z</time>
      </trkpt>
      <trkpt lat="42.71853" lon="-0.20345">
        <ele>2227.4</ele>
        <time>2018-12-27T10:30:06Z</time>
      </trkpt>
      <trkpt lat="42.71855" lon="-0.20343">
        <ele>2228.8</ele>
        <time>2018-12-27T10:30:07Z</time>
      </trkpt>
      <trkpt lat="42.71855" lon="-0.20348">
        <ele>2226.9</ele>
        <time>2018-12-27T10:30:08Z</time>
      </trkpt>
      <trkpt lat="42.71856" lon="-0.20348">
        <ele>2226.9</ele>
        <time>2018-12-27T10:30:08Z</time>
      </trkpt>
      <trkpt lat="42.7186" lon="-0.20349">
        <ele>2227.4</ele>
        <time>2018-12-27T10:30:09Z</time>
      </trkpt>
      <trkpt lat="42.71865" lon="-0.20349">
        <ele>2228.3</ele>
        <time>2018-12-27T10:30:10Z</time>
      </trkpt>
      <trkpt lat="42.71867" lon="-0.2035">
        <ele>2228.3</ele>
        <time>2018-12-27T10:30:11Z</time>
      </trkpt>
      <trkpt lat="42.71869" lon="-0.20351">
        <ele>2228.2</ele>
        <time>2018-12-27T10:30:12Z</time>
      </trkpt>
      <trkpt lat="42.71871" lon="-0.20349">
        <ele>2229.2</ele>
        <time>2018-12-27T10:30:12Z</time>
      </trkpt>
      <trkpt lat="42.71879" lon="-0.20345">
        <ele>2231.5</ele>
        <time>2018-12-27T10:30:14Z</time>
      </trkpt>
      <trkpt lat="42.71883" lon="-0.20344">
        <ele>2232</ele>
        <time>2018-12-27T10:30:16Z</time>
      </trkpt>
      <trkpt lat="42.71887" lon="-0.20345">
        <ele>2231.5</ele>
        <time>2018-12-27T10:30:17Z</time>
      </trkpt>
      <trkpt lat="42.71888" lon="-0.20344">
        <ele>2231.9</ele>
        <time>2018-12-27T10:30:17Z</time>
      </trkpt>
      <trkpt lat="42.71894" lon="-0.20337">
        <ele>2233.9</ele>
        <time>2018-12-27T10:30:19Z</time>
      </trkpt>
      <trkpt lat="42.71896" lon="-0.20336">
        <ele>2234.3</ele>
        <time>2018-12-27T10:30:20Z</time>
      </trkpt>
      <trkpt lat="42.719" lon="-0.20335">
        <ele>2234.8</ele>
        <time>2018-12-27T10:30:21Z</time>
      </trkpt>
      <trkpt lat="42.71905" lon="-0.20329">
        <ele>2236.4</ele>
        <time>2018-12-27T10:30:23Z</time>
      </trkpt>
      <trkpt lat="42.71913" lon="-0.20311">
        <ele>2240.9</ele>
        <time>2018-12-27T10:30:27Z</time>
      </trkpt>
      <trkpt lat="42.71918" lon="-0.20298">
        <ele>2244.3</ele>
        <time>2018-12-27T10:30:30Z</time>
      </trkpt>
      <trkpt lat="42.71919" lon="-0.20297">
        <ele>2244.5</ele>
        <time>2018-12-27T10:30:30Z</time>
      </trkpt>
      <trkpt lat="42.71923" lon="-0.20293">
        <ele>2245.3</ele>
        <time>2018-12-27T10:30:31Z</time>
      </trkpt>
      <trkpt lat="42.71924" lon="-0.20291">
        <ele>2245.8</ele>
        <time>2018-12-27T10:30:32Z</time>
      </trkpt>
      <trkpt lat="42.71927" lon="-0.20284">
        <ele>2247.3</ele>
        <time>2018-12-27T10:30:33Z</time>
      </trkpt>
      <trkpt lat="42.71929" lon="-0.20281">
        <ele>2247.8</ele>
        <time>2018-12-27T10:30:34Z</time>
      </trkpt>
      <trkpt lat="42.71936" lon="-0.20271">
        <ele>2249.3</ele>
        <time>2018-12-27T10:30:37Z</time>
      </trkpt>
      <trkpt lat="42.71936" lon="-0.2027">
        <ele>2249.6</ele>
        <time>2018-12-27T10:30:37Z</time>
      </trkpt>
      <trkpt lat="42.7194" lon="-0.20262">
        <ele>2250.7</ele>
        <time>2018-12-27T10:30:39Z</time>
      </trkpt>
      <trkpt lat="42.71949" lon="-0.20253">
        <ele>2250.2</ele>
        <time>2018-12-27T10:30:42Z</time>
      </trkpt>
      <trkpt lat="42.71959" lon="-0.20246">
        <ele>2248.7</ele>
        <time>2018-12-27T10:30:45Z</time>
      </trkpt>
      <trkpt lat="42.71964" lon="-0.20239">
        <ele>2250.7</ele>
        <time>2018-12-27T10:30:47Z</time>
      </trkpt>
      <trkpt lat="42.71968" lon="-0.20229">
        <ele>2252.8</ele>
        <time>2018-12-27T10:30:49Z</time>
      </trkpt>
      <trkpt lat="42.71969" lon="-0.20227">
        <ele>2253.2</ele>
        <time>2018-12-27T10:30:49Z</time>
      </trkpt>
      <trkpt lat="42.71973" lon="-0.20223">
        <ele>2254.4</ele>
        <time>2018-12-27T10:30:51Z</time>
      </trkpt>
      <trkpt lat="42.71975" lon="-0.20221">
        <ele>2254.9</ele>
        <time>2018-12-27T10:30:51Z</time>
      </trkpt>
      <trkpt lat="42.71976" lon="-0.20213">
        <ele>2255.8</ele>
        <time>2018-12-27T10:30:53Z</time>
      </trkpt>
      <trkpt lat="42.71981" lon="-0.202">
        <ele>2256.1</ele>
        <time>2018-12-27T10:30:56Z</time>
      </trkpt>
      <trkpt lat="42.71986" lon="-0.20184">
        <ele>2254.8</ele>
        <time>2018-12-27T10:30:59Z</time>
      </trkpt>
      <trkpt lat="42.71993" lon="-0.2017">
        <ele>2254.1</ele>
        <time>2018-12-27T10:31:03Z</time>
      </trkpt>
      <trkpt lat="42.72002" lon="-0.20154">
        <ele>2253.2</ele>
        <time>2018-12-27T10:31:07Z</time>
      </trkpt>
      <trkpt lat="42.72007" lon="-0.2014">
        <ele>2252</ele>
        <time>2018-12-27T10:31:10Z</time>
      </trkpt>
      <trkpt lat="42.72013" lon="-0.20126">
        <ele>2250.8</ele>
        <time>2018-12-27T10:31:13Z</time>
      </trkpt>
      <trkpt lat="42.72016" lon="-0.20109">
        <ele>2248.4</ele>
        <time>2018-12-27T10:31:16Z</time>
      </trkpt>
      <trkpt lat="42.72019" lon="-0.20089">
        <ele>2245.7</ele>
        <time>2018-12-27T10:31:20Z</time>
      </trkpt>
      <trkpt lat="42.72021" lon="-0.20084">
        <ele>2244.9</ele>
        <time>2018-12-27T10:31:21Z</time>
      </trkpt>
      <trkpt lat="42.72022" lon="-0.20083">
        <ele>2245</ele>
        <time>2018-12-27T10:31:22Z</time>
      </trkpt>
      <trkpt lat="42.7203" lon="-0.20081">
        <ele>2244.9</ele>
        <time>2018-12-27T10:31:24Z</time>
      </trkpt>
      <trkpt lat="42.72036" lon="-0.20078">
        <ele>2244.5</ele>
        <time>2018-12-27T10:31:26Z</time>
      </trkpt>
      <trkpt lat="42.72043" lon="-0.20072">
        <ele>2243.9</ele>
        <time>2018-12-27T10:31:28Z</time>
      </trkpt>
      <trkpt lat="42.72048" lon="-0.20065">
        <ele>2244.3</ele>
        <time>2018-12-27T10:31:30Z</time>
      </trkpt>
      <trkpt lat="42.72052" lon="-0.20058">
        <ele>2244.5</ele>
        <time>2018-12-27T10:31:31Z</time>
      </trkpt>
      <trkpt lat="42.72055" lon="-0.2005">
        <ele>2244.3</ele>
        <time>2018-12-27T10:31:33Z</time>
      </trkpt>
      <trkpt lat="42.72059" lon="-0.20041">
        <ele>2244.1</ele>
        <time>2018-12-27T10:31:35Z</time>
      </trkpt>
      <trkpt lat="42.72064" lon="-0.20029">
        <ele>2246</ele>
        <time>2018-12-27T10:31:38Z</time>
      </trkpt>
      <trkpt lat="42.72068" lon="-0.20012">
        <ele>2247.8</ele>
        <time>2018-12-27T10:31:41Z</time>
      </trkpt>
      <trkpt lat="42.72069" lon="-0.20003">
        <ele>2248.5</ele>
        <time>2018-12-27T10:31:43Z</time>
      </trkpt>
      <trkpt lat="42.72072" lon="-0.19994">
        <ele>2249.6</ele>
        <time>2018-12-27T10:31:45Z</time>
      </trkpt>
      <trkpt lat="42.72075" lon="-0.19987">
        <ele>2250.7</ele>
        <time>2018-12-27T10:31:47Z</time>
      </trkpt>
      <trkpt lat="42.72079" lon="-0.19976">
        <ele>2251.9</ele>
        <time>2018-12-27T10:31:49Z</time>
      </trkpt>
      <trkpt lat="42.72082" lon="-0.19968">
        <ele>2253</ele>
        <time>2018-12-27T10:31:51Z</time>
      </trkpt>
      <trkpt lat="42.72085" lon="-0.19959">
        <ele>2253.9</ele>
        <time>2018-12-27T10:31:53Z</time>
      </trkpt>
      <trkpt lat="42.72089" lon="-0.19948">
        <ele>2254.9</ele>
        <time>2018-12-27T10:31:55Z</time>
      </trkpt>
      <trkpt lat="42.72094" lon="-0.1994">
        <ele>2256</ele>
        <time>2018-12-27T10:31:57Z</time>
      </trkpt>
      <trkpt lat="42.72099" lon="-0.19932">
        <ele>2257.1</ele>
        <time>2018-12-27T10:31:59Z</time>
      </trkpt>
      <trkpt lat="42.72103" lon="-0.19926">
        <ele>2258.1</ele>
        <time>2018-12-27T10:32:01Z</time>
      </trkpt>
      <trkpt lat="42.72107" lon="-0.1992">
        <ele>2258.7</ele>
        <time>2018-12-27T10:32:03Z</time>
      </trkpt>
      <trkpt lat="42.72108" lon="-0.19919">
        <ele>2258.9</ele>
        <time>2018-12-27T10:32:03Z</time>
      </trkpt>
      <trkpt lat="42.72111" lon="-0.19914">
        <ele>2259.4</ele>
        <time>2018-12-27T10:32:04Z</time>
      </trkpt>
      <trkpt lat="42.72115" lon="-0.19906">
        <ele>2259.8</ele>
        <time>2018-12-27T10:32:06Z</time>
      </trkpt>
      <trkpt lat="42.72119" lon="-0.19898">
        <ele>2260.3</ele>
        <time>2018-12-27T10:32:08Z</time>
      </trkpt>
      <trkpt lat="42.72121" lon="-0.19895">
        <ele>2260.6</ele>
        <time>2018-12-27T10:32:09Z</time>
      </trkpt>
      <trkpt lat="42.72122" lon="-0.19893">
        <ele>2260.7</ele>
        <time>2018-12-27T10:32:09Z</time>
      </trkpt>
      <trkpt lat="42.72123" lon="-0.19892">
        <ele>2260.8</ele>
        <time>2018-12-27T10:32:10Z</time>
      </trkpt>
      <trkpt lat="42.72126" lon="-0.19885">
        <ele>2261.4</ele>
        <time>2018-12-27T10:32:11Z</time>
      </trkpt>
      <trkpt lat="42.72131" lon="-0.19881">
        <ele>2263.4</ele>
        <time>2018-12-27T10:32:13Z</time>
      </trkpt>
      <trkpt lat="42.72133" lon="-0.19879">
        <ele>2264.2</ele>
        <time>2018-12-27T10:32:13Z</time>
      </trkpt>
      <trkpt lat="42.72134" lon="-0.19876">
        <ele>2264.7</ele>
        <time>2018-12-27T10:32:14Z</time>
      </trkpt>
      <trkpt lat="42.72136" lon="-0.19871">
        <ele>2265.3</ele>
        <time>2018-12-27T10:32:15Z</time>
      </trkpt>
      <trkpt lat="42.72139" lon="-0.19867">
        <ele>2266.6</ele>
        <time>2018-12-27T10:32:16Z</time>
      </trkpt>
      <trkpt lat="42.72145" lon="-0.19856">
        <ele>2268.5</ele>
        <time>2018-12-27T10:32:19Z</time>
      </trkpt>
      <trkpt lat="42.72148" lon="-0.19847">
        <ele>2268.9</ele>
        <time>2018-12-27T10:32:21Z</time>
      </trkpt>
      <trkpt lat="42.72152" lon="-0.1984">
        <ele>2270.6</ele>
        <time>2018-12-27T10:32:23Z</time>
      </trkpt>
      <trkpt lat="42.72156" lon="-0.19831">
        <ele>2271.3</ele>
        <time>2018-12-27T10:32:25Z</time>
      </trkpt>
      <trkpt lat="42.72157" lon="-0.19829">
        <ele>2271.6</ele>
        <time>2018-12-27T10:32:25Z</time>
      </trkpt>
      <trkpt lat="42.7216" lon="-0.19826">
        <ele>2272.8</ele>
        <time>2018-12-27T10:32:26Z</time>
      </trkpt>
      <trkpt lat="42.7216" lon="-0.19825">
        <ele>2273</ele>
        <time>2018-12-27T10:32:26Z</time>
      </trkpt>
      <trkpt lat="42.72164" lon="-0.19822">
        <ele>2274.3</ele>
        <time>2018-12-27T10:32:27Z</time>
      </trkpt>
      <trkpt lat="42.72165" lon="-0.19821">
        <ele>2274.6</ele>
        <time>2018-12-27T10:32:28Z</time>
      </trkpt>
      <trkpt lat="42.72168" lon="-0.19821">
        <ele>2276</ele>
        <time>2018-12-27T10:32:28Z</time>
      </trkpt>
      <trkpt lat="42.72169" lon="-0.1982">
        <ele>2276.3</ele>
        <time>2018-12-27T10:32:29Z</time>
      </trkpt>
      <trkpt lat="42.72172" lon="-0.19819">
        <ele>2277.7</ele>
        <time>2018-12-27T10:32:30Z</time>
      </trkpt>
      <trkpt lat="42.72175" lon="-0.19814">
        <ele>2278.9</ele>
        <time>2018-12-27T10:32:31Z</time>
      </trkpt>
      <trkpt lat="42.72181" lon="-0.1981">
        <ele>2281.1</ele>
        <time>2018-12-27T10:32:33Z</time>
      </trkpt>
      <trkpt lat="42.72182" lon="-0.19809">
        <ele>2281.4</ele>
        <time>2018-12-27T10:32:33Z</time>
      </trkpt>
      <trkpt lat="42.72183" lon="-0.19808">
        <ele>2281.7</ele>
        <time>2018-12-27T10:32:33Z</time>
      </trkpt>
      <trkpt lat="42.72184" lon="-0.19806">
        <ele>2282.1</ele>
        <time>2018-12-27T10:32:34Z</time>
      </trkpt>
      <trkpt lat="42.72187" lon="-0.19804">
        <ele>2283</ele>
        <time>2018-12-27T10:32:35Z</time>
      </trkpt>
      <trkpt lat="42.72191" lon="-0.19803">
        <ele>2284.5</ele>
        <time>2018-12-27T10:32:36Z</time>
      </trkpt>
      <trkpt lat="42.72196" lon="-0.19801">
        <ele>2286.6</ele>
        <time>2018-12-27T10:32:37Z</time>
      </trkpt>
      <trkpt lat="42.72199" lon="-0.198">
        <ele>2287.9</ele>
        <time>2018-12-27T10:32:38Z</time>
      </trkpt>
      <trkpt lat="42.72202" lon="-0.19801">
        <ele>2289.2</ele>
        <time>2018-12-27T10:32:39Z</time>
      </trkpt>
      <trkpt lat="42.72204" lon="-0.19802">
        <ele>2290.6</ele>
        <time>2018-12-27T10:32:40Z</time>
      </trkpt>
      <trkpt lat="42.72207" lon="-0.19802">
        <ele>2291.9</ele>
        <time>2018-12-27T10:32:40Z</time>
      </trkpt>
      <trkpt lat="42.72209" lon="-0.19805">
        <ele>2293.1</ele>
        <time>2018-12-27T10:32:41Z</time>
      </trkpt>
      <trkpt lat="42.72211" lon="-0.19805">
        <ele>2293.9</ele>
        <time>2018-12-27T10:32:41Z</time>
      </trkpt>
      <trkpt lat="42.72213" lon="-0.19809">
        <ele>2295.3</ele>
        <time>2018-12-27T10:32:42Z</time>
      </trkpt>
      <trkpt lat="42.72213" lon="-0.1981">
        <ele>2295.5</ele>
        <time>2018-12-27T10:32:43Z</time>
      </trkpt>
      <trkpt lat="42.72215" lon="-0.19807">
        <ele>2296.2</ele>
        <time>2018-12-27T10:32:43Z</time>
      </trkpt>
      <trkpt lat="42.72216" lon="-0.19806">
        <ele>2296.2</ele>
        <time>2018-12-27T10:32:44Z</time>
      </trkpt>
      <trkpt lat="42.72217" lon="-0.19801">
        <ele>2296.3</ele>
        <time>2018-12-27T10:32:45Z</time>
      </trkpt>
      <trkpt lat="42.72218" lon="-0.19803">
        <ele>2296.9</ele>
        <time>2018-12-27T10:32:45Z</time>
      </trkpt>
      <trkpt lat="42.72221" lon="-0.19801">
        <ele>2297.7</ele>
        <time>2018-12-27T10:32:46Z</time>
      </trkpt>
      <trkpt lat="42.72223" lon="-0.198">
        <ele>2298.7</ele>
        <time>2018-12-27T10:32:46Z</time>
      </trkpt>
      <trkpt lat="42.72225" lon="-0.19802">
        <ele>2300.2</ele>
        <time>2018-12-27T10:32:47Z</time>
      </trkpt>
      <trkpt lat="42.72228" lon="-0.19805">
        <ele>2301.7</ele>
        <time>2018-12-27T10:32:48Z</time>
      </trkpt>
      <trkpt lat="42.72232" lon="-0.19808">
        <ele>2303.4</ele>
        <time>2018-12-27T10:32:49Z</time>
      </trkpt>
      <trkpt lat="42.72237" lon="-0.19812">
        <ele>2306.1</ele>
        <time>2018-12-27T10:32:51Z</time>
      </trkpt>
      <trkpt lat="42.7224" lon="-0.19815">
        <ele>2307.7</ele>
        <time>2018-12-27T10:32:52Z</time>
      </trkpt>
      <trkpt lat="42.72244" lon="-0.19816">
        <ele>2309.3</ele>
        <time>2018-12-27T10:32:53Z</time>
      </trkpt>
      <trkpt lat="42.72247" lon="-0.19818">
        <ele>2310.9</ele>
        <time>2018-12-27T10:32:54Z</time>
      </trkpt>
      <trkpt lat="42.7225" lon="-0.19823">
        <ele>2312.4</ele>
        <time>2018-12-27T10:32:55Z</time>
      </trkpt>
      <trkpt lat="42.72252" lon="-0.19822">
        <ele>2313</ele>
        <time>2018-12-27T10:32:56Z</time>
      </trkpt>
      <trkpt lat="42.72254" lon="-0.19823">
        <ele>2313.8</ele>
        <time>2018-12-27T10:32:56Z</time>
      </trkpt>
      <trkpt lat="42.72257" lon="-0.19829">
        <ele>2315.6</ele>
        <time>2018-12-27T10:32:58Z</time>
      </trkpt>
      <trkpt lat="42.7226" lon="-0.19834">
        <ele>2317</ele>
        <time>2018-12-27T10:32:59Z</time>
      </trkpt>
      <trkpt lat="42.72264" lon="-0.19832">
        <ele>2318.7</ele>
        <time>2018-12-27T10:33:00Z</time>
      </trkpt>
      <trkpt lat="42.72268" lon="-0.19835">
        <ele>2320.1</ele>
        <time>2018-12-27T10:33:01Z</time>
      </trkpt>
      <trkpt lat="42.72271" lon="-0.19839">
        <ele>2321.4</ele>
        <time>2018-12-27T10:33:02Z</time>
      </trkpt>
      <trkpt lat="42.72274" lon="-0.19843">
        <ele>2322.7</ele>
        <time>2018-12-27T10:33:03Z</time>
      </trkpt>
      <trkpt lat="42.72277" lon="-0.19842">
        <ele>2323.6</ele>
        <time>2018-12-27T10:33:04Z</time>
      </trkpt>
      <trkpt lat="42.72278" lon="-0.19841">
        <ele>2324.1</ele>
        <time>2018-12-27T10:33:04Z</time>
      </trkpt>
      <trkpt lat="42.72282" lon="-0.19841">
        <ele>2325.8</ele>
        <time>2018-12-27T10:33:05Z</time>
      </trkpt>
      <trkpt lat="42.72286" lon="-0.19843">
        <ele>2327.2</ele>
        <time>2018-12-27T10:33:07Z</time>
      </trkpt>
      <trkpt lat="42.72287" lon="-0.19845">
        <ele>2327.7</ele>
        <time>2018-12-27T10:33:07Z</time>
      </trkpt>
      <trkpt lat="42.7229" lon="-0.19852">
        <ele>2328.5</ele>
        <time>2018-12-27T10:33:09Z</time>
      </trkpt>
      <trkpt lat="42.72292" lon="-0.19857">
        <ele>2329.3</ele>
        <time>2018-12-27T10:33:10Z</time>
      </trkpt>
      <trkpt lat="42.72292" lon="-0.19859">
        <ele>2329.3</ele>
        <time>2018-12-27T10:33:10Z</time>
      </trkpt>
      <trkpt lat="42.72295" lon="-0.19864">
        <ele>2329.8</ele>
        <time>2018-12-27T10:33:11Z</time>
      </trkpt>
      <trkpt lat="42.72299" lon="-0.19871">
        <ele>2330.1</ele>
        <time>2018-12-27T10:33:13Z</time>
      </trkpt>
      <trkpt lat="42.72307" lon="-0.19881">
        <ele>2331.6</ele>
        <time>2018-12-27T10:33:16Z</time>
      </trkpt>
      <trkpt lat="42.72313" lon="-0.19892">
        <ele>2333</ele>
        <time>2018-12-27T10:33:19Z</time>
      </trkpt>
      <trkpt lat="42.72318" lon="-0.19907">
        <ele>2334.4</ele>
        <time>2018-12-27T10:33:22Z</time>
      </trkpt>
      <trkpt lat="42.72321" lon="-0.19922">
        <ele>2335.7</ele>
        <time>2018-12-27T10:33:25Z</time>
      </trkpt>
      <trkpt lat="42.72327" lon="-0.19931">
        <ele>2337.6</ele>
        <time>2018-12-27T10:33:28Z</time>
      </trkpt>
      <trkpt lat="42.72336" lon="-0.19933">
        <ele>2339.9</ele>
        <time>2018-12-27T10:33:30Z</time>
      </trkpt>
      <trkpt lat="42.72338" lon="-0.19934">
        <ele>2340.5</ele>
        <time>2018-12-27T10:33:30Z</time>
      </trkpt>
      <trkpt lat="42.72348" lon="-0.19937">
        <ele>2343.7</ele>
        <time>2018-12-27T10:33:33Z</time>
      </trkpt>
      <trkpt lat="42.72353" lon="-0.19938">
        <ele>2345.1</ele>
        <time>2018-12-27T10:33:35Z</time>
      </trkpt>
      <trkpt lat="42.72356" lon="-0.19942">
        <ele>2346.3</ele>
        <time>2018-12-27T10:33:36Z</time>
      </trkpt>
      <trkpt lat="42.72357" lon="-0.19943">
        <ele>2346.6</ele>
        <time>2018-12-27T10:33:36Z</time>
      </trkpt>
      <trkpt lat="42.72362" lon="-0.19943">
        <ele>2348</ele>
        <time>2018-12-27T10:33:37Z</time>
      </trkpt>
      <trkpt lat="42.72373" lon="-0.19946">
        <ele>2351.7</ele>
        <time>2018-12-27T10:33:40Z</time>
      </trkpt>
      <trkpt lat="42.72386" lon="-0.19949">
        <ele>2353.4</ele>
        <time>2018-12-27T10:33:44Z</time>
      </trkpt>
      <trkpt lat="42.72399" lon="-0.19956">
        <ele>2355</ele>
        <time>2018-12-27T10:33:48Z</time>
      </trkpt>
      <trkpt lat="42.72412" lon="-0.19966">
        <ele>2358.3</ele>
        <time>2018-12-27T10:33:52Z</time>
      </trkpt>
      <trkpt lat="42.72423" lon="-0.19976">
        <ele>2362</ele>
        <time>2018-12-27T10:33:55Z</time>
      </trkpt>
      <trkpt lat="42.72431" lon="-0.19985">
        <ele>2365.5</ele>
        <time>2018-12-27T10:33:58Z</time>
      </trkpt>
      <trkpt lat="42.72439" lon="-0.19994">
        <ele>2369.3</ele>
        <time>2018-12-27T10:34:01Z</time>
      </trkpt>
      <trkpt lat="42.72445" lon="-0.2">
        <ele>2371.7</ele>
        <time>2018-12-27T10:34:03Z</time>
      </trkpt>
      <trkpt lat="42.72451" lon="-0.20005">
        <ele>2374.1</ele>
        <time>2018-12-27T10:34:05Z</time>
      </trkpt>
      <trkpt lat="42.72456" lon="-0.20012">
        <ele>2377.1</ele>
        <time>2018-12-27T10:34:07Z</time>
      </trkpt>
      <trkpt lat="42.72462" lon="-0.20022">
        <ele>2380.8</ele>
        <time>2018-12-27T10:34:09Z</time>
      </trkpt>
      <trkpt lat="42.72466" lon="-0.20032">
        <ele>2383.6</ele>
        <time>2018-12-27T10:34:11Z</time>
      </trkpt>
      <trkpt lat="42.72469" lon="-0.20041">
        <ele>2386</ele>
        <time>2018-12-27T10:34:13Z</time>
      </trkpt>
      <trkpt lat="42.72474" lon="-0.20049">
        <ele>2388.4</ele>
        <time>2018-12-27T10:34:15Z</time>
      </trkpt>
      <trkpt lat="42.72479" lon="-0.20057">
        <ele>2390.5</ele>
        <time>2018-12-27T10:34:17Z</time>
      </trkpt>
      <trkpt lat="42.72482" lon="-0.20065">
        <ele>2392.7</ele>
        <time>2018-12-27T10:34:19Z</time>
      </trkpt>
      <trkpt lat="42.72485" lon="-0.2007">
        <ele>2394</ele>
        <time>2018-12-27T10:34:20Z</time>
      </trkpt>
      <trkpt lat="42.72485" lon="-0.20073">
        <ele>2394.7</ele>
        <time>2018-12-27T10:34:21Z</time>
      </trkpt>
      <trkpt lat="42.72487" lon="-0.20078">
        <ele>2396.1</ele>
        <time>2018-12-27T10:34:22Z</time>
      </trkpt>
      <trkpt lat="42.72488" lon="-0.2008">
        <ele>2396.4</ele>
        <time>2018-12-27T10:34:22Z</time>
      </trkpt>
      <trkpt lat="42.7249" lon="-0.20086">
        <ele>2398.2</ele>
        <time>2018-12-27T10:34:24Z</time>
      </trkpt>
      <trkpt lat="42.7249" lon="-0.20087">
        <ele>2398.6</ele>
        <time>2018-12-27T10:34:24Z</time>
      </trkpt>
      <trkpt lat="42.72491" lon="-0.20094">
        <ele>2400.7</ele>
        <time>2018-12-27T10:34:25Z</time>
      </trkpt>
      <trkpt lat="42.72491" lon="-0.20096">
        <ele>2401.3</ele>
        <time>2018-12-27T10:34:26Z</time>
      </trkpt>
      <trkpt lat="42.72492" lon="-0.201">
        <ele>2402.4</ele>
        <time>2018-12-27T10:34:26Z</time>
      </trkpt>
      <trkpt lat="42.72492" lon="-0.20106">
        <ele>2404.3</ele>
        <time>2018-12-27T10:34:28Z</time>
      </trkpt>
      <trkpt lat="42.72492" lon="-0.20111">
        <ele>2406.1</ele>
        <time>2018-12-27T10:34:29Z</time>
      </trkpt>
      <trkpt lat="42.72493" lon="-0.20117">
        <ele>2408</ele>
        <time>2018-12-27T10:34:30Z</time>
      </trkpt>
      <trkpt lat="42.72493" lon="-0.20124">
        <ele>2410.1</ele>
        <time>2018-12-27T10:34:31Z</time>
      </trkpt>
      <trkpt lat="42.72495" lon="-0.20131">
        <ele>2411.7</ele>
        <time>2018-12-27T10:34:33Z</time>
      </trkpt>
      <trkpt lat="42.72494" lon="-0.20136">
        <ele>2413</ele>
        <time>2018-12-27T10:34:34Z</time>
      </trkpt>
      <trkpt lat="42.72494" lon="-0.20143">
        <ele>2414.8</ele>
        <time>2018-12-27T10:34:35Z</time>
      </trkpt>
      <trkpt lat="42.72494" lon="-0.20148">
        <ele>2416.4</ele>
        <time>2018-12-27T10:34:36Z</time>
      </trkpt>
      <trkpt lat="42.72494" lon="-0.20154">
        <ele>2417.9</ele>
        <time>2018-12-27T10:34:37Z</time>
      </trkpt>
      <trkpt lat="42.72496" lon="-0.20158">
        <ele>2418.6</ele>
        <time>2018-12-27T10:34:38Z</time>
      </trkpt>
      <trkpt lat="42.72496" lon="-0.20162">
        <ele>2419.6</ele>
        <time>2018-12-27T10:34:39Z</time>
      </trkpt>
      <trkpt lat="42.72497" lon="-0.20166">
        <ele>2420.7</ele>
        <time>2018-12-27T10:34:40Z</time>
      </trkpt>
      <trkpt lat="42.72497" lon="-0.20169">
        <ele>2421.3</ele>
        <time>2018-12-27T10:34:40Z</time>
      </trkpt>
      <trkpt lat="42.72497" lon="-0.20174">
        <ele>2422.8</ele>
        <time>2018-12-27T10:34:41Z</time>
      </trkpt>
      <trkpt lat="42.72499" lon="-0.20181">
        <ele>2424.2</ele>
        <time>2018-12-27T10:34:43Z</time>
      </trkpt>
      <trkpt lat="42.725" lon="-0.20185">
        <ele>2425.2</ele>
        <time>2018-12-27T10:34:44Z</time>
      </trkpt>
      <trkpt lat="42.725" lon="-0.20191">
        <ele>2426.7</ele>
        <time>2018-12-27T10:34:45Z</time>
      </trkpt>
      <trkpt lat="42.72501" lon="-0.20195">
        <ele>2427.7</ele>
        <time>2018-12-27T10:34:46Z</time>
      </trkpt>
      <trkpt lat="42.72502" lon="-0.202">
        <ele>2429.2</ele>
        <time>2018-12-27T10:34:47Z</time>
      </trkpt>
      <trkpt lat="42.72503" lon="-0.20204">
        <ele>2430.2</ele>
        <time>2018-12-27T10:34:47Z</time>
      </trkpt>
      <trkpt lat="42.72507" lon="-0.20209">
        <ele>2431.2</ele>
        <time>2018-12-27T10:34:49Z</time>
      </trkpt>
      <trkpt lat="42.72509" lon="-0.20214">
        <ele>2432.5</ele>
        <time>2018-12-27T10:34:50Z</time>
      </trkpt>
      <trkpt lat="42.72509" lon="-0.20218">
        <ele>2433.7</ele>
        <time>2018-12-27T10:34:51Z</time>
      </trkpt>
      <trkpt lat="42.7251" lon="-0.20222">
        <ele>2435</ele>
        <time>2018-12-27T10:34:52Z</time>
      </trkpt>
      <trkpt lat="42.7251" lon="-0.20225">
        <ele>2435.8</ele>
        <time>2018-12-27T10:34:52Z</time>
      </trkpt>
      <trkpt lat="42.72513" lon="-0.2023">
        <ele>2437</ele>
        <time>2018-12-27T10:34:53Z</time>
      </trkpt>
      <trkpt lat="42.72513" lon="-0.20232">
        <ele>2437.9</ele>
        <time>2018-12-27T10:34:54Z</time>
      </trkpt>
      <trkpt lat="42.72512" lon="-0.20237">
        <ele>2439.6</ele>
        <time>2018-12-27T10:34:55Z</time>
      </trkpt>
      <trkpt lat="42.72512" lon="-0.20245">
        <ele>2441.9</ele>
        <time>2018-12-27T10:34:56Z</time>
      </trkpt>
      <trkpt lat="42.72512" lon="-0.20252">
        <ele>2444.2</ele>
        <time>2018-12-27T10:34:58Z</time>
      </trkpt>
      <trkpt lat="42.72512" lon="-0.20258">
        <ele>2445.9</ele>
        <time>2018-12-27T10:34:59Z</time>
      </trkpt>
      <trkpt lat="42.72515" lon="-0.20262">
        <ele>2447.2</ele>
        <time>2018-12-27T10:35:00Z</time>
      </trkpt>
      <trkpt lat="42.72515" lon="-0.20264">
        <ele>2447.7</ele>
        <time>2018-12-27T10:35:01Z</time>
      </trkpt>
      <trkpt lat="42.72515" lon="-0.20269">
        <ele>2449.3</ele>
        <time>2018-12-27T10:35:01Z</time>
      </trkpt>
      <trkpt lat="42.72515" lon="-0.2027">
        <ele>2449.6</ele>
        <time>2018-12-27T10:35:02Z</time>
      </trkpt>
      <trkpt lat="42.72519" lon="-0.20276">
        <ele>2451.2</ele>
        <time>2018-12-27T10:35:03Z</time>
      </trkpt>
      <trkpt lat="42.72523" lon="-0.20279">
        <ele>2452.1</ele>
        <time>2018-12-27T10:35:05Z</time>
      </trkpt>
      <trkpt lat="42.72523" lon="-0.20286">
        <ele>2454.2</ele>
        <time>2018-12-27T10:35:06Z</time>
      </trkpt>
      <trkpt lat="42.72524" lon="-0.20292">
        <ele>2455.9</ele>
        <time>2018-12-27T10:35:07Z</time>
      </trkpt>
      <trkpt lat="42.72524" lon="-0.20294">
        <ele>2456.6</ele>
        <time>2018-12-27T10:35:07Z</time>
      </trkpt>
      <trkpt lat="42.72525" lon="-0.20297">
        <ele>2457.8</ele>
        <time>2018-12-27T10:35:08Z</time>
      </trkpt>
      <trkpt lat="42.72525" lon="-0.20303">
        <ele>2459.8</ele>
        <time>2018-12-27T10:35:09Z</time>
      </trkpt>
      <trkpt lat="42.72526" lon="-0.20309">
        <ele>2462.3</ele>
        <time>2018-12-27T10:35:11Z</time>
      </trkpt>
      <trkpt lat="42.72527" lon="-0.20314">
        <ele>2464</ele>
        <time>2018-12-27T10:35:12Z</time>
      </trkpt>
      <trkpt lat="42.72529" lon="-0.20318">
        <ele>2465.5</ele>
        <time>2018-12-27T10:35:12Z</time>
      </trkpt>
      <trkpt lat="42.72532" lon="-0.20322">
        <ele>2467.2</ele>
        <time>2018-12-27T10:35:14Z</time>
      </trkpt>
      <trkpt lat="42.72533" lon="-0.20327">
        <ele>2468.9</ele>
        <time>2018-12-27T10:35:15Z</time>
      </trkpt>
      <trkpt lat="42.72534" lon="-0.2033">
        <ele>2470.2</ele>
        <time>2018-12-27T10:35:15Z</time>
      </trkpt>
      <trkpt lat="42.72536" lon="-0.20331">
        <ele>2471</ele>
        <time>2018-12-27T10:35:16Z</time>
      </trkpt>
      <trkpt lat="42.72536" lon="-0.20335">
        <ele>2472.1</ele>
        <time>2018-12-27T10:35:16Z</time>
      </trkpt>
      <trkpt lat="42.72536" lon="-0.20339">
        <ele>2474</ele>
        <time>2018-12-27T10:35:17Z</time>
      </trkpt>
      <trkpt lat="42.72537" lon="-0.20344">
        <ele>2476.1</ele>
        <time>2018-12-27T10:35:18Z</time>
      </trkpt>
      <trkpt lat="42.72535" lon="-0.20348">
        <ele>2477.2</ele>
        <time>2018-12-27T10:35:19Z</time>
      </trkpt>
      <trkpt lat="42.72536" lon="-0.20351">
        <ele>2478.4</ele>
        <time>2018-12-27T10:35:20Z</time>
      </trkpt>
      <trkpt lat="42.72536" lon="-0.20355">
        <ele>2480.3</ele>
        <time>2018-12-27T10:35:20Z</time>
      </trkpt>
      <trkpt lat="42.72536" lon="-0.20358">
        <ele>2481.3</ele>
        <time>2018-12-27T10:35:21Z</time>
      </trkpt>
      <trkpt lat="42.72536" lon="-0.20362">
        <ele>2482.8</ele>
        <time>2018-12-27T10:35:22Z</time>
      </trkpt>
      <trkpt lat="42.72537" lon="-0.20363">
        <ele>2483.5</ele>
        <time>2018-12-27T10:35:22Z</time>
      </trkpt>
      <trkpt lat="42.72538" lon="-0.20366">
        <ele>2484.6</ele>
        <time>2018-12-27T10:35:23Z</time>
      </trkpt>
      <trkpt lat="42.72538" lon="-0.20372">
        <ele>2487.1</ele>
        <time>2018-12-27T10:35:24Z</time>
      </trkpt>
      <trkpt lat="42.72539" lon="-0.20376">
        <ele>2488.7</ele>
        <time>2018-12-27T10:35:25Z</time>
      </trkpt>
      <trkpt lat="42.7254" lon="-0.20378">
        <ele>2489.6</ele>
        <time>2018-12-27T10:35:25Z</time>
      </trkpt>
      <trkpt lat="42.72541" lon="-0.20382">
        <ele>2490.8</ele>
        <time>2018-12-27T10:35:26Z</time>
      </trkpt>
      <trkpt lat="42.72541" lon="-0.20385">
        <ele>2491.8</ele>
        <time>2018-12-27T10:35:27Z</time>
      </trkpt>
      <trkpt lat="42.72541" lon="-0.20387">
        <ele>2492.5</ele>
        <time>2018-12-27T10:35:27Z</time>
      </trkpt>
      <trkpt lat="42.72542" lon="-0.2039">
        <ele>2493.4</ele>
        <time>2018-12-27T10:35:28Z</time>
      </trkpt>
      <trkpt lat="42.72543" lon="-0.20397">
        <ele>2495.2</ele>
        <time>2018-12-27T10:35:29Z</time>
      </trkpt>
      <trkpt lat="42.72542" lon="-0.204">
        <ele>2496.1</ele>
        <time>2018-12-27T10:35:30Z</time>
      </trkpt>
      <trkpt lat="42.72543" lon="-0.20404">
        <ele>2497.3</ele>
        <time>2018-12-27T10:35:31Z</time>
      </trkpt>
      <trkpt lat="42.72546" lon="-0.20409">
        <ele>2498.5</ele>
        <time>2018-12-27T10:35:32Z</time>
      </trkpt>
      <trkpt lat="42.72549" lon="-0.20412">
        <ele>2499.2</ele>
        <time>2018-12-27T10:35:33Z</time>
      </trkpt>
      <trkpt lat="42.72551" lon="-0.20417">
        <ele>2500.7</ele>
        <time>2018-12-27T10:35:34Z</time>
      </trkpt>
      <trkpt lat="42.72552" lon="-0.20424">
        <ele>2502.4</ele>
        <time>2018-12-27T10:35:35Z</time>
      </trkpt>
      <trkpt lat="42.72553" lon="-0.20428">
        <ele>2503.6</ele>
        <time>2018-12-27T10:35:36Z</time>
      </trkpt>
      <trkpt lat="42.72553" lon="-0.20429">
        <ele>2503.9</ele>
        <time>2018-12-27T10:35:37Z</time>
      </trkpt>
      <trkpt lat="42.72555" lon="-0.20438">
        <ele>2506.2</ele>
        <time>2018-12-27T10:35:38Z</time>
      </trkpt>
      <trkpt lat="42.72556" lon="-0.20449">
        <ele>2508.8</ele>
        <time>2018-12-27T10:35:41Z</time>
      </trkpt>
      <trkpt lat="42.72557" lon="-0.20454">
        <ele>2509.9</ele>
        <time>2018-12-27T10:35:41Z</time>
      </trkpt>
      <trkpt lat="42.72558" lon="-0.20457">
        <ele>2510.7</ele>
        <time>2018-12-27T10:35:42Z</time>
      </trkpt>
      <trkpt lat="42.7256" lon="-0.20465">
        <ele>2512.6</ele>
        <time>2018-12-27T10:35:44Z</time>
      </trkpt>
      <trkpt lat="42.72562" lon="-0.20471">
        <ele>2514.3</ele>
        <time>2018-12-27T10:35:45Z</time>
      </trkpt>
      <trkpt lat="42.72566" lon="-0.20477">
        <ele>2515.4</ele>
        <time>2018-12-27T10:35:47Z</time>
      </trkpt>
      <trkpt lat="42.72568" lon="-0.20483">
        <ele>2516.6</ele>
        <time>2018-12-27T10:35:48Z</time>
      </trkpt>
      <trkpt lat="42.72569" lon="-0.20489">
        <ele>2518.1</ele>
        <time>2018-12-27T10:35:49Z</time>
      </trkpt>
      <trkpt lat="42.72569" lon="-0.20494">
        <ele>2519.4</ele>
        <time>2018-12-27T10:35:50Z</time>
      </trkpt>
      <trkpt lat="42.72568" lon="-0.20498">
        <ele>2520.7</ele>
        <time>2018-12-27T10:35:51Z</time>
      </trkpt>
      <trkpt lat="42.72568" lon="-0.20504">
        <ele>2522.4</ele>
        <time>2018-12-27T10:35:52Z</time>
      </trkpt>
      <trkpt lat="42.72567" lon="-0.20508">
        <ele>2523.6</ele>
        <time>2018-12-27T10:35:53Z</time>
      </trkpt>
      <trkpt lat="42.72569" lon="-0.20514">
        <ele>2524.7</ele>
        <time>2018-12-27T10:35:54Z</time>
      </trkpt>
      <trkpt lat="42.72572" lon="-0.20519">
        <ele>2525.2</ele>
        <time>2018-12-27T10:35:55Z</time>
      </trkpt>
      <trkpt lat="42.72575" lon="-0.20522">
        <ele>2525</ele>
        <time>2018-12-27T10:35:56Z</time>
      </trkpt>
      <trkpt lat="42.72579" lon="-0.20524">
        <ele>2524.4</ele>
        <time>2018-12-27T10:35:57Z</time>
      </trkpt>
      <trkpt lat="42.72582" lon="-0.20525">
        <ele>2523.7</ele>
        <time>2018-12-27T10:35:58Z</time>
      </trkpt>
      <trkpt lat="42.72584" lon="-0.20527">
        <ele>2523.5</ele>
        <time>2018-12-27T10:35:59Z</time>
      </trkpt>
      <trkpt lat="42.72588" lon="-0.20528">
        <ele>2522.6</ele>
        <time>2018-12-27T10:36:00Z</time>
      </trkpt>
      <trkpt lat="42.72592" lon="-0.20529">
        <ele>2521.4</ele>
        <time>2018-12-27T10:36:01Z</time>
      </trkpt>
      <trkpt lat="42.72595" lon="-0.20531">
        <ele>2520.9</ele>
        <time>2018-12-27T10:36:02Z</time>
      </trkpt>
      <trkpt lat="42.72598" lon="-0.20532">
        <ele>2519.8</ele>
        <time>2018-12-27T10:36:03Z</time>
      </trkpt>
      <trkpt lat="42.72602" lon="-0.20535">
        <ele>2519.3</ele>
        <time>2018-12-27T10:36:04Z</time>
      </trkpt>
      <trkpt lat="42.72602" lon="-0.20535">
        <ele>2519.2</ele>
        <time>2018-12-27T10:36:04Z</time>
      </trkpt>
      <trkpt lat="42.72604" lon="-0.20536">
        <ele>2518.6</ele>
        <time>2018-12-27T10:36:05Z</time>
      </trkpt>
      <trkpt lat="42.72605" lon="-0.20536">
        <ele>2518.3</ele>
        <time>2018-12-27T10:36:05Z</time>
      </trkpt>
      <trkpt lat="42.72606" lon="-0.20537">
        <ele>2518.3</ele>
        <time>2018-12-27T10:36:05Z</time>
      </trkpt>
      <trkpt lat="42.72608" lon="-0.20538">
        <ele>2517.7</ele>
        <time>2018-12-27T10:36:06Z</time>
      </trkpt>
      <trkpt lat="42.7261" lon="-0.20539">
        <ele>2517.2</ele>
        <time>2018-12-27T10:36:06Z</time>
      </trkpt>
      <trkpt lat="42.7262" lon="-0.20544">
        <ele>2514.1</ele>
        <time>2018-12-27T10:36:09Z</time>
      </trkpt>
      <trkpt lat="42.72631" lon="-0.20553">
        <ele>2511.2</ele>
        <time>2018-12-27T10:36:13Z</time>
      </trkpt>
      <trkpt lat="42.72638" lon="-0.20564">
        <ele>2509.7</ele>
        <time>2018-12-27T10:36:16Z</time>
      </trkpt>
      <trkpt lat="42.72643" lon="-0.20583">
        <ele>2508.9</ele>
        <time>2018-12-27T10:36:20Z</time>
      </trkpt>
      <trkpt lat="42.72646" lon="-0.206">
        <ele>2508.3</ele>
        <time>2018-12-27T10:36:23Z</time>
      </trkpt>
      <trkpt lat="42.72648" lon="-0.20604">
        <ele>2507.4</ele>
        <time>2018-12-27T10:36:24Z</time>
      </trkpt>
      <trkpt lat="42.7265" lon="-0.2061">
        <ele>2506.5</ele>
        <time>2018-12-27T10:36:25Z</time>
      </trkpt>
      <trkpt lat="42.72651" lon="-0.20621">
        <ele>2506.3</ele>
        <time>2018-12-27T10:36:27Z</time>
      </trkpt>
      <trkpt lat="42.72652" lon="-0.20629">
        <ele>2504.9</ele>
        <time>2018-12-27T10:36:29Z</time>
      </trkpt>
      <trkpt lat="42.7266" lon="-0.20652">
        <ele>2496.3</ele>
        <time>2018-12-27T10:36:34Z</time>
      </trkpt>
      <trkpt lat="42.72669" lon="-0.20669">
        <ele>2488.7</ele>
        <time>2018-12-27T10:36:38Z</time>
      </trkpt>
      <trkpt lat="42.72683" lon="-0.20677">
        <ele>2480.4</ele>
        <time>2018-12-27T10:36:42Z</time>
      </trkpt>
      <trkpt lat="42.72692" lon="-0.20691">
        <ele>2473</ele>
        <time>2018-12-27T10:36:46Z</time>
      </trkpt>
      <trkpt lat="42.72697" lon="-0.20704">
        <ele>2468.1</ele>
        <time>2018-12-27T10:36:49Z</time>
      </trkpt>
      <trkpt lat="42.72704" lon="-0.20725">
        <ele>2461.8</ele>
        <time>2018-12-27T10:36:53Z</time>
      </trkpt>
      <trkpt lat="42.72709" lon="-0.20738">
        <ele>2458.1</ele>
        <time>2018-12-27T10:36:56Z</time>
      </trkpt>
      <trkpt lat="42.72718" lon="-0.20753">
        <ele>2454.1</ele>
        <time>2018-12-27T10:37:00Z</time>
      </trkpt>
      <trkpt lat="42.72725" lon="-0.20773">
        <ele>2449.5</ele>
        <time>2018-12-27T10:37:04Z</time>
      </trkpt>
      <trkpt lat="42.72735" lon="-0.20789">
        <ele>2444.9</ele>
        <time>2018-12-27T10:37:08Z</time>
      </trkpt>
      <trkpt lat="42.72743" lon="-0.20793">
        <ele>2442</ele>
        <time>2018-12-27T10:37:11Z</time>
      </trkpt>
      <trkpt lat="42.72753" lon="-0.20799">
        <ele>2438.3</ele>
        <time>2018-12-27T10:37:14Z</time>
      </trkpt>
      <trkpt lat="42.72754" lon="-0.20801">
        <ele>2437.8</ele>
        <time>2018-12-27T10:37:14Z</time>
      </trkpt>
      <trkpt lat="42.72752" lon="-0.20808">
        <ele>2436.8</ele>
        <time>2018-12-27T10:37:16Z</time>
      </trkpt>
      <trkpt lat="42.72749" lon="-0.20813">
        <ele>2436.5</ele>
        <time>2018-12-27T10:37:17Z</time>
      </trkpt>
      <trkpt lat="42.72749" lon="-0.20816">
        <ele>2436.1</ele>
        <time>2018-12-27T10:37:17Z</time>
      </trkpt>
      <trkpt lat="42.7275" lon="-0.20822">
        <ele>2434.8</ele>
        <time>2018-12-27T10:37:18Z</time>
      </trkpt>
      <trkpt lat="42.72751" lon="-0.20831">
        <ele>2432.7</ele>
        <time>2018-12-27T10:37:20Z</time>
      </trkpt>
      <trkpt lat="42.72753" lon="-0.20836">
        <ele>2431.1</ele>
        <time>2018-12-27T10:37:21Z</time>
      </trkpt>
      <trkpt lat="42.72759" lon="-0.20841">
        <ele>2428.1</ele>
        <time>2018-12-27T10:37:24Z</time>
      </trkpt>
      <trkpt lat="42.72764" lon="-0.2085">
        <ele>2425</ele>
        <time>2018-12-27T10:37:26Z</time>
      </trkpt>
      <trkpt lat="42.72764" lon="-0.2087">
        <ele>2420.8</ele>
        <time>2018-12-27T10:37:29Z</time>
      </trkpt>
      <trkpt lat="42.72761" lon="-0.20886">
        <ele>2418.5</ele>
        <time>2018-12-27T10:37:33Z</time>
      </trkpt>
      <trkpt lat="42.72762" lon="-0.20904">
        <ele>2415.1</ele>
        <time>2018-12-27T10:37:36Z</time>
      </trkpt>
      <trkpt lat="42.72767" lon="-0.20918">
        <ele>2411.5</ele>
        <time>2018-12-27T10:37:39Z</time>
      </trkpt>
      <trkpt lat="42.72771" lon="-0.20933">
        <ele>2407.4</ele>
        <time>2018-12-27T10:37:43Z</time>
      </trkpt>
      <trkpt lat="42.72775" lon="-0.20953">
        <ele>2402.8</ele>
        <time>2018-12-27T10:37:47Z</time>
      </trkpt>
      <trkpt lat="42.7278" lon="-0.20969">
        <ele>2399.8</ele>
        <time>2018-12-27T10:37:50Z</time>
      </trkpt>
      <trkpt lat="42.72791" lon="-0.20976">
        <ele>2396.5</ele>
        <time>2018-12-27T10:37:53Z</time>
      </trkpt>
      <trkpt lat="42.72806" lon="-0.20981">
        <ele>2393.1</ele>
        <time>2018-12-27T10:37:57Z</time>
      </trkpt>
      <trkpt lat="42.72823" lon="-0.20981">
        <ele>2389.6</ele>
        <time>2018-12-27T10:38:02Z</time>
      </trkpt>
      <trkpt lat="42.7284" lon="-0.20983">
        <ele>2385.9</ele>
        <time>2018-12-27T10:38:06Z</time>
      </trkpt>
      <trkpt lat="42.72856" lon="-0.20987">
        <ele>2382.5</ele>
        <time>2018-12-27T10:38:11Z</time>
      </trkpt>
      <trkpt lat="42.72872" lon="-0.20992">
        <ele>2379.2</ele>
        <time>2018-12-27T10:38:15Z</time>
      </trkpt>
      <trkpt lat="42.72888" lon="-0.21">
        <ele>2376.9</ele>
        <time>2018-12-27T10:38:20Z</time>
      </trkpt>
      <trkpt lat="42.72891" lon="-0.20999">
        <ele>2376.6</ele>
        <time>2018-12-27T10:38:20Z</time>
      </trkpt>
      <trkpt lat="42.72895" lon="-0.21003">
        <ele>2376</ele>
        <time>2018-12-27T10:38:22Z</time>
      </trkpt>
      <trkpt lat="42.729" lon="-0.21009">
        <ele>2375.4</ele>
        <time>2018-12-27T10:38:23Z</time>
      </trkpt>
      <trkpt lat="42.72907" lon="-0.21015">
        <ele>2374.3</ele>
        <time>2018-12-27T10:38:26Z</time>
      </trkpt>
      <trkpt lat="42.7292" lon="-0.21025">
        <ele>2372.2</ele>
        <time>2018-12-27T10:38:30Z</time>
      </trkpt>
      <trkpt lat="42.7293" lon="-0.21034">
        <ele>2370.5</ele>
        <time>2018-12-27T10:38:33Z</time>
      </trkpt>
      <trkpt lat="42.72943" lon="-0.21046">
        <ele>2368.2</ele>
        <time>2018-12-27T10:38:37Z</time>
      </trkpt>
      <trkpt lat="42.72953" lon="-0.21054">
        <ele>2366.4</ele>
        <time>2018-12-27T10:38:40Z</time>
      </trkpt>
      <trkpt lat="42.72961" lon="-0.21056">
        <ele>2365.3</ele>
        <time>2018-12-27T10:38:42Z</time>
      </trkpt>
      <trkpt lat="42.72963" lon="-0.21058">
        <ele>2365</ele>
        <time>2018-12-27T10:38:43Z</time>
      </trkpt>
      <trkpt lat="42.72969" lon="-0.21064">
        <ele>2363.7</ele>
        <time>2018-12-27T10:38:45Z</time>
      </trkpt>
      <trkpt lat="42.72974" lon="-0.21068">
        <ele>2362.7</ele>
        <time>2018-12-27T10:38:47Z</time>
      </trkpt>
      <trkpt lat="42.72983" lon="-0.21081">
        <ele>2360.2</ele>
        <time>2018-12-27T10:38:50Z</time>
      </trkpt>
      <trkpt lat="42.7299" lon="-0.21097">
        <ele>2357.6</ele>
        <time>2018-12-27T10:38:54Z</time>
      </trkpt>
      <trkpt lat="42.72999" lon="-0.21109">
        <ele>2354.2</ele>
        <time>2018-12-27T10:38:57Z</time>
      </trkpt>
      <trkpt lat="42.73009" lon="-0.21114">
        <ele>2351.2</ele>
        <time>2018-12-27T10:39:00Z</time>
      </trkpt>
      <trkpt lat="42.73022" lon="-0.21113">
        <ele>2348.2</ele>
        <time>2018-12-27T10:39:03Z</time>
      </trkpt>
      <trkpt lat="42.73033" lon="-0.21119">
        <ele>2344.6</ele>
        <time>2018-12-27T10:39:06Z</time>
      </trkpt>
      <trkpt lat="42.73044" lon="-0.21126">
        <ele>2340.4</ele>
        <time>2018-12-27T10:39:10Z</time>
      </trkpt>
      <trkpt lat="42.73052" lon="-0.21131">
        <ele>2337.2</ele>
        <time>2018-12-27T10:39:12Z</time>
      </trkpt>
      <trkpt lat="42.73054" lon="-0.21132">
        <ele>2336.8</ele>
        <time>2018-12-27T10:39:13Z</time>
      </trkpt>
      <trkpt lat="42.7306" lon="-0.21136">
        <ele>2334.6</ele>
        <time>2018-12-27T10:39:14Z</time>
      </trkpt>
      <trkpt lat="42.73062" lon="-0.21141">
        <ele>2332.5</ele>
        <time>2018-12-27T10:39:16Z</time>
      </trkpt>
      <trkpt lat="42.73071" lon="-0.21159">
        <ele>2326.1</ele>
        <time>2018-12-27T10:39:20Z</time>
      </trkpt>
      <trkpt lat="42.7308" lon="-0.21178">
        <ele>2319.9</ele>
        <time>2018-12-27T10:39:24Z</time>
      </trkpt>
      <trkpt lat="42.73087" lon="-0.21198">
        <ele>2314.5</ele>
        <time>2018-12-27T10:39:29Z</time>
      </trkpt>
      <trkpt lat="42.73096" lon="-0.21211">
        <ele>2310.6</ele>
        <time>2018-12-27T10:39:32Z</time>
      </trkpt>
      <trkpt lat="42.73103" lon="-0.21221">
        <ele>2308.4</ele>
        <time>2018-12-27T10:39:35Z</time>
      </trkpt>
      <trkpt lat="42.7311" lon="-0.21236">
        <ele>2305.2</ele>
        <time>2018-12-27T10:39:38Z</time>
      </trkpt>
      <trkpt lat="42.73117" lon="-0.21238">
        <ele>2304.7</ele>
        <time>2018-12-27T10:39:40Z</time>
      </trkpt>
      <trkpt lat="42.73119" lon="-0.21236">
        <ele>2305</ele>
        <time>2018-12-27T10:39:41Z</time>
      </trkpt>
      <trkpt lat="42.73127" lon="-0.21223">
        <ele>2306.2</ele>
        <time>2018-12-27T10:39:44Z</time>
      </trkpt>
      <trkpt lat="42.73136" lon="-0.21215">
        <ele>2305.8</ele>
        <time>2018-12-27T10:39:47Z</time>
      </trkpt>
      <trkpt lat="42.73146" lon="-0.21205">
        <ele>2305.4</ele>
        <time>2018-12-27T10:39:50Z</time>
      </trkpt>
      <trkpt lat="42.73156" lon="-0.21201">
        <ele>2304.1</ele>
        <time>2018-12-27T10:39:53Z</time>
      </trkpt>
      <trkpt lat="42.73167" lon="-0.21202">
        <ele>2301.6</ele>
        <time>2018-12-27T10:39:56Z</time>
      </trkpt>
      <trkpt lat="42.73167" lon="-0.21201">
        <ele>2301.9</ele>
        <time>2018-12-27T10:39:56Z</time>
      </trkpt>
      <trkpt lat="42.73169" lon="-0.21202">
        <ele>2301.3</ele>
        <time>2018-12-27T10:39:57Z</time>
      </trkpt>
      <trkpt lat="42.73172" lon="-0.21206">
        <ele>2299.8</ele>
        <time>2018-12-27T10:39:58Z</time>
      </trkpt>
      <trkpt lat="42.7318" lon="-0.21216">
        <ele>2296.3</ele>
        <time>2018-12-27T10:40:01Z</time>
      </trkpt>
      <trkpt lat="42.73184" lon="-0.21219">
        <ele>2295.2</ele>
        <time>2018-12-27T10:40:02Z</time>
      </trkpt>
      <trkpt lat="42.73189" lon="-0.21223">
        <ele>2293.5</ele>
        <time>2018-12-27T10:40:04Z</time>
      </trkpt>
      <trkpt lat="42.73191" lon="-0.21224">
        <ele>2292.6</ele>
        <time>2018-12-27T10:40:05Z</time>
      </trkpt>
      <trkpt lat="42.73196" lon="-0.21224">
        <ele>2291.6</ele>
        <time>2018-12-27T10:40:06Z</time>
      </trkpt>
      <trkpt lat="42.73202" lon="-0.21228">
        <ele>2289.8</ele>
        <time>2018-12-27T10:40:07Z</time>
      </trkpt>
      <trkpt lat="42.73208" lon="-0.21233">
        <ele>2287.2</ele>
        <time>2018-12-27T10:40:10Z</time>
      </trkpt>
      <trkpt lat="42.73214" lon="-0.21241">
        <ele>2284.8</ele>
        <time>2018-12-27T10:40:12Z</time>
      </trkpt>
      <trkpt lat="42.73223" lon="-0.21244">
        <ele>2282.5</ele>
        <time>2018-12-27T10:40:14Z</time>
      </trkpt>
      <trkpt lat="42.73228" lon="-0.21245">
        <ele>2281.3</ele>
        <time>2018-12-27T10:40:15Z</time>
      </trkpt>
      <trkpt lat="42.7323" lon="-0.21246">
        <ele>2280.9</ele>
        <time>2018-12-27T10:40:16Z</time>
      </trkpt>
      <trkpt lat="42.73234" lon="-0.21252">
        <ele>2279</ele>
        <time>2018-12-27T10:40:18Z</time>
      </trkpt>
      <trkpt lat="42.73235" lon="-0.21252">
        <ele>2278.7</ele>
        <time>2018-12-27T10:40:18Z</time>
      </trkpt>
      <trkpt lat="42.73241" lon="-0.21252">
        <ele>2277.6</ele>
        <time>2018-12-27T10:40:19Z</time>
      </trkpt>
      <trkpt lat="42.73247" lon="-0.21253">
        <ele>2276.4</ele>
        <time>2018-12-27T10:40:21Z</time>
      </trkpt>
      <trkpt lat="42.73259" lon="-0.21252">
        <ele>2274.3</ele>
        <time>2018-12-27T10:40:24Z</time>
      </trkpt>
      <trkpt lat="42.7327" lon="-0.2125">
        <ele>2272.6</ele>
        <time>2018-12-27T10:40:27Z</time>
      </trkpt>
      <trkpt lat="42.73281" lon="-0.21253">
        <ele>2270.1</ele>
        <time>2018-12-27T10:40:30Z</time>
      </trkpt>
      <trkpt lat="42.73294" lon="-0.21255">
        <ele>2268.3</ele>
        <time>2018-12-27T10:40:34Z</time>
      </trkpt>
      <trkpt lat="42.73308" lon="-0.21255">
        <ele>2270.5</ele>
        <time>2018-12-27T10:40:37Z</time>
      </trkpt>
      <trkpt lat="42.73314" lon="-0.21255">
        <ele>2271.4</ele>
        <time>2018-12-27T10:40:39Z</time>
      </trkpt>
      <trkpt lat="42.73318" lon="-0.21255">
        <ele>2272</ele>
        <time>2018-12-27T10:40:40Z</time>
      </trkpt>
      <trkpt lat="42.73324" lon="-0.21255">
        <ele>2273</ele>
        <time>2018-12-27T10:40:42Z</time>
      </trkpt>
      <trkpt lat="42.73325" lon="-0.21255">
        <ele>2273.2</ele>
        <time>2018-12-27T10:40:42Z</time>
      </trkpt>
      <trkpt lat="42.7333" lon="-0.21253">
        <ele>2274.2</ele>
        <time>2018-12-27T10:40:43Z</time>
      </trkpt>
      <trkpt lat="42.73334" lon="-0.21253">
        <ele>2275</ele>
        <time>2018-12-27T10:40:44Z</time>
      </trkpt>
      <trkpt lat="42.73335" lon="-0.21252">
        <ele>2275.1</ele>
        <time>2018-12-27T10:40:45Z</time>
      </trkpt>
      <trkpt lat="42.73342" lon="-0.21252">
        <ele>2276.4</ele>
        <time>2018-12-27T10:40:47Z</time>
      </trkpt>
      <trkpt lat="42.73346" lon="-0.21252">
        <ele>2276.9</ele>
        <time>2018-12-27T10:40:48Z</time>
      </trkpt>
      <trkpt lat="42.73349" lon="-0.21252">
        <ele>2277.3</ele>
        <time>2018-12-27T10:40:48Z</time>
      </trkpt>
      <trkpt lat="42.73353" lon="-0.2125">
        <ele>2278</ele>
        <time>2018-12-27T10:40:50Z</time>
      </trkpt>
      <trkpt lat="42.73353" lon="-0.21249">
        <ele>2278.1</ele>
        <time>2018-12-27T10:40:50Z</time>
      </trkpt>
      <trkpt lat="42.73356" lon="-0.21245">
        <ele>2278.8</ele>
        <time>2018-12-27T10:40:51Z</time>
      </trkpt>
      <trkpt lat="42.73358" lon="-0.21246">
        <ele>2279.1</ele>
        <time>2018-12-27T10:40:52Z</time>
      </trkpt>
      <trkpt lat="42.73362" lon="-0.21245">
        <ele>2279.8</ele>
        <time>2018-12-27T10:40:53Z</time>
      </trkpt>
      <trkpt lat="42.73364" lon="-0.21243">
        <ele>2280.1</ele>
        <time>2018-12-27T10:40:53Z</time>
      </trkpt>
      <trkpt lat="42.73367" lon="-0.21243">
        <ele>2280.6</ele>
        <time>2018-12-27T10:40:54Z</time>
      </trkpt>
      <trkpt lat="42.7337" lon="-0.21241">
        <ele>2281.1</ele>
        <time>2018-12-27T10:40:55Z</time>
      </trkpt>
      <trkpt lat="42.73372" lon="-0.21245">
        <ele>2281.3</ele>
        <time>2018-12-27T10:40:56Z</time>
      </trkpt>
      <trkpt lat="42.73375" lon="-0.21243">
        <ele>2281.7</ele>
        <time>2018-12-27T10:40:57Z</time>
      </trkpt>
      <trkpt lat="42.73377" lon="-0.21242">
        <ele>2283</ele>
        <time>2018-12-27T10:40:57Z</time>
      </trkpt>
      <trkpt lat="42.73378" lon="-0.21243">
        <ele>2283.7</ele>
        <time>2018-12-27T10:40:58Z</time>
      </trkpt>
      <trkpt lat="42.73379" lon="-0.21244">
        <ele>2284.5</ele>
        <time>2018-12-27T10:40:58Z</time>
      </trkpt>
      <trkpt lat="42.73382" lon="-0.21246">
        <ele>2286.1</ele>
        <time>2018-12-27T10:40:59Z</time>
      </trkpt>
      <trkpt lat="42.73383" lon="-0.21246">
        <ele>2286.8</ele>
        <time>2018-12-27T10:40:59Z</time>
      </trkpt>
      <trkpt lat="42.73384" lon="-0.21247">
        <ele>2287.6</ele>
        <time>2018-12-27T10:41:00Z</time>
      </trkpt>
      <trkpt lat="42.73387" lon="-0.21249">
        <ele>2289.1</ele>
        <time>2018-12-27T10:41:00Z</time>
      </trkpt>
      <trkpt lat="42.73389" lon="-0.21249">
        <ele>2290.5</ele>
        <time>2018-12-27T10:41:01Z</time>
      </trkpt>
      <trkpt lat="42.73391" lon="-0.21252">
        <ele>2291.7</ele>
        <time>2018-12-27T10:41:02Z</time>
      </trkpt>
      <trkpt lat="42.73393" lon="-0.21254">
        <ele>2292.8</ele>
        <time>2018-12-27T10:41:02Z</time>
      </trkpt>
      <trkpt lat="42.73394" lon="-0.21255">
        <ele>2293.7</ele>
        <time>2018-12-27T10:41:03Z</time>
      </trkpt>
      <trkpt lat="42.73396" lon="-0.21254">
        <ele>2295</ele>
        <time>2018-12-27T10:41:03Z</time>
      </trkpt>
      <trkpt lat="42.73398" lon="-0.21255">
        <ele>2296</ele>
        <time>2018-12-27T10:41:04Z</time>
      </trkpt>
      <trkpt lat="42.734" lon="-0.21256">
        <ele>2297.2</ele>
        <time>2018-12-27T10:41:04Z</time>
      </trkpt>
      <trkpt lat="42.73402" lon="-0.21257">
        <ele>2298.4</ele>
        <time>2018-12-27T10:41:05Z</time>
      </trkpt>
      <trkpt lat="42.73405" lon="-0.21257">
        <ele>2300.2</ele>
        <time>2018-12-27T10:41:06Z</time>
      </trkpt>
      <trkpt lat="42.73406" lon="-0.21257">
        <ele>2301.3</ele>
        <time>2018-12-27T10:41:06Z</time>
      </trkpt>
      <trkpt lat="42.73409" lon="-0.21258">
        <ele>2302.9</ele>
        <time>2018-12-27T10:41:07Z</time>
      </trkpt>
      <trkpt lat="42.73411" lon="-0.21256">
        <ele>2304.2</ele>
        <time>2018-12-27T10:41:07Z</time>
      </trkpt>
      <trkpt lat="42.73413" lon="-0.21254">
        <ele>2305.6</ele>
        <time>2018-12-27T10:41:08Z</time>
      </trkpt>
      <trkpt lat="42.73415" lon="-0.21253">
        <ele>2307</ele>
        <time>2018-12-27T10:41:09Z</time>
      </trkpt>
      <trkpt lat="42.73417" lon="-0.21252">
        <ele>2308.1</ele>
        <time>2018-12-27T10:41:09Z</time>
      </trkpt>
      <trkpt lat="42.73419" lon="-0.21251">
        <ele>2309.6</ele>
        <time>2018-12-27T10:41:10Z</time>
      </trkpt>
      <trkpt lat="42.7342" lon="-0.21251">
        <ele>2310.3</ele>
        <time>2018-12-27T10:41:10Z</time>
      </trkpt>
      <trkpt lat="42.73421" lon="-0.21255">
        <ele>2310.9</ele>
        <time>2018-12-27T10:41:11Z</time>
      </trkpt>
      <trkpt lat="42.73423" lon="-0.21255">
        <ele>2312</ele>
        <time>2018-12-27T10:41:11Z</time>
      </trkpt>
      <trkpt lat="42.73425" lon="-0.21256">
        <ele>2313.3</ele>
        <time>2018-12-27T10:41:12Z</time>
      </trkpt>
      <trkpt lat="42.73426" lon="-0.21258">
        <ele>2314.1</ele>
        <time>2018-12-27T10:41:12Z</time>
      </trkpt>
      <trkpt lat="42.73428" lon="-0.21257">
        <ele>2315.3</ele>
        <time>2018-12-27T10:41:13Z</time>
      </trkpt>
      <trkpt lat="42.73429" lon="-0.21254">
        <ele>2316.1</ele>
        <time>2018-12-27T10:41:14Z</time>
      </trkpt>
      <trkpt lat="42.73431" lon="-0.21255">
        <ele>2317.1</ele>
        <time>2018-12-27T10:41:14Z</time>
      </trkpt>
      <trkpt lat="42.73433" lon="-0.21257">
        <ele>2318.2</ele>
        <time>2018-12-27T10:41:15Z</time>
      </trkpt>
      <trkpt lat="42.73435" lon="-0.21256">
        <ele>2319.5</ele>
        <time>2018-12-27T10:41:15Z</time>
      </trkpt>
      <trkpt lat="42.73436" lon="-0.21257">
        <ele>2320.4</ele>
        <time>2018-12-27T10:41:16Z</time>
      </trkpt>
      <trkpt lat="42.73438" lon="-0.21259">
        <ele>2321.4</ele>
        <time>2018-12-27T10:41:16Z</time>
      </trkpt>
      <trkpt lat="42.73439" lon="-0.21261">
        <ele>2322.4</ele>
        <time>2018-12-27T10:41:17Z</time>
      </trkpt>
      <trkpt lat="42.73442" lon="-0.2126">
        <ele>2324.2</ele>
        <time>2018-12-27T10:41:17Z</time>
      </trkpt>
      <trkpt lat="42.73444" lon="-0.2126">
        <ele>2325.4</ele>
        <time>2018-12-27T10:41:18Z</time>
      </trkpt>
      <trkpt lat="42.73445" lon="-0.2126">
        <ele>2326.2</ele>
        <time>2018-12-27T10:41:18Z</time>
      </trkpt>
      <trkpt lat="42.73446" lon="-0.21263">
        <ele>2326.9</ele>
        <time>2018-12-27T10:41:19Z</time>
      </trkpt>
      <trkpt lat="42.73448" lon="-0.21266">
        <ele>2328.2</ele>
        <time>2018-12-27T10:41:20Z</time>
      </trkpt>
      <trkpt lat="42.73448" lon="-0.21263">
        <ele>2328.2</ele>
        <time>2018-12-27T10:41:20Z</time>
      </trkpt>
      <trkpt lat="42.7345" lon="-0.21263">
        <ele>2329.3</ele>
        <time>2018-12-27T10:41:21Z</time>
      </trkpt>
      <trkpt lat="42.73452" lon="-0.21268">
        <ele>2331.3</ele>
        <time>2018-12-27T10:41:22Z</time>
      </trkpt>
      <trkpt lat="42.73455" lon="-0.21267">
        <ele>2332.9</ele>
        <time>2018-12-27T10:41:23Z</time>
      </trkpt>
      <trkpt lat="42.73457" lon="-0.21268">
        <ele>2334.1</ele>
        <time>2018-12-27T10:41:23Z</time>
      </trkpt>
      <trkpt lat="42.73459" lon="-0.21268">
        <ele>2335.3</ele>
        <time>2018-12-27T10:41:24Z</time>
      </trkpt>
      <trkpt lat="42.73459" lon="-0.21271">
        <ele>2336</ele>
        <time>2018-12-27T10:41:24Z</time>
      </trkpt>
      <trkpt lat="42.73462" lon="-0.21273">
        <ele>2337.2</ele>
        <time>2018-12-27T10:41:25Z</time>
      </trkpt>
      <trkpt lat="42.73462" lon="-0.21274">
        <ele>2337.3</ele>
        <time>2018-12-27T10:41:25Z</time>
      </trkpt>
      <trkpt lat="42.73464" lon="-0.21275">
        <ele>2338.6</ele>
        <time>2018-12-27T10:41:26Z</time>
      </trkpt>
      <trkpt lat="42.73466" lon="-0.21276">
        <ele>2339.5</ele>
        <time>2018-12-27T10:41:26Z</time>
      </trkpt>
      <trkpt lat="42.73468" lon="-0.21275">
        <ele>2340.8</ele>
        <time>2018-12-27T10:41:27Z</time>
      </trkpt>
      <trkpt lat="42.73473" lon="-0.21274">
        <ele>2343.6</ele>
        <time>2018-12-27T10:41:28Z</time>
      </trkpt>
      <trkpt lat="42.73477" lon="-0.21275">
        <ele>2346.1</ele>
        <time>2018-12-27T10:41:29Z</time>
      </trkpt>
      <trkpt lat="42.73481" lon="-0.21278">
        <ele>2348.7</ele>
        <time>2018-12-27T10:41:31Z</time>
      </trkpt>
      <trkpt lat="42.73484" lon="-0.2128">
        <ele>2350.5</ele>
        <time>2018-12-27T10:41:32Z</time>
      </trkpt>
      <trkpt lat="42.73486" lon="-0.21285">
        <ele>2352</ele>
        <time>2018-12-27T10:41:33Z</time>
      </trkpt>
      <trkpt lat="42.73491" lon="-0.21285">
        <ele>2354.8</ele>
        <time>2018-12-27T10:41:34Z</time>
      </trkpt>
      <trkpt lat="42.73493" lon="-0.21285">
        <ele>2356</ele>
        <time>2018-12-27T10:41:34Z</time>
      </trkpt>
      <trkpt lat="42.73495" lon="-0.21286">
        <ele>2357.1</ele>
        <time>2018-12-27T10:41:35Z</time>
      </trkpt>
      <trkpt lat="42.73497" lon="-0.21287">
        <ele>2358.5</ele>
        <time>2018-12-27T10:41:36Z</time>
      </trkpt>
      <trkpt lat="42.735" lon="-0.21287">
        <ele>2360.4</ele>
        <time>2018-12-27T10:41:37Z</time>
      </trkpt>
      <trkpt lat="42.73505" lon="-0.21289">
        <ele>2363.1</ele>
        <time>2018-12-27T10:41:38Z</time>
      </trkpt>
      <trkpt lat="42.7351" lon="-0.21289">
        <ele>2365.9</ele>
        <time>2018-12-27T10:41:39Z</time>
      </trkpt>
      <trkpt lat="42.73511" lon="-0.21288">
        <ele>2366.8</ele>
        <time>2018-12-27T10:41:39Z</time>
      </trkpt>
      <trkpt lat="42.73514" lon="-0.21288">
        <ele>2368.5</ele>
        <time>2018-12-27T10:41:40Z</time>
      </trkpt>
      <trkpt lat="42.73518" lon="-0.21286">
        <ele>2370.6</ele>
        <time>2018-12-27T10:41:41Z</time>
      </trkpt>
      <trkpt lat="42.73518" lon="-0.21285">
        <ele>2370.6</ele>
        <time>2018-12-27T10:41:41Z</time>
      </trkpt>
      <trkpt lat="42.73521" lon="-0.21286">
        <ele>2372.2</ele>
        <time>2018-12-27T10:41:42Z</time>
      </trkpt>
      <trkpt lat="42.73522" lon="-0.21285">
        <ele>2373.2</ele>
        <time>2018-12-27T10:41:43Z</time>
      </trkpt>
      <trkpt lat="42.73526" lon="-0.21284">
        <ele>2374.8</ele>
        <time>2018-12-27T10:41:44Z</time>
      </trkpt>
      <trkpt lat="42.73527" lon="-0.21283">
        <ele>2375.6</ele>
        <time>2018-12-27T10:41:44Z</time>
      </trkpt>
      <trkpt lat="42.7353" lon="-0.21283">
        <ele>2377.2</ele>
        <time>2018-12-27T10:41:45Z</time>
      </trkpt>
      <trkpt lat="42.73531" lon="-0.21282">
        <ele>2377.7</ele>
        <time>2018-12-27T10:41:45Z</time>
      </trkpt>
      <trkpt lat="42.73532" lon="-0.21282">
        <ele>2378.6</ele>
        <time>2018-12-27T10:41:45Z</time>
      </trkpt>
      <trkpt lat="42.73535" lon="-0.21281">
        <ele>2380.1</ele>
        <time>2018-12-27T10:41:46Z</time>
      </trkpt>
      <trkpt lat="42.73537" lon="-0.21281">
        <ele>2381.3</ele>
        <time>2018-12-27T10:41:47Z</time>
      </trkpt>
      <trkpt lat="42.73539" lon="-0.21281">
        <ele>2382.2</ele>
        <time>2018-12-27T10:41:47Z</time>
      </trkpt>
      <trkpt lat="42.73543" lon="-0.2128">
        <ele>2384.1</ele>
        <time>2018-12-27T10:41:48Z</time>
      </trkpt>
      <trkpt lat="42.73544" lon="-0.21283">
        <ele>2385</ele>
        <time>2018-12-27T10:41:49Z</time>
      </trkpt>
      <trkpt lat="42.73548" lon="-0.21282">
        <ele>2386.6</ele>
        <time>2018-12-27T10:41:50Z</time>
      </trkpt>
      <trkpt lat="42.73552" lon="-0.21284">
        <ele>2388.4</ele>
        <time>2018-12-27T10:41:51Z</time>
      </trkpt>
      <trkpt lat="42.73554" lon="-0.21285">
        <ele>2389.4</ele>
        <time>2018-12-27T10:41:52Z</time>
      </trkpt>
      <trkpt lat="42.73557" lon="-0.21287">
        <ele>2390.8</ele>
        <time>2018-12-27T10:41:52Z</time>
      </trkpt>
      <trkpt lat="42.73559" lon="-0.21287">
        <ele>2391.4</ele>
        <time>2018-12-27T10:41:53Z</time>
      </trkpt>
      <trkpt lat="42.73563" lon="-0.21286">
        <ele>2392.9</ele>
        <time>2018-12-27T10:41:54Z</time>
      </trkpt>
      <trkpt lat="42.73567" lon="-0.21285">
        <ele>2394.3</ele>
        <time>2018-12-27T10:41:55Z</time>
      </trkpt>
      <trkpt lat="42.7357" lon="-0.21289">
        <ele>2395.9</ele>
        <time>2018-12-27T10:41:56Z</time>
      </trkpt>
      <trkpt lat="42.73572" lon="-0.21291">
        <ele>2396.8</ele>
        <time>2018-12-27T10:41:57Z</time>
      </trkpt>
      <trkpt lat="42.73574" lon="-0.21293">
        <ele>2398.3</ele>
        <time>2018-12-27T10:41:57Z</time>
      </trkpt>
      <trkpt lat="42.73575" lon="-0.21296">
        <ele>2400</ele>
        <time>2018-12-27T10:41:58Z</time>
      </trkpt>
      <trkpt lat="42.73579" lon="-0.21295">
        <ele>2401.1</ele>
        <time>2018-12-27T10:41:59Z</time>
      </trkpt>
      <trkpt lat="42.73582" lon="-0.21297">
        <ele>2403.1</ele>
        <time>2018-12-27T10:42:00Z</time>
      </trkpt>
      <trkpt lat="42.73584" lon="-0.21302">
        <ele>2405.5</ele>
        <time>2018-12-27T10:42:01Z</time>
      </trkpt>
      <trkpt lat="42.73585" lon="-0.2131">
        <ele>2408.8</ele>
        <time>2018-12-27T10:42:03Z</time>
      </trkpt>
      <trkpt lat="42.73587" lon="-0.21307">
        <ele>2408.7</ele>
        <time>2018-12-27T10:42:04Z</time>
      </trkpt>
      <trkpt lat="42.73591" lon="-0.21305">
        <ele>2409.5</ele>
        <time>2018-12-27T10:42:05Z</time>
      </trkpt>
      <trkpt lat="42.73592" lon="-0.21305">
        <ele>2409.9</ele>
        <time>2018-12-27T10:42:05Z</time>
      </trkpt>
      <trkpt lat="42.73597" lon="-0.21301">
        <ele>2410.4</ele>
        <time>2018-12-27T10:42:07Z</time>
      </trkpt>
      <trkpt lat="42.73598" lon="-0.21299">
        <ele>2410.4</ele>
        <time>2018-12-27T10:42:07Z</time>
      </trkpt>
      <trkpt lat="42.73601" lon="-0.21299">
        <ele>2411</ele>
        <time>2018-12-27T10:42:08Z</time>
      </trkpt>
      <trkpt lat="42.73605" lon="-0.21303">
        <ele>2414.6</ele>
        <time>2018-12-27T10:42:09Z</time>
      </trkpt>
      <trkpt lat="42.73607" lon="-0.21302">
        <ele>2415.1</ele>
        <time>2018-12-27T10:42:10Z</time>
      </trkpt>
      <trkpt lat="42.73608" lon="-0.21307">
        <ele>2417.3</ele>
        <time>2018-12-27T10:42:11Z</time>
      </trkpt>
      <trkpt lat="42.7361" lon="-0.21309">
        <ele>2418.6</ele>
        <time>2018-12-27T10:42:11Z</time>
      </trkpt>
      <trkpt lat="42.73611" lon="-0.21311">
        <ele>2419.8</ele>
        <time>2018-12-27T10:42:12Z</time>
      </trkpt>
      <trkpt lat="42.73611" lon="-0.21314">
        <ele>2421.1</ele>
        <time>2018-12-27T10:42:13Z</time>
      </trkpt>
      <trkpt lat="42.73612" lon="-0.21317">
        <ele>2422.7</ele>
        <time>2018-12-27T10:42:13Z</time>
      </trkpt>
      <trkpt lat="42.73613" lon="-0.21321">
        <ele>2424.8</ele>
        <time>2018-12-27T10:42:14Z</time>
      </trkpt>
      <trkpt lat="42.73614" lon="-0.21321">
        <ele>2425.1</ele>
        <time>2018-12-27T10:42:14Z</time>
      </trkpt>
      <trkpt lat="42.73616" lon="-0.21319">
        <ele>2425.3</ele>
        <time>2018-12-27T10:42:15Z</time>
      </trkpt>
      <trkpt lat="42.73617" lon="-0.21321">
        <ele>2426.6</ele>
        <time>2018-12-27T10:42:15Z</time>
      </trkpt>
      <trkpt lat="42.73619" lon="-0.2132">
        <ele>2427.1</ele>
        <time>2018-12-27T10:42:16Z</time>
      </trkpt>
      <trkpt lat="42.73619" lon="-0.21321">
        <ele>2427.6</ele>
        <time>2018-12-27T10:42:16Z</time>
      </trkpt>
      <trkpt lat="42.7362" lon="-0.21324">
        <ele>2429</ele>
        <time>2018-12-27T10:42:17Z</time>
      </trkpt>
      <trkpt lat="42.73622" lon="-0.21326">
        <ele>2430.6</ele>
        <time>2018-12-27T10:42:17Z</time>
      </trkpt>
      <trkpt lat="42.73622" lon="-0.21329">
        <ele>2432</ele>
        <time>2018-12-27T10:42:18Z</time>
      </trkpt>
      <trkpt lat="42.73624" lon="-0.21331">
        <ele>2433.8</ele>
        <time>2018-12-27T10:42:19Z</time>
      </trkpt>
      <trkpt lat="42.73625" lon="-0.21329">
        <ele>2433.4</ele>
        <time>2018-12-27T10:42:19Z</time>
      </trkpt>
      <trkpt lat="42.73627" lon="-0.21327">
        <ele>2433</ele>
        <time>2018-12-27T10:42:20Z</time>
      </trkpt>
      <trkpt lat="42.73628" lon="-0.21328">
        <ele>2433.8</ele>
        <time>2018-12-27T10:42:20Z</time>
      </trkpt>
      <trkpt lat="42.73629" lon="-0.2133">
        <ele>2434.7</ele>
        <time>2018-12-27T10:42:21Z</time>
      </trkpt>
      <trkpt lat="42.73631" lon="-0.21328">
        <ele>2434.3</ele>
        <time>2018-12-27T10:42:21Z</time>
      </trkpt>
      <trkpt lat="42.73634" lon="-0.21329">
        <ele>2435.5</ele>
        <time>2018-12-27T10:42:22Z</time>
      </trkpt>
      <trkpt lat="42.73636" lon="-0.21332">
        <ele>2437.2</ele>
        <time>2018-12-27T10:42:23Z</time>
      </trkpt>
      <trkpt lat="42.73637" lon="-0.21335">
        <ele>2438.6</ele>
        <time>2018-12-27T10:42:24Z</time>
      </trkpt>
      <trkpt lat="42.73639" lon="-0.21333">
        <ele>2438.4</ele>
        <time>2018-12-27T10:42:24Z</time>
      </trkpt>
      <trkpt lat="42.7364" lon="-0.2133">
        <ele>2437.8</ele>
        <time>2018-12-27T10:42:25Z</time>
      </trkpt>
      <trkpt lat="42.73643" lon="-0.21333">
        <ele>2439.2</ele>
        <time>2018-12-27T10:42:26Z</time>
      </trkpt>
      <trkpt lat="42.73644" lon="-0.2133">
        <ele>2438.6</ele>
        <time>2018-12-27T10:42:27Z</time>
      </trkpt>
      <trkpt lat="42.73646" lon="-0.2133">
        <ele>2439.3</ele>
        <time>2018-12-27T10:42:27Z</time>
      </trkpt>
      <trkpt lat="42.73648" lon="-0.2133">
        <ele>2439.7</ele>
        <time>2018-12-27T10:42:28Z</time>
      </trkpt>
      <trkpt lat="42.7365" lon="-0.21333">
        <ele>2441.1</ele>
        <time>2018-12-27T10:42:28Z</time>
      </trkpt>
      <trkpt lat="42.73651" lon="-0.21332">
        <ele>2441.2</ele>
        <time>2018-12-27T10:42:29Z</time>
      </trkpt>
      <trkpt lat="42.73652" lon="-0.21329">
        <ele>2440.7</ele>
        <time>2018-12-27T10:42:29Z</time>
      </trkpt>
      <trkpt lat="42.73653" lon="-0.21328">
        <ele>2440.5</ele>
        <time>2018-12-27T10:42:30Z</time>
      </trkpt>
      <trkpt lat="42.73656" lon="-0.21331">
        <ele>2442.1</ele>
        <time>2018-12-27T10:42:31Z</time>
      </trkpt>
      <trkpt lat="42.73658" lon="-0.21334">
        <ele>2443.3</ele>
        <time>2018-12-27T10:42:32Z</time>
      </trkpt>
      <trkpt lat="42.73659" lon="-0.21337">
        <ele>2444.1</ele>
        <time>2018-12-27T10:42:32Z</time>
      </trkpt>
      <trkpt lat="42.73662" lon="-0.21334">
        <ele>2444.1</ele>
        <time>2018-12-27T10:42:33Z</time>
      </trkpt>
      <trkpt lat="42.73663" lon="-0.21335">
        <ele>2444.9</ele>
        <time>2018-12-27T10:42:34Z</time>
      </trkpt>
      <trkpt lat="42.73664" lon="-0.21336">
        <ele>2445.3</ele>
        <time>2018-12-27T10:42:34Z</time>
      </trkpt>
      <trkpt lat="42.73667" lon="-0.21337">
        <ele>2445.8</ele>
        <time>2018-12-27T10:42:35Z</time>
      </trkpt>
      <trkpt lat="42.73668" lon="-0.21334">
        <ele>2445.6</ele>
        <time>2018-12-27T10:42:35Z</time>
      </trkpt>
      <trkpt lat="42.7367" lon="-0.21332">
        <ele>2445.9</ele>
        <time>2018-12-27T10:42:36Z</time>
      </trkpt>
      <trkpt lat="42.7367" lon="-0.21332">
        <ele>2445.9</ele>
        <time>2018-12-27T10:42:36Z</time>
      </trkpt>
      <trkpt lat="42.73672" lon="-0.21336">
        <ele>2447</ele>
        <time>2018-12-27T10:42:37Z</time>
      </trkpt>
      <trkpt lat="42.73673" lon="-0.21334">
        <ele>2446.9</ele>
        <time>2018-12-27T10:42:37Z</time>
      </trkpt>
      <trkpt lat="42.73675" lon="-0.21331">
        <ele>2447</ele>
        <time>2018-12-27T10:42:38Z</time>
      </trkpt>
      <trkpt lat="42.73677" lon="-0.21331">
        <ele>2447.5</ele>
        <time>2018-12-27T10:42:39Z</time>
      </trkpt>
      <trkpt lat="42.73679" lon="-0.21331">
        <ele>2447.9</ele>
        <time>2018-12-27T10:42:39Z</time>
      </trkpt>
      <trkpt lat="42.73681" lon="-0.21329">
        <ele>2448.3</ele>
        <time>2018-12-27T10:42:40Z</time>
      </trkpt>
      <trkpt lat="42.73682" lon="-0.21327">
        <ele>2448.5</ele>
        <time>2018-12-27T10:42:41Z</time>
      </trkpt>
      <trkpt lat="42.73683" lon="-0.21329">
        <ele>2449.1</ele>
        <time>2018-12-27T10:42:41Z</time>
      </trkpt>
      <trkpt lat="42.73685" lon="-0.21329">
        <ele>2449.5</ele>
        <time>2018-12-27T10:42:42Z</time>
      </trkpt>
      <trkpt lat="42.73689" lon="-0.21327">
        <ele>2450.4</ele>
        <time>2018-12-27T10:42:43Z</time>
      </trkpt>
      <trkpt lat="42.73695" lon="-0.21327">
        <ele>2452</ele>
        <time>2018-12-27T10:42:44Z</time>
      </trkpt>
      <trkpt lat="42.73696" lon="-0.21327">
        <ele>2452.5</ele>
        <time>2018-12-27T10:42:45Z</time>
      </trkpt>
      <trkpt lat="42.73699" lon="-0.21328">
        <ele>2453.3</ele>
        <time>2018-12-27T10:42:45Z</time>
      </trkpt>
      <trkpt lat="42.73701" lon="-0.21329">
        <ele>2453.8</ele>
        <time>2018-12-27T10:42:46Z</time>
      </trkpt>
      <trkpt lat="42.73706" lon="-0.21329">
        <ele>2455.1</ele>
        <time>2018-12-27T10:42:47Z</time>
      </trkpt>
      <trkpt lat="42.73707" lon="-0.21329">
        <ele>2455.4</ele>
        <time>2018-12-27T10:42:47Z</time>
      </trkpt>
      <trkpt lat="42.73714" lon="-0.21331">
        <ele>2457.2</ele>
        <time>2018-12-27T10:42:49Z</time>
      </trkpt>
      <trkpt lat="42.7372" lon="-0.21335">
        <ele>2458.5</ele>
        <time>2018-12-27T10:42:51Z</time>
      </trkpt>
      <trkpt lat="42.7372" lon="-0.21342">
        <ele>2458</ele>
        <time>2018-12-27T10:42:52Z</time>
      </trkpt>
      <trkpt lat="42.73715" lon="-0.21354">
        <ele>2455.8</ele>
        <time>2018-12-27T10:42:55Z</time>
      </trkpt>
      <trkpt lat="42.73711" lon="-0.21369">
        <ele>2454</ele>
        <time>2018-12-27T10:42:58Z</time>
      </trkpt>
      <trkpt lat="42.73713" lon="-0.21379">
        <ele>2453.1</ele>
        <time>2018-12-27T10:43:00Z</time>
      </trkpt>
      <trkpt lat="42.73713" lon="-0.21381">
        <ele>2452.7</ele>
        <time>2018-12-27T10:43:01Z</time>
      </trkpt>
      <trkpt lat="42.73713" lon="-0.21388">
        <ele>2451.6</ele>
        <time>2018-12-27T10:43:02Z</time>
      </trkpt>
      <trkpt lat="42.73711" lon="-0.21391">
        <ele>2450.6</ele>
        <time>2018-12-27T10:43:03Z</time>
      </trkpt>
      <trkpt lat="42.73707" lon="-0.21398">
        <ele>2449.2</ele>
        <time>2018-12-27T10:43:05Z</time>
      </trkpt>
      <trkpt lat="42.73707" lon="-0.214">
        <ele>2448.8</ele>
        <time>2018-12-27T10:43:05Z</time>
      </trkpt>
      <trkpt lat="42.73703" lon="-0.21415">
        <ele>2446.6</ele>
        <time>2018-12-27T10:43:08Z</time>
      </trkpt>
      <trkpt lat="42.73697" lon="-0.21432">
        <ele>2444</ele>
        <time>2018-12-27T10:43:12Z</time>
      </trkpt>
      <trkpt lat="42.73685" lon="-0.21452">
        <ele>2441.7</ele>
        <time>2018-12-27T10:43:17Z</time>
      </trkpt>
      <trkpt lat="42.73676" lon="-0.21464">
        <ele>2440.3</ele>
        <time>2018-12-27T10:43:20Z</time>
      </trkpt>
      <trkpt lat="42.73673" lon="-0.21478">
        <ele>2437.9</ele>
        <time>2018-12-27T10:43:23Z</time>
      </trkpt>
      <trkpt lat="42.73666" lon="-0.21491">
        <ele>2435.8</ele>
        <time>2018-12-27T10:43:26Z</time>
      </trkpt>
      <trkpt lat="42.73658" lon="-0.21505">
        <ele>2433.6</ele>
        <time>2018-12-27T10:43:30Z</time>
      </trkpt>
      <trkpt lat="42.73653" lon="-0.21518">
        <ele>2431.3</ele>
        <time>2018-12-27T10:43:33Z</time>
      </trkpt>
      <trkpt lat="42.73647" lon="-0.2153">
        <ele>2429.3</ele>
        <time>2018-12-27T10:43:35Z</time>
      </trkpt>
      <trkpt lat="42.73642" lon="-0.21544">
        <ele>2426.9</ele>
        <time>2018-12-27T10:43:38Z</time>
      </trkpt>
      <trkpt lat="42.73642" lon="-0.21547">
        <ele>2426.3</ele>
        <time>2018-12-27T10:43:39Z</time>
      </trkpt>
      <trkpt lat="42.7364" lon="-0.21555">
        <ele>2424.9</ele>
        <time>2018-12-27T10:43:41Z</time>
      </trkpt>
      <trkpt lat="42.73634" lon="-0.21568">
        <ele>2423</ele>
        <time>2018-12-27T10:43:44Z</time>
      </trkpt>
      <trkpt lat="42.73631" lon="-0.21579">
        <ele>2421.2</ele>
        <time>2018-12-27T10:43:46Z</time>
      </trkpt>
      <trkpt lat="42.73629" lon="-0.21582">
        <ele>2420.7</ele>
        <time>2018-12-27T10:43:47Z</time>
      </trkpt>
      <trkpt lat="42.73619" lon="-0.21594">
        <ele>2417.5</ele>
        <time>2018-12-27T10:43:50Z</time>
      </trkpt>
      <trkpt lat="42.73609" lon="-0.21604">
        <ele>2414.1</ele>
        <time>2018-12-27T10:43:54Z</time>
      </trkpt>
      <trkpt lat="42.73603" lon="-0.21613">
        <ele>2411.4</ele>
        <time>2018-12-27T10:43:56Z</time>
      </trkpt>
      <trkpt lat="42.73603" lon="-0.21616">
        <ele>2411</ele>
        <time>2018-12-27T10:43:57Z</time>
      </trkpt>
      <trkpt lat="42.73604" lon="-0.21618">
        <ele>2410.8</ele>
        <time>2018-12-27T10:43:57Z</time>
      </trkpt>
      <trkpt lat="42.73602" lon="-0.21621">
        <ele>2410</ele>
        <time>2018-12-27T10:43:58Z</time>
      </trkpt>
      <trkpt lat="42.73601" lon="-0.21622">
        <ele>2409.4</ele>
        <time>2018-12-27T10:43:58Z</time>
      </trkpt>
      <trkpt lat="42.73599" lon="-0.21634">
        <ele>2407.6</ele>
        <time>2018-12-27T10:44:01Z</time>
      </trkpt>
      <trkpt lat="42.73595" lon="-0.21648">
        <ele>2405.5</ele>
        <time>2018-12-27T10:44:03Z</time>
      </trkpt>
      <trkpt lat="42.7359" lon="-0.21657">
        <ele>2403.7</ele>
        <time>2018-12-27T10:44:06Z</time>
      </trkpt>
      <trkpt lat="42.73586" lon="-0.21663">
        <ele>2402.4</ele>
        <time>2018-12-27T10:44:07Z</time>
      </trkpt>
      <trkpt lat="42.73577" lon="-0.21678">
        <ele>2398.8</ele>
        <time>2018-12-27T10:44:11Z</time>
      </trkpt>
      <trkpt lat="42.73566" lon="-0.2169">
        <ele>2395.3</ele>
        <time>2018-12-27T10:44:15Z</time>
      </trkpt>
      <trkpt lat="42.73565" lon="-0.21693">
        <ele>2394.7</ele>
        <time>2018-12-27T10:44:15Z</time>
      </trkpt>
      <trkpt lat="42.73563" lon="-0.21702">
        <ele>2393.1</ele>
        <time>2018-12-27T10:44:17Z</time>
      </trkpt>
      <trkpt lat="42.73564" lon="-0.21705">
        <ele>2393</ele>
        <time>2018-12-27T10:44:18Z</time>
      </trkpt>
      <trkpt lat="42.73572" lon="-0.21712">
        <ele>2393.9</ele>
        <time>2018-12-27T10:44:20Z</time>
      </trkpt>
      <trkpt lat="42.73576" lon="-0.21715">
        <ele>2394.7</ele>
        <time>2018-12-27T10:44:22Z</time>
      </trkpt>
      <trkpt lat="42.73579" lon="-0.21719">
        <ele>2395.2</ele>
        <time>2018-12-27T10:44:23Z</time>
      </trkpt>
      <trkpt lat="42.73585" lon="-0.21725">
        <ele>2396.1</ele>
        <time>2018-12-27T10:44:25Z</time>
      </trkpt>
      <trkpt lat="42.73586" lon="-0.21726">
        <ele>2396.4</ele>
        <time>2018-12-27T10:44:25Z</time>
      </trkpt>
      <trkpt lat="42.73593" lon="-0.2173">
        <ele>2397.8</ele>
        <time>2018-12-27T10:44:27Z</time>
      </trkpt>
      <trkpt lat="42.73599" lon="-0.21735">
        <ele>2398.9</ele>
        <time>2018-12-27T10:44:29Z</time>
      </trkpt>
      <trkpt lat="42.736" lon="-0.2174">
        <ele>2399</ele>
        <time>2018-12-27T10:44:30Z</time>
      </trkpt>
      <trkpt lat="42.73605" lon="-0.21748">
        <ele>2399.9</ele>
        <time>2018-12-27T10:44:32Z</time>
      </trkpt>
      <trkpt lat="42.73605" lon="-0.21754">
        <ele>2399.9</ele>
        <time>2018-12-27T10:44:33Z</time>
      </trkpt>
      <trkpt lat="42.73606" lon="-0.21759">
        <ele>2399.7</ele>
        <time>2018-12-27T10:44:34Z</time>
      </trkpt>
      <trkpt lat="42.73604" lon="-0.2177">
        <ele>2399.2</ele>
        <time>2018-12-27T10:44:36Z</time>
      </trkpt>
      <trkpt lat="42.73602" lon="-0.21784">
        <ele>2398.1</ele>
        <time>2018-12-27T10:44:39Z</time>
      </trkpt>
      <trkpt lat="42.73602" lon="-0.21798">
        <ele>2398.4</ele>
        <time>2018-12-27T10:44:42Z</time>
      </trkpt>
      <trkpt lat="42.73603" lon="-0.21812">
        <ele>2399.6</ele>
        <time>2018-12-27T10:44:45Z</time>
      </trkpt>
      <trkpt lat="42.73607" lon="-0.21824">
        <ele>2401.6</ele>
        <time>2018-12-27T10:44:47Z</time>
      </trkpt>
      <trkpt lat="42.73607" lon="-0.21833">
        <ele>2402.2</ele>
        <time>2018-12-27T10:44:49Z</time>
      </trkpt>
      <trkpt lat="42.73607" lon="-0.21835">
        <ele>2402.4</ele>
        <time>2018-12-27T10:44:50Z</time>
      </trkpt>
      <trkpt lat="42.73605" lon="-0.21849">
        <ele>2402.8</ele>
        <time>2018-12-27T10:44:52Z</time>
      </trkpt>
      <trkpt lat="42.73606" lon="-0.21864">
        <ele>2404.3</ele>
        <time>2018-12-27T10:44:55Z</time>
      </trkpt>
      <trkpt lat="42.73608" lon="-0.2187">
        <ele>2405.4</ele>
        <time>2018-12-27T10:44:57Z</time>
      </trkpt>
      <trkpt lat="42.73609" lon="-0.21873">
        <ele>2405.9</ele>
        <time>2018-12-27T10:44:57Z</time>
      </trkpt>
      <trkpt lat="42.7361" lon="-0.21875">
        <ele>2406.5</ele>
        <time>2018-12-27T10:44:58Z</time>
      </trkpt>
      <trkpt lat="42.73612" lon="-0.21877">
        <ele>2407.1</ele>
        <time>2018-12-27T10:44:58Z</time>
      </trkpt>
      <trkpt lat="42.73616" lon="-0.21879">
        <ele>2408.4</ele>
        <time>2018-12-27T10:44:59Z</time>
      </trkpt>
      <trkpt lat="42.73621" lon="-0.21883">
        <ele>2410</ele>
        <time>2018-12-27T10:45:01Z</time>
      </trkpt>
      <trkpt lat="42.73627" lon="-0.21885">
        <ele>2411.1</ele>
        <time>2018-12-27T10:45:03Z</time>
      </trkpt>
      <trkpt lat="42.73629" lon="-0.21888">
        <ele>2410.7</ele>
        <time>2018-12-27T10:45:04Z</time>
      </trkpt>
      <trkpt lat="42.73635" lon="-0.21891">
        <ele>2409.7</ele>
        <time>2018-12-27T10:45:05Z</time>
      </trkpt>
      <trkpt lat="42.73647" lon="-0.21897">
        <ele>2407.7</ele>
        <time>2018-12-27T10:45:08Z</time>
      </trkpt>
      <trkpt lat="42.73659" lon="-0.21907">
        <ele>2404.8</ele>
        <time>2018-12-27T10:45:12Z</time>
      </trkpt>
      <trkpt lat="42.73668" lon="-0.21915">
        <ele>2402.4</ele>
        <time>2018-12-27T10:45:15Z</time>
      </trkpt>
      <trkpt lat="42.73678" lon="-0.21919">
        <ele>2399.8</ele>
        <time>2018-12-27T10:45:18Z</time>
      </trkpt>
      <trkpt lat="42.73687" lon="-0.2193">
        <ele>2396.2</ele>
        <time>2018-12-27T10:45:21Z</time>
      </trkpt>
      <trkpt lat="42.73691" lon="-0.21938">
        <ele>2394.1</ele>
        <time>2018-12-27T10:45:23Z</time>
      </trkpt>
      <trkpt lat="42.73693" lon="-0.2194">
        <ele>2393.5</ele>
        <time>2018-12-27T10:45:24Z</time>
      </trkpt>
      <trkpt lat="42.73702" lon="-0.21953">
        <ele>2389.1</ele>
        <time>2018-12-27T10:45:27Z</time>
      </trkpt>
      <trkpt lat="42.73709" lon="-0.21963">
        <ele>2385.7</ele>
        <time>2018-12-27T10:45:30Z</time>
      </trkpt>
      <trkpt lat="42.73715" lon="-0.21975">
        <ele>2383.1</ele>
        <time>2018-12-27T10:45:33Z</time>
      </trkpt>
      <trkpt lat="42.73723" lon="-0.21989">
        <ele>2380.3</ele>
        <time>2018-12-27T10:45:36Z</time>
      </trkpt>
      <trkpt lat="42.73732" lon="-0.22004">
        <ele>2377.1</ele>
        <time>2018-12-27T10:45:40Z</time>
      </trkpt>
      <trkpt lat="42.73737" lon="-0.22015">
        <ele>2374.8</ele>
        <time>2018-12-27T10:45:43Z</time>
      </trkpt>
      <trkpt lat="42.73741" lon="-0.22022">
        <ele>2373.4</ele>
        <time>2018-12-27T10:45:44Z</time>
      </trkpt>
      <trkpt lat="42.73742" lon="-0.22029">
        <ele>2372.6</ele>
        <time>2018-12-27T10:45:46Z</time>
      </trkpt>
      <trkpt lat="42.73751" lon="-0.22038">
        <ele>2369.7</ele>
        <time>2018-12-27T10:45:49Z</time>
      </trkpt>
      <trkpt lat="42.73765" lon="-0.22046">
        <ele>2366</ele>
        <time>2018-12-27T10:45:53Z</time>
      </trkpt>
      <trkpt lat="42.73778" lon="-0.22049">
        <ele>2363</ele>
        <time>2018-12-27T10:45:56Z</time>
      </trkpt>
      <trkpt lat="42.73783" lon="-0.22049">
        <ele>2361.8</ele>
        <time>2018-12-27T10:45:58Z</time>
      </trkpt>
      <trkpt lat="42.73785" lon="-0.22051">
        <ele>2361.3</ele>
        <time>2018-12-27T10:45:58Z</time>
      </trkpt>
      <trkpt lat="42.73786" lon="-0.22062">
        <ele>2359.4</ele>
        <time>2018-12-27T10:46:00Z</time>
      </trkpt>
      <trkpt lat="42.73788" lon="-0.22076">
        <ele>2356.9</ele>
        <time>2018-12-27T10:46:03Z</time>
      </trkpt>
      <trkpt lat="42.73792" lon="-0.2209">
        <ele>2354</ele>
        <time>2018-12-27T10:46:06Z</time>
      </trkpt>
      <trkpt lat="42.73795" lon="-0.22102">
        <ele>2352</ele>
        <time>2018-12-27T10:46:08Z</time>
      </trkpt>
      <trkpt lat="42.73799" lon="-0.22112">
        <ele>2350.2</ele>
        <time>2018-12-27T10:46:11Z</time>
      </trkpt>
      <trkpt lat="42.73803" lon="-0.22123">
        <ele>2348.1</ele>
        <time>2018-12-27T10:46:13Z</time>
      </trkpt>
      <trkpt lat="42.73805" lon="-0.22135">
        <ele>2346.8</ele>
        <time>2018-12-27T10:46:15Z</time>
      </trkpt>
      <trkpt lat="42.73805" lon="-0.22137">
        <ele>2346.6</ele>
        <time>2018-12-27T10:46:16Z</time>
      </trkpt>
      <trkpt lat="42.73807" lon="-0.22138">
        <ele>2346.4</ele>
        <time>2018-12-27T10:46:16Z</time>
      </trkpt>
      <trkpt lat="42.73812" lon="-0.22144">
        <ele>2345.4</ele>
        <time>2018-12-27T10:46:18Z</time>
      </trkpt>
      <trkpt lat="42.73815" lon="-0.22148">
        <ele>2344.6</ele>
        <time>2018-12-27T10:46:19Z</time>
      </trkpt>
      <trkpt lat="42.73819" lon="-0.22157">
        <ele>2343.5</ele>
        <time>2018-12-27T10:46:21Z</time>
      </trkpt>
      <trkpt lat="42.73824" lon="-0.22168">
        <ele>2342</ele>
        <time>2018-12-27T10:46:24Z</time>
      </trkpt>
      <trkpt lat="42.7383" lon="-0.22177">
        <ele>2340.3</ele>
        <time>2018-12-27T10:46:26Z</time>
      </trkpt>
      <trkpt lat="42.73837" lon="-0.2219">
        <ele>2338.3</ele>
        <time>2018-12-27T10:46:29Z</time>
      </trkpt>
      <trkpt lat="42.73841" lon="-0.222">
        <ele>2336.7</ele>
        <time>2018-12-27T10:46:32Z</time>
      </trkpt>
      <trkpt lat="42.73842" lon="-0.22202">
        <ele>2336.3</ele>
        <time>2018-12-27T10:46:32Z</time>
      </trkpt>
      <trkpt lat="42.73847" lon="-0.22208">
        <ele>2335</ele>
        <time>2018-12-27T10:46:34Z</time>
      </trkpt>
      <trkpt lat="42.73849" lon="-0.2221">
        <ele>2334.7</ele>
        <time>2018-12-27T10:46:34Z</time>
      </trkpt>
      <trkpt lat="42.73853" lon="-0.22213">
        <ele>2334</ele>
        <time>2018-12-27T10:46:36Z</time>
      </trkpt>
      <trkpt lat="42.73859" lon="-0.22217">
        <ele>2333</ele>
        <time>2018-12-27T10:46:37Z</time>
      </trkpt>
      <trkpt lat="42.73869" lon="-0.22223">
        <ele>2331.2</ele>
        <time>2018-12-27T10:46:40Z</time>
      </trkpt>
      <trkpt lat="42.73876" lon="-0.22226">
        <ele>2330.4</ele>
        <time>2018-12-27T10:46:42Z</time>
      </trkpt>
      <trkpt lat="42.73878" lon="-0.22226">
        <ele>2330.7</ele>
        <time>2018-12-27T10:46:43Z</time>
      </trkpt>
      <trkpt lat="42.7388" lon="-0.22229">
        <ele>2330.9</ele>
        <time>2018-12-27T10:46:44Z</time>
      </trkpt>
      <trkpt lat="42.73885" lon="-0.22229">
        <ele>2331.8</ele>
        <time>2018-12-27T10:46:45Z</time>
      </trkpt>
      <trkpt lat="42.73889" lon="-0.22231">
        <ele>2332.2</ele>
        <time>2018-12-27T10:46:46Z</time>
      </trkpt>
      <trkpt lat="42.739" lon="-0.22235">
        <ele>2334</ele>
        <time>2018-12-27T10:46:49Z</time>
      </trkpt>
      <trkpt lat="42.73908" lon="-0.22242">
        <ele>2335.4</ele>
        <time>2018-12-27T10:46:52Z</time>
      </trkpt>
      <trkpt lat="42.73909" lon="-0.22244">
        <ele>2335.5</ele>
        <time>2018-12-27T10:46:52Z</time>
      </trkpt>
      <trkpt lat="42.73911" lon="-0.22247">
        <ele>2336</ele>
        <time>2018-12-27T10:46:53Z</time>
      </trkpt>
      <trkpt lat="42.73913" lon="-0.22247">
        <ele>2336.2</ele>
        <time>2018-12-27T10:46:53Z</time>
      </trkpt>
      <trkpt lat="42.73915" lon="-0.22249">
        <ele>2336.6</ele>
        <time>2018-12-27T10:46:54Z</time>
      </trkpt>
      <trkpt lat="42.73916" lon="-0.22251">
        <ele>2336.8</ele>
        <time>2018-12-27T10:46:54Z</time>
      </trkpt>
      <trkpt lat="42.73922" lon="-0.22258">
        <ele>2338.1</ele>
        <time>2018-12-27T10:46:57Z</time>
      </trkpt>
      <trkpt lat="42.73926" lon="-0.22261">
        <ele>2339.1</ele>
        <time>2018-12-27T10:46:58Z</time>
      </trkpt>
      <trkpt lat="42.73928" lon="-0.22261">
        <ele>2339.6</ele>
        <time>2018-12-27T10:46:58Z</time>
      </trkpt>
      <trkpt lat="42.73929" lon="-0.22263">
        <ele>2339.8</ele>
        <time>2018-12-27T10:46:59Z</time>
      </trkpt>
      <trkpt lat="42.73931" lon="-0.22262">
        <ele>2340</ele>
        <time>2018-12-27T10:46:59Z</time>
      </trkpt>
      <trkpt lat="42.73933" lon="-0.22261">
        <ele>2340.4</ele>
        <time>2018-12-27T10:47:00Z</time>
      </trkpt>
      <trkpt lat="42.73935" lon="-0.2226">
        <ele>2341.1</ele>
        <time>2018-12-27T10:47:01Z</time>
      </trkpt>
      <trkpt lat="42.73937" lon="-0.22263">
        <ele>2341.4</ele>
        <time>2018-12-27T10:47:01Z</time>
      </trkpt>
      <trkpt lat="42.73938" lon="-0.22262">
        <ele>2341.8</ele>
        <time>2018-12-27T10:47:02Z</time>
      </trkpt>
      <trkpt lat="42.73941" lon="-0.22262">
        <ele>2342.2</ele>
        <time>2018-12-27T10:47:02Z</time>
      </trkpt>
      <trkpt lat="42.73944" lon="-0.22261">
        <ele>2342.8</ele>
        <time>2018-12-27T10:47:03Z</time>
      </trkpt>
      <trkpt lat="42.73946" lon="-0.22262">
        <ele>2343.2</ele>
        <time>2018-12-27T10:47:04Z</time>
      </trkpt>
      <trkpt lat="42.73946" lon="-0.22265">
        <ele>2343.6</ele>
        <time>2018-12-27T10:47:04Z</time>
      </trkpt>
      <trkpt lat="42.73949" lon="-0.22265">
        <ele>2344</ele>
        <time>2018-12-27T10:47:05Z</time>
      </trkpt>
      <trkpt lat="42.73951" lon="-0.22264">
        <ele>2344.5</ele>
        <time>2018-12-27T10:47:06Z</time>
      </trkpt>
      <trkpt lat="42.73955" lon="-0.22264">
        <ele>2345.3</ele>
        <time>2018-12-27T10:47:07Z</time>
      </trkpt>
      <trkpt lat="42.73959" lon="-0.22269">
        <ele>2346.8</ele>
        <time>2018-12-27T10:47:08Z</time>
      </trkpt>
      <trkpt lat="42.73963" lon="-0.22272">
        <ele>2348.5</ele>
        <time>2018-12-27T10:47:09Z</time>
      </trkpt>
      <trkpt lat="42.73966" lon="-0.22275">
        <ele>2349.9</ele>
        <time>2018-12-27T10:47:10Z</time>
      </trkpt>
      <trkpt lat="42.73968" lon="-0.22276">
        <ele>2350.9</ele>
        <time>2018-12-27T10:47:11Z</time>
      </trkpt>
      <trkpt lat="42.7397" lon="-0.22276">
        <ele>2351.8</ele>
        <time>2018-12-27T10:47:12Z</time>
      </trkpt>
      <trkpt lat="42.73973" lon="-0.22273">
        <ele>2352.7</ele>
        <time>2018-12-27T10:47:12Z</time>
      </trkpt>
      <trkpt lat="42.73976" lon="-0.2227">
        <ele>2353.3</ele>
        <time>2018-12-27T10:47:13Z</time>
      </trkpt>
      <trkpt lat="42.73978" lon="-0.22273">
        <ele>2354.6</ele>
        <time>2018-12-27T10:47:14Z</time>
      </trkpt>
      <trkpt lat="42.73981" lon="-0.22275">
        <ele>2355.9</ele>
        <time>2018-12-27T10:47:15Z</time>
      </trkpt>
      <trkpt lat="42.73983" lon="-0.22277">
        <ele>2356.9</ele>
        <time>2018-12-27T10:47:16Z</time>
      </trkpt>
      <trkpt lat="42.73986" lon="-0.2228">
        <ele>2358.4</ele>
        <time>2018-12-27T10:47:17Z</time>
      </trkpt>
      <trkpt lat="42.73989" lon="-0.22279">
        <ele>2359.1</ele>
        <time>2018-12-27T10:47:17Z</time>
      </trkpt>
      <trkpt lat="42.73991" lon="-0.22282">
        <ele>2360.2</ele>
        <time>2018-12-27T10:47:18Z</time>
      </trkpt>
      <trkpt lat="42.73993" lon="-0.22285">
        <ele>2361.4</ele>
        <time>2018-12-27T10:47:19Z</time>
      </trkpt>
      <trkpt lat="42.73996" lon="-0.22286">
        <ele>2362.5</ele>
        <time>2018-12-27T10:47:20Z</time>
      </trkpt>
      <trkpt lat="42.73998" lon="-0.22286">
        <ele>2363.5</ele>
        <time>2018-12-27T10:47:20Z</time>
      </trkpt>
      <trkpt lat="42.74" lon="-0.22285">
        <ele>2364.1</ele>
        <time>2018-12-27T10:47:21Z</time>
      </trkpt>
      <trkpt lat="42.74002" lon="-0.22285">
        <ele>2364.9</ele>
        <time>2018-12-27T10:47:22Z</time>
      </trkpt>
      <trkpt lat="42.74004" lon="-0.22286">
        <ele>2365.9</ele>
        <time>2018-12-27T10:47:22Z</time>
      </trkpt>
      <trkpt lat="42.74006" lon="-0.22286">
        <ele>2366.6</ele>
        <time>2018-12-27T10:47:23Z</time>
      </trkpt>
      <trkpt lat="42.74008" lon="-0.22286">
        <ele>2367.3</ele>
        <time>2018-12-27T10:47:23Z</time>
      </trkpt>
      <trkpt lat="42.74009" lon="-0.22288">
        <ele>2367.7</ele>
        <time>2018-12-27T10:47:24Z</time>
      </trkpt>
      <trkpt lat="42.7401" lon="-0.2229">
        <ele>2368.6</ele>
        <time>2018-12-27T10:47:24Z</time>
      </trkpt>
      <trkpt lat="42.74012" lon="-0.22289">
        <ele>2369.1</ele>
        <time>2018-12-27T10:47:25Z</time>
      </trkpt>
      <trkpt lat="42.74014" lon="-0.22284">
        <ele>2369.6</ele>
        <time>2018-12-27T10:47:26Z</time>
      </trkpt>
      <trkpt lat="42.74015" lon="-0.22282">
        <ele>2369.9</ele>
        <time>2018-12-27T10:47:26Z</time>
      </trkpt>
      <trkpt lat="42.74016" lon="-0.22279">
        <ele>2370</ele>
        <time>2018-12-27T10:47:27Z</time>
      </trkpt>
      <trkpt lat="42.74018" lon="-0.22278">
        <ele>2370.7</ele>
        <time>2018-12-27T10:47:28Z</time>
      </trkpt>
      <trkpt lat="42.74018" lon="-0.22274">
        <ele>2370.9</ele>
        <time>2018-12-27T10:47:28Z</time>
      </trkpt>
      <trkpt lat="42.74019" lon="-0.22272">
        <ele>2371</ele>
        <time>2018-12-27T10:47:29Z</time>
      </trkpt>
      <trkpt lat="42.7402" lon="-0.22269">
        <ele>2371.2</ele>
        <time>2018-12-27T10:47:29Z</time>
      </trkpt>
      <trkpt lat="42.74022" lon="-0.22269">
        <ele>2372.2</ele>
        <time>2018-12-27T10:47:30Z</time>
      </trkpt>
      <trkpt lat="42.74025" lon="-0.22266">
        <ele>2373</ele>
        <time>2018-12-27T10:47:31Z</time>
      </trkpt>
      <trkpt lat="42.74027" lon="-0.22265">
        <ele>2373.8</ele>
        <time>2018-12-27T10:47:32Z</time>
      </trkpt>
      <trkpt lat="42.7403" lon="-0.22264">
        <ele>2375</ele>
        <time>2018-12-27T10:47:32Z</time>
      </trkpt>
      <trkpt lat="42.74032" lon="-0.2226">
        <ele>2375.5</ele>
        <time>2018-12-27T10:47:33Z</time>
      </trkpt>
      <trkpt lat="42.74032" lon="-0.22257">
        <ele>2375.6</ele>
        <time>2018-12-27T10:47:34Z</time>
      </trkpt>
      <trkpt lat="42.74034" lon="-0.22254">
        <ele>2375.9</ele>
        <time>2018-12-27T10:47:35Z</time>
      </trkpt>
      <trkpt lat="42.74034" lon="-0.22252">
        <ele>2375.9</ele>
        <time>2018-12-27T10:47:35Z</time>
      </trkpt>
      <trkpt lat="42.74037" lon="-0.22252">
        <ele>2377.1</ele>
        <time>2018-12-27T10:47:36Z</time>
      </trkpt>
      <trkpt lat="42.74037" lon="-0.22249">
        <ele>2376.9</ele>
        <time>2018-12-27T10:47:36Z</time>
      </trkpt>
      <trkpt lat="42.74038" lon="-0.22246">
        <ele>2377.3</ele>
        <time>2018-12-27T10:47:37Z</time>
      </trkpt>
      <trkpt lat="42.74038" lon="-0.22243">
        <ele>2377.2</ele>
        <time>2018-12-27T10:47:38Z</time>
      </trkpt>
      <trkpt lat="42.7404" lon="-0.22242">
        <ele>2377.9</ele>
        <time>2018-12-27T10:47:38Z</time>
      </trkpt>
      <trkpt lat="42.74042" lon="-0.22241">
        <ele>2379</ele>
        <time>2018-12-27T10:47:39Z</time>
      </trkpt>
      <trkpt lat="42.74044" lon="-0.22238">
        <ele>2379.9</ele>
        <time>2018-12-27T10:47:40Z</time>
      </trkpt>
      <trkpt lat="42.74046" lon="-0.22234">
        <ele>2380.7</ele>
        <time>2018-12-27T10:47:41Z</time>
      </trkpt>
      <trkpt lat="42.74049" lon="-0.22229">
        <ele>2382</ele>
        <time>2018-12-27T10:47:42Z</time>
      </trkpt>
      <trkpt lat="42.74051" lon="-0.22227">
        <ele>2382.8</ele>
        <time>2018-12-27T10:47:42Z</time>
      </trkpt>
      <trkpt lat="42.74055" lon="-0.22223">
        <ele>2384.6</ele>
        <time>2018-12-27T10:47:44Z</time>
      </trkpt>
      <trkpt lat="42.74057" lon="-0.22223">
        <ele>2386.2</ele>
        <time>2018-12-27T10:47:44Z</time>
      </trkpt>
      <trkpt lat="42.74059" lon="-0.2222">
        <ele>2386.8</ele>
        <time>2018-12-27T10:47:45Z</time>
      </trkpt>
      <trkpt lat="42.7406" lon="-0.22217">
        <ele>2387.4</ele>
        <time>2018-12-27T10:47:46Z</time>
      </trkpt>
      <trkpt lat="42.74061" lon="-0.22215">
        <ele>2388</ele>
        <time>2018-12-27T10:47:46Z</time>
      </trkpt>
      <trkpt lat="42.74061" lon="-0.22211">
        <ele>2387.7</ele>
        <time>2018-12-27T10:47:47Z</time>
      </trkpt>
      <trkpt lat="42.74061" lon="-0.22206">
        <ele>2388.1</ele>
        <time>2018-12-27T10:47:48Z</time>
      </trkpt>
      <trkpt lat="42.74065" lon="-0.22207">
        <ele>2389.9</ele>
        <time>2018-12-27T10:47:49Z</time>
      </trkpt>
      <trkpt lat="42.74067" lon="-0.22207">
        <ele>2391.2</ele>
        <time>2018-12-27T10:47:50Z</time>
      </trkpt>
      <trkpt lat="42.74067" lon="-0.22202">
        <ele>2391.7</ele>
        <time>2018-12-27T10:47:51Z</time>
      </trkpt>
      <trkpt lat="42.74069" lon="-0.22201">
        <ele>2393.2</ele>
        <time>2018-12-27T10:47:51Z</time>
      </trkpt>
      <trkpt lat="42.74071" lon="-0.222">
        <ele>2394.4</ele>
        <time>2018-12-27T10:47:52Z</time>
      </trkpt>
      <trkpt lat="42.74073" lon="-0.222">
        <ele>2395.3</ele>
        <time>2018-12-27T10:47:52Z</time>
      </trkpt>
      <trkpt lat="42.74074" lon="-0.22201">
        <ele>2395.8</ele>
        <time>2018-12-27T10:47:53Z</time>
      </trkpt>
      <trkpt lat="42.74075" lon="-0.222">
        <ele>2396.9</ele>
        <time>2018-12-27T10:47:53Z</time>
      </trkpt>
      <trkpt lat="42.74075" lon="-0.22196">
        <ele>2397.5</ele>
        <time>2018-12-27T10:47:54Z</time>
      </trkpt>
      <trkpt lat="42.74077" lon="-0.22193">
        <ele>2398.6</ele>
        <time>2018-12-27T10:47:54Z</time>
      </trkpt>
      <trkpt lat="42.74079" lon="-0.22193">
        <ele>2399.9</ele>
        <time>2018-12-27T10:47:55Z</time>
      </trkpt>
      <trkpt lat="42.7408" lon="-0.2219">
        <ele>2400.6</ele>
        <time>2018-12-27T10:47:55Z</time>
      </trkpt>
      <trkpt lat="42.74082" lon="-0.22189">
        <ele>2402</ele>
        <time>2018-12-27T10:47:56Z</time>
      </trkpt>
      <trkpt lat="42.74081" lon="-0.22185">
        <ele>2402.1</ele>
        <time>2018-12-27T10:47:57Z</time>
      </trkpt>
      <trkpt lat="42.7408" lon="-0.22181">
        <ele>2402.1</ele>
        <time>2018-12-27T10:47:58Z</time>
      </trkpt>
      <trkpt lat="42.74083" lon="-0.2218">
        <ele>2404.1</ele>
        <time>2018-12-27T10:47:58Z</time>
      </trkpt>
      <trkpt lat="42.74085" lon="-0.22178">
        <ele>2405.3</ele>
        <time>2018-12-27T10:47:59Z</time>
      </trkpt>
      <trkpt lat="42.74085" lon="-0.22175">
        <ele>2405.8</ele>
        <time>2018-12-27T10:48:00Z</time>
      </trkpt>
      <trkpt lat="42.74086" lon="-0.22174">
        <ele>2406.8</ele>
        <time>2018-12-27T10:48:00Z</time>
      </trkpt>
      <trkpt lat="42.74089" lon="-0.22175">
        <ele>2408.1</ele>
        <time>2018-12-27T10:48:01Z</time>
      </trkpt>
      <trkpt lat="42.7409" lon="-0.22172">
        <ele>2409</ele>
        <time>2018-12-27T10:48:02Z</time>
      </trkpt>
      <trkpt lat="42.74089" lon="-0.22165">
        <ele>2409.4</ele>
        <time>2018-12-27T10:48:03Z</time>
      </trkpt>
      <trkpt lat="42.7409" lon="-0.22164">
        <ele>2410.4</ele>
        <time>2018-12-27T10:48:03Z</time>
      </trkpt>
      <trkpt lat="42.74092" lon="-0.22161">
        <ele>2411.7</ele>
        <time>2018-12-27T10:48:04Z</time>
      </trkpt>
      <trkpt lat="42.74092" lon="-0.22159">
        <ele>2412.5</ele>
        <time>2018-12-27T10:48:04Z</time>
      </trkpt>
      <trkpt lat="42.74093" lon="-0.22155">
        <ele>2413.3</ele>
        <time>2018-12-27T10:48:05Z</time>
      </trkpt>
      <trkpt lat="42.74094" lon="-0.22152">
        <ele>2414.1</ele>
        <time>2018-12-27T10:48:06Z</time>
      </trkpt>
      <trkpt lat="42.74092" lon="-0.22148">
        <ele>2413.7</ele>
        <time>2018-12-27T10:48:07Z</time>
      </trkpt>
      <trkpt lat="42.74093" lon="-0.22146">
        <ele>2414.6</ele>
        <time>2018-12-27T10:48:07Z</time>
      </trkpt>
      <trkpt lat="42.74096" lon="-0.22145">
        <ele>2416.4</ele>
        <time>2018-12-27T10:48:08Z</time>
      </trkpt>
      <trkpt lat="42.74099" lon="-0.22143">
        <ele>2418.6</ele>
        <time>2018-12-27T10:48:09Z</time>
      </trkpt>
      <trkpt lat="42.74101" lon="-0.22138">
        <ele>2420.2</ele>
        <time>2018-12-27T10:48:10Z</time>
      </trkpt>
      <trkpt lat="42.74102" lon="-0.22136">
        <ele>2421.4</ele>
        <time>2018-12-27T10:48:11Z</time>
      </trkpt>
      <trkpt lat="42.74105" lon="-0.22133">
        <ele>2423.6</ele>
        <time>2018-12-27T10:48:12Z</time>
      </trkpt>
      <trkpt lat="42.74106" lon="-0.22128">
        <ele>2424.6</ele>
        <time>2018-12-27T10:48:13Z</time>
      </trkpt>
      <trkpt lat="42.74107" lon="-0.22124">
        <ele>2425.8</ele>
        <time>2018-12-27T10:48:13Z</time>
      </trkpt>
      <trkpt lat="42.74108" lon="-0.22119">
        <ele>2428</ele>
        <time>2018-12-27T10:48:15Z</time>
      </trkpt>
      <trkpt lat="42.7411" lon="-0.22116">
        <ele>2429.5</ele>
        <time>2018-12-27T10:48:15Z</time>
      </trkpt>
      <trkpt lat="42.74112" lon="-0.22113">
        <ele>2431.2</ele>
        <time>2018-12-27T10:48:16Z</time>
      </trkpt>
      <trkpt lat="42.74115" lon="-0.22111">
        <ele>2433.2</ele>
        <time>2018-12-27T10:48:17Z</time>
      </trkpt>
      <trkpt lat="42.74116" lon="-0.22106">
        <ele>2435.2</ele>
        <time>2018-12-27T10:48:18Z</time>
      </trkpt>
      <trkpt lat="42.74121" lon="-0.22099">
        <ele>2439</ele>
        <time>2018-12-27T10:48:20Z</time>
      </trkpt>
      <trkpt lat="42.74122" lon="-0.221">
        <ele>2439.7</ele>
        <time>2018-12-27T10:48:20Z</time>
      </trkpt>
      <trkpt lat="42.74125" lon="-0.22102">
        <ele>2441</ele>
        <time>2018-12-27T10:48:21Z</time>
      </trkpt>
      <trkpt lat="42.74128" lon="-0.22104">
        <ele>2440.8</ele>
        <time>2018-12-27T10:48:22Z</time>
      </trkpt>
      <trkpt lat="42.74131" lon="-0.22107">
        <ele>2440.5</ele>
        <time>2018-12-27T10:48:23Z</time>
      </trkpt>
      <trkpt lat="42.74133" lon="-0.22109">
        <ele>2440.5</ele>
        <time>2018-12-27T10:48:24Z</time>
      </trkpt>
      <trkpt lat="42.74134" lon="-0.2211">
        <ele>2440.5</ele>
        <time>2018-12-27T10:48:24Z</time>
      </trkpt>
      <trkpt lat="42.74139" lon="-0.22117">
        <ele>2440.3</ele>
        <time>2018-12-27T10:48:26Z</time>
      </trkpt>
      <trkpt lat="42.74143" lon="-0.22122">
        <ele>2440.2</ele>
        <time>2018-12-27T10:48:27Z</time>
      </trkpt>
      <trkpt lat="42.74145" lon="-0.22124">
        <ele>2440.5</ele>
        <time>2018-12-27T10:48:28Z</time>
      </trkpt>
      <trkpt lat="42.74151" lon="-0.22133">
        <ele>2441.3</ele>
        <time>2018-12-27T10:48:30Z</time>
      </trkpt>
      <trkpt lat="42.74154" lon="-0.22135">
        <ele>2442.1</ele>
        <time>2018-12-27T10:48:31Z</time>
      </trkpt>
      <trkpt lat="42.74154" lon="-0.22133">
        <ele>2442.1</ele>
        <time>2018-12-27T10:48:32Z</time>
      </trkpt>
      <trkpt lat="42.74152" lon="-0.22124">
        <ele>2442.1</ele>
        <time>2018-12-27T10:48:33Z</time>
      </trkpt>
      <trkpt lat="42.74155" lon="-0.22114">
        <ele>2443.1</ele>
        <time>2018-12-27T10:48:35Z</time>
      </trkpt>
      <trkpt lat="42.74155" lon="-0.22113">
        <ele>2443.2</ele>
        <time>2018-12-27T10:48:36Z</time>
      </trkpt>
      <trkpt lat="42.74156" lon="-0.2211">
        <ele>2443.5</ele>
        <time>2018-12-27T10:48:36Z</time>
      </trkpt>
      <trkpt lat="42.7416" lon="-0.22103">
        <ele>2444.2</ele>
        <time>2018-12-27T10:48:38Z</time>
      </trkpt>
      <trkpt lat="42.74162" lon="-0.22102">
        <ele>2444.4</ele>
        <time>2018-12-27T10:48:39Z</time>
      </trkpt>
      <trkpt lat="42.74164" lon="-0.22103">
        <ele>2444.6</ele>
        <time>2018-12-27T10:48:39Z</time>
      </trkpt>
      <trkpt lat="42.74167" lon="-0.22101">
        <ele>2444.9</ele>
        <time>2018-12-27T10:48:40Z</time>
      </trkpt>
      <trkpt lat="42.74169" lon="-0.22097">
        <ele>2444.9</ele>
        <time>2018-12-27T10:48:41Z</time>
      </trkpt>
      <trkpt lat="42.74171" lon="-0.22094">
        <ele>2444.9</ele>
        <time>2018-12-27T10:48:42Z</time>
      </trkpt>
      <trkpt lat="42.74175" lon="-0.22087">
        <ele>2444.6</ele>
        <time>2018-12-27T10:48:44Z</time>
      </trkpt>
      <trkpt lat="42.7418" lon="-0.22082">
        <ele>2444.2</ele>
        <time>2018-12-27T10:48:45Z</time>
      </trkpt>
      <trkpt lat="42.74183" lon="-0.22077">
        <ele>2443.8</ele>
        <time>2018-12-27T10:48:46Z</time>
      </trkpt>
      <trkpt lat="42.74184" lon="-0.22077">
        <ele>2443.6</ele>
        <time>2018-12-27T10:48:47Z</time>
      </trkpt>
      <trkpt lat="42.74185" lon="-0.22076">
        <ele>2443.6</ele>
        <time>2018-12-27T10:48:47Z</time>
      </trkpt>
      <trkpt lat="42.7419" lon="-0.22078">
        <ele>2443.5</ele>
        <time>2018-12-27T10:48:48Z</time>
      </trkpt>
      <trkpt lat="42.74195" lon="-0.22071">
        <ele>2442.2</ele>
        <time>2018-12-27T10:48:50Z</time>
      </trkpt>
      <trkpt lat="42.74199" lon="-0.22068">
        <ele>2441.4</ele>
        <time>2018-12-27T10:48:51Z</time>
      </trkpt>
      <trkpt lat="42.74201" lon="-0.22064">
        <ele>2440.3</ele>
        <time>2018-12-27T10:48:52Z</time>
      </trkpt>
      <trkpt lat="42.74202" lon="-0.2206">
        <ele>2439.4</ele>
        <time>2018-12-27T10:48:53Z</time>
      </trkpt>
      <trkpt lat="42.74204" lon="-0.22056">
        <ele>2438.3</ele>
        <time>2018-12-27T10:48:54Z</time>
      </trkpt>
      <trkpt lat="42.74207" lon="-0.22053">
        <ele>2437.1</ele>
        <time>2018-12-27T10:48:55Z</time>
      </trkpt>
      <trkpt lat="42.74213" lon="-0.22045">
        <ele>2433</ele>
        <time>2018-12-27T10:48:57Z</time>
      </trkpt>
      <trkpt lat="42.74216" lon="-0.22042">
        <ele>2431</ele>
        <time>2018-12-27T10:48:58Z</time>
      </trkpt>
      <trkpt lat="42.74222" lon="-0.22036">
        <ele>2427.3</ele>
        <time>2018-12-27T10:49:00Z</time>
      </trkpt>
      <trkpt lat="42.74228" lon="-0.22025">
        <ele>2421.7</ele>
        <time>2018-12-27T10:49:03Z</time>
      </trkpt>
      <trkpt lat="42.7423" lon="-0.22024">
        <ele>2420.8</ele>
        <time>2018-12-27T10:49:04Z</time>
      </trkpt>
      <trkpt lat="42.74234" lon="-0.22018">
        <ele>2417.2</ele>
        <time>2018-12-27T10:49:05Z</time>
      </trkpt>
      <trkpt lat="42.74233" lon="-0.22014">
        <ele>2416.4</ele>
        <time>2018-12-27T10:49:06Z</time>
      </trkpt>
      <trkpt lat="42.74234" lon="-0.22012">
        <ele>2415.4</ele>
        <time>2018-12-27T10:49:07Z</time>
      </trkpt>
      <trkpt lat="42.74238" lon="-0.2201">
        <ele>2413.4</ele>
        <time>2018-12-27T10:49:08Z</time>
      </trkpt>
      <trkpt lat="42.74243" lon="-0.22001">
        <ele>2409.1</ele>
        <time>2018-12-27T10:49:10Z</time>
      </trkpt>
      <trkpt lat="42.74248" lon="-0.21992">
        <ele>2404.8</ele>
        <time>2018-12-27T10:49:12Z</time>
      </trkpt>
      <trkpt lat="42.74248" lon="-0.21989">
        <ele>2403.9</ele>
        <time>2018-12-27T10:49:13Z</time>
      </trkpt>
      <trkpt lat="42.74248" lon="-0.21987">
        <ele>2403.1</ele>
        <time>2018-12-27T10:49:13Z</time>
      </trkpt>
      <trkpt lat="42.74249" lon="-0.21986">
        <ele>2402.6</ele>
        <time>2018-12-27T10:49:13Z</time>
      </trkpt>
      <trkpt lat="42.74253" lon="-0.2198">
        <ele>2399.5</ele>
        <time>2018-12-27T10:49:15Z</time>
      </trkpt>
      <trkpt lat="42.74258" lon="-0.21972">
        <ele>2395.8</ele>
        <time>2018-12-27T10:49:17Z</time>
      </trkpt>
      <trkpt lat="42.74259" lon="-0.21971">
        <ele>2395.3</ele>
        <time>2018-12-27T10:49:17Z</time>
      </trkpt>
      <trkpt lat="42.74262" lon="-0.21964">
        <ele>2392.2</ele>
        <time>2018-12-27T10:49:19Z</time>
      </trkpt>
      <trkpt lat="42.74265" lon="-0.21959">
        <ele>2390</ele>
        <time>2018-12-27T10:49:20Z</time>
      </trkpt>
      <trkpt lat="42.74265" lon="-0.21959">
        <ele>2389.7</ele>
        <time>2018-12-27T10:49:20Z</time>
      </trkpt>
      <trkpt lat="42.74266" lon="-0.21957">
        <ele>2389.2</ele>
        <time>2018-12-27T10:49:21Z</time>
      </trkpt>
      <trkpt lat="42.74268" lon="-0.21957">
        <ele>2388.6</ele>
        <time>2018-12-27T10:49:21Z</time>
      </trkpt>
      <trkpt lat="42.74271" lon="-0.21954">
        <ele>2387.2</ele>
        <time>2018-12-27T10:49:22Z</time>
      </trkpt>
      <trkpt lat="42.74273" lon="-0.21952">
        <ele>2386.1</ele>
        <time>2018-12-27T10:49:23Z</time>
      </trkpt>
      <trkpt lat="42.74274" lon="-0.2195">
        <ele>2385.7</ele>
        <time>2018-12-27T10:49:23Z</time>
      </trkpt>
      <trkpt lat="42.74275" lon="-0.21948">
        <ele>2385</ele>
        <time>2018-12-27T10:49:24Z</time>
      </trkpt>
      <trkpt lat="42.74278" lon="-0.21946">
        <ele>2383.9</ele>
        <time>2018-12-27T10:49:25Z</time>
      </trkpt>
      <trkpt lat="42.74279" lon="-0.21943">
        <ele>2382.7</ele>
        <time>2018-12-27T10:49:26Z</time>
      </trkpt>
      <trkpt lat="42.74281" lon="-0.21941">
        <ele>2381.9</ele>
        <time>2018-12-27T10:49:26Z</time>
      </trkpt>
      <trkpt lat="42.74282" lon="-0.21938">
        <ele>2381.2</ele>
        <time>2018-12-27T10:49:27Z</time>
      </trkpt>
      <trkpt lat="42.74283" lon="-0.21934">
        <ele>2380.2</ele>
        <time>2018-12-27T10:49:28Z</time>
      </trkpt>
      <trkpt lat="42.74283" lon="-0.21932">
        <ele>2380</ele>
        <time>2018-12-27T10:49:28Z</time>
      </trkpt>
      <trkpt lat="42.74284" lon="-0.21926">
        <ele>2378.7</ele>
        <time>2018-12-27T10:49:29Z</time>
      </trkpt>
      <trkpt lat="42.74287" lon="-0.21919">
        <ele>2376.4</ele>
        <time>2018-12-27T10:49:31Z</time>
      </trkpt>
      <trkpt lat="42.74288" lon="-0.21917">
        <ele>2376.2</ele>
        <time>2018-12-27T10:49:31Z</time>
      </trkpt>
      <trkpt lat="42.74289" lon="-0.21915">
        <ele>2375.4</ele>
        <time>2018-12-27T10:49:32Z</time>
      </trkpt>
      <trkpt lat="42.7429" lon="-0.21912">
        <ele>2374.1</ele>
        <time>2018-12-27T10:49:32Z</time>
      </trkpt>
      <trkpt lat="42.74291" lon="-0.21911">
        <ele>2373.8</ele>
        <time>2018-12-27T10:49:33Z</time>
      </trkpt>
      <trkpt lat="42.74294" lon="-0.21907">
        <ele>2371.9</ele>
        <time>2018-12-27T10:49:34Z</time>
      </trkpt>
      <trkpt lat="42.74298" lon="-0.21904">
        <ele>2369.6</ele>
        <time>2018-12-27T10:49:35Z</time>
      </trkpt>
      <trkpt lat="42.74299" lon="-0.21901">
        <ele>2368.5</ele>
        <time>2018-12-27T10:49:36Z</time>
      </trkpt>
      <trkpt lat="42.74302" lon="-0.21892">
        <ele>2365.6</ele>
        <time>2018-12-27T10:49:38Z</time>
      </trkpt>
      <trkpt lat="42.74304" lon="-0.21884">
        <ele>2362.9</ele>
        <time>2018-12-27T10:49:39Z</time>
      </trkpt>
      <trkpt lat="42.74311" lon="-0.21883">
        <ele>2359.5</ele>
        <time>2018-12-27T10:49:41Z</time>
      </trkpt>
      <trkpt lat="42.74314" lon="-0.21883">
        <ele>2357.5</ele>
        <time>2018-12-27T10:49:42Z</time>
      </trkpt>
      <trkpt lat="42.74315" lon="-0.21883">
        <ele>2357.3</ele>
        <time>2018-12-27T10:49:42Z</time>
      </trkpt>
      <trkpt lat="42.74316" lon="-0.21882">
        <ele>2356.7</ele>
        <time>2018-12-27T10:49:43Z</time>
      </trkpt>
      <trkpt lat="42.74317" lon="-0.21881">
        <ele>2355.6</ele>
        <time>2018-12-27T10:49:43Z</time>
      </trkpt>
      <trkpt lat="42.74321" lon="-0.21883">
        <ele>2354.2</ele>
        <time>2018-12-27T10:49:44Z</time>
      </trkpt>
      <trkpt lat="42.74323" lon="-0.21883">
        <ele>2353</ele>
        <time>2018-12-27T10:49:44Z</time>
      </trkpt>
      <trkpt lat="42.74324" lon="-0.21882">
        <ele>2352.3</ele>
        <time>2018-12-27T10:49:45Z</time>
      </trkpt>
      <trkpt lat="42.74331" lon="-0.2188">
        <ele>2348.1</ele>
        <time>2018-12-27T10:49:47Z</time>
      </trkpt>
      <trkpt lat="42.74335" lon="-0.21879">
        <ele>2345.9</ele>
        <time>2018-12-27T10:49:48Z</time>
      </trkpt>
      <trkpt lat="42.74338" lon="-0.21878">
        <ele>2344.6</ele>
        <time>2018-12-27T10:49:49Z</time>
      </trkpt>
      <trkpt lat="42.74343" lon="-0.21874">
        <ele>2340.9</ele>
        <time>2018-12-27T10:49:50Z</time>
      </trkpt>
      <trkpt lat="42.74345" lon="-0.21872">
        <ele>2339.5</ele>
        <time>2018-12-27T10:49:51Z</time>
      </trkpt>
      <trkpt lat="42.74346" lon="-0.21873">
        <ele>2339.3</ele>
        <time>2018-12-27T10:49:51Z</time>
      </trkpt>
      <trkpt lat="42.74352" lon="-0.21871">
        <ele>2335.9</ele>
        <time>2018-12-27T10:49:53Z</time>
      </trkpt>
      <trkpt lat="42.74352" lon="-0.21869">
        <ele>2335.8</ele>
        <time>2018-12-27T10:49:53Z</time>
      </trkpt>
      <trkpt lat="42.74355" lon="-0.21868">
        <ele>2334.2</ele>
        <time>2018-12-27T10:49:54Z</time>
      </trkpt>
      <trkpt lat="42.74355" lon="-0.21866">
        <ele>2333.8</ele>
        <time>2018-12-27T10:49:54Z</time>
      </trkpt>
      <trkpt lat="42.74358" lon="-0.21862">
        <ele>2331.8</ele>
        <time>2018-12-27T10:49:55Z</time>
      </trkpt>
      <trkpt lat="42.74359" lon="-0.21861">
        <ele>2331.5</ele>
        <time>2018-12-27T10:49:55Z</time>
      </trkpt>
      <trkpt lat="42.74364" lon="-0.21849">
        <ele>2328.1</ele>
        <time>2018-12-27T10:49:58Z</time>
      </trkpt>
      <trkpt lat="42.74368" lon="-0.21841">
        <ele>2325.5</ele>
        <time>2018-12-27T10:50:00Z</time>
      </trkpt>
      <trkpt lat="42.7437" lon="-0.21832">
        <ele>2324</ele>
        <time>2018-12-27T10:50:02Z</time>
      </trkpt>
      <trkpt lat="42.74372" lon="-0.21828">
        <ele>2322.7</ele>
        <time>2018-12-27T10:50:03Z</time>
      </trkpt>
      <trkpt lat="42.74372" lon="-0.21826">
        <ele>2322.7</ele>
        <time>2018-12-27T10:50:03Z</time>
      </trkpt>
      <trkpt lat="42.74374" lon="-0.21824">
        <ele>2321.4</ele>
        <time>2018-12-27T10:50:04Z</time>
      </trkpt>
      <trkpt lat="42.74381" lon="-0.21819">
        <ele>2319.7</ele>
        <time>2018-12-27T10:50:06Z</time>
      </trkpt>
      <trkpt lat="42.74384" lon="-0.21815">
        <ele>2319</ele>
        <time>2018-12-27T10:50:07Z</time>
      </trkpt>
      <trkpt lat="42.74383" lon="-0.21808">
        <ele>2318.7</ele>
        <time>2018-12-27T10:50:09Z</time>
      </trkpt>
      <trkpt lat="42.74382" lon="-0.21801">
        <ele>2318.5</ele>
        <time>2018-12-27T10:50:10Z</time>
      </trkpt>
      <trkpt lat="42.74378" lon="-0.21795">
        <ele>2318.8</ele>
        <time>2018-12-27T10:50:12Z</time>
      </trkpt>
      <trkpt lat="42.74377" lon="-0.21794">
        <ele>2318.9</ele>
        <time>2018-12-27T10:50:12Z</time>
      </trkpt>
      <trkpt lat="42.74372" lon="-0.2179">
        <ele>2320.5</ele>
        <time>2018-12-27T10:50:14Z</time>
      </trkpt>
      <trkpt lat="42.74371" lon="-0.21787">
        <ele>2321.3</ele>
        <time>2018-12-27T10:50:14Z</time>
      </trkpt>
      <trkpt lat="42.74374" lon="-0.21779">
        <ele>2321</ele>
        <time>2018-12-27T10:50:16Z</time>
      </trkpt>
      <trkpt lat="42.74377" lon="-0.21778">
        <ele>2320.6</ele>
        <time>2018-12-27T10:50:17Z</time>
      </trkpt>
      <trkpt lat="42.7438" lon="-0.21775">
        <ele>2320.4</ele>
        <time>2018-12-27T10:50:18Z</time>
      </trkpt>
      <trkpt lat="42.74389" lon="-0.21767">
        <ele>2320.1</ele>
        <time>2018-12-27T10:50:21Z</time>
      </trkpt>
      <trkpt lat="42.74392" lon="-0.21761">
        <ele>2320.3</ele>
        <time>2018-12-27T10:50:22Z</time>
      </trkpt>
      <trkpt lat="42.74396" lon="-0.21757">
        <ele>2320.4</ele>
        <time>2018-12-27T10:50:23Z</time>
      </trkpt>
      <trkpt lat="42.74397" lon="-0.21756">
        <ele>2320.2</ele>
        <time>2018-12-27T10:50:24Z</time>
      </trkpt>
      <trkpt lat="42.74402" lon="-0.21751">
        <ele>2320</ele>
        <time>2018-12-27T10:50:26Z</time>
      </trkpt>
      <trkpt lat="42.74403" lon="-0.21748">
        <ele>2320.1</ele>
        <time>2018-12-27T10:50:26Z</time>
      </trkpt>
      <trkpt lat="42.74409" lon="-0.21739">
        <ele>2320.3</ele>
        <time>2018-12-27T10:50:29Z</time>
      </trkpt>
      <trkpt lat="42.74411" lon="-0.21727">
        <ele>2321.4</ele>
        <time>2018-12-27T10:50:31Z</time>
      </trkpt>
      <trkpt lat="42.74412" lon="-0.21717">
        <ele>2322.3</ele>
        <time>2018-12-27T10:50:33Z</time>
      </trkpt>
      <trkpt lat="42.74414" lon="-0.21715">
        <ele>2322.4</ele>
        <time>2018-12-27T10:50:34Z</time>
      </trkpt>
      <trkpt lat="42.74425" lon="-0.21709">
        <ele>2321.1</ele>
        <time>2018-12-27T10:50:37Z</time>
      </trkpt>
      <trkpt lat="42.74432" lon="-0.217">
        <ele>2321</ele>
        <time>2018-12-27T10:50:39Z</time>
      </trkpt>
      <trkpt lat="42.74441" lon="-0.217">
        <ele>2319.7</ele>
        <time>2018-12-27T10:50:42Z</time>
      </trkpt>
      <trkpt lat="42.7445" lon="-0.217">
        <ele>2318.4</ele>
        <time>2018-12-27T10:50:44Z</time>
      </trkpt>
      <trkpt lat="42.74457" lon="-0.21699">
        <ele>2317.3</ele>
        <time>2018-12-27T10:50:46Z</time>
      </trkpt>
      <trkpt lat="42.7446" lon="-0.21697">
        <ele>2317.1</ele>
        <time>2018-12-27T10:50:47Z</time>
      </trkpt>
      <trkpt lat="42.74464" lon="-0.21698">
        <ele>2315.8</ele>
        <time>2018-12-27T10:50:48Z</time>
      </trkpt>
      <trkpt lat="42.74466" lon="-0.21699">
        <ele>2315.2</ele>
        <time>2018-12-27T10:50:49Z</time>
      </trkpt>
      <trkpt lat="42.74467" lon="-0.21701">
        <ele>2314.9</ele>
        <time>2018-12-27T10:50:49Z</time>
      </trkpt>
      <trkpt lat="42.74474" lon="-0.21704">
        <ele>2312.8</ele>
        <time>2018-12-27T10:50:51Z</time>
      </trkpt>
      <trkpt lat="42.7448" lon="-0.21709">
        <ele>2311.2</ele>
        <time>2018-12-27T10:50:53Z</time>
      </trkpt>
      <trkpt lat="42.74487" lon="-0.21709">
        <ele>2309.6</ele>
        <time>2018-12-27T10:50:55Z</time>
      </trkpt>
      <trkpt lat="42.74488" lon="-0.21709">
        <ele>2309.2</ele>
        <time>2018-12-27T10:50:55Z</time>
      </trkpt>
      <trkpt lat="42.74497" lon="-0.21709">
        <ele>2307.3</ele>
        <time>2018-12-27T10:50:57Z</time>
      </trkpt>
      <trkpt lat="42.7451" lon="-0.21705">
        <ele>2304.4</ele>
        <time>2018-12-27T10:51:01Z</time>
      </trkpt>
      <trkpt lat="42.74523" lon="-0.21698">
        <ele>2300.7</ele>
        <time>2018-12-27T10:51:05Z</time>
      </trkpt>
      <trkpt lat="42.74533" lon="-0.21694">
        <ele>2298.2</ele>
        <time>2018-12-27T10:51:07Z</time>
      </trkpt>
      <trkpt lat="42.74539" lon="-0.21692">
        <ele>2296.2</ele>
        <time>2018-12-27T10:51:09Z</time>
      </trkpt>
      <trkpt lat="42.74541" lon="-0.21692">
        <ele>2295.7</ele>
        <time>2018-12-27T10:51:09Z</time>
      </trkpt>
      <trkpt lat="42.74546" lon="-0.21689">
        <ele>2293.1</ele>
        <time>2018-12-27T10:51:11Z</time>
      </trkpt>
      <trkpt lat="42.74552" lon="-0.21689">
        <ele>2290.2</ele>
        <time>2018-12-27T10:51:13Z</time>
      </trkpt>
      <trkpt lat="42.74555" lon="-0.21688">
        <ele>2288.6</ele>
        <time>2018-12-27T10:51:14Z</time>
      </trkpt>
      <trkpt lat="42.74559" lon="-0.21688">
        <ele>2286.7</ele>
        <time>2018-12-27T10:51:15Z</time>
      </trkpt>
      <trkpt lat="42.74561" lon="-0.21688">
        <ele>2286</ele>
        <time>2018-12-27T10:51:15Z</time>
      </trkpt>
      <trkpt lat="42.74567" lon="-0.2169">
        <ele>2283.3</ele>
        <time>2018-12-27T10:51:17Z</time>
      </trkpt>
      <trkpt lat="42.74568" lon="-0.21691">
        <ele>2282.6</ele>
        <time>2018-12-27T10:51:17Z</time>
      </trkpt>
      <trkpt lat="42.74574" lon="-0.21686">
        <ele>2279.3</ele>
        <time>2018-12-27T10:51:19Z</time>
      </trkpt>
      <trkpt lat="42.7458" lon="-0.21683">
        <ele>2276.3</ele>
        <time>2018-12-27T10:51:21Z</time>
      </trkpt>
      <trkpt lat="42.74587" lon="-0.21683">
        <ele>2273.3</ele>
        <time>2018-12-27T10:51:22Z</time>
      </trkpt>
      <trkpt lat="42.74591" lon="-0.2168">
        <ele>2271.3</ele>
        <time>2018-12-27T10:51:24Z</time>
      </trkpt>
      <trkpt lat="42.74594" lon="-0.21676">
        <ele>2269.3</ele>
        <time>2018-12-27T10:51:25Z</time>
      </trkpt>
      <trkpt lat="42.74601" lon="-0.21661">
        <ele>2265.3</ele>
        <time>2018-12-27T10:51:28Z</time>
      </trkpt>
      <trkpt lat="42.74603" lon="-0.21659">
        <ele>2264.6</ele>
        <time>2018-12-27T10:51:29Z</time>
      </trkpt>
      <trkpt lat="42.74606" lon="-0.21656">
        <ele>2262.7</ele>
        <time>2018-12-27T10:51:30Z</time>
      </trkpt>
      <trkpt lat="42.74611" lon="-0.2165">
        <ele>2260.5</ele>
        <time>2018-12-27T10:51:32Z</time>
      </trkpt>
      <trkpt lat="42.74612" lon="-0.21649">
        <ele>2259.6</ele>
        <time>2018-12-27T10:51:32Z</time>
      </trkpt>
      <trkpt lat="42.74623" lon="-0.21644">
        <ele>2254.6</ele>
        <time>2018-12-27T10:51:35Z</time>
      </trkpt>
      <trkpt lat="42.74633" lon="-0.21642">
        <ele>2251.2</ele>
        <time>2018-12-27T10:51:38Z</time>
      </trkpt>
      <trkpt lat="42.74638" lon="-0.21642">
        <ele>2249.7</ele>
        <time>2018-12-27T10:51:39Z</time>
      </trkpt>
      <trkpt lat="42.7464" lon="-0.21643">
        <ele>2249.2</ele>
        <time>2018-12-27T10:51:40Z</time>
      </trkpt>
      <trkpt lat="42.74644" lon="-0.21635">
        <ele>2247.8</ele>
        <time>2018-12-27T10:51:42Z</time>
      </trkpt>
      <trkpt lat="42.74653" lon="-0.21626">
        <ele>2245.3</ele>
        <time>2018-12-27T10:51:45Z</time>
      </trkpt>
      <trkpt lat="42.74655" lon="-0.21625">
        <ele>2244.7</ele>
        <time>2018-12-27T10:51:45Z</time>
      </trkpt>
      <trkpt lat="42.74662" lon="-0.21617">
        <ele>2244.1</ele>
        <time>2018-12-27T10:51:47Z</time>
      </trkpt>
      <trkpt lat="42.74669" lon="-0.21608">
        <ele>2243.2</ele>
        <time>2018-12-27T10:51:50Z</time>
      </trkpt>
      <trkpt lat="42.74683" lon="-0.216">
        <ele>2240</ele>
        <time>2018-12-27T10:51:54Z</time>
      </trkpt>
      <trkpt lat="42.74694" lon="-0.21593">
        <ele>2237.1</ele>
        <time>2018-12-27T10:51:57Z</time>
      </trkpt>
      <trkpt lat="42.74703" lon="-0.21587">
        <ele>2234.8</ele>
        <time>2018-12-27T10:52:00Z</time>
      </trkpt>
      <trkpt lat="42.74704" lon="-0.21583">
        <ele>2234.4</ele>
        <time>2018-12-27T10:52:01Z</time>
      </trkpt>
      <trkpt lat="42.74704" lon="-0.2158">
        <ele>2234.8</ele>
        <time>2018-12-27T10:52:01Z</time>
      </trkpt>
      <trkpt lat="42.74708" lon="-0.21573">
        <ele>2234.2</ele>
        <time>2018-12-27T10:52:03Z</time>
      </trkpt>
      <trkpt lat="42.74709" lon="-0.21568">
        <ele>2234.1</ele>
        <time>2018-12-27T10:52:04Z</time>
      </trkpt>
      <trkpt lat="42.74711" lon="-0.21565">
        <ele>2234.1</ele>
        <time>2018-12-27T10:52:05Z</time>
      </trkpt>
      <trkpt lat="42.74715" lon="-0.2156">
        <ele>2234.4</ele>
        <time>2018-12-27T10:52:06Z</time>
      </trkpt>
      <trkpt lat="42.74716" lon="-0.21558">
        <ele>2234.3</ele>
        <time>2018-12-27T10:52:07Z</time>
      </trkpt>
      <trkpt lat="42.74719" lon="-0.21555">
        <ele>2234.3</ele>
        <time>2018-12-27T10:52:08Z</time>
      </trkpt>
      <trkpt lat="42.7472" lon="-0.21553">
        <ele>2234.5</ele>
        <time>2018-12-27T10:52:08Z</time>
      </trkpt>
      <trkpt lat="42.74723" lon="-0.21551">
        <ele>2234.4</ele>
        <time>2018-12-27T10:52:09Z</time>
      </trkpt>
      <trkpt lat="42.74723" lon="-0.2155">
        <ele>2234.6</ele>
        <time>2018-12-27T10:52:10Z</time>
      </trkpt>
      <trkpt lat="42.74725" lon="-0.21545">
        <ele>2234.8</ele>
        <time>2018-12-27T10:52:11Z</time>
      </trkpt>
      <trkpt lat="42.74726" lon="-0.21541">
        <ele>2235.3</ele>
        <time>2018-12-27T10:52:12Z</time>
      </trkpt>
      <trkpt lat="42.74728" lon="-0.21535">
        <ele>2236.9</ele>
        <time>2018-12-27T10:52:13Z</time>
      </trkpt>
      <trkpt lat="42.74728" lon="-0.21534">
        <ele>2237.3</ele>
        <time>2018-12-27T10:52:13Z</time>
      </trkpt>
      <trkpt lat="42.7473" lon="-0.21527">
        <ele>2239</ele>
        <time>2018-12-27T10:52:15Z</time>
      </trkpt>
      <trkpt lat="42.74731" lon="-0.21523">
        <ele>2240.2</ele>
        <time>2018-12-27T10:52:15Z</time>
      </trkpt>
      <trkpt lat="42.7473" lon="-0.21521">
        <ele>2240.5</ele>
        <time>2018-12-27T10:52:16Z</time>
      </trkpt>
      <trkpt lat="42.74729" lon="-0.21516">
        <ele>2242.1</ele>
        <time>2018-12-27T10:52:17Z</time>
      </trkpt>
      <trkpt lat="42.74728" lon="-0.21512">
        <ele>2243.4</ele>
        <time>2018-12-27T10:52:18Z</time>
      </trkpt>
      <trkpt lat="42.74732" lon="-0.21509">
        <ele>2243.9</ele>
        <time>2018-12-27T10:52:19Z</time>
      </trkpt>
      <trkpt lat="42.74736" lon="-0.21505">
        <ele>2244.9</ele>
        <time>2018-12-27T10:52:20Z</time>
      </trkpt>
      <trkpt lat="42.74736" lon="-0.21504">
        <ele>2245.2</ele>
        <time>2018-12-27T10:52:20Z</time>
      </trkpt>
      <trkpt lat="42.74736" lon="-0.21504">
        <ele>2245.2</ele>
        <time>2018-12-27T10:52:20Z</time>
      </trkpt>
      <trkpt lat="42.74737" lon="-0.21501">
        <ele>2246</ele>
        <time>2018-12-27T10:52:21Z</time>
      </trkpt>
      <trkpt lat="42.74738" lon="-0.21498">
        <ele>2246.8</ele>
        <time>2018-12-27T10:52:22Z</time>
      </trkpt>
      <trkpt lat="42.74738" lon="-0.21495">
        <ele>2247.6</ele>
        <time>2018-12-27T10:52:22Z</time>
      </trkpt>
      <trkpt lat="42.74737" lon="-0.21492">
        <ele>2248.6</ele>
        <time>2018-12-27T10:52:23Z</time>
      </trkpt>
      <trkpt lat="42.74736" lon="-0.21488">
        <ele>2249.5</ele>
        <time>2018-12-27T10:52:24Z</time>
      </trkpt>
      <trkpt lat="42.74736" lon="-0.21483">
        <ele>2250.9</ele>
        <time>2018-12-27T10:52:25Z</time>
      </trkpt>
      <trkpt lat="42.74735" lon="-0.21481">
        <ele>2251.8</ele>
        <time>2018-12-27T10:52:25Z</time>
      </trkpt>
      <trkpt lat="42.74737" lon="-0.21477">
        <ele>2252.6</ele>
        <time>2018-12-27T10:52:26Z</time>
      </trkpt>
      <trkpt lat="42.74737" lon="-0.21476">
        <ele>2252.8</ele>
        <time>2018-12-27T10:52:26Z</time>
      </trkpt>
      <trkpt lat="42.74737" lon="-0.21471">
        <ele>2254.4</ele>
        <time>2018-12-27T10:52:27Z</time>
      </trkpt>
      <trkpt lat="42.74737" lon="-0.21467">
        <ele>2255.4</ele>
        <time>2018-12-27T10:52:28Z</time>
      </trkpt>
      <trkpt lat="42.74736" lon="-0.21465">
        <ele>2256.1</ele>
        <time>2018-12-27T10:52:28Z</time>
      </trkpt>
      <trkpt lat="42.74737" lon="-0.21462">
        <ele>2256.8</ele>
        <time>2018-12-27T10:52:29Z</time>
      </trkpt>
      <trkpt lat="42.74738" lon="-0.21459">
        <ele>2257.6</ele>
        <time>2018-12-27T10:52:30Z</time>
      </trkpt>
      <trkpt lat="42.74738" lon="-0.21457">
        <ele>2258.5</ele>
        <time>2018-12-27T10:52:30Z</time>
      </trkpt>
      <trkpt lat="42.74736" lon="-0.21455">
        <ele>2259.9</ele>
        <time>2018-12-27T10:52:31Z</time>
      </trkpt>
      <trkpt lat="42.74735" lon="-0.21453">
        <ele>2260.9</ele>
        <time>2018-12-27T10:52:31Z</time>
      </trkpt>
      <trkpt lat="42.74737" lon="-0.21451">
        <ele>2261.9</ele>
        <time>2018-12-27T10:52:32Z</time>
      </trkpt>
      <trkpt lat="42.74739" lon="-0.21449">
        <ele>2262.6</ele>
        <time>2018-12-27T10:52:33Z</time>
      </trkpt>
      <trkpt lat="42.74742" lon="-0.21447">
        <ele>2263.2</ele>
        <time>2018-12-27T10:52:34Z</time>
      </trkpt>
      <trkpt lat="42.74743" lon="-0.21446">
        <ele>2263.9</ele>
        <time>2018-12-27T10:52:34Z</time>
      </trkpt>
      <trkpt lat="42.74742" lon="-0.21443">
        <ele>2265.7</ele>
        <time>2018-12-27T10:52:35Z</time>
      </trkpt>
      <trkpt lat="42.74744" lon="-0.21442">
        <ele>2266</ele>
        <time>2018-12-27T10:52:35Z</time>
      </trkpt>
      <trkpt lat="42.74746" lon="-0.21438">
        <ele>2267.3</ele>
        <time>2018-12-27T10:52:36Z</time>
      </trkpt>
      <trkpt lat="42.74749" lon="-0.21434">
        <ele>2268.9</ele>
        <time>2018-12-27T10:52:37Z</time>
      </trkpt>
      <trkpt lat="42.7475" lon="-0.2143">
        <ele>2270.7</ele>
        <time>2018-12-27T10:52:38Z</time>
      </trkpt>
      <trkpt lat="42.74752" lon="-0.21429">
        <ele>2270.8</ele>
        <time>2018-12-27T10:52:39Z</time>
      </trkpt>
      <trkpt lat="42.74753" lon="-0.21427">
        <ele>2271.8</ele>
        <time>2018-12-27T10:52:39Z</time>
      </trkpt>
      <trkpt lat="42.74754" lon="-0.21424">
        <ele>2273.2</ele>
        <time>2018-12-27T10:52:40Z</time>
      </trkpt>
      <trkpt lat="42.74753" lon="-0.21421">
        <ele>2274.7</ele>
        <time>2018-12-27T10:52:41Z</time>
      </trkpt>
      <trkpt lat="42.74752" lon="-0.21418">
        <ele>2276.3</ele>
        <time>2018-12-27T10:52:41Z</time>
      </trkpt>
      <trkpt lat="42.74753" lon="-0.21416">
        <ele>2277.4</ele>
        <time>2018-12-27T10:52:42Z</time>
      </trkpt>
      <trkpt lat="42.74753" lon="-0.21413">
        <ele>2278.6</ele>
        <time>2018-12-27T10:52:42Z</time>
      </trkpt>
      <trkpt lat="42.74756" lon="-0.21409">
        <ele>2279.9</ele>
        <time>2018-12-27T10:52:43Z</time>
      </trkpt>
      <trkpt lat="42.74757" lon="-0.21407">
        <ele>2280.8</ele>
        <time>2018-12-27T10:52:44Z</time>
      </trkpt>
      <trkpt lat="42.74756" lon="-0.21404">
        <ele>2282.1</ele>
        <time>2018-12-27T10:52:44Z</time>
      </trkpt>
      <trkpt lat="42.74758" lon="-0.21402">
        <ele>2282.6</ele>
        <time>2018-12-27T10:52:45Z</time>
      </trkpt>
      <trkpt lat="42.7476" lon="-0.21397">
        <ele>2284.7</ele>
        <time>2018-12-27T10:52:46Z</time>
      </trkpt>
      <trkpt lat="42.74761" lon="-0.21393">
        <ele>2285.8</ele>
        <time>2018-12-27T10:52:47Z</time>
      </trkpt>
      <trkpt lat="42.74764" lon="-0.2139">
        <ele>2286.5</ele>
        <time>2018-12-27T10:52:48Z</time>
      </trkpt>
      <trkpt lat="42.74766" lon="-0.21388">
        <ele>2287.1</ele>
        <time>2018-12-27T10:52:48Z</time>
      </trkpt>
      <trkpt lat="42.74767" lon="-0.21386">
        <ele>2287.2</ele>
        <time>2018-12-27T10:52:49Z</time>
      </trkpt>
      <trkpt lat="42.74768" lon="-0.21383">
        <ele>2288.2</ele>
        <time>2018-12-27T10:52:50Z</time>
      </trkpt>
      <trkpt lat="42.74769" lon="-0.21381">
        <ele>2288.7</ele>
        <time>2018-12-27T10:52:50Z</time>
      </trkpt>
      <trkpt lat="42.74769" lon="-0.21378">
        <ele>2289.9</ele>
        <time>2018-12-27T10:52:51Z</time>
      </trkpt>
      <trkpt lat="42.74772" lon="-0.21377">
        <ele>2289.7</ele>
        <time>2018-12-27T10:52:51Z</time>
      </trkpt>
      <trkpt lat="42.74772" lon="-0.21375">
        <ele>2290.4</ele>
        <time>2018-12-27T10:52:52Z</time>
      </trkpt>
      <trkpt lat="42.74773" lon="-0.21372">
        <ele>2291.2</ele>
        <time>2018-12-27T10:52:52Z</time>
      </trkpt>
      <trkpt lat="42.74771" lon="-0.21368">
        <ele>2293</ele>
        <time>2018-12-27T10:52:53Z</time>
      </trkpt>
      <trkpt lat="42.74772" lon="-0.21366">
        <ele>2293.4</ele>
        <time>2018-12-27T10:52:54Z</time>
      </trkpt>
      <trkpt lat="42.74774" lon="-0.21363">
        <ele>2293.6</ele>
        <time>2018-12-27T10:52:54Z</time>
      </trkpt>
      <trkpt lat="42.74771" lon="-0.21361">
        <ele>2295.4</ele>
        <time>2018-12-27T10:52:55Z</time>
      </trkpt>
      <trkpt lat="42.7477" lon="-0.21356">
        <ele>2297.3</ele>
        <time>2018-12-27T10:52:56Z</time>
      </trkpt>
      <trkpt lat="42.74772" lon="-0.21355">
        <ele>2297.2</ele>
        <time>2018-12-27T10:52:57Z</time>
      </trkpt>
      <trkpt lat="42.74774" lon="-0.21353">
        <ele>2296.9</ele>
        <time>2018-12-27T10:52:57Z</time>
      </trkpt>
      <trkpt lat="42.74776" lon="-0.21353">
        <ele>2296.3</ele>
        <time>2018-12-27T10:52:58Z</time>
      </trkpt>
      <trkpt lat="42.74779" lon="-0.21351">
        <ele>2295.6</ele>
        <time>2018-12-27T10:52:59Z</time>
      </trkpt>
      <trkpt lat="42.7478" lon="-0.21349">
        <ele>2295.8</ele>
        <time>2018-12-27T10:52:59Z</time>
      </trkpt>
      <trkpt lat="42.74779" lon="-0.21347">
        <ele>2296.8</ele>
        <time>2018-12-27T10:53:00Z</time>
      </trkpt>
      <trkpt lat="42.74779" lon="-0.21342">
        <ele>2298.9</ele>
        <time>2018-12-27T10:53:01Z</time>
      </trkpt>
      <trkpt lat="42.74779" lon="-0.21338">
        <ele>2300.2</ele>
        <time>2018-12-27T10:53:02Z</time>
      </trkpt>
      <trkpt lat="42.74781" lon="-0.21337">
        <ele>2299.5</ele>
        <time>2018-12-27T10:53:02Z</time>
      </trkpt>
      <trkpt lat="42.74784" lon="-0.21337">
        <ele>2298.4</ele>
        <time>2018-12-27T10:53:03Z</time>
      </trkpt>
      <trkpt lat="42.74784" lon="-0.21331">
        <ele>2300.3</ele>
        <time>2018-12-27T10:53:04Z</time>
      </trkpt>
      <trkpt lat="42.74786" lon="-0.2133">
        <ele>2299.8</ele>
        <time>2018-12-27T10:53:05Z</time>
      </trkpt>
      <trkpt lat="42.74786" lon="-0.21327">
        <ele>2300.8</ele>
        <time>2018-12-27T10:53:05Z</time>
      </trkpt>
      <trkpt lat="42.74787" lon="-0.21326">
        <ele>2300.8</ele>
        <time>2018-12-27T10:53:06Z</time>
      </trkpt>
      <trkpt lat="42.74788" lon="-0.21323">
        <ele>2301.5</ele>
        <time>2018-12-27T10:53:06Z</time>
      </trkpt>
      <trkpt lat="42.74789" lon="-0.21322">
        <ele>2301.3</ele>
        <time>2018-12-27T10:53:07Z</time>
      </trkpt>
      <trkpt lat="42.74791" lon="-0.2132">
        <ele>2301.4</ele>
        <time>2018-12-27T10:53:07Z</time>
      </trkpt>
      <trkpt lat="42.74792" lon="-0.21319">
        <ele>2301.2</ele>
        <time>2018-12-27T10:53:08Z</time>
      </trkpt>
      <trkpt lat="42.74793" lon="-0.21317">
        <ele>2302.1</ele>
        <time>2018-12-27T10:53:08Z</time>
      </trkpt>
      <trkpt lat="42.74801" lon="-0.21318">
        <ele>2302.5</ele>
        <time>2018-12-27T10:53:10Z</time>
      </trkpt>
      <trkpt lat="42.74807" lon="-0.21323">
        <ele>2301.6</ele>
        <time>2018-12-27T10:53:12Z</time>
      </trkpt>
      <trkpt lat="42.74809" lon="-0.21331">
        <ele>2299.9</ele>
        <time>2018-12-27T10:53:14Z</time>
      </trkpt>
      <trkpt lat="42.74812" lon="-0.21337">
        <ele>2298.7</ele>
        <time>2018-12-27T10:53:15Z</time>
      </trkpt>
      <trkpt lat="42.74815" lon="-0.21336">
        <ele>2299.4</ele>
        <time>2018-12-27T10:53:16Z</time>
      </trkpt>
      <trkpt lat="42.74815" lon="-0.21336">
        <ele>2299.4</ele>
        <time>2018-12-27T10:53:16Z</time>
      </trkpt>
      <trkpt lat="42.74817" lon="-0.21338">
        <ele>2299.2</ele>
        <time>2018-12-27T10:53:17Z</time>
      </trkpt>
      <trkpt lat="42.74822" lon="-0.2134">
        <ele>2299.8</ele>
        <time>2018-12-27T10:53:18Z</time>
      </trkpt>
      <trkpt lat="42.74823" lon="-0.21339">
        <ele>2300.1</ele>
        <time>2018-12-27T10:53:18Z</time>
      </trkpt>
      <trkpt lat="42.74825" lon="-0.2134">
        <ele>2300.3</ele>
        <time>2018-12-27T10:53:19Z</time>
      </trkpt>
      <trkpt lat="42.7483" lon="-0.21345">
        <ele>2300.1</ele>
        <time>2018-12-27T10:53:20Z</time>
      </trkpt>
      <trkpt lat="42.74832" lon="-0.21348">
        <ele>2299.8</ele>
        <time>2018-12-27T10:53:21Z</time>
      </trkpt>
      <trkpt lat="42.74836" lon="-0.2135">
        <ele>2300.3</ele>
        <time>2018-12-27T10:53:23Z</time>
      </trkpt>
      <trkpt lat="42.74842" lon="-0.21356">
        <ele>2300.3</ele>
        <time>2018-12-27T10:53:24Z</time>
      </trkpt>
      <trkpt lat="42.74843" lon="-0.21358">
        <ele>2300.1</ele>
        <time>2018-12-27T10:53:25Z</time>
      </trkpt>
      <trkpt lat="42.74848" lon="-0.21366">
        <ele>2300.2</ele>
        <time>2018-12-27T10:53:27Z</time>
      </trkpt>
      <trkpt lat="42.74857" lon="-0.21372">
        <ele>2301.3</ele>
        <time>2018-12-27T10:53:29Z</time>
      </trkpt>
      <trkpt lat="42.74864" lon="-0.21381">
        <ele>2301.3</ele>
        <time>2018-12-27T10:53:32Z</time>
      </trkpt>
      <trkpt lat="42.7487" lon="-0.21388">
        <ele>2301.2</ele>
        <time>2018-12-27T10:53:34Z</time>
      </trkpt>
      <trkpt lat="42.74876" lon="-0.21394">
        <ele>2301.5</ele>
        <time>2018-12-27T10:53:36Z</time>
      </trkpt>
      <trkpt lat="42.74883" lon="-0.21404">
        <ele>2300.3</ele>
        <time>2018-12-27T10:53:39Z</time>
      </trkpt>
      <trkpt lat="42.74884" lon="-0.21407">
        <ele>2299.9</ele>
        <time>2018-12-27T10:53:40Z</time>
      </trkpt>
      <trkpt lat="42.74883" lon="-0.21418">
        <ele>2297.2</ele>
        <time>2018-12-27T10:53:42Z</time>
      </trkpt>
      <trkpt lat="42.74887" lon="-0.21431">
        <ele>2295.1</ele>
        <time>2018-12-27T10:53:45Z</time>
      </trkpt>
      <trkpt lat="42.74896" lon="-0.21445">
        <ele>2295</ele>
        <time>2018-12-27T10:53:48Z</time>
      </trkpt>
      <trkpt lat="42.749" lon="-0.21461">
        <ele>2293.2</ele>
        <time>2018-12-27T10:53:52Z</time>
      </trkpt>
      <trkpt lat="42.74908" lon="-0.21475">
        <ele>2291.4</ele>
        <time>2018-12-27T10:53:55Z</time>
      </trkpt>
      <trkpt lat="42.74916" lon="-0.21487">
        <ele>2290.3</ele>
        <time>2018-12-27T10:53:58Z</time>
      </trkpt>
      <trkpt lat="42.74923" lon="-0.21501">
        <ele>2288.7</ele>
        <time>2018-12-27T10:54:02Z</time>
      </trkpt>
      <trkpt lat="42.74927" lon="-0.21516">
        <ele>2286</ele>
        <time>2018-12-27T10:54:05Z</time>
      </trkpt>
      <trkpt lat="42.74936" lon="-0.21524">
        <ele>2287.7</ele>
        <time>2018-12-27T10:54:08Z</time>
      </trkpt>
      <trkpt lat="42.74945" lon="-0.21533">
        <ele>2289.8</ele>
        <time>2018-12-27T10:54:11Z</time>
      </trkpt>
      <trkpt lat="42.74947" lon="-0.21532">
        <ele>2290.8</ele>
        <time>2018-12-27T10:54:11Z</time>
      </trkpt>
      <trkpt lat="42.74951" lon="-0.21533">
        <ele>2292.5</ele>
        <time>2018-12-27T10:54:12Z</time>
      </trkpt>
      <trkpt lat="42.74956" lon="-0.21535">
        <ele>2294.7</ele>
        <time>2018-12-27T10:54:13Z</time>
      </trkpt>
      <trkpt lat="42.74959" lon="-0.21531">
        <ele>2296.7</ele>
        <time>2018-12-27T10:54:14Z</time>
      </trkpt>
      <trkpt lat="42.74959" lon="-0.21526">
        <ele>2298.1</ele>
        <time>2018-12-27T10:54:16Z</time>
      </trkpt>
      <trkpt lat="42.74962" lon="-0.21518">
        <ele>2300</ele>
        <time>2018-12-27T10:54:17Z</time>
      </trkpt>
      <trkpt lat="42.74971" lon="-0.21516">
        <ele>2300.4</ele>
        <time>2018-12-27T10:54:20Z</time>
      </trkpt>
      <trkpt lat="42.74977" lon="-0.2151">
        <ele>2301.5</ele>
        <time>2018-12-27T10:54:22Z</time>
      </trkpt>
      <trkpt lat="42.74987" lon="-0.21509">
        <ele>2301.4</ele>
        <time>2018-12-27T10:54:24Z</time>
      </trkpt>
      <trkpt lat="42.74996" lon="-0.2151">
        <ele>2301.1</ele>
        <time>2018-12-27T10:54:27Z</time>
      </trkpt>
      <trkpt lat="42.75005" lon="-0.21517">
        <ele>2300.1</ele>
        <time>2018-12-27T10:54:29Z</time>
      </trkpt>
      <trkpt lat="42.7501" lon="-0.21517">
        <ele>2300.1</ele>
        <time>2018-12-27T10:54:31Z</time>
      </trkpt>
      <trkpt lat="42.75012" lon="-0.21517">
        <ele>2300.3</ele>
        <time>2018-12-27T10:54:31Z</time>
      </trkpt>
      <trkpt lat="42.75019" lon="-0.21524">
        <ele>2299.8</ele>
        <time>2018-12-27T10:54:34Z</time>
      </trkpt>
      <trkpt lat="42.7502" lon="-0.21526">
        <ele>2299.8</ele>
        <time>2018-12-27T10:54:34Z</time>
      </trkpt>
      <trkpt lat="42.75024" lon="-0.21529">
        <ele>2299.8</ele>
        <time>2018-12-27T10:54:35Z</time>
      </trkpt>
      <trkpt lat="42.7503" lon="-0.21534">
        <ele>2300.1</ele>
        <time>2018-12-27T10:54:37Z</time>
      </trkpt>
      <trkpt lat="42.75035" lon="-0.21541">
        <ele>2300.6</ele>
        <time>2018-12-27T10:54:39Z</time>
      </trkpt>
      <trkpt lat="42.7504" lon="-0.21543">
        <ele>2300.4</ele>
        <time>2018-12-27T10:54:40Z</time>
      </trkpt>
      <trkpt lat="42.75043" lon="-0.21543">
        <ele>2299.9</ele>
        <time>2018-12-27T10:54:41Z</time>
      </trkpt>
      <trkpt lat="42.75046" lon="-0.21542">
        <ele>2299.9</ele>
        <time>2018-12-27T10:54:42Z</time>
      </trkpt>
      <trkpt lat="42.7505" lon="-0.2154">
        <ele>2298.6</ele>
        <time>2018-12-27T10:54:43Z</time>
      </trkpt>
      <trkpt lat="42.75052" lon="-0.2154">
        <ele>2298.2</ele>
        <time>2018-12-27T10:54:44Z</time>
      </trkpt>
      <trkpt lat="42.75062" lon="-0.21539">
        <ele>2295.2</ele>
        <time>2018-12-27T10:54:47Z</time>
      </trkpt>
      <trkpt lat="42.75073" lon="-0.2154">
        <ele>2292.6</ele>
        <time>2018-12-27T10:54:49Z</time>
      </trkpt>
      <trkpt lat="42.75083" lon="-0.21546">
        <ele>2288.4</ele>
        <time>2018-12-27T10:54:52Z</time>
      </trkpt>
      <trkpt lat="42.75085" lon="-0.21558">
        <ele>2283.7</ele>
        <time>2018-12-27T10:54:55Z</time>
      </trkpt>
      <trkpt lat="42.75086" lon="-0.21561">
        <ele>2282.7</ele>
        <time>2018-12-27T10:54:55Z</time>
      </trkpt>
      <trkpt lat="42.75091" lon="-0.21565">
        <ele>2280.4</ele>
        <time>2018-12-27T10:54:57Z</time>
      </trkpt>
      <trkpt lat="42.75096" lon="-0.21569">
        <ele>2278.4</ele>
        <time>2018-12-27T10:54:59Z</time>
      </trkpt>
      <trkpt lat="42.75102" lon="-0.21572">
        <ele>2276.5</ele>
        <time>2018-12-27T10:55:00Z</time>
      </trkpt>
      <trkpt lat="42.7511" lon="-0.21583">
        <ele>2272.8</ele>
        <time>2018-12-27T10:55:03Z</time>
      </trkpt>
      <trkpt lat="42.75115" lon="-0.21586">
        <ele>2271.7</ele>
        <time>2018-12-27T10:55:05Z</time>
      </trkpt>
      <trkpt lat="42.75119" lon="-0.21586">
        <ele>2271.1</ele>
        <time>2018-12-27T10:55:06Z</time>
      </trkpt>
      <trkpt lat="42.75123" lon="-0.21589">
        <ele>2270.2</ele>
        <time>2018-12-27T10:55:07Z</time>
      </trkpt>
      <trkpt lat="42.75129" lon="-0.2159">
        <ele>2269.5</ele>
        <time>2018-12-27T10:55:09Z</time>
      </trkpt>
      <trkpt lat="42.75138" lon="-0.21585">
        <ele>2269.4</ele>
        <time>2018-12-27T10:55:11Z</time>
      </trkpt>
      <trkpt lat="42.75148" lon="-0.21583">
        <ele>2268.9</ele>
        <time>2018-12-27T10:55:14Z</time>
      </trkpt>
      <trkpt lat="42.75157" lon="-0.21583">
        <ele>2268.2</ele>
        <time>2018-12-27T10:55:16Z</time>
      </trkpt>
      <trkpt lat="42.75169" lon="-0.21585">
        <ele>2266.6</ele>
        <time>2018-12-27T10:55:19Z</time>
      </trkpt>
      <trkpt lat="42.75179" lon="-0.21587">
        <ele>2265.3</ele>
        <time>2018-12-27T10:55:22Z</time>
      </trkpt>
      <trkpt lat="42.75182" lon="-0.21588">
        <ele>2264.8</ele>
        <time>2018-12-27T10:55:23Z</time>
      </trkpt>
      <trkpt lat="42.75186" lon="-0.2159">
        <ele>2264.1</ele>
        <time>2018-12-27T10:55:24Z</time>
      </trkpt>
      <trkpt lat="42.75191" lon="-0.2159">
        <ele>2263.6</ele>
        <time>2018-12-27T10:55:25Z</time>
      </trkpt>
      <trkpt lat="42.75196" lon="-0.21594">
        <ele>2262.5</ele>
        <time>2018-12-27T10:55:27Z</time>
      </trkpt>
      <trkpt lat="42.752" lon="-0.21596">
        <ele>2261.8</ele>
        <time>2018-12-27T10:55:28Z</time>
      </trkpt>
      <trkpt lat="42.75201" lon="-0.21596">
        <ele>2261.6</ele>
        <time>2018-12-27T10:55:28Z</time>
      </trkpt>
      <trkpt lat="42.75204" lon="-0.21597">
        <ele>2261.1</ele>
        <time>2018-12-27T10:55:29Z</time>
      </trkpt>
      <trkpt lat="42.75205" lon="-0.21598">
        <ele>2260.8</ele>
        <time>2018-12-27T10:55:30Z</time>
      </trkpt>
      <trkpt lat="42.75207" lon="-0.21604">
        <ele>2259.8</ele>
        <time>2018-12-27T10:55:31Z</time>
      </trkpt>
      <trkpt lat="42.75213" lon="-0.21608">
        <ele>2258.1</ele>
        <time>2018-12-27T10:55:33Z</time>
      </trkpt>
      <trkpt lat="42.75216" lon="-0.2161">
        <ele>2256.9</ele>
        <time>2018-12-27T10:55:34Z</time>
      </trkpt>
      <trkpt lat="42.75223" lon="-0.21615">
        <ele>2254.3</ele>
        <time>2018-12-27T10:55:36Z</time>
      </trkpt>
      <trkpt lat="42.75225" lon="-0.21616">
        <ele>2253.4</ele>
        <time>2018-12-27T10:55:36Z</time>
      </trkpt>
      <trkpt lat="42.7523" lon="-0.2162">
        <ele>2251.3</ele>
        <time>2018-12-27T10:55:38Z</time>
      </trkpt>
      <trkpt lat="42.75234" lon="-0.21626">
        <ele>2249</ele>
        <time>2018-12-27T10:55:39Z</time>
      </trkpt>
      <trkpt lat="42.75236" lon="-0.21628">
        <ele>2246.9</ele>
        <time>2018-12-27T10:55:40Z</time>
      </trkpt>
      <trkpt lat="42.75239" lon="-0.2163">
        <ele>2245.2</ele>
        <time>2018-12-27T10:55:41Z</time>
      </trkpt>
      <trkpt lat="42.7524" lon="-0.21631">
        <ele>2244.6</ele>
        <time>2018-12-27T10:55:41Z</time>
      </trkpt>
      <trkpt lat="42.75243" lon="-0.21633">
        <ele>2242.4</ele>
        <time>2018-12-27T10:55:42Z</time>
      </trkpt>
      <trkpt lat="42.7525" lon="-0.21636">
        <ele>2239.7</ele>
        <time>2018-12-27T10:55:44Z</time>
      </trkpt>
      <trkpt lat="42.75252" lon="-0.21636">
        <ele>2238.9</ele>
        <time>2018-12-27T10:55:45Z</time>
      </trkpt>
      <trkpt lat="42.75252" lon="-0.21639">
        <ele>2237.2</ele>
        <time>2018-12-27T10:55:45Z</time>
      </trkpt>
      <trkpt lat="42.7526" lon="-0.21645">
        <ele>2232.4</ele>
        <time>2018-12-27T10:55:47Z</time>
      </trkpt>
      <trkpt lat="42.75263" lon="-0.21649">
        <ele>2230.2</ele>
        <time>2018-12-27T10:55:49Z</time>
      </trkpt>
      <trkpt lat="42.75269" lon="-0.21653">
        <ele>2226.5</ele>
        <time>2018-12-27T10:55:50Z</time>
      </trkpt>
      <trkpt lat="42.75279" lon="-0.21663">
        <ele>2220.2</ele>
        <time>2018-12-27T10:55:54Z</time>
      </trkpt>
      <trkpt lat="42.75286" lon="-0.21665">
        <ele>2217.9</ele>
        <time>2018-12-27T10:55:55Z</time>
      </trkpt>
      <trkpt lat="42.75287" lon="-0.21661">
        <ele>2219.4</ele>
        <time>2018-12-27T10:55:56Z</time>
      </trkpt>
      <trkpt lat="42.75295" lon="-0.21655">
        <ele>2220.6</ele>
        <time>2018-12-27T10:55:59Z</time>
      </trkpt>
      <trkpt lat="42.75302" lon="-0.21654">
        <ele>2219.6</ele>
        <time>2018-12-27T10:56:01Z</time>
      </trkpt>
      <trkpt lat="42.75308" lon="-0.21652">
        <ele>2219.2</ele>
        <time>2018-12-27T10:56:02Z</time>
      </trkpt>
      <trkpt lat="42.75309" lon="-0.21651">
        <ele>2219.5</ele>
        <time>2018-12-27T10:56:03Z</time>
      </trkpt>
      <trkpt lat="42.75311" lon="-0.21651">
        <ele>2219.3</ele>
        <time>2018-12-27T10:56:03Z</time>
      </trkpt>
      <trkpt lat="42.75317" lon="-0.21652">
        <ele>2217.8</ele>
        <time>2018-12-27T10:56:05Z</time>
      </trkpt>
      <trkpt lat="42.7532" lon="-0.21653">
        <ele>2216.7</ele>
        <time>2018-12-27T10:56:05Z</time>
      </trkpt>
      <trkpt lat="42.7532" lon="-0.21654">
        <ele>2216.2</ele>
        <time>2018-12-27T10:56:06Z</time>
      </trkpt>
      <trkpt lat="42.7532" lon="-0.21657">
        <ele>2215.1</ele>
        <time>2018-12-27T10:56:06Z</time>
      </trkpt>
      <trkpt lat="42.75321" lon="-0.21663">
        <ele>2212.7</ele>
        <time>2018-12-27T10:56:07Z</time>
      </trkpt>
      <trkpt lat="42.75322" lon="-0.21663">
        <ele>2212.2</ele>
        <time>2018-12-27T10:56:08Z</time>
      </trkpt>
      <trkpt lat="42.75333" lon="-0.21659">
        <ele>2211.8</ele>
        <time>2018-12-27T10:56:11Z</time>
      </trkpt>
      <trkpt lat="42.75341" lon="-0.21654">
        <ele>2212.5</ele>
        <time>2018-12-27T10:56:13Z</time>
      </trkpt>
      <trkpt lat="42.75342" lon="-0.21652">
        <ele>2212.9</ele>
        <time>2018-12-27T10:56:14Z</time>
      </trkpt>
      <trkpt lat="42.75343" lon="-0.21653">
        <ele>2212.2</ele>
        <time>2018-12-27T10:56:14Z</time>
      </trkpt>
      <trkpt lat="42.75346" lon="-0.21666">
        <ele>2207.1</ele>
        <time>2018-12-27T10:56:17Z</time>
      </trkpt>
      <trkpt lat="42.7535" lon="-0.21671">
        <ele>2204.2</ele>
        <time>2018-12-27T10:56:18Z</time>
      </trkpt>
      <trkpt lat="42.75353" lon="-0.21671">
        <ele>2203.9</ele>
        <time>2018-12-27T10:56:19Z</time>
      </trkpt>
      <trkpt lat="42.75358" lon="-0.2167">
        <ele>2203.2</ele>
        <time>2018-12-27T10:56:20Z</time>
      </trkpt>
      <trkpt lat="42.75369" lon="-0.21668">
        <ele>2202.4</ele>
        <time>2018-12-27T10:56:23Z</time>
      </trkpt>
      <trkpt lat="42.7537" lon="-0.21666">
        <ele>2202.5</ele>
        <time>2018-12-27T10:56:24Z</time>
      </trkpt>
      <trkpt lat="42.75381" lon="-0.21664">
        <ele>2202.5</ele>
        <time>2018-12-27T10:56:27Z</time>
      </trkpt>
      <trkpt lat="42.75385" lon="-0.21665">
        <ele>2202.6</ele>
        <time>2018-12-27T10:56:28Z</time>
      </trkpt>
      <trkpt lat="42.75387" lon="-0.21666">
        <ele>2202.3</ele>
        <time>2018-12-27T10:56:28Z</time>
      </trkpt>
      <trkpt lat="42.75389" lon="-0.21666">
        <ele>2202.3</ele>
        <time>2018-12-27T10:56:29Z</time>
      </trkpt>
      <trkpt lat="42.75398" lon="-0.21663">
        <ele>2203.6</ele>
        <time>2018-12-27T10:56:31Z</time>
      </trkpt>
      <trkpt lat="42.75405" lon="-0.21667">
        <ele>2202.8</ele>
        <time>2018-12-27T10:56:33Z</time>
      </trkpt>
      <trkpt lat="42.75406" lon="-0.21669">
        <ele>2202.2</ele>
        <time>2018-12-27T10:56:34Z</time>
      </trkpt>
      <trkpt lat="42.7541" lon="-0.21675">
        <ele>2200.8</ele>
        <time>2018-12-27T10:56:36Z</time>
      </trkpt>
      <trkpt lat="42.75422" lon="-0.21681">
        <ele>2200.3</ele>
        <time>2018-12-27T10:56:39Z</time>
      </trkpt>
      <trkpt lat="42.75434" lon="-0.21685">
        <ele>2200.7</ele>
        <time>2018-12-27T10:56:42Z</time>
      </trkpt>
      <trkpt lat="42.75445" lon="-0.21691">
        <ele>2200.6</ele>
        <time>2018-12-27T10:56:45Z</time>
      </trkpt>
      <trkpt lat="42.75455" lon="-0.21694">
        <ele>2201.4</ele>
        <time>2018-12-27T10:56:48Z</time>
      </trkpt>
      <trkpt lat="42.75463" lon="-0.21702">
        <ele>2201.5</ele>
        <time>2018-12-27T10:56:51Z</time>
      </trkpt>
      <trkpt lat="42.75474" lon="-0.21714">
        <ele>2201.3</ele>
        <time>2018-12-27T10:56:55Z</time>
      </trkpt>
      <trkpt lat="42.75483" lon="-0.21724">
        <ele>2200.9</ele>
        <time>2018-12-27T10:56:58Z</time>
      </trkpt>
      <trkpt lat="42.75491" lon="-0.21735">
        <ele>2200.4</ele>
        <time>2018-12-27T10:57:01Z</time>
      </trkpt>
      <trkpt lat="42.755" lon="-0.21747">
        <ele>2200.4</ele>
        <time>2018-12-27T10:57:04Z</time>
      </trkpt>
      <trkpt lat="42.75509" lon="-0.21759">
        <ele>2200.6</ele>
        <time>2018-12-27T10:57:07Z</time>
      </trkpt>
      <trkpt lat="42.75519" lon="-0.21766">
        <ele>2202.5</ele>
        <time>2018-12-27T10:57:10Z</time>
      </trkpt>
      <trkpt lat="42.75524" lon="-0.21778">
        <ele>2202.7</ele>
        <time>2018-12-27T10:57:13Z</time>
      </trkpt>
      <trkpt lat="42.75528" lon="-0.21782">
        <ele>2203.3</ele>
        <time>2018-12-27T10:57:14Z</time>
      </trkpt>
      <trkpt lat="42.75535" lon="-0.21789">
        <ele>2204.9</ele>
        <time>2018-12-27T10:57:17Z</time>
      </trkpt>
      <trkpt lat="42.75542" lon="-0.21804">
        <ele>2203.9</ele>
        <time>2018-12-27T10:57:20Z</time>
      </trkpt>
      <trkpt lat="42.75545" lon="-0.21818">
        <ele>2200.7</ele>
        <time>2018-12-27T10:57:23Z</time>
      </trkpt>
      <trkpt lat="42.75551" lon="-0.21821">
        <ele>2200.8</ele>
        <time>2018-12-27T10:57:25Z</time>
      </trkpt>
      <trkpt lat="42.75552" lon="-0.21823">
        <ele>2200.5</ele>
        <time>2018-12-27T10:57:25Z</time>
      </trkpt>
      <trkpt lat="42.75553" lon="-0.21829">
        <ele>2199.4</ele>
        <time>2018-12-27T10:57:26Z</time>
      </trkpt>
      <trkpt lat="42.75554" lon="-0.21835">
        <ele>2198.1</ele>
        <time>2018-12-27T10:57:28Z</time>
      </trkpt>
      <trkpt lat="42.75558" lon="-0.2185">
        <ele>2195.1</ele>
        <time>2018-12-27T10:57:31Z</time>
      </trkpt>
      <trkpt lat="42.75558" lon="-0.21857">
        <ele>2193.5</ele>
        <time>2018-12-27T10:57:32Z</time>
      </trkpt>
      <trkpt lat="42.75557" lon="-0.21862">
        <ele>2192.2</ele>
        <time>2018-12-27T10:57:33Z</time>
      </trkpt>
      <trkpt lat="42.75562" lon="-0.21868">
        <ele>2191.7</ele>
        <time>2018-12-27T10:57:35Z</time>
      </trkpt>
      <trkpt lat="42.75565" lon="-0.21873">
        <ele>2191.3</ele>
        <time>2018-12-27T10:57:36Z</time>
      </trkpt>
      <trkpt lat="42.75566" lon="-0.21884">
        <ele>2188.9</ele>
        <time>2018-12-27T10:57:38Z</time>
      </trkpt>
      <trkpt lat="42.75569" lon="-0.21904">
        <ele>2184.7</ele>
        <time>2018-12-27T10:57:42Z</time>
      </trkpt>
      <trkpt lat="42.75573" lon="-0.21918">
        <ele>2182</ele>
        <time>2018-12-27T10:57:45Z</time>
      </trkpt>
      <trkpt lat="42.75577" lon="-0.2193">
        <ele>2180.3</ele>
        <time>2018-12-27T10:57:48Z</time>
      </trkpt>
      <trkpt lat="42.75577" lon="-0.21932">
        <ele>2179.8</ele>
        <time>2018-12-27T10:57:48Z</time>
      </trkpt>
      <trkpt lat="42.75572" lon="-0.21935">
        <ele>2177.7</ele>
        <time>2018-12-27T10:57:49Z</time>
      </trkpt>
      <trkpt lat="42.75567" lon="-0.21942">
        <ele>2174.2</ele>
        <time>2018-12-27T10:57:51Z</time>
      </trkpt>
      <trkpt lat="42.75566" lon="-0.21945">
        <ele>2173</ele>
        <time>2018-12-27T10:57:52Z</time>
      </trkpt>
      <trkpt lat="42.75565" lon="-0.21957">
        <ele>2169.4</ele>
        <time>2018-12-27T10:57:55Z</time>
      </trkpt>
      <trkpt lat="42.75567" lon="-0.2196">
        <ele>2169.2</ele>
        <time>2018-12-27T10:57:55Z</time>
      </trkpt>
      <trkpt lat="42.75574" lon="-0.21971">
        <ele>2167.9</ele>
        <time>2018-12-27T10:57:58Z</time>
      </trkpt>
      <trkpt lat="42.75576" lon="-0.21978">
        <ele>2166.1</ele>
        <time>2018-12-27T10:58:00Z</time>
      </trkpt>
      <trkpt lat="42.75577" lon="-0.21983">
        <ele>2164.9</ele>
        <time>2018-12-27T10:58:01Z</time>
      </trkpt>
      <trkpt lat="42.75579" lon="-0.21995">
        <ele>2161.3</ele>
        <time>2018-12-27T10:58:03Z</time>
      </trkpt>
      <trkpt lat="42.7558" lon="-0.21998">
        <ele>2160.4</ele>
        <time>2018-12-27T10:58:04Z</time>
      </trkpt>
      <trkpt lat="42.75584" lon="-0.22001">
        <ele>2160.6</ele>
        <time>2018-12-27T10:58:05Z</time>
      </trkpt>
      <trkpt lat="42.75587" lon="-0.22004">
        <ele>2160.3</ele>
        <time>2018-12-27T10:58:06Z</time>
      </trkpt>
      <trkpt lat="42.75586" lon="-0.22008">
        <ele>2158.9</ele>
        <time>2018-12-27T10:58:07Z</time>
      </trkpt>
      <trkpt lat="42.75588" lon="-0.22013">
        <ele>2157.5</ele>
        <time>2018-12-27T10:58:08Z</time>
      </trkpt>
      <trkpt lat="42.75587" lon="-0.22016">
        <ele>2156</ele>
        <time>2018-12-27T10:58:08Z</time>
      </trkpt>
      <trkpt lat="42.75585" lon="-0.22021">
        <ele>2153.6</ele>
        <time>2018-12-27T10:58:10Z</time>
      </trkpt>
      <trkpt lat="42.75584" lon="-0.22027">
        <ele>2151.4</ele>
        <time>2018-12-27T10:58:11Z</time>
      </trkpt>
      <trkpt lat="42.75585" lon="-0.2203">
        <ele>2150.5</ele>
        <time>2018-12-27T10:58:11Z</time>
      </trkpt>
      <trkpt lat="42.75586" lon="-0.22034">
        <ele>2149.8</ele>
        <time>2018-12-27T10:58:12Z</time>
      </trkpt>
      <trkpt lat="42.75587" lon="-0.22035">
        <ele>2149.2</ele>
        <time>2018-12-27T10:58:13Z</time>
      </trkpt>
      <trkpt lat="42.75588" lon="-0.22041">
        <ele>2147.6</ele>
        <time>2018-12-27T10:58:14Z</time>
      </trkpt>
      <trkpt lat="42.7559" lon="-0.22041">
        <ele>2148.1</ele>
        <time>2018-12-27T10:58:14Z</time>
      </trkpt>
      <trkpt lat="42.75597" lon="-0.22044">
        <ele>2148.7</ele>
        <time>2018-12-27T10:58:16Z</time>
      </trkpt>
      <trkpt lat="42.75604" lon="-0.22051">
        <ele>2147.9</ele>
        <time>2018-12-27T10:58:18Z</time>
      </trkpt>
      <trkpt lat="42.75605" lon="-0.22054">
        <ele>2147.2</ele>
        <time>2018-12-27T10:58:19Z</time>
      </trkpt>
      <trkpt lat="42.75606" lon="-0.22059">
        <ele>2145.3</ele>
        <time>2018-12-27T10:58:20Z</time>
      </trkpt>
      <trkpt lat="42.75606" lon="-0.22064">
        <ele>2143.6</ele>
        <time>2018-12-27T10:58:21Z</time>
      </trkpt>
      <trkpt lat="42.75609" lon="-0.22067">
        <ele>2143.3</ele>
        <time>2018-12-27T10:58:22Z</time>
      </trkpt>
      <trkpt lat="42.75611" lon="-0.22075">
        <ele>2140.8</ele>
        <time>2018-12-27T10:58:24Z</time>
      </trkpt>
      <trkpt lat="42.75612" lon="-0.22083">
        <ele>2138</ele>
        <time>2018-12-27T10:58:25Z</time>
      </trkpt>
      <trkpt lat="42.75614" lon="-0.22088">
        <ele>2136.6</ele>
        <time>2018-12-27T10:58:27Z</time>
      </trkpt>
      <trkpt lat="42.75616" lon="-0.22092">
        <ele>2135.6</ele>
        <time>2018-12-27T10:58:27Z</time>
      </trkpt>
      <trkpt lat="42.75618" lon="-0.22095">
        <ele>2135</ele>
        <time>2018-12-27T10:58:28Z</time>
      </trkpt>
      <trkpt lat="42.75621" lon="-0.22097">
        <ele>2134.9</ele>
        <time>2018-12-27T10:58:29Z</time>
      </trkpt>
      <trkpt lat="42.75623" lon="-0.22099">
        <ele>2134.7</ele>
        <time>2018-12-27T10:58:30Z</time>
      </trkpt>
      <trkpt lat="42.75619" lon="-0.22104">
        <ele>2131.8</ele>
        <time>2018-12-27T10:58:31Z</time>
      </trkpt>
      <trkpt lat="42.75616" lon="-0.22108">
        <ele>2129.5</ele>
        <time>2018-12-27T10:58:32Z</time>
      </trkpt>
      <trkpt lat="42.75616" lon="-0.2211">
        <ele>2128.5</ele>
        <time>2018-12-27T10:58:33Z</time>
      </trkpt>
      <trkpt lat="42.75617" lon="-0.22118">
        <ele>2126.1</ele>
        <time>2018-12-27T10:58:34Z</time>
      </trkpt>
      <trkpt lat="42.75621" lon="-0.22121">
        <ele>2125.7</ele>
        <time>2018-12-27T10:58:35Z</time>
      </trkpt>
      <trkpt lat="42.75621" lon="-0.22121">
        <ele>2125.6</ele>
        <time>2018-12-27T10:58:36Z</time>
      </trkpt>
      <trkpt lat="42.75622" lon="-0.22123">
        <ele>2125.1</ele>
        <time>2018-12-27T10:58:36Z</time>
      </trkpt>
      <trkpt lat="42.75623" lon="-0.2213">
        <ele>2122.4</ele>
        <time>2018-12-27T10:58:37Z</time>
      </trkpt>
      <trkpt lat="42.75626" lon="-0.22139">
        <ele>2118.9</ele>
        <time>2018-12-27T10:58:39Z</time>
      </trkpt>
      <trkpt lat="42.75623" lon="-0.22143">
        <ele>2116.3</ele>
        <time>2018-12-27T10:58:40Z</time>
      </trkpt>
      <trkpt lat="42.75622" lon="-0.22144">
        <ele>2115.7</ele>
        <time>2018-12-27T10:58:41Z</time>
      </trkpt>
      <trkpt lat="42.75621" lon="-0.22152">
        <ele>2111.8</ele>
        <time>2018-12-27T10:58:42Z</time>
      </trkpt>
      <trkpt lat="42.75625" lon="-0.22159">
        <ele>2109.6</ele>
        <time>2018-12-27T10:58:44Z</time>
      </trkpt>
      <trkpt lat="42.75626" lon="-0.22166">
        <ele>2106.4</ele>
        <time>2018-12-27T10:58:45Z</time>
      </trkpt>
      <trkpt lat="42.75631" lon="-0.22172">
        <ele>2104.2</ele>
        <time>2018-12-27T10:58:47Z</time>
      </trkpt>
      <trkpt lat="42.75637" lon="-0.22176">
        <ele>2102.9</ele>
        <time>2018-12-27T10:58:49Z</time>
      </trkpt>
      <trkpt lat="42.75645" lon="-0.22177">
        <ele>2102.9</ele>
        <time>2018-12-27T10:58:51Z</time>
      </trkpt>
      <trkpt lat="42.75652" lon="-0.22181">
        <ele>2101.9</ele>
        <time>2018-12-27T10:58:53Z</time>
      </trkpt>
      <trkpt lat="42.75654" lon="-0.22183">
        <ele>2101.3</ele>
        <time>2018-12-27T10:58:54Z</time>
      </trkpt>
      <trkpt lat="42.75657" lon="-0.22177">
        <ele>2103.9</ele>
        <time>2018-12-27T10:58:55Z</time>
      </trkpt>
      <trkpt lat="42.75662" lon="-0.22182">
        <ele>2102</ele>
        <time>2018-12-27T10:58:57Z</time>
      </trkpt>
      <trkpt lat="42.7567" lon="-0.22187">
        <ele>2100.7</ele>
        <time>2018-12-27T10:58:59Z</time>
      </trkpt>
      <trkpt lat="42.75671" lon="-0.22187">
        <ele>2100.8</ele>
        <time>2018-12-27T10:59:00Z</time>
      </trkpt>
      <trkpt lat="42.75676" lon="-0.22186">
        <ele>2101.6</ele>
        <time>2018-12-27T10:59:01Z</time>
      </trkpt>
      <trkpt lat="42.75677" lon="-0.22186">
        <ele>2101.6</ele>
        <time>2018-12-27T10:59:01Z</time>
      </trkpt>
      <trkpt lat="42.75678" lon="-0.22187">
        <ele>2101.5</ele>
        <time>2018-12-27T10:59:01Z</time>
      </trkpt>
      <trkpt lat="42.75683" lon="-0.22191">
        <ele>2100.3</ele>
        <time>2018-12-27T10:59:03Z</time>
      </trkpt>
      <trkpt lat="42.75692" lon="-0.22197">
        <ele>2098.4</ele>
        <time>2018-12-27T10:59:05Z</time>
      </trkpt>
      <trkpt lat="42.75693" lon="-0.22198">
        <ele>2098.2</ele>
        <time>2018-12-27T10:59:06Z</time>
      </trkpt>
      <trkpt lat="42.75701" lon="-0.22201">
        <ele>2097.7</ele>
        <time>2018-12-27T10:59:08Z</time>
      </trkpt>
      <trkpt lat="42.75706" lon="-0.22202">
        <ele>2097.7</ele>
        <time>2018-12-27T10:59:10Z</time>
      </trkpt>
      <trkpt lat="42.75714" lon="-0.22205">
        <ele>2096.6</ele>
        <time>2018-12-27T10:59:12Z</time>
      </trkpt>
      <trkpt lat="42.75718" lon="-0.22207">
        <ele>2095.9</ele>
        <time>2018-12-27T10:59:13Z</time>
      </trkpt>
      <trkpt lat="42.75718" lon="-0.22207">
        <ele>2095.8</ele>
        <time>2018-12-27T10:59:13Z</time>
      </trkpt>
      <trkpt lat="42.75724" lon="-0.22207">
        <ele>2095.9</ele>
        <time>2018-12-27T10:59:14Z</time>
      </trkpt>
      <trkpt lat="42.75729" lon="-0.22209">
        <ele>2095</ele>
        <time>2018-12-27T10:59:16Z</time>
      </trkpt>
      <trkpt lat="42.75732" lon="-0.22207">
        <ele>2096.2</ele>
        <time>2018-12-27T10:59:17Z</time>
      </trkpt>
      <trkpt lat="42.75733" lon="-0.22205">
        <ele>2097</ele>
        <time>2018-12-27T10:59:17Z</time>
      </trkpt>
      <trkpt lat="42.75734" lon="-0.22204">
        <ele>2097.6</ele>
        <time>2018-12-27T10:59:18Z</time>
      </trkpt>
      <trkpt lat="42.75735" lon="-0.22202">
        <ele>2098.4</ele>
        <time>2018-12-27T10:59:18Z</time>
      </trkpt>
      <trkpt lat="42.75738" lon="-0.222">
        <ele>2099.6</ele>
        <time>2018-12-27T10:59:19Z</time>
      </trkpt>
      <trkpt lat="42.75741" lon="-0.22198">
        <ele>2100.4</ele>
        <time>2018-12-27T10:59:20Z</time>
      </trkpt>
      <trkpt lat="42.75741" lon="-0.22197">
        <ele>2101.1</ele>
        <time>2018-12-27T10:59:20Z</time>
      </trkpt>
      <trkpt lat="42.75739" lon="-0.22194">
        <ele>2102.4</ele>
        <time>2018-12-27T10:59:21Z</time>
      </trkpt>
      <trkpt lat="42.75742" lon="-0.22193">
        <ele>2102.8</ele>
        <time>2018-12-27T10:59:22Z</time>
      </trkpt>
      <trkpt lat="42.75743" lon="-0.22191">
        <ele>2103.8</ele>
        <time>2018-12-27T10:59:22Z</time>
      </trkpt>
      <trkpt lat="42.75744" lon="-0.22189">
        <ele>2104.9</ele>
        <time>2018-12-27T10:59:22Z</time>
      </trkpt>
      <trkpt lat="42.75746" lon="-0.22187">
        <ele>2105.7</ele>
        <time>2018-12-27T10:59:23Z</time>
      </trkpt>
      <trkpt lat="42.75746" lon="-0.22184">
        <ele>2107</ele>
        <time>2018-12-27T10:59:24Z</time>
      </trkpt>
      <trkpt lat="42.75746" lon="-0.22182">
        <ele>2108</ele>
        <time>2018-12-27T10:59:24Z</time>
      </trkpt>
      <trkpt lat="42.75744" lon="-0.22181">
        <ele>2108.2</ele>
        <time>2018-12-27T10:59:24Z</time>
      </trkpt>
      <trkpt lat="42.75744" lon="-0.22177">
        <ele>2110.1</ele>
        <time>2018-12-27T10:59:25Z</time>
      </trkpt>
      <trkpt lat="42.75743" lon="-0.22174">
        <ele>2111.3</ele>
        <time>2018-12-27T10:59:26Z</time>
      </trkpt>
      <trkpt lat="42.75743" lon="-0.22173">
        <ele>2111.9</ele>
        <time>2018-12-27T10:59:26Z</time>
      </trkpt>
      <trkpt lat="42.75742" lon="-0.22171">
        <ele>2112.8</ele>
        <time>2018-12-27T10:59:27Z</time>
      </trkpt>
      <trkpt lat="42.75741" lon="-0.2217">
        <ele>2113.3</ele>
        <time>2018-12-27T10:59:27Z</time>
      </trkpt>
      <trkpt lat="42.75741" lon="-0.22166">
        <ele>2115.1</ele>
        <time>2018-12-27T10:59:28Z</time>
      </trkpt>
      <trkpt lat="42.75741" lon="-0.2216">
        <ele>2117.4</ele>
        <time>2018-12-27T10:59:29Z</time>
      </trkpt>
      <trkpt lat="42.75738" lon="-0.22155">
        <ele>2119.5</ele>
        <time>2018-12-27T10:59:30Z</time>
      </trkpt>
      <trkpt lat="42.75737" lon="-0.22153">
        <ele>2120.2</ele>
        <time>2018-12-27T10:59:31Z</time>
      </trkpt>
      <trkpt lat="42.75733" lon="-0.22148">
        <ele>2122.4</ele>
        <time>2018-12-27T10:59:32Z</time>
      </trkpt>
      <trkpt lat="42.75731" lon="-0.22143">
        <ele>2124.4</ele>
        <time>2018-12-27T10:59:33Z</time>
      </trkpt>
      <trkpt lat="42.7573" lon="-0.22142">
        <ele>2125</ele>
        <time>2018-12-27T10:59:34Z</time>
      </trkpt>
      <trkpt lat="42.75725" lon="-0.22137">
        <ele>2126.6</ele>
        <time>2018-12-27T10:59:35Z</time>
      </trkpt>
      <trkpt lat="42.75721" lon="-0.22132">
        <ele>2128.1</ele>
        <time>2018-12-27T10:59:37Z</time>
      </trkpt>
      <trkpt lat="42.7572" lon="-0.22132">
        <ele>2128.3</ele>
        <time>2018-12-27T10:59:37Z</time>
      </trkpt>
      <trkpt lat="42.75715" lon="-0.22125">
        <ele>2130.7</ele>
        <time>2018-12-27T10:59:39Z</time>
      </trkpt>
      <trkpt lat="42.75711" lon="-0.22121">
        <ele>2131.8</ele>
        <time>2018-12-27T10:59:40Z</time>
      </trkpt>
      <trkpt lat="42.75707" lon="-0.22118">
        <ele>2132.9</ele>
        <time>2018-12-27T10:59:41Z</time>
      </trkpt>
      <trkpt lat="42.75703" lon="-0.22114">
        <ele>2134.3</ele>
        <time>2018-12-27T10:59:43Z</time>
      </trkpt>
      <trkpt lat="42.75702" lon="-0.22111">
        <ele>2135.4</ele>
        <time>2018-12-27T10:59:43Z</time>
      </trkpt>
      <trkpt lat="42.75701" lon="-0.22109">
        <ele>2136.1</ele>
        <time>2018-12-27T10:59:44Z</time>
      </trkpt>
      <trkpt lat="42.757" lon="-0.22106">
        <ele>2137.2</ele>
        <time>2018-12-27T10:59:44Z</time>
      </trkpt>
      <trkpt lat="42.757" lon="-0.22103">
        <ele>2138.7</ele>
        <time>2018-12-27T10:59:45Z</time>
      </trkpt>
      <trkpt lat="42.75699" lon="-0.221">
        <ele>2139.7</ele>
        <time>2018-12-27T10:59:46Z</time>
      </trkpt>
      <trkpt lat="42.75696" lon="-0.221">
        <ele>2139.3</ele>
        <time>2018-12-27T10:59:46Z</time>
      </trkpt>
      <trkpt lat="42.75691" lon="-0.22101">
        <ele>2138.8</ele>
        <time>2018-12-27T10:59:48Z</time>
      </trkpt>
      <trkpt lat="42.7569" lon="-0.22099">
        <ele>2139.5</ele>
        <time>2018-12-27T10:59:48Z</time>
      </trkpt>
      <trkpt lat="42.7569" lon="-0.22101">
        <ele>2138.5</ele>
        <time>2018-12-27T10:59:49Z</time>
      </trkpt>
      <trkpt lat="42.75688" lon="-0.22101">
        <ele>2138.5</ele>
        <time>2018-12-27T10:59:49Z</time>
      </trkpt>
      <trkpt lat="42.75688" lon="-0.22098">
        <ele>2139.8</ele>
        <time>2018-12-27T10:59:50Z</time>
      </trkpt>
      <trkpt lat="42.75688" lon="-0.22093">
        <ele>2141.5</ele>
        <time>2018-12-27T10:59:51Z</time>
      </trkpt>
      <trkpt lat="42.75689" lon="-0.22089">
        <ele>2143.5</ele>
        <time>2018-12-27T10:59:52Z</time>
      </trkpt>
      <trkpt lat="42.75691" lon="-0.22084">
        <ele>2145.7</ele>
        <time>2018-12-27T10:59:53Z</time>
      </trkpt>
      <trkpt lat="42.75692" lon="-0.22081">
        <ele>2146.8</ele>
        <time>2018-12-27T10:59:53Z</time>
      </trkpt>
      <trkpt lat="42.75693" lon="-0.22079">
        <ele>2147.9</ele>
        <time>2018-12-27T10:59:54Z</time>
      </trkpt>
      <trkpt lat="42.75692" lon="-0.22076">
        <ele>2148.8</ele>
        <time>2018-12-27T10:59:55Z</time>
      </trkpt>
      <trkpt lat="42.7569" lon="-0.22076">
        <ele>2148.7</ele>
        <time>2018-12-27T10:59:55Z</time>
      </trkpt>
      <trkpt lat="42.75688" lon="-0.22072">
        <ele>2150</ele>
        <time>2018-12-27T10:59:56Z</time>
      </trkpt>
      <trkpt lat="42.75687" lon="-0.22068">
        <ele>2151.4</ele>
        <time>2018-12-27T10:59:57Z</time>
      </trkpt>
      <trkpt lat="42.75686" lon="-0.22065">
        <ele>2153.1</ele>
        <time>2018-12-27T10:59:58Z</time>
      </trkpt>
      <trkpt lat="42.75687" lon="-0.22061">
        <ele>2154.4</ele>
        <time>2018-12-27T10:59:58Z</time>
      </trkpt>
      <trkpt lat="42.75687" lon="-0.22058">
        <ele>2155.8</ele>
        <time>2018-12-27T10:59:59Z</time>
      </trkpt>
      <trkpt lat="42.75686" lon="-0.2205">
        <ele>2158.7</ele>
        <time>2018-12-27T11:00:00Z</time>
      </trkpt>
      <trkpt lat="42.75686" lon="-0.22044">
        <ele>2161.1</ele>
        <time>2018-12-27T11:00:02Z</time>
      </trkpt>
      <trkpt lat="42.75686" lon="-0.22041">
        <ele>2162.5</ele>
        <time>2018-12-27T11:00:02Z</time>
      </trkpt>
      <trkpt lat="42.75685" lon="-0.22039">
        <ele>2162.9</ele>
        <time>2018-12-27T11:00:03Z</time>
      </trkpt>
      <trkpt lat="42.75684" lon="-0.22038">
        <ele>2163.4</ele>
        <time>2018-12-27T11:00:03Z</time>
      </trkpt>
      <trkpt lat="42.75684" lon="-0.22038">
        <ele>2163.5</ele>
        <time>2018-12-27T11:00:03Z</time>
      </trkpt>
      <trkpt lat="42.75683" lon="-0.22033">
        <ele>2165.4</ele>
        <time>2018-12-27T11:00:04Z</time>
      </trkpt>
      <trkpt lat="42.75684" lon="-0.22028">
        <ele>2167.3</ele>
        <time>2018-12-27T11:00:05Z</time>
      </trkpt>
      <trkpt lat="42.75684" lon="-0.22026">
        <ele>2168.3</ele>
        <time>2018-12-27T11:00:05Z</time>
      </trkpt>
      <trkpt lat="42.75683" lon="-0.22023">
        <ele>2169.1</ele>
        <time>2018-12-27T11:00:06Z</time>
      </trkpt>
      <trkpt lat="42.75679" lon="-0.22021">
        <ele>2169.7</ele>
        <time>2018-12-27T11:00:07Z</time>
      </trkpt>
      <trkpt lat="42.75672" lon="-0.22017">
        <ele>2170.7</ele>
        <time>2018-12-27T11:00:09Z</time>
      </trkpt>
      <trkpt lat="42.75666" lon="-0.22016">
        <ele>2170.7</ele>
        <time>2018-12-27T11:00:11Z</time>
      </trkpt>
      <trkpt lat="42.75656" lon="-0.22012">
        <ele>2171.5</ele>
        <time>2018-12-27T11:00:14Z</time>
      </trkpt>
      <trkpt lat="42.75649" lon="-0.22006">
        <ele>2173.2</ele>
        <time>2018-12-27T11:00:16Z</time>
      </trkpt>
      <trkpt lat="42.75645" lon="-0.22">
        <ele>2175</ele>
        <time>2018-12-27T11:00:17Z</time>
      </trkpt>
      <trkpt lat="42.75641" lon="-0.21995">
        <ele>2176.9</ele>
        <time>2018-12-27T11:00:19Z</time>
      </trkpt>
      <trkpt lat="42.75636" lon="-0.21989">
        <ele>2178.9</ele>
        <time>2018-12-27T11:00:21Z</time>
      </trkpt>
      <trkpt lat="42.75627" lon="-0.21974">
        <ele>2184.2</ele>
        <time>2018-12-27T11:00:24Z</time>
      </trkpt>
      <trkpt lat="42.75622" lon="-0.21963">
        <ele>2187</ele>
        <time>2018-12-27T11:00:27Z</time>
      </trkpt>
      <trkpt lat="42.75617" lon="-0.21954">
        <ele>2188.2</ele>
        <time>2018-12-27T11:00:29Z</time>
      </trkpt>
      <trkpt lat="42.75612" lon="-0.2195">
        <ele>2187.5</ele>
        <time>2018-12-27T11:00:31Z</time>
      </trkpt>
      <trkpt lat="42.75611" lon="-0.21947">
        <ele>2187.4</ele>
        <time>2018-12-27T11:00:31Z</time>
      </trkpt>
      <trkpt lat="42.75608" lon="-0.21943">
        <ele>2187.4</ele>
        <time>2018-12-27T11:00:32Z</time>
      </trkpt>
      <trkpt lat="42.75605" lon="-0.21937">
        <ele>2187.8</ele>
        <time>2018-12-27T11:00:34Z</time>
      </trkpt>
      <trkpt lat="42.75602" lon="-0.21932">
        <ele>2187.8</ele>
        <time>2018-12-27T11:00:35Z</time>
      </trkpt>
      <trkpt lat="42.75602" lon="-0.2193">
        <ele>2188.2</ele>
        <time>2018-12-27T11:00:36Z</time>
      </trkpt>
      <trkpt lat="42.75601" lon="-0.21921">
        <ele>2189.9</ele>
        <time>2018-12-27T11:00:37Z</time>
      </trkpt>
      <trkpt lat="42.75601" lon="-0.2192">
        <ele>2190.2</ele>
        <time>2018-12-27T11:00:38Z</time>
      </trkpt>
      <trkpt lat="42.75602" lon="-0.21913">
        <ele>2192.1</ele>
        <time>2018-12-27T11:00:39Z</time>
      </trkpt>
      <trkpt lat="42.75603" lon="-0.21911">
        <ele>2192.5</ele>
        <time>2018-12-27T11:00:39Z</time>
      </trkpt>
      <trkpt lat="42.75604" lon="-0.21898">
        <ele>2195.9</ele>
        <time>2018-12-27T11:00:42Z</time>
      </trkpt>
      <trkpt lat="42.75606" lon="-0.21886">
        <ele>2198.9</ele>
        <time>2018-12-27T11:00:44Z</time>
      </trkpt>
      <trkpt lat="42.75609" lon="-0.21881">
        <ele>2200.6</ele>
        <time>2018-12-27T11:00:45Z</time>
      </trkpt>
      <trkpt lat="42.75611" lon="-0.21879">
        <ele>2201.7</ele>
        <time>2018-12-27T11:00:46Z</time>
      </trkpt>
      <trkpt lat="42.75613" lon="-0.21871">
        <ele>2203.6</ele>
        <time>2018-12-27T11:00:48Z</time>
      </trkpt>
      <trkpt lat="42.75615" lon="-0.21861">
        <ele>2205.6</ele>
        <time>2018-12-27T11:00:50Z</time>
      </trkpt>
      <trkpt lat="42.75616" lon="-0.21848">
        <ele>2207.7</ele>
        <time>2018-12-27T11:00:52Z</time>
      </trkpt>
      <trkpt lat="42.75616" lon="-0.21838">
        <ele>2209.1</ele>
        <time>2018-12-27T11:00:54Z</time>
      </trkpt>
      <trkpt lat="42.75612" lon="-0.21828">
        <ele>2209.9</ele>
        <time>2018-12-27T11:00:57Z</time>
      </trkpt>
      <trkpt lat="42.75611" lon="-0.21827">
        <ele>2209.8</ele>
        <time>2018-12-27T11:00:57Z</time>
      </trkpt>
      <trkpt lat="42.7561" lon="-0.21826">
        <ele>2210</ele>
        <time>2018-12-27T11:00:57Z</time>
      </trkpt>
      <trkpt lat="42.75608" lon="-0.21822">
        <ele>2210.1</ele>
        <time>2018-12-27T11:00:58Z</time>
      </trkpt>
      <trkpt lat="42.75607" lon="-0.21821">
        <ele>2210.1</ele>
        <time>2018-12-27T11:00:59Z</time>
      </trkpt>
      <trkpt lat="42.75602" lon="-0.21816">
        <ele>2210.3</ele>
        <time>2018-12-27T11:01:00Z</time>
      </trkpt>
      <trkpt lat="42.75601" lon="-0.21815">
        <ele>2210.3</ele>
        <time>2018-12-27T11:01:00Z</time>
      </trkpt>
      <trkpt lat="42.75595" lon="-0.21809">
        <ele>2210.5</ele>
        <time>2018-12-27T11:01:02Z</time>
      </trkpt>
      <trkpt lat="42.75591" lon="-0.21805">
        <ele>2210.5</ele>
        <time>2018-12-27T11:01:04Z</time>
      </trkpt>
      <trkpt lat="42.75594" lon="-0.21808">
        <ele>2210.5</ele>
        <time>2018-12-27T11:01:05Z</time>
      </trkpt>
      <trkpt lat="42.75597" lon="-0.21807">
        <ele>2211.1</ele>
        <time>2018-12-27T11:01:05Z</time>
      </trkpt>
      <trkpt lat="42.756" lon="-0.21806">
        <ele>2211.5</ele>
        <time>2018-12-27T11:01:06Z</time>
      </trkpt>
      <trkpt lat="42.75605" lon="-0.21807">
        <ele>2212.1</ele>
        <time>2018-12-27T11:01:08Z</time>
      </trkpt>
      <trkpt lat="42.7561" lon="-0.21809">
        <ele>2212.6</ele>
        <time>2018-12-27T11:01:09Z</time>
      </trkpt>
      <trkpt lat="42.75616" lon="-0.21811">
        <ele>2213.2</ele>
        <time>2018-12-27T11:01:11Z</time>
      </trkpt>
      <trkpt lat="42.75618" lon="-0.21811">
        <ele>2213.5</ele>
        <time>2018-12-27T11:01:11Z</time>
      </trkpt>
      <trkpt lat="42.75622" lon="-0.21812">
        <ele>2213.8</ele>
        <time>2018-12-27T11:01:12Z</time>
      </trkpt>
      <trkpt lat="42.75624" lon="-0.21814">
        <ele>2213.9</ele>
        <time>2018-12-27T11:01:13Z</time>
      </trkpt>
      <trkpt lat="42.75628" lon="-0.21817">
        <ele>2214.6</ele>
        <time>2018-12-27T11:01:14Z</time>
      </trkpt>
      <trkpt lat="42.7563" lon="-0.21818">
        <ele>2215.1</ele>
        <time>2018-12-27T11:01:15Z</time>
      </trkpt>
      <trkpt lat="42.75629" lon="-0.21814">
        <ele>2215.3</ele>
        <time>2018-12-27T11:01:15Z</time>
      </trkpt>
      <trkpt lat="42.75628" lon="-0.2181">
        <ele>2215.6</ele>
        <time>2018-12-27T11:01:16Z</time>
      </trkpt>
      <trkpt lat="42.75628" lon="-0.21809">
        <ele>2216</ele>
        <time>2018-12-27T11:01:16Z</time>
      </trkpt>
      <trkpt lat="42.75628" lon="-0.21803">
        <ele>2216.5</ele>
        <time>2018-12-27T11:01:18Z</time>
      </trkpt>
      <trkpt lat="42.75628" lon="-0.21799">
        <ele>2217.1</ele>
        <time>2018-12-27T11:01:18Z</time>
      </trkpt>
      <trkpt lat="42.75628" lon="-0.21797">
        <ele>2217.5</ele>
        <time>2018-12-27T11:01:19Z</time>
      </trkpt>
      <trkpt lat="42.7563" lon="-0.21794">
        <ele>2218.7</ele>
        <time>2018-12-27T11:01:20Z</time>
      </trkpt>
      <trkpt lat="42.75633" lon="-0.21796">
        <ele>2219.3</ele>
        <time>2018-12-27T11:01:20Z</time>
      </trkpt>
      <trkpt lat="42.75633" lon="-0.21793">
        <ele>2219.8</ele>
        <time>2018-12-27T11:01:21Z</time>
      </trkpt>
      <trkpt lat="42.75633" lon="-0.21789">
        <ele>2220.7</ele>
        <time>2018-12-27T11:01:22Z</time>
      </trkpt>
      <trkpt lat="42.75631" lon="-0.2178">
        <ele>2221.3</ele>
        <time>2018-12-27T11:01:23Z</time>
      </trkpt>
      <trkpt lat="42.75628" lon="-0.21768">
        <ele>2221.8</ele>
        <time>2018-12-27T11:01:26Z</time>
      </trkpt>
      <trkpt lat="42.75625" lon="-0.21759">
        <ele>2222.1</ele>
        <time>2018-12-27T11:01:28Z</time>
      </trkpt>
      <trkpt lat="42.75624" lon="-0.21756">
        <ele>2222.3</ele>
        <time>2018-12-27T11:01:29Z</time>
      </trkpt>
      <trkpt lat="42.75622" lon="-0.21752">
        <ele>2222.8</ele>
        <time>2018-12-27T11:01:29Z</time>
      </trkpt>
      <trkpt lat="42.75623" lon="-0.21748">
        <ele>2223.5</ele>
        <time>2018-12-27T11:01:30Z</time>
      </trkpt>
      <trkpt lat="42.75625" lon="-0.2175">
        <ele>2223.6</ele>
        <time>2018-12-27T11:01:31Z</time>
      </trkpt>
      <trkpt lat="42.75627" lon="-0.21753">
        <ele>2224</ele>
        <time>2018-12-27T11:01:32Z</time>
      </trkpt>
      <trkpt lat="42.75631" lon="-0.21759">
        <ele>2224.8</ele>
        <time>2018-12-27T11:01:33Z</time>
      </trkpt>
      <trkpt lat="42.75635" lon="-0.21761">
        <ele>2226</ele>
        <time>2018-12-27T11:01:34Z</time>
      </trkpt>
      <trkpt lat="42.75635" lon="-0.2176">
        <ele>2226.4</ele>
        <time>2018-12-27T11:01:35Z</time>
      </trkpt>
      <trkpt lat="42.75634" lon="-0.21753">
        <ele>2227.2</ele>
        <time>2018-12-27T11:01:36Z</time>
      </trkpt>
      <trkpt lat="42.75633" lon="-0.21746">
        <ele>2227.9</ele>
        <time>2018-12-27T11:01:37Z</time>
      </trkpt>
      <trkpt lat="42.75632" lon="-0.21741">
        <ele>2228.2</ele>
        <time>2018-12-27T11:01:38Z</time>
      </trkpt>
      <trkpt lat="42.75631" lon="-0.21738">
        <ele>2228.2</ele>
        <time>2018-12-27T11:01:39Z</time>
      </trkpt>
      <trkpt lat="42.75629" lon="-0.21729">
        <ele>2228.7</ele>
        <time>2018-12-27T11:01:41Z</time>
      </trkpt>
      <trkpt lat="42.75628" lon="-0.21724">
        <ele>2229</ele>
        <time>2018-12-27T11:01:42Z</time>
      </trkpt>
      <trkpt lat="42.75628" lon="-0.21723">
        <ele>2229.2</ele>
        <time>2018-12-27T11:01:42Z</time>
      </trkpt>
      <trkpt lat="42.7563" lon="-0.21722">
        <ele>2230.3</ele>
        <time>2018-12-27T11:01:43Z</time>
      </trkpt>
      <trkpt lat="42.7563" lon="-0.21717">
        <ele>2231.1</ele>
        <time>2018-12-27T11:01:44Z</time>
      </trkpt>
      <trkpt lat="42.7563" lon="-0.21713">
        <ele>2231.9</ele>
        <time>2018-12-27T11:01:44Z</time>
      </trkpt>
      <trkpt lat="42.75632" lon="-0.21714">
        <ele>2232.7</ele>
        <time>2018-12-27T11:01:45Z</time>
      </trkpt>
      <trkpt lat="42.75635" lon="-0.21715">
        <ele>2234</ele>
        <time>2018-12-27T11:01:46Z</time>
      </trkpt>
      <trkpt lat="42.75635" lon="-0.21708">
        <ele>2235.2</ele>
        <time>2018-12-27T11:01:47Z</time>
      </trkpt>
      <trkpt lat="42.75636" lon="-0.21703">
        <ele>2236.9</ele>
        <time>2018-12-27T11:01:48Z</time>
      </trkpt>
      <trkpt lat="42.75638" lon="-0.21702">
        <ele>2237.7</ele>
        <time>2018-12-27T11:01:49Z</time>
      </trkpt>
      <trkpt lat="42.7564" lon="-0.21706">
        <ele>2238.3</ele>
        <time>2018-12-27T11:01:50Z</time>
      </trkpt>
      <trkpt lat="42.75643" lon="-0.21703">
        <ele>2239.9</ele>
        <time>2018-12-27T11:01:51Z</time>
      </trkpt>
      <trkpt lat="42.75644" lon="-0.217">
        <ele>2241.3</ele>
        <time>2018-12-27T11:01:51Z</time>
      </trkpt>
      <trkpt lat="42.75646" lon="-0.21702">
        <ele>2242.1</ele>
        <time>2018-12-27T11:01:52Z</time>
      </trkpt>
      <trkpt lat="42.75649" lon="-0.21703">
        <ele>2243.3</ele>
        <time>2018-12-27T11:01:53Z</time>
      </trkpt>
      <trkpt lat="42.75649" lon="-0.21698">
        <ele>2244.3</ele>
        <time>2018-12-27T11:01:54Z</time>
      </trkpt>
      <trkpt lat="42.7565" lon="-0.21697">
        <ele>2245</ele>
        <time>2018-12-27T11:01:54Z</time>
      </trkpt>
      <trkpt lat="42.75653" lon="-0.21697">
        <ele>2246.3</ele>
        <time>2018-12-27T11:01:55Z</time>
      </trkpt>
      <trkpt lat="42.75654" lon="-0.21693">
        <ele>2247.7</ele>
        <time>2018-12-27T11:01:55Z</time>
      </trkpt>
      <trkpt lat="42.75655" lon="-0.21696">
        <ele>2247.9</ele>
        <time>2018-12-27T11:01:56Z</time>
      </trkpt>
      <trkpt lat="42.75658" lon="-0.21695">
        <ele>2249.1</ele>
        <time>2018-12-27T11:01:57Z</time>
      </trkpt>
      <trkpt lat="42.75658" lon="-0.21692">
        <ele>2249.8</ele>
        <time>2018-12-27T11:01:57Z</time>
      </trkpt>
      <trkpt lat="42.75659" lon="-0.2169">
        <ele>2251.1</ele>
        <time>2018-12-27T11:01:58Z</time>
      </trkpt>
      <trkpt lat="42.75662" lon="-0.21691">
        <ele>2252.2</ele>
        <time>2018-12-27T11:01:59Z</time>
      </trkpt>
      <trkpt lat="42.75662" lon="-0.21687">
        <ele>2252.8</ele>
        <time>2018-12-27T11:02:00Z</time>
      </trkpt>
      <trkpt lat="42.75662" lon="-0.21685">
        <ele>2253.3</ele>
        <time>2018-12-27T11:02:00Z</time>
      </trkpt>
      <trkpt lat="42.75662" lon="-0.2168">
        <ele>2254.3</ele>
        <time>2018-12-27T11:02:01Z</time>
      </trkpt>
      <trkpt lat="42.75662" lon="-0.21674">
        <ele>2255.6</ele>
        <time>2018-12-27T11:02:02Z</time>
      </trkpt>
      <trkpt lat="42.75662" lon="-0.21669">
        <ele>2256.7</ele>
        <time>2018-12-27T11:02:03Z</time>
      </trkpt>
      <trkpt lat="42.75661" lon="-0.21665">
        <ele>2256.8</ele>
        <time>2018-12-27T11:02:04Z</time>
      </trkpt>
      <trkpt lat="42.7566" lon="-0.21661">
        <ele>2257.4</ele>
        <time>2018-12-27T11:02:05Z</time>
      </trkpt>
      <trkpt lat="42.7566" lon="-0.21658">
        <ele>2257.7</ele>
        <time>2018-12-27T11:02:05Z</time>
      </trkpt>
      <trkpt lat="42.75659" lon="-0.21657">
        <ele>2257.5</ele>
        <time>2018-12-27T11:02:06Z</time>
      </trkpt>
      <trkpt lat="42.75658" lon="-0.21652">
        <ele>2258</ele>
        <time>2018-12-27T11:02:07Z</time>
      </trkpt>
      <trkpt lat="42.75655" lon="-0.21644">
        <ele>2258</ele>
        <time>2018-12-27T11:02:08Z</time>
      </trkpt>
      <trkpt lat="42.75653" lon="-0.21636">
        <ele>2258.7</ele>
        <time>2018-12-27T11:02:10Z</time>
      </trkpt>
      <trkpt lat="42.75654" lon="-0.21633">
        <ele>2259.9</ele>
        <time>2018-12-27T11:02:11Z</time>
      </trkpt>
      <trkpt lat="42.75657" lon="-0.21637">
        <ele>2260.4</ele>
        <time>2018-12-27T11:02:12Z</time>
      </trkpt>
      <trkpt lat="42.75658" lon="-0.21638">
        <ele>2260.6</ele>
        <time>2018-12-27T11:02:12Z</time>
      </trkpt>
      <trkpt lat="42.75661" lon="-0.21643">
        <ele>2261.5</ele>
        <time>2018-12-27T11:02:14Z</time>
      </trkpt>
      <trkpt lat="42.75663" lon="-0.21645">
        <ele>2261.9</ele>
        <time>2018-12-27T11:02:14Z</time>
      </trkpt>
      <trkpt lat="42.75666" lon="-0.21643">
        <ele>2263.7</ele>
        <time>2018-12-27T11:02:15Z</time>
      </trkpt>
      <trkpt lat="42.75663" lon="-0.2164">
        <ele>2263.1</ele>
        <time>2018-12-27T11:02:16Z</time>
      </trkpt>
      <trkpt lat="42.75662" lon="-0.21639">
        <ele>2263</ele>
        <time>2018-12-27T11:02:16Z</time>
      </trkpt>
      <trkpt lat="42.7566" lon="-0.21628">
        <ele>2263.9</ele>
        <time>2018-12-27T11:02:18Z</time>
      </trkpt>
      <trkpt lat="42.7566" lon="-0.21627">
        <ele>2264.1</ele>
        <time>2018-12-27T11:02:19Z</time>
      </trkpt>
      <trkpt lat="42.75659" lon="-0.21622">
        <ele>2264.8</ele>
        <time>2018-12-27T11:02:20Z</time>
      </trkpt>
      <trkpt lat="42.75662" lon="-0.21624">
        <ele>2265.9</ele>
        <time>2018-12-27T11:02:21Z</time>
      </trkpt>
      <trkpt lat="42.75665" lon="-0.2163">
        <ele>2266.3</ele>
        <time>2018-12-27T11:02:22Z</time>
      </trkpt>
      <trkpt lat="42.75668" lon="-0.21635">
        <ele>2266.8</ele>
        <time>2018-12-27T11:02:23Z</time>
      </trkpt>
      <trkpt lat="42.7567" lon="-0.21637">
        <ele>2267.1</ele>
        <time>2018-12-27T11:02:24Z</time>
      </trkpt>
      <trkpt lat="42.75671" lon="-0.21639">
        <ele>2267.2</ele>
        <time>2018-12-27T11:02:24Z</time>
      </trkpt>
      <trkpt lat="42.75672" lon="-0.21637">
        <ele>2268.1</ele>
        <time>2018-12-27T11:02:25Z</time>
      </trkpt>
      <trkpt lat="42.75671" lon="-0.21636">
        <ele>2268.3</ele>
        <time>2018-12-27T11:02:25Z</time>
      </trkpt>
      <trkpt lat="42.7567" lon="-0.21632">
        <ele>2268.3</ele>
        <time>2018-12-27T11:02:26Z</time>
      </trkpt>
      <trkpt lat="42.75666" lon="-0.21622">
        <ele>2268.8</ele>
        <time>2018-12-27T11:02:28Z</time>
      </trkpt>
      <trkpt lat="42.75664" lon="-0.21615">
        <ele>2269.8</ele>
        <time>2018-12-27T11:02:30Z</time>
      </trkpt>
      <trkpt lat="42.7566" lon="-0.21606">
        <ele>2270.8</ele>
        <time>2018-12-27T11:02:32Z</time>
      </trkpt>
      <trkpt lat="42.75654" lon="-0.21594">
        <ele>2272</ele>
        <time>2018-12-27T11:02:35Z</time>
      </trkpt>
      <trkpt lat="42.7565" lon="-0.21589">
        <ele>2272</ele>
        <time>2018-12-27T11:02:36Z</time>
      </trkpt>
      <trkpt lat="42.75649" lon="-0.21587">
        <ele>2272.4</ele>
        <time>2018-12-27T11:02:37Z</time>
      </trkpt>
      <trkpt lat="42.75647" lon="-0.21577">
        <ele>2274.6</ele>
        <time>2018-12-27T11:02:38Z</time>
      </trkpt>
      <trkpt lat="42.75646" lon="-0.21576">
        <ele>2274.8</ele>
        <time>2018-12-27T11:02:39Z</time>
      </trkpt>
      <trkpt lat="42.75643" lon="-0.21569">
        <ele>2275.5</ele>
        <time>2018-12-27T11:02:40Z</time>
      </trkpt>
      <trkpt lat="42.75642" lon="-0.21568">
        <ele>2275.4</ele>
        <time>2018-12-27T11:02:41Z</time>
      </trkpt>
      <trkpt lat="42.75638" lon="-0.21559">
        <ele>2276.3</ele>
        <time>2018-12-27T11:02:43Z</time>
      </trkpt>
      <trkpt lat="42.75632" lon="-0.21553">
        <ele>2276.1</ele>
        <time>2018-12-27T11:02:45Z</time>
      </trkpt>
      <trkpt lat="42.75627" lon="-0.21545">
        <ele>2276.4</ele>
        <time>2018-12-27T11:02:47Z</time>
      </trkpt>
      <trkpt lat="42.75624" lon="-0.21537">
        <ele>2279</ele>
        <time>2018-12-27T11:02:49Z</time>
      </trkpt>
      <trkpt lat="42.75622" lon="-0.21525">
        <ele>2283.5</ele>
        <time>2018-12-27T11:02:51Z</time>
      </trkpt>
      <trkpt lat="42.75621" lon="-0.21522">
        <ele>2284.4</ele>
        <time>2018-12-27T11:02:52Z</time>
      </trkpt>
      <trkpt lat="42.75617" lon="-0.21516">
        <ele>2286.1</ele>
        <time>2018-12-27T11:02:53Z</time>
      </trkpt>
      <trkpt lat="42.75608" lon="-0.21511">
        <ele>2286</ele>
        <time>2018-12-27T11:02:56Z</time>
      </trkpt>
      <trkpt lat="42.75603" lon="-0.2151">
        <ele>2285.3</ele>
        <time>2018-12-27T11:02:57Z</time>
      </trkpt>
      <trkpt lat="42.756" lon="-0.2151">
        <ele>2285</ele>
        <time>2018-12-27T11:02:58Z</time>
      </trkpt>
      <trkpt lat="42.75596" lon="-0.21509">
        <ele>2284.3</ele>
        <time>2018-12-27T11:02:59Z</time>
      </trkpt>
      <trkpt lat="42.75591" lon="-0.21509">
        <ele>2282.7</ele>
        <time>2018-12-27T11:03:00Z</time>
      </trkpt>
      <trkpt lat="42.75581" lon="-0.21512">
        <ele>2278.8</ele>
        <time>2018-12-27T11:03:03Z</time>
      </trkpt>
      <trkpt lat="42.75574" lon="-0.21514">
        <ele>2276</ele>
        <time>2018-12-27T11:03:05Z</time>
      </trkpt>
      <trkpt lat="42.75567" lon="-0.21516">
        <ele>2273.4</ele>
        <time>2018-12-27T11:03:07Z</time>
      </trkpt>
      <trkpt lat="42.75561" lon="-0.21516">
        <ele>2272</ele>
        <time>2018-12-27T11:03:08Z</time>
      </trkpt>
      <trkpt lat="42.75554" lon="-0.21514">
        <ele>2271.1</ele>
        <time>2018-12-27T11:03:11Z</time>
      </trkpt>
      <trkpt lat="42.75548" lon="-0.21511">
        <ele>2271.6</ele>
        <time>2018-12-27T11:03:12Z</time>
      </trkpt>
      <trkpt lat="42.75542" lon="-0.21505">
        <ele>2273.5</ele>
        <time>2018-12-27T11:03:14Z</time>
      </trkpt>
      <trkpt lat="42.7554" lon="-0.21503">
        <ele>2274.7</ele>
        <time>2018-12-27T11:03:15Z</time>
      </trkpt>
      <trkpt lat="42.75541" lon="-0.21502">
        <ele>2275.4</ele>
        <time>2018-12-27T11:03:15Z</time>
      </trkpt>
      <trkpt lat="42.75547" lon="-0.215">
        <ele>2277.5</ele>
        <time>2018-12-27T11:03:17Z</time>
      </trkpt>
      <trkpt lat="42.75549" lon="-0.215">
        <ele>2278.5</ele>
        <time>2018-12-27T11:03:18Z</time>
      </trkpt>
      <trkpt lat="42.75556" lon="-0.21497">
        <ele>2281.7</ele>
        <time>2018-12-27T11:03:20Z</time>
      </trkpt>
      <trkpt lat="42.7556" lon="-0.21495">
        <ele>2283.7</ele>
        <time>2018-12-27T11:03:21Z</time>
      </trkpt>
      <trkpt lat="42.75561" lon="-0.21494">
        <ele>2284.3</ele>
        <time>2018-12-27T11:03:21Z</time>
      </trkpt>
      <trkpt lat="42.75558" lon="-0.21492">
        <ele>2285.1</ele>
        <time>2018-12-27T11:03:22Z</time>
      </trkpt>
      <trkpt lat="42.75552" lon="-0.21488">
        <ele>2285.8</ele>
        <time>2018-12-27T11:03:23Z</time>
      </trkpt>
      <trkpt lat="42.75551" lon="-0.21488">
        <ele>2286</ele>
        <time>2018-12-27T11:03:24Z</time>
      </trkpt>
      <trkpt lat="42.75545" lon="-0.21483">
        <ele>2287.5</ele>
        <time>2018-12-27T11:03:25Z</time>
      </trkpt>
      <trkpt lat="42.75539" lon="-0.21481">
        <ele>2287.8</ele>
        <time>2018-12-27T11:03:27Z</time>
      </trkpt>
      <trkpt lat="42.75532" lon="-0.21478">
        <ele>2288.5</ele>
        <time>2018-12-27T11:03:29Z</time>
      </trkpt>
      <trkpt lat="42.75525" lon="-0.21476">
        <ele>2288.5</ele>
        <time>2018-12-27T11:03:31Z</time>
      </trkpt>
      <trkpt lat="42.75521" lon="-0.21476">
        <ele>2288.2</ele>
        <time>2018-12-27T11:03:32Z</time>
      </trkpt>
      <trkpt lat="42.75512" lon="-0.21473">
        <ele>2288.4</ele>
        <time>2018-12-27T11:03:35Z</time>
      </trkpt>
      <trkpt lat="42.75507" lon="-0.21471">
        <ele>2289.1</ele>
        <time>2018-12-27T11:03:36Z</time>
      </trkpt>
      <trkpt lat="42.75502" lon="-0.21468">
        <ele>2290.4</ele>
        <time>2018-12-27T11:03:37Z</time>
      </trkpt>
      <trkpt lat="42.75501" lon="-0.21467">
        <ele>2290.6</ele>
        <time>2018-12-27T11:03:38Z</time>
      </trkpt>
      <trkpt lat="42.75498" lon="-0.21464">
        <ele>2292.3</ele>
        <time>2018-12-27T11:03:39Z</time>
      </trkpt>
      <trkpt lat="42.75495" lon="-0.21461">
        <ele>2293.9</ele>
        <time>2018-12-27T11:03:40Z</time>
      </trkpt>
      <trkpt lat="42.75494" lon="-0.2146">
        <ele>2294.3</ele>
        <time>2018-12-27T11:03:40Z</time>
      </trkpt>
      <trkpt lat="42.7549" lon="-0.21457">
        <ele>2295.7</ele>
        <time>2018-12-27T11:03:41Z</time>
      </trkpt>
      <trkpt lat="42.75485" lon="-0.21454">
        <ele>2296.6</ele>
        <time>2018-12-27T11:03:43Z</time>
      </trkpt>
      <trkpt lat="42.75482" lon="-0.21451">
        <ele>2297.9</ele>
        <time>2018-12-27T11:03:44Z</time>
      </trkpt>
      <trkpt lat="42.7548" lon="-0.21451">
        <ele>2297.6</ele>
        <time>2018-12-27T11:03:44Z</time>
      </trkpt>
      <trkpt lat="42.75477" lon="-0.2145">
        <ele>2298.3</ele>
        <time>2018-12-27T11:03:45Z</time>
      </trkpt>
      <trkpt lat="42.75476" lon="-0.21449">
        <ele>2298.6</ele>
        <time>2018-12-27T11:03:45Z</time>
      </trkpt>
      <trkpt lat="42.75475" lon="-0.21448">
        <ele>2298.8</ele>
        <time>2018-12-27T11:03:46Z</time>
      </trkpt>
      <trkpt lat="42.75471" lon="-0.21447">
        <ele>2299.3</ele>
        <time>2018-12-27T11:03:47Z</time>
      </trkpt>
      <trkpt lat="42.75468" lon="-0.21444">
        <ele>2300.6</ele>
        <time>2018-12-27T11:03:48Z</time>
      </trkpt>
      <trkpt lat="42.75467" lon="-0.21444">
        <ele>2300.6</ele>
        <time>2018-12-27T11:03:48Z</time>
      </trkpt>
      <trkpt lat="42.75462" lon="-0.21441">
        <ele>2301.8</ele>
        <time>2018-12-27T11:03:50Z</time>
      </trkpt>
      <trkpt lat="42.75456" lon="-0.21438">
        <ele>2303.6</ele>
        <time>2018-12-27T11:03:51Z</time>
      </trkpt>
      <trkpt lat="42.75454" lon="-0.21437">
        <ele>2304.6</ele>
        <time>2018-12-27T11:03:52Z</time>
      </trkpt>
      <trkpt lat="42.75451" lon="-0.21434">
        <ele>2306.3</ele>
        <time>2018-12-27T11:03:53Z</time>
      </trkpt>
      <trkpt lat="42.75446" lon="-0.21431">
        <ele>2308.6</ele>
        <time>2018-12-27T11:03:54Z</time>
      </trkpt>
      <trkpt lat="42.7544" lon="-0.21426">
        <ele>2311.5</ele>
        <time>2018-12-27T11:03:56Z</time>
      </trkpt>
      <trkpt lat="42.75435" lon="-0.21422">
        <ele>2314.3</ele>
        <time>2018-12-27T11:03:58Z</time>
      </trkpt>
      <trkpt lat="42.7543" lon="-0.21417">
        <ele>2317</ele>
        <time>2018-12-27T11:03:59Z</time>
      </trkpt>
      <trkpt lat="42.75429" lon="-0.21415">
        <ele>2318</ele>
        <time>2018-12-27T11:04:00Z</time>
      </trkpt>
      <trkpt lat="42.75424" lon="-0.21413">
        <ele>2319.1</ele>
        <time>2018-12-27T11:04:01Z</time>
      </trkpt>
      <trkpt lat="42.75422" lon="-0.21411">
        <ele>2320.2</ele>
        <time>2018-12-27T11:04:02Z</time>
      </trkpt>
      <trkpt lat="42.75419" lon="-0.21409">
        <ele>2321.3</ele>
        <time>2018-12-27T11:04:03Z</time>
      </trkpt>
      <trkpt lat="42.75413" lon="-0.21405">
        <ele>2323.2</ele>
        <time>2018-12-27T11:04:04Z</time>
      </trkpt>
      <trkpt lat="42.75407" lon="-0.21401">
        <ele>2325.2</ele>
        <time>2018-12-27T11:04:06Z</time>
      </trkpt>
      <trkpt lat="42.75402" lon="-0.21397">
        <ele>2327</ele>
        <time>2018-12-27T11:04:08Z</time>
      </trkpt>
      <trkpt lat="42.75395" lon="-0.21393">
        <ele>2328.7</ele>
        <time>2018-12-27T11:04:10Z</time>
      </trkpt>
      <trkpt lat="42.75388" lon="-0.21388">
        <ele>2330.6</ele>
        <time>2018-12-27T11:04:12Z</time>
      </trkpt>
      <trkpt lat="42.75383" lon="-0.21384">
        <ele>2332.5</ele>
        <time>2018-12-27T11:04:14Z</time>
      </trkpt>
      <trkpt lat="42.75375" lon="-0.21378">
        <ele>2334.6</ele>
        <time>2018-12-27T11:04:16Z</time>
      </trkpt>
      <trkpt lat="42.75377" lon="-0.21377">
        <ele>2335.3</ele>
        <time>2018-12-27T11:04:16Z</time>
      </trkpt>
      <trkpt lat="42.75378" lon="-0.21375">
        <ele>2336.5</ele>
        <time>2018-12-27T11:04:17Z</time>
      </trkpt>
      <trkpt lat="42.75376" lon="-0.21372">
        <ele>2337.4</ele>
        <time>2018-12-27T11:04:18Z</time>
      </trkpt>
      <trkpt lat="42.75371" lon="-0.21367">
        <ele>2338.3</ele>
        <time>2018-12-27T11:04:19Z</time>
      </trkpt>
      <trkpt lat="42.75363" lon="-0.21358">
        <ele>2340</ele>
        <time>2018-12-27T11:04:22Z</time>
      </trkpt>
      <trkpt lat="42.75357" lon="-0.2135">
        <ele>2341.6</ele>
        <time>2018-12-27T11:04:24Z</time>
      </trkpt>
      <trkpt lat="42.75353" lon="-0.21346">
        <ele>2342.3</ele>
        <time>2018-12-27T11:04:26Z</time>
      </trkpt>
      <trkpt lat="42.75348" lon="-0.21343">
        <ele>2342.2</ele>
        <time>2018-12-27T11:04:27Z</time>
      </trkpt>
      <trkpt lat="42.75347" lon="-0.21343">
        <ele>2342</ele>
        <time>2018-12-27T11:04:27Z</time>
      </trkpt>
      <trkpt lat="42.75346" lon="-0.2134">
        <ele>2343</ele>
        <time>2018-12-27T11:04:28Z</time>
      </trkpt>
      <trkpt lat="42.75342" lon="-0.2134">
        <ele>2342</ele>
        <time>2018-12-27T11:04:29Z</time>
      </trkpt>
      <trkpt lat="42.75338" lon="-0.2134">
        <ele>2341.3</ele>
        <time>2018-12-27T11:04:30Z</time>
      </trkpt>
      <trkpt lat="42.75338" lon="-0.2134">
        <ele>2341.1</ele>
        <time>2018-12-27T11:04:30Z</time>
      </trkpt>
      <trkpt lat="42.75332" lon="-0.21337">
        <ele>2340.6</ele>
        <time>2018-12-27T11:04:32Z</time>
      </trkpt>
      <trkpt lat="42.75335" lon="-0.21333">
        <ele>2343</ele>
        <time>2018-12-27T11:04:33Z</time>
      </trkpt>
      <trkpt lat="42.75337" lon="-0.21331">
        <ele>2344.3</ele>
        <time>2018-12-27T11:04:34Z</time>
      </trkpt>
      <trkpt lat="42.7534" lon="-0.21327">
        <ele>2346.6</ele>
        <time>2018-12-27T11:04:35Z</time>
      </trkpt>
      <trkpt lat="42.7534" lon="-0.21323">
        <ele>2348.6</ele>
        <time>2018-12-27T11:04:36Z</time>
      </trkpt>
      <trkpt lat="42.75338" lon="-0.21322">
        <ele>2348.2</ele>
        <time>2018-12-27T11:04:36Z</time>
      </trkpt>
      <trkpt lat="42.75334" lon="-0.21322">
        <ele>2347.3</ele>
        <time>2018-12-27T11:04:38Z</time>
      </trkpt>
      <trkpt lat="42.75329" lon="-0.21317">
        <ele>2347.8</ele>
        <time>2018-12-27T11:04:39Z</time>
      </trkpt>
      <trkpt lat="42.75329" lon="-0.21316">
        <ele>2348.3</ele>
        <time>2018-12-27T11:04:39Z</time>
      </trkpt>
      <trkpt lat="42.75329" lon="-0.21312">
        <ele>2350</ele>
        <time>2018-12-27T11:04:40Z</time>
      </trkpt>
      <trkpt lat="42.75327" lon="-0.21305">
        <ele>2352.1</ele>
        <time>2018-12-27T11:04:42Z</time>
      </trkpt>
      <trkpt lat="42.75326" lon="-0.21303">
        <ele>2352.7</ele>
        <time>2018-12-27T11:04:42Z</time>
      </trkpt>
      <trkpt lat="42.75321" lon="-0.21298">
        <ele>2353.3</ele>
        <time>2018-12-27T11:04:44Z</time>
      </trkpt>
      <trkpt lat="42.75316" lon="-0.21294">
        <ele>2353.4</ele>
        <time>2018-12-27T11:04:45Z</time>
      </trkpt>
      <trkpt lat="42.75315" lon="-0.21294">
        <ele>2353.3</ele>
        <time>2018-12-27T11:04:45Z</time>
      </trkpt>
      <trkpt lat="42.75312" lon="-0.21291">
        <ele>2353.7</ele>
        <time>2018-12-27T11:04:47Z</time>
      </trkpt>
      <trkpt lat="42.75307" lon="-0.21287">
        <ele>2353.6</ele>
        <time>2018-12-27T11:04:48Z</time>
      </trkpt>
      <trkpt lat="42.75305" lon="-0.21286">
        <ele>2353.6</ele>
        <time>2018-12-27T11:04:49Z</time>
      </trkpt>
      <trkpt lat="42.75299" lon="-0.21283">
        <ele>2353.3</ele>
        <time>2018-12-27T11:04:50Z</time>
      </trkpt>
      <trkpt lat="42.75289" lon="-0.21277">
        <ele>2352</ele>
        <time>2018-12-27T11:04:53Z</time>
      </trkpt>
      <trkpt lat="42.75279" lon="-0.21274">
        <ele>2347.9</ele>
        <time>2018-12-27T11:04:56Z</time>
      </trkpt>
      <trkpt lat="42.75274" lon="-0.21269">
        <ele>2348</ele>
        <time>2018-12-27T11:04:58Z</time>
      </trkpt>
      <trkpt lat="42.75271" lon="-0.21263">
        <ele>2349</ele>
        <time>2018-12-27T11:04:59Z</time>
      </trkpt>
      <trkpt lat="42.75271" lon="-0.21261">
        <ele>2349.6</ele>
        <time>2018-12-27T11:04:59Z</time>
      </trkpt>
      <trkpt lat="42.7527" lon="-0.21256">
        <ele>2351.6</ele>
        <time>2018-12-27T11:05:01Z</time>
      </trkpt>
      <trkpt lat="42.75272" lon="-0.2125">
        <ele>2354.8</ele>
        <time>2018-12-27T11:05:02Z</time>
      </trkpt>
      <trkpt lat="42.75271" lon="-0.21247">
        <ele>2355.6</ele>
        <time>2018-12-27T11:05:02Z</time>
      </trkpt>
      <trkpt lat="42.75272" lon="-0.21238">
        <ele>2359.8</ele>
        <time>2018-12-27T11:05:04Z</time>
      </trkpt>
      <trkpt lat="42.75277" lon="-0.21223">
        <ele>2367.9</ele>
        <time>2018-12-27T11:05:07Z</time>
      </trkpt>
      <trkpt lat="42.7528" lon="-0.21211">
        <ele>2374</ele>
        <time>2018-12-27T11:05:10Z</time>
      </trkpt>
      <trkpt lat="42.75287" lon="-0.21203">
        <ele>2377.5</ele>
        <time>2018-12-27T11:05:12Z</time>
      </trkpt>
      <trkpt lat="42.75304" lon="-0.21203">
        <ele>2381</ele>
        <time>2018-12-27T11:05:17Z</time>
      </trkpt>
      <trkpt lat="42.75318" lon="-0.21201">
        <ele>2383.4</ele>
        <time>2018-12-27T11:05:21Z</time>
      </trkpt>
      <trkpt lat="42.75329" lon="-0.21197">
        <ele>2385.1</ele>
        <time>2018-12-27T11:05:24Z</time>
      </trkpt>
      <trkpt lat="42.7534" lon="-0.21188">
        <ele>2386.3</ele>
        <time>2018-12-27T11:05:27Z</time>
      </trkpt>
      <trkpt lat="42.75346" lon="-0.21175">
        <ele>2386.7</ele>
        <time>2018-12-27T11:05:30Z</time>
      </trkpt>
      <trkpt lat="42.75349" lon="-0.21168">
        <ele>2386.7</ele>
        <time>2018-12-27T11:05:32Z</time>
      </trkpt>
      <trkpt lat="42.7535" lon="-0.21166">
        <ele>2386.8</ele>
        <time>2018-12-27T11:05:32Z</time>
      </trkpt>
      <trkpt lat="42.7536" lon="-0.21157">
        <ele>2387.6</ele>
        <time>2018-12-27T11:05:35Z</time>
      </trkpt>
      <trkpt lat="42.75374" lon="-0.21148">
        <ele>2388.6</ele>
        <time>2018-12-27T11:05:39Z</time>
      </trkpt>
      <trkpt lat="42.75384" lon="-0.21135">
        <ele>2391.6</ele>
        <time>2018-12-27T11:05:43Z</time>
      </trkpt>
      <trkpt lat="42.7539" lon="-0.21125">
        <ele>2394</ele>
        <time>2018-12-27T11:05:46Z</time>
      </trkpt>
      <trkpt lat="42.75395" lon="-0.21112">
        <ele>2394.3</ele>
        <time>2018-12-27T11:05:49Z</time>
      </trkpt>
      <trkpt lat="42.75395" lon="-0.21107">
        <ele>2393.6</ele>
        <time>2018-12-27T11:05:50Z</time>
      </trkpt>
      <trkpt lat="42.75396" lon="-0.21099">
        <ele>2393</ele>
        <time>2018-12-27T11:05:51Z</time>
      </trkpt>
      <trkpt lat="42.75394" lon="-0.21083">
        <ele>2389.9</ele>
        <time>2018-12-27T11:05:54Z</time>
      </trkpt>
      <trkpt lat="42.75392" lon="-0.21068">
        <ele>2387.1</ele>
        <time>2018-12-27T11:05:57Z</time>
      </trkpt>
      <trkpt lat="42.75387" lon="-0.21056">
        <ele>2383.1</ele>
        <time>2018-12-27T11:06:00Z</time>
      </trkpt>
      <trkpt lat="42.75381" lon="-0.21047">
        <ele>2378.4</ele>
        <time>2018-12-27T11:06:03Z</time>
      </trkpt>
      <trkpt lat="42.75377" lon="-0.21031">
        <ele>2376.7</ele>
        <time>2018-12-27T11:06:06Z</time>
      </trkpt>
      <trkpt lat="42.75375" lon="-0.21013">
        <ele>2377.4</ele>
        <time>2018-12-27T11:06:09Z</time>
      </trkpt>
      <trkpt lat="42.75376" lon="-0.21002">
        <ele>2378.8</ele>
        <time>2018-12-27T11:06:11Z</time>
      </trkpt>
      <trkpt lat="42.75371" lon="-0.20993">
        <ele>2378.9</ele>
        <time>2018-12-27T11:06:14Z</time>
      </trkpt>
      <trkpt lat="42.7537" lon="-0.20986">
        <ele>2379.4</ele>
        <time>2018-12-27T11:06:15Z</time>
      </trkpt>
      <trkpt lat="42.75366" lon="-0.2098">
        <ele>2379.7</ele>
        <time>2018-12-27T11:06:16Z</time>
      </trkpt>
      <trkpt lat="42.75366" lon="-0.20977">
        <ele>2380</ele>
        <time>2018-12-27T11:06:17Z</time>
      </trkpt>
      <trkpt lat="42.75366" lon="-0.2097">
        <ele>2380.4</ele>
        <time>2018-12-27T11:06:18Z</time>
      </trkpt>
      <trkpt lat="42.75361" lon="-0.2096">
        <ele>2380.7</ele>
        <time>2018-12-27T11:06:21Z</time>
      </trkpt>
      <trkpt lat="42.75359" lon="-0.20954">
        <ele>2381.5</ele>
        <time>2018-12-27T11:06:22Z</time>
      </trkpt>
      <trkpt lat="42.75358" lon="-0.20943">
        <ele>2383</ele>
        <time>2018-12-27T11:06:24Z</time>
      </trkpt>
      <trkpt lat="42.75357" lon="-0.20934">
        <ele>2384.3</ele>
        <time>2018-12-27T11:06:26Z</time>
      </trkpt>
      <trkpt lat="42.75356" lon="-0.20922">
        <ele>2385.7</ele>
        <time>2018-12-27T11:06:28Z</time>
      </trkpt>
      <trkpt lat="42.75356" lon="-0.20918">
        <ele>2386.5</ele>
        <time>2018-12-27T11:06:29Z</time>
      </trkpt>
      <trkpt lat="42.75355" lon="-0.20908">
        <ele>2387.7</ele>
        <time>2018-12-27T11:06:31Z</time>
      </trkpt>
      <trkpt lat="42.75355" lon="-0.20903">
        <ele>2388.6</ele>
        <time>2018-12-27T11:06:32Z</time>
      </trkpt>
      <trkpt lat="42.75356" lon="-0.20901">
        <ele>2388.9</ele>
        <time>2018-12-27T11:06:33Z</time>
      </trkpt>
      <trkpt lat="42.75356" lon="-0.20897">
        <ele>2389.7</ele>
        <time>2018-12-27T11:06:33Z</time>
      </trkpt>
      <trkpt lat="42.75355" lon="-0.20894">
        <ele>2389.8</ele>
        <time>2018-12-27T11:06:34Z</time>
      </trkpt>
      <trkpt lat="42.75354" lon="-0.20888">
        <ele>2390.3</ele>
        <time>2018-12-27T11:06:35Z</time>
      </trkpt>
      <trkpt lat="42.75353" lon="-0.20887">
        <ele>2390.4</ele>
        <time>2018-12-27T11:06:36Z</time>
      </trkpt>
      <trkpt lat="42.75352" lon="-0.20884">
        <ele>2390.5</ele>
        <time>2018-12-27T11:06:36Z</time>
      </trkpt>
      <trkpt lat="42.75353" lon="-0.2088">
        <ele>2391.1</ele>
        <time>2018-12-27T11:06:37Z</time>
      </trkpt>
      <trkpt lat="42.75352" lon="-0.20878">
        <ele>2391.3</ele>
        <time>2018-12-27T11:06:37Z</time>
      </trkpt>
      <trkpt lat="42.75352" lon="-0.20874">
        <ele>2391.7</ele>
        <time>2018-12-27T11:06:38Z</time>
      </trkpt>
      <trkpt lat="42.75355" lon="-0.20868">
        <ele>2393.1</ele>
        <time>2018-12-27T11:06:40Z</time>
      </trkpt>
      <trkpt lat="42.75357" lon="-0.20864">
        <ele>2394.3</ele>
        <time>2018-12-27T11:06:41Z</time>
      </trkpt>
      <trkpt lat="42.75358" lon="-0.20862">
        <ele>2394.8</ele>
        <time>2018-12-27T11:06:41Z</time>
      </trkpt>
      <trkpt lat="42.7536" lon="-0.20857">
        <ele>2395.6</ele>
        <time>2018-12-27T11:06:42Z</time>
      </trkpt>
      <trkpt lat="42.75361" lon="-0.20857">
        <ele>2396</ele>
        <time>2018-12-27T11:06:42Z</time>
      </trkpt>
      <trkpt lat="42.7536" lon="-0.20853">
        <ele>2396.2</ele>
        <time>2018-12-27T11:06:43Z</time>
      </trkpt>
      <trkpt lat="42.75359" lon="-0.20848">
        <ele>2396.3</ele>
        <time>2018-12-27T11:06:44Z</time>
      </trkpt>
      <trkpt lat="42.75357" lon="-0.20842">
        <ele>2396.2</ele>
        <time>2018-12-27T11:06:45Z</time>
      </trkpt>
      <trkpt lat="42.75356" lon="-0.20836">
        <ele>2396.5</ele>
        <time>2018-12-27T11:06:47Z</time>
      </trkpt>
      <trkpt lat="42.75356" lon="-0.2083">
        <ele>2397.1</ele>
        <time>2018-12-27T11:06:48Z</time>
      </trkpt>
      <trkpt lat="42.75357" lon="-0.20826">
        <ele>2397.8</ele>
        <time>2018-12-27T11:06:49Z</time>
      </trkpt>
      <trkpt lat="42.75359" lon="-0.20822">
        <ele>2398.6</ele>
        <time>2018-12-27T11:06:50Z</time>
      </trkpt>
      <trkpt lat="42.75358" lon="-0.20818">
        <ele>2398.7</ele>
        <time>2018-12-27T11:06:50Z</time>
      </trkpt>
      <trkpt lat="42.75358" lon="-0.20816">
        <ele>2399</ele>
        <time>2018-12-27T11:06:51Z</time>
      </trkpt>
      <trkpt lat="42.75357" lon="-0.20812">
        <ele>2399.4</ele>
        <time>2018-12-27T11:06:52Z</time>
      </trkpt>
      <trkpt lat="42.75358" lon="-0.20806">
        <ele>2400</ele>
        <time>2018-12-27T11:06:53Z</time>
      </trkpt>
      <trkpt lat="42.75359" lon="-0.20801">
        <ele>2400.8</ele>
        <time>2018-12-27T11:06:54Z</time>
      </trkpt>
      <trkpt lat="42.75359" lon="-0.20795">
        <ele>2401.5</ele>
        <time>2018-12-27T11:06:55Z</time>
      </trkpt>
      <trkpt lat="42.75358" lon="-0.20791">
        <ele>2401.7</ele>
        <time>2018-12-27T11:06:56Z</time>
      </trkpt>
      <trkpt lat="42.75359" lon="-0.20787">
        <ele>2402.7</ele>
        <time>2018-12-27T11:06:57Z</time>
      </trkpt>
      <trkpt lat="42.75359" lon="-0.20791">
        <ele>2402.1</ele>
        <time>2018-12-27T11:06:58Z</time>
      </trkpt>
      <trkpt lat="42.7536" lon="-0.20798">
        <ele>2401.8</ele>
        <time>2018-12-27T11:06:59Z</time>
      </trkpt>
      <trkpt lat="42.75363" lon="-0.20802">
        <ele>2402.1</ele>
        <time>2018-12-27T11:07:00Z</time>
      </trkpt>
      <trkpt lat="42.75365" lon="-0.20808">
        <ele>2402.3</ele>
        <time>2018-12-27T11:07:01Z</time>
      </trkpt>
      <trkpt lat="42.75369" lon="-0.20816">
        <ele>2403</ele>
        <time>2018-12-27T11:07:03Z</time>
      </trkpt>
      <trkpt lat="42.75371" lon="-0.20822">
        <ele>2403</ele>
        <time>2018-12-27T11:07:04Z</time>
      </trkpt>
      <trkpt lat="42.75372" lon="-0.20827">
        <ele>2402.9</ele>
        <time>2018-12-27T11:07:05Z</time>
      </trkpt>
      <trkpt lat="42.75375" lon="-0.20831">
        <ele>2403.2</ele>
        <time>2018-12-27T11:07:06Z</time>
      </trkpt>
      <trkpt lat="42.75376" lon="-0.20828">
        <ele>2404.3</ele>
        <time>2018-12-27T11:07:07Z</time>
      </trkpt>
      <trkpt lat="42.75378" lon="-0.2082">
        <ele>2406.6</ele>
        <time>2018-12-27T11:07:09Z</time>
      </trkpt>
      <trkpt lat="42.7538" lon="-0.20816">
        <ele>2408.3</ele>
        <time>2018-12-27T11:07:10Z</time>
      </trkpt>
      <trkpt lat="42.75378" lon="-0.20807">
        <ele>2408.2</ele>
        <time>2018-12-27T11:07:12Z</time>
      </trkpt>
      <trkpt lat="42.75378" lon="-0.20804">
        <ele>2408.2</ele>
        <time>2018-12-27T11:07:12Z</time>
      </trkpt>
      <trkpt lat="42.75376" lon="-0.20797">
        <ele>2408.2</ele>
        <time>2018-12-27T11:07:13Z</time>
      </trkpt>
      <trkpt lat="42.75375" lon="-0.2079">
        <ele>2408.2</ele>
        <time>2018-12-27T11:07:15Z</time>
      </trkpt>
      <trkpt lat="42.75376" lon="-0.20783">
        <ele>2410.2</ele>
        <time>2018-12-27T11:07:16Z</time>
      </trkpt>
      <trkpt lat="42.75377" lon="-0.20778">
        <ele>2411.7</ele>
        <time>2018-12-27T11:07:17Z</time>
      </trkpt>
      <trkpt lat="42.75379" lon="-0.20777">
        <ele>2413.2</ele>
        <time>2018-12-27T11:07:18Z</time>
      </trkpt>
      <trkpt lat="42.75381" lon="-0.20775">
        <ele>2415.1</ele>
        <time>2018-12-27T11:07:19Z</time>
      </trkpt>
      <trkpt lat="42.75382" lon="-0.20772">
        <ele>2416</ele>
        <time>2018-12-27T11:07:19Z</time>
      </trkpt>
      <trkpt lat="42.75383" lon="-0.20773">
        <ele>2416.6</ele>
        <time>2018-12-27T11:07:20Z</time>
      </trkpt>
      <trkpt lat="42.75383" lon="-0.20775">
        <ele>2416.3</ele>
        <time>2018-12-27T11:07:20Z</time>
      </trkpt>
      <trkpt lat="42.75384" lon="-0.20778">
        <ele>2416.5</ele>
        <time>2018-12-27T11:07:21Z</time>
      </trkpt>
      <trkpt lat="42.75386" lon="-0.20775">
        <ele>2418.5</ele>
        <time>2018-12-27T11:07:21Z</time>
      </trkpt>
      <trkpt lat="42.75387" lon="-0.20782">
        <ele>2417.7</ele>
        <time>2018-12-27T11:07:23Z</time>
      </trkpt>
      <trkpt lat="42.75389" lon="-0.20782">
        <ele>2418.6</ele>
        <time>2018-12-27T11:07:23Z</time>
      </trkpt>
      <trkpt lat="42.7539" lon="-0.20781">
        <ele>2420.1</ele>
        <time>2018-12-27T11:07:24Z</time>
      </trkpt>
      <trkpt lat="42.75394" lon="-0.20776">
        <ele>2423.4</ele>
        <time>2018-12-27T11:07:25Z</time>
      </trkpt>
      <trkpt lat="42.75398" lon="-0.20773">
        <ele>2426.2</ele>
        <time>2018-12-27T11:07:26Z</time>
      </trkpt>
      <trkpt lat="42.75398" lon="-0.20777">
        <ele>2426</ele>
        <time>2018-12-27T11:07:27Z</time>
      </trkpt>
      <trkpt lat="42.75399" lon="-0.20781">
        <ele>2425.7</ele>
        <time>2018-12-27T11:07:28Z</time>
      </trkpt>
      <trkpt lat="42.754" lon="-0.20781">
        <ele>2426.2</ele>
        <time>2018-12-27T11:07:28Z</time>
      </trkpt>
      <trkpt lat="42.75401" lon="-0.2078">
        <ele>2427.2</ele>
        <time>2018-12-27T11:07:28Z</time>
      </trkpt>
      <trkpt lat="42.75404" lon="-0.20777">
        <ele>2429.5</ele>
        <time>2018-12-27T11:07:29Z</time>
      </trkpt>
      <trkpt lat="42.75406" lon="-0.20778">
        <ele>2430.7</ele>
        <time>2018-12-27T11:07:30Z</time>
      </trkpt>
      <trkpt lat="42.75409" lon="-0.20776">
        <ele>2432.9</ele>
        <time>2018-12-27T11:07:31Z</time>
      </trkpt>
      <trkpt lat="42.7541" lon="-0.20777">
        <ele>2434</ele>
        <time>2018-12-27T11:07:31Z</time>
      </trkpt>
      <trkpt lat="42.75413" lon="-0.20778">
        <ele>2435.5</ele>
        <time>2018-12-27T11:07:32Z</time>
      </trkpt>
      <trkpt lat="42.75415" lon="-0.20775">
        <ele>2436.8</ele>
        <time>2018-12-27T11:07:32Z</time>
      </trkpt>
      <trkpt lat="42.75417" lon="-0.20778">
        <ele>2438.2</ele>
        <time>2018-12-27T11:07:33Z</time>
      </trkpt>
      <trkpt lat="42.75417" lon="-0.20779">
        <ele>2438</ele>
        <time>2018-12-27T11:07:33Z</time>
      </trkpt>
      <trkpt lat="42.75419" lon="-0.20786">
        <ele>2437.9</ele>
        <time>2018-12-27T11:07:35Z</time>
      </trkpt>
      <trkpt lat="42.75418" lon="-0.20793">
        <ele>2436.2</ele>
        <time>2018-12-27T11:07:36Z</time>
      </trkpt>
      <trkpt lat="42.75416" lon="-0.208">
        <ele>2434</ele>
        <time>2018-12-27T11:07:38Z</time>
      </trkpt>
      <trkpt lat="42.75416" lon="-0.20801">
        <ele>2433.6</ele>
        <time>2018-12-27T11:07:38Z</time>
      </trkpt>
      <trkpt lat="42.75416" lon="-0.20803">
        <ele>2433.5</ele>
        <time>2018-12-27T11:07:38Z</time>
      </trkpt>
      <trkpt lat="42.75419" lon="-0.20804">
        <ele>2435.1</ele>
        <time>2018-12-27T11:07:39Z</time>
      </trkpt>
      <trkpt lat="42.75421" lon="-0.20803">
        <ele>2436.6</ele>
        <time>2018-12-27T11:07:40Z</time>
      </trkpt>
      <trkpt lat="42.75423" lon="-0.20804">
        <ele>2437.8</ele>
        <time>2018-12-27T11:07:40Z</time>
      </trkpt>
      <trkpt lat="42.75425" lon="-0.20805">
        <ele>2439.4</ele>
        <time>2018-12-27T11:07:41Z</time>
      </trkpt>
      <trkpt lat="42.75426" lon="-0.20806">
        <ele>2439.9</ele>
        <time>2018-12-27T11:07:41Z</time>
      </trkpt>
      <trkpt lat="42.75431" lon="-0.20806">
        <ele>2443.1</ele>
        <time>2018-12-27T11:07:43Z</time>
      </trkpt>
      <trkpt lat="42.75444" lon="-0.20807">
        <ele>2451.2</ele>
        <time>2018-12-27T11:07:46Z</time>
      </trkpt>
      <trkpt lat="42.75445" lon="-0.20808">
        <ele>2451.8</ele>
        <time>2018-12-27T11:07:46Z</time>
      </trkpt>
      <trkpt lat="42.75446" lon="-0.20812">
        <ele>2451.7</ele>
        <time>2018-12-27T11:07:47Z</time>
      </trkpt>
      <trkpt lat="42.75448" lon="-0.20818">
        <ele>2452</ele>
        <time>2018-12-27T11:07:49Z</time>
      </trkpt>
      <trkpt lat="42.75448" lon="-0.20821">
        <ele>2451.7</ele>
        <time>2018-12-27T11:07:49Z</time>
      </trkpt>
      <trkpt lat="42.75448" lon="-0.20826">
        <ele>2450.8</ele>
        <time>2018-12-27T11:07:50Z</time>
      </trkpt>
      <trkpt lat="42.75447" lon="-0.2083">
        <ele>2450.1</ele>
        <time>2018-12-27T11:07:51Z</time>
      </trkpt>
      <trkpt lat="42.75448" lon="-0.20832">
        <ele>2449.8</ele>
        <time>2018-12-27T11:07:51Z</time>
      </trkpt>
      <trkpt lat="42.75448" lon="-0.20833">
        <ele>2450</ele>
        <time>2018-12-27T11:07:51Z</time>
      </trkpt>
      <trkpt lat="42.75449" lon="-0.20835">
        <ele>2450.2</ele>
        <time>2018-12-27T11:07:52Z</time>
      </trkpt>
      <trkpt lat="42.75451" lon="-0.20841">
        <ele>2450.9</ele>
        <time>2018-12-27T11:07:53Z</time>
      </trkpt>
      <trkpt lat="42.75455" lon="-0.20837">
        <ele>2454</ele>
        <time>2018-12-27T11:07:54Z</time>
      </trkpt>
      <trkpt lat="42.75457" lon="-0.20835">
        <ele>2455.6</ele>
        <time>2018-12-27T11:07:55Z</time>
      </trkpt>
      <trkpt lat="42.75459" lon="-0.20835">
        <ele>2456.5</ele>
        <time>2018-12-27T11:07:56Z</time>
      </trkpt>
      <trkpt lat="42.75462" lon="-0.20836">
        <ele>2457.4</ele>
        <time>2018-12-27T11:07:56Z</time>
      </trkpt>
      <trkpt lat="42.75465" lon="-0.20833">
        <ele>2459.1</ele>
        <time>2018-12-27T11:07:57Z</time>
      </trkpt>
      <trkpt lat="42.75468" lon="-0.20831">
        <ele>2461</ele>
        <time>2018-12-27T11:07:58Z</time>
      </trkpt>
      <trkpt lat="42.75469" lon="-0.20831">
        <ele>2461.4</ele>
        <time>2018-12-27T11:07:59Z</time>
      </trkpt>
      <trkpt lat="42.75473" lon="-0.20832">
        <ele>2463.1</ele>
        <time>2018-12-27T11:08:00Z</time>
      </trkpt>
      <trkpt lat="42.75474" lon="-0.20831">
        <ele>2463.5</ele>
        <time>2018-12-27T11:08:00Z</time>
      </trkpt>
      <trkpt lat="42.7548" lon="-0.2083">
        <ele>2466</ele>
        <time>2018-12-27T11:08:02Z</time>
      </trkpt>
      <trkpt lat="42.75482" lon="-0.20829">
        <ele>2467.1</ele>
        <time>2018-12-27T11:08:02Z</time>
      </trkpt>
      <trkpt lat="42.75484" lon="-0.20826">
        <ele>2468.3</ele>
        <time>2018-12-27T11:08:03Z</time>
      </trkpt>
      <trkpt lat="42.75485" lon="-0.20822">
        <ele>2468.9</ele>
        <time>2018-12-27T11:08:04Z</time>
      </trkpt>
      <trkpt lat="42.75485" lon="-0.20819">
        <ele>2469.5</ele>
        <time>2018-12-27T11:08:04Z</time>
      </trkpt>
      <trkpt lat="42.75486" lon="-0.20815">
        <ele>2470.4</ele>
        <time>2018-12-27T11:08:05Z</time>
      </trkpt>
      <trkpt lat="42.75488" lon="-0.20812">
        <ele>2471.7</ele>
        <time>2018-12-27T11:08:06Z</time>
      </trkpt>
      <trkpt lat="42.7549" lon="-0.20808">
        <ele>2472.8</ele>
        <time>2018-12-27T11:08:07Z</time>
      </trkpt>
      <trkpt lat="42.75492" lon="-0.208">
        <ele>2474.3</ele>
        <time>2018-12-27T11:08:08Z</time>
      </trkpt>
      <trkpt lat="42.75493" lon="-0.20791">
        <ele>2475.5</ele>
        <time>2018-12-27T11:08:10Z</time>
      </trkpt>
      <trkpt lat="42.75495" lon="-0.20783">
        <ele>2477.1</ele>
        <time>2018-12-27T11:08:12Z</time>
      </trkpt>
      <trkpt lat="42.75494" lon="-0.20777">
        <ele>2477.9</ele>
        <time>2018-12-27T11:08:13Z</time>
      </trkpt>
      <trkpt lat="42.75495" lon="-0.20776">
        <ele>2478.2</ele>
        <time>2018-12-27T11:08:13Z</time>
      </trkpt>
      <trkpt lat="42.75498" lon="-0.20769">
        <ele>2480.1</ele>
        <time>2018-12-27T11:08:15Z</time>
      </trkpt>
      <trkpt lat="42.75499" lon="-0.20766">
        <ele>2480.9</ele>
        <time>2018-12-27T11:08:16Z</time>
      </trkpt>
      <trkpt lat="42.75503" lon="-0.20762">
        <ele>2482.8</ele>
        <time>2018-12-27T11:08:17Z</time>
      </trkpt>
      <trkpt lat="42.7551" lon="-0.20748">
        <ele>2486.6</ele>
        <time>2018-12-27T11:08:20Z</time>
      </trkpt>
      <trkpt lat="42.75514" lon="-0.20734">
        <ele>2489.9</ele>
        <time>2018-12-27T11:08:23Z</time>
      </trkpt>
      <trkpt lat="42.75518" lon="-0.20723">
        <ele>2492.2</ele>
        <time>2018-12-27T11:08:25Z</time>
      </trkpt>
      <trkpt lat="42.75523" lon="-0.2072">
        <ele>2494</ele>
        <time>2018-12-27T11:08:27Z</time>
      </trkpt>
      <trkpt lat="42.75525" lon="-0.20717">
        <ele>2495.2</ele>
        <time>2018-12-27T11:08:28Z</time>
      </trkpt>
      <trkpt lat="42.75527" lon="-0.20716">
        <ele>2495.8</ele>
        <time>2018-12-27T11:08:28Z</time>
      </trkpt>
      <trkpt lat="42.75529" lon="-0.20712">
        <ele>2497</ele>
        <time>2018-12-27T11:08:29Z</time>
      </trkpt>
      <trkpt lat="42.75531" lon="-0.20709">
        <ele>2497.7</ele>
        <time>2018-12-27T11:08:30Z</time>
      </trkpt>
      <trkpt lat="42.75534" lon="-0.20705">
        <ele>2499.1</ele>
        <time>2018-12-27T11:08:31Z</time>
      </trkpt>
      <trkpt lat="42.75535" lon="-0.20702">
        <ele>2499.5</ele>
        <time>2018-12-27T11:08:32Z</time>
      </trkpt>
      <trkpt lat="42.75537" lon="-0.20698">
        <ele>2500.7</ele>
        <time>2018-12-27T11:08:33Z</time>
      </trkpt>
      <trkpt lat="42.75542" lon="-0.2069">
        <ele>2502.9</ele>
        <time>2018-12-27T11:08:35Z</time>
      </trkpt>
      <trkpt lat="42.75547" lon="-0.2068">
        <ele>2502.9</ele>
        <time>2018-12-27T11:08:37Z</time>
      </trkpt>
      <trkpt lat="42.7555" lon="-0.20675">
        <ele>2502.7</ele>
        <time>2018-12-27T11:08:38Z</time>
      </trkpt>
      <trkpt lat="42.75551" lon="-0.20672">
        <ele>2502.7</ele>
        <time>2018-12-27T11:08:39Z</time>
      </trkpt>
      <trkpt lat="42.75555" lon="-0.20667">
        <ele>2502.4</ele>
        <time>2018-12-27T11:08:41Z</time>
      </trkpt>
      <trkpt lat="42.75558" lon="-0.20661">
        <ele>2502.4</ele>
        <time>2018-12-27T11:08:42Z</time>
      </trkpt>
      <trkpt lat="42.75562" lon="-0.20662">
        <ele>2501.2</ele>
        <time>2018-12-27T11:08:43Z</time>
      </trkpt>
      <trkpt lat="42.75565" lon="-0.20662">
        <ele>2500.2</ele>
        <time>2018-12-27T11:08:44Z</time>
      </trkpt>
      <trkpt lat="42.75567" lon="-0.20661">
        <ele>2499.9</ele>
        <time>2018-12-27T11:08:45Z</time>
      </trkpt>
      <trkpt lat="42.75571" lon="-0.20657">
        <ele>2499.4</ele>
        <time>2018-12-27T11:08:46Z</time>
      </trkpt>
      <trkpt lat="42.75576" lon="-0.20656">
        <ele>2498.1</ele>
        <time>2018-12-27T11:08:47Z</time>
      </trkpt>
      <trkpt lat="42.7558" lon="-0.20656">
        <ele>2497.2</ele>
        <time>2018-12-27T11:08:48Z</time>
      </trkpt>
      <trkpt lat="42.75581" lon="-0.20654">
        <ele>2497.1</ele>
        <time>2018-12-27T11:08:49Z</time>
      </trkpt>
      <trkpt lat="42.75582" lon="-0.20651">
        <ele>2497</ele>
        <time>2018-12-27T11:08:49Z</time>
      </trkpt>
      <trkpt lat="42.75584" lon="-0.20653">
        <ele>2496.4</ele>
        <time>2018-12-27T11:08:50Z</time>
      </trkpt>
      <trkpt lat="42.75587" lon="-0.20654">
        <ele>2495.8</ele>
        <time>2018-12-27T11:08:51Z</time>
      </trkpt>
      <trkpt lat="42.75588" lon="-0.20654">
        <ele>2495.6</ele>
        <time>2018-12-27T11:08:51Z</time>
      </trkpt>
      <trkpt lat="42.75588" lon="-0.20654">
        <ele>2495.5</ele>
        <time>2018-12-27T11:08:51Z</time>
      </trkpt>
      <trkpt lat="42.75592" lon="-0.20652">
        <ele>2494.8</ele>
        <time>2018-12-27T11:08:52Z</time>
      </trkpt>
      <trkpt lat="42.75595" lon="-0.20645">
        <ele>2494.5</ele>
        <time>2018-12-27T11:08:54Z</time>
      </trkpt>
      <trkpt lat="42.75595" lon="-0.20643">
        <ele>2494.7</ele>
        <time>2018-12-27T11:08:54Z</time>
      </trkpt>
      <trkpt lat="42.75595" lon="-0.20641">
        <ele>2494.8</ele>
        <time>2018-12-27T11:08:55Z</time>
      </trkpt>
      <trkpt lat="42.75596" lon="-0.20637">
        <ele>2494.9</ele>
        <time>2018-12-27T11:08:55Z</time>
      </trkpt>
      <trkpt lat="42.75598" lon="-0.20631">
        <ele>2494.6</ele>
        <time>2018-12-27T11:08:57Z</time>
      </trkpt>
      <trkpt lat="42.75603" lon="-0.20626">
        <ele>2493.9</ele>
        <time>2018-12-27T11:08:58Z</time>
      </trkpt>
      <trkpt lat="42.75604" lon="-0.20624">
        <ele>2493.6</ele>
        <time>2018-12-27T11:08:59Z</time>
      </trkpt>
      <trkpt lat="42.75609" lon="-0.20621">
        <ele>2493.4</ele>
        <time>2018-12-27T11:09:00Z</time>
      </trkpt>
      <trkpt lat="42.75613" lon="-0.20614">
        <ele>2493.7</ele>
        <time>2018-12-27T11:09:02Z</time>
      </trkpt>
      <trkpt lat="42.75614" lon="-0.20615">
        <ele>2493.3</ele>
        <time>2018-12-27T11:09:02Z</time>
      </trkpt>
      <trkpt lat="42.75621" lon="-0.20616">
        <ele>2491.1</ele>
        <time>2018-12-27T11:09:04Z</time>
      </trkpt>
      <trkpt lat="42.75622" lon="-0.20616">
        <ele>2490.9</ele>
        <time>2018-12-27T11:09:04Z</time>
      </trkpt>
      <trkpt lat="42.75626" lon="-0.20618">
        <ele>2489.5</ele>
        <time>2018-12-27T11:09:06Z</time>
      </trkpt>
      <trkpt lat="42.75631" lon="-0.20618">
        <ele>2489.1</ele>
        <time>2018-12-27T11:09:07Z</time>
      </trkpt>
      <trkpt lat="42.75633" lon="-0.20618">
        <ele>2489</ele>
        <time>2018-12-27T11:09:07Z</time>
      </trkpt>
      <trkpt lat="42.75637" lon="-0.20617">
        <ele>2488.8</ele>
        <time>2018-12-27T11:09:08Z</time>
      </trkpt>
      <trkpt lat="42.75641" lon="-0.20618">
        <ele>2488.2</ele>
        <time>2018-12-27T11:09:10Z</time>
      </trkpt>
      <trkpt lat="42.7565" lon="-0.20619">
        <ele>2487.1</ele>
        <time>2018-12-27T11:09:12Z</time>
      </trkpt>
      <trkpt lat="42.75663" lon="-0.20618">
        <ele>2486.3</ele>
        <time>2018-12-27T11:09:15Z</time>
      </trkpt>
      <trkpt lat="42.75672" lon="-0.20616">
        <ele>2485.8</ele>
        <time>2018-12-27T11:09:18Z</time>
      </trkpt>
      <trkpt lat="42.75685" lon="-0.20611">
        <ele>2485.6</ele>
        <time>2018-12-27T11:09:22Z</time>
      </trkpt>
      <trkpt lat="42.75691" lon="-0.20609">
        <ele>2485.6</ele>
        <time>2018-12-27T11:09:23Z</time>
      </trkpt>
      <trkpt lat="42.75692" lon="-0.2061">
        <ele>2485.3</ele>
        <time>2018-12-27T11:09:23Z</time>
      </trkpt>
      <trkpt lat="42.75698" lon="-0.20611">
        <ele>2484.4</ele>
        <time>2018-12-27T11:09:25Z</time>
      </trkpt>
      <trkpt lat="42.75706" lon="-0.2061">
        <ele>2484</ele>
        <time>2018-12-27T11:09:27Z</time>
      </trkpt>
      <trkpt lat="42.75707" lon="-0.20609">
        <ele>2484.1</ele>
        <time>2018-12-27T11:09:27Z</time>
      </trkpt>
      <trkpt lat="42.75718" lon="-0.20606">
        <ele>2484.6</ele>
        <time>2018-12-27T11:09:31Z</time>
      </trkpt>
      <trkpt lat="42.75727" lon="-0.20606">
        <ele>2484.8</ele>
        <time>2018-12-27T11:09:33Z</time>
      </trkpt>
      <trkpt lat="42.75737" lon="-0.20607">
        <ele>2484.9</ele>
        <time>2018-12-27T11:09:36Z</time>
      </trkpt>
      <trkpt lat="42.75739" lon="-0.20606">
        <ele>2485</ele>
        <time>2018-12-27T11:09:36Z</time>
      </trkpt>
      <trkpt lat="42.75742" lon="-0.20608">
        <ele>2484.8</ele>
        <time>2018-12-27T11:09:37Z</time>
      </trkpt>
      <trkpt lat="42.75747" lon="-0.20609">
        <ele>2484.7</ele>
        <time>2018-12-27T11:09:38Z</time>
      </trkpt>
      <trkpt lat="42.75748" lon="-0.2061">
        <ele>2484.7</ele>
        <time>2018-12-27T11:09:39Z</time>
      </trkpt>
      <trkpt lat="42.75751" lon="-0.2061">
        <ele>2484.7</ele>
        <time>2018-12-27T11:09:39Z</time>
      </trkpt>
      <trkpt lat="42.75754" lon="-0.2061">
        <ele>2484.8</ele>
        <time>2018-12-27T11:09:40Z</time>
      </trkpt>
      <trkpt lat="42.75759" lon="-0.20608">
        <ele>2485.2</ele>
        <time>2018-12-27T11:09:42Z</time>
      </trkpt>
      <trkpt lat="42.75765" lon="-0.20604">
        <ele>2486.1</ele>
        <time>2018-12-27T11:09:43Z</time>
      </trkpt>
      <trkpt lat="42.75772" lon="-0.20599">
        <ele>2487.1</ele>
        <time>2018-12-27T11:09:45Z</time>
      </trkpt>
      <trkpt lat="42.7578" lon="-0.20596">
        <ele>2487.7</ele>
        <time>2018-12-27T11:09:48Z</time>
      </trkpt>
      <trkpt lat="42.75783" lon="-0.20595">
        <ele>2487.8</ele>
        <time>2018-12-27T11:09:48Z</time>
      </trkpt>
      <trkpt lat="42.75788" lon="-0.20591">
        <ele>2488.6</ele>
        <time>2018-12-27T11:09:50Z</time>
      </trkpt>
      <trkpt lat="42.75793" lon="-0.20591">
        <ele>2488.9</ele>
        <time>2018-12-27T11:09:51Z</time>
      </trkpt>
      <trkpt lat="42.75799" lon="-0.20588">
        <ele>2490</ele>
        <time>2018-12-27T11:09:53Z</time>
      </trkpt>
      <trkpt lat="42.75801" lon="-0.20588">
        <ele>2490.3</ele>
        <time>2018-12-27T11:09:54Z</time>
      </trkpt>
      <trkpt lat="42.75808" lon="-0.2059">
        <ele>2490.7</ele>
        <time>2018-12-27T11:09:55Z</time>
      </trkpt>
      <trkpt lat="42.75811" lon="-0.20593">
        <ele>2490.6</ele>
        <time>2018-12-27T11:09:57Z</time>
      </trkpt>
      <trkpt lat="42.75818" lon="-0.20594">
        <ele>2491.3</ele>
        <time>2018-12-27T11:09:59Z</time>
      </trkpt>
      <trkpt lat="42.75823" lon="-0.20592">
        <ele>2492</ele>
        <time>2018-12-27T11:10:00Z</time>
      </trkpt>
      <trkpt lat="42.75826" lon="-0.2059">
        <ele>2492.6</ele>
        <time>2018-12-27T11:10:01Z</time>
      </trkpt>
      <trkpt lat="42.75836" lon="-0.20588">
        <ele>2494</ele>
        <time>2018-12-27T11:10:03Z</time>
      </trkpt>
      <trkpt lat="42.75849" lon="-0.20585">
        <ele>2495.6</ele>
        <time>2018-12-27T11:10:07Z</time>
      </trkpt>
      <trkpt lat="42.7585" lon="-0.20584">
        <ele>2496</ele>
        <time>2018-12-27T11:10:07Z</time>
      </trkpt>
      <trkpt lat="42.75854" lon="-0.20583">
        <ele>2496.4</ele>
        <time>2018-12-27T11:10:08Z</time>
      </trkpt>
      <trkpt lat="42.75857" lon="-0.20581">
        <ele>2497</ele>
        <time>2018-12-27T11:10:09Z</time>
      </trkpt>
      <trkpt lat="42.75863" lon="-0.20578">
        <ele>2497.8</ele>
        <time>2018-12-27T11:10:11Z</time>
      </trkpt>
      <trkpt lat="42.75869" lon="-0.20577">
        <ele>2498.5</ele>
        <time>2018-12-27T11:10:12Z</time>
      </trkpt>
      <trkpt lat="42.75875" lon="-0.20577">
        <ele>2499.3</ele>
        <time>2018-12-27T11:10:14Z</time>
      </trkpt>
      <trkpt lat="42.75876" lon="-0.20577">
        <ele>2499.4</ele>
        <time>2018-12-27T11:10:14Z</time>
      </trkpt>
      <trkpt lat="42.7588" lon="-0.20577">
        <ele>2499.8</ele>
        <time>2018-12-27T11:10:15Z</time>
      </trkpt>
      <trkpt lat="42.75882" lon="-0.20577">
        <ele>2500</ele>
        <time>2018-12-27T11:10:16Z</time>
      </trkpt>
      <trkpt lat="42.75893" lon="-0.20576">
        <ele>2501.2</ele>
        <time>2018-12-27T11:10:19Z</time>
      </trkpt>
      <trkpt lat="42.75905" lon="-0.20574">
        <ele>2502.6</ele>
        <time>2018-12-27T11:10:22Z</time>
      </trkpt>
      <trkpt lat="42.75909" lon="-0.20573">
        <ele>2503.2</ele>
        <time>2018-12-27T11:10:23Z</time>
      </trkpt>
      <trkpt lat="42.75913" lon="-0.20573">
        <ele>2503.4</ele>
        <time>2018-12-27T11:10:24Z</time>
      </trkpt>
      <trkpt lat="42.75923" lon="-0.20575">
        <ele>2504.5</ele>
        <time>2018-12-27T11:10:27Z</time>
      </trkpt>
      <trkpt lat="42.75935" lon="-0.20578">
        <ele>2505.4</ele>
        <time>2018-12-27T11:10:30Z</time>
      </trkpt>
      <trkpt lat="42.75943" lon="-0.20585">
        <ele>2506.2</ele>
        <time>2018-12-27T11:10:33Z</time>
      </trkpt>
      <trkpt lat="42.75954" lon="-0.20595">
        <ele>2507.4</ele>
        <time>2018-12-27T11:10:36Z</time>
      </trkpt>
      <trkpt lat="42.75963" lon="-0.20598">
        <ele>2507.8</ele>
        <time>2018-12-27T11:10:39Z</time>
      </trkpt>
      <trkpt lat="42.75969" lon="-0.20604">
        <ele>2507.5</ele>
        <time>2018-12-27T11:10:41Z</time>
      </trkpt>
      <trkpt lat="42.7597" lon="-0.20606">
        <ele>2507.5</ele>
        <time>2018-12-27T11:10:41Z</time>
      </trkpt>
      <trkpt lat="42.75978" lon="-0.20613">
        <ele>2507</ele>
        <time>2018-12-27T11:10:44Z</time>
      </trkpt>
      <trkpt lat="42.75987" lon="-0.20617">
        <ele>2506.7</ele>
        <time>2018-12-27T11:10:46Z</time>
      </trkpt>
      <trkpt lat="42.75991" lon="-0.20621">
        <ele>2506.5</ele>
        <time>2018-12-27T11:10:48Z</time>
      </trkpt>
      <trkpt lat="42.75997" lon="-0.20624">
        <ele>2506.2</ele>
        <time>2018-12-27T11:10:49Z</time>
      </trkpt>
      <trkpt lat="42.76" lon="-0.20626">
        <ele>2506</ele>
        <time>2018-12-27T11:10:50Z</time>
      </trkpt>
      <trkpt lat="42.76001" lon="-0.20627">
        <ele>2505.7</ele>
        <time>2018-12-27T11:10:51Z</time>
      </trkpt>
      <trkpt lat="42.76004" lon="-0.20626">
        <ele>2505.6</ele>
        <time>2018-12-27T11:10:51Z</time>
      </trkpt>
      <trkpt lat="42.76007" lon="-0.20628">
        <ele>2505.4</ele>
        <time>2018-12-27T11:10:52Z</time>
      </trkpt>
      <trkpt lat="42.76012" lon="-0.20628">
        <ele>2505.2</ele>
        <time>2018-12-27T11:10:54Z</time>
      </trkpt>
      <trkpt lat="42.76014" lon="-0.20627">
        <ele>2505.2</ele>
        <time>2018-12-27T11:10:54Z</time>
      </trkpt>
      <trkpt lat="42.76018" lon="-0.20625">
        <ele>2505.2</ele>
        <time>2018-12-27T11:10:55Z</time>
      </trkpt>
      <trkpt lat="42.76019" lon="-0.20626">
        <ele>2505.1</ele>
        <time>2018-12-27T11:10:56Z</time>
      </trkpt>
      <trkpt lat="42.7602" lon="-0.20627">
        <ele>2504.9</ele>
        <time>2018-12-27T11:10:56Z</time>
      </trkpt>
      <trkpt lat="42.76022" lon="-0.20628">
        <ele>2504.6</ele>
        <time>2018-12-27T11:10:56Z</time>
      </trkpt>
      <trkpt lat="42.76026" lon="-0.20633">
        <ele>2504</ele>
        <time>2018-12-27T11:10:58Z</time>
      </trkpt>
      <trkpt lat="42.76027" lon="-0.20634">
        <ele>2503.9</ele>
        <time>2018-12-27T11:10:58Z</time>
      </trkpt>
      <trkpt lat="42.7603" lon="-0.20637">
        <ele>2503.4</ele>
        <time>2018-12-27T11:10:59Z</time>
      </trkpt>
      <trkpt lat="42.76036" lon="-0.20639">
        <ele>2503.1</ele>
        <time>2018-12-27T11:11:01Z</time>
      </trkpt>
      <trkpt lat="42.76042" lon="-0.20641">
        <ele>2502.6</ele>
        <time>2018-12-27T11:11:02Z</time>
      </trkpt>
      <trkpt lat="42.76047" lon="-0.20645">
        <ele>2502.9</ele>
        <time>2018-12-27T11:11:04Z</time>
      </trkpt>
      <trkpt lat="42.7605" lon="-0.20647">
        <ele>2503.2</ele>
        <time>2018-12-27T11:11:05Z</time>
      </trkpt>
      <trkpt lat="42.76055" lon="-0.2065">
        <ele>2503.6</ele>
        <time>2018-12-27T11:11:06Z</time>
      </trkpt>
      <trkpt lat="42.76055" lon="-0.2065">
        <ele>2503.7</ele>
        <time>2018-12-27T11:11:07Z</time>
      </trkpt>
      <trkpt lat="42.76059" lon="-0.20649">
        <ele>2504.1</ele>
        <time>2018-12-27T11:11:07Z</time>
      </trkpt>
      <trkpt lat="42.76059" lon="-0.20648">
        <ele>2504.2</ele>
        <time>2018-12-27T11:11:08Z</time>
      </trkpt>
      <trkpt lat="42.76062" lon="-0.20648">
        <ele>2504.6</ele>
        <time>2018-12-27T11:11:08Z</time>
      </trkpt>
      <trkpt lat="42.76064" lon="-0.20647">
        <ele>2504.8</ele>
        <time>2018-12-27T11:11:09Z</time>
      </trkpt>
      <trkpt lat="42.76067" lon="-0.20642">
        <ele>2505.6</ele>
        <time>2018-12-27T11:11:10Z</time>
      </trkpt>
      <trkpt lat="42.76067" lon="-0.20641">
        <ele>2505.6</ele>
        <time>2018-12-27T11:11:10Z</time>
      </trkpt>
      <trkpt lat="42.76069" lon="-0.20641">
        <ele>2506</ele>
        <time>2018-12-27T11:11:11Z</time>
      </trkpt>
      <trkpt lat="42.76071" lon="-0.2064">
        <ele>2506.2</ele>
        <time>2018-12-27T11:11:11Z</time>
      </trkpt>
      <trkpt lat="42.76071" lon="-0.20639">
        <ele>2506.2</ele>
        <time>2018-12-27T11:11:11Z</time>
      </trkpt>
      <trkpt lat="42.76075" lon="-0.20635">
        <ele>2506.9</ele>
        <time>2018-12-27T11:11:13Z</time>
      </trkpt>
      <trkpt lat="42.76079" lon="-0.20638">
        <ele>2507.2</ele>
        <time>2018-12-27T11:11:14Z</time>
      </trkpt>
      <trkpt lat="42.76083" lon="-0.20633">
        <ele>2508</ele>
        <time>2018-12-27T11:11:16Z</time>
      </trkpt>
      <trkpt lat="42.76085" lon="-0.20633">
        <ele>2508.3</ele>
        <time>2018-12-27T11:11:16Z</time>
      </trkpt>
      <trkpt lat="42.76087" lon="-0.20633">
        <ele>2508.6</ele>
        <time>2018-12-27T11:11:17Z</time>
      </trkpt>
      <trkpt lat="42.76089" lon="-0.20632">
        <ele>2508.8</ele>
        <time>2018-12-27T11:11:17Z</time>
      </trkpt>
      <trkpt lat="42.76089" lon="-0.20629">
        <ele>2508.9</ele>
        <time>2018-12-27T11:11:18Z</time>
      </trkpt>
      <trkpt lat="42.76092" lon="-0.20631">
        <ele>2509.2</ele>
        <time>2018-12-27T11:11:18Z</time>
      </trkpt>
      <trkpt lat="42.76093" lon="-0.2063">
        <ele>2509.3</ele>
        <time>2018-12-27T11:11:19Z</time>
      </trkpt>
      <trkpt lat="42.76094" lon="-0.20625">
        <ele>2509.7</ele>
        <time>2018-12-27T11:11:20Z</time>
      </trkpt>
      <trkpt lat="42.76095" lon="-0.20622">
        <ele>2510.1</ele>
        <time>2018-12-27T11:11:21Z</time>
      </trkpt>
      <trkpt lat="42.76097" lon="-0.20624">
        <ele>2510</ele>
        <time>2018-12-27T11:11:21Z</time>
      </trkpt>
      <trkpt lat="42.76099" lon="-0.20622">
        <ele>2510.5</ele>
        <time>2018-12-27T11:11:22Z</time>
      </trkpt>
      <trkpt lat="42.76101" lon="-0.20619">
        <ele>2511.1</ele>
        <time>2018-12-27T11:11:23Z</time>
      </trkpt>
      <trkpt lat="42.76103" lon="-0.20618">
        <ele>2511.4</ele>
        <time>2018-12-27T11:11:23Z</time>
      </trkpt>
      <trkpt lat="42.76105" lon="-0.20619">
        <ele>2511.6</ele>
        <time>2018-12-27T11:11:24Z</time>
      </trkpt>
      <trkpt lat="42.76107" lon="-0.20617">
        <ele>2512</ele>
        <time>2018-12-27T11:11:25Z</time>
      </trkpt>
      <trkpt lat="42.76107" lon="-0.20617">
        <ele>2512</ele>
        <time>2018-12-27T11:11:25Z</time>
      </trkpt>
      <trkpt lat="42.76109" lon="-0.2062">
        <ele>2511.8</ele>
        <time>2018-12-27T11:11:26Z</time>
      </trkpt>
      <trkpt lat="42.7611" lon="-0.20617">
        <ele>2512.4</ele>
        <time>2018-12-27T11:11:26Z</time>
      </trkpt>
      <trkpt lat="42.76111" lon="-0.20617">
        <ele>2512.5</ele>
        <time>2018-12-27T11:11:27Z</time>
      </trkpt>
      <trkpt lat="42.76113" lon="-0.20616">
        <ele>2512.9</ele>
        <time>2018-12-27T11:11:27Z</time>
      </trkpt>
      <trkpt lat="42.76115" lon="-0.20612">
        <ele>2513.6</ele>
        <time>2018-12-27T11:11:28Z</time>
      </trkpt>
      <trkpt lat="42.76117" lon="-0.20612">
        <ele>2513.8</ele>
        <time>2018-12-27T11:11:29Z</time>
      </trkpt>
      <trkpt lat="42.76119" lon="-0.20612">
        <ele>2514.1</ele>
        <time>2018-12-27T11:11:29Z</time>
      </trkpt>
      <trkpt lat="42.76121" lon="-0.20613">
        <ele>2514.4</ele>
        <time>2018-12-27T11:11:30Z</time>
      </trkpt>
      <trkpt lat="42.76123" lon="-0.20613">
        <ele>2514.6</ele>
        <time>2018-12-27T11:11:30Z</time>
      </trkpt>
      <trkpt lat="42.76124" lon="-0.20612">
        <ele>2514.7</ele>
        <time>2018-12-27T11:11:30Z</time>
      </trkpt>
      <trkpt lat="42.76125" lon="-0.20616">
        <ele>2514.3</ele>
        <time>2018-12-27T11:11:31Z</time>
      </trkpt>
      <trkpt lat="42.76127" lon="-0.20613">
        <ele>2516.4</ele>
        <time>2018-12-27T11:11:32Z</time>
      </trkpt>
      <trkpt lat="42.76129" lon="-0.2061">
        <ele>2518.2</ele>
        <time>2018-12-27T11:11:33Z</time>
      </trkpt>
      <trkpt lat="42.7613" lon="-0.20613">
        <ele>2518.5</ele>
        <time>2018-12-27T11:11:33Z</time>
      </trkpt>
      <trkpt lat="42.76132" lon="-0.20612">
        <ele>2519.9</ele>
        <time>2018-12-27T11:11:34Z</time>
      </trkpt>
      <trkpt lat="42.76133" lon="-0.20613">
        <ele>2520.4</ele>
        <time>2018-12-27T11:11:34Z</time>
      </trkpt>
      <trkpt lat="42.76134" lon="-0.20617">
        <ele>2520.3</ele>
        <time>2018-12-27T11:11:35Z</time>
      </trkpt>
      <trkpt lat="42.76134" lon="-0.20619">
        <ele>2520.6</ele>
        <time>2018-12-27T11:11:35Z</time>
      </trkpt>
      <trkpt lat="42.76135" lon="-0.20624">
        <ele>2520.4</ele>
        <time>2018-12-27T11:11:36Z</time>
      </trkpt>
      <trkpt lat="42.76138" lon="-0.20628">
        <ele>2522.5</ele>
        <time>2018-12-27T11:11:38Z</time>
      </trkpt>
      <trkpt lat="42.76141" lon="-0.20632">
        <ele>2524.6</ele>
        <time>2018-12-27T11:11:39Z</time>
      </trkpt>
      <trkpt lat="42.76143" lon="-0.20634">
        <ele>2525.9</ele>
        <time>2018-12-27T11:11:39Z</time>
      </trkpt>
      <trkpt lat="42.76147" lon="-0.20631">
        <ele>2529</ele>
        <time>2018-12-27T11:11:40Z</time>
      </trkpt>
      <trkpt lat="42.76155" lon="-0.20628">
        <ele>2534.7</ele>
        <time>2018-12-27T11:11:43Z</time>
      </trkpt>
      <trkpt lat="42.76158" lon="-0.20627">
        <ele>2537.1</ele>
        <time>2018-12-27T11:11:43Z</time>
      </trkpt>
      <trkpt lat="42.7616" lon="-0.20625">
        <ele>2539</ele>
        <time>2018-12-27T11:11:44Z</time>
      </trkpt>
      <trkpt lat="42.76162" lon="-0.20626">
        <ele>2540.1</ele>
        <time>2018-12-27T11:11:45Z</time>
      </trkpt>
      <trkpt lat="42.76165" lon="-0.20629">
        <ele>2542.3</ele>
        <time>2018-12-27T11:11:46Z</time>
      </trkpt>
      <trkpt lat="42.76166" lon="-0.2063">
        <ele>2542.8</ele>
        <time>2018-12-27T11:11:46Z</time>
      </trkpt>
      <trkpt lat="42.76167" lon="-0.2063">
        <ele>2543.9</ele>
        <time>2018-12-27T11:11:46Z</time>
      </trkpt>
      <trkpt lat="42.76168" lon="-0.20627">
        <ele>2544.4</ele>
        <time>2018-12-27T11:11:47Z</time>
      </trkpt>
      <trkpt lat="42.76173" lon="-0.20623">
        <ele>2548.4</ele>
        <time>2018-12-27T11:11:49Z</time>
      </trkpt>
      <trkpt lat="42.76174" lon="-0.20623">
        <ele>2549</ele>
        <time>2018-12-27T11:11:49Z</time>
      </trkpt>
      <trkpt lat="42.76176" lon="-0.20623">
        <ele>2550.7</ele>
        <time>2018-12-27T11:11:50Z</time>
      </trkpt>
      <trkpt lat="42.76178" lon="-0.20624">
        <ele>2551.6</ele>
        <time>2018-12-27T11:11:50Z</time>
      </trkpt>
      <trkpt lat="42.76178" lon="-0.20624">
        <ele>2552.1</ele>
        <time>2018-12-27T11:11:50Z</time>
      </trkpt>
      <trkpt lat="42.76181" lon="-0.20621">
        <ele>2553.9</ele>
        <time>2018-12-27T11:11:51Z</time>
      </trkpt>
      <trkpt lat="42.76182" lon="-0.20619">
        <ele>2555.4</ele>
        <time>2018-12-27T11:11:52Z</time>
      </trkpt>
      <trkpt lat="42.76183" lon="-0.20619">
        <ele>2556</ele>
        <time>2018-12-27T11:11:52Z</time>
      </trkpt>
      <trkpt lat="42.76192" lon="-0.20608">
        <ele>2563.1</ele>
        <time>2018-12-27T11:11:55Z</time>
      </trkpt>
      <trkpt lat="42.76194" lon="-0.20603">
        <ele>2564.3</ele>
        <time>2018-12-27T11:11:56Z</time>
      </trkpt>
      <trkpt lat="42.76194" lon="-0.20603">
        <ele>2564.5</ele>
        <time>2018-12-27T11:11:56Z</time>
      </trkpt>
      <trkpt lat="42.76194" lon="-0.206">
        <ele>2564.7</ele>
        <time>2018-12-27T11:11:57Z</time>
      </trkpt>
      <trkpt lat="42.76195" lon="-0.20598">
        <ele>2565.6</ele>
        <time>2018-12-27T11:11:57Z</time>
      </trkpt>
      <trkpt lat="42.76195" lon="-0.20601">
        <ele>2565.8</ele>
        <time>2018-12-27T11:11:58Z</time>
      </trkpt>
      <trkpt lat="42.76197" lon="-0.20605">
        <ele>2566.6</ele>
        <time>2018-12-27T11:11:59Z</time>
      </trkpt>
      <trkpt lat="42.76198" lon="-0.20606">
        <ele>2567.4</ele>
        <time>2018-12-27T11:11:59Z</time>
      </trkpt>
      <trkpt lat="42.76198" lon="-0.20608">
        <ele>2567.4</ele>
        <time>2018-12-27T11:12:00Z</time>
      </trkpt>
      <trkpt lat="42.762" lon="-0.20608">
        <ele>2568.5</ele>
        <time>2018-12-27T11:12:00Z</time>
      </trkpt>
      <trkpt lat="42.76202" lon="-0.2061">
        <ele>2569.9</ele>
        <time>2018-12-27T11:12:01Z</time>
      </trkpt>
      <trkpt lat="42.76203" lon="-0.20608">
        <ele>2571</ele>
        <time>2018-12-27T11:12:01Z</time>
      </trkpt>
      <trkpt lat="42.76204" lon="-0.20607">
        <ele>2571.7</ele>
        <time>2018-12-27T11:12:02Z</time>
      </trkpt>
      <trkpt lat="42.76205" lon="-0.20607">
        <ele>2571.9</ele>
        <time>2018-12-27T11:12:02Z</time>
      </trkpt>
      <trkpt lat="42.76207" lon="-0.20608">
        <ele>2573.8</ele>
        <time>2018-12-27T11:12:02Z</time>
      </trkpt>
      <trkpt lat="42.7621" lon="-0.20605">
        <ele>2575.5</ele>
        <time>2018-12-27T11:12:03Z</time>
      </trkpt>
      <trkpt lat="42.76212" lon="-0.20601">
        <ele>2576.9</ele>
        <time>2018-12-27T11:12:04Z</time>
      </trkpt>
      <trkpt lat="42.76213" lon="-0.20597">
        <ele>2577.5</ele>
        <time>2018-12-27T11:12:05Z</time>
      </trkpt>
      <trkpt lat="42.76214" lon="-0.20595">
        <ele>2577.7</ele>
        <time>2018-12-27T11:12:06Z</time>
      </trkpt>
      <trkpt lat="42.76216" lon="-0.20598">
        <ele>2578.8</ele>
        <time>2018-12-27T11:12:06Z</time>
      </trkpt>
      <trkpt lat="42.76219" lon="-0.20593">
        <ele>2580.3</ele>
        <time>2018-12-27T11:12:08Z</time>
      </trkpt>
      <trkpt lat="42.7622" lon="-0.20593">
        <ele>2580.6</ele>
        <time>2018-12-27T11:12:08Z</time>
      </trkpt>
      <trkpt lat="42.76221" lon="-0.20593">
        <ele>2581.1</ele>
        <time>2018-12-27T11:12:08Z</time>
      </trkpt>
      <trkpt lat="42.76223" lon="-0.20593">
        <ele>2581.7</ele>
        <time>2018-12-27T11:12:09Z</time>
      </trkpt>
      <trkpt lat="42.76224" lon="-0.20595">
        <ele>2582.5</ele>
        <time>2018-12-27T11:12:09Z</time>
      </trkpt>
      <trkpt lat="42.76226" lon="-0.20593">
        <ele>2583.2</ele>
        <time>2018-12-27T11:12:10Z</time>
      </trkpt>
      <trkpt lat="42.76228" lon="-0.20594">
        <ele>2584.2</ele>
        <time>2018-12-27T11:12:10Z</time>
      </trkpt>
      <trkpt lat="42.76229" lon="-0.20594">
        <ele>2584.8</ele>
        <time>2018-12-27T11:12:11Z</time>
      </trkpt>
      <trkpt lat="42.7623" lon="-0.20594">
        <ele>2585.3</ele>
        <time>2018-12-27T11:12:11Z</time>
      </trkpt>
      <trkpt lat="42.76231" lon="-0.20592">
        <ele>2585.6</ele>
        <time>2018-12-27T11:12:11Z</time>
      </trkpt>
      <trkpt lat="42.76232" lon="-0.20595">
        <ele>2586.2</ele>
        <time>2018-12-27T11:12:12Z</time>
      </trkpt>
      <trkpt lat="42.76233" lon="-0.20594">
        <ele>2586.7</ele>
        <time>2018-12-27T11:12:12Z</time>
      </trkpt>
      <trkpt lat="42.76237" lon="-0.20592">
        <ele>2588.4</ele>
        <time>2018-12-27T11:12:13Z</time>
      </trkpt>
      <trkpt lat="42.76238" lon="-0.20593">
        <ele>2588.8</ele>
        <time>2018-12-27T11:12:14Z</time>
      </trkpt>
      <trkpt lat="42.7624" lon="-0.20596">
        <ele>2589.8</ele>
        <time>2018-12-27T11:12:14Z</time>
      </trkpt>
      <trkpt lat="42.76241" lon="-0.20596">
        <ele>2590.8</ele>
        <time>2018-12-27T11:12:15Z</time>
      </trkpt>
      <trkpt lat="42.76243" lon="-0.20596">
        <ele>2591.6</ele>
        <time>2018-12-27T11:12:15Z</time>
      </trkpt>
      <trkpt lat="42.76245" lon="-0.20595">
        <ele>2592.2</ele>
        <time>2018-12-27T11:12:16Z</time>
      </trkpt>
      <trkpt lat="42.76245" lon="-0.20594">
        <ele>2592.2</ele>
        <time>2018-12-27T11:12:16Z</time>
      </trkpt>
      <trkpt lat="42.76246" lon="-0.20593">
        <ele>2592.5</ele>
        <time>2018-12-27T11:12:16Z</time>
      </trkpt>
      <trkpt lat="42.76248" lon="-0.20589">
        <ele>2593.3</ele>
        <time>2018-12-27T11:12:17Z</time>
      </trkpt>
      <trkpt lat="42.7625" lon="-0.20586">
        <ele>2593.7</ele>
        <time>2018-12-27T11:12:18Z</time>
      </trkpt>
      <trkpt lat="42.76256" lon="-0.20583">
        <ele>2596.2</ele>
        <time>2018-12-27T11:12:20Z</time>
      </trkpt>
      <trkpt lat="42.7626" lon="-0.20586">
        <ele>2598.2</ele>
        <time>2018-12-27T11:12:21Z</time>
      </trkpt>
      <trkpt lat="42.76262" lon="-0.20585">
        <ele>2599</ele>
        <time>2018-12-27T11:12:22Z</time>
      </trkpt>
      <trkpt lat="42.76264" lon="-0.20577">
        <ele>2598.6</ele>
        <time>2018-12-27T11:12:23Z</time>
      </trkpt>
      <trkpt lat="42.76266" lon="-0.20571">
        <ele>2598.7</ele>
        <time>2018-12-27T11:12:25Z</time>
      </trkpt>
      <trkpt lat="42.76266" lon="-0.2057">
        <ele>2598.4</ele>
        <time>2018-12-27T11:12:25Z</time>
      </trkpt>
      <trkpt lat="42.76268" lon="-0.20567">
        <ele>2598.5</ele>
        <time>2018-12-27T11:12:26Z</time>
      </trkpt>
      <trkpt lat="42.76269" lon="-0.20567">
        <ele>2599.2</ele>
        <time>2018-12-27T11:12:26Z</time>
      </trkpt>
      <trkpt lat="42.76274" lon="-0.20566">
        <ele>2600.9</ele>
        <time>2018-12-27T11:12:27Z</time>
      </trkpt>
      <trkpt lat="42.76278" lon="-0.20568">
        <ele>2602.8</ele>
        <time>2018-12-27T11:12:28Z</time>
      </trkpt>
      <trkpt lat="42.7628" lon="-0.20569">
        <ele>2603.8</ele>
        <time>2018-12-27T11:12:29Z</time>
      </trkpt>
      <trkpt lat="42.76281" lon="-0.20569">
        <ele>2604.2</ele>
        <time>2018-12-27T11:12:29Z</time>
      </trkpt>
      <trkpt lat="42.76285" lon="-0.2057">
        <ele>2605.8</ele>
        <time>2018-12-27T11:12:30Z</time>
      </trkpt>
      <trkpt lat="42.76285" lon="-0.20569">
        <ele>2605.6</ele>
        <time>2018-12-27T11:12:31Z</time>
      </trkpt>
      <trkpt lat="42.76288" lon="-0.20568">
        <ele>2606.7</ele>
        <time>2018-12-27T11:12:31Z</time>
      </trkpt>
      <trkpt lat="42.76289" lon="-0.20569">
        <ele>2607</ele>
        <time>2018-12-27T11:12:32Z</time>
      </trkpt>
      <trkpt lat="42.7629" lon="-0.2057">
        <ele>2607.7</ele>
        <time>2018-12-27T11:12:32Z</time>
      </trkpt>
      <trkpt lat="42.76289" lon="-0.20568">
        <ele>2607.2</ele>
        <time>2018-12-27T11:12:32Z</time>
      </trkpt>
      <trkpt lat="42.76292" lon="-0.20569">
        <ele>2608.3</ele>
        <time>2018-12-27T11:12:33Z</time>
      </trkpt>
      <trkpt lat="42.76293" lon="-0.20571">
        <ele>2608</ele>
        <time>2018-12-27T11:12:33Z</time>
      </trkpt>
      <trkpt lat="42.76296" lon="-0.20572">
        <ele>2606.7</ele>
        <time>2018-12-27T11:12:34Z</time>
      </trkpt>
      <trkpt lat="42.76299" lon="-0.20571">
        <ele>2605.1</ele>
        <time>2018-12-27T11:12:35Z</time>
      </trkpt>
      <trkpt lat="42.76299" lon="-0.20568">
        <ele>2604.3</ele>
        <time>2018-12-27T11:12:36Z</time>
      </trkpt>
      <trkpt lat="42.763" lon="-0.20567">
        <ele>2604</ele>
        <time>2018-12-27T11:12:36Z</time>
      </trkpt>
      <trkpt lat="42.76302" lon="-0.20566">
        <ele>2602.7</ele>
        <time>2018-12-27T11:12:37Z</time>
      </trkpt>
      <trkpt lat="42.76303" lon="-0.20566">
        <ele>2602</ele>
        <time>2018-12-27T11:12:37Z</time>
      </trkpt>
      <trkpt lat="42.76306" lon="-0.20568">
        <ele>2600.8</ele>
        <time>2018-12-27T11:12:38Z</time>
      </trkpt>
      <trkpt lat="42.76309" lon="-0.20572">
        <ele>2600.4</ele>
        <time>2018-12-27T11:12:39Z</time>
      </trkpt>
      <trkpt lat="42.76309" lon="-0.20574">
        <ele>2600.8</ele>
        <time>2018-12-27T11:12:39Z</time>
      </trkpt>
      <trkpt lat="42.76311" lon="-0.20578">
        <ele>2600.7</ele>
        <time>2018-12-27T11:12:40Z</time>
      </trkpt>
      <trkpt lat="42.76311" lon="-0.20579">
        <ele>2600.4</ele>
        <time>2018-12-27T11:12:41Z</time>
      </trkpt>
      <trkpt lat="42.76315" lon="-0.20583">
        <ele>2599.6</ele>
        <time>2018-12-27T11:12:42Z</time>
      </trkpt>
      <trkpt lat="42.76322" lon="-0.20588">
        <ele>2596.4</ele>
        <time>2018-12-27T11:12:44Z</time>
      </trkpt>
      <trkpt lat="42.76323" lon="-0.20588">
        <ele>2596.3</ele>
        <time>2018-12-27T11:12:44Z</time>
      </trkpt>
      <trkpt lat="42.76323" lon="-0.2059">
        <ele>2596.4</ele>
        <time>2018-12-27T11:12:44Z</time>
      </trkpt>
      <trkpt lat="42.76324" lon="-0.20591">
        <ele>2596.3</ele>
        <time>2018-12-27T11:12:45Z</time>
      </trkpt>
      <trkpt lat="42.76328" lon="-0.20595">
        <ele>2594.5</ele>
        <time>2018-12-27T11:12:46Z</time>
      </trkpt>
      <trkpt lat="42.76329" lon="-0.20595">
        <ele>2594.3</ele>
        <time>2018-12-27T11:12:46Z</time>
      </trkpt>
      <trkpt lat="42.76333" lon="-0.20598">
        <ele>2592.5</ele>
        <time>2018-12-27T11:12:48Z</time>
      </trkpt>
      <trkpt lat="42.76334" lon="-0.20599">
        <ele>2592.1</ele>
        <time>2018-12-27T11:12:48Z</time>
      </trkpt>
      <trkpt lat="42.76336" lon="-0.20603">
        <ele>2591.2</ele>
        <time>2018-12-27T11:12:49Z</time>
      </trkpt>
      <trkpt lat="42.7634" lon="-0.20605">
        <ele>2589.3</ele>
        <time>2018-12-27T11:12:50Z</time>
      </trkpt>
      <trkpt lat="42.76343" lon="-0.20604">
        <ele>2587.8</ele>
        <time>2018-12-27T11:12:51Z</time>
      </trkpt>
      <trkpt lat="42.76346" lon="-0.20604">
        <ele>2586</ele>
        <time>2018-12-27T11:12:52Z</time>
      </trkpt>
      <trkpt lat="42.76351" lon="-0.20602">
        <ele>2582.9</ele>
        <time>2018-12-27T11:12:53Z</time>
      </trkpt>
      <trkpt lat="42.76356" lon="-0.20604">
        <ele>2580.7</ele>
        <time>2018-12-27T11:12:54Z</time>
      </trkpt>
      <trkpt lat="42.76356" lon="-0.20604">
        <ele>2580.5</ele>
        <time>2018-12-27T11:12:54Z</time>
      </trkpt>
      <trkpt lat="42.76357" lon="-0.20605">
        <ele>2580.3</ele>
        <time>2018-12-27T11:12:55Z</time>
      </trkpt>
      <trkpt lat="42.76357" lon="-0.20608">
        <ele>2580</ele>
        <time>2018-12-27T11:12:55Z</time>
      </trkpt>
      <trkpt lat="42.76358" lon="-0.20613">
        <ele>2580.1</ele>
        <time>2018-12-27T11:12:56Z</time>
      </trkpt>
      <trkpt lat="42.76361" lon="-0.20617">
        <ele>2578.5</ele>
        <time>2018-12-27T11:12:57Z</time>
      </trkpt>
      <trkpt lat="42.76364" lon="-0.2062">
        <ele>2577.4</ele>
        <time>2018-12-27T11:12:58Z</time>
      </trkpt>
      <trkpt lat="42.76365" lon="-0.20624">
        <ele>2576.8</ele>
        <time>2018-12-27T11:12:59Z</time>
      </trkpt>
      <trkpt lat="42.76365" lon="-0.20627">
        <ele>2577.2</ele>
        <time>2018-12-27T11:13:00Z</time>
      </trkpt>
      <trkpt lat="42.76367" lon="-0.20629">
        <ele>2576.9</ele>
        <time>2018-12-27T11:13:00Z</time>
      </trkpt>
      <trkpt lat="42.76371" lon="-0.20637">
        <ele>2575.9</ele>
        <time>2018-12-27T11:13:02Z</time>
      </trkpt>
      <trkpt lat="42.76376" lon="-0.20643">
        <ele>2574.5</ele>
        <time>2018-12-27T11:13:04Z</time>
      </trkpt>
      <trkpt lat="42.76377" lon="-0.20644">
        <ele>2574.1</ele>
        <time>2018-12-27T11:13:04Z</time>
      </trkpt>
      <trkpt lat="42.76379" lon="-0.20648">
        <ele>2574.1</ele>
        <time>2018-12-27T11:13:05Z</time>
      </trkpt>
      <trkpt lat="42.7638" lon="-0.20654">
        <ele>2574.8</ele>
        <time>2018-12-27T11:13:07Z</time>
      </trkpt>
      <trkpt lat="42.76381" lon="-0.20655">
        <ele>2574.5</ele>
        <time>2018-12-27T11:13:07Z</time>
      </trkpt>
      <trkpt lat="42.76386" lon="-0.20662">
        <ele>2573.6</ele>
        <time>2018-12-27T11:13:09Z</time>
      </trkpt>
      <trkpt lat="42.7639" lon="-0.20664">
        <ele>2572.4</ele>
        <time>2018-12-27T11:13:10Z</time>
      </trkpt>
      <trkpt lat="42.76391" lon="-0.20664">
        <ele>2571.8</ele>
        <time>2018-12-27T11:13:10Z</time>
      </trkpt>
      <trkpt lat="42.76393" lon="-0.20664">
        <ele>2570.8</ele>
        <time>2018-12-27T11:13:11Z</time>
      </trkpt>
      <trkpt lat="42.76397" lon="-0.20665">
        <ele>2569</ele>
        <time>2018-12-27T11:13:12Z</time>
      </trkpt>
      <trkpt lat="42.76398" lon="-0.20665">
        <ele>2568.9</ele>
        <time>2018-12-27T11:13:12Z</time>
      </trkpt>
      <trkpt lat="42.76403" lon="-0.20666">
        <ele>2566.5</ele>
        <time>2018-12-27T11:13:13Z</time>
      </trkpt>
      <trkpt lat="42.76405" lon="-0.20667">
        <ele>2565.4</ele>
        <time>2018-12-27T11:13:14Z</time>
      </trkpt>
      <trkpt lat="42.76408" lon="-0.20671">
        <ele>2564.5</ele>
        <time>2018-12-27T11:13:15Z</time>
      </trkpt>
      <trkpt lat="42.7641" lon="-0.20673">
        <ele>2563.8</ele>
        <time>2018-12-27T11:13:16Z</time>
      </trkpt>
      <trkpt lat="42.76417" lon="-0.20681">
        <ele>2561.3</ele>
        <time>2018-12-27T11:13:18Z</time>
      </trkpt>
      <trkpt lat="42.76418" lon="-0.20683">
        <ele>2561</ele>
        <time>2018-12-27T11:13:19Z</time>
      </trkpt>
      <trkpt lat="42.7642" lon="-0.20687">
        <ele>2560.2</ele>
        <time>2018-12-27T11:13:20Z</time>
      </trkpt>
      <trkpt lat="42.7642" lon="-0.20691">
        <ele>2560.5</ele>
        <time>2018-12-27T11:13:20Z</time>
      </trkpt>
      <trkpt lat="42.7642" lon="-0.20691">
        <ele>2560.6</ele>
        <time>2018-12-27T11:13:20Z</time>
      </trkpt>
      <trkpt lat="42.76422" lon="-0.20693">
        <ele>2559.1</ele>
        <time>2018-12-27T11:13:21Z</time>
      </trkpt>
      <trkpt lat="42.76423" lon="-0.20693">
        <ele>2558.6</ele>
        <time>2018-12-27T11:13:22Z</time>
      </trkpt>
      <trkpt lat="42.76424" lon="-0.20693">
        <ele>2558.2</ele>
        <time>2018-12-27T11:13:22Z</time>
      </trkpt>
      <trkpt lat="42.76428" lon="-0.20691">
        <ele>2555.8</ele>
        <time>2018-12-27T11:13:23Z</time>
      </trkpt>
      <trkpt lat="42.7643" lon="-0.20688">
        <ele>2554.7</ele>
        <time>2018-12-27T11:13:24Z</time>
      </trkpt>
      <trkpt lat="42.76434" lon="-0.20683">
        <ele>2552.6</ele>
        <time>2018-12-27T11:13:25Z</time>
      </trkpt>
      <trkpt lat="42.76436" lon="-0.20682">
        <ele>2551.4</ele>
        <time>2018-12-27T11:13:26Z</time>
      </trkpt>
      <trkpt lat="42.76441" lon="-0.20683">
        <ele>2549</ele>
        <time>2018-12-27T11:13:27Z</time>
      </trkpt>
      <trkpt lat="42.76442" lon="-0.20683">
        <ele>2548.4</ele>
        <time>2018-12-27T11:13:27Z</time>
      </trkpt>
      <trkpt lat="42.76449" lon="-0.20687">
        <ele>2544.7</ele>
        <time>2018-12-27T11:13:29Z</time>
      </trkpt>
      <trkpt lat="42.76456" lon="-0.20692">
        <ele>2541.1</ele>
        <time>2018-12-27T11:13:31Z</time>
      </trkpt>
      <trkpt lat="42.76457" lon="-0.20693">
        <ele>2540.6</ele>
        <time>2018-12-27T11:13:32Z</time>
      </trkpt>
      <trkpt lat="42.76461" lon="-0.207">
        <ele>2538.1</ele>
        <time>2018-12-27T11:13:34Z</time>
      </trkpt>
      <trkpt lat="42.76462" lon="-0.20703">
        <ele>2537.9</ele>
        <time>2018-12-27T11:13:34Z</time>
      </trkpt>
      <trkpt lat="42.76462" lon="-0.20705">
        <ele>2537.7</ele>
        <time>2018-12-27T11:13:35Z</time>
      </trkpt>
      <trkpt lat="42.76463" lon="-0.2071">
        <ele>2537.2</ele>
        <time>2018-12-27T11:13:36Z</time>
      </trkpt>
      <trkpt lat="42.76463" lon="-0.20715">
        <ele>2537</ele>
        <time>2018-12-27T11:13:37Z</time>
      </trkpt>
      <trkpt lat="42.76462" lon="-0.20722">
        <ele>2537.5</ele>
        <time>2018-12-27T11:13:38Z</time>
      </trkpt>
      <trkpt lat="42.76462" lon="-0.20725">
        <ele>2537.6</ele>
        <time>2018-12-27T11:13:39Z</time>
      </trkpt>
      <trkpt lat="42.76465" lon="-0.2074">
        <ele>2536.4</ele>
        <time>2018-12-27T11:13:42Z</time>
      </trkpt>
      <trkpt lat="42.76465" lon="-0.20741">
        <ele>2536.1</ele>
        <time>2018-12-27T11:13:42Z</time>
      </trkpt>
      <trkpt lat="42.7647" lon="-0.20746">
        <ele>2534.1</ele>
        <time>2018-12-27T11:13:43Z</time>
      </trkpt>
      <trkpt lat="42.76471" lon="-0.20749">
        <ele>2533.3</ele>
        <time>2018-12-27T11:13:44Z</time>
      </trkpt>
      <trkpt lat="42.76477" lon="-0.20757">
        <ele>2530.4</ele>
        <time>2018-12-27T11:13:46Z</time>
      </trkpt>
      <trkpt lat="42.76481" lon="-0.20769">
        <ele>2528.1</ele>
        <time>2018-12-27T11:13:49Z</time>
      </trkpt>
      <trkpt lat="42.76488" lon="-0.20777">
        <ele>2523.9</ele>
        <time>2018-12-27T11:13:51Z</time>
      </trkpt>
      <trkpt lat="42.76489" lon="-0.20779">
        <ele>2523.7</ele>
        <time>2018-12-27T11:13:52Z</time>
      </trkpt>
      <trkpt lat="42.76492" lon="-0.20784">
        <ele>2521.5</ele>
        <time>2018-12-27T11:13:53Z</time>
      </trkpt>
      <trkpt lat="42.76494" lon="-0.20785">
        <ele>2520.7</ele>
        <time>2018-12-27T11:13:54Z</time>
      </trkpt>
      <trkpt lat="42.76501" lon="-0.20796">
        <ele>2516.1</ele>
        <time>2018-12-27T11:13:57Z</time>
      </trkpt>
      <trkpt lat="42.76504" lon="-0.20801">
        <ele>2515</ele>
        <time>2018-12-27T11:13:58Z</time>
      </trkpt>
      <trkpt lat="42.76502" lon="-0.20804">
        <ele>2515.6</ele>
        <time>2018-12-27T11:13:58Z</time>
      </trkpt>
      <trkpt lat="42.765" lon="-0.20815">
        <ele>2516.7</ele>
        <time>2018-12-27T11:14:01Z</time>
      </trkpt>
      <trkpt lat="42.76498" lon="-0.20825">
        <ele>2517.2</ele>
        <time>2018-12-27T11:14:03Z</time>
      </trkpt>
      <trkpt lat="42.76498" lon="-0.20831">
        <ele>2517.2</ele>
        <time>2018-12-27T11:14:04Z</time>
      </trkpt>
      <trkpt lat="42.76497" lon="-0.20846">
        <ele>2517.4</ele>
        <time>2018-12-27T11:14:07Z</time>
      </trkpt>
      <trkpt lat="42.76498" lon="-0.20853">
        <ele>2516.8</ele>
        <time>2018-12-27T11:14:08Z</time>
      </trkpt>
      <trkpt lat="42.76499" lon="-0.20856">
        <ele>2516.2</ele>
        <time>2018-12-27T11:14:09Z</time>
      </trkpt>
      <trkpt lat="42.76501" lon="-0.20863">
        <ele>2514.9</ele>
        <time>2018-12-27T11:14:10Z</time>
      </trkpt>
      <trkpt lat="42.76501" lon="-0.20869">
        <ele>2514.8</ele>
        <time>2018-12-27T11:14:12Z</time>
      </trkpt>
      <trkpt lat="42.76501" lon="-0.2088">
        <ele>2514</ele>
        <time>2018-12-27T11:14:14Z</time>
      </trkpt>
      <trkpt lat="42.76502" lon="-0.20885">
        <ele>2513.1</ele>
        <time>2018-12-27T11:14:15Z</time>
      </trkpt>
      <trkpt lat="42.76502" lon="-0.20886">
        <ele>2512.9</ele>
        <time>2018-12-27T11:14:15Z</time>
      </trkpt>
      <trkpt lat="42.76501" lon="-0.2089">
        <ele>2512.8</ele>
        <time>2018-12-27T11:14:16Z</time>
      </trkpt>
      <trkpt lat="42.765" lon="-0.20893">
        <ele>2513.1</ele>
        <time>2018-12-27T11:14:16Z</time>
      </trkpt>
      <trkpt lat="42.76498" lon="-0.20895">
        <ele>2513.8</ele>
        <time>2018-12-27T11:14:17Z</time>
      </trkpt>
      <trkpt lat="42.76495" lon="-0.20897">
        <ele>2514.8</ele>
        <time>2018-12-27T11:14:18Z</time>
      </trkpt>
      <trkpt lat="42.76492" lon="-0.20899">
        <ele>2515.9</ele>
        <time>2018-12-27T11:14:19Z</time>
      </trkpt>
      <trkpt lat="42.76492" lon="-0.20901">
        <ele>2516.1</ele>
        <time>2018-12-27T11:14:19Z</time>
      </trkpt>
      <trkpt lat="42.76494" lon="-0.20907">
        <ele>2514.1</ele>
        <time>2018-12-27T11:14:20Z</time>
      </trkpt>
      <trkpt lat="42.76497" lon="-0.20918">
        <ele>2511.4</ele>
        <time>2018-12-27T11:14:23Z</time>
      </trkpt>
      <trkpt lat="42.765" lon="-0.20927">
        <ele>2509.2</ele>
        <time>2018-12-27T11:14:25Z</time>
      </trkpt>
      <trkpt lat="42.765" lon="-0.20928">
        <ele>2509</ele>
        <time>2018-12-27T11:14:25Z</time>
      </trkpt>
      <trkpt lat="42.76504" lon="-0.20938">
        <ele>2506.3</ele>
        <time>2018-12-27T11:14:27Z</time>
      </trkpt>
      <trkpt lat="42.76505" lon="-0.20941">
        <ele>2505.6</ele>
        <time>2018-12-27T11:14:28Z</time>
      </trkpt>
      <trkpt lat="42.76505" lon="-0.20943">
        <ele>2505.2</ele>
        <time>2018-12-27T11:14:28Z</time>
      </trkpt>
      <trkpt lat="42.76506" lon="-0.20951">
        <ele>2504.1</ele>
        <time>2018-12-27T11:14:30Z</time>
      </trkpt>
      <trkpt lat="42.76504" lon="-0.20963">
        <ele>2503.9</ele>
        <time>2018-12-27T11:14:32Z</time>
      </trkpt>
      <trkpt lat="42.76504" lon="-0.20966">
        <ele>2503.9</ele>
        <time>2018-12-27T11:14:33Z</time>
      </trkpt>
      <trkpt lat="42.76501" lon="-0.20975">
        <ele>2504.5</ele>
        <time>2018-12-27T11:14:35Z</time>
      </trkpt>
      <trkpt lat="42.76494" lon="-0.20986">
        <ele>2506.2</ele>
        <time>2018-12-27T11:14:38Z</time>
      </trkpt>
      <trkpt lat="42.76491" lon="-0.20998">
        <ele>2506.8</ele>
        <time>2018-12-27T11:14:40Z</time>
      </trkpt>
      <trkpt lat="42.76491" lon="-0.21007">
        <ele>2506.2</ele>
        <time>2018-12-27T11:14:42Z</time>
      </trkpt>
      <trkpt lat="42.76495" lon="-0.21014">
        <ele>2504.6</ele>
        <time>2018-12-27T11:14:44Z</time>
      </trkpt>
      <trkpt lat="42.76497" lon="-0.21023">
        <ele>2503.6</ele>
        <time>2018-12-27T11:14:45Z</time>
      </trkpt>
      <trkpt lat="42.76497" lon="-0.21026">
        <ele>2503.6</ele>
        <time>2018-12-27T11:14:46Z</time>
      </trkpt>
      <trkpt lat="42.76496" lon="-0.21036">
        <ele>2503.4</ele>
        <time>2018-12-27T11:14:48Z</time>
      </trkpt>
      <trkpt lat="42.76496" lon="-0.21039">
        <ele>2503.4</ele>
        <time>2018-12-27T11:14:48Z</time>
      </trkpt>
      <trkpt lat="42.76497" lon="-0.21045">
        <ele>2502</ele>
        <time>2018-12-27T11:14:50Z</time>
      </trkpt>
      <trkpt lat="42.76493" lon="-0.2105">
        <ele>2501.8</ele>
        <time>2018-12-27T11:14:51Z</time>
      </trkpt>
      <trkpt lat="42.76492" lon="-0.21054">
        <ele>2501.4</ele>
        <time>2018-12-27T11:14:52Z</time>
      </trkpt>
      <trkpt lat="42.7649" lon="-0.21058">
        <ele>2500.9</ele>
        <time>2018-12-27T11:14:53Z</time>
      </trkpt>
      <trkpt lat="42.76489" lon="-0.21067">
        <ele>2499.1</ele>
        <time>2018-12-27T11:14:55Z</time>
      </trkpt>
      <trkpt lat="42.76489" lon="-0.21071">
        <ele>2498.2</ele>
        <time>2018-12-27T11:14:56Z</time>
      </trkpt>
      <trkpt lat="42.76488" lon="-0.21074">
        <ele>2497.5</ele>
        <time>2018-12-27T11:14:56Z</time>
      </trkpt>
      <trkpt lat="42.76484" lon="-0.21086">
        <ele>2495.5</ele>
        <time>2018-12-27T11:14:59Z</time>
      </trkpt>
      <trkpt lat="42.76483" lon="-0.21088">
        <ele>2495.1</ele>
        <time>2018-12-27T11:14:59Z</time>
      </trkpt>
      <trkpt lat="42.76481" lon="-0.2109">
        <ele>2494.9</ele>
        <time>2018-12-27T11:15:00Z</time>
      </trkpt>
      <trkpt lat="42.76479" lon="-0.21096">
        <ele>2493.9</ele>
        <time>2018-12-27T11:15:01Z</time>
      </trkpt>
      <trkpt lat="42.76478" lon="-0.21103">
        <ele>2492.4</ele>
        <time>2018-12-27T11:15:03Z</time>
      </trkpt>
      <trkpt lat="42.76474" lon="-0.21108">
        <ele>2491.8</ele>
        <time>2018-12-27T11:15:04Z</time>
      </trkpt>
      <trkpt lat="42.76473" lon="-0.21109">
        <ele>2491.6</ele>
        <time>2018-12-27T11:15:04Z</time>
      </trkpt>
      <trkpt lat="42.7647" lon="-0.21112">
        <ele>2491.3</ele>
        <time>2018-12-27T11:15:05Z</time>
      </trkpt>
      <trkpt lat="42.76467" lon="-0.21112">
        <ele>2491.4</ele>
        <time>2018-12-27T11:15:06Z</time>
      </trkpt>
      <trkpt lat="42.76461" lon="-0.21118">
        <ele>2490.7</ele>
        <time>2018-12-27T11:15:08Z</time>
      </trkpt>
      <trkpt lat="42.76458" lon="-0.21121">
        <ele>2490.3</ele>
        <time>2018-12-27T11:15:09Z</time>
      </trkpt>
      <trkpt lat="42.76456" lon="-0.21124">
        <ele>2490.4</ele>
        <time>2018-12-27T11:15:10Z</time>
      </trkpt>
      <trkpt lat="42.76451" lon="-0.21127">
        <ele>2490.8</ele>
        <time>2018-12-27T11:15:11Z</time>
      </trkpt>
      <trkpt lat="42.76447" lon="-0.2113">
        <ele>2491.2</ele>
        <time>2018-12-27T11:15:13Z</time>
      </trkpt>
      <trkpt lat="42.76437" lon="-0.21136">
        <ele>2492.2</ele>
        <time>2018-12-27T11:15:15Z</time>
      </trkpt>
      <trkpt lat="42.76432" lon="-0.21144">
        <ele>2491</ele>
        <time>2018-12-27T11:15:17Z</time>
      </trkpt>
      <trkpt lat="42.76431" lon="-0.21146">
        <ele>2490.9</ele>
        <time>2018-12-27T11:15:18Z</time>
      </trkpt>
      <trkpt lat="42.76427" lon="-0.21154">
        <ele>2489.3</ele>
        <time>2018-12-27T11:15:20Z</time>
      </trkpt>
      <trkpt lat="42.76425" lon="-0.21156">
        <ele>2489.2</ele>
        <time>2018-12-27T11:15:20Z</time>
      </trkpt>
      <trkpt lat="42.76422" lon="-0.2116">
        <ele>2488.5</ele>
        <time>2018-12-27T11:15:22Z</time>
      </trkpt>
      <trkpt lat="42.7642" lon="-0.21163">
        <ele>2488.1</ele>
        <time>2018-12-27T11:15:22Z</time>
      </trkpt>
      <trkpt lat="42.76418" lon="-0.21166">
        <ele>2487.6</ele>
        <time>2018-12-27T11:15:23Z</time>
      </trkpt>
      <trkpt lat="42.76417" lon="-0.21169">
        <ele>2487.3</ele>
        <time>2018-12-27T11:15:24Z</time>
      </trkpt>
      <trkpt lat="42.76415" lon="-0.21172">
        <ele>2486.5</ele>
        <time>2018-12-27T11:15:25Z</time>
      </trkpt>
      <trkpt lat="42.76413" lon="-0.21174">
        <ele>2486.3</ele>
        <time>2018-12-27T11:15:25Z</time>
      </trkpt>
      <trkpt lat="42.76411" lon="-0.2118">
        <ele>2484.8</ele>
        <time>2018-12-27T11:15:27Z</time>
      </trkpt>
      <trkpt lat="42.7641" lon="-0.21186">
        <ele>2482.9</ele>
        <time>2018-12-27T11:15:28Z</time>
      </trkpt>
      <trkpt lat="42.76411" lon="-0.21195">
        <ele>2479.7</ele>
        <time>2018-12-27T11:15:30Z</time>
      </trkpt>
      <trkpt lat="42.76411" lon="-0.21201">
        <ele>2477.8</ele>
        <time>2018-12-27T11:15:31Z</time>
      </trkpt>
      <trkpt lat="42.76411" lon="-0.21202">
        <ele>2477.2</ele>
        <time>2018-12-27T11:15:31Z</time>
      </trkpt>
      <trkpt lat="42.76412" lon="-0.21207">
        <ele>2475.2</ele>
        <time>2018-12-27T11:15:32Z</time>
      </trkpt>
      <trkpt lat="42.7641" lon="-0.2122">
        <ele>2473.7</ele>
        <time>2018-12-27T11:15:35Z</time>
      </trkpt>
      <trkpt lat="42.76409" lon="-0.21224">
        <ele>2473.3</ele>
        <time>2018-12-27T11:15:36Z</time>
      </trkpt>
      <trkpt lat="42.76406" lon="-0.2123">
        <ele>2472.7</ele>
        <time>2018-12-27T11:15:37Z</time>
      </trkpt>
      <trkpt lat="42.76405" lon="-0.2124">
        <ele>2471.2</ele>
        <time>2018-12-27T11:15:39Z</time>
      </trkpt>
      <trkpt lat="42.76404" lon="-0.21242">
        <ele>2471</ele>
        <time>2018-12-27T11:15:39Z</time>
      </trkpt>
      <trkpt lat="42.76405" lon="-0.21244">
        <ele>2470.6</ele>
        <time>2018-12-27T11:15:40Z</time>
      </trkpt>
      <trkpt lat="42.76407" lon="-0.2125">
        <ele>2469.5</ele>
        <time>2018-12-27T11:15:41Z</time>
      </trkpt>
      <trkpt lat="42.76407" lon="-0.21258">
        <ele>2468.3</ele>
        <time>2018-12-27T11:15:43Z</time>
      </trkpt>
      <trkpt lat="42.7641" lon="-0.21265">
        <ele>2467.5</ele>
        <time>2018-12-27T11:15:44Z</time>
      </trkpt>
      <trkpt lat="42.76412" lon="-0.21271">
        <ele>2466.7</ele>
        <time>2018-12-27T11:15:45Z</time>
      </trkpt>
      <trkpt lat="42.76412" lon="-0.21272">
        <ele>2466.5</ele>
        <time>2018-12-27T11:15:46Z</time>
      </trkpt>
      <trkpt lat="42.76414" lon="-0.21276">
        <ele>2466.2</ele>
        <time>2018-12-27T11:15:47Z</time>
      </trkpt>
      <trkpt lat="42.76415" lon="-0.21279">
        <ele>2465.8</ele>
        <time>2018-12-27T11:15:47Z</time>
      </trkpt>
      <trkpt lat="42.76422" lon="-0.21288">
        <ele>2465.7</ele>
        <time>2018-12-27T11:15:50Z</time>
      </trkpt>
      <trkpt lat="42.76432" lon="-0.21299">
        <ele>2466.4</ele>
        <time>2018-12-27T11:15:53Z</time>
      </trkpt>
      <trkpt lat="42.76435" lon="-0.21304">
        <ele>2466.6</ele>
        <time>2018-12-27T11:15:55Z</time>
      </trkpt>
      <trkpt lat="42.76436" lon="-0.21307">
        <ele>2466.6</ele>
        <time>2018-12-27T11:15:55Z</time>
      </trkpt>
      <trkpt lat="42.76441" lon="-0.21317">
        <ele>2467.1</ele>
        <time>2018-12-27T11:15:58Z</time>
      </trkpt>
      <trkpt lat="42.76446" lon="-0.21328">
        <ele>2468</ele>
        <time>2018-12-27T11:16:00Z</time>
      </trkpt>
      <trkpt lat="42.76449" lon="-0.21342">
        <ele>2468.7</ele>
        <time>2018-12-27T11:16:03Z</time>
      </trkpt>
      <trkpt lat="42.7645" lon="-0.21353">
        <ele>2468.9</ele>
        <time>2018-12-27T11:16:05Z</time>
      </trkpt>
      <trkpt lat="42.7645" lon="-0.21355">
        <ele>2468.6</ele>
        <time>2018-12-27T11:16:06Z</time>
      </trkpt>
      <trkpt lat="42.76448" lon="-0.2136">
        <ele>2468.2</ele>
        <time>2018-12-27T11:16:07Z</time>
      </trkpt>
      <trkpt lat="42.76447" lon="-0.21368">
        <ele>2467.9</ele>
        <time>2018-12-27T11:16:08Z</time>
      </trkpt>
      <trkpt lat="42.76446" lon="-0.21371">
        <ele>2467.7</ele>
        <time>2018-12-27T11:16:09Z</time>
      </trkpt>
      <trkpt lat="42.76445" lon="-0.21375">
        <ele>2467.3</ele>
        <time>2018-12-27T11:16:10Z</time>
      </trkpt>
      <trkpt lat="42.76444" lon="-0.21382">
        <ele>2465.4</ele>
        <time>2018-12-27T11:16:11Z</time>
      </trkpt>
      <trkpt lat="42.76443" lon="-0.21383">
        <ele>2464.9</ele>
        <time>2018-12-27T11:16:11Z</time>
      </trkpt>
      <trkpt lat="42.7644" lon="-0.21389">
        <ele>2462.6</ele>
        <time>2018-12-27T11:16:13Z</time>
      </trkpt>
      <trkpt lat="42.76439" lon="-0.21391">
        <ele>2461.9</ele>
        <time>2018-12-27T11:16:13Z</time>
      </trkpt>
      <trkpt lat="42.76439" lon="-0.21394">
        <ele>2461.2</ele>
        <time>2018-12-27T11:16:14Z</time>
      </trkpt>
      <trkpt lat="42.76439" lon="-0.21395">
        <ele>2461</ele>
        <time>2018-12-27T11:16:14Z</time>
      </trkpt>
      <trkpt lat="42.76438" lon="-0.21401">
        <ele>2459.2</ele>
        <time>2018-12-27T11:16:15Z</time>
      </trkpt>
      <trkpt lat="42.76437" lon="-0.21403">
        <ele>2458.6</ele>
        <time>2018-12-27T11:16:16Z</time>
      </trkpt>
      <trkpt lat="42.76436" lon="-0.21404">
        <ele>2458.2</ele>
        <time>2018-12-27T11:16:16Z</time>
      </trkpt>
      <trkpt lat="42.76435" lon="-0.21407">
        <ele>2456.9</ele>
        <time>2018-12-27T11:16:17Z</time>
      </trkpt>
      <trkpt lat="42.76433" lon="-0.21413">
        <ele>2454.9</ele>
        <time>2018-12-27T11:16:18Z</time>
      </trkpt>
      <trkpt lat="42.76429" lon="-0.21421">
        <ele>2451.7</ele>
        <time>2018-12-27T11:16:20Z</time>
      </trkpt>
      <trkpt lat="42.76429" lon="-0.21422">
        <ele>2451.4</ele>
        <time>2018-12-27T11:16:20Z</time>
      </trkpt>
      <trkpt lat="42.76428" lon="-0.21428">
        <ele>2449.7</ele>
        <time>2018-12-27T11:16:21Z</time>
      </trkpt>
      <trkpt lat="42.76426" lon="-0.2143">
        <ele>2448.6</ele>
        <time>2018-12-27T11:16:22Z</time>
      </trkpt>
      <trkpt lat="42.76425" lon="-0.21433">
        <ele>2447.5</ele>
        <time>2018-12-27T11:16:22Z</time>
      </trkpt>
      <trkpt lat="42.76423" lon="-0.21441">
        <ele>2444.4</ele>
        <time>2018-12-27T11:16:24Z</time>
      </trkpt>
      <trkpt lat="42.76422" lon="-0.21445">
        <ele>2443</ele>
        <time>2018-12-27T11:16:25Z</time>
      </trkpt>
      <trkpt lat="42.76422" lon="-0.21446">
        <ele>2442.6</ele>
        <time>2018-12-27T11:16:25Z</time>
      </trkpt>
      <trkpt lat="42.76421" lon="-0.21455">
        <ele>2440.2</ele>
        <time>2018-12-27T11:16:27Z</time>
      </trkpt>
      <trkpt lat="42.76423" lon="-0.21461">
        <ele>2439.4</ele>
        <time>2018-12-27T11:16:28Z</time>
      </trkpt>
      <trkpt lat="42.76421" lon="-0.21465">
        <ele>2437</ele>
        <time>2018-12-27T11:16:29Z</time>
      </trkpt>
      <trkpt lat="42.76418" lon="-0.21466">
        <ele>2435.9</ele>
        <time>2018-12-27T11:16:30Z</time>
      </trkpt>
      <trkpt lat="42.76417" lon="-0.21466">
        <ele>2435.4</ele>
        <time>2018-12-27T11:16:30Z</time>
      </trkpt>
      <trkpt lat="42.76417" lon="-0.21468">
        <ele>2434.6</ele>
        <time>2018-12-27T11:16:30Z</time>
      </trkpt>
      <trkpt lat="42.76416" lon="-0.2147">
        <ele>2433.1</ele>
        <time>2018-12-27T11:16:31Z</time>
      </trkpt>
      <trkpt lat="42.76413" lon="-0.21479">
        <ele>2429.4</ele>
        <time>2018-12-27T11:16:33Z</time>
      </trkpt>
      <trkpt lat="42.76409" lon="-0.21481">
        <ele>2427</ele>
        <time>2018-12-27T11:16:34Z</time>
      </trkpt>
      <trkpt lat="42.76405" lon="-0.21479">
        <ele>2426.1</ele>
        <time>2018-12-27T11:16:35Z</time>
      </trkpt>
      <trkpt lat="42.76406" lon="-0.21487">
        <ele>2424</ele>
        <time>2018-12-27T11:16:37Z</time>
      </trkpt>
      <trkpt lat="42.76406" lon="-0.21489">
        <ele>2423.4</ele>
        <time>2018-12-27T11:16:37Z</time>
      </trkpt>
      <trkpt lat="42.76409" lon="-0.215">
        <ele>2421</ele>
        <time>2018-12-27T11:16:39Z</time>
      </trkpt>
      <trkpt lat="42.76408" lon="-0.21503">
        <ele>2419.8</ele>
        <time>2018-12-27T11:16:40Z</time>
      </trkpt>
      <trkpt lat="42.76405" lon="-0.21507">
        <ele>2417.4</ele>
        <time>2018-12-27T11:16:41Z</time>
      </trkpt>
      <trkpt lat="42.76399" lon="-0.21507">
        <ele>2414.8</ele>
        <time>2018-12-27T11:16:43Z</time>
      </trkpt>
      <trkpt lat="42.76398" lon="-0.21512">
        <ele>2412.9</ele>
        <time>2018-12-27T11:16:44Z</time>
      </trkpt>
      <trkpt lat="42.76397" lon="-0.21515">
        <ele>2411.4</ele>
        <time>2018-12-27T11:16:45Z</time>
      </trkpt>
      <trkpt lat="42.76397" lon="-0.21517">
        <ele>2410.9</ele>
        <time>2018-12-27T11:16:45Z</time>
      </trkpt>
      <trkpt lat="42.76397" lon="-0.21518">
        <ele>2410.7</ele>
        <time>2018-12-27T11:16:45Z</time>
      </trkpt>
      <trkpt lat="42.76393" lon="-0.21522">
        <ele>2407.9</ele>
        <time>2018-12-27T11:16:46Z</time>
      </trkpt>
      <trkpt lat="42.76391" lon="-0.21526">
        <ele>2405.6</ele>
        <time>2018-12-27T11:16:47Z</time>
      </trkpt>
      <trkpt lat="42.76392" lon="-0.21534">
        <ele>2403.5</ele>
        <time>2018-12-27T11:16:49Z</time>
      </trkpt>
      <trkpt lat="42.76392" lon="-0.21543">
        <ele>2400.9</ele>
        <time>2018-12-27T11:16:51Z</time>
      </trkpt>
      <trkpt lat="42.76393" lon="-0.21544">
        <ele>2400.8</ele>
        <time>2018-12-27T11:16:51Z</time>
      </trkpt>
      <trkpt lat="42.76393" lon="-0.21549">
        <ele>2399.3</ele>
        <time>2018-12-27T11:16:52Z</time>
      </trkpt>
      <trkpt lat="42.76391" lon="-0.21554">
        <ele>2397.4</ele>
        <time>2018-12-27T11:16:53Z</time>
      </trkpt>
      <trkpt lat="42.76392" lon="-0.21557">
        <ele>2396.5</ele>
        <time>2018-12-27T11:16:54Z</time>
      </trkpt>
      <trkpt lat="42.76393" lon="-0.21559">
        <ele>2396.3</ele>
        <time>2018-12-27T11:16:54Z</time>
      </trkpt>
      <trkpt lat="42.76393" lon="-0.21561">
        <ele>2396</ele>
        <time>2018-12-27T11:16:54Z</time>
      </trkpt>
      <trkpt lat="42.76394" lon="-0.21564">
        <ele>2395.3</ele>
        <time>2018-12-27T11:16:55Z</time>
      </trkpt>
      <trkpt lat="42.76394" lon="-0.21568">
        <ele>2393.9</ele>
        <time>2018-12-27T11:16:56Z</time>
      </trkpt>
      <trkpt lat="42.76394" lon="-0.2157">
        <ele>2393.3</ele>
        <time>2018-12-27T11:16:56Z</time>
      </trkpt>
      <trkpt lat="42.76395" lon="-0.21576">
        <ele>2391.8</ele>
        <time>2018-12-27T11:16:58Z</time>
      </trkpt>
      <trkpt lat="42.76396" lon="-0.21578">
        <ele>2391.5</ele>
        <time>2018-12-27T11:16:58Z</time>
      </trkpt>
      <trkpt lat="42.76395" lon="-0.21579">
        <ele>2390.9</ele>
        <time>2018-12-27T11:16:58Z</time>
      </trkpt>
      <trkpt lat="42.76395" lon="-0.21584">
        <ele>2389.3</ele>
        <time>2018-12-27T11:16:59Z</time>
      </trkpt>
      <trkpt lat="42.76391" lon="-0.21585">
        <ele>2387.4</ele>
        <time>2018-12-27T11:17:00Z</time>
      </trkpt>
      <trkpt lat="42.76386" lon="-0.21586">
        <ele>2385.8</ele>
        <time>2018-12-27T11:17:02Z</time>
      </trkpt>
      <trkpt lat="42.76386" lon="-0.21592">
        <ele>2383.9</ele>
        <time>2018-12-27T11:17:03Z</time>
      </trkpt>
      <trkpt lat="42.76383" lon="-0.21599">
        <ele>2381.1</ele>
        <time>2018-12-27T11:17:04Z</time>
      </trkpt>
      <trkpt lat="42.76386" lon="-0.21608">
        <ele>2379.1</ele>
        <time>2018-12-27T11:17:06Z</time>
      </trkpt>
      <trkpt lat="42.76387" lon="-0.21616">
        <ele>2377</ele>
        <time>2018-12-27T11:17:08Z</time>
      </trkpt>
      <trkpt lat="42.76386" lon="-0.21617">
        <ele>2376.2</ele>
        <time>2018-12-27T11:17:08Z</time>
      </trkpt>
      <trkpt lat="42.76385" lon="-0.21619">
        <ele>2375.4</ele>
        <time>2018-12-27T11:17:09Z</time>
      </trkpt>
      <trkpt lat="42.76381" lon="-0.21624">
        <ele>2373</ele>
        <time>2018-12-27T11:17:10Z</time>
      </trkpt>
      <trkpt lat="42.76384" lon="-0.21631">
        <ele>2370.8</ele>
        <time>2018-12-27T11:17:12Z</time>
      </trkpt>
      <trkpt lat="42.76384" lon="-0.21633">
        <ele>2370.3</ele>
        <time>2018-12-27T11:17:12Z</time>
      </trkpt>
      <trkpt lat="42.76384" lon="-0.21634">
        <ele>2369.8</ele>
        <time>2018-12-27T11:17:12Z</time>
      </trkpt>
      <trkpt lat="42.7638" lon="-0.21637">
        <ele>2367.8</ele>
        <time>2018-12-27T11:17:13Z</time>
      </trkpt>
      <trkpt lat="42.76379" lon="-0.21639">
        <ele>2366.3</ele>
        <time>2018-12-27T11:17:14Z</time>
      </trkpt>
      <trkpt lat="42.76378" lon="-0.21641">
        <ele>2365.3</ele>
        <time>2018-12-27T11:17:14Z</time>
      </trkpt>
      <trkpt lat="42.76377" lon="-0.21644">
        <ele>2363.9</ele>
        <time>2018-12-27T11:17:15Z</time>
      </trkpt>
      <trkpt lat="42.76376" lon="-0.2165">
        <ele>2361.4</ele>
        <time>2018-12-27T11:17:16Z</time>
      </trkpt>
      <trkpt lat="42.76377" lon="-0.21654">
        <ele>2359.8</ele>
        <time>2018-12-27T11:17:17Z</time>
      </trkpt>
      <trkpt lat="42.76378" lon="-0.21663">
        <ele>2356.8</ele>
        <time>2018-12-27T11:17:19Z</time>
      </trkpt>
      <trkpt lat="42.76379" lon="-0.21671">
        <ele>2353.8</ele>
        <time>2018-12-27T11:17:20Z</time>
      </trkpt>
      <trkpt lat="42.76379" lon="-0.21674">
        <ele>2352.6</ele>
        <time>2018-12-27T11:17:21Z</time>
      </trkpt>
      <trkpt lat="42.76379" lon="-0.21677">
        <ele>2351.6</ele>
        <time>2018-12-27T11:17:22Z</time>
      </trkpt>
      <trkpt lat="42.7638" lon="-0.21679">
        <ele>2351.3</ele>
        <time>2018-12-27T11:17:22Z</time>
      </trkpt>
      <trkpt lat="42.7638" lon="-0.21684">
        <ele>2349.2</ele>
        <time>2018-12-27T11:17:23Z</time>
      </trkpt>
      <trkpt lat="42.76381" lon="-0.21688">
        <ele>2347.8</ele>
        <time>2018-12-27T11:17:24Z</time>
      </trkpt>
      <trkpt lat="42.76381" lon="-0.21689">
        <ele>2347.7</ele>
        <time>2018-12-27T11:17:24Z</time>
      </trkpt>
      <trkpt lat="42.76381" lon="-0.2169">
        <ele>2347.3</ele>
        <time>2018-12-27T11:17:24Z</time>
      </trkpt>
      <trkpt lat="42.76382" lon="-0.21692">
        <ele>2346.5</ele>
        <time>2018-12-27T11:17:25Z</time>
      </trkpt>
      <trkpt lat="42.76383" lon="-0.21694">
        <ele>2346</ele>
        <time>2018-12-27T11:17:25Z</time>
      </trkpt>
      <trkpt lat="42.76384" lon="-0.21697">
        <ele>2345.1</ele>
        <time>2018-12-27T11:17:26Z</time>
      </trkpt>
      <trkpt lat="42.76385" lon="-0.21698">
        <ele>2345.1</ele>
        <time>2018-12-27T11:17:26Z</time>
      </trkpt>
      <trkpt lat="42.76384" lon="-0.217">
        <ele>2343.9</ele>
        <time>2018-12-27T11:17:27Z</time>
      </trkpt>
      <trkpt lat="42.76384" lon="-0.21702">
        <ele>2343.2</ele>
        <time>2018-12-27T11:17:27Z</time>
      </trkpt>
      <trkpt lat="42.76386" lon="-0.21704">
        <ele>2342.7</ele>
        <time>2018-12-27T11:17:28Z</time>
      </trkpt>
      <trkpt lat="42.76386" lon="-0.21707">
        <ele>2342</ele>
        <time>2018-12-27T11:17:28Z</time>
      </trkpt>
      <trkpt lat="42.76389" lon="-0.21712">
        <ele>2340.6</ele>
        <time>2018-12-27T11:17:29Z</time>
      </trkpt>
      <trkpt lat="42.76391" lon="-0.21716">
        <ele>2338.8</ele>
        <time>2018-12-27T11:17:30Z</time>
      </trkpt>
      <trkpt lat="42.76397" lon="-0.21727">
        <ele>2335.4</ele>
        <time>2018-12-27T11:17:33Z</time>
      </trkpt>
      <trkpt lat="42.76401" lon="-0.21733">
        <ele>2333.2</ele>
        <time>2018-12-27T11:17:35Z</time>
      </trkpt>
      <trkpt lat="42.76402" lon="-0.21736">
        <ele>2332.3</ele>
        <time>2018-12-27T11:17:35Z</time>
      </trkpt>
      <trkpt lat="42.76403" lon="-0.21743">
        <ele>2329.4</ele>
        <time>2018-12-27T11:17:37Z</time>
      </trkpt>
      <trkpt lat="42.76406" lon="-0.21745">
        <ele>2329</ele>
        <time>2018-12-27T11:17:37Z</time>
      </trkpt>
      <trkpt lat="42.76409" lon="-0.21749">
        <ele>2327.9</ele>
        <time>2018-12-27T11:17:39Z</time>
      </trkpt>
      <trkpt lat="42.76412" lon="-0.21758">
        <ele>2324.4</ele>
        <time>2018-12-27T11:17:40Z</time>
      </trkpt>
      <trkpt lat="42.76412" lon="-0.21759">
        <ele>2323.9</ele>
        <time>2018-12-27T11:17:41Z</time>
      </trkpt>
      <trkpt lat="42.76412" lon="-0.21761">
        <ele>2323</ele>
        <time>2018-12-27T11:17:41Z</time>
      </trkpt>
      <trkpt lat="42.76413" lon="-0.21762">
        <ele>2322.7</ele>
        <time>2018-12-27T11:17:41Z</time>
      </trkpt>
      <trkpt lat="42.76418" lon="-0.21767">
        <ele>2321.9</ele>
        <time>2018-12-27T11:17:43Z</time>
      </trkpt>
      <trkpt lat="42.7642" lon="-0.21772">
        <ele>2320.3</ele>
        <time>2018-12-27T11:17:44Z</time>
      </trkpt>
      <trkpt lat="42.76421" lon="-0.21775">
        <ele>2319.1</ele>
        <time>2018-12-27T11:17:45Z</time>
      </trkpt>
      <trkpt lat="42.76421" lon="-0.21776">
        <ele>2318.5</ele>
        <time>2018-12-27T11:17:45Z</time>
      </trkpt>
      <trkpt lat="42.76422" lon="-0.21779">
        <ele>2317.3</ele>
        <time>2018-12-27T11:17:46Z</time>
      </trkpt>
      <trkpt lat="42.76418" lon="-0.21782">
        <ele>2314.5</ele>
        <time>2018-12-27T11:17:47Z</time>
      </trkpt>
      <trkpt lat="42.76416" lon="-0.21788">
        <ele>2311.3</ele>
        <time>2018-12-27T11:17:48Z</time>
      </trkpt>
      <trkpt lat="42.76418" lon="-0.21793">
        <ele>2309.5</ele>
        <time>2018-12-27T11:17:49Z</time>
      </trkpt>
      <trkpt lat="42.76417" lon="-0.21797">
        <ele>2307.7</ele>
        <time>2018-12-27T11:17:50Z</time>
      </trkpt>
      <trkpt lat="42.76411" lon="-0.21794">
        <ele>2307</ele>
        <time>2018-12-27T11:17:51Z</time>
      </trkpt>
      <trkpt lat="42.7641" lon="-0.21794">
        <ele>2306.7</ele>
        <time>2018-12-27T11:17:52Z</time>
      </trkpt>
      <trkpt lat="42.7641" lon="-0.21798">
        <ele>2305.1</ele>
        <time>2018-12-27T11:17:53Z</time>
      </trkpt>
      <trkpt lat="42.76407" lon="-0.218">
        <ele>2303.4</ele>
        <time>2018-12-27T11:17:53Z</time>
      </trkpt>
      <trkpt lat="42.76408" lon="-0.21805">
        <ele>2302</ele>
        <time>2018-12-27T11:17:54Z</time>
      </trkpt>
      <trkpt lat="42.7641" lon="-0.2181">
        <ele>2300.8</ele>
        <time>2018-12-27T11:17:55Z</time>
      </trkpt>
      <trkpt lat="42.76409" lon="-0.21811">
        <ele>2300.2</ele>
        <time>2018-12-27T11:17:56Z</time>
      </trkpt>
      <trkpt lat="42.76411" lon="-0.21817">
        <ele>2298.6</ele>
        <time>2018-12-27T11:17:57Z</time>
      </trkpt>
      <trkpt lat="42.76413" lon="-0.21822">
        <ele>2297.2</ele>
        <time>2018-12-27T11:17:58Z</time>
      </trkpt>
      <trkpt lat="42.76414" lon="-0.21829">
        <ele>2294.6</ele>
        <time>2018-12-27T11:17:59Z</time>
      </trkpt>
      <trkpt lat="42.76413" lon="-0.21831">
        <ele>2293.6</ele>
        <time>2018-12-27T11:18:00Z</time>
      </trkpt>
      <trkpt lat="42.76416" lon="-0.21834">
        <ele>2293.1</ele>
        <time>2018-12-27T11:18:01Z</time>
      </trkpt>
      <trkpt lat="42.7642" lon="-0.2184">
        <ele>2291.7</ele>
        <time>2018-12-27T11:18:02Z</time>
      </trkpt>
      <trkpt lat="42.76417" lon="-0.21847">
        <ele>2288.5</ele>
        <time>2018-12-27T11:18:04Z</time>
      </trkpt>
      <trkpt lat="42.76414" lon="-0.21856">
        <ele>2284.2</ele>
        <time>2018-12-27T11:18:06Z</time>
      </trkpt>
      <trkpt lat="42.76414" lon="-0.21859">
        <ele>2283.2</ele>
        <time>2018-12-27T11:18:06Z</time>
      </trkpt>
      <trkpt lat="42.76413" lon="-0.21861">
        <ele>2282.3</ele>
        <time>2018-12-27T11:18:07Z</time>
      </trkpt>
      <trkpt lat="42.76411" lon="-0.21862">
        <ele>2281.3</ele>
        <time>2018-12-27T11:18:08Z</time>
      </trkpt>
      <trkpt lat="42.7641" lon="-0.21868">
        <ele>2279.2</ele>
        <time>2018-12-27T11:18:09Z</time>
      </trkpt>
      <trkpt lat="42.76411" lon="-0.21869">
        <ele>2278.8</ele>
        <time>2018-12-27T11:18:09Z</time>
      </trkpt>
      <trkpt lat="42.76412" lon="-0.21872">
        <ele>2278</ele>
        <time>2018-12-27T11:18:10Z</time>
      </trkpt>
      <trkpt lat="42.76412" lon="-0.21877">
        <ele>2275.7</ele>
        <time>2018-12-27T11:18:11Z</time>
      </trkpt>
      <trkpt lat="42.76413" lon="-0.21882">
        <ele>2273.6</ele>
        <time>2018-12-27T11:18:12Z</time>
      </trkpt>
      <trkpt lat="42.76412" lon="-0.21885">
        <ele>2272.2</ele>
        <time>2018-12-27T11:18:12Z</time>
      </trkpt>
      <trkpt lat="42.76412" lon="-0.21887">
        <ele>2271.1</ele>
        <time>2018-12-27T11:18:13Z</time>
      </trkpt>
      <trkpt lat="42.76412" lon="-0.21889">
        <ele>2270.2</ele>
        <time>2018-12-27T11:18:13Z</time>
      </trkpt>
      <trkpt lat="42.76408" lon="-0.21895">
        <ele>2266.8</ele>
        <time>2018-12-27T11:18:15Z</time>
      </trkpt>
      <trkpt lat="42.764" lon="-0.219">
        <ele>2263</ele>
        <time>2018-12-27T11:18:17Z</time>
      </trkpt>
      <trkpt lat="42.76396" lon="-0.21899">
        <ele>2262.9</ele>
        <time>2018-12-27T11:18:18Z</time>
      </trkpt>
      <trkpt lat="42.76392" lon="-0.21898">
        <ele>2262.7</ele>
        <time>2018-12-27T11:18:19Z</time>
      </trkpt>
      <trkpt lat="42.76391" lon="-0.21898">
        <ele>2262.5</ele>
        <time>2018-12-27T11:18:19Z</time>
      </trkpt>
      <trkpt lat="42.76387" lon="-0.21897">
        <ele>2262.3</ele>
        <time>2018-12-27T11:18:20Z</time>
      </trkpt>
      <trkpt lat="42.76383" lon="-0.21896">
        <ele>2262</ele>
        <time>2018-12-27T11:18:21Z</time>
      </trkpt>
      <trkpt lat="42.7638" lon="-0.21894">
        <ele>2261.9</ele>
        <time>2018-12-27T11:18:22Z</time>
      </trkpt>
      <trkpt lat="42.76378" lon="-0.21894">
        <ele>2261.6</ele>
        <time>2018-12-27T11:18:23Z</time>
      </trkpt>
      <trkpt lat="42.76372" lon="-0.21892">
        <ele>2261.2</ele>
        <time>2018-12-27T11:18:25Z</time>
      </trkpt>
      <trkpt lat="42.76367" lon="-0.21893">
        <ele>2259.6</ele>
        <time>2018-12-27T11:18:26Z</time>
      </trkpt>
      <trkpt lat="42.76366" lon="-0.21893">
        <ele>2259.1</ele>
        <time>2018-12-27T11:18:26Z</time>
      </trkpt>
      <trkpt lat="42.76362" lon="-0.21895">
        <ele>2257.3</ele>
        <time>2018-12-27T11:18:27Z</time>
      </trkpt>
      <trkpt lat="42.7636" lon="-0.21896">
        <ele>2256.2</ele>
        <time>2018-12-27T11:18:28Z</time>
      </trkpt>
      <trkpt lat="42.76358" lon="-0.21896">
        <ele>2255.9</ele>
        <time>2018-12-27T11:18:28Z</time>
      </trkpt>
      <trkpt lat="42.76351" lon="-0.21895">
        <ele>2254.4</ele>
        <time>2018-12-27T11:18:30Z</time>
      </trkpt>
      <trkpt lat="42.76348" lon="-0.219">
        <ele>2251.2</ele>
        <time>2018-12-27T11:18:31Z</time>
      </trkpt>
      <trkpt lat="42.76348" lon="-0.219">
        <ele>2251</ele>
        <time>2018-12-27T11:18:32Z</time>
      </trkpt>
      <trkpt lat="42.76346" lon="-0.219">
        <ele>2250.5</ele>
        <time>2018-12-27T11:18:32Z</time>
      </trkpt>
      <trkpt lat="42.76344" lon="-0.21901">
        <ele>2249.3</ele>
        <time>2018-12-27T11:18:33Z</time>
      </trkpt>
      <trkpt lat="42.7634" lon="-0.21904">
        <ele>2246.8</ele>
        <time>2018-12-27T11:18:34Z</time>
      </trkpt>
      <trkpt lat="42.76336" lon="-0.21904">
        <ele>2245.5</ele>
        <time>2018-12-27T11:18:35Z</time>
      </trkpt>
      <trkpt lat="42.76323" lon="-0.21904">
        <ele>2241.7</ele>
        <time>2018-12-27T11:18:38Z</time>
      </trkpt>
      <trkpt lat="42.76311" lon="-0.21906">
        <ele>2237.3</ele>
        <time>2018-12-27T11:18:42Z</time>
      </trkpt>
      <trkpt lat="42.763" lon="-0.21912">
        <ele>2230.8</ele>
        <time>2018-12-27T11:18:45Z</time>
      </trkpt>
      <trkpt lat="42.76288" lon="-0.21922">
        <ele>2221.6</ele>
        <time>2018-12-27T11:18:48Z</time>
      </trkpt>
      <trkpt lat="42.76279" lon="-0.21923">
        <ele>2218.7</ele>
        <time>2018-12-27T11:18:51Z</time>
      </trkpt>
      <trkpt lat="42.76282" lon="-0.21929">
        <ele>2215.7</ele>
        <time>2018-12-27T11:18:52Z</time>
      </trkpt>
      <trkpt lat="42.76285" lon="-0.21932">
        <ele>2214.6</ele>
        <time>2018-12-27T11:18:53Z</time>
      </trkpt>
      <trkpt lat="42.76285" lon="-0.21934">
        <ele>2213.7</ele>
        <time>2018-12-27T11:18:54Z</time>
      </trkpt>
      <trkpt lat="42.76277" lon="-0.21932">
        <ele>2213.1</ele>
        <time>2018-12-27T11:18:56Z</time>
      </trkpt>
      <trkpt lat="42.76264" lon="-0.21924">
        <ele>2215</ele>
        <time>2018-12-27T11:18:59Z</time>
      </trkpt>
      <trkpt lat="42.76262" lon="-0.21923">
        <ele>2215.3</ele>
        <time>2018-12-27T11:19:00Z</time>
      </trkpt>
      <trkpt lat="42.76248" lon="-0.21919">
        <ele>2214.6</ele>
        <time>2018-12-27T11:19:04Z</time>
      </trkpt>
      <trkpt lat="42.76238" lon="-0.21909">
        <ele>2218</ele>
        <time>2018-12-27T11:19:07Z</time>
      </trkpt>
      <trkpt lat="42.76231" lon="-0.21903">
        <ele>2220.3</ele>
        <time>2018-12-27T11:19:09Z</time>
      </trkpt>
      <trkpt lat="42.76226" lon="-0.21899">
        <ele>2221.4</ele>
        <time>2018-12-27T11:19:11Z</time>
      </trkpt>
      <trkpt lat="42.76215" lon="-0.21889">
        <ele>2225.4</ele>
        <time>2018-12-27T11:19:14Z</time>
      </trkpt>
      <trkpt lat="42.76209" lon="-0.21888">
        <ele>2224.8</ele>
        <time>2018-12-27T11:19:16Z</time>
      </trkpt>
      <trkpt lat="42.76209" lon="-0.2189">
        <ele>2223.2</ele>
        <time>2018-12-27T11:19:17Z</time>
      </trkpt>
      <trkpt lat="42.76211" lon="-0.21895">
        <ele>2220.5</ele>
        <time>2018-12-27T11:19:18Z</time>
      </trkpt>
      <trkpt lat="42.76204" lon="-0.21902">
        <ele>2216</ele>
        <time>2018-12-27T11:19:20Z</time>
      </trkpt>
      <trkpt lat="42.76202" lon="-0.21904">
        <ele>2214.7</ele>
        <time>2018-12-27T11:19:21Z</time>
      </trkpt>
      <trkpt lat="42.76196" lon="-0.21912">
        <ele>2210.2</ele>
        <time>2018-12-27T11:19:23Z</time>
      </trkpt>
      <trkpt lat="42.76189" lon="-0.2192">
        <ele>2205.5</ele>
        <time>2018-12-27T11:19:26Z</time>
      </trkpt>
      <trkpt lat="42.76177" lon="-0.21927">
        <ele>2201.6</ele>
        <time>2018-12-27T11:19:29Z</time>
      </trkpt>
      <trkpt lat="42.76166" lon="-0.21932">
        <ele>2199</ele>
        <time>2018-12-27T11:19:32Z</time>
      </trkpt>
      <trkpt lat="42.76161" lon="-0.21931">
        <ele>2199.8</ele>
        <time>2018-12-27T11:19:33Z</time>
      </trkpt>
      <trkpt lat="42.76156" lon="-0.2193">
        <ele>2200.6</ele>
        <time>2018-12-27T11:19:35Z</time>
      </trkpt>
      <trkpt lat="42.76146" lon="-0.21937">
        <ele>2196.8</ele>
        <time>2018-12-27T11:19:38Z</time>
      </trkpt>
      <trkpt lat="42.76137" lon="-0.21948">
        <ele>2191</ele>
        <time>2018-12-27T11:19:41Z</time>
      </trkpt>
      <trkpt lat="42.76127" lon="-0.21959">
        <ele>2185.5</ele>
        <time>2018-12-27T11:19:44Z</time>
      </trkpt>
      <trkpt lat="42.76125" lon="-0.21963">
        <ele>2183.4</ele>
        <time>2018-12-27T11:19:45Z</time>
      </trkpt>
      <trkpt lat="42.76122" lon="-0.21965">
        <ele>2181.9</ele>
        <time>2018-12-27T11:19:46Z</time>
      </trkpt>
      <trkpt lat="42.7611" lon="-0.21968">
        <ele>2181.1</ele>
        <time>2018-12-27T11:19:49Z</time>
      </trkpt>
      <trkpt lat="42.76102" lon="-0.21971">
        <ele>2179.7</ele>
        <time>2018-12-27T11:19:52Z</time>
      </trkpt>
      <trkpt lat="42.76101" lon="-0.21971">
        <ele>2179.3</ele>
        <time>2018-12-27T11:19:52Z</time>
      </trkpt>
      <trkpt lat="42.76093" lon="-0.21979">
        <ele>2174.6</ele>
        <time>2018-12-27T11:19:55Z</time>
      </trkpt>
      <trkpt lat="42.76092" lon="-0.21985">
        <ele>2171.3</ele>
        <time>2018-12-27T11:19:56Z</time>
      </trkpt>
      <trkpt lat="42.76094" lon="-0.21986">
        <ele>2170.6</ele>
        <time>2018-12-27T11:19:56Z</time>
      </trkpt>
      <trkpt lat="42.76101" lon="-0.21987">
        <ele>2169.3</ele>
        <time>2018-12-27T11:19:58Z</time>
      </trkpt>
      <trkpt lat="42.76104" lon="-0.21988">
        <ele>2169.1</ele>
        <time>2018-12-27T11:19:59Z</time>
      </trkpt>
      <trkpt lat="42.76114" lon="-0.21992">
        <ele>2166</ele>
        <time>2018-12-27T11:20:02Z</time>
      </trkpt>
      <trkpt lat="42.76118" lon="-0.21993">
        <ele>2165.2</ele>
        <time>2018-12-27T11:20:03Z</time>
      </trkpt>
      <trkpt lat="42.76122" lon="-0.21995">
        <ele>2163.8</ele>
        <time>2018-12-27T11:20:04Z</time>
      </trkpt>
      <trkpt lat="42.76132" lon="-0.21997">
        <ele>2162.2</ele>
        <time>2018-12-27T11:20:07Z</time>
      </trkpt>
      <trkpt lat="42.7614" lon="-0.21996">
        <ele>2162.3</ele>
        <time>2018-12-27T11:20:09Z</time>
      </trkpt>
      <trkpt lat="42.7614" lon="-0.21998">
        <ele>2161.6</ele>
        <time>2018-12-27T11:20:09Z</time>
      </trkpt>
      <trkpt lat="42.76135" lon="-0.22003">
        <ele>2158.2</ele>
        <time>2018-12-27T11:20:11Z</time>
      </trkpt>
      <trkpt lat="42.76132" lon="-0.22006">
        <ele>2156.7</ele>
        <time>2018-12-27T11:20:12Z</time>
      </trkpt>
      <trkpt lat="42.7612" lon="-0.22014">
        <ele>2152.1</ele>
        <time>2018-12-27T11:20:15Z</time>
      </trkpt>
      <trkpt lat="42.76108" lon="-0.22019">
        <ele>2149.5</ele>
        <time>2018-12-27T11:20:19Z</time>
      </trkpt>
      <trkpt lat="42.76107" lon="-0.2202">
        <ele>2148.6</ele>
        <time>2018-12-27T11:20:19Z</time>
      </trkpt>
      <trkpt lat="42.76112" lon="-0.22024">
        <ele>2146.3</ele>
        <time>2018-12-27T11:20:21Z</time>
      </trkpt>
      <trkpt lat="42.76121" lon="-0.22027">
        <ele>2144.1</ele>
        <time>2018-12-27T11:20:23Z</time>
      </trkpt>
      <trkpt lat="42.76141" lon="-0.22029">
        <ele>2142.9</ele>
        <time>2018-12-27T11:20:29Z</time>
      </trkpt>
      <trkpt lat="42.76143" lon="-0.2203">
        <ele>2141.7</ele>
        <time>2018-12-27T11:20:29Z</time>
      </trkpt>
      <trkpt lat="42.76133" lon="-0.22042">
        <ele>2134.9</ele>
        <time>2018-12-27T11:20:33Z</time>
      </trkpt>
      <trkpt lat="42.76123" lon="-0.22047">
        <ele>2132.1</ele>
        <time>2018-12-27T11:20:36Z</time>
      </trkpt>
      <trkpt lat="42.76118" lon="-0.22052">
        <ele>2129.4</ele>
        <time>2018-12-27T11:20:37Z</time>
      </trkpt>
      <trkpt lat="42.76121" lon="-0.22054">
        <ele>2128.2</ele>
        <time>2018-12-27T11:20:38Z</time>
      </trkpt>
      <trkpt lat="42.7613" lon="-0.22057">
        <ele>2126.7</ele>
        <time>2018-12-27T11:20:41Z</time>
      </trkpt>
      <trkpt lat="42.76136" lon="-0.22057">
        <ele>2126.6</ele>
        <time>2018-12-27T11:20:42Z</time>
      </trkpt>
      <trkpt lat="42.7615" lon="-0.22056">
        <ele>2126.6</ele>
        <time>2018-12-27T11:20:46Z</time>
      </trkpt>
      <trkpt lat="42.76158" lon="-0.22057">
        <ele>2126.1</ele>
        <time>2018-12-27T11:20:48Z</time>
      </trkpt>
      <trkpt lat="42.76157" lon="-0.22059">
        <ele>2124.8</ele>
        <time>2018-12-27T11:20:49Z</time>
      </trkpt>
      <trkpt lat="42.76157" lon="-0.22064">
        <ele>2122.1</ele>
        <time>2018-12-27T11:20:50Z</time>
      </trkpt>
      <trkpt lat="42.76154" lon="-0.22066">
        <ele>2120.8</ele>
        <time>2018-12-27T11:20:51Z</time>
      </trkpt>
      <trkpt lat="42.76151" lon="-0.22071">
        <ele>2118.2</ele>
        <time>2018-12-27T11:20:52Z</time>
      </trkpt>
      <trkpt lat="42.76142" lon="-0.2208">
        <ele>2113.2</ele>
        <time>2018-12-27T11:20:55Z</time>
      </trkpt>
      <trkpt lat="42.76139" lon="-0.22081">
        <ele>2113</ele>
        <time>2018-12-27T11:20:56Z</time>
      </trkpt>
      <trkpt lat="42.76131" lon="-0.22084">
        <ele>2111.7</ele>
        <time>2018-12-27T11:20:58Z</time>
      </trkpt>
      <trkpt lat="42.76123" lon="-0.22089">
        <ele>2108.9</ele>
        <time>2018-12-27T11:21:00Z</time>
      </trkpt>
      <trkpt lat="42.7613" lon="-0.22092">
        <ele>2107</ele>
        <time>2018-12-27T11:21:02Z</time>
      </trkpt>
      <trkpt lat="42.7614" lon="-0.22095">
        <ele>2104.9</ele>
        <time>2018-12-27T11:21:05Z</time>
      </trkpt>
      <trkpt lat="42.76149" lon="-0.22096">
        <ele>2103.9</ele>
        <time>2018-12-27T11:21:08Z</time>
      </trkpt>
      <trkpt lat="42.76164" lon="-0.22091">
        <ele>2105.9</ele>
        <time>2018-12-27T11:21:12Z</time>
      </trkpt>
      <trkpt lat="42.76166" lon="-0.22092">
        <ele>2105.6</ele>
        <time>2018-12-27T11:21:12Z</time>
      </trkpt>
      <trkpt lat="42.7617" lon="-0.22092">
        <ele>2105.4</ele>
        <time>2018-12-27T11:21:13Z</time>
      </trkpt>
      <trkpt lat="42.76181" lon="-0.22098">
        <ele>2101.3</ele>
        <time>2018-12-27T11:21:17Z</time>
      </trkpt>
      <trkpt lat="42.76189" lon="-0.22101">
        <ele>2098.8</ele>
        <time>2018-12-27T11:21:19Z</time>
      </trkpt>
      <trkpt lat="42.76191" lon="-0.22102">
        <ele>2097.8</ele>
        <time>2018-12-27T11:21:19Z</time>
      </trkpt>
      <trkpt lat="42.76186" lon="-0.22104">
        <ele>2097.1</ele>
        <time>2018-12-27T11:21:21Z</time>
      </trkpt>
      <trkpt lat="42.76174" lon="-0.2211">
        <ele>2094.4</ele>
        <time>2018-12-27T11:21:24Z</time>
      </trkpt>
      <trkpt lat="42.76167" lon="-0.22115">
        <ele>2092</ele>
        <time>2018-12-27T11:21:26Z</time>
      </trkpt>
      <trkpt lat="42.76166" lon="-0.22118">
        <ele>2090.2</ele>
        <time>2018-12-27T11:21:27Z</time>
      </trkpt>
      <trkpt lat="42.76164" lon="-0.2212">
        <ele>2089.2</ele>
        <time>2018-12-27T11:21:28Z</time>
      </trkpt>
      <trkpt lat="42.76162" lon="-0.22125">
        <ele>2086.7</ele>
        <time>2018-12-27T11:21:29Z</time>
      </trkpt>
      <trkpt lat="42.76158" lon="-0.22129">
        <ele>2084.4</ele>
        <time>2018-12-27T11:21:30Z</time>
      </trkpt>
      <trkpt lat="42.76152" lon="-0.22134">
        <ele>2082.6</ele>
        <time>2018-12-27T11:21:32Z</time>
      </trkpt>
      <trkpt lat="42.76142" lon="-0.22141">
        <ele>2079.5</ele>
        <time>2018-12-27T11:21:35Z</time>
      </trkpt>
      <trkpt lat="42.76134" lon="-0.22146">
        <ele>2077.6</ele>
        <time>2018-12-27T11:21:37Z</time>
      </trkpt>
      <trkpt lat="42.76131" lon="-0.2215">
        <ele>2076.1</ele>
        <time>2018-12-27T11:21:38Z</time>
      </trkpt>
      <trkpt lat="42.76133" lon="-0.2215">
        <ele>2075.7</ele>
        <time>2018-12-27T11:21:39Z</time>
      </trkpt>
      <trkpt lat="42.76142" lon="-0.22153">
        <ele>2073.7</ele>
        <time>2018-12-27T11:21:41Z</time>
      </trkpt>
      <trkpt lat="42.76148" lon="-0.22156">
        <ele>2071.7</ele>
        <time>2018-12-27T11:21:43Z</time>
      </trkpt>
      <trkpt lat="42.76156" lon="-0.22157">
        <ele>2070.3</ele>
        <time>2018-12-27T11:21:45Z</time>
      </trkpt>
      <trkpt lat="42.76166" lon="-0.22156">
        <ele>2069.8</ele>
        <time>2018-12-27T11:21:48Z</time>
      </trkpt>
      <trkpt lat="42.76174" lon="-0.22154">
        <ele>2070.2</ele>
        <time>2018-12-27T11:21:50Z</time>
      </trkpt>
      <trkpt lat="42.76179" lon="-0.22154">
        <ele>2070</ele>
        <time>2018-12-27T11:21:51Z</time>
      </trkpt>
      <trkpt lat="42.7619" lon="-0.22158">
        <ele>2066.7</ele>
        <time>2018-12-27T11:21:54Z</time>
      </trkpt>
      <trkpt lat="42.762" lon="-0.22159">
        <ele>2065.6</ele>
        <time>2018-12-27T11:21:57Z</time>
      </trkpt>
      <trkpt lat="42.76214" lon="-0.22155">
        <ele>2066.8</ele>
        <time>2018-12-27T11:22:01Z</time>
      </trkpt>
      <trkpt lat="42.76225" lon="-0.22156">
        <ele>2066.5</ele>
        <time>2018-12-27T11:22:04Z</time>
      </trkpt>
      <trkpt lat="42.76216" lon="-0.2216">
        <ele>2064.3</ele>
        <time>2018-12-27T11:22:07Z</time>
      </trkpt>
      <trkpt lat="42.76203" lon="-0.22172">
        <ele>2058.1</ele>
        <time>2018-12-27T11:22:11Z</time>
      </trkpt>
      <trkpt lat="42.76188" lon="-0.22178">
        <ele>2056.2</ele>
        <time>2018-12-27T11:22:15Z</time>
      </trkpt>
      <trkpt lat="42.76182" lon="-0.22181">
        <ele>2055.3</ele>
        <time>2018-12-27T11:22:17Z</time>
      </trkpt>
      <trkpt lat="42.76181" lon="-0.22181">
        <ele>2055.3</ele>
        <time>2018-12-27T11:22:17Z</time>
      </trkpt>
      <trkpt lat="42.76176" lon="-0.22187">
        <ele>2052.9</ele>
        <time>2018-12-27T11:22:19Z</time>
      </trkpt>
      <trkpt lat="42.7617" lon="-0.22194">
        <ele>2049.8</ele>
        <time>2018-12-27T11:22:21Z</time>
      </trkpt>
      <trkpt lat="42.76167" lon="-0.22196">
        <ele>2049.2</ele>
        <time>2018-12-27T11:22:22Z</time>
      </trkpt>
      <trkpt lat="42.76157" lon="-0.22201">
        <ele>2047.5</ele>
        <time>2018-12-27T11:22:25Z</time>
      </trkpt>
      <trkpt lat="42.76145" lon="-0.22207">
        <ele>2045.6</ele>
        <time>2018-12-27T11:22:28Z</time>
      </trkpt>
      <trkpt lat="42.76145" lon="-0.2221">
        <ele>2044.4</ele>
        <time>2018-12-27T11:22:28Z</time>
      </trkpt>
      <trkpt lat="42.76148" lon="-0.2221">
        <ele>2044.1</ele>
        <time>2018-12-27T11:22:29Z</time>
      </trkpt>
      <trkpt lat="42.7616" lon="-0.22213">
        <ele>2041.2</ele>
        <time>2018-12-27T11:22:32Z</time>
      </trkpt>
      <trkpt lat="42.76162" lon="-0.22214">
        <ele>2040.8</ele>
        <time>2018-12-27T11:22:33Z</time>
      </trkpt>
      <trkpt lat="42.76172" lon="-0.22217">
        <ele>2038.4</ele>
        <time>2018-12-27T11:22:36Z</time>
      </trkpt>
      <trkpt lat="42.76175" lon="-0.22217">
        <ele>2038</ele>
        <time>2018-12-27T11:22:37Z</time>
      </trkpt>
      <trkpt lat="42.7618" lon="-0.22215">
        <ele>2038.3</ele>
        <time>2018-12-27T11:22:38Z</time>
      </trkpt>
      <trkpt lat="42.76189" lon="-0.2222">
        <ele>2035.3</ele>
        <time>2018-12-27T11:22:41Z</time>
      </trkpt>
      <trkpt lat="42.76205" lon="-0.22223">
        <ele>2032.7</ele>
        <time>2018-12-27T11:22:45Z</time>
      </trkpt>
      <trkpt lat="42.76213" lon="-0.22225">
        <ele>2031.7</ele>
        <time>2018-12-27T11:22:47Z</time>
      </trkpt>
      <trkpt lat="42.76217" lon="-0.22226">
        <ele>2031.3</ele>
        <time>2018-12-27T11:22:48Z</time>
      </trkpt>
      <trkpt lat="42.76217" lon="-0.22227">
        <ele>2030.9</ele>
        <time>2018-12-27T11:22:48Z</time>
      </trkpt>
      <trkpt lat="42.76213" lon="-0.2223">
        <ele>2030</ele>
        <time>2018-12-27T11:22:50Z</time>
      </trkpt>
      <trkpt lat="42.76203" lon="-0.22236">
        <ele>2028</ele>
        <time>2018-12-27T11:22:52Z</time>
      </trkpt>
      <trkpt lat="42.762" lon="-0.22239">
        <ele>2027.1</ele>
        <time>2018-12-27T11:22:53Z</time>
      </trkpt>
      <trkpt lat="42.76189" lon="-0.22248">
        <ele>2024.1</ele>
        <time>2018-12-27T11:22:57Z</time>
      </trkpt>
      <trkpt lat="42.76182" lon="-0.22252">
        <ele>2023.1</ele>
        <time>2018-12-27T11:22:59Z</time>
      </trkpt>
      <trkpt lat="42.7618" lon="-0.22251">
        <ele>2023.5</ele>
        <time>2018-12-27T11:22:59Z</time>
      </trkpt>
      <trkpt lat="42.76174" lon="-0.22256">
        <ele>2022</ele>
        <time>2018-12-27T11:23:01Z</time>
      </trkpt>
      <trkpt lat="42.76164" lon="-0.22258">
        <ele>2021.7</ele>
        <time>2018-12-27T11:23:04Z</time>
      </trkpt>
      <trkpt lat="42.76161" lon="-0.22258">
        <ele>2021.5</ele>
        <time>2018-12-27T11:23:05Z</time>
      </trkpt>
      <trkpt lat="42.76158" lon="-0.22261">
        <ele>2020.5</ele>
        <time>2018-12-27T11:23:06Z</time>
      </trkpt>
      <trkpt lat="42.7616" lon="-0.22265">
        <ele>2018.9</ele>
        <time>2018-12-27T11:23:07Z</time>
      </trkpt>
      <trkpt lat="42.76166" lon="-0.22267">
        <ele>2017.4</ele>
        <time>2018-12-27T11:23:08Z</time>
      </trkpt>
      <trkpt lat="42.76173" lon="-0.22271">
        <ele>2015.7</ele>
        <time>2018-12-27T11:23:10Z</time>
      </trkpt>
      <trkpt lat="42.76183" lon="-0.22274">
        <ele>2014.1</ele>
        <time>2018-12-27T11:23:13Z</time>
      </trkpt>
      <trkpt lat="42.76186" lon="-0.22276">
        <ele>2012.9</ele>
        <time>2018-12-27T11:23:14Z</time>
      </trkpt>
      <trkpt lat="42.76194" lon="-0.2228">
        <ele>2011.2</ele>
        <time>2018-12-27T11:23:16Z</time>
      </trkpt>
      <trkpt lat="42.76205" lon="-0.22282">
        <ele>2009.8</ele>
        <time>2018-12-27T11:23:19Z</time>
      </trkpt>
      <trkpt lat="42.76208" lon="-0.22283">
        <ele>2009.5</ele>
        <time>2018-12-27T11:23:20Z</time>
      </trkpt>
      <trkpt lat="42.76205" lon="-0.22287">
        <ele>2007.8</ele>
        <time>2018-12-27T11:23:21Z</time>
      </trkpt>
      <trkpt lat="42.76191" lon="-0.22295">
        <ele>2005.1</ele>
        <time>2018-12-27T11:23:25Z</time>
      </trkpt>
      <trkpt lat="42.76189" lon="-0.22296">
        <ele>2004.8</ele>
        <time>2018-12-27T11:23:26Z</time>
      </trkpt>
      <trkpt lat="42.76183" lon="-0.22302">
        <ele>2002.8</ele>
        <time>2018-12-27T11:23:28Z</time>
      </trkpt>
      <trkpt lat="42.7618" lon="-0.22306">
        <ele>2001.4</ele>
        <time>2018-12-27T11:23:29Z</time>
      </trkpt>
      <trkpt lat="42.76183" lon="-0.22308">
        <ele>2000.4</ele>
        <time>2018-12-27T11:23:30Z</time>
      </trkpt>
      <trkpt lat="42.7619" lon="-0.22309">
        <ele>1999.6</ele>
        <time>2018-12-27T11:23:32Z</time>
      </trkpt>
      <trkpt lat="42.76195" lon="-0.22312">
        <ele>1998.2</ele>
        <time>2018-12-27T11:23:33Z</time>
      </trkpt>
      <trkpt lat="42.76207" lon="-0.22315">
        <ele>1996.1</ele>
        <time>2018-12-27T11:23:36Z</time>
      </trkpt>
      <trkpt lat="42.76208" lon="-0.22316">
        <ele>1995.8</ele>
        <time>2018-12-27T11:23:37Z</time>
      </trkpt>
      <trkpt lat="42.76204" lon="-0.22319">
        <ele>1995</ele>
        <time>2018-12-27T11:23:38Z</time>
      </trkpt>
      <trkpt lat="42.76196" lon="-0.22324">
        <ele>1993.2</ele>
        <time>2018-12-27T11:23:40Z</time>
      </trkpt>
      <trkpt lat="42.7619" lon="-0.22327">
        <ele>1992.3</ele>
        <time>2018-12-27T11:23:42Z</time>
      </trkpt>
      <trkpt lat="42.76179" lon="-0.22335">
        <ele>1990.1</ele>
        <time>2018-12-27T11:23:45Z</time>
      </trkpt>
      <trkpt lat="42.76179" lon="-0.22337">
        <ele>1989.4</ele>
        <time>2018-12-27T11:23:46Z</time>
      </trkpt>
      <trkpt lat="42.76182" lon="-0.22339">
        <ele>1988.3</ele>
        <time>2018-12-27T11:23:46Z</time>
      </trkpt>
      <trkpt lat="42.76187" lon="-0.2234">
        <ele>1987.7</ele>
        <time>2018-12-27T11:23:48Z</time>
      </trkpt>
      <trkpt lat="42.76197" lon="-0.22341">
        <ele>1986.4</ele>
        <time>2018-12-27T11:23:50Z</time>
      </trkpt>
      <trkpt lat="42.76211" lon="-0.22344">
        <ele>1983.9</ele>
        <time>2018-12-27T11:23:54Z</time>
      </trkpt>
      <trkpt lat="42.76219" lon="-0.22347">
        <ele>1981.9</ele>
        <time>2018-12-27T11:23:56Z</time>
      </trkpt>
      <trkpt lat="42.76212" lon="-0.2235">
        <ele>1981.1</ele>
        <time>2018-12-27T11:23:58Z</time>
      </trkpt>
      <trkpt lat="42.76206" lon="-0.22354">
        <ele>1980.2</ele>
        <time>2018-12-27T11:24:00Z</time>
      </trkpt>
      <trkpt lat="42.76198" lon="-0.22358">
        <ele>1979.3</ele>
        <time>2018-12-27T11:24:02Z</time>
      </trkpt>
      <trkpt lat="42.76185" lon="-0.22369">
        <ele>1976.7</ele>
        <time>2018-12-27T11:24:06Z</time>
      </trkpt>
      <trkpt lat="42.76183" lon="-0.22371">
        <ele>1976.2</ele>
        <time>2018-12-27T11:24:07Z</time>
      </trkpt>
      <trkpt lat="42.76181" lon="-0.22373">
        <ele>1975.2</ele>
        <time>2018-12-27T11:24:08Z</time>
      </trkpt>
      <trkpt lat="42.76177" lon="-0.22377">
        <ele>1974.4</ele>
        <time>2018-12-27T11:24:09Z</time>
      </trkpt>
      <trkpt lat="42.76171" lon="-0.22381">
        <ele>1973.5</ele>
        <time>2018-12-27T11:24:11Z</time>
      </trkpt>
      <trkpt lat="42.7617" lon="-0.22381">
        <ele>1973.8</ele>
        <time>2018-12-27T11:24:11Z</time>
      </trkpt>
      <trkpt lat="42.76164" lon="-0.2238">
        <ele>1975</ele>
        <time>2018-12-27T11:24:13Z</time>
      </trkpt>
      <trkpt lat="42.7616" lon="-0.22386">
        <ele>1973.7</ele>
        <time>2018-12-27T11:24:14Z</time>
      </trkpt>
      <trkpt lat="42.76156" lon="-0.22388">
        <ele>1973.6</ele>
        <time>2018-12-27T11:24:16Z</time>
      </trkpt>
      <trkpt lat="42.7615" lon="-0.22391">
        <ele>1973.3</ele>
        <time>2018-12-27T11:24:17Z</time>
      </trkpt>
      <trkpt lat="42.76148" lon="-0.22393">
        <ele>1973</ele>
        <time>2018-12-27T11:24:18Z</time>
      </trkpt>
      <trkpt lat="42.7614" lon="-0.22399">
        <ele>1972.6</ele>
        <time>2018-12-27T11:24:20Z</time>
      </trkpt>
      <trkpt lat="42.7613" lon="-0.22406">
        <ele>1972.5</ele>
        <time>2018-12-27T11:24:23Z</time>
      </trkpt>
      <trkpt lat="42.7612" lon="-0.22418">
        <ele>1972.3</ele>
        <time>2018-12-27T11:24:27Z</time>
      </trkpt>
      <trkpt lat="42.76111" lon="-0.22432">
        <ele>1971.5</ele>
        <time>2018-12-27T11:24:31Z</time>
      </trkpt>
      <trkpt lat="42.76102" lon="-0.22447">
        <ele>1971</ele>
        <time>2018-12-27T11:24:34Z</time>
      </trkpt>
      <trkpt lat="42.76091" lon="-0.22464">
        <ele>1969.9</ele>
        <time>2018-12-27T11:24:39Z</time>
      </trkpt>
      <trkpt lat="42.76081" lon="-0.22475">
        <ele>1968.4</ele>
        <time>2018-12-27T11:24:42Z</time>
      </trkpt>
      <trkpt lat="42.76074" lon="-0.22487">
        <ele>1965.7</ele>
        <time>2018-12-27T11:24:45Z</time>
      </trkpt>
      <trkpt lat="42.7607" lon="-0.22499">
        <ele>1962.1</ele>
        <time>2018-12-27T11:24:48Z</time>
      </trkpt>
      <trkpt lat="42.76072" lon="-0.22501">
        <ele>1960.3</ele>
        <time>2018-12-27T11:24:48Z</time>
      </trkpt>
      <trkpt lat="42.7608" lon="-0.22502">
        <ele>1956.8</ele>
        <time>2018-12-27T11:24:50Z</time>
      </trkpt>
      <trkpt lat="42.76085" lon="-0.225">
        <ele>1955.7</ele>
        <time>2018-12-27T11:24:52Z</time>
      </trkpt>
      <trkpt lat="42.76088" lon="-0.22501">
        <ele>1954.3</ele>
        <time>2018-12-27T11:24:53Z</time>
      </trkpt>
      <trkpt lat="42.76081" lon="-0.22509">
        <ele>1953.5</ele>
        <time>2018-12-27T11:24:55Z</time>
      </trkpt>
      <trkpt lat="42.7608" lon="-0.22511">
        <ele>1952.6</ele>
        <time>2018-12-27T11:24:56Z</time>
      </trkpt>
      <trkpt lat="42.76084" lon="-0.22511">
        <ele>1951</ele>
        <time>2018-12-27T11:24:57Z</time>
      </trkpt>
      <trkpt lat="42.76086" lon="-0.22511">
        <ele>1950.3</ele>
        <time>2018-12-27T11:24:57Z</time>
      </trkpt>
      <trkpt lat="42.7609" lon="-0.22512">
        <ele>1948.4</ele>
        <time>2018-12-27T11:24:58Z</time>
      </trkpt>
      <trkpt lat="42.76081" lon="-0.22518">
        <ele>1949.1</ele>
        <time>2018-12-27T11:25:01Z</time>
      </trkpt>
      <trkpt lat="42.76087" lon="-0.22519">
        <ele>1946.3</ele>
        <time>2018-12-27T11:25:02Z</time>
      </trkpt>
      <trkpt lat="42.7609" lon="-0.22518">
        <ele>1945.5</ele>
        <time>2018-12-27T11:25:03Z</time>
      </trkpt>
      <trkpt lat="42.76102" lon="-0.22512">
        <ele>1943.4</ele>
        <time>2018-12-27T11:25:06Z</time>
      </trkpt>
      <trkpt lat="42.76118" lon="-0.22512">
        <ele>1937.4</ele>
        <time>2018-12-27T11:25:11Z</time>
      </trkpt>
      <trkpt lat="42.76133" lon="-0.2251">
        <ele>1933</ele>
        <time>2018-12-27T11:25:15Z</time>
      </trkpt>
      <trkpt lat="42.7614" lon="-0.22505">
        <ele>1933.2</ele>
        <time>2018-12-27T11:25:17Z</time>
      </trkpt>
      <trkpt lat="42.76144" lon="-0.22502">
        <ele>1933.4</ele>
        <time>2018-12-27T11:25:18Z</time>
      </trkpt>
      <trkpt lat="42.76145" lon="-0.22505">
        <ele>1931.5</ele>
        <time>2018-12-27T11:25:19Z</time>
      </trkpt>
      <trkpt lat="42.76141" lon="-0.22513">
        <ele>1929.2</ele>
        <time>2018-12-27T11:25:21Z</time>
      </trkpt>
      <trkpt lat="42.76137" lon="-0.22519">
        <ele>1927.7</ele>
        <time>2018-12-27T11:25:22Z</time>
      </trkpt>
      <trkpt lat="42.76134" lon="-0.22522">
        <ele>1927.1</ele>
        <time>2018-12-27T11:25:23Z</time>
      </trkpt>
      <trkpt lat="42.76131" lon="-0.22524">
        <ele>1927.2</ele>
        <time>2018-12-27T11:25:24Z</time>
      </trkpt>
      <trkpt lat="42.76137" lon="-0.22526">
        <ele>1924.7</ele>
        <time>2018-12-27T11:25:26Z</time>
      </trkpt>
      <trkpt lat="42.7614" lon="-0.22525">
        <ele>1924.3</ele>
        <time>2018-12-27T11:25:27Z</time>
      </trkpt>
      <trkpt lat="42.76142" lon="-0.22522">
        <ele>1924.7</ele>
        <time>2018-12-27T11:25:28Z</time>
      </trkpt>
      <trkpt lat="42.76145" lon="-0.22517">
        <ele>1926.5</ele>
        <time>2018-12-27T11:25:29Z</time>
      </trkpt>
      <trkpt lat="42.76147" lon="-0.22526">
        <ele>1921.9</ele>
        <time>2018-12-27T11:25:31Z</time>
      </trkpt>
      <trkpt lat="42.76145" lon="-0.22528">
        <ele>1921.2</ele>
        <time>2018-12-27T11:25:32Z</time>
      </trkpt>
      <trkpt lat="42.76136" lon="-0.2254">
        <ele>1918.7</ele>
        <time>2018-12-27T11:25:35Z</time>
      </trkpt>
      <trkpt lat="42.76129" lon="-0.22544">
        <ele>1918.5</ele>
        <time>2018-12-27T11:25:37Z</time>
      </trkpt>
      <trkpt lat="42.76138" lon="-0.22544">
        <ele>1915.6</ele>
        <time>2018-12-27T11:25:39Z</time>
      </trkpt>
      <trkpt lat="42.76152" lon="-0.22537">
        <ele>1915.2</ele>
        <time>2018-12-27T11:25:43Z</time>
      </trkpt>
      <trkpt lat="42.76154" lon="-0.22537">
        <ele>1914.6</ele>
        <time>2018-12-27T11:25:44Z</time>
      </trkpt>
      <trkpt lat="42.76145" lon="-0.22546">
        <ele>1912.6</ele>
        <time>2018-12-27T11:25:46Z</time>
      </trkpt>
      <trkpt lat="42.76143" lon="-0.22549">
        <ele>1911.9</ele>
        <time>2018-12-27T11:25:47Z</time>
      </trkpt>
      <trkpt lat="42.76133" lon="-0.22557">
        <ele>1910.1</ele>
        <time>2018-12-27T11:25:50Z</time>
      </trkpt>
      <trkpt lat="42.76132" lon="-0.22562">
        <ele>1908.2</ele>
        <time>2018-12-27T11:25:51Z</time>
      </trkpt>
      <trkpt lat="42.76137" lon="-0.22561">
        <ele>1907.3</ele>
        <time>2018-12-27T11:25:52Z</time>
      </trkpt>
      <trkpt lat="42.7615" lon="-0.22556">
        <ele>1906</ele>
        <time>2018-12-27T11:25:56Z</time>
      </trkpt>
      <trkpt lat="42.76163" lon="-0.22547">
        <ele>1906.8</ele>
        <time>2018-12-27T11:26:00Z</time>
      </trkpt>
      <trkpt lat="42.76166" lon="-0.22548">
        <ele>1905.6</ele>
        <time>2018-12-27T11:26:01Z</time>
      </trkpt>
      <trkpt lat="42.76164" lon="-0.22551">
        <ele>1904.5</ele>
        <time>2018-12-27T11:26:02Z</time>
      </trkpt>
      <trkpt lat="42.76155" lon="-0.22562">
        <ele>1901</ele>
        <time>2018-12-27T11:26:05Z</time>
      </trkpt>
      <trkpt lat="42.76145" lon="-0.22575">
        <ele>1897</ele>
        <time>2018-12-27T11:26:09Z</time>
      </trkpt>
      <trkpt lat="42.76137" lon="-0.22586">
        <ele>1893.3</ele>
        <time>2018-12-27T11:26:12Z</time>
      </trkpt>
      <trkpt lat="42.7614" lon="-0.22587">
        <ele>1892.2</ele>
        <time>2018-12-27T11:26:13Z</time>
      </trkpt>
      <trkpt lat="42.76147" lon="-0.22583">
        <ele>1892.1</ele>
        <time>2018-12-27T11:26:15Z</time>
      </trkpt>
      <trkpt lat="42.76158" lon="-0.2258">
        <ele>1891.1</ele>
        <time>2018-12-27T11:26:17Z</time>
      </trkpt>
      <trkpt lat="42.76164" lon="-0.22577">
        <ele>1890.9</ele>
        <time>2018-12-27T11:26:19Z</time>
      </trkpt>
      <trkpt lat="42.76177" lon="-0.22566">
        <ele>1893.2</ele>
        <time>2018-12-27T11:26:23Z</time>
      </trkpt>
      <trkpt lat="42.76183" lon="-0.22562">
        <ele>1893.2</ele>
        <time>2018-12-27T11:26:25Z</time>
      </trkpt>
      <trkpt lat="42.76181" lon="-0.22566">
        <ele>1891.6</ele>
        <time>2018-12-27T11:26:26Z</time>
      </trkpt>
      <trkpt lat="42.76171" lon="-0.2258">
        <ele>1887.2</ele>
        <time>2018-12-27T11:26:30Z</time>
      </trkpt>
      <trkpt lat="42.76161" lon="-0.22593">
        <ele>1883.5</ele>
        <time>2018-12-27T11:26:33Z</time>
      </trkpt>
      <trkpt lat="42.76158" lon="-0.22595">
        <ele>1882.7</ele>
        <time>2018-12-27T11:26:34Z</time>
      </trkpt>
      <trkpt lat="42.76146" lon="-0.22608">
        <ele>1879.1</ele>
        <time>2018-12-27T11:26:38Z</time>
      </trkpt>
      <trkpt lat="42.76138" lon="-0.22617">
        <ele>1876.4</ele>
        <time>2018-12-27T11:26:41Z</time>
      </trkpt>
      <trkpt lat="42.76137" lon="-0.2262">
        <ele>1874.9</ele>
        <time>2018-12-27T11:26:42Z</time>
      </trkpt>
      <trkpt lat="42.76142" lon="-0.22626">
        <ele>1870.4</ele>
        <time>2018-12-27T11:26:44Z</time>
      </trkpt>
      <trkpt lat="42.76153" lon="-0.22619">
        <ele>1871.8</ele>
        <time>2018-12-27T11:26:47Z</time>
      </trkpt>
      <trkpt lat="42.76167" lon="-0.22611">
        <ele>1872.5</ele>
        <time>2018-12-27T11:26:51Z</time>
      </trkpt>
      <trkpt lat="42.76168" lon="-0.22611">
        <ele>1872</ele>
        <time>2018-12-27T11:26:51Z</time>
      </trkpt>
      <trkpt lat="42.76168" lon="-0.22617">
        <ele>1868.9</ele>
        <time>2018-12-27T11:26:52Z</time>
      </trkpt>
      <trkpt lat="42.76169" lon="-0.22625">
        <ele>1864.6</ele>
        <time>2018-12-27T11:26:54Z</time>
      </trkpt>
      <trkpt lat="42.76165" lon="-0.22638">
        <ele>1859.3</ele>
        <time>2018-12-27T11:26:57Z</time>
      </trkpt>
      <trkpt lat="42.76162" lon="-0.22641">
        <ele>1858.9</ele>
        <time>2018-12-27T11:26:58Z</time>
      </trkpt>
      <trkpt lat="42.76159" lon="-0.22643">
        <ele>1858.4</ele>
        <time>2018-12-27T11:26:58Z</time>
      </trkpt>
      <trkpt lat="42.76149" lon="-0.2265">
        <ele>1857.9</ele>
        <time>2018-12-27T11:27:01Z</time>
      </trkpt>
      <trkpt lat="42.76135" lon="-0.22664">
        <ele>1855.7</ele>
        <time>2018-12-27T11:27:06Z</time>
      </trkpt>
      <trkpt lat="42.76126" lon="-0.22672">
        <ele>1855</ele>
        <time>2018-12-27T11:27:09Z</time>
      </trkpt>
      <trkpt lat="42.76129" lon="-0.2268">
        <ele>1850.9</ele>
        <time>2018-12-27T11:27:11Z</time>
      </trkpt>
      <trkpt lat="42.76145" lon="-0.22675">
        <ele>1848.3</ele>
        <time>2018-12-27T11:27:15Z</time>
      </trkpt>
      <trkpt lat="42.7616" lon="-0.22671">
        <ele>1845.5</ele>
        <time>2018-12-27T11:27:19Z</time>
      </trkpt>
      <trkpt lat="42.76173" lon="-0.22667">
        <ele>1843.5</ele>
        <time>2018-12-27T11:27:23Z</time>
      </trkpt>
      <trkpt lat="42.76185" lon="-0.22662">
        <ele>1842.8</ele>
        <time>2018-12-27T11:27:26Z</time>
      </trkpt>
      <trkpt lat="42.76186" lon="-0.22665">
        <ele>1840.9</ele>
        <time>2018-12-27T11:27:27Z</time>
      </trkpt>
      <trkpt lat="42.76181" lon="-0.22674">
        <ele>1838</ele>
        <time>2018-12-27T11:27:29Z</time>
      </trkpt>
      <trkpt lat="42.76178" lon="-0.22678">
        <ele>1837.1</ele>
        <time>2018-12-27T11:27:30Z</time>
      </trkpt>
      <trkpt lat="42.76167" lon="-0.22692">
        <ele>1833.3</ele>
        <time>2018-12-27T11:27:34Z</time>
      </trkpt>
      <trkpt lat="42.76163" lon="-0.22698">
        <ele>1832.1</ele>
        <time>2018-12-27T11:27:36Z</time>
      </trkpt>
      <trkpt lat="42.76161" lon="-0.227">
        <ele>1831.9</ele>
        <time>2018-12-27T11:27:36Z</time>
      </trkpt>
      <trkpt lat="42.76152" lon="-0.22706">
        <ele>1832.1</ele>
        <time>2018-12-27T11:27:39Z</time>
      </trkpt>
      <trkpt lat="42.76149" lon="-0.22708">
        <ele>1832.4</ele>
        <time>2018-12-27T11:27:40Z</time>
      </trkpt>
      <trkpt lat="42.76136" lon="-0.22715">
        <ele>1833.7</ele>
        <time>2018-12-27T11:27:44Z</time>
      </trkpt>
      <trkpt lat="42.76126" lon="-0.22729">
        <ele>1831.4</ele>
        <time>2018-12-27T11:27:48Z</time>
      </trkpt>
      <trkpt lat="42.76116" lon="-0.22736">
        <ele>1831</ele>
        <time>2018-12-27T11:27:51Z</time>
      </trkpt>
      <trkpt lat="42.76108" lon="-0.22745">
        <ele>1829.3</ele>
        <time>2018-12-27T11:27:53Z</time>
      </trkpt>
      <trkpt lat="42.76098" lon="-0.2276">
        <ele>1825.5</ele>
        <time>2018-12-27T11:27:57Z</time>
      </trkpt>
      <trkpt lat="42.76095" lon="-0.22763">
        <ele>1824.7</ele>
        <time>2018-12-27T11:27:58Z</time>
      </trkpt>
      <trkpt lat="42.76086" lon="-0.22775">
        <ele>1822</ele>
        <time>2018-12-27T11:28:02Z</time>
      </trkpt>
      <trkpt lat="42.76077" lon="-0.22789">
        <ele>1818.4</ele>
        <time>2018-12-27T11:28:05Z</time>
      </trkpt>
      <trkpt lat="42.76082" lon="-0.22793">
        <ele>1815.9</ele>
        <time>2018-12-27T11:28:07Z</time>
      </trkpt>
      <trkpt lat="42.76086" lon="-0.22791">
        <ele>1816</ele>
        <time>2018-12-27T11:28:08Z</time>
      </trkpt>
      <trkpt lat="42.76103" lon="-0.22785">
        <ele>1814.4</ele>
        <time>2018-12-27T11:28:13Z</time>
      </trkpt>
      <trkpt lat="42.76114" lon="-0.22778">
        <ele>1815</ele>
        <time>2018-12-27T11:28:16Z</time>
      </trkpt>
      <trkpt lat="42.76129" lon="-0.22769">
        <ele>1815</ele>
        <time>2018-12-27T11:28:20Z</time>
      </trkpt>
      <trkpt lat="42.76143" lon="-0.22765">
        <ele>1812.2</ele>
        <time>2018-12-27T11:28:24Z</time>
      </trkpt>
      <trkpt lat="42.76159" lon="-0.22764">
        <ele>1807.4</ele>
        <time>2018-12-27T11:28:29Z</time>
      </trkpt>
      <trkpt lat="42.76172" lon="-0.22762">
        <ele>1804.1</ele>
        <time>2018-12-27T11:28:32Z</time>
      </trkpt>
      <trkpt lat="42.76183" lon="-0.22759">
        <ele>1801.5</ele>
        <time>2018-12-27T11:28:35Z</time>
      </trkpt>
      <trkpt lat="42.76197" lon="-0.22757">
        <ele>1798.3</ele>
        <time>2018-12-27T11:28:39Z</time>
      </trkpt>
      <trkpt lat="42.76208" lon="-0.22756">
        <ele>1795.4</ele>
        <time>2018-12-27T11:28:42Z</time>
      </trkpt>
      <trkpt lat="42.7621" lon="-0.22755">
        <ele>1794.9</ele>
        <time>2018-12-27T11:28:42Z</time>
      </trkpt>
      <trkpt lat="42.76209" lon="-0.22757">
        <ele>1794.2</ele>
        <time>2018-12-27T11:28:43Z</time>
      </trkpt>
      <trkpt lat="42.76201" lon="-0.22765">
        <ele>1793.9</ele>
        <time>2018-12-27T11:28:45Z</time>
      </trkpt>
      <trkpt lat="42.76191" lon="-0.22777">
        <ele>1792.5</ele>
        <time>2018-12-27T11:28:49Z</time>
      </trkpt>
      <trkpt lat="42.7618" lon="-0.2279">
        <ele>1791.1</ele>
        <time>2018-12-27T11:28:53Z</time>
      </trkpt>
      <trkpt lat="42.76174" lon="-0.22801">
        <ele>1789</ele>
        <time>2018-12-27T11:28:56Z</time>
      </trkpt>
      <trkpt lat="42.76162" lon="-0.22815">
        <ele>1787.6</ele>
        <time>2018-12-27T11:29:00Z</time>
      </trkpt>
      <trkpt lat="42.76156" lon="-0.22826">
        <ele>1785.2</ele>
        <time>2018-12-27T11:29:02Z</time>
      </trkpt>
      <trkpt lat="42.76148" lon="-0.22841">
        <ele>1782.4</ele>
        <time>2018-12-27T11:29:06Z</time>
      </trkpt>
      <trkpt lat="42.76144" lon="-0.22856">
        <ele>1778.1</ele>
        <time>2018-12-27T11:29:09Z</time>
      </trkpt>
      <trkpt lat="42.76145" lon="-0.22867">
        <ele>1774</ele>
        <time>2018-12-27T11:29:11Z</time>
      </trkpt>
      <trkpt lat="42.76151" lon="-0.22858">
        <ele>1775.3</ele>
        <time>2018-12-27T11:29:14Z</time>
      </trkpt>
      <trkpt lat="42.76165" lon="-0.22855">
        <ele>1771.9</ele>
        <time>2018-12-27T11:29:17Z</time>
      </trkpt>
      <trkpt lat="42.76176" lon="-0.22854">
        <ele>1768.7</ele>
        <time>2018-12-27T11:29:20Z</time>
      </trkpt>
      <trkpt lat="42.76178" lon="-0.22853">
        <ele>1768.2</ele>
        <time>2018-12-27T11:29:21Z</time>
      </trkpt>
      <trkpt lat="42.7618" lon="-0.22855">
        <ele>1767</ele>
        <time>2018-12-27T11:29:21Z</time>
      </trkpt>
      <trkpt lat="42.7618" lon="-0.22857">
        <ele>1766.2</ele>
        <time>2018-12-27T11:29:22Z</time>
      </trkpt>
      <trkpt lat="42.76176" lon="-0.22865">
        <ele>1764.6</ele>
        <time>2018-12-27T11:29:24Z</time>
      </trkpt>
      <trkpt lat="42.76176" lon="-0.22866">
        <ele>1764.2</ele>
        <time>2018-12-27T11:29:24Z</time>
      </trkpt>
      <trkpt lat="42.76168" lon="-0.22876">
        <ele>1763.4</ele>
        <time>2018-12-27T11:29:27Z</time>
      </trkpt>
      <trkpt lat="42.76156" lon="-0.22888">
        <ele>1763</ele>
        <time>2018-12-27T11:29:31Z</time>
      </trkpt>
      <trkpt lat="42.76145" lon="-0.22901">
        <ele>1761.3</ele>
        <time>2018-12-27T11:29:35Z</time>
      </trkpt>
      <trkpt lat="42.76138" lon="-0.22914">
        <ele>1759.2</ele>
        <time>2018-12-27T11:29:38Z</time>
      </trkpt>
      <trkpt lat="42.76132" lon="-0.22922">
        <ele>1757.8</ele>
        <time>2018-12-27T11:29:40Z</time>
      </trkpt>
      <trkpt lat="42.76122" lon="-0.22937">
        <ele>1754.5</ele>
        <time>2018-12-27T11:29:44Z</time>
      </trkpt>
      <trkpt lat="42.76116" lon="-0.22953">
        <ele>1749.1</ele>
        <time>2018-12-27T11:29:48Z</time>
      </trkpt>
      <trkpt lat="42.76113" lon="-0.22967">
        <ele>1744</ele>
        <time>2018-12-27T11:29:50Z</time>
      </trkpt>
      <trkpt lat="42.76115" lon="-0.22978">
        <ele>1739.7</ele>
        <time>2018-12-27T11:29:53Z</time>
      </trkpt>
      <trkpt lat="42.76122" lon="-0.22972">
        <ele>1741.2</ele>
        <time>2018-12-27T11:29:55Z</time>
      </trkpt>
      <trkpt lat="42.76125" lon="-0.22971">
        <ele>1741.1</ele>
        <time>2018-12-27T11:29:56Z</time>
      </trkpt>
      <trkpt lat="42.76134" lon="-0.22969">
        <ele>1739.1</ele>
        <time>2018-12-27T11:29:58Z</time>
      </trkpt>
      <trkpt lat="42.76144" lon="-0.22964">
        <ele>1738.3</ele>
        <time>2018-12-27T11:30:01Z</time>
      </trkpt>
      <trkpt lat="42.76154" lon="-0.22958">
        <ele>1737.4</ele>
        <time>2018-12-27T11:30:04Z</time>
      </trkpt>
      <trkpt lat="42.76166" lon="-0.22954">
        <ele>1735.3</ele>
        <time>2018-12-27T11:30:07Z</time>
      </trkpt>
      <trkpt lat="42.76172" lon="-0.22951">
        <ele>1734.8</ele>
        <time>2018-12-27T11:30:09Z</time>
      </trkpt>
      <trkpt lat="42.76176" lon="-0.2295">
        <ele>1733.9</ele>
        <time>2018-12-27T11:30:10Z</time>
      </trkpt>
      <trkpt lat="42.76186" lon="-0.2295">
        <ele>1730.8</ele>
        <time>2018-12-27T11:30:13Z</time>
      </trkpt>
      <trkpt lat="42.76191" lon="-0.22951">
        <ele>1728.6</ele>
        <time>2018-12-27T11:30:14Z</time>
      </trkpt>
      <trkpt lat="42.76196" lon="-0.22952">
        <ele>1727.1</ele>
        <time>2018-12-27T11:30:15Z</time>
      </trkpt>
      <trkpt lat="42.76209" lon="-0.22951">
        <ele>1723.4</ele>
        <time>2018-12-27T11:30:19Z</time>
      </trkpt>
      <trkpt lat="42.76224" lon="-0.2295">
        <ele>1722.4</ele>
        <time>2018-12-27T11:30:23Z</time>
      </trkpt>
      <trkpt lat="42.76225" lon="-0.2295">
        <ele>1722</ele>
        <time>2018-12-27T11:30:23Z</time>
      </trkpt>
      <trkpt lat="42.76223" lon="-0.22955">
        <ele>1720.7</ele>
        <time>2018-12-27T11:30:24Z</time>
      </trkpt>
      <trkpt lat="42.76219" lon="-0.22958">
        <ele>1719.9</ele>
        <time>2018-12-27T11:30:25Z</time>
      </trkpt>
      <trkpt lat="42.7622" lon="-0.22963">
        <ele>1718.3</ele>
        <time>2018-12-27T11:30:26Z</time>
      </trkpt>
      <trkpt lat="42.76222" lon="-0.22972">
        <ele>1715.3</ele>
        <time>2018-12-27T11:30:28Z</time>
      </trkpt>
      <trkpt lat="42.76228" lon="-0.22971">
        <ele>1715</ele>
        <time>2018-12-27T11:30:30Z</time>
      </trkpt>
      <trkpt lat="42.76237" lon="-0.22969">
        <ele>1714.6</ele>
        <time>2018-12-27T11:30:32Z</time>
      </trkpt>
      <trkpt lat="42.76233" lon="-0.22978">
        <ele>1712.2</ele>
        <time>2018-12-27T11:30:34Z</time>
      </trkpt>
      <trkpt lat="42.76222" lon="-0.2299">
        <ele>1709.3</ele>
        <time>2018-12-27T11:30:38Z</time>
      </trkpt>
      <trkpt lat="42.76217" lon="-0.22994">
        <ele>1708.6</ele>
        <time>2018-12-27T11:30:40Z</time>
      </trkpt>
      <trkpt lat="42.76214" lon="-0.22997">
        <ele>1708</ele>
        <time>2018-12-27T11:30:41Z</time>
      </trkpt>
      <trkpt lat="42.76203" lon="-0.23003">
        <ele>1708.1</ele>
        <time>2018-12-27T11:30:44Z</time>
      </trkpt>
      <trkpt lat="42.76199" lon="-0.23006">
        <ele>1708.2</ele>
        <time>2018-12-27T11:30:45Z</time>
      </trkpt>
      <trkpt lat="42.76195" lon="-0.23012">
        <ele>1707</ele>
        <time>2018-12-27T11:30:47Z</time>
      </trkpt>
      <trkpt lat="42.76188" lon="-0.23025">
        <ele>1704.3</ele>
        <time>2018-12-27T11:30:50Z</time>
      </trkpt>
      <trkpt lat="42.76184" lon="-0.23034">
        <ele>1702.3</ele>
        <time>2018-12-27T11:30:52Z</time>
      </trkpt>
      <trkpt lat="42.76177" lon="-0.23045">
        <ele>1700</ele>
        <time>2018-12-27T11:30:55Z</time>
      </trkpt>
      <trkpt lat="42.76168" lon="-0.23065">
        <ele>1694.4</ele>
        <time>2018-12-27T11:30:59Z</time>
      </trkpt>
      <trkpt lat="42.76157" lon="-0.23076">
        <ele>1692.6</ele>
        <time>2018-12-27T11:31:03Z</time>
      </trkpt>
      <trkpt lat="42.76146" lon="-0.23086">
        <ele>1691.7</ele>
        <time>2018-12-27T11:31:07Z</time>
      </trkpt>
      <trkpt lat="42.76132" lon="-0.23106">
        <ele>1688.1</ele>
        <time>2018-12-27T11:31:12Z</time>
      </trkpt>
      <trkpt lat="42.7613" lon="-0.23109">
        <ele>1687.6</ele>
        <time>2018-12-27T11:31:13Z</time>
      </trkpt>
      <trkpt lat="42.76118" lon="-0.23131">
        <ele>1682.1</ele>
        <time>2018-12-27T11:31:18Z</time>
      </trkpt>
      <trkpt lat="42.76108" lon="-0.23144">
        <ele>1678.9</ele>
        <time>2018-12-27T11:31:22Z</time>
      </trkpt>
      <trkpt lat="42.76103" lon="-0.23135">
        <ele>1682.6</ele>
        <time>2018-12-27T11:31:24Z</time>
      </trkpt>
      <trkpt lat="42.76094" lon="-0.23138">
        <ele>1682.8</ele>
        <time>2018-12-27T11:31:26Z</time>
      </trkpt>
      <trkpt lat="42.76085" lon="-0.2314">
        <ele>1683.1</ele>
        <time>2018-12-27T11:31:29Z</time>
      </trkpt>
      <trkpt lat="42.76079" lon="-0.2314">
        <ele>1684</ele>
        <time>2018-12-27T11:31:30Z</time>
      </trkpt>
      <trkpt lat="42.76068" lon="-0.23149">
        <ele>1682.2</ele>
        <time>2018-12-27T11:31:34Z</time>
      </trkpt>
      <trkpt lat="42.76057" lon="-0.23155">
        <ele>1681.1</ele>
        <time>2018-12-27T11:31:37Z</time>
      </trkpt>
      <trkpt lat="42.76043" lon="-0.23163">
        <ele>1679.3</ele>
        <time>2018-12-27T11:31:41Z</time>
      </trkpt>
      <trkpt lat="42.76028" lon="-0.23176">
        <ele>1677.5</ele>
        <time>2018-12-27T11:31:46Z</time>
      </trkpt>
      <trkpt lat="42.76013" lon="-0.23183">
        <ele>1678.7</ele>
        <time>2018-12-27T11:31:50Z</time>
      </trkpt>
      <trkpt lat="42.76011" lon="-0.23194">
        <ele>1675.4</ele>
        <time>2018-12-27T11:31:52Z</time>
      </trkpt>
      <trkpt lat="42.76024" lon="-0.23198">
        <ele>1670.2</ele>
        <time>2018-12-27T11:31:55Z</time>
      </trkpt>
      <trkpt lat="42.76036" lon="-0.23194">
        <ele>1668.5</ele>
        <time>2018-12-27T11:31:59Z</time>
      </trkpt>
      <trkpt lat="42.7604" lon="-0.23192">
        <ele>1668.2</ele>
        <time>2018-12-27T11:32:00Z</time>
      </trkpt>
      <trkpt lat="42.76056" lon="-0.23188">
        <ele>1668.2</ele>
        <time>2018-12-27T11:32:04Z</time>
      </trkpt>
      <trkpt lat="42.76071" lon="-0.23186">
        <ele>1667.6</ele>
        <time>2018-12-27T11:32:08Z</time>
      </trkpt>
      <trkpt lat="42.76079" lon="-0.23189">
        <ele>1665.4</ele>
        <time>2018-12-27T11:32:11Z</time>
      </trkpt>
      <trkpt lat="42.7608" lon="-0.2319">
        <ele>1665</ele>
        <time>2018-12-27T11:32:11Z</time>
      </trkpt>
      <trkpt lat="42.76074" lon="-0.23193">
        <ele>1664.4</ele>
        <time>2018-12-27T11:32:13Z</time>
      </trkpt>
      <trkpt lat="42.76072" lon="-0.23195">
        <ele>1664.1</ele>
        <time>2018-12-27T11:32:13Z</time>
      </trkpt>
      <trkpt lat="42.76063" lon="-0.23199">
        <ele>1663.1</ele>
        <time>2018-12-27T11:32:16Z</time>
      </trkpt>
      <trkpt lat="42.76053" lon="-0.23215">
        <ele>1659</ele>
        <time>2018-12-27T11:32:20Z</time>
      </trkpt>
      <trkpt lat="42.76053" lon="-0.23225">
        <ele>1657.3</ele>
        <time>2018-12-27T11:32:22Z</time>
      </trkpt>
      <trkpt lat="42.76052" lon="-0.23233">
        <ele>1655.8</ele>
        <time>2018-12-27T11:32:24Z</time>
      </trkpt>
      <trkpt lat="42.76043" lon="-0.23243">
        <ele>1654.3</ele>
        <time>2018-12-27T11:32:27Z</time>
      </trkpt>
      <trkpt lat="42.7604" lon="-0.23244">
        <ele>1654.8</ele>
        <time>2018-12-27T11:32:27Z</time>
      </trkpt>
      <trkpt lat="42.76022" lon="-0.23243">
        <ele>1660</ele>
        <time>2018-12-27T11:32:32Z</time>
      </trkpt>
      <trkpt lat="42.7601" lon="-0.23246">
        <ele>1663.2</ele>
        <time>2018-12-27T11:32:36Z</time>
      </trkpt>
      <trkpt lat="42.75994" lon="-0.23253">
        <ele>1666</ele>
        <time>2018-12-27T11:32:40Z</time>
      </trkpt>
      <trkpt lat="42.75979" lon="-0.23264">
        <ele>1667.9</ele>
        <time>2018-12-27T11:32:45Z</time>
      </trkpt>
      <trkpt lat="42.75972" lon="-0.23276">
        <ele>1667.1</ele>
        <time>2018-12-27T11:32:48Z</time>
      </trkpt>
      <trkpt lat="42.75972" lon="-0.23283">
        <ele>1665.6</ele>
        <time>2018-12-27T11:32:49Z</time>
      </trkpt>
      <trkpt lat="42.75974" lon="-0.23286">
        <ele>1664.2</ele>
        <time>2018-12-27T11:32:50Z</time>
      </trkpt>
      <trkpt lat="42.75981" lon="-0.23291">
        <ele>1661.1</ele>
        <time>2018-12-27T11:32:52Z</time>
      </trkpt>
      <trkpt lat="42.75991" lon="-0.23302">
        <ele>1657</ele>
        <time>2018-12-27T11:32:55Z</time>
      </trkpt>
      <trkpt lat="42.76001" lon="-0.23313">
        <ele>1653.1</ele>
        <time>2018-12-27T11:32:59Z</time>
      </trkpt>
      <trkpt lat="42.76012" lon="-0.23331">
        <ele>1648.9</ele>
        <time>2018-12-27T11:33:03Z</time>
      </trkpt>
      <trkpt lat="42.76017" lon="-0.23337">
        <ele>1647.5</ele>
        <time>2018-12-27T11:33:05Z</time>
      </trkpt>
      <trkpt lat="42.76024" lon="-0.23338">
        <ele>1646.4</ele>
        <time>2018-12-27T11:33:07Z</time>
      </trkpt>
      <trkpt lat="42.7603" lon="-0.23339">
        <ele>1645.2</ele>
        <time>2018-12-27T11:33:09Z</time>
      </trkpt>
      <trkpt lat="42.7604" lon="-0.23343">
        <ele>1643.5</ele>
        <time>2018-12-27T11:33:11Z</time>
      </trkpt>
      <trkpt lat="42.76053" lon="-0.23355">
        <ele>1642.9</ele>
        <time>2018-12-27T11:33:15Z</time>
      </trkpt>
      <trkpt lat="42.76065" lon="-0.23367">
        <ele>1642.4</ele>
        <time>2018-12-27T11:33:20Z</time>
      </trkpt>
      <trkpt lat="42.76077" lon="-0.23381">
        <ele>1641.8</ele>
        <time>2018-12-27T11:33:24Z</time>
      </trkpt>
      <trkpt lat="42.76097" lon="-0.23389">
        <ele>1641.7</ele>
        <time>2018-12-27T11:33:29Z</time>
      </trkpt>
      <trkpt lat="42.76109" lon="-0.23401">
        <ele>1641.5</ele>
        <time>2018-12-27T11:33:33Z</time>
      </trkpt>
      <trkpt lat="42.76125" lon="-0.2341">
        <ele>1641.6</ele>
        <time>2018-12-27T11:33:38Z</time>
      </trkpt>
      <trkpt lat="42.76143" lon="-0.23414">
        <ele>1641.2</ele>
        <time>2018-12-27T11:33:43Z</time>
      </trkpt>
      <trkpt lat="42.76146" lon="-0.23411">
        <ele>1641.2</ele>
        <time>2018-12-27T11:33:44Z</time>
      </trkpt>
      <trkpt lat="42.76153" lon="-0.23401">
        <ele>1641.1</ele>
        <time>2018-12-27T11:33:47Z</time>
      </trkpt>
      <trkpt lat="42.76167" lon="-0.23386">
        <ele>1640.7</ele>
        <time>2018-12-27T11:33:51Z</time>
      </trkpt>
      <trkpt lat="42.76181" lon="-0.23373">
        <ele>1640.2</ele>
        <time>2018-12-27T11:33:56Z</time>
      </trkpt>
      <trkpt lat="42.76195" lon="-0.23359">
        <ele>1640.6</ele>
        <time>2018-12-27T11:34:00Z</time>
      </trkpt>
      <trkpt lat="42.76211" lon="-0.23349">
        <ele>1641.1</ele>
        <time>2018-12-27T11:34:05Z</time>
      </trkpt>
      <trkpt lat="42.76227" lon="-0.23338">
        <ele>1642.5</ele>
        <time>2018-12-27T11:34:10Z</time>
      </trkpt>
      <trkpt lat="42.76242" lon="-0.23323">
        <ele>1644.6</ele>
        <time>2018-12-27T11:34:15Z</time>
      </trkpt>
      <trkpt lat="42.76244" lon="-0.23321">
        <ele>1644.9</ele>
        <time>2018-12-27T11:34:16Z</time>
      </trkpt>
      <trkpt lat="42.76248" lon="-0.2332">
        <ele>1645.2</ele>
        <time>2018-12-27T11:34:17Z</time>
      </trkpt>
      <trkpt lat="42.76252" lon="-0.23322">
        <ele>1645.4</ele>
        <time>2018-12-27T11:34:18Z</time>
      </trkpt>
      <trkpt lat="42.76254" lon="-0.23325">
        <ele>1645.1</ele>
        <time>2018-12-27T11:34:19Z</time>
      </trkpt>
      <trkpt lat="42.76251" lon="-0.23326">
        <ele>1644.8</ele>
        <time>2018-12-27T11:34:19Z</time>
      </trkpt>
      <trkpt lat="42.76243" lon="-0.23326">
        <ele>1644.3</ele>
        <time>2018-12-27T11:34:21Z</time>
      </trkpt>
      <trkpt lat="42.76241" lon="-0.2333">
        <ele>1644</ele>
        <time>2018-12-27T11:34:22Z</time>
      </trkpt>
      <trkpt lat="42.76245" lon="-0.23331">
        <ele>1644.1</ele>
        <time>2018-12-27T11:34:24Z</time>
      </trkpt>
      <trkpt lat="42.76247" lon="-0.23335">
        <ele>1643.7</ele>
        <time>2018-12-27T11:34:25Z</time>
      </trkpt>
      <trkpt lat="42.76244" lon="-0.23338">
        <ele>1643.4</ele>
        <time>2018-12-27T11:34:25Z</time>
      </trkpt>
      <trkpt lat="42.76251" lon="-0.23332">
        <ele>1644.3</ele>
        <time>2018-12-27T11:34:28Z</time>
      </trkpt>
      <trkpt lat="42.76247" lon="-0.23332">
        <ele>1644</ele>
        <time>2018-12-27T11:34:29Z</time>
      </trkpt>
      <trkpt lat="42.76248" lon="-0.23333">
        <ele>1643.9</ele>
        <time>2018-12-27T11:34:29Z</time>
      </trkpt>
      <trkpt lat="42.76246" lon="-0.23335">
        <ele>1643.6</ele>
        <time>2018-12-27T11:34:30Z</time>
      </trkpt>
      <trkpt lat="42.76249" lon="-0.23333">
        <ele>1644.1</ele>
        <time>2018-12-27T11:34:31Z</time>
      </trkpt>
      <trkpt lat="42.76247" lon="-0.23337">
        <ele>1643.6</ele>
        <time>2018-12-27T11:34:32Z</time>
      </trkpt>
      <trkpt lat="42.76253" lon="-0.23342">
        <ele>1643.4</ele>
        <time>2018-12-27T11:34:34Z</time>
      </trkpt>
      <trkpt lat="42.76261" lon="-0.2334">
        <ele>1644</ele>
        <time>2018-12-27T11:34:36Z</time>
      </trkpt>
      <trkpt lat="42.76266" lon="-0.23337">
        <ele>1644.5</ele>
        <time>2018-12-27T11:34:37Z</time>
      </trkpt>
      <trkpt lat="42.76282" lon="-0.23339">
        <ele>1644.9</ele>
        <time>2018-12-27T11:34:41Z</time>
      </trkpt>
      <trkpt lat="42.76293" lon="-0.23346">
        <ele>1644.8</ele>
        <time>2018-12-27T11:34:45Z</time>
      </trkpt>
      <trkpt lat="42.76292" lon="-0.2335">
        <ele>1644.3</ele>
        <time>2018-12-27T11:34:45Z</time>
      </trkpt>
      <trkpt lat="42.76292" lon="-0.23357">
        <ele>1643.3</ele>
        <time>2018-12-27T11:34:47Z</time>
      </trkpt>
      <trkpt lat="42.76294" lon="-0.23374">
        <ele>1641.8</ele>
        <time>2018-12-27T11:34:50Z</time>
      </trkpt>
      <trkpt lat="42.76303" lon="-0.23381">
        <ele>1643.9</ele>
        <time>2018-12-27T11:34:53Z</time>
      </trkpt>
      <trkpt lat="42.76307" lon="-0.23399">
        <ele>1644.8</ele>
        <time>2018-12-27T11:34:57Z</time>
      </trkpt>
      <trkpt lat="42.76316" lon="-0.23419">
        <ele>1647.1</ele>
        <time>2018-12-27T11:35:01Z</time>
      </trkpt>
      <trkpt lat="42.76322" lon="-0.23433">
        <ele>1649</ele>
        <time>2018-12-27T11:35:04Z</time>
      </trkpt>
      <trkpt lat="42.76321" lon="-0.23452">
        <ele>1648.6</ele>
        <time>2018-12-27T11:35:08Z</time>
      </trkpt>
      <trkpt lat="42.76316" lon="-0.23473">
        <ele>1648</ele>
        <time>2018-12-27T11:35:12Z</time>
      </trkpt>
      <trkpt lat="42.76307" lon="-0.23492">
        <ele>1645.9</ele>
        <time>2018-12-27T11:35:17Z</time>
      </trkpt>
      <trkpt lat="42.763" lon="-0.23507">
        <ele>1644.1</ele>
        <time>2018-12-27T11:35:20Z</time>
      </trkpt>
      <trkpt lat="42.76293" lon="-0.23518">
        <ele>1641.8</ele>
        <time>2018-12-27T11:35:23Z</time>
      </trkpt>
      <trkpt lat="42.76288" lon="-0.23521">
        <ele>1641.4</ele>
        <time>2018-12-27T11:35:25Z</time>
      </trkpt>
      <trkpt lat="42.76279" lon="-0.23535">
        <ele>1641.4</ele>
        <time>2018-12-27T11:35:28Z</time>
      </trkpt>
      <trkpt lat="42.76275" lon="-0.23545">
        <ele>1641.5</ele>
        <time>2018-12-27T11:35:30Z</time>
      </trkpt>
      <trkpt lat="42.76274" lon="-0.23555">
        <ele>1642.4</ele>
        <time>2018-12-27T11:35:32Z</time>
      </trkpt>
      <trkpt lat="42.76272" lon="-0.23564">
        <ele>1643.2</ele>
        <time>2018-12-27T11:35:34Z</time>
      </trkpt>
      <trkpt lat="42.76269" lon="-0.23576">
        <ele>1644.2</ele>
        <time>2018-12-27T11:35:37Z</time>
      </trkpt>
      <trkpt lat="42.76263" lon="-0.23591">
        <ele>1645.2</ele>
        <time>2018-12-27T11:35:40Z</time>
      </trkpt>
      <trkpt lat="42.76253" lon="-0.236">
        <ele>1645.2</ele>
        <time>2018-12-27T11:35:43Z</time>
      </trkpt>
      <trkpt lat="42.7624" lon="-0.23612">
        <ele>1645.2</ele>
        <time>2018-12-27T11:35:48Z</time>
      </trkpt>
      <trkpt lat="42.76227" lon="-0.23624">
        <ele>1644.8</ele>
        <time>2018-12-27T11:35:52Z</time>
      </trkpt>
      <trkpt lat="42.76211" lon="-0.23638">
        <ele>1645.4</ele>
        <time>2018-12-27T11:35:57Z</time>
      </trkpt>
      <trkpt lat="42.76199" lon="-0.23651">
        <ele>1646.3</ele>
        <time>2018-12-27T11:36:01Z</time>
      </trkpt>
      <trkpt lat="42.76188" lon="-0.23661">
        <ele>1647.3</ele>
        <time>2018-12-27T11:36:04Z</time>
      </trkpt>
      <trkpt lat="42.76181" lon="-0.2367">
        <ele>1648</ele>
        <time>2018-12-27T11:36:07Z</time>
      </trkpt>
      <trkpt lat="42.76173" lon="-0.23685">
        <ele>1649.3</ele>
        <time>2018-12-27T11:36:11Z</time>
      </trkpt>
      <trkpt lat="42.7617" lon="-0.237">
        <ele>1650.8</ele>
        <time>2018-12-27T11:36:14Z</time>
      </trkpt>
      <trkpt lat="42.76168" lon="-0.23714">
        <ele>1653.1</ele>
        <time>2018-12-27T11:36:17Z</time>
      </trkpt>
      <trkpt lat="42.76167" lon="-0.23731">
        <ele>1657.1</ele>
        <time>2018-12-27T11:36:20Z</time>
      </trkpt>
      <trkpt lat="42.76166" lon="-0.23748">
        <ele>1660.9</ele>
        <time>2018-12-27T11:36:23Z</time>
      </trkpt>
      <trkpt lat="42.76159" lon="-0.23761">
        <ele>1662.8</ele>
        <time>2018-12-27T11:36:26Z</time>
      </trkpt>
      <trkpt lat="42.76148" lon="-0.23768">
        <ele>1661.7</ele>
        <time>2018-12-27T11:36:29Z</time>
      </trkpt>
      <trkpt lat="42.76132" lon="-0.23772">
        <ele>1658.4</ele>
        <time>2018-12-27T11:36:34Z</time>
      </trkpt>
      <trkpt lat="42.76113" lon="-0.23777">
        <ele>1655.5</ele>
        <time>2018-12-27T11:36:39Z</time>
      </trkpt>
      <trkpt lat="42.76102" lon="-0.23787">
        <ele>1655</ele>
        <time>2018-12-27T11:36:42Z</time>
      </trkpt>
      <trkpt lat="42.76097" lon="-0.23799">
        <ele>1657.1</ele>
        <time>2018-12-27T11:36:45Z</time>
      </trkpt>
      <trkpt lat="42.76091" lon="-0.23812">
        <ele>1660.5</ele>
        <time>2018-12-27T11:36:48Z</time>
      </trkpt>
      <trkpt lat="42.76091" lon="-0.23814">
        <ele>1661.2</ele>
        <time>2018-12-27T11:36:49Z</time>
      </trkpt>
      <trkpt lat="42.76092" lon="-0.23818">
        <ele>1662.6</ele>
        <time>2018-12-27T11:36:50Z</time>
      </trkpt>
      <trkpt lat="42.76096" lon="-0.23819">
        <ele>1663.6</ele>
        <time>2018-12-27T11:36:50Z</time>
      </trkpt>
      <trkpt lat="42.76097" lon="-0.23818">
        <ele>1663.8</ele>
        <time>2018-12-27T11:36:51Z</time>
      </trkpt>
      <trkpt lat="42.76106" lon="-0.23816">
        <ele>1664.9</ele>
        <time>2018-12-27T11:36:53Z</time>
      </trkpt>
      <trkpt lat="42.76107" lon="-0.23816">
        <ele>1665.1</ele>
        <time>2018-12-27T11:36:54Z</time>
      </trkpt>
      <trkpt lat="42.76109" lon="-0.23827">
        <ele>1669.2</ele>
        <time>2018-12-27T11:36:56Z</time>
      </trkpt>
      <trkpt lat="42.76107" lon="-0.23831">
        <ele>1670.5</ele>
        <time>2018-12-27T11:36:57Z</time>
      </trkpt>
      <trkpt lat="42.76113" lon="-0.23832">
        <ele>1672.2</ele>
        <time>2018-12-27T11:36:58Z</time>
      </trkpt>
      <trkpt lat="42.76114" lon="-0.23831">
        <ele>1671.8</ele>
        <time>2018-12-27T11:36:58Z</time>
      </trkpt>
      <trkpt lat="42.76118" lon="-0.2383">
        <ele>1672.6</ele>
        <time>2018-12-27T11:37:00Z</time>
      </trkpt>
      <trkpt lat="42.76116" lon="-0.23836">
        <ele>1674.4</ele>
        <time>2018-12-27T11:37:01Z</time>
      </trkpt>
      <trkpt lat="42.76119" lon="-0.2384">
        <ele>1676.9</ele>
        <time>2018-12-27T11:37:02Z</time>
      </trkpt>
      <trkpt lat="42.76125" lon="-0.23834">
        <ele>1676</ele>
        <time>2018-12-27T11:37:04Z</time>
      </trkpt>
      <trkpt lat="42.76127" lon="-0.23831">
        <ele>1675.3</ele>
        <time>2018-12-27T11:37:05Z</time>
      </trkpt>
      <trkpt lat="42.7613" lon="-0.23828">
        <ele>1675.2</ele>
        <time>2018-12-27T11:37:06Z</time>
      </trkpt>
      <trkpt lat="42.76132" lon="-0.23829">
        <ele>1676.2</ele>
        <time>2018-12-27T11:37:06Z</time>
      </trkpt>
      <trkpt lat="42.76131" lon="-0.23832">
        <ele>1677.3</ele>
        <time>2018-12-27T11:37:07Z</time>
      </trkpt>
      <trkpt lat="42.76132" lon="-0.23836">
        <ele>1679.3</ele>
        <time>2018-12-27T11:37:08Z</time>
      </trkpt>
      <trkpt lat="42.76136" lon="-0.23833">
        <ele>1679.7</ele>
        <time>2018-12-27T11:37:09Z</time>
      </trkpt>
      <trkpt lat="42.76138" lon="-0.23834">
        <ele>1680.8</ele>
        <time>2018-12-27T11:37:10Z</time>
      </trkpt>
      <trkpt lat="42.76142" lon="-0.23832">
        <ele>1681.7</ele>
        <time>2018-12-27T11:37:11Z</time>
      </trkpt>
      <trkpt lat="42.76144" lon="-0.23832">
        <ele>1682.1</ele>
        <time>2018-12-27T11:37:11Z</time>
      </trkpt>
      <trkpt lat="42.76149" lon="-0.2383">
        <ele>1683.6</ele>
        <time>2018-12-27T11:37:13Z</time>
      </trkpt>
      <trkpt lat="42.76151" lon="-0.23829">
        <ele>1683.9</ele>
        <time>2018-12-27T11:37:13Z</time>
      </trkpt>
      <trkpt lat="42.76153" lon="-0.23823">
        <ele>1681.4</ele>
        <time>2018-12-27T11:37:14Z</time>
      </trkpt>
      <trkpt lat="42.76157" lon="-0.23824">
        <ele>1683.4</ele>
        <time>2018-12-27T11:37:16Z</time>
      </trkpt>
      <trkpt lat="42.7616" lon="-0.23826">
        <ele>1685.8</ele>
        <time>2018-12-27T11:37:17Z</time>
      </trkpt>
      <trkpt lat="42.76161" lon="-0.23828">
        <ele>1687.3</ele>
        <time>2018-12-27T11:37:17Z</time>
      </trkpt>
      <trkpt lat="42.76163" lon="-0.23828">
        <ele>1688.1</ele>
        <time>2018-12-27T11:37:18Z</time>
      </trkpt>
      <trkpt lat="42.76169" lon="-0.23829">
        <ele>1690.4</ele>
        <time>2018-12-27T11:37:19Z</time>
      </trkpt>
      <trkpt lat="42.76173" lon="-0.23828">
        <ele>1691.5</ele>
        <time>2018-12-27T11:37:20Z</time>
      </trkpt>
      <trkpt lat="42.76175" lon="-0.23827">
        <ele>1692.2</ele>
        <time>2018-12-27T11:37:21Z</time>
      </trkpt>
      <trkpt lat="42.76178" lon="-0.23827">
        <ele>1693.1</ele>
        <time>2018-12-27T11:37:22Z</time>
      </trkpt>
      <trkpt lat="42.76182" lon="-0.23826">
        <ele>1694</ele>
        <time>2018-12-27T11:37:23Z</time>
      </trkpt>
      <trkpt lat="42.76183" lon="-0.23828">
        <ele>1695.6</ele>
        <time>2018-12-27T11:37:23Z</time>
      </trkpt>
      <trkpt lat="42.76185" lon="-0.23828">
        <ele>1696.1</ele>
        <time>2018-12-27T11:37:24Z</time>
      </trkpt>
      <trkpt lat="42.76189" lon="-0.23827">
        <ele>1697.1</ele>
        <time>2018-12-27T11:37:25Z</time>
      </trkpt>
      <trkpt lat="42.76191" lon="-0.23826">
        <ele>1697.5</ele>
        <time>2018-12-27T11:37:25Z</time>
      </trkpt>
      <trkpt lat="42.76197" lon="-0.23827">
        <ele>1700.2</ele>
        <time>2018-12-27T11:37:27Z</time>
      </trkpt>
      <trkpt lat="42.76198" lon="-0.23827">
        <ele>1700.5</ele>
        <time>2018-12-27T11:37:27Z</time>
      </trkpt>
      <trkpt lat="42.76202" lon="-0.23825">
        <ele>1700.9</ele>
        <time>2018-12-27T11:37:28Z</time>
      </trkpt>
      <trkpt lat="42.76204" lon="-0.23826">
        <ele>1702.4</ele>
        <time>2018-12-27T11:37:29Z</time>
      </trkpt>
      <trkpt lat="42.76204" lon="-0.23828">
        <ele>1703.3</ele>
        <time>2018-12-27T11:37:29Z</time>
      </trkpt>
      <trkpt lat="42.76207" lon="-0.23829">
        <ele>1705.2</ele>
        <time>2018-12-27T11:37:30Z</time>
      </trkpt>
      <trkpt lat="42.76208" lon="-0.23829">
        <ele>1705.4</ele>
        <time>2018-12-27T11:37:30Z</time>
      </trkpt>
      <trkpt lat="42.76212" lon="-0.23828">
        <ele>1706.1</ele>
        <time>2018-12-27T11:37:31Z</time>
      </trkpt>
      <trkpt lat="42.76212" lon="-0.23829">
        <ele>1706.7</ele>
        <time>2018-12-27T11:37:32Z</time>
      </trkpt>
      <trkpt lat="42.76211" lon="-0.23828">
        <ele>1705.8</ele>
        <time>2018-12-27T11:37:32Z</time>
      </trkpt>
      <trkpt lat="42.76209" lon="-0.23828">
        <ele>1705.2</ele>
        <time>2018-12-27T11:37:32Z</time>
      </trkpt>
      <trkpt lat="42.76206" lon="-0.23832">
        <ele>1705.9</ele>
        <time>2018-12-27T11:37:34Z</time>
      </trkpt>
      <trkpt lat="42.76205" lon="-0.23832">
        <ele>1706.2</ele>
        <time>2018-12-27T11:37:34Z</time>
      </trkpt>
      <trkpt lat="42.76205" lon="-0.23833">
        <ele>1706.7</ele>
        <time>2018-12-27T11:37:34Z</time>
      </trkpt>
      <trkpt lat="42.76203" lon="-0.23836">
        <ele>1707.2</ele>
        <time>2018-12-27T11:37:35Z</time>
      </trkpt>
      <trkpt lat="42.76201" lon="-0.23838">
        <ele>1707.7</ele>
        <time>2018-12-27T11:37:36Z</time>
      </trkpt>
      <trkpt lat="42.76199" lon="-0.23841">
        <ele>1708.3</ele>
        <time>2018-12-27T11:37:36Z</time>
      </trkpt>
      <trkpt lat="42.76195" lon="-0.23848">
        <ele>1710.3</ele>
        <time>2018-12-27T11:37:38Z</time>
      </trkpt>
      <trkpt lat="42.7619" lon="-0.23851">
        <ele>1710.4</ele>
        <time>2018-12-27T11:37:39Z</time>
      </trkpt>
      <trkpt lat="42.76188" lon="-0.23856">
        <ele>1712</ele>
        <time>2018-12-27T11:37:40Z</time>
      </trkpt>
      <trkpt lat="42.76186" lon="-0.23859">
        <ele>1712.3</ele>
        <time>2018-12-27T11:37:41Z</time>
      </trkpt>
      <trkpt lat="42.76188" lon="-0.23861">
        <ele>1713.9</ele>
        <time>2018-12-27T11:37:42Z</time>
      </trkpt>
      <trkpt lat="42.76193" lon="-0.23861">
        <ele>1716.6</ele>
        <time>2018-12-27T11:37:43Z</time>
      </trkpt>
      <trkpt lat="42.76197" lon="-0.23861">
        <ele>1718.3</ele>
        <time>2018-12-27T11:37:44Z</time>
      </trkpt>
      <trkpt lat="42.76197" lon="-0.23864">
        <ele>1719.8</ele>
        <time>2018-12-27T11:37:45Z</time>
      </trkpt>
      <trkpt lat="42.76196" lon="-0.23864">
        <ele>1719.4</ele>
        <time>2018-12-27T11:37:45Z</time>
      </trkpt>
      <trkpt lat="42.76195" lon="-0.23866">
        <ele>1720</ele>
        <time>2018-12-27T11:37:46Z</time>
      </trkpt>
      <trkpt lat="42.76193" lon="-0.23867">
        <ele>1719.7</ele>
        <time>2018-12-27T11:37:46Z</time>
      </trkpt>
      <trkpt lat="42.76196" lon="-0.2387">
        <ele>1722.3</ele>
        <time>2018-12-27T11:37:47Z</time>
      </trkpt>
      <trkpt lat="42.76196" lon="-0.23869">
        <ele>1722.4</ele>
        <time>2018-12-27T11:37:48Z</time>
      </trkpt>
      <trkpt lat="42.76199" lon="-0.23872">
        <ele>1725.2</ele>
        <time>2018-12-27T11:37:49Z</time>
      </trkpt>
      <trkpt lat="42.76201" lon="-0.23872">
        <ele>1725.9</ele>
        <time>2018-12-27T11:37:49Z</time>
      </trkpt>
      <trkpt lat="42.76202" lon="-0.23871">
        <ele>1726</ele>
        <time>2018-12-27T11:37:49Z</time>
      </trkpt>
      <trkpt lat="42.76207" lon="-0.23868">
        <ele>1726.8</ele>
        <time>2018-12-27T11:37:51Z</time>
      </trkpt>
      <trkpt lat="42.76211" lon="-0.23868">
        <ele>1728.2</ele>
        <time>2018-12-27T11:37:52Z</time>
      </trkpt>
      <trkpt lat="42.76214" lon="-0.23868">
        <ele>1728.9</ele>
        <time>2018-12-27T11:37:52Z</time>
      </trkpt>
      <trkpt lat="42.76216" lon="-0.23867">
        <ele>1729.3</ele>
        <time>2018-12-27T11:37:53Z</time>
      </trkpt>
      <trkpt lat="42.76219" lon="-0.23868">
        <ele>1730.6</ele>
        <time>2018-12-27T11:37:54Z</time>
      </trkpt>
      <trkpt lat="42.76223" lon="-0.2387">
        <ele>1732.9</ele>
        <time>2018-12-27T11:37:55Z</time>
      </trkpt>
      <trkpt lat="42.76226" lon="-0.23869">
        <ele>1733.7</ele>
        <time>2018-12-27T11:37:56Z</time>
      </trkpt>
      <trkpt lat="42.76229" lon="-0.23871">
        <ele>1735.9</ele>
        <time>2018-12-27T11:37:57Z</time>
      </trkpt>
      <trkpt lat="42.76232" lon="-0.23872">
        <ele>1737.4</ele>
        <time>2018-12-27T11:37:58Z</time>
      </trkpt>
      <trkpt lat="42.76235" lon="-0.23872">
        <ele>1738.5</ele>
        <time>2018-12-27T11:37:59Z</time>
      </trkpt>
      <trkpt lat="42.76237" lon="-0.23871">
        <ele>1738.4</ele>
        <time>2018-12-27T11:37:59Z</time>
      </trkpt>
      <trkpt lat="42.76239" lon="-0.23871">
        <ele>1739.1</ele>
        <time>2018-12-27T11:37:59Z</time>
      </trkpt>
      <trkpt lat="42.76238" lon="-0.23872">
        <ele>1739.2</ele>
        <time>2018-12-27T11:38:00Z</time>
      </trkpt>
      <trkpt lat="42.76237" lon="-0.23872">
        <ele>1739.3</ele>
        <time>2018-12-27T11:38:00Z</time>
      </trkpt>
      <trkpt lat="42.76232" lon="-0.23876">
        <ele>1739.6</ele>
        <time>2018-12-27T11:38:02Z</time>
      </trkpt>
      <trkpt lat="42.76229" lon="-0.23878">
        <ele>1739.3</ele>
        <time>2018-12-27T11:38:02Z</time>
      </trkpt>
      <trkpt lat="42.76226" lon="-0.23878">
        <ele>1738.8</ele>
        <time>2018-12-27T11:38:03Z</time>
      </trkpt>
      <trkpt lat="42.7622" lon="-0.23883">
        <ele>1738.9</ele>
        <time>2018-12-27T11:38:05Z</time>
      </trkpt>
      <trkpt lat="42.76219" lon="-0.23886">
        <ele>1739.7</ele>
        <time>2018-12-27T11:38:06Z</time>
      </trkpt>
      <trkpt lat="42.76219" lon="-0.23889">
        <ele>1741.4</ele>
        <time>2018-12-27T11:38:06Z</time>
      </trkpt>
      <trkpt lat="42.76219" lon="-0.2389">
        <ele>1741.6</ele>
        <time>2018-12-27T11:38:07Z</time>
      </trkpt>
      <trkpt lat="42.76217" lon="-0.23894">
        <ele>1742.9</ele>
        <time>2018-12-27T11:38:07Z</time>
      </trkpt>
      <trkpt lat="42.76217" lon="-0.23895">
        <ele>1743.4</ele>
        <time>2018-12-27T11:38:08Z</time>
      </trkpt>
      <trkpt lat="42.76213" lon="-0.23896">
        <ele>1742.4</ele>
        <time>2018-12-27T11:38:09Z</time>
      </trkpt>
      <trkpt lat="42.76211" lon="-0.23903">
        <ele>1744.7</ele>
        <time>2018-12-27T11:38:10Z</time>
      </trkpt>
      <trkpt lat="42.76211" lon="-0.23906">
        <ele>1746.2</ele>
        <time>2018-12-27T11:38:11Z</time>
      </trkpt>
      <trkpt lat="42.76208" lon="-0.23908">
        <ele>1746</ele>
        <time>2018-12-27T11:38:12Z</time>
      </trkpt>
      <trkpt lat="42.76204" lon="-0.2391">
        <ele>1745.4</ele>
        <time>2018-12-27T11:38:13Z</time>
      </trkpt>
      <trkpt lat="42.762" lon="-0.23914">
        <ele>1746.3</ele>
        <time>2018-12-27T11:38:14Z</time>
      </trkpt>
      <trkpt lat="42.76196" lon="-0.23919">
        <ele>1746.6</ele>
        <time>2018-12-27T11:38:16Z</time>
      </trkpt>
      <trkpt lat="42.76195" lon="-0.2392">
        <ele>1746.7</ele>
        <time>2018-12-27T11:38:16Z</time>
      </trkpt>
      <trkpt lat="42.76191" lon="-0.2392">
        <ele>1745.5</ele>
        <time>2018-12-27T11:38:17Z</time>
      </trkpt>
      <trkpt lat="42.7619" lon="-0.2392">
        <ele>1745.3</ele>
        <time>2018-12-27T11:38:17Z</time>
      </trkpt>
      <trkpt lat="42.76189" lon="-0.23922">
        <ele>1745.6</ele>
        <time>2018-12-27T11:38:18Z</time>
      </trkpt>
      <trkpt lat="42.76186" lon="-0.23923">
        <ele>1744.8</ele>
        <time>2018-12-27T11:38:19Z</time>
      </trkpt>
      <trkpt lat="42.76184" lon="-0.23923">
        <ele>1744.3</ele>
        <time>2018-12-27T11:38:19Z</time>
      </trkpt>
      <trkpt lat="42.76182" lon="-0.23924">
        <ele>1743.8</ele>
        <time>2018-12-27T11:38:19Z</time>
      </trkpt>
      <trkpt lat="42.7618" lon="-0.23924">
        <ele>1742.9</ele>
        <time>2018-12-27T11:38:20Z</time>
      </trkpt>
      <trkpt lat="42.76174" lon="-0.23922">
        <ele>1739.8</ele>
        <time>2018-12-27T11:38:22Z</time>
      </trkpt>
      <trkpt lat="42.76172" lon="-0.23922">
        <ele>1739.5</ele>
        <time>2018-12-27T11:38:22Z</time>
      </trkpt>
      <trkpt lat="42.76171" lon="-0.23923">
        <ele>1739.4</ele>
        <time>2018-12-27T11:38:23Z</time>
      </trkpt>
      <trkpt lat="42.76167" lon="-0.23925">
        <ele>1739.2</ele>
        <time>2018-12-27T11:38:24Z</time>
      </trkpt>
      <trkpt lat="42.7617" lon="-0.2393">
        <ele>1742.5</ele>
        <time>2018-12-27T11:38:25Z</time>
      </trkpt>
      <trkpt lat="42.76173" lon="-0.23933">
        <ele>1745.4</ele>
        <time>2018-12-27T11:38:26Z</time>
      </trkpt>
      <trkpt lat="42.76173" lon="-0.23934">
        <ele>1746.1</ele>
        <time>2018-12-27T11:38:26Z</time>
      </trkpt>
      <trkpt lat="42.76173" lon="-0.23934">
        <ele>1746.2</ele>
        <time>2018-12-27T11:38:26Z</time>
      </trkpt>
      <trkpt lat="42.7617" lon="-0.23936">
        <ele>1746</ele>
        <time>2018-12-27T11:38:27Z</time>
      </trkpt>
      <trkpt lat="42.7617" lon="-0.23936">
        <ele>1746</ele>
        <time>2018-12-27T11:38:27Z</time>
      </trkpt>
      <trkpt lat="42.76166" lon="-0.23938">
        <ele>1745.6</ele>
        <time>2018-12-27T11:38:28Z</time>
      </trkpt>
      <trkpt lat="42.76165" lon="-0.23939">
        <ele>1746</ele>
        <time>2018-12-27T11:38:28Z</time>
      </trkpt>
      <trkpt lat="42.76167" lon="-0.23943">
        <ele>1748.5</ele>
        <time>2018-12-27T11:38:29Z</time>
      </trkpt>
      <trkpt lat="42.76169" lon="-0.23945">
        <ele>1750.4</ele>
        <time>2018-12-27T11:38:30Z</time>
      </trkpt>
      <trkpt lat="42.76169" lon="-0.23946">
        <ele>1751</ele>
        <time>2018-12-27T11:38:30Z</time>
      </trkpt>
      <trkpt lat="42.76169" lon="-0.23948">
        <ele>1752.2</ele>
        <time>2018-12-27T11:38:31Z</time>
      </trkpt>
      <trkpt lat="42.7617" lon="-0.2395">
        <ele>1753.3</ele>
        <time>2018-12-27T11:38:31Z</time>
      </trkpt>
      <trkpt lat="42.76171" lon="-0.23951">
        <ele>1754.3</ele>
        <time>2018-12-27T11:38:31Z</time>
      </trkpt>
      <trkpt lat="42.76177" lon="-0.23959">
        <ele>1760.3</ele>
        <time>2018-12-27T11:38:34Z</time>
      </trkpt>
      <trkpt lat="42.76179" lon="-0.23962">
        <ele>1762.2</ele>
        <time>2018-12-27T11:38:34Z</time>
      </trkpt>
      <trkpt lat="42.76181" lon="-0.23964">
        <ele>1763.8</ele>
        <time>2018-12-27T11:38:35Z</time>
      </trkpt>
      <trkpt lat="42.7618" lon="-0.23964">
        <ele>1763.5</ele>
        <time>2018-12-27T11:38:35Z</time>
      </trkpt>
      <trkpt lat="42.76179" lon="-0.23963">
        <ele>1762.7</ele>
        <time>2018-12-27T11:38:36Z</time>
      </trkpt>
      <trkpt lat="42.76175" lon="-0.23961">
        <ele>1760.8</ele>
        <time>2018-12-27T11:38:37Z</time>
      </trkpt>
      <trkpt lat="42.76172" lon="-0.23962">
        <ele>1760.6</ele>
        <time>2018-12-27T11:38:38Z</time>
      </trkpt>
      <trkpt lat="42.76171" lon="-0.23964">
        <ele>1760.7</ele>
        <time>2018-12-27T11:38:38Z</time>
      </trkpt>
      <trkpt lat="42.7617" lon="-0.23964">
        <ele>1760.6</ele>
        <time>2018-12-27T11:38:38Z</time>
      </trkpt>
      <trkpt lat="42.76163" lon="-0.23969">
        <ele>1760.8</ele>
        <time>2018-12-27T11:38:40Z</time>
      </trkpt>
      <trkpt lat="42.76163" lon="-0.23969">
        <ele>1761.2</ele>
        <time>2018-12-27T11:38:40Z</time>
      </trkpt>
      <trkpt lat="42.76166" lon="-0.23971">
        <ele>1763</ele>
        <time>2018-12-27T11:38:41Z</time>
      </trkpt>
      <trkpt lat="42.76167" lon="-0.23972">
        <ele>1763.3</ele>
        <time>2018-12-27T11:38:42Z</time>
      </trkpt>
      <trkpt lat="42.76168" lon="-0.23972">
        <ele>1763.8</ele>
        <time>2018-12-27T11:38:42Z</time>
      </trkpt>
      <trkpt lat="42.76168" lon="-0.23973">
        <ele>1764</ele>
        <time>2018-12-27T11:38:42Z</time>
      </trkpt>
      <trkpt lat="42.76167" lon="-0.23973">
        <ele>1764.1</ele>
        <time>2018-12-27T11:38:42Z</time>
      </trkpt>
      <trkpt lat="42.76167" lon="-0.23975">
        <ele>1764.7</ele>
        <time>2018-12-27T11:38:42Z</time>
      </trkpt>
      <trkpt lat="42.76167" lon="-0.23977">
        <ele>1765.5</ele>
        <time>2018-12-27T11:38:43Z</time>
      </trkpt>
      <trkpt lat="42.76167" lon="-0.23978">
        <ele>1766.2</ele>
        <time>2018-12-27T11:38:43Z</time>
      </trkpt>
      <trkpt lat="42.76169" lon="-0.23981">
        <ele>1768.3</ele>
        <time>2018-12-27T11:38:44Z</time>
      </trkpt>
      <trkpt lat="42.76172" lon="-0.23984">
        <ele>1770.2</ele>
        <time>2018-12-27T11:38:45Z</time>
      </trkpt>
      <trkpt lat="42.76176" lon="-0.23986">
        <ele>1772</ele>
        <time>2018-12-27T11:38:46Z</time>
      </trkpt>
      <trkpt lat="42.76177" lon="-0.23989">
        <ele>1773.6</ele>
        <time>2018-12-27T11:38:46Z</time>
      </trkpt>
      <trkpt lat="42.7618" lon="-0.23991">
        <ele>1774.8</ele>
        <time>2018-12-27T11:38:47Z</time>
      </trkpt>
      <trkpt lat="42.76182" lon="-0.23992">
        <ele>1775.8</ele>
        <time>2018-12-27T11:38:48Z</time>
      </trkpt>
      <trkpt lat="42.76183" lon="-0.23994">
        <ele>1777.2</ele>
        <time>2018-12-27T11:38:49Z</time>
      </trkpt>
      <trkpt lat="42.76179" lon="-0.23995">
        <ele>1776.6</ele>
        <time>2018-12-27T11:38:50Z</time>
      </trkpt>
      <trkpt lat="42.76172" lon="-0.23997">
        <ele>1775.8</ele>
        <time>2018-12-27T11:38:52Z</time>
      </trkpt>
      <trkpt lat="42.76167" lon="-0.23998">
        <ele>1775.6</ele>
        <time>2018-12-27T11:38:53Z</time>
      </trkpt>
      <trkpt lat="42.76167" lon="-0.23999">
        <ele>1775.7</ele>
        <time>2018-12-27T11:38:53Z</time>
      </trkpt>
      <trkpt lat="42.76164" lon="-0.24002">
        <ele>1776.6</ele>
        <time>2018-12-27T11:38:54Z</time>
      </trkpt>
      <trkpt lat="42.76159" lon="-0.2401">
        <ele>1779.5</ele>
        <time>2018-12-27T11:38:56Z</time>
      </trkpt>
      <trkpt lat="42.76158" lon="-0.24013">
        <ele>1780.7</ele>
        <time>2018-12-27T11:38:57Z</time>
      </trkpt>
      <trkpt lat="42.76158" lon="-0.24013">
        <ele>1781</ele>
        <time>2018-12-27T11:38:57Z</time>
      </trkpt>
      <trkpt lat="42.76161" lon="-0.24015">
        <ele>1782.4</ele>
        <time>2018-12-27T11:38:58Z</time>
      </trkpt>
      <trkpt lat="42.76164" lon="-0.24016">
        <ele>1783.2</ele>
        <time>2018-12-27T11:38:58Z</time>
      </trkpt>
      <trkpt lat="42.76166" lon="-0.24017">
        <ele>1784.2</ele>
        <time>2018-12-27T11:38:59Z</time>
      </trkpt>
      <trkpt lat="42.7617" lon="-0.2402">
        <ele>1785.9</ele>
        <time>2018-12-27T11:39:00Z</time>
      </trkpt>
      <trkpt lat="42.76176" lon="-0.24024">
        <ele>1788.5</ele>
        <time>2018-12-27T11:39:02Z</time>
      </trkpt>
      <trkpt lat="42.76177" lon="-0.24026">
        <ele>1789.4</ele>
        <time>2018-12-27T11:39:02Z</time>
      </trkpt>
      <trkpt lat="42.7618" lon="-0.24027">
        <ele>1790.5</ele>
        <time>2018-12-27T11:39:03Z</time>
      </trkpt>
      <trkpt lat="42.7618" lon="-0.24027">
        <ele>1790.3</ele>
        <time>2018-12-27T11:39:03Z</time>
      </trkpt>
      <trkpt lat="42.76181" lon="-0.24027">
        <ele>1790.4</ele>
        <time>2018-12-27T11:39:04Z</time>
      </trkpt>
      <trkpt lat="42.76185" lon="-0.24027">
        <ele>1790.9</ele>
        <time>2018-12-27T11:39:05Z</time>
      </trkpt>
      <trkpt lat="42.76186" lon="-0.24027">
        <ele>1791.1</ele>
        <time>2018-12-27T11:39:05Z</time>
      </trkpt>
      <trkpt lat="42.76189" lon="-0.24029">
        <ele>1792.4</ele>
        <time>2018-12-27T11:39:06Z</time>
      </trkpt>
      <trkpt lat="42.76192" lon="-0.24028">
        <ele>1792.3</ele>
        <time>2018-12-27T11:39:07Z</time>
      </trkpt>
      <trkpt lat="42.76194" lon="-0.2403">
        <ele>1793.3</ele>
        <time>2018-12-27T11:39:07Z</time>
      </trkpt>
      <trkpt lat="42.76194" lon="-0.24031">
        <ele>1793.8</ele>
        <time>2018-12-27T11:39:08Z</time>
      </trkpt>
      <trkpt lat="42.76191" lon="-0.2403">
        <ele>1793</ele>
        <time>2018-12-27T11:39:08Z</time>
      </trkpt>
      <trkpt lat="42.76189" lon="-0.24031">
        <ele>1793.3</ele>
        <time>2018-12-27T11:39:09Z</time>
      </trkpt>
      <trkpt lat="42.76187" lon="-0.24033">
        <ele>1793.7</ele>
        <time>2018-12-27T11:39:09Z</time>
      </trkpt>
      <trkpt lat="42.76185" lon="-0.24033">
        <ele>1793.6</ele>
        <time>2018-12-27T11:39:10Z</time>
      </trkpt>
      <trkpt lat="42.76183" lon="-0.24032">
        <ele>1793</ele>
        <time>2018-12-27T11:39:11Z</time>
      </trkpt>
      <trkpt lat="42.76178" lon="-0.24035">
        <ele>1793.4</ele>
        <time>2018-12-27T11:39:12Z</time>
      </trkpt>
      <trkpt lat="42.76177" lon="-0.24036">
        <ele>1793.9</ele>
        <time>2018-12-27T11:39:12Z</time>
      </trkpt>
      <trkpt lat="42.76173" lon="-0.24042">
        <ele>1796.1</ele>
        <time>2018-12-27T11:39:14Z</time>
      </trkpt>
      <trkpt lat="42.7617" lon="-0.24048">
        <ele>1798.4</ele>
        <time>2018-12-27T11:39:16Z</time>
      </trkpt>
      <trkpt lat="42.76168" lon="-0.24054">
        <ele>1800.5</ele>
        <time>2018-12-27T11:39:17Z</time>
      </trkpt>
      <trkpt lat="42.76168" lon="-0.24055">
        <ele>1800.9</ele>
        <time>2018-12-27T11:39:17Z</time>
      </trkpt>
      <trkpt lat="42.76169" lon="-0.24057">
        <ele>1801.8</ele>
        <time>2018-12-27T11:39:17Z</time>
      </trkpt>
      <trkpt lat="42.7617" lon="-0.24058">
        <ele>1802.1</ele>
        <time>2018-12-27T11:39:18Z</time>
      </trkpt>
      <trkpt lat="42.76172" lon="-0.24058">
        <ele>1802.4</ele>
        <time>2018-12-27T11:39:18Z</time>
      </trkpt>
      <trkpt lat="42.76173" lon="-0.24059">
        <ele>1802.7</ele>
        <time>2018-12-27T11:39:18Z</time>
      </trkpt>
      <trkpt lat="42.76173" lon="-0.24059">
        <ele>1802.7</ele>
        <time>2018-12-27T11:39:19Z</time>
      </trkpt>
      <trkpt lat="42.76175" lon="-0.24059">
        <ele>1802.8</ele>
        <time>2018-12-27T11:39:19Z</time>
      </trkpt>
      <trkpt lat="42.76177" lon="-0.24061">
        <ele>1803.8</ele>
        <time>2018-12-27T11:39:20Z</time>
      </trkpt>
      <trkpt lat="42.76179" lon="-0.24062">
        <ele>1804.4</ele>
        <time>2018-12-27T11:39:20Z</time>
      </trkpt>
      <trkpt lat="42.76182" lon="-0.24064">
        <ele>1805.4</ele>
        <time>2018-12-27T11:39:21Z</time>
      </trkpt>
      <trkpt lat="42.76185" lon="-0.24065">
        <ele>1805.8</ele>
        <time>2018-12-27T11:39:22Z</time>
      </trkpt>
      <trkpt lat="42.76188" lon="-0.24063">
        <ele>1805.4</ele>
        <time>2018-12-27T11:39:23Z</time>
      </trkpt>
      <trkpt lat="42.76189" lon="-0.24063">
        <ele>1805.4</ele>
        <time>2018-12-27T11:39:23Z</time>
      </trkpt>
      <trkpt lat="42.76193" lon="-0.24063">
        <ele>1805.5</ele>
        <time>2018-12-27T11:39:24Z</time>
      </trkpt>
      <trkpt lat="42.76197" lon="-0.24065">
        <ele>1806.5</ele>
        <time>2018-12-27T11:39:25Z</time>
      </trkpt>
      <trkpt lat="42.76193" lon="-0.24066">
        <ele>1806.5</ele>
        <time>2018-12-27T11:39:26Z</time>
      </trkpt>
      <trkpt lat="42.76189" lon="-0.24066">
        <ele>1806.6</ele>
        <time>2018-12-27T11:39:27Z</time>
      </trkpt>
      <trkpt lat="42.76186" lon="-0.24071">
        <ele>1808</ele>
        <time>2018-12-27T11:39:28Z</time>
      </trkpt>
      <trkpt lat="42.76184" lon="-0.24075">
        <ele>1809.6</ele>
        <time>2018-12-27T11:39:29Z</time>
      </trkpt>
      <trkpt lat="42.76183" lon="-0.24078">
        <ele>1810.4</ele>
        <time>2018-12-27T11:39:30Z</time>
      </trkpt>
      <trkpt lat="42.76181" lon="-0.24079">
        <ele>1811</ele>
        <time>2018-12-27T11:39:31Z</time>
      </trkpt>
      <trkpt lat="42.7618" lon="-0.24086">
        <ele>1813.4</ele>
        <time>2018-12-27T11:39:32Z</time>
      </trkpt>
      <trkpt lat="42.76183" lon="-0.24084">
        <ele>1813</ele>
        <time>2018-12-27T11:39:33Z</time>
      </trkpt>
      <trkpt lat="42.76184" lon="-0.24085">
        <ele>1813.2</ele>
        <time>2018-12-27T11:39:33Z</time>
      </trkpt>
      <trkpt lat="42.76187" lon="-0.24085">
        <ele>1813.4</ele>
        <time>2018-12-27T11:39:34Z</time>
      </trkpt>
      <trkpt lat="42.76188" lon="-0.24084">
        <ele>1813.2</ele>
        <time>2018-12-27T11:39:34Z</time>
      </trkpt>
      <trkpt lat="42.7619" lon="-0.24086">
        <ele>1813.9</ele>
        <time>2018-12-27T11:39:35Z</time>
      </trkpt>
      <trkpt lat="42.76193" lon="-0.24086">
        <ele>1813.8</ele>
        <time>2018-12-27T11:39:36Z</time>
      </trkpt>
      <trkpt lat="42.76195" lon="-0.24088">
        <ele>1814.8</ele>
        <time>2018-12-27T11:39:36Z</time>
      </trkpt>
      <trkpt lat="42.76199" lon="-0.24089">
        <ele>1815.2</ele>
        <time>2018-12-27T11:39:37Z</time>
      </trkpt>
      <trkpt lat="42.76205" lon="-0.24089">
        <ele>1815.2</ele>
        <time>2018-12-27T11:39:39Z</time>
      </trkpt>
      <trkpt lat="42.76208" lon="-0.2409">
        <ele>1815.7</ele>
        <time>2018-12-27T11:39:40Z</time>
      </trkpt>
      <trkpt lat="42.76209" lon="-0.2409">
        <ele>1816.2</ele>
        <time>2018-12-27T11:39:40Z</time>
      </trkpt>
      <trkpt lat="42.76212" lon="-0.24088">
        <ele>1817</ele>
        <time>2018-12-27T11:39:41Z</time>
      </trkpt>
      <trkpt lat="42.76211" lon="-0.24088">
        <ele>1816.3</ele>
        <time>2018-12-27T11:39:41Z</time>
      </trkpt>
      <trkpt lat="42.7621" lon="-0.24089">
        <ele>1816.3</ele>
        <time>2018-12-27T11:39:42Z</time>
      </trkpt>
      <trkpt lat="42.7621" lon="-0.24093">
        <ele>1817.8</ele>
        <time>2018-12-27T11:39:42Z</time>
      </trkpt>
      <trkpt lat="42.76207" lon="-0.24096">
        <ele>1817.8</ele>
        <time>2018-12-27T11:39:44Z</time>
      </trkpt>
      <trkpt lat="42.76203" lon="-0.24097">
        <ele>1818.3</ele>
        <time>2018-12-27T11:39:44Z</time>
      </trkpt>
      <trkpt lat="42.76202" lon="-0.24098">
        <ele>1818.6</ele>
        <time>2018-12-27T11:39:45Z</time>
      </trkpt>
      <trkpt lat="42.762" lon="-0.24101">
        <ele>1819.7</ele>
        <time>2018-12-27T11:39:46Z</time>
      </trkpt>
      <trkpt lat="42.76202" lon="-0.24105">
        <ele>1821.1</ele>
        <time>2018-12-27T11:39:47Z</time>
      </trkpt>
      <trkpt lat="42.76203" lon="-0.24106">
        <ele>1821.3</ele>
        <time>2018-12-27T11:39:47Z</time>
      </trkpt>
      <trkpt lat="42.76206" lon="-0.24107">
        <ele>1821.6</ele>
        <time>2018-12-27T11:39:48Z</time>
      </trkpt>
      <trkpt lat="42.76206" lon="-0.24108">
        <ele>1822</ele>
        <time>2018-12-27T11:39:48Z</time>
      </trkpt>
      <trkpt lat="42.76205" lon="-0.2411">
        <ele>1822.9</ele>
        <time>2018-12-27T11:39:49Z</time>
      </trkpt>
      <trkpt lat="42.76202" lon="-0.24113">
        <ele>1823.6</ele>
        <time>2018-12-27T11:39:50Z</time>
      </trkpt>
      <trkpt lat="42.76198" lon="-0.24117">
        <ele>1825.1</ele>
        <time>2018-12-27T11:39:51Z</time>
      </trkpt>
      <trkpt lat="42.76198" lon="-0.2412">
        <ele>1826.1</ele>
        <time>2018-12-27T11:39:52Z</time>
      </trkpt>
      <trkpt lat="42.76201" lon="-0.24119">
        <ele>1825.9</ele>
        <time>2018-12-27T11:39:52Z</time>
      </trkpt>
      <trkpt lat="42.76201" lon="-0.24119">
        <ele>1826.1</ele>
        <time>2018-12-27T11:39:53Z</time>
      </trkpt>
      <trkpt lat="42.76203" lon="-0.24121">
        <ele>1826.5</ele>
        <time>2018-12-27T11:39:53Z</time>
      </trkpt>
      <trkpt lat="42.76203" lon="-0.24122">
        <ele>1827</ele>
        <time>2018-12-27T11:39:53Z</time>
      </trkpt>
      <trkpt lat="42.76202" lon="-0.24126">
        <ele>1828.3</ele>
        <time>2018-12-27T11:39:54Z</time>
      </trkpt>
      <trkpt lat="42.76201" lon="-0.2413">
        <ele>1829.6</ele>
        <time>2018-12-27T11:39:55Z</time>
      </trkpt>
      <trkpt lat="42.762" lon="-0.24134">
        <ele>1830.5</ele>
        <time>2018-12-27T11:39:56Z</time>
      </trkpt>
      <trkpt lat="42.76196" lon="-0.24138">
        <ele>1831.7</ele>
        <time>2018-12-27T11:39:57Z</time>
      </trkpt>
      <trkpt lat="42.76195" lon="-0.2414">
        <ele>1832.4</ele>
        <time>2018-12-27T11:39:58Z</time>
      </trkpt>
      <trkpt lat="42.76196" lon="-0.24142">
        <ele>1833</ele>
        <time>2018-12-27T11:39:58Z</time>
      </trkpt>
      <trkpt lat="42.76199" lon="-0.2414">
        <ele>1832.3</ele>
        <time>2018-12-27T11:39:59Z</time>
      </trkpt>
      <trkpt lat="42.76203" lon="-0.2414">
        <ele>1832.3</ele>
        <time>2018-12-27T11:40:00Z</time>
      </trkpt>
      <trkpt lat="42.76206" lon="-0.2414">
        <ele>1832.4</ele>
        <time>2018-12-27T11:40:01Z</time>
      </trkpt>
      <trkpt lat="42.76206" lon="-0.24143">
        <ele>1833.1</ele>
        <time>2018-12-27T11:40:02Z</time>
      </trkpt>
      <trkpt lat="42.76204" lon="-0.24146">
        <ele>1834</ele>
        <time>2018-12-27T11:40:02Z</time>
      </trkpt>
      <trkpt lat="42.76201" lon="-0.2415">
        <ele>1835.1</ele>
        <time>2018-12-27T11:40:04Z</time>
      </trkpt>
      <trkpt lat="42.762" lon="-0.24152">
        <ele>1835.7</ele>
        <time>2018-12-27T11:40:04Z</time>
      </trkpt>
      <trkpt lat="42.76202" lon="-0.24156">
        <ele>1836.6</ele>
        <time>2018-12-27T11:40:05Z</time>
      </trkpt>
      <trkpt lat="42.76202" lon="-0.24161">
        <ele>1838.1</ele>
        <time>2018-12-27T11:40:06Z</time>
      </trkpt>
      <trkpt lat="42.76202" lon="-0.24163">
        <ele>1838.6</ele>
        <time>2018-12-27T11:40:06Z</time>
      </trkpt>
      <trkpt lat="42.76202" lon="-0.24167">
        <ele>1839.6</ele>
        <time>2018-12-27T11:40:07Z</time>
      </trkpt>
      <trkpt lat="42.76201" lon="-0.24171">
        <ele>1841</ele>
        <time>2018-12-27T11:40:08Z</time>
      </trkpt>
      <trkpt lat="42.76198" lon="-0.24182">
        <ele>1843.9</ele>
        <time>2018-12-27T11:40:10Z</time>
      </trkpt>
      <trkpt lat="42.76195" lon="-0.24185">
        <ele>1844.9</ele>
        <time>2018-12-27T11:40:11Z</time>
      </trkpt>
      <trkpt lat="42.76194" lon="-0.24188">
        <ele>1845.8</ele>
        <time>2018-12-27T11:40:12Z</time>
      </trkpt>
      <trkpt lat="42.76194" lon="-0.24192">
        <ele>1847</ele>
        <time>2018-12-27T11:40:13Z</time>
      </trkpt>
      <trkpt lat="42.76193" lon="-0.24196">
        <ele>1847.9</ele>
        <time>2018-12-27T11:40:14Z</time>
      </trkpt>
      <trkpt lat="42.76194" lon="-0.24208">
        <ele>1851.3</ele>
        <time>2018-12-27T11:40:16Z</time>
      </trkpt>
      <trkpt lat="42.76193" lon="-0.2421">
        <ele>1851.7</ele>
        <time>2018-12-27T11:40:16Z</time>
      </trkpt>
      <trkpt lat="42.76193" lon="-0.24213">
        <ele>1852.2</ele>
        <time>2018-12-27T11:40:17Z</time>
      </trkpt>
      <trkpt lat="42.76192" lon="-0.24214">
        <ele>1852.3</ele>
        <time>2018-12-27T11:40:17Z</time>
      </trkpt>
      <trkpt lat="42.76191" lon="-0.24215">
        <ele>1852.6</ele>
        <time>2018-12-27T11:40:18Z</time>
      </trkpt>
      <trkpt lat="42.76189" lon="-0.24219">
        <ele>1853.3</ele>
        <time>2018-12-27T11:40:18Z</time>
      </trkpt>
      <trkpt lat="42.76188" lon="-0.24221">
        <ele>1853.6</ele>
        <time>2018-12-27T11:40:19Z</time>
      </trkpt>
      <trkpt lat="42.76187" lon="-0.24221">
        <ele>1853.6</ele>
        <time>2018-12-27T11:40:19Z</time>
      </trkpt>
      <trkpt lat="42.76185" lon="-0.24226">
        <ele>1854.4</ele>
        <time>2018-12-27T11:40:20Z</time>
      </trkpt>
      <trkpt lat="42.76185" lon="-0.24228">
        <ele>1854.8</ele>
        <time>2018-12-27T11:40:21Z</time>
      </trkpt>
      <trkpt lat="42.7618" lon="-0.24233">
        <ele>1855.7</ele>
        <time>2018-12-27T11:40:22Z</time>
      </trkpt>
      <trkpt lat="42.76175" lon="-0.24242">
        <ele>1857.3</ele>
        <time>2018-12-27T11:40:24Z</time>
      </trkpt>
      <trkpt lat="42.76174" lon="-0.24244">
        <ele>1857.6</ele>
        <time>2018-12-27T11:40:25Z</time>
      </trkpt>
      <trkpt lat="42.76172" lon="-0.24249">
        <ele>1858.4</ele>
        <time>2018-12-27T11:40:26Z</time>
      </trkpt>
      <trkpt lat="42.76171" lon="-0.24255">
        <ele>1859.4</ele>
        <time>2018-12-27T11:40:27Z</time>
      </trkpt>
      <trkpt lat="42.76171" lon="-0.24257">
        <ele>1859.8</ele>
        <time>2018-12-27T11:40:28Z</time>
      </trkpt>
      <trkpt lat="42.76171" lon="-0.24258">
        <ele>1860</ele>
        <time>2018-12-27T11:40:28Z</time>
      </trkpt>
      <trkpt lat="42.76172" lon="-0.24262">
        <ele>1860.7</ele>
        <time>2018-12-27T11:40:29Z</time>
      </trkpt>
      <trkpt lat="42.76172" lon="-0.24271">
        <ele>1861.9</ele>
        <time>2018-12-27T11:40:30Z</time>
      </trkpt>
      <trkpt lat="42.76174" lon="-0.24275">
        <ele>1862.5</ele>
        <time>2018-12-27T11:40:31Z</time>
      </trkpt>
      <trkpt lat="42.76174" lon="-0.24277">
        <ele>1863</ele>
        <time>2018-12-27T11:40:32Z</time>
      </trkpt>
      <trkpt lat="42.76176" lon="-0.24283">
        <ele>1863.7</ele>
        <time>2018-12-27T11:40:33Z</time>
      </trkpt>
      <trkpt lat="42.76176" lon="-0.24286">
        <ele>1864.2</ele>
        <time>2018-12-27T11:40:34Z</time>
      </trkpt>
      <trkpt lat="42.76176" lon="-0.24289">
        <ele>1864.8</ele>
        <time>2018-12-27T11:40:34Z</time>
      </trkpt>
      <trkpt lat="42.76178" lon="-0.24291">
        <ele>1865</ele>
        <time>2018-12-27T11:40:35Z</time>
      </trkpt>
      <trkpt lat="42.76179" lon="-0.24292">
        <ele>1865.1</ele>
        <time>2018-12-27T11:40:35Z</time>
      </trkpt>
      <trkpt lat="42.7618" lon="-0.24293">
        <ele>1865.2</ele>
        <time>2018-12-27T11:40:35Z</time>
      </trkpt>
      <trkpt lat="42.76183" lon="-0.24298">
        <ele>1866</ele>
        <time>2018-12-27T11:40:37Z</time>
      </trkpt>
      <trkpt lat="42.76186" lon="-0.24299">
        <ele>1866.1</ele>
        <time>2018-12-27T11:40:38Z</time>
      </trkpt>
      <trkpt lat="42.76189" lon="-0.24299">
        <ele>1866.2</ele>
        <time>2018-12-27T11:40:38Z</time>
      </trkpt>
      <trkpt lat="42.7619" lon="-0.243">
        <ele>1866.2</ele>
        <time>2018-12-27T11:40:39Z</time>
      </trkpt>
      <trkpt lat="42.76191" lon="-0.243">
        <ele>1866.2</ele>
        <time>2018-12-27T11:40:39Z</time>
      </trkpt>
      <trkpt lat="42.76194" lon="-0.24302">
        <ele>1866.3</ele>
        <time>2018-12-27T11:40:40Z</time>
      </trkpt>
      <trkpt lat="42.76199" lon="-0.24302">
        <ele>1866.4</ele>
        <time>2018-12-27T11:40:41Z</time>
      </trkpt>
      <trkpt lat="42.762" lon="-0.24303">
        <ele>1866.5</ele>
        <time>2018-12-27T11:40:41Z</time>
      </trkpt>
      <trkpt lat="42.76203" lon="-0.24306">
        <ele>1867.1</ele>
        <time>2018-12-27T11:40:43Z</time>
      </trkpt>
      <trkpt lat="42.76203" lon="-0.24307">
        <ele>1867.1</ele>
        <time>2018-12-27T11:40:43Z</time>
      </trkpt>
      <trkpt lat="42.76207" lon="-0.24308">
        <ele>1867.2</ele>
        <time>2018-12-27T11:40:44Z</time>
      </trkpt>
      <trkpt lat="42.76211" lon="-0.2431">
        <ele>1868.2</ele>
        <time>2018-12-27T11:40:45Z</time>
      </trkpt>
      <trkpt lat="42.76214" lon="-0.24311">
        <ele>1869.7</ele>
        <time>2018-12-27T11:40:46Z</time>
      </trkpt>
      <trkpt lat="42.76216" lon="-0.24315">
        <ele>1871.1</ele>
        <time>2018-12-27T11:40:47Z</time>
      </trkpt>
      <trkpt lat="42.76219" lon="-0.24319">
        <ele>1872.6</ele>
        <time>2018-12-27T11:40:48Z</time>
      </trkpt>
      <trkpt lat="42.76221" lon="-0.24321">
        <ele>1873.6</ele>
        <time>2018-12-27T11:40:48Z</time>
      </trkpt>
      <trkpt lat="42.76221" lon="-0.24327">
        <ele>1874.8</ele>
        <time>2018-12-27T11:40:49Z</time>
      </trkpt>
      <trkpt lat="42.76224" lon="-0.24336">
        <ele>1877.2</ele>
        <time>2018-12-27T11:40:51Z</time>
      </trkpt>
      <trkpt lat="42.76226" lon="-0.24337">
        <ele>1878</ele>
        <time>2018-12-27T11:40:52Z</time>
      </trkpt>
      <trkpt lat="42.76229" lon="-0.24338">
        <ele>1879.1</ele>
        <time>2018-12-27T11:40:53Z</time>
      </trkpt>
      <trkpt lat="42.76231" lon="-0.24339">
        <ele>1879.9</ele>
        <time>2018-12-27T11:40:53Z</time>
      </trkpt>
      <trkpt lat="42.76232" lon="-0.2434">
        <ele>1880.5</ele>
        <time>2018-12-27T11:40:54Z</time>
      </trkpt>
      <trkpt lat="42.76235" lon="-0.24343">
        <ele>1882</ele>
        <time>2018-12-27T11:40:55Z</time>
      </trkpt>
      <trkpt lat="42.76239" lon="-0.24344">
        <ele>1883.3</ele>
        <time>2018-12-27T11:40:56Z</time>
      </trkpt>
      <trkpt lat="42.7624" lon="-0.24346">
        <ele>1883.9</ele>
        <time>2018-12-27T11:40:56Z</time>
      </trkpt>
      <trkpt lat="42.7624" lon="-0.24348">
        <ele>1884.3</ele>
        <time>2018-12-27T11:40:57Z</time>
      </trkpt>
      <trkpt lat="42.76243" lon="-0.24349">
        <ele>1885.4</ele>
        <time>2018-12-27T11:40:57Z</time>
      </trkpt>
      <trkpt lat="42.76247" lon="-0.24356">
        <ele>1887.5</ele>
        <time>2018-12-27T11:40:59Z</time>
      </trkpt>
      <trkpt lat="42.76247" lon="-0.24365">
        <ele>1889</ele>
        <time>2018-12-27T11:41:01Z</time>
      </trkpt>
      <trkpt lat="42.76247" lon="-0.24373">
        <ele>1890.4</ele>
        <time>2018-12-27T11:41:02Z</time>
      </trkpt>
      <trkpt lat="42.76247" lon="-0.24375">
        <ele>1890.7</ele>
        <time>2018-12-27T11:41:03Z</time>
      </trkpt>
      <trkpt lat="42.76247" lon="-0.24382">
        <ele>1891.8</ele>
        <time>2018-12-27T11:41:04Z</time>
      </trkpt>
      <trkpt lat="42.76247" lon="-0.24383">
        <ele>1891.9</ele>
        <time>2018-12-27T11:41:04Z</time>
      </trkpt>
      <trkpt lat="42.76249" lon="-0.24388">
        <ele>1893.2</ele>
        <time>2018-12-27T11:41:06Z</time>
      </trkpt>
      <trkpt lat="42.76249" lon="-0.24389">
        <ele>1893.7</ele>
        <time>2018-12-27T11:41:06Z</time>
      </trkpt>
      <trkpt lat="42.76251" lon="-0.2439">
        <ele>1894.1</ele>
        <time>2018-12-27T11:41:06Z</time>
      </trkpt>
      <trkpt lat="42.76251" lon="-0.2439">
        <ele>1894.3</ele>
        <time>2018-12-27T11:41:06Z</time>
      </trkpt>
      <trkpt lat="42.76255" lon="-0.24389">
        <ele>1895.1</ele>
        <time>2018-12-27T11:41:07Z</time>
      </trkpt>
      <trkpt lat="42.76262" lon="-0.24379">
        <ele>1895.4</ele>
        <time>2018-12-27T11:41:10Z</time>
      </trkpt>
      <trkpt lat="42.76267" lon="-0.24372">
        <ele>1895.8</ele>
        <time>2018-12-27T11:41:12Z</time>
      </trkpt>
      <trkpt lat="42.7627" lon="-0.24368">
        <ele>1895.9</ele>
        <time>2018-12-27T11:41:13Z</time>
      </trkpt>
      <trkpt lat="42.7627" lon="-0.24372">
        <ele>1896.6</ele>
        <time>2018-12-27T11:41:14Z</time>
      </trkpt>
      <trkpt lat="42.76271" lon="-0.24374">
        <ele>1897.1</ele>
        <time>2018-12-27T11:41:14Z</time>
      </trkpt>
      <trkpt lat="42.7627" lon="-0.24379">
        <ele>1897.7</ele>
        <time>2018-12-27T11:41:15Z</time>
      </trkpt>
      <trkpt lat="42.7627" lon="-0.24387">
        <ele>1899.2</ele>
        <time>2018-12-27T11:41:17Z</time>
      </trkpt>
      <trkpt lat="42.76271" lon="-0.24391">
        <ele>1900.2</ele>
        <time>2018-12-27T11:41:18Z</time>
      </trkpt>
      <trkpt lat="42.76271" lon="-0.24392">
        <ele>1900.3</ele>
        <time>2018-12-27T11:41:18Z</time>
      </trkpt>
      <trkpt lat="42.76272" lon="-0.24395">
        <ele>1901.2</ele>
        <time>2018-12-27T11:41:19Z</time>
      </trkpt>
      <trkpt lat="42.76273" lon="-0.24401">
        <ele>1902.4</ele>
        <time>2018-12-27T11:41:20Z</time>
      </trkpt>
      <trkpt lat="42.76272" lon="-0.24408">
        <ele>1903.3</ele>
        <time>2018-12-27T11:41:21Z</time>
      </trkpt>
      <trkpt lat="42.76273" lon="-0.24415">
        <ele>1905</ele>
        <time>2018-12-27T11:41:23Z</time>
      </trkpt>
      <trkpt lat="42.76273" lon="-0.24416">
        <ele>1905.2</ele>
        <time>2018-12-27T11:41:23Z</time>
      </trkpt>
      <trkpt lat="42.76273" lon="-0.24424">
        <ele>1906.5</ele>
        <time>2018-12-27T11:41:24Z</time>
      </trkpt>
      <trkpt lat="42.76272" lon="-0.24427">
        <ele>1907.1</ele>
        <time>2018-12-27T11:41:25Z</time>
      </trkpt>
      <trkpt lat="42.76272" lon="-0.24434">
        <ele>1908.1</ele>
        <time>2018-12-27T11:41:26Z</time>
      </trkpt>
      <trkpt lat="42.76272" lon="-0.2444">
        <ele>1909</ele>
        <time>2018-12-27T11:41:27Z</time>
      </trkpt>
      <trkpt lat="42.76272" lon="-0.2445">
        <ele>1910.9</ele>
        <time>2018-12-27T11:41:29Z</time>
      </trkpt>
      <trkpt lat="42.76272" lon="-0.24453">
        <ele>1911.6</ele>
        <time>2018-12-27T11:41:30Z</time>
      </trkpt>
      <trkpt lat="42.76275" lon="-0.24451">
        <ele>1912.1</ele>
        <time>2018-12-27T11:41:31Z</time>
      </trkpt>
      <trkpt lat="42.76275" lon="-0.2445">
        <ele>1912</ele>
        <time>2018-12-27T11:41:31Z</time>
      </trkpt>
      <trkpt lat="42.76278" lon="-0.24446">
        <ele>1912.1</ele>
        <time>2018-12-27T11:41:32Z</time>
      </trkpt>
      <trkpt lat="42.76278" lon="-0.24445">
        <ele>1912.2</ele>
        <time>2018-12-27T11:41:32Z</time>
      </trkpt>
      <trkpt lat="42.76284" lon="-0.24436">
        <ele>1912.1</ele>
        <time>2018-12-27T11:41:35Z</time>
      </trkpt>
      <trkpt lat="42.76288" lon="-0.24428">
        <ele>1912</ele>
        <time>2018-12-27T11:41:37Z</time>
      </trkpt>
      <trkpt lat="42.76292" lon="-0.24422">
        <ele>1912.1</ele>
        <time>2018-12-27T11:41:38Z</time>
      </trkpt>
      <trkpt lat="42.76292" lon="-0.24421">
        <ele>1912.1</ele>
        <time>2018-12-27T11:41:38Z</time>
      </trkpt>
      <trkpt lat="42.76295" lon="-0.24414">
        <ele>1912.2</ele>
        <time>2018-12-27T11:41:40Z</time>
      </trkpt>
      <trkpt lat="42.76298" lon="-0.24412">
        <ele>1913.2</ele>
        <time>2018-12-27T11:41:41Z</time>
      </trkpt>
      <trkpt lat="42.76299" lon="-0.2441">
        <ele>1913.6</ele>
        <time>2018-12-27T11:41:41Z</time>
      </trkpt>
      <trkpt lat="42.76301" lon="-0.24406">
        <ele>1914.2</ele>
        <time>2018-12-27T11:41:42Z</time>
      </trkpt>
      <trkpt lat="42.76302" lon="-0.24405">
        <ele>1914</ele>
        <time>2018-12-27T11:41:42Z</time>
      </trkpt>
      <trkpt lat="42.76302" lon="-0.24403">
        <ele>1914.1</ele>
        <time>2018-12-27T11:41:43Z</time>
      </trkpt>
      <trkpt lat="42.76305" lon="-0.244">
        <ele>1914.8</ele>
        <time>2018-12-27T11:41:44Z</time>
      </trkpt>
      <trkpt lat="42.76308" lon="-0.24394">
        <ele>1915.4</ele>
        <time>2018-12-27T11:41:45Z</time>
      </trkpt>
      <trkpt lat="42.76312" lon="-0.24391">
        <ele>1917</ele>
        <time>2018-12-27T11:41:46Z</time>
      </trkpt>
      <trkpt lat="42.76314" lon="-0.24389">
        <ele>1917.5</ele>
        <time>2018-12-27T11:41:47Z</time>
      </trkpt>
      <trkpt lat="42.76315" lon="-0.24386">
        <ele>1917.9</ele>
        <time>2018-12-27T11:41:48Z</time>
      </trkpt>
      <trkpt lat="42.76317" lon="-0.24383">
        <ele>1918.3</ele>
        <time>2018-12-27T11:41:49Z</time>
      </trkpt>
      <trkpt lat="42.7632" lon="-0.24379">
        <ele>1919</ele>
        <time>2018-12-27T11:41:50Z</time>
      </trkpt>
      <trkpt lat="42.76321" lon="-0.24376">
        <ele>1919.3</ele>
        <time>2018-12-27T11:41:50Z</time>
      </trkpt>
      <trkpt lat="42.76325" lon="-0.24372">
        <ele>1920.7</ele>
        <time>2018-12-27T11:41:51Z</time>
      </trkpt>
      <trkpt lat="42.76325" lon="-0.24371">
        <ele>1920.7</ele>
        <time>2018-12-27T11:41:52Z</time>
      </trkpt>
      <trkpt lat="42.76331" lon="-0.24363">
        <ele>1922.6</ele>
        <time>2018-12-27T11:41:54Z</time>
      </trkpt>
      <trkpt lat="42.76332" lon="-0.2436">
        <ele>1922.8</ele>
        <time>2018-12-27T11:41:55Z</time>
      </trkpt>
      <trkpt lat="42.76335" lon="-0.24355">
        <ele>1923.4</ele>
        <time>2018-12-27T11:41:56Z</time>
      </trkpt>
      <trkpt lat="42.76339" lon="-0.24348">
        <ele>1924.5</ele>
        <time>2018-12-27T11:41:58Z</time>
      </trkpt>
      <trkpt lat="42.76341" lon="-0.24343">
        <ele>1924.7</ele>
        <time>2018-12-27T11:41:59Z</time>
      </trkpt>
      <trkpt lat="42.76343" lon="-0.24339">
        <ele>1925.2</ele>
        <time>2018-12-27T11:42:00Z</time>
      </trkpt>
      <trkpt lat="42.76343" lon="-0.24338">
        <ele>1925.2</ele>
        <time>2018-12-27T11:42:00Z</time>
      </trkpt>
      <trkpt lat="42.76348" lon="-0.24332">
        <ele>1926.6</ele>
        <time>2018-12-27T11:42:01Z</time>
      </trkpt>
      <trkpt lat="42.7635" lon="-0.24328">
        <ele>1927.3</ele>
        <time>2018-12-27T11:42:03Z</time>
      </trkpt>
      <trkpt lat="42.76352" lon="-0.24325">
        <ele>1927.5</ele>
        <time>2018-12-27T11:42:03Z</time>
      </trkpt>
      <trkpt lat="42.76354" lon="-0.24319">
        <ele>1927.7</ele>
        <time>2018-12-27T11:42:04Z</time>
      </trkpt>
      <trkpt lat="42.76355" lon="-0.24318">
        <ele>1927.8</ele>
        <time>2018-12-27T11:42:05Z</time>
      </trkpt>
      <trkpt lat="42.76358" lon="-0.2431">
        <ele>1928.1</ele>
        <time>2018-12-27T11:42:07Z</time>
      </trkpt>
      <trkpt lat="42.76359" lon="-0.24309">
        <ele>1928.8</ele>
        <time>2018-12-27T11:42:07Z</time>
      </trkpt>
      <trkpt lat="42.76361" lon="-0.24305">
        <ele>1929</ele>
        <time>2018-12-27T11:42:08Z</time>
      </trkpt>
      <trkpt lat="42.76361" lon="-0.24303">
        <ele>1928.9</ele>
        <time>2018-12-27T11:42:08Z</time>
      </trkpt>
      <trkpt lat="42.76362" lon="-0.24301">
        <ele>1928.9</ele>
        <time>2018-12-27T11:42:09Z</time>
      </trkpt>
      <trkpt lat="42.76364" lon="-0.24304">
        <ele>1930.2</ele>
        <time>2018-12-27T11:42:10Z</time>
      </trkpt>
      <trkpt lat="42.76364" lon="-0.24305">
        <ele>1930.9</ele>
        <time>2018-12-27T11:42:10Z</time>
      </trkpt>
      <trkpt lat="42.76365" lon="-0.24306">
        <ele>1931.5</ele>
        <time>2018-12-27T11:42:10Z</time>
      </trkpt>
      <trkpt lat="42.76366" lon="-0.24307">
        <ele>1931.9</ele>
        <time>2018-12-27T11:42:10Z</time>
      </trkpt>
      <trkpt lat="42.76368" lon="-0.24309">
        <ele>1933.3</ele>
        <time>2018-12-27T11:42:11Z</time>
      </trkpt>
      <trkpt lat="42.76369" lon="-0.24305">
        <ele>1933.3</ele>
        <time>2018-12-27T11:42:12Z</time>
      </trkpt>
      <trkpt lat="42.76372" lon="-0.24301">
        <ele>1934.2</ele>
        <time>2018-12-27T11:42:13Z</time>
      </trkpt>
      <trkpt lat="42.76376" lon="-0.24296">
        <ele>1935.3</ele>
        <time>2018-12-27T11:42:15Z</time>
      </trkpt>
      <trkpt lat="42.76378" lon="-0.24291">
        <ele>1935.3</ele>
        <time>2018-12-27T11:42:16Z</time>
      </trkpt>
      <trkpt lat="42.76377" lon="-0.24283">
        <ele>1934.5</ele>
        <time>2018-12-27T11:42:17Z</time>
      </trkpt>
      <trkpt lat="42.76376" lon="-0.24271">
        <ele>1933.4</ele>
        <time>2018-12-27T11:42:20Z</time>
      </trkpt>
      <trkpt lat="42.76377" lon="-0.24261">
        <ele>1933.2</ele>
        <time>2018-12-27T11:42:22Z</time>
      </trkpt>
      <trkpt lat="42.76382" lon="-0.24248">
        <ele>1934.3</ele>
        <time>2018-12-27T11:42:24Z</time>
      </trkpt>
      <trkpt lat="42.76383" lon="-0.24247">
        <ele>1934.7</ele>
        <time>2018-12-27T11:42:25Z</time>
      </trkpt>
      <trkpt lat="42.76387" lon="-0.24245">
        <ele>1936.2</ele>
        <time>2018-12-27T11:42:26Z</time>
      </trkpt>
      <trkpt lat="42.76392" lon="-0.24241">
        <ele>1938.2</ele>
        <time>2018-12-27T11:42:27Z</time>
      </trkpt>
      <trkpt lat="42.76401" lon="-0.24237">
        <ele>1941.9</ele>
        <time>2018-12-27T11:42:30Z</time>
      </trkpt>
      <trkpt lat="42.76412" lon="-0.24231">
        <ele>1945.9</ele>
        <time>2018-12-27T11:42:33Z</time>
      </trkpt>
      <trkpt lat="42.76422" lon="-0.24227">
        <ele>1949.3</ele>
        <time>2018-12-27T11:42:36Z</time>
      </trkpt>
      <trkpt lat="42.76424" lon="-0.24226">
        <ele>1950.3</ele>
        <time>2018-12-27T11:42:37Z</time>
      </trkpt>
      <trkpt lat="42.76425" lon="-0.24226">
        <ele>1950.8</ele>
        <time>2018-12-27T11:42:37Z</time>
      </trkpt>
      <trkpt lat="42.76431" lon="-0.24226">
        <ele>1953.2</ele>
        <time>2018-12-27T11:42:39Z</time>
      </trkpt>
      <trkpt lat="42.76433" lon="-0.24227">
        <ele>1954.2</ele>
        <time>2018-12-27T11:42:39Z</time>
      </trkpt>
      <trkpt lat="42.76435" lon="-0.24228">
        <ele>1955</ele>
        <time>2018-12-27T11:42:40Z</time>
      </trkpt>
      <trkpt lat="42.76438" lon="-0.24229">
        <ele>1956.1</ele>
        <time>2018-12-27T11:42:40Z</time>
      </trkpt>
      <trkpt lat="42.76443" lon="-0.2423">
        <ele>1958.7</ele>
        <time>2018-12-27T11:42:42Z</time>
      </trkpt>
      <trkpt lat="42.76445" lon="-0.24231">
        <ele>1959.5</ele>
        <time>2018-12-27T11:42:42Z</time>
      </trkpt>
      <trkpt lat="42.76449" lon="-0.24233">
        <ele>1961.3</ele>
        <time>2018-12-27T11:42:43Z</time>
      </trkpt>
      <trkpt lat="42.76452" lon="-0.24236">
        <ele>1963.2</ele>
        <time>2018-12-27T11:42:45Z</time>
      </trkpt>
      <trkpt lat="42.76454" lon="-0.24235">
        <ele>1963.8</ele>
        <time>2018-12-27T11:42:45Z</time>
      </trkpt>
      <trkpt lat="42.76457" lon="-0.24235">
        <ele>1965</ele>
        <time>2018-12-27T11:42:46Z</time>
      </trkpt>
      <trkpt lat="42.76461" lon="-0.24235">
        <ele>1966.2</ele>
        <time>2018-12-27T11:42:47Z</time>
      </trkpt>
      <trkpt lat="42.76466" lon="-0.24237">
        <ele>1967.7</ele>
        <time>2018-12-27T11:42:48Z</time>
      </trkpt>
      <trkpt lat="42.76467" lon="-0.24238">
        <ele>1968</ele>
        <time>2018-12-27T11:42:48Z</time>
      </trkpt>
      <trkpt lat="42.76471" lon="-0.2424">
        <ele>1969.3</ele>
        <time>2018-12-27T11:42:50Z</time>
      </trkpt>
      <trkpt lat="42.76472" lon="-0.24241">
        <ele>1969.9</ele>
        <time>2018-12-27T11:42:50Z</time>
      </trkpt>
      <trkpt lat="42.76477" lon="-0.24242">
        <ele>1971.2</ele>
        <time>2018-12-27T11:42:51Z</time>
      </trkpt>
      <trkpt lat="42.76482" lon="-0.24244">
        <ele>1972.8</ele>
        <time>2018-12-27T11:42:53Z</time>
      </trkpt>
      <trkpt lat="42.76485" lon="-0.24245">
        <ele>1973.6</ele>
        <time>2018-12-27T11:42:53Z</time>
      </trkpt>
      <trkpt lat="42.76486" lon="-0.24243">
        <ele>1973.9</ele>
        <time>2018-12-27T11:42:54Z</time>
      </trkpt>
      <trkpt lat="42.76488" lon="-0.24243">
        <ele>1974.2</ele>
        <time>2018-12-27T11:42:54Z</time>
      </trkpt>
      <trkpt lat="42.76492" lon="-0.24242">
        <ele>1974.9</ele>
        <time>2018-12-27T11:42:55Z</time>
      </trkpt>
      <trkpt lat="42.76496" lon="-0.24244">
        <ele>1976.3</ele>
        <time>2018-12-27T11:42:57Z</time>
      </trkpt>
      <trkpt lat="42.76497" lon="-0.24247">
        <ele>1977.1</ele>
        <time>2018-12-27T11:42:57Z</time>
      </trkpt>
      <trkpt lat="42.76498" lon="-0.24249">
        <ele>1977.7</ele>
        <time>2018-12-27T11:42:58Z</time>
      </trkpt>
      <trkpt lat="42.76499" lon="-0.24249">
        <ele>1978</ele>
        <time>2018-12-27T11:42:58Z</time>
      </trkpt>
      <trkpt lat="42.76501" lon="-0.24253">
        <ele>1979.3</ele>
        <time>2018-12-27T11:42:59Z</time>
      </trkpt>
      <trkpt lat="42.76501" lon="-0.24254">
        <ele>1979.6</ele>
        <time>2018-12-27T11:42:59Z</time>
      </trkpt>
      <trkpt lat="42.76504" lon="-0.24257">
        <ele>1981</ele>
        <time>2018-12-27T11:43:00Z</time>
      </trkpt>
      <trkpt lat="42.76505" lon="-0.24259">
        <ele>1981.5</ele>
        <time>2018-12-27T11:43:01Z</time>
      </trkpt>
      <trkpt lat="42.76506" lon="-0.24262">
        <ele>1982.5</ele>
        <time>2018-12-27T11:43:01Z</time>
      </trkpt>
      <trkpt lat="42.76508" lon="-0.24264">
        <ele>1983.5</ele>
        <time>2018-12-27T11:43:02Z</time>
      </trkpt>
      <trkpt lat="42.76509" lon="-0.24265">
        <ele>1983.5</ele>
        <time>2018-12-27T11:43:02Z</time>
      </trkpt>
      <trkpt lat="42.76512" lon="-0.24267">
        <ele>1985</ele>
        <time>2018-12-27T11:43:03Z</time>
      </trkpt>
      <trkpt lat="42.76515" lon="-0.24271">
        <ele>1986.5</ele>
        <time>2018-12-27T11:43:04Z</time>
      </trkpt>
      <trkpt lat="42.76519" lon="-0.24272">
        <ele>1988</ele>
        <time>2018-12-27T11:43:05Z</time>
      </trkpt>
      <trkpt lat="42.76521" lon="-0.24272">
        <ele>1988.5</ele>
        <time>2018-12-27T11:43:06Z</time>
      </trkpt>
      <trkpt lat="42.76518" lon="-0.24274">
        <ele>1988.1</ele>
        <time>2018-12-27T11:43:07Z</time>
      </trkpt>
      <trkpt lat="42.76521" lon="-0.24279">
        <ele>1989.9</ele>
        <time>2018-12-27T11:43:08Z</time>
      </trkpt>
      <trkpt lat="42.76521" lon="-0.24286">
        <ele>1991.6</ele>
        <time>2018-12-27T11:43:09Z</time>
      </trkpt>
      <trkpt lat="42.76522" lon="-0.2429">
        <ele>1992.6</ele>
        <time>2018-12-27T11:43:10Z</time>
      </trkpt>
      <trkpt lat="42.76522" lon="-0.24291">
        <ele>1992.7</ele>
        <time>2018-12-27T11:43:10Z</time>
      </trkpt>
      <trkpt lat="42.76525" lon="-0.24295">
        <ele>1994.2</ele>
        <time>2018-12-27T11:43:11Z</time>
      </trkpt>
      <trkpt lat="42.76525" lon="-0.24296">
        <ele>1994.6</ele>
        <time>2018-12-27T11:43:11Z</time>
      </trkpt>
      <trkpt lat="42.76527" lon="-0.24299">
        <ele>1995.6</ele>
        <time>2018-12-27T11:43:12Z</time>
      </trkpt>
      <trkpt lat="42.76529" lon="-0.24304">
        <ele>1997.4</ele>
        <time>2018-12-27T11:43:13Z</time>
      </trkpt>
      <trkpt lat="42.76533" lon="-0.24305">
        <ele>1998.6</ele>
        <time>2018-12-27T11:43:14Z</time>
      </trkpt>
      <trkpt lat="42.76534" lon="-0.2431">
        <ele>1999.8</ele>
        <time>2018-12-27T11:43:15Z</time>
      </trkpt>
      <trkpt lat="42.76535" lon="-0.24312">
        <ele>2000.4</ele>
        <time>2018-12-27T11:43:16Z</time>
      </trkpt>
      <trkpt lat="42.76537" lon="-0.24314">
        <ele>2001.4</ele>
        <time>2018-12-27T11:43:17Z</time>
      </trkpt>
      <trkpt lat="42.76539" lon="-0.2432">
        <ele>2003.2</ele>
        <time>2018-12-27T11:43:18Z</time>
      </trkpt>
      <trkpt lat="42.76539" lon="-0.24324">
        <ele>2004.1</ele>
        <time>2018-12-27T11:43:19Z</time>
      </trkpt>
      <trkpt lat="42.76541" lon="-0.24328">
        <ele>2005.4</ele>
        <time>2018-12-27T11:43:20Z</time>
      </trkpt>
      <trkpt lat="42.76542" lon="-0.2433">
        <ele>2006</ele>
        <time>2018-12-27T11:43:20Z</time>
      </trkpt>
      <trkpt lat="42.76544" lon="-0.24334">
        <ele>2007.2</ele>
        <time>2018-12-27T11:43:21Z</time>
      </trkpt>
      <trkpt lat="42.76548" lon="-0.24336">
        <ele>2008.6</ele>
        <time>2018-12-27T11:43:22Z</time>
      </trkpt>
      <trkpt lat="42.76552" lon="-0.24338">
        <ele>2009.8</ele>
        <time>2018-12-27T11:43:23Z</time>
      </trkpt>
      <trkpt lat="42.76553" lon="-0.24339">
        <ele>2010.1</ele>
        <time>2018-12-27T11:43:24Z</time>
      </trkpt>
      <trkpt lat="42.76555" lon="-0.24344">
        <ele>2011.5</ele>
        <time>2018-12-27T11:43:25Z</time>
      </trkpt>
      <trkpt lat="42.76555" lon="-0.24345">
        <ele>2011.7</ele>
        <time>2018-12-27T11:43:25Z</time>
      </trkpt>
      <trkpt lat="42.76555" lon="-0.2435">
        <ele>2012.5</ele>
        <time>2018-12-27T11:43:26Z</time>
      </trkpt>
      <trkpt lat="42.76555" lon="-0.24353">
        <ele>2013.2</ele>
        <time>2018-12-27T11:43:27Z</time>
      </trkpt>
      <trkpt lat="42.76558" lon="-0.24356">
        <ele>2014.4</ele>
        <time>2018-12-27T11:43:27Z</time>
      </trkpt>
      <trkpt lat="42.76558" lon="-0.24356">
        <ele>2014.6</ele>
        <time>2018-12-27T11:43:28Z</time>
      </trkpt>
      <trkpt lat="42.7656" lon="-0.24358">
        <ele>2015.4</ele>
        <time>2018-12-27T11:43:28Z</time>
      </trkpt>
      <trkpt lat="42.76562" lon="-0.24364">
        <ele>2017</ele>
        <time>2018-12-27T11:43:30Z</time>
      </trkpt>
      <trkpt lat="42.76566" lon="-0.24366">
        <ele>2018.4</ele>
        <time>2018-12-27T11:43:31Z</time>
      </trkpt>
      <trkpt lat="42.76571" lon="-0.24367">
        <ele>2019.9</ele>
        <time>2018-12-27T11:43:32Z</time>
      </trkpt>
      <trkpt lat="42.76574" lon="-0.24372">
        <ele>2021.6</ele>
        <time>2018-12-27T11:43:33Z</time>
      </trkpt>
      <trkpt lat="42.76578" lon="-0.24375">
        <ele>2023.2</ele>
        <time>2018-12-27T11:43:34Z</time>
      </trkpt>
      <trkpt lat="42.76581" lon="-0.24379">
        <ele>2025.1</ele>
        <time>2018-12-27T11:43:36Z</time>
      </trkpt>
      <trkpt lat="42.76582" lon="-0.24379">
        <ele>2025.3</ele>
        <time>2018-12-27T11:43:36Z</time>
      </trkpt>
      <trkpt lat="42.76588" lon="-0.24379">
        <ele>2026.5</ele>
        <time>2018-12-27T11:43:37Z</time>
      </trkpt>
      <trkpt lat="42.76589" lon="-0.24379">
        <ele>2026.8</ele>
        <time>2018-12-27T11:43:38Z</time>
      </trkpt>
      <trkpt lat="42.7659" lon="-0.2438">
        <ele>2027.4</ele>
        <time>2018-12-27T11:43:38Z</time>
      </trkpt>
      <trkpt lat="42.76591" lon="-0.24381">
        <ele>2027.9</ele>
        <time>2018-12-27T11:43:38Z</time>
      </trkpt>
      <trkpt lat="42.76591" lon="-0.24383">
        <ele>2028.5</ele>
        <time>2018-12-27T11:43:39Z</time>
      </trkpt>
      <trkpt lat="42.76592" lon="-0.24387">
        <ele>2029.6</ele>
        <time>2018-12-27T11:43:40Z</time>
      </trkpt>
      <trkpt lat="42.76592" lon="-0.24388">
        <ele>2029.9</ele>
        <time>2018-12-27T11:43:40Z</time>
      </trkpt>
      <trkpt lat="42.76593" lon="-0.24393">
        <ele>2031.6</ele>
        <time>2018-12-27T11:43:41Z</time>
      </trkpt>
      <trkpt lat="42.76594" lon="-0.24397">
        <ele>2032.6</ele>
        <time>2018-12-27T11:43:42Z</time>
      </trkpt>
      <trkpt lat="42.76594" lon="-0.24399">
        <ele>2033.2</ele>
        <time>2018-12-27T11:43:42Z</time>
      </trkpt>
      <trkpt lat="42.76594" lon="-0.24405">
        <ele>2034.5</ele>
        <time>2018-12-27T11:43:43Z</time>
      </trkpt>
      <trkpt lat="42.76594" lon="-0.24409">
        <ele>2035.8</ele>
        <time>2018-12-27T11:43:44Z</time>
      </trkpt>
      <trkpt lat="42.76597" lon="-0.24414">
        <ele>2037.6</ele>
        <time>2018-12-27T11:43:45Z</time>
      </trkpt>
      <trkpt lat="42.76599" lon="-0.24419">
        <ele>2039.3</ele>
        <time>2018-12-27T11:43:46Z</time>
      </trkpt>
      <trkpt lat="42.76601" lon="-0.24423">
        <ele>2040.9</ele>
        <time>2018-12-27T11:43:47Z</time>
      </trkpt>
      <trkpt lat="42.76603" lon="-0.24429">
        <ele>2042.8</ele>
        <time>2018-12-27T11:43:49Z</time>
      </trkpt>
      <trkpt lat="42.76604" lon="-0.24432">
        <ele>2043.8</ele>
        <time>2018-12-27T11:43:49Z</time>
      </trkpt>
      <trkpt lat="42.76605" lon="-0.24438">
        <ele>2045.5</ele>
        <time>2018-12-27T11:43:51Z</time>
      </trkpt>
      <trkpt lat="42.76608" lon="-0.24443">
        <ele>2047.5</ele>
        <time>2018-12-27T11:43:52Z</time>
      </trkpt>
      <trkpt lat="42.7661" lon="-0.24448">
        <ele>2049</ele>
        <time>2018-12-27T11:43:53Z</time>
      </trkpt>
      <trkpt lat="42.76611" lon="-0.24453">
        <ele>2050.6</ele>
        <time>2018-12-27T11:43:54Z</time>
      </trkpt>
      <trkpt lat="42.76612" lon="-0.24458">
        <ele>2052.1</ele>
        <time>2018-12-27T11:43:55Z</time>
      </trkpt>
      <trkpt lat="42.76612" lon="-0.2446">
        <ele>2052.5</ele>
        <time>2018-12-27T11:43:55Z</time>
      </trkpt>
      <trkpt lat="42.76613" lon="-0.24464">
        <ele>2053.9</ele>
        <time>2018-12-27T11:43:56Z</time>
      </trkpt>
      <trkpt lat="42.76613" lon="-0.24467">
        <ele>2054.9</ele>
        <time>2018-12-27T11:43:57Z</time>
      </trkpt>
      <trkpt lat="42.76614" lon="-0.24471">
        <ele>2056.1</ele>
        <time>2018-12-27T11:43:58Z</time>
      </trkpt>
      <trkpt lat="42.76616" lon="-0.24476">
        <ele>2058.1</ele>
        <time>2018-12-27T11:43:59Z</time>
      </trkpt>
      <trkpt lat="42.76619" lon="-0.24482">
        <ele>2060.5</ele>
        <time>2018-12-27T11:44:00Z</time>
      </trkpt>
      <trkpt lat="42.7662" lon="-0.24485">
        <ele>2061.6</ele>
        <time>2018-12-27T11:44:01Z</time>
      </trkpt>
      <trkpt lat="42.76621" lon="-0.24489">
        <ele>2063.2</ele>
        <time>2018-12-27T11:44:02Z</time>
      </trkpt>
      <trkpt lat="42.76623" lon="-0.24494">
        <ele>2064.9</ele>
        <time>2018-12-27T11:44:03Z</time>
      </trkpt>
      <trkpt lat="42.76624" lon="-0.245">
        <ele>2067</ele>
        <time>2018-12-27T11:44:04Z</time>
      </trkpt>
      <trkpt lat="42.76627" lon="-0.24503">
        <ele>2068.3</ele>
        <time>2018-12-27T11:44:05Z</time>
      </trkpt>
      <trkpt lat="42.76629" lon="-0.24508">
        <ele>2070.5</ele>
        <time>2018-12-27T11:44:06Z</time>
      </trkpt>
      <trkpt lat="42.76631" lon="-0.24511">
        <ele>2072</ele>
        <time>2018-12-27T11:44:07Z</time>
      </trkpt>
      <trkpt lat="42.76636" lon="-0.24516">
        <ele>2075</ele>
        <time>2018-12-27T11:44:09Z</time>
      </trkpt>
      <trkpt lat="42.76638" lon="-0.2452">
        <ele>2076.7</ele>
        <time>2018-12-27T11:44:09Z</time>
      </trkpt>
      <trkpt lat="42.76639" lon="-0.24523">
        <ele>2078.1</ele>
        <time>2018-12-27T11:44:10Z</time>
      </trkpt>
      <trkpt lat="42.76642" lon="-0.24525">
        <ele>2079.4</ele>
        <time>2018-12-27T11:44:11Z</time>
      </trkpt>
      <trkpt lat="42.76643" lon="-0.24528">
        <ele>2080.9</ele>
        <time>2018-12-27T11:44:12Z</time>
      </trkpt>
      <trkpt lat="42.76647" lon="-0.24528">
        <ele>2082</ele>
        <time>2018-12-27T11:44:13Z</time>
      </trkpt>
      <trkpt lat="42.76649" lon="-0.2453">
        <ele>2083.4</ele>
        <time>2018-12-27T11:44:14Z</time>
      </trkpt>
      <trkpt lat="42.76652" lon="-0.24531">
        <ele>2084.5</ele>
        <time>2018-12-27T11:44:14Z</time>
      </trkpt>
      <trkpt lat="42.76656" lon="-0.24533">
        <ele>2086.4</ele>
        <time>2018-12-27T11:44:15Z</time>
      </trkpt>
      <trkpt lat="42.76658" lon="-0.24534">
        <ele>2087.4</ele>
        <time>2018-12-27T11:44:16Z</time>
      </trkpt>
      <trkpt lat="42.76661" lon="-0.24534">
        <ele>2088.9</ele>
        <time>2018-12-27T11:44:17Z</time>
      </trkpt>
      <trkpt lat="42.76664" lon="-0.24536">
        <ele>2090.2</ele>
        <time>2018-12-27T11:44:18Z</time>
      </trkpt>
      <trkpt lat="42.76666" lon="-0.24533">
        <ele>2090</ele>
        <time>2018-12-27T11:44:19Z</time>
      </trkpt>
      <trkpt lat="42.76672" lon="-0.24532">
        <ele>2091.6</ele>
        <time>2018-12-27T11:44:20Z</time>
      </trkpt>
      <trkpt lat="42.76672" lon="-0.24537">
        <ele>2093.1</ele>
        <time>2018-12-27T11:44:21Z</time>
      </trkpt>
      <trkpt lat="42.76675" lon="-0.24537">
        <ele>2094.5</ele>
        <time>2018-12-27T11:44:22Z</time>
      </trkpt>
      <trkpt lat="42.76676" lon="-0.2454">
        <ele>2095.7</ele>
        <time>2018-12-27T11:44:23Z</time>
      </trkpt>
      <trkpt lat="42.76677" lon="-0.24542">
        <ele>2096.7</ele>
        <time>2018-12-27T11:44:23Z</time>
      </trkpt>
      <trkpt lat="42.76678" lon="-0.24544">
        <ele>2097.8</ele>
        <time>2018-12-27T11:44:24Z</time>
      </trkpt>
      <trkpt lat="42.7668" lon="-0.24546">
        <ele>2099.1</ele>
        <time>2018-12-27T11:44:24Z</time>
      </trkpt>
      <trkpt lat="42.76682" lon="-0.24548">
        <ele>2100.5</ele>
        <time>2018-12-27T11:44:25Z</time>
      </trkpt>
      <trkpt lat="42.76683" lon="-0.24551">
        <ele>2101.9</ele>
        <time>2018-12-27T11:44:26Z</time>
      </trkpt>
      <trkpt lat="42.76686" lon="-0.24553">
        <ele>2103.6</ele>
        <time>2018-12-27T11:44:26Z</time>
      </trkpt>
      <trkpt lat="42.76687" lon="-0.24555">
        <ele>2104.7</ele>
        <time>2018-12-27T11:44:27Z</time>
      </trkpt>
      <trkpt lat="42.76688" lon="-0.24557">
        <ele>2105.8</ele>
        <time>2018-12-27T11:44:27Z</time>
      </trkpt>
      <trkpt lat="42.7669" lon="-0.2456">
        <ele>2107.3</ele>
        <time>2018-12-27T11:44:28Z</time>
      </trkpt>
      <trkpt lat="42.76692" lon="-0.24562">
        <ele>2108.8</ele>
        <time>2018-12-27T11:44:29Z</time>
      </trkpt>
      <trkpt lat="42.76691" lon="-0.24565">
        <ele>2109.5</ele>
        <time>2018-12-27T11:44:29Z</time>
      </trkpt>
      <trkpt lat="42.76693" lon="-0.24568">
        <ele>2111.3</ele>
        <time>2018-12-27T11:44:30Z</time>
      </trkpt>
      <trkpt lat="42.76694" lon="-0.2457">
        <ele>2112.4</ele>
        <time>2018-12-27T11:44:31Z</time>
      </trkpt>
      <trkpt lat="42.76697" lon="-0.24571">
        <ele>2113.6</ele>
        <time>2018-12-27T11:44:32Z</time>
      </trkpt>
      <trkpt lat="42.76699" lon="-0.24572">
        <ele>2114.4</ele>
        <time>2018-12-27T11:44:32Z</time>
      </trkpt>
      <trkpt lat="42.76698" lon="-0.24574">
        <ele>2115.1</ele>
        <time>2018-12-27T11:44:33Z</time>
      </trkpt>
      <trkpt lat="42.76698" lon="-0.24576">
        <ele>2115.9</ele>
        <time>2018-12-27T11:44:33Z</time>
      </trkpt>
      <trkpt lat="42.76697" lon="-0.24578">
        <ele>2116.6</ele>
        <time>2018-12-27T11:44:34Z</time>
      </trkpt>
      <trkpt lat="42.767" lon="-0.2458">
        <ele>2117.7</ele>
        <time>2018-12-27T11:44:34Z</time>
      </trkpt>
      <trkpt lat="42.76703" lon="-0.24579">
        <ele>2118.4</ele>
        <time>2018-12-27T11:44:35Z</time>
      </trkpt>
      <trkpt lat="42.76704" lon="-0.24581">
        <ele>2119.2</ele>
        <time>2018-12-27T11:44:36Z</time>
      </trkpt>
      <trkpt lat="42.76703" lon="-0.24583">
        <ele>2119.9</ele>
        <time>2018-12-27T11:44:36Z</time>
      </trkpt>
      <trkpt lat="42.76705" lon="-0.24586">
        <ele>2121.4</ele>
        <time>2018-12-27T11:44:37Z</time>
      </trkpt>
      <trkpt lat="42.76708" lon="-0.24587">
        <ele>2122.6</ele>
        <time>2018-12-27T11:44:38Z</time>
      </trkpt>
      <trkpt lat="42.7671" lon="-0.24588">
        <ele>2123.8</ele>
        <time>2018-12-27T11:44:38Z</time>
      </trkpt>
      <trkpt lat="42.7671" lon="-0.24591">
        <ele>2124.9</ele>
        <time>2018-12-27T11:44:39Z</time>
      </trkpt>
      <trkpt lat="42.76708" lon="-0.24594">
        <ele>2125.1</ele>
        <time>2018-12-27T11:44:40Z</time>
      </trkpt>
      <trkpt lat="42.7671" lon="-0.24596">
        <ele>2126.8</ele>
        <time>2018-12-27T11:44:40Z</time>
      </trkpt>
      <trkpt lat="42.76712" lon="-0.24597">
        <ele>2127.7</ele>
        <time>2018-12-27T11:44:41Z</time>
      </trkpt>
      <trkpt lat="42.76713" lon="-0.24601">
        <ele>2129.2</ele>
        <time>2018-12-27T11:44:42Z</time>
      </trkpt>
      <trkpt lat="42.76711" lon="-0.24602">
        <ele>2129.1</ele>
        <time>2018-12-27T11:44:42Z</time>
      </trkpt>
      <trkpt lat="42.76709" lon="-0.24605">
        <ele>2129.3</ele>
        <time>2018-12-27T11:44:43Z</time>
      </trkpt>
      <trkpt lat="42.76708" lon="-0.24604">
        <ele>2128.6</ele>
        <time>2018-12-27T11:44:43Z</time>
      </trkpt>
      <trkpt lat="42.76709" lon="-0.24606">
        <ele>2129.6</ele>
        <time>2018-12-27T11:44:44Z</time>
      </trkpt>
      <trkpt lat="42.76711" lon="-0.24608">
        <ele>2131.2</ele>
        <time>2018-12-27T11:44:44Z</time>
      </trkpt>
      <trkpt lat="42.76713" lon="-0.2461">
        <ele>2132.5</ele>
        <time>2018-12-27T11:44:45Z</time>
      </trkpt>
      <trkpt lat="42.76715" lon="-0.24612">
        <ele>2134.3</ele>
        <time>2018-12-27T11:44:46Z</time>
      </trkpt>
      <trkpt lat="42.76714" lon="-0.24616">
        <ele>2134.9</ele>
        <time>2018-12-27T11:44:46Z</time>
      </trkpt>
      <trkpt lat="42.76714" lon="-0.24619">
        <ele>2136.2</ele>
        <time>2018-12-27T11:44:47Z</time>
      </trkpt>
      <trkpt lat="42.76713" lon="-0.24621">
        <ele>2136.4</ele>
        <time>2018-12-27T11:44:48Z</time>
      </trkpt>
      <trkpt lat="42.76709" lon="-0.24623">
        <ele>2135.6</ele>
        <time>2018-12-27T11:44:49Z</time>
      </trkpt>
      <trkpt lat="42.76708" lon="-0.24627">
        <ele>2136.7</ele>
        <time>2018-12-27T11:44:50Z</time>
      </trkpt>
      <trkpt lat="42.7671" lon="-0.24631">
        <ele>2138.8</ele>
        <time>2018-12-27T11:44:50Z</time>
      </trkpt>
      <trkpt lat="42.76708" lon="-0.24632">
        <ele>2138.8</ele>
        <time>2018-12-27T11:44:51Z</time>
      </trkpt>
      <trkpt lat="42.76708" lon="-0.24636">
        <ele>2140.2</ele>
        <time>2018-12-27T11:44:52Z</time>
      </trkpt>
      <trkpt lat="42.76709" lon="-0.24639">
        <ele>2141.8</ele>
        <time>2018-12-27T11:44:52Z</time>
      </trkpt>
      <trkpt lat="42.76711" lon="-0.24641">
        <ele>2143.6</ele>
        <time>2018-12-27T11:44:53Z</time>
      </trkpt>
      <trkpt lat="42.76713" lon="-0.24644">
        <ele>2145.6</ele>
        <time>2018-12-27T11:44:54Z</time>
      </trkpt>
      <trkpt lat="42.76712" lon="-0.24647">
        <ele>2145.7</ele>
        <time>2018-12-27T11:44:55Z</time>
      </trkpt>
      <trkpt lat="42.76709" lon="-0.24652">
        <ele>2146.9</ele>
        <time>2018-12-27T11:44:56Z</time>
      </trkpt>
      <trkpt lat="42.7671" lon="-0.24655">
        <ele>2148.6</ele>
        <time>2018-12-27T11:44:57Z</time>
      </trkpt>
      <trkpt lat="42.76714" lon="-0.2466">
        <ele>2151.7</ele>
        <time>2018-12-27T11:44:58Z</time>
      </trkpt>
      <trkpt lat="42.76718" lon="-0.24664">
        <ele>2154.5</ele>
        <time>2018-12-27T11:44:59Z</time>
      </trkpt>
      <trkpt lat="42.76719" lon="-0.2467">
        <ele>2157.1</ele>
        <time>2018-12-27T11:45:00Z</time>
      </trkpt>
      <trkpt lat="42.76721" lon="-0.24676">
        <ele>2159.8</ele>
        <time>2018-12-27T11:45:02Z</time>
      </trkpt>
      <trkpt lat="42.76721" lon="-0.24681">
        <ele>2162</ele>
        <time>2018-12-27T11:45:03Z</time>
      </trkpt>
      <trkpt lat="42.7672" lon="-0.24687">
        <ele>2163.8</ele>
        <time>2018-12-27T11:45:04Z</time>
      </trkpt>
      <trkpt lat="42.76719" lon="-0.24693">
        <ele>2165.9</ele>
        <time>2018-12-27T11:45:05Z</time>
      </trkpt>
      <trkpt lat="42.76719" lon="-0.24699">
        <ele>2167.9</ele>
        <time>2018-12-27T11:45:06Z</time>
      </trkpt>
      <trkpt lat="42.76719" lon="-0.24706">
        <ele>2170.6</ele>
        <time>2018-12-27T11:45:07Z</time>
      </trkpt>
      <trkpt lat="42.76719" lon="-0.24708">
        <ele>2171.5</ele>
        <time>2018-12-27T11:45:08Z</time>
      </trkpt>
      <trkpt lat="42.76718" lon="-0.2471">
        <ele>2172</ele>
        <time>2018-12-27T11:45:08Z</time>
      </trkpt>
      <trkpt lat="42.76717" lon="-0.24711">
        <ele>2172.2</ele>
        <time>2018-12-27T11:45:09Z</time>
      </trkpt>
      <trkpt lat="42.76715" lon="-0.24719">
        <ele>2174.2</ele>
        <time>2018-12-27T11:45:10Z</time>
      </trkpt>
      <trkpt lat="42.76714" lon="-0.2472">
        <ele>2174.8</ele>
        <time>2018-12-27T11:45:11Z</time>
      </trkpt>
      <trkpt lat="42.76712" lon="-0.24725">
        <ele>2175.9</ele>
        <time>2018-12-27T11:45:12Z</time>
      </trkpt>
      <trkpt lat="42.76709" lon="-0.24731">
        <ele>2177.7</ele>
        <time>2018-12-27T11:45:13Z</time>
      </trkpt>
      <trkpt lat="42.76709" lon="-0.24733">
        <ele>2178.1</ele>
        <time>2018-12-27T11:45:14Z</time>
      </trkpt>
      <trkpt lat="42.76705" lon="-0.2474">
        <ele>2180.7</ele>
        <time>2018-12-27T11:45:15Z</time>
      </trkpt>
      <trkpt lat="42.76702" lon="-0.2475">
        <ele>2184.4</ele>
        <time>2018-12-27T11:45:17Z</time>
      </trkpt>
      <trkpt lat="42.76701" lon="-0.24754">
        <ele>2186.1</ele>
        <time>2018-12-27T11:45:18Z</time>
      </trkpt>
      <trkpt lat="42.767" lon="-0.24755">
        <ele>2186.4</ele>
        <time>2018-12-27T11:45:19Z</time>
      </trkpt>
      <trkpt lat="42.76699" lon="-0.24754">
        <ele>2186.2</ele>
        <time>2018-12-27T11:45:19Z</time>
      </trkpt>
      <trkpt lat="42.76696" lon="-0.24753">
        <ele>2185.9</ele>
        <time>2018-12-27T11:45:20Z</time>
      </trkpt>
      <trkpt lat="42.76696" lon="-0.24754">
        <ele>2186.2</ele>
        <time>2018-12-27T11:45:20Z</time>
      </trkpt>
      <trkpt lat="42.76697" lon="-0.2476">
        <ele>2188.5</ele>
        <time>2018-12-27T11:45:21Z</time>
      </trkpt>
      <trkpt lat="42.76694" lon="-0.24765">
        <ele>2190.5</ele>
        <time>2018-12-27T11:45:23Z</time>
      </trkpt>
      <trkpt lat="42.7669" lon="-0.24769">
        <ele>2192.1</ele>
        <time>2018-12-27T11:45:24Z</time>
      </trkpt>
      <trkpt lat="42.76689" lon="-0.24775">
        <ele>2194.4</ele>
        <time>2018-12-27T11:45:25Z</time>
      </trkpt>
      <trkpt lat="42.76688" lon="-0.24779">
        <ele>2196.2</ele>
        <time>2018-12-27T11:45:26Z</time>
      </trkpt>
      <trkpt lat="42.7669" lon="-0.24784">
        <ele>2197.9</ele>
        <time>2018-12-27T11:45:27Z</time>
      </trkpt>
      <trkpt lat="42.76691" lon="-0.24788">
        <ele>2199.4</ele>
        <time>2018-12-27T11:45:28Z</time>
      </trkpt>
      <trkpt lat="42.76694" lon="-0.24788">
        <ele>2199.1</ele>
        <time>2018-12-27T11:45:28Z</time>
      </trkpt>
      <trkpt lat="42.76694" lon="-0.24791">
        <ele>2200.4</ele>
        <time>2018-12-27T11:45:29Z</time>
      </trkpt>
      <trkpt lat="42.76693" lon="-0.24794">
        <ele>2201.8</ele>
        <time>2018-12-27T11:45:30Z</time>
      </trkpt>
      <trkpt lat="42.76692" lon="-0.24799">
        <ele>2204.1</ele>
        <time>2018-12-27T11:45:31Z</time>
      </trkpt>
      <trkpt lat="42.76691" lon="-0.24802">
        <ele>2205.3</ele>
        <time>2018-12-27T11:45:31Z</time>
      </trkpt>
      <trkpt lat="42.76694" lon="-0.24805">
        <ele>2206.5</ele>
        <time>2018-12-27T11:45:32Z</time>
      </trkpt>
      <trkpt lat="42.76694" lon="-0.24808">
        <ele>2207.6</ele>
        <time>2018-12-27T11:45:33Z</time>
      </trkpt>
      <trkpt lat="42.76696" lon="-0.24811">
        <ele>2209</ele>
        <time>2018-12-27T11:45:34Z</time>
      </trkpt>
      <trkpt lat="42.76699" lon="-0.24812">
        <ele>2209.6</ele>
        <time>2018-12-27T11:45:34Z</time>
      </trkpt>
      <trkpt lat="42.767" lon="-0.24816">
        <ele>2211.1</ele>
        <time>2018-12-27T11:45:35Z</time>
      </trkpt>
      <trkpt lat="42.76701" lon="-0.24821">
        <ele>2213.2</ele>
        <time>2018-12-27T11:45:36Z</time>
      </trkpt>
      <trkpt lat="42.76701" lon="-0.24825">
        <ele>2215</ele>
        <time>2018-12-27T11:45:37Z</time>
      </trkpt>
      <trkpt lat="42.76703" lon="-0.24829">
        <ele>2216.9</ele>
        <time>2018-12-27T11:45:38Z</time>
      </trkpt>
      <trkpt lat="42.76703" lon="-0.24833">
        <ele>2219</ele>
        <time>2018-12-27T11:45:39Z</time>
      </trkpt>
      <trkpt lat="42.76706" lon="-0.24837">
        <ele>2220.8</ele>
        <time>2018-12-27T11:45:40Z</time>
      </trkpt>
      <trkpt lat="42.7671" lon="-0.24835">
        <ele>2220</ele>
        <time>2018-12-27T11:45:41Z</time>
      </trkpt>
      <trkpt lat="42.76713" lon="-0.24837">
        <ele>2220.7</ele>
        <time>2018-12-27T11:45:42Z</time>
      </trkpt>
      <trkpt lat="42.76715" lon="-0.24839">
        <ele>2221.3</ele>
        <time>2018-12-27T11:45:43Z</time>
      </trkpt>
      <trkpt lat="42.7672" lon="-0.24839">
        <ele>2221.2</ele>
        <time>2018-12-27T11:45:44Z</time>
      </trkpt>
      <trkpt lat="42.76721" lon="-0.24839">
        <ele>2220.8</ele>
        <time>2018-12-27T11:45:44Z</time>
      </trkpt>
      <trkpt lat="42.76725" lon="-0.24844">
        <ele>2223.1</ele>
        <time>2018-12-27T11:45:46Z</time>
      </trkpt>
      <trkpt lat="42.76728" lon="-0.24849">
        <ele>2225</ele>
        <time>2018-12-27T11:45:47Z</time>
      </trkpt>
      <trkpt lat="42.76729" lon="-0.24851">
        <ele>2225.4</ele>
        <time>2018-12-27T11:45:47Z</time>
      </trkpt>
      <trkpt lat="42.76729" lon="-0.24857">
        <ele>2227.9</ele>
        <time>2018-12-27T11:45:49Z</time>
      </trkpt>
      <trkpt lat="42.76731" lon="-0.24861">
        <ele>2229.4</ele>
        <time>2018-12-27T11:45:49Z</time>
      </trkpt>
      <trkpt lat="42.76733" lon="-0.24863">
        <ele>2229.9</ele>
        <time>2018-12-27T11:45:50Z</time>
      </trkpt>
      <trkpt lat="42.76734" lon="-0.24864">
        <ele>2230.1</ele>
        <time>2018-12-27T11:45:51Z</time>
      </trkpt>
      <trkpt lat="42.76737" lon="-0.24868">
        <ele>2231.3</ele>
        <time>2018-12-27T11:45:52Z</time>
      </trkpt>
      <trkpt lat="42.76737" lon="-0.24872">
        <ele>2232.9</ele>
        <time>2018-12-27T11:45:52Z</time>
      </trkpt>
      <trkpt lat="42.76735" lon="-0.2488">
        <ele>2234.2</ele>
        <time>2018-12-27T11:45:54Z</time>
      </trkpt>
      <trkpt lat="42.76736" lon="-0.24881">
        <ele>2234.2</ele>
        <time>2018-12-27T11:45:54Z</time>
      </trkpt>
      <trkpt lat="42.76738" lon="-0.24885">
        <ele>2233.9</ele>
        <time>2018-12-27T11:45:55Z</time>
      </trkpt>
      <trkpt lat="42.76741" lon="-0.24886">
        <ele>2233.5</ele>
        <time>2018-12-27T11:45:56Z</time>
      </trkpt>
      <trkpt lat="42.76742" lon="-0.24886">
        <ele>2233.4</ele>
        <time>2018-12-27T11:45:56Z</time>
      </trkpt>
      <trkpt lat="42.76742" lon="-0.2489">
        <ele>2233.4</ele>
        <time>2018-12-27T11:45:57Z</time>
      </trkpt>
      <trkpt lat="42.76746" lon="-0.24893">
        <ele>2233</ele>
        <time>2018-12-27T11:45:58Z</time>
      </trkpt>
      <trkpt lat="42.7675" lon="-0.24897">
        <ele>2232.7</ele>
        <time>2018-12-27T11:45:59Z</time>
      </trkpt>
      <trkpt lat="42.76753" lon="-0.24904">
        <ele>2232.5</ele>
        <time>2018-12-27T11:46:01Z</time>
      </trkpt>
      <trkpt lat="42.76757" lon="-0.24905">
        <ele>2232.2</ele>
        <time>2018-12-27T11:46:02Z</time>
      </trkpt>
      <trkpt lat="42.7676" lon="-0.24907">
        <ele>2232.1</ele>
        <time>2018-12-27T11:46:03Z</time>
      </trkpt>
      <trkpt lat="42.76763" lon="-0.24908">
        <ele>2231.9</ele>
        <time>2018-12-27T11:46:04Z</time>
      </trkpt>
      <trkpt lat="42.76764" lon="-0.24913">
        <ele>2232.1</ele>
        <time>2018-12-27T11:46:05Z</time>
      </trkpt>
      <trkpt lat="42.76767" lon="-0.24918">
        <ele>2232</ele>
        <time>2018-12-27T11:46:06Z</time>
      </trkpt>
      <trkpt lat="42.76768" lon="-0.24919">
        <ele>2232.1</ele>
        <time>2018-12-27T11:46:06Z</time>
      </trkpt>
      <trkpt lat="42.7677" lon="-0.2492">
        <ele>2232</ele>
        <time>2018-12-27T11:46:07Z</time>
      </trkpt>
      <trkpt lat="42.76773" lon="-0.24928">
        <ele>2232.3</ele>
        <time>2018-12-27T11:46:08Z</time>
      </trkpt>
      <trkpt lat="42.76777" lon="-0.24934">
        <ele>2232.4</ele>
        <time>2018-12-27T11:46:10Z</time>
      </trkpt>
      <trkpt lat="42.76778" lon="-0.24939">
        <ele>2232.7</ele>
        <time>2018-12-27T11:46:11Z</time>
      </trkpt>
      <trkpt lat="42.76778" lon="-0.24942">
        <ele>2232.9</ele>
        <time>2018-12-27T11:46:12Z</time>
      </trkpt>
      <trkpt lat="42.76778" lon="-0.24943">
        <ele>2233</ele>
        <time>2018-12-27T11:46:12Z</time>
      </trkpt>
      <trkpt lat="42.7678" lon="-0.2495">
        <ele>2233.6</ele>
        <time>2018-12-27T11:46:13Z</time>
      </trkpt>
      <trkpt lat="42.7678" lon="-0.24951">
        <ele>2233.7</ele>
        <time>2018-12-27T11:46:14Z</time>
      </trkpt>
      <trkpt lat="42.76784" lon="-0.24957">
        <ele>2234.1</ele>
        <time>2018-12-27T11:46:15Z</time>
      </trkpt>
      <trkpt lat="42.76784" lon="-0.2496">
        <ele>2234.1</ele>
        <time>2018-12-27T11:46:16Z</time>
      </trkpt>
      <trkpt lat="42.7678" lon="-0.24967">
        <ele>2234.2</ele>
        <time>2018-12-27T11:46:17Z</time>
      </trkpt>
      <trkpt lat="42.76779" lon="-0.24975">
        <ele>2234.3</ele>
        <time>2018-12-27T11:46:19Z</time>
      </trkpt>
      <trkpt lat="42.76774" lon="-0.24984">
        <ele>2234.1</ele>
        <time>2018-12-27T11:46:21Z</time>
      </trkpt>
      <trkpt lat="42.76769" lon="-0.24989">
        <ele>2233.6</ele>
        <time>2018-12-27T11:46:23Z</time>
      </trkpt>
      <trkpt lat="42.76769" lon="-0.2499">
        <ele>2233.5</ele>
        <time>2018-12-27T11:46:23Z</time>
      </trkpt>
      <trkpt lat="42.76765" lon="-0.24995">
        <ele>2233.1</ele>
        <time>2018-12-27T11:46:24Z</time>
      </trkpt>
      <trkpt lat="42.76764" lon="-0.24998">
        <ele>2232.9</ele>
        <time>2018-12-27T11:46:25Z</time>
      </trkpt>
      <trkpt lat="42.76763" lon="-0.25003">
        <ele>2232.8</ele>
        <time>2018-12-27T11:46:26Z</time>
      </trkpt>
      <trkpt lat="42.76761" lon="-0.25006">
        <ele>2232.4</ele>
        <time>2018-12-27T11:46:27Z</time>
      </trkpt>
      <trkpt lat="42.7676" lon="-0.25007">
        <ele>2232.3</ele>
        <time>2018-12-27T11:46:27Z</time>
      </trkpt>
      <trkpt lat="42.76757" lon="-0.25012">
        <ele>2231.5</ele>
        <time>2018-12-27T11:46:28Z</time>
      </trkpt>
      <trkpt lat="42.76755" lon="-0.25014">
        <ele>2231.3</ele>
        <time>2018-12-27T11:46:29Z</time>
      </trkpt>
      <trkpt lat="42.76754" lon="-0.25015">
        <ele>2231</ele>
        <time>2018-12-27T11:46:29Z</time>
      </trkpt>
      <trkpt lat="42.76752" lon="-0.25019">
        <ele>2230.4</ele>
        <time>2018-12-27T11:46:30Z</time>
      </trkpt>
      <trkpt lat="42.7675" lon="-0.25025">
        <ele>2229.7</ele>
        <time>2018-12-27T11:46:32Z</time>
      </trkpt>
      <trkpt lat="42.7675" lon="-0.25031">
        <ele>2229.2</ele>
        <time>2018-12-27T11:46:33Z</time>
      </trkpt>
      <trkpt lat="42.76745" lon="-0.25034">
        <ele>2228.1</ele>
        <time>2018-12-27T11:46:34Z</time>
      </trkpt>
      <trkpt lat="42.76744" lon="-0.25037">
        <ele>2227.6</ele>
        <time>2018-12-27T11:46:35Z</time>
      </trkpt>
      <trkpt lat="42.76741" lon="-0.25041">
        <ele>2226.8</ele>
        <time>2018-12-27T11:46:36Z</time>
      </trkpt>
      <trkpt lat="42.7674" lon="-0.25044">
        <ele>2227</ele>
        <time>2018-12-27T11:46:36Z</time>
      </trkpt>
      <trkpt lat="42.7674" lon="-0.25046">
        <ele>2227.2</ele>
        <time>2018-12-27T11:46:37Z</time>
      </trkpt>
      <trkpt lat="42.76739" lon="-0.25048">
        <ele>2227.2</ele>
        <time>2018-12-27T11:46:37Z</time>
      </trkpt>
      <trkpt lat="42.76739" lon="-0.25052">
        <ele>2228</ele>
        <time>2018-12-27T11:46:38Z</time>
      </trkpt>
      <trkpt lat="42.76739" lon="-0.25054">
        <ele>2228.4</ele>
        <time>2018-12-27T11:46:38Z</time>
      </trkpt>
      <trkpt lat="42.76739" lon="-0.25062">
        <ele>2229.8</ele>
        <time>2018-12-27T11:46:40Z</time>
      </trkpt>
      <trkpt lat="42.76737" lon="-0.25065">
        <ele>2230.1</ele>
        <time>2018-12-27T11:46:41Z</time>
      </trkpt>
      <trkpt lat="42.76736" lon="-0.25068">
        <ele>2230.6</ele>
        <time>2018-12-27T11:46:42Z</time>
      </trkpt>
      <trkpt lat="42.76738" lon="-0.25075">
        <ele>2231.9</ele>
        <time>2018-12-27T11:46:43Z</time>
      </trkpt>
      <trkpt lat="42.76739" lon="-0.25077">
        <ele>2232.3</ele>
        <time>2018-12-27T11:46:44Z</time>
      </trkpt>
      <trkpt lat="42.76741" lon="-0.25082">
        <ele>2233.4</ele>
        <time>2018-12-27T11:46:45Z</time>
      </trkpt>
      <trkpt lat="42.76743" lon="-0.25086">
        <ele>2234.3</ele>
        <time>2018-12-27T11:46:46Z</time>
      </trkpt>
      <trkpt lat="42.76742" lon="-0.25088">
        <ele>2234.5</ele>
        <time>2018-12-27T11:46:46Z</time>
      </trkpt>
      <trkpt lat="42.76743" lon="-0.25096">
        <ele>2235.8</ele>
        <time>2018-12-27T11:46:48Z</time>
      </trkpt>
      <trkpt lat="42.76742" lon="-0.25105">
        <ele>2237.2</ele>
        <time>2018-12-27T11:46:49Z</time>
      </trkpt>
      <trkpt lat="42.76742" lon="-0.25106">
        <ele>2237.4</ele>
        <time>2018-12-27T11:46:50Z</time>
      </trkpt>
      <trkpt lat="42.76743" lon="-0.2511">
        <ele>2237.9</ele>
        <time>2018-12-27T11:46:50Z</time>
      </trkpt>
      <trkpt lat="42.76743" lon="-0.25113">
        <ele>2238.5</ele>
        <time>2018-12-27T11:46:51Z</time>
      </trkpt>
      <trkpt lat="42.76742" lon="-0.2512">
        <ele>2239.6</ele>
        <time>2018-12-27T11:46:52Z</time>
      </trkpt>
      <trkpt lat="42.76743" lon="-0.25125">
        <ele>2240.4</ele>
        <time>2018-12-27T11:46:54Z</time>
      </trkpt>
      <trkpt lat="42.76743" lon="-0.25127">
        <ele>2241.2</ele>
        <time>2018-12-27T11:46:54Z</time>
      </trkpt>
      <trkpt lat="42.76743" lon="-0.25131">
        <ele>2242</ele>
        <time>2018-12-27T11:46:55Z</time>
      </trkpt>
      <trkpt lat="42.76743" lon="-0.25136">
        <ele>2243.5</ele>
        <time>2018-12-27T11:46:56Z</time>
      </trkpt>
      <trkpt lat="42.76743" lon="-0.2514">
        <ele>2244.8</ele>
        <time>2018-12-27T11:46:56Z</time>
      </trkpt>
      <trkpt lat="42.76744" lon="-0.25145">
        <ele>2246.2</ele>
        <time>2018-12-27T11:46:57Z</time>
      </trkpt>
      <trkpt lat="42.76745" lon="-0.25155">
        <ele>2249.1</ele>
        <time>2018-12-27T11:46:59Z</time>
      </trkpt>
      <trkpt lat="42.76745" lon="-0.25164">
        <ele>2251.8</ele>
        <time>2018-12-27T11:47:01Z</time>
      </trkpt>
      <trkpt lat="42.76746" lon="-0.25174">
        <ele>2254.2</ele>
        <time>2018-12-27T11:47:03Z</time>
      </trkpt>
      <trkpt lat="42.76746" lon="-0.25175">
        <ele>2254.6</ele>
        <time>2018-12-27T11:47:03Z</time>
      </trkpt>
      <trkpt lat="42.76748" lon="-0.25179">
        <ele>2255.4</ele>
        <time>2018-12-27T11:47:04Z</time>
      </trkpt>
      <trkpt lat="42.76746" lon="-0.25186">
        <ele>2257.9</ele>
        <time>2018-12-27T11:47:06Z</time>
      </trkpt>
      <trkpt lat="42.76746" lon="-0.25187">
        <ele>2258</ele>
        <time>2018-12-27T11:47:06Z</time>
      </trkpt>
      <trkpt lat="42.76747" lon="-0.25189">
        <ele>2258.4</ele>
        <time>2018-12-27T11:47:06Z</time>
      </trkpt>
      <trkpt lat="42.76746" lon="-0.25192">
        <ele>2259.3</ele>
        <time>2018-12-27T11:47:07Z</time>
      </trkpt>
      <trkpt lat="42.76745" lon="-0.25192">
        <ele>2259.8</ele>
        <time>2018-12-27T11:47:07Z</time>
      </trkpt>
      <trkpt lat="42.76746" lon="-0.25197">
        <ele>2260.7</ele>
        <time>2018-12-27T11:47:08Z</time>
      </trkpt>
      <trkpt lat="42.76747" lon="-0.252">
        <ele>2261.5</ele>
        <time>2018-12-27T11:47:09Z</time>
      </trkpt>
      <trkpt lat="42.76748" lon="-0.25205">
        <ele>2262.9</ele>
        <time>2018-12-27T11:47:10Z</time>
      </trkpt>
      <trkpt lat="42.76749" lon="-0.25209">
        <ele>2263.4</ele>
        <time>2018-12-27T11:47:11Z</time>
      </trkpt>
      <trkpt lat="42.7675" lon="-0.25215">
        <ele>2265.2</ele>
        <time>2018-12-27T11:47:12Z</time>
      </trkpt>
      <trkpt lat="42.7675" lon="-0.25223">
        <ele>2267.9</ele>
        <time>2018-12-27T11:47:13Z</time>
      </trkpt>
      <trkpt lat="42.7675" lon="-0.25228">
        <ele>2269.5</ele>
        <time>2018-12-27T11:47:14Z</time>
      </trkpt>
      <trkpt lat="42.76752" lon="-0.25233">
        <ele>2270.6</ele>
        <time>2018-12-27T11:47:16Z</time>
      </trkpt>
      <trkpt lat="42.76754" lon="-0.25236">
        <ele>2271.1</ele>
        <time>2018-12-27T11:47:16Z</time>
      </trkpt>
      <trkpt lat="42.76755" lon="-0.25239">
        <ele>2271.7</ele>
        <time>2018-12-27T11:47:17Z</time>
      </trkpt>
      <trkpt lat="42.76757" lon="-0.25244">
        <ele>2272.5</ele>
        <time>2018-12-27T11:47:18Z</time>
      </trkpt>
      <trkpt lat="42.76759" lon="-0.25247">
        <ele>2273.3</ele>
        <time>2018-12-27T11:47:19Z</time>
      </trkpt>
      <trkpt lat="42.7676" lon="-0.25252">
        <ele>2274.5</ele>
        <time>2018-12-27T11:47:20Z</time>
      </trkpt>
      <trkpt lat="42.76762" lon="-0.25258">
        <ele>2276.1</ele>
        <time>2018-12-27T11:47:21Z</time>
      </trkpt>
      <trkpt lat="42.76764" lon="-0.25265">
        <ele>2277.7</ele>
        <time>2018-12-27T11:47:23Z</time>
      </trkpt>
      <trkpt lat="42.76766" lon="-0.25271">
        <ele>2279.4</ele>
        <time>2018-12-27T11:47:24Z</time>
      </trkpt>
      <trkpt lat="42.76769" lon="-0.25277">
        <ele>2280.7</ele>
        <time>2018-12-27T11:47:25Z</time>
      </trkpt>
      <trkpt lat="42.7677" lon="-0.25283">
        <ele>2282.2</ele>
        <time>2018-12-27T11:47:26Z</time>
      </trkpt>
      <trkpt lat="42.76771" lon="-0.25286">
        <ele>2282.8</ele>
        <time>2018-12-27T11:47:27Z</time>
      </trkpt>
      <trkpt lat="42.76772" lon="-0.25291">
        <ele>2284.3</ele>
        <time>2018-12-27T11:47:28Z</time>
      </trkpt>
      <trkpt lat="42.7677" lon="-0.25295">
        <ele>2286.6</ele>
        <time>2018-12-27T11:47:29Z</time>
      </trkpt>
      <trkpt lat="42.76769" lon="-0.25298">
        <ele>2288.5</ele>
        <time>2018-12-27T11:47:30Z</time>
      </trkpt>
      <trkpt lat="42.76768" lon="-0.25302">
        <ele>2290.1</ele>
        <time>2018-12-27T11:47:30Z</time>
      </trkpt>
      <trkpt lat="42.76769" lon="-0.25308">
        <ele>2292.6</ele>
        <time>2018-12-27T11:47:32Z</time>
      </trkpt>
      <trkpt lat="42.76767" lon="-0.25312">
        <ele>2295.4</ele>
        <time>2018-12-27T11:47:33Z</time>
      </trkpt>
      <trkpt lat="42.76766" lon="-0.25317">
        <ele>2297.7</ele>
        <time>2018-12-27T11:47:34Z</time>
      </trkpt>
      <trkpt lat="42.76765" lon="-0.25322">
        <ele>2300.4</ele>
        <time>2018-12-27T11:47:35Z</time>
      </trkpt>
      <trkpt lat="42.76764" lon="-0.25328">
        <ele>2303.2</ele>
        <time>2018-12-27T11:47:36Z</time>
      </trkpt>
      <trkpt lat="42.76763" lon="-0.25332">
        <ele>2305.8</ele>
        <time>2018-12-27T11:47:37Z</time>
      </trkpt>
      <trkpt lat="42.76762" lon="-0.25337">
        <ele>2308.1</ele>
        <time>2018-12-27T11:47:38Z</time>
      </trkpt>
      <trkpt lat="42.7676" lon="-0.25341">
        <ele>2310.6</ele>
        <time>2018-12-27T11:47:39Z</time>
      </trkpt>
      <trkpt lat="42.7676" lon="-0.25345">
        <ele>2312.6</ele>
        <time>2018-12-27T11:47:40Z</time>
      </trkpt>
      <trkpt lat="42.76757" lon="-0.25351">
        <ele>2316.1</ele>
        <time>2018-12-27T11:47:41Z</time>
      </trkpt>
      <trkpt lat="42.76755" lon="-0.25354">
        <ele>2318</ele>
        <time>2018-12-27T11:47:42Z</time>
      </trkpt>
      <trkpt lat="42.76755" lon="-0.25359">
        <ele>2320.2</ele>
        <time>2018-12-27T11:47:43Z</time>
      </trkpt>
      <trkpt lat="42.76754" lon="-0.25361">
        <ele>2321.2</ele>
        <time>2018-12-27T11:47:43Z</time>
      </trkpt>
      <trkpt lat="42.76755" lon="-0.25365">
        <ele>2322.9</ele>
        <time>2018-12-27T11:47:44Z</time>
      </trkpt>
      <trkpt lat="42.76755" lon="-0.2537">
        <ele>2325.4</ele>
        <time>2018-12-27T11:47:45Z</time>
      </trkpt>
      <trkpt lat="42.76754" lon="-0.25375">
        <ele>2327.9</ele>
        <time>2018-12-27T11:47:46Z</time>
      </trkpt>
      <trkpt lat="42.76752" lon="-0.25378">
        <ele>2329.4</ele>
        <time>2018-12-27T11:47:47Z</time>
      </trkpt>
      <trkpt lat="42.76751" lon="-0.25381">
        <ele>2330.8</ele>
        <time>2018-12-27T11:47:47Z</time>
      </trkpt>
      <trkpt lat="42.76749" lon="-0.25385">
        <ele>2332.4</ele>
        <time>2018-12-27T11:47:48Z</time>
      </trkpt>
      <trkpt lat="42.76747" lon="-0.25389">
        <ele>2334</ele>
        <time>2018-12-27T11:47:49Z</time>
      </trkpt>
      <trkpt lat="42.76745" lon="-0.25391">
        <ele>2335</ele>
        <time>2018-12-27T11:47:50Z</time>
      </trkpt>
      <trkpt lat="42.76745" lon="-0.25394">
        <ele>2335.8</ele>
        <time>2018-12-27T11:47:50Z</time>
      </trkpt>
      <trkpt lat="42.76743" lon="-0.25397">
        <ele>2337.1</ele>
        <time>2018-12-27T11:47:51Z</time>
      </trkpt>
      <trkpt lat="42.76743" lon="-0.254">
        <ele>2337.8</ele>
        <time>2018-12-27T11:47:52Z</time>
      </trkpt>
      <trkpt lat="42.76744" lon="-0.25403">
        <ele>2338.6</ele>
        <time>2018-12-27T11:47:52Z</time>
      </trkpt>
      <trkpt lat="42.76742" lon="-0.25407">
        <ele>2339.9</ele>
        <time>2018-12-27T11:47:53Z</time>
      </trkpt>
      <trkpt lat="42.76742" lon="-0.25411">
        <ele>2340.9</ele>
        <time>2018-12-27T11:47:54Z</time>
      </trkpt>
      <trkpt lat="42.7674" lon="-0.25413">
        <ele>2341.6</ele>
        <time>2018-12-27T11:47:55Z</time>
      </trkpt>
      <trkpt lat="42.76739" lon="-0.25416">
        <ele>2342.5</ele>
        <time>2018-12-27T11:47:55Z</time>
      </trkpt>
      <trkpt lat="42.76737" lon="-0.25418">
        <ele>2343.1</ele>
        <time>2018-12-27T11:47:56Z</time>
      </trkpt>
      <trkpt lat="42.76736" lon="-0.2542">
        <ele>2343.6</ele>
        <time>2018-12-27T11:47:57Z</time>
      </trkpt>
      <trkpt lat="42.76735" lon="-0.25423">
        <ele>2344.4</ele>
        <time>2018-12-27T11:47:57Z</time>
      </trkpt>
      <trkpt lat="42.76734" lon="-0.25427">
        <ele>2345.3</ele>
        <time>2018-12-27T11:47:58Z</time>
      </trkpt>
      <trkpt lat="42.76735" lon="-0.2543">
        <ele>2346</ele>
        <time>2018-12-27T11:47:59Z</time>
      </trkpt>
      <trkpt lat="42.76733" lon="-0.25433">
        <ele>2346.8</ele>
        <time>2018-12-27T11:47:59Z</time>
      </trkpt>
      <trkpt lat="42.76735" lon="-0.25435">
        <ele>2347.3</ele>
        <time>2018-12-27T11:48:00Z</time>
      </trkpt>
      <trkpt lat="42.76733" lon="-0.25438">
        <ele>2347.7</ele>
        <time>2018-12-27T11:48:01Z</time>
      </trkpt>
      <trkpt lat="42.76732" lon="-0.25441">
        <ele>2348.5</ele>
        <time>2018-12-27T11:48:02Z</time>
      </trkpt>
      <trkpt lat="42.76729" lon="-0.25443">
        <ele>2348.7</ele>
        <time>2018-12-27T11:48:02Z</time>
      </trkpt>
      <trkpt lat="42.76729" lon="-0.25446">
        <ele>2349.1</ele>
        <time>2018-12-27T11:48:03Z</time>
      </trkpt>
      <trkpt lat="42.76729" lon="-0.25448">
        <ele>2349.8</ele>
        <time>2018-12-27T11:48:03Z</time>
      </trkpt>
      <trkpt lat="42.76728" lon="-0.2545">
        <ele>2349.9</ele>
        <time>2018-12-27T11:48:04Z</time>
      </trkpt>
      <trkpt lat="42.76727" lon="-0.25452">
        <ele>2350.2</ele>
        <time>2018-12-27T11:48:04Z</time>
      </trkpt>
      <trkpt lat="42.76729" lon="-0.25455">
        <ele>2351.1</ele>
        <time>2018-12-27T11:48:05Z</time>
      </trkpt>
      <trkpt lat="42.76728" lon="-0.25459">
        <ele>2352</ele>
        <time>2018-12-27T11:48:06Z</time>
      </trkpt>
      <trkpt lat="42.76727" lon="-0.25461">
        <ele>2353.4</ele>
        <time>2018-12-27T11:48:06Z</time>
      </trkpt>
      <trkpt lat="42.76727" lon="-0.25465">
        <ele>2355.9</ele>
        <time>2018-12-27T11:48:07Z</time>
      </trkpt>
      <trkpt lat="42.76727" lon="-0.25468">
        <ele>2357.7</ele>
        <time>2018-12-27T11:48:08Z</time>
      </trkpt>
      <trkpt lat="42.76727" lon="-0.25471">
        <ele>2359.6</ele>
        <time>2018-12-27T11:48:08Z</time>
      </trkpt>
      <trkpt lat="42.76725" lon="-0.25473">
        <ele>2360.7</ele>
        <time>2018-12-27T11:48:09Z</time>
      </trkpt>
      <trkpt lat="42.76724" lon="-0.25476">
        <ele>2362.9</ele>
        <time>2018-12-27T11:48:10Z</time>
      </trkpt>
      <trkpt lat="42.76722" lon="-0.25481">
        <ele>2365.8</ele>
        <time>2018-12-27T11:48:11Z</time>
      </trkpt>
      <trkpt lat="42.76722" lon="-0.25485">
        <ele>2368.7</ele>
        <time>2018-12-27T11:48:11Z</time>
      </trkpt>
      <trkpt lat="42.76722" lon="-0.25487">
        <ele>2369.8</ele>
        <time>2018-12-27T11:48:12Z</time>
      </trkpt>
      <trkpt lat="42.7672" lon="-0.25488">
        <ele>2370.6</ele>
        <time>2018-12-27T11:48:12Z</time>
      </trkpt>
      <trkpt lat="42.7672" lon="-0.25492">
        <ele>2373.4</ele>
        <time>2018-12-27T11:48:13Z</time>
      </trkpt>
      <trkpt lat="42.7672" lon="-0.25496">
        <ele>2376.2</ele>
        <time>2018-12-27T11:48:14Z</time>
      </trkpt>
      <trkpt lat="42.76719" lon="-0.25498">
        <ele>2376.9</ele>
        <time>2018-12-27T11:48:14Z</time>
      </trkpt>
      <trkpt lat="42.76718" lon="-0.255">
        <ele>2378.2</ele>
        <time>2018-12-27T11:48:15Z</time>
      </trkpt>
      <trkpt lat="42.76719" lon="-0.25502">
        <ele>2379.6</ele>
        <time>2018-12-27T11:48:15Z</time>
      </trkpt>
      <trkpt lat="42.76716" lon="-0.25503">
        <ele>2380.1</ele>
        <time>2018-12-27T11:48:16Z</time>
      </trkpt>
      <trkpt lat="42.76716" lon="-0.25506">
        <ele>2381.9</ele>
        <time>2018-12-27T11:48:17Z</time>
      </trkpt>
      <trkpt lat="42.76717" lon="-0.25508">
        <ele>2383.6</ele>
        <time>2018-12-27T11:48:17Z</time>
      </trkpt>
      <trkpt lat="42.7672" lon="-0.25511">
        <ele>2386</ele>
        <time>2018-12-27T11:48:18Z</time>
      </trkpt>
      <trkpt lat="42.76721" lon="-0.25513">
        <ele>2387.9</ele>
        <time>2018-12-27T11:48:19Z</time>
      </trkpt>
      <trkpt lat="42.76722" lon="-0.25517">
        <ele>2390.8</ele>
        <time>2018-12-27T11:48:20Z</time>
      </trkpt>
      <trkpt lat="42.76722" lon="-0.25521">
        <ele>2393.2</ele>
        <time>2018-12-27T11:48:20Z</time>
      </trkpt>
      <trkpt lat="42.76721" lon="-0.25525">
        <ele>2396.1</ele>
        <time>2018-12-27T11:48:21Z</time>
      </trkpt>
      <trkpt lat="42.7672" lon="-0.25529">
        <ele>2398.3</ele>
        <time>2018-12-27T11:48:22Z</time>
      </trkpt>
      <trkpt lat="42.76719" lon="-0.25529">
        <ele>2398.7</ele>
        <time>2018-12-27T11:48:22Z</time>
      </trkpt>
      <trkpt lat="42.76723" lon="-0.25529">
        <ele>2398.8</ele>
        <time>2018-12-27T11:48:23Z</time>
      </trkpt>
      <trkpt lat="42.76723" lon="-0.25531">
        <ele>2400.4</ele>
        <time>2018-12-27T11:48:23Z</time>
      </trkpt>
      <trkpt lat="42.76723" lon="-0.25534">
        <ele>2402</ele>
        <time>2018-12-27T11:48:24Z</time>
      </trkpt>
      <trkpt lat="42.76722" lon="-0.25537">
        <ele>2404.3</ele>
        <time>2018-12-27T11:48:25Z</time>
      </trkpt>
      <trkpt lat="42.7672" lon="-0.25539">
        <ele>2405.3</ele>
        <time>2018-12-27T11:48:25Z</time>
      </trkpt>
      <trkpt lat="42.76718" lon="-0.2554">
        <ele>2405.7</ele>
        <time>2018-12-27T11:48:26Z</time>
      </trkpt>
      <trkpt lat="42.76722" lon="-0.25542">
        <ele>2407.7</ele>
        <time>2018-12-27T11:48:27Z</time>
      </trkpt>
      <trkpt lat="42.76722" lon="-0.25545">
        <ele>2409</ele>
        <time>2018-12-27T11:48:28Z</time>
      </trkpt>
      <trkpt lat="42.76721" lon="-0.25549">
        <ele>2410.3</ele>
        <time>2018-12-27T11:48:29Z</time>
      </trkpt>
      <trkpt lat="42.76719" lon="-0.2555">
        <ele>2410.7</ele>
        <time>2018-12-27T11:48:29Z</time>
      </trkpt>
      <trkpt lat="42.7672" lon="-0.25553">
        <ele>2412</ele>
        <time>2018-12-27T11:48:30Z</time>
      </trkpt>
      <trkpt lat="42.7672" lon="-0.25556">
        <ele>2413.4</ele>
        <time>2018-12-27T11:48:30Z</time>
      </trkpt>
      <trkpt lat="42.76718" lon="-0.25559">
        <ele>2414.2</ele>
        <time>2018-12-27T11:48:31Z</time>
      </trkpt>
      <trkpt lat="42.76719" lon="-0.25561">
        <ele>2415.4</ele>
        <time>2018-12-27T11:48:32Z</time>
      </trkpt>
      <trkpt lat="42.76717" lon="-0.25566">
        <ele>2416.7</ele>
        <time>2018-12-27T11:48:33Z</time>
      </trkpt>
      <trkpt lat="42.76714" lon="-0.25567">
        <ele>2416.9</ele>
        <time>2018-12-27T11:48:33Z</time>
      </trkpt>
      <trkpt lat="42.76714" lon="-0.25569">
        <ele>2417.6</ele>
        <time>2018-12-27T11:48:34Z</time>
      </trkpt>
      <trkpt lat="42.76713" lon="-0.25572">
        <ele>2418.9</ele>
        <time>2018-12-27T11:48:34Z</time>
      </trkpt>
      <trkpt lat="42.76714" lon="-0.25573">
        <ele>2419.2</ele>
        <time>2018-12-27T11:48:35Z</time>
      </trkpt>
      <trkpt lat="42.76712" lon="-0.25575">
        <ele>2419.8</ele>
        <time>2018-12-27T11:48:35Z</time>
      </trkpt>
      <trkpt lat="42.7671" lon="-0.25577">
        <ele>2420.2</ele>
        <time>2018-12-27T11:48:36Z</time>
      </trkpt>
      <trkpt lat="42.7671" lon="-0.2558">
        <ele>2421.4</ele>
        <time>2018-12-27T11:48:37Z</time>
      </trkpt>
      <trkpt lat="42.76709" lon="-0.2558">
        <ele>2421.6</ele>
        <time>2018-12-27T11:48:37Z</time>
      </trkpt>
      <trkpt lat="42.76709" lon="-0.25583">
        <ele>2422.6</ele>
        <time>2018-12-27T11:48:37Z</time>
      </trkpt>
      <trkpt lat="42.76708" lon="-0.25584">
        <ele>2422.8</ele>
        <time>2018-12-27T11:48:38Z</time>
      </trkpt>
      <trkpt lat="42.76706" lon="-0.25584">
        <ele>2423.3</ele>
        <time>2018-12-27T11:48:38Z</time>
      </trkpt>
      <trkpt lat="42.76706" lon="-0.25587">
        <ele>2424.4</ele>
        <time>2018-12-27T11:48:39Z</time>
      </trkpt>
      <trkpt lat="42.76704" lon="-0.25589">
        <ele>2425.4</ele>
        <time>2018-12-27T11:48:39Z</time>
      </trkpt>
      <trkpt lat="42.76703" lon="-0.25591">
        <ele>2426.6</ele>
        <time>2018-12-27T11:48:40Z</time>
      </trkpt>
      <trkpt lat="42.76704" lon="-0.25593">
        <ele>2426.9</ele>
        <time>2018-12-27T11:48:40Z</time>
      </trkpt>
      <trkpt lat="42.76705" lon="-0.25593">
        <ele>2426.8</ele>
        <time>2018-12-27T11:48:41Z</time>
      </trkpt>
      <trkpt lat="42.76703" lon="-0.25594">
        <ele>2427.7</ele>
        <time>2018-12-27T11:48:41Z</time>
      </trkpt>
      <trkpt lat="42.76704" lon="-0.25597">
        <ele>2428.5</ele>
        <time>2018-12-27T11:48:41Z</time>
      </trkpt>
      <trkpt lat="42.76705" lon="-0.25599">
        <ele>2429.2</ele>
        <time>2018-12-27T11:48:42Z</time>
      </trkpt>
      <trkpt lat="42.76702" lon="-0.256">
        <ele>2430.4</ele>
        <time>2018-12-27T11:48:43Z</time>
      </trkpt>
      <trkpt lat="42.76703" lon="-0.25604">
        <ele>2431.4</ele>
        <time>2018-12-27T11:48:43Z</time>
      </trkpt>
      <trkpt lat="42.76702" lon="-0.25607">
        <ele>2433</ele>
        <time>2018-12-27T11:48:44Z</time>
      </trkpt>
      <trkpt lat="42.767" lon="-0.25609">
        <ele>2434.1</ele>
        <time>2018-12-27T11:48:45Z</time>
      </trkpt>
      <trkpt lat="42.767" lon="-0.25611">
        <ele>2434.7</ele>
        <time>2018-12-27T11:48:45Z</time>
      </trkpt>
      <trkpt lat="42.76698" lon="-0.25615">
        <ele>2436.8</ele>
        <time>2018-12-27T11:48:46Z</time>
      </trkpt>
      <trkpt lat="42.767" lon="-0.25616">
        <ele>2436.9</ele>
        <time>2018-12-27T11:48:47Z</time>
      </trkpt>
      <trkpt lat="42.76701" lon="-0.25618">
        <ele>2437.4</ele>
        <time>2018-12-27T11:48:47Z</time>
      </trkpt>
      <trkpt lat="42.76699" lon="-0.25621">
        <ele>2438.8</ele>
        <time>2018-12-27T11:48:48Z</time>
      </trkpt>
      <trkpt lat="42.76698" lon="-0.25622">
        <ele>2439.6</ele>
        <time>2018-12-27T11:48:48Z</time>
      </trkpt>
      <trkpt lat="42.76696" lon="-0.25624">
        <ele>2440.8</ele>
        <time>2018-12-27T11:48:49Z</time>
      </trkpt>
      <trkpt lat="42.76693" lon="-0.25632">
        <ele>2443.3</ele>
        <time>2018-12-27T11:48:50Z</time>
      </trkpt>
      <trkpt lat="42.76692" lon="-0.25636">
        <ele>2444.8</ele>
        <time>2018-12-27T11:48:51Z</time>
      </trkpt>
      <trkpt lat="42.76691" lon="-0.25639">
        <ele>2445.7</ele>
        <time>2018-12-27T11:48:52Z</time>
      </trkpt>
      <trkpt lat="42.76691" lon="-0.2564">
        <ele>2445.8</ele>
        <time>2018-12-27T11:48:52Z</time>
      </trkpt>
      <trkpt lat="42.7669" lon="-0.25643">
        <ele>2446.8</ele>
        <time>2018-12-27T11:48:53Z</time>
      </trkpt>
      <trkpt lat="42.76689" lon="-0.25647">
        <ele>2448.1</ele>
        <time>2018-12-27T11:48:54Z</time>
      </trkpt>
      <trkpt lat="42.76689" lon="-0.25651">
        <ele>2449.2</ele>
        <time>2018-12-27T11:48:54Z</time>
      </trkpt>
      <trkpt lat="42.76686" lon="-0.25654">
        <ele>2450.3</ele>
        <time>2018-12-27T11:48:55Z</time>
      </trkpt>
      <trkpt lat="42.76686" lon="-0.25656">
        <ele>2450.8</ele>
        <time>2018-12-27T11:48:56Z</time>
      </trkpt>
      <trkpt lat="42.76683" lon="-0.25658">
        <ele>2451.6</ele>
        <time>2018-12-27T11:48:56Z</time>
      </trkpt>
      <trkpt lat="42.76684" lon="-0.2566">
        <ele>2452.3</ele>
        <time>2018-12-27T11:48:57Z</time>
      </trkpt>
      <trkpt lat="42.76683" lon="-0.25663">
        <ele>2453.1</ele>
        <time>2018-12-27T11:48:57Z</time>
      </trkpt>
      <trkpt lat="42.76682" lon="-0.25666">
        <ele>2454.1</ele>
        <time>2018-12-27T11:48:58Z</time>
      </trkpt>
      <trkpt lat="42.76681" lon="-0.25668">
        <ele>2454.5</ele>
        <time>2018-12-27T11:48:59Z</time>
      </trkpt>
      <trkpt lat="42.76681" lon="-0.25672">
        <ele>2455.7</ele>
        <time>2018-12-27T11:48:59Z</time>
      </trkpt>
      <trkpt lat="42.76681" lon="-0.25676">
        <ele>2456.9</ele>
        <time>2018-12-27T11:49:00Z</time>
      </trkpt>
      <trkpt lat="42.76683" lon="-0.25678">
        <ele>2456.9</ele>
        <time>2018-12-27T11:49:01Z</time>
      </trkpt>
      <trkpt lat="42.76681" lon="-0.25682">
        <ele>2458.1</ele>
        <time>2018-12-27T11:49:02Z</time>
      </trkpt>
      <trkpt lat="42.7668" lon="-0.25686">
        <ele>2459.2</ele>
        <time>2018-12-27T11:49:03Z</time>
      </trkpt>
      <trkpt lat="42.76681" lon="-0.25689">
        <ele>2460.1</ele>
        <time>2018-12-27T11:49:03Z</time>
      </trkpt>
      <trkpt lat="42.76681" lon="-0.25691">
        <ele>2460.6</ele>
        <time>2018-12-27T11:49:04Z</time>
      </trkpt>
      <trkpt lat="42.76682" lon="-0.25695">
        <ele>2461.5</ele>
        <time>2018-12-27T11:49:05Z</time>
      </trkpt>
      <trkpt lat="42.7668" lon="-0.25699">
        <ele>2462.7</ele>
        <time>2018-12-27T11:49:06Z</time>
      </trkpt>
      <trkpt lat="42.76679" lon="-0.25702">
        <ele>2463.6</ele>
        <time>2018-12-27T11:49:06Z</time>
      </trkpt>
      <trkpt lat="42.76678" lon="-0.25706">
        <ele>2464.7</ele>
        <time>2018-12-27T11:49:07Z</time>
      </trkpt>
      <trkpt lat="42.76678" lon="-0.2571">
        <ele>2466</ele>
        <time>2018-12-27T11:49:08Z</time>
      </trkpt>
      <trkpt lat="42.76677" lon="-0.25714">
        <ele>2468.1</ele>
        <time>2018-12-27T11:49:09Z</time>
      </trkpt>
      <trkpt lat="42.76674" lon="-0.25718">
        <ele>2470.1</ele>
        <time>2018-12-27T11:49:10Z</time>
      </trkpt>
      <trkpt lat="42.76673" lon="-0.25722">
        <ele>2471.7</ele>
        <time>2018-12-27T11:49:11Z</time>
      </trkpt>
      <trkpt lat="42.76675" lon="-0.25724">
        <ele>2472.4</ele>
        <time>2018-12-27T11:49:11Z</time>
      </trkpt>
      <trkpt lat="42.76674" lon="-0.25727">
        <ele>2474.2</ele>
        <time>2018-12-27T11:49:12Z</time>
      </trkpt>
      <trkpt lat="42.76672" lon="-0.25731">
        <ele>2476.1</ele>
        <time>2018-12-27T11:49:13Z</time>
      </trkpt>
      <trkpt lat="42.76671" lon="-0.25735">
        <ele>2478</ele>
        <time>2018-12-27T11:49:14Z</time>
      </trkpt>
      <trkpt lat="42.7667" lon="-0.25737">
        <ele>2479</ele>
        <time>2018-12-27T11:49:14Z</time>
      </trkpt>
      <trkpt lat="42.76667" lon="-0.25742">
        <ele>2481</ele>
        <time>2018-12-27T11:49:15Z</time>
      </trkpt>
      <trkpt lat="42.76668" lon="-0.25744">
        <ele>2482.1</ele>
        <time>2018-12-27T11:49:16Z</time>
      </trkpt>
      <trkpt lat="42.76668" lon="-0.25748">
        <ele>2483.7</ele>
        <time>2018-12-27T11:49:17Z</time>
      </trkpt>
      <trkpt lat="42.76667" lon="-0.25752">
        <ele>2485.7</ele>
        <time>2018-12-27T11:49:18Z</time>
      </trkpt>
      <trkpt lat="42.76666" lon="-0.25754">
        <ele>2486.7</ele>
        <time>2018-12-27T11:49:18Z</time>
      </trkpt>
      <trkpt lat="42.76665" lon="-0.25758">
        <ele>2488.4</ele>
        <time>2018-12-27T11:49:19Z</time>
      </trkpt>
      <trkpt lat="42.76664" lon="-0.25765">
        <ele>2491.4</ele>
        <time>2018-12-27T11:49:20Z</time>
      </trkpt>
      <trkpt lat="42.76661" lon="-0.25769">
        <ele>2493.2</ele>
        <time>2018-12-27T11:49:21Z</time>
      </trkpt>
      <trkpt lat="42.76659" lon="-0.25774">
        <ele>2495</ele>
        <time>2018-12-27T11:49:22Z</time>
      </trkpt>
      <trkpt lat="42.76655" lon="-0.25776">
        <ele>2496</ele>
        <time>2018-12-27T11:49:23Z</time>
      </trkpt>
      <trkpt lat="42.76651" lon="-0.25777">
        <ele>2496.2</ele>
        <time>2018-12-27T11:49:25Z</time>
      </trkpt>
      <trkpt lat="42.76649" lon="-0.25779">
        <ele>2497.1</ele>
        <time>2018-12-27T11:49:25Z</time>
      </trkpt>
      <trkpt lat="42.76646" lon="-0.25783">
        <ele>2498.5</ele>
        <time>2018-12-27T11:49:26Z</time>
      </trkpt>
      <trkpt lat="42.76646" lon="-0.25786">
        <ele>2499.7</ele>
        <time>2018-12-27T11:49:27Z</time>
      </trkpt>
      <trkpt lat="42.76644" lon="-0.2579">
        <ele>2501.2</ele>
        <time>2018-12-27T11:49:28Z</time>
      </trkpt>
      <trkpt lat="42.76642" lon="-0.25792">
        <ele>2502.1</ele>
        <time>2018-12-27T11:49:29Z</time>
      </trkpt>
      <trkpt lat="42.76639" lon="-0.25797">
        <ele>2504.5</ele>
        <time>2018-12-27T11:49:30Z</time>
      </trkpt>
      <trkpt lat="42.76638" lon="-0.25802">
        <ele>2506.8</ele>
        <time>2018-12-27T11:49:31Z</time>
      </trkpt>
      <trkpt lat="42.76639" lon="-0.25808">
        <ele>2509.5</ele>
        <time>2018-12-27T11:49:32Z</time>
      </trkpt>
      <trkpt lat="42.76637" lon="-0.25814">
        <ele>2512.5</ele>
        <time>2018-12-27T11:49:33Z</time>
      </trkpt>
      <trkpt lat="42.76634" lon="-0.25816">
        <ele>2513.4</ele>
        <time>2018-12-27T11:49:34Z</time>
      </trkpt>
      <trkpt lat="42.76633" lon="-0.2582">
        <ele>2515.1</ele>
        <time>2018-12-27T11:49:35Z</time>
      </trkpt>
      <trkpt lat="42.7663" lon="-0.25822">
        <ele>2515.7</ele>
        <time>2018-12-27T11:49:36Z</time>
      </trkpt>
      <trkpt lat="42.7663" lon="-0.25826">
        <ele>2517.8</ele>
        <time>2018-12-27T11:49:37Z</time>
      </trkpt>
      <trkpt lat="42.76627" lon="-0.25829">
        <ele>2518.7</ele>
        <time>2018-12-27T11:49:38Z</time>
      </trkpt>
      <trkpt lat="42.76625" lon="-0.25831">
        <ele>2519.4</ele>
        <time>2018-12-27T11:49:38Z</time>
      </trkpt>
      <trkpt lat="42.76621" lon="-0.25833">
        <ele>2520.4</ele>
        <time>2018-12-27T11:49:39Z</time>
      </trkpt>
      <trkpt lat="42.76617" lon="-0.25831">
        <ele>2519.9</ele>
        <time>2018-12-27T11:49:40Z</time>
      </trkpt>
      <trkpt lat="42.76614" lon="-0.2583">
        <ele>2519.5</ele>
        <time>2018-12-27T11:49:41Z</time>
      </trkpt>
      <trkpt lat="42.7661" lon="-0.2583">
        <ele>2519.7</ele>
        <time>2018-12-27T11:49:42Z</time>
      </trkpt>
      <trkpt lat="42.7661" lon="-0.25836">
        <ele>2522.2</ele>
        <time>2018-12-27T11:49:43Z</time>
      </trkpt>
      <trkpt lat="42.7661" lon="-0.2584">
        <ele>2524.2</ele>
        <time>2018-12-27T11:49:44Z</time>
      </trkpt>
      <trkpt lat="42.76608" lon="-0.25843">
        <ele>2525.4</ele>
        <time>2018-12-27T11:49:45Z</time>
      </trkpt>
      <trkpt lat="42.76606" lon="-0.25844">
        <ele>2526.1</ele>
        <time>2018-12-27T11:49:46Z</time>
      </trkpt>
      <trkpt lat="42.76604" lon="-0.25846">
        <ele>2527.2</ele>
        <time>2018-12-27T11:49:46Z</time>
      </trkpt>
      <trkpt lat="42.76603" lon="-0.2585">
        <ele>2529</ele>
        <time>2018-12-27T11:49:47Z</time>
      </trkpt>
      <trkpt lat="42.76602" lon="-0.25854">
        <ele>2530.3</ele>
        <time>2018-12-27T11:49:48Z</time>
      </trkpt>
      <trkpt lat="42.766" lon="-0.25858">
        <ele>2532.2</ele>
        <time>2018-12-27T11:49:49Z</time>
      </trkpt>
      <trkpt lat="42.76599" lon="-0.2586">
        <ele>2533.3</ele>
        <time>2018-12-27T11:49:49Z</time>
      </trkpt>
      <trkpt lat="42.76598" lon="-0.25863">
        <ele>2534.3</ele>
        <time>2018-12-27T11:49:50Z</time>
      </trkpt>
      <trkpt lat="42.76596" lon="-0.25864">
        <ele>2534.9</ele>
        <time>2018-12-27T11:49:50Z</time>
      </trkpt>
      <trkpt lat="42.76594" lon="-0.25867">
        <ele>2536</ele>
        <time>2018-12-27T11:49:51Z</time>
      </trkpt>
      <trkpt lat="42.76595" lon="-0.25869">
        <ele>2537.2</ele>
        <time>2018-12-27T11:49:52Z</time>
      </trkpt>
      <trkpt lat="42.76594" lon="-0.25871">
        <ele>2537.9</ele>
        <time>2018-12-27T11:49:52Z</time>
      </trkpt>
      <trkpt lat="42.76591" lon="-0.25875">
        <ele>2539.6</ele>
        <time>2018-12-27T11:49:53Z</time>
      </trkpt>
      <trkpt lat="42.7659" lon="-0.25879">
        <ele>2541.3</ele>
        <time>2018-12-27T11:49:54Z</time>
      </trkpt>
      <trkpt lat="42.76588" lon="-0.25881">
        <ele>2542.5</ele>
        <time>2018-12-27T11:49:55Z</time>
      </trkpt>
      <trkpt lat="42.76586" lon="-0.25884">
        <ele>2543.6</ele>
        <time>2018-12-27T11:49:55Z</time>
      </trkpt>
      <trkpt lat="42.76586" lon="-0.25886">
        <ele>2544.3</ele>
        <time>2018-12-27T11:49:56Z</time>
      </trkpt>
      <trkpt lat="42.76584" lon="-0.25887">
        <ele>2544.9</ele>
        <time>2018-12-27T11:49:56Z</time>
      </trkpt>
      <trkpt lat="42.76582" lon="-0.25888">
        <ele>2545</ele>
        <time>2018-12-27T11:49:57Z</time>
      </trkpt>
      <trkpt lat="42.76582" lon="-0.2589">
        <ele>2546.2</ele>
        <time>2018-12-27T11:49:57Z</time>
      </trkpt>
      <trkpt lat="42.76579" lon="-0.25891">
        <ele>2546.4</ele>
        <time>2018-12-27T11:49:58Z</time>
      </trkpt>
      <trkpt lat="42.76575" lon="-0.25893">
        <ele>2547.2</ele>
        <time>2018-12-27T11:49:59Z</time>
      </trkpt>
      <trkpt lat="42.76572" lon="-0.25893">
        <ele>2546.9</ele>
        <time>2018-12-27T11:50:00Z</time>
      </trkpt>
      <trkpt lat="42.76569" lon="-0.25894">
        <ele>2547.4</ele>
        <time>2018-12-27T11:50:01Z</time>
      </trkpt>
      <trkpt lat="42.76568" lon="-0.25897">
        <ele>2548.7</ele>
        <time>2018-12-27T11:50:01Z</time>
      </trkpt>
      <trkpt lat="42.76566" lon="-0.25897">
        <ele>2548.4</ele>
        <time>2018-12-27T11:50:02Z</time>
      </trkpt>
      <trkpt lat="42.76563" lon="-0.25898">
        <ele>2548.8</ele>
        <time>2018-12-27T11:50:03Z</time>
      </trkpt>
      <trkpt lat="42.76562" lon="-0.259">
        <ele>2549.7</ele>
        <time>2018-12-27T11:50:03Z</time>
      </trkpt>
      <trkpt lat="42.76559" lon="-0.25901">
        <ele>2549.9</ele>
        <time>2018-12-27T11:50:04Z</time>
      </trkpt>
      <trkpt lat="42.76557" lon="-0.25902">
        <ele>2550.3</ele>
        <time>2018-12-27T11:50:05Z</time>
      </trkpt>
      <trkpt lat="42.76556" lon="-0.25906">
        <ele>2551.9</ele>
        <time>2018-12-27T11:50:05Z</time>
      </trkpt>
      <trkpt lat="42.76553" lon="-0.25907">
        <ele>2552</ele>
        <time>2018-12-27T11:50:06Z</time>
      </trkpt>
      <trkpt lat="42.76553" lon="-0.25911">
        <ele>2553.8</ele>
        <time>2018-12-27T11:50:07Z</time>
      </trkpt>
      <trkpt lat="42.76552" lon="-0.25913">
        <ele>2554.5</ele>
        <time>2018-12-27T11:50:08Z</time>
      </trkpt>
      <trkpt lat="42.76549" lon="-0.25914">
        <ele>2554.9</ele>
        <time>2018-12-27T11:50:08Z</time>
      </trkpt>
      <trkpt lat="42.76546" lon="-0.25914">
        <ele>2554.6</ele>
        <time>2018-12-27T11:50:09Z</time>
      </trkpt>
      <trkpt lat="42.76543" lon="-0.25917">
        <ele>2555.6</ele>
        <time>2018-12-27T11:50:10Z</time>
      </trkpt>
      <trkpt lat="42.76542" lon="-0.25922">
        <ele>2557.6</ele>
        <time>2018-12-27T11:50:11Z</time>
      </trkpt>
      <trkpt lat="42.76541" lon="-0.25926">
        <ele>2559.1</ele>
        <time>2018-12-27T11:50:12Z</time>
      </trkpt>
      <trkpt lat="42.7654" lon="-0.25929">
        <ele>2560.5</ele>
        <time>2018-12-27T11:50:13Z</time>
      </trkpt>
      <trkpt lat="42.7654" lon="-0.25932">
        <ele>2561.9</ele>
        <time>2018-12-27T11:50:14Z</time>
      </trkpt>
      <trkpt lat="42.76538" lon="-0.25933">
        <ele>2562.3</ele>
        <time>2018-12-27T11:50:14Z</time>
      </trkpt>
      <trkpt lat="42.76536" lon="-0.25934">
        <ele>2562.8</ele>
        <time>2018-12-27T11:50:15Z</time>
      </trkpt>
      <trkpt lat="42.76533" lon="-0.25936">
        <ele>2564.1</ele>
        <time>2018-12-27T11:50:15Z</time>
      </trkpt>
      <trkpt lat="42.76532" lon="-0.25939">
        <ele>2565.5</ele>
        <time>2018-12-27T11:50:16Z</time>
      </trkpt>
      <trkpt lat="42.7653" lon="-0.25941">
        <ele>2566.4</ele>
        <time>2018-12-27T11:50:17Z</time>
      </trkpt>
      <trkpt lat="42.76527" lon="-0.25943">
        <ele>2567.4</ele>
        <time>2018-12-27T11:50:18Z</time>
      </trkpt>
      <trkpt lat="42.76523" lon="-0.25946">
        <ele>2568.9</ele>
        <time>2018-12-27T11:50:19Z</time>
      </trkpt>
      <trkpt lat="42.76522" lon="-0.25947">
        <ele>2569.6</ele>
        <time>2018-12-27T11:50:19Z</time>
      </trkpt>
      <trkpt lat="42.76521" lon="-0.2595">
        <ele>2570.9</ele>
        <time>2018-12-27T11:50:20Z</time>
      </trkpt>
      <trkpt lat="42.7652" lon="-0.25953">
        <ele>2572.3</ele>
        <time>2018-12-27T11:50:21Z</time>
      </trkpt>
      <trkpt lat="42.76518" lon="-0.25954">
        <ele>2572.8</ele>
        <time>2018-12-27T11:50:21Z</time>
      </trkpt>
      <trkpt lat="42.76514" lon="-0.25955">
        <ele>2573.6</ele>
        <time>2018-12-27T11:50:22Z</time>
      </trkpt>
      <trkpt lat="42.76511" lon="-0.25955">
        <ele>2573.8</ele>
        <time>2018-12-27T11:50:23Z</time>
      </trkpt>
      <trkpt lat="42.76509" lon="-0.25957">
        <ele>2574.9</ele>
        <time>2018-12-27T11:50:24Z</time>
      </trkpt>
      <trkpt lat="42.76509" lon="-0.2596">
        <ele>2576.2</ele>
        <time>2018-12-27T11:50:24Z</time>
      </trkpt>
      <trkpt lat="42.76506" lon="-0.2596">
        <ele>2576.4</ele>
        <time>2018-12-27T11:50:25Z</time>
      </trkpt>
      <trkpt lat="42.76505" lon="-0.25962">
        <ele>2577.3</ele>
        <time>2018-12-27T11:50:26Z</time>
      </trkpt>
      <trkpt lat="42.76503" lon="-0.25965">
        <ele>2578.6</ele>
        <time>2018-12-27T11:50:26Z</time>
      </trkpt>
      <trkpt lat="42.76504" lon="-0.25968">
        <ele>2579.4</ele>
        <time>2018-12-27T11:50:27Z</time>
      </trkpt>
      <trkpt lat="42.765" lon="-0.25969">
        <ele>2580.3</ele>
        <time>2018-12-27T11:50:28Z</time>
      </trkpt>
      <trkpt lat="42.76499" lon="-0.25973">
        <ele>2581.8</ele>
        <time>2018-12-27T11:50:29Z</time>
      </trkpt>
      <trkpt lat="42.76501" lon="-0.25976">
        <ele>2582.8</ele>
        <time>2018-12-27T11:50:29Z</time>
      </trkpt>
      <trkpt lat="42.76502" lon="-0.25978">
        <ele>2583.1</ele>
        <time>2018-12-27T11:50:30Z</time>
      </trkpt>
      <trkpt lat="42.765" lon="-0.25982">
        <ele>2584.7</ele>
        <time>2018-12-27T11:50:31Z</time>
      </trkpt>
      <trkpt lat="42.76497" lon="-0.25984">
        <ele>2585.9</ele>
        <time>2018-12-27T11:50:32Z</time>
      </trkpt>
      <trkpt lat="42.76496" lon="-0.2599">
        <ele>2587.9</ele>
        <time>2018-12-27T11:50:33Z</time>
      </trkpt>
      <trkpt lat="42.76501" lon="-0.25993">
        <ele>2588.6</ele>
        <time>2018-12-27T11:50:34Z</time>
      </trkpt>
      <trkpt lat="42.76503" lon="-0.25994">
        <ele>2588.6</ele>
        <time>2018-12-27T11:50:35Z</time>
      </trkpt>
      <trkpt lat="42.76506" lon="-0.25996">
        <ele>2588.9</ele>
        <time>2018-12-27T11:50:36Z</time>
      </trkpt>
      <trkpt lat="42.76513" lon="-0.25997">
        <ele>2588.6</ele>
        <time>2018-12-27T11:50:38Z</time>
      </trkpt>
      <trkpt lat="42.76518" lon="-0.25997">
        <ele>2587.7</ele>
        <time>2018-12-27T11:50:39Z</time>
      </trkpt>
      <trkpt lat="42.7652" lon="-0.25998">
        <ele>2587.8</ele>
        <time>2018-12-27T11:50:39Z</time>
      </trkpt>
      <trkpt lat="42.76521" lon="-0.25998">
        <ele>2588</ele>
        <time>2018-12-27T11:50:40Z</time>
      </trkpt>
      <trkpt lat="42.76523" lon="-0.26003">
        <ele>2589.4</ele>
        <time>2018-12-27T11:50:41Z</time>
      </trkpt>
      <trkpt lat="42.76525" lon="-0.26006">
        <ele>2590.1</ele>
        <time>2018-12-27T11:50:42Z</time>
      </trkpt>
      <trkpt lat="42.76526" lon="-0.26009">
        <ele>2591.1</ele>
        <time>2018-12-27T11:50:42Z</time>
      </trkpt>
      <trkpt lat="42.76527" lon="-0.26012">
        <ele>2591.9</ele>
        <time>2018-12-27T11:50:43Z</time>
      </trkpt>
      <trkpt lat="42.76528" lon="-0.26017">
        <ele>2593.4</ele>
        <time>2018-12-27T11:50:44Z</time>
      </trkpt>
      <trkpt lat="42.76531" lon="-0.26019">
        <ele>2593.9</ele>
        <time>2018-12-27T11:50:45Z</time>
      </trkpt>
      <trkpt lat="42.76532" lon="-0.26024">
        <ele>2595.5</ele>
        <time>2018-12-27T11:50:46Z</time>
      </trkpt>
      <trkpt lat="42.76535" lon="-0.26028">
        <ele>2596.1</ele>
        <time>2018-12-27T11:50:47Z</time>
      </trkpt>
      <trkpt lat="42.76537" lon="-0.2603">
        <ele>2596.6</ele>
        <time>2018-12-27T11:50:47Z</time>
      </trkpt>
      <trkpt lat="42.76537" lon="-0.26034">
        <ele>2597.9</ele>
        <time>2018-12-27T11:50:48Z</time>
      </trkpt>
      <trkpt lat="42.76538" lon="-0.26038">
        <ele>2599.2</ele>
        <time>2018-12-27T11:50:49Z</time>
      </trkpt>
      <trkpt lat="42.76541" lon="-0.26042">
        <ele>2600.3</ele>
        <time>2018-12-27T11:50:50Z</time>
      </trkpt>
      <trkpt lat="42.76543" lon="-0.26042">
        <ele>2600.5</ele>
        <time>2018-12-27T11:50:51Z</time>
      </trkpt>
      <trkpt lat="42.76547" lon="-0.26042">
        <ele>2600.8</ele>
        <time>2018-12-27T11:50:52Z</time>
      </trkpt>
      <trkpt lat="42.76548" lon="-0.26041">
        <ele>2600.7</ele>
        <time>2018-12-27T11:50:52Z</time>
      </trkpt>
      <trkpt lat="42.76553" lon="-0.26038">
        <ele>2600.6</ele>
        <time>2018-12-27T11:50:54Z</time>
      </trkpt>
      <trkpt lat="42.76556" lon="-0.26039">
        <ele>2601.3</ele>
        <time>2018-12-27T11:50:54Z</time>
      </trkpt>
      <trkpt lat="42.76563" lon="-0.26042">
        <ele>2603.4</ele>
        <time>2018-12-27T11:50:56Z</time>
      </trkpt>
      <trkpt lat="42.76571" lon="-0.26048">
        <ele>2607.5</ele>
        <time>2018-12-27T11:50:59Z</time>
      </trkpt>
      <trkpt lat="42.76573" lon="-0.2605">
        <ele>2608.3</ele>
        <time>2018-12-27T11:50:59Z</time>
      </trkpt>
      <trkpt lat="42.76576" lon="-0.26051">
        <ele>2609.3</ele>
        <time>2018-12-27T11:51:00Z</time>
      </trkpt>
      <trkpt lat="42.76581" lon="-0.26052">
        <ele>2610.3</ele>
        <time>2018-12-27T11:51:01Z</time>
      </trkpt>
      <trkpt lat="42.76588" lon="-0.26054">
        <ele>2612.3</ele>
        <time>2018-12-27T11:51:03Z</time>
      </trkpt>
      <trkpt lat="42.76592" lon="-0.26057">
        <ele>2614.7</ele>
        <time>2018-12-27T11:51:05Z</time>
      </trkpt>
      <trkpt lat="42.76593" lon="-0.26057">
        <ele>2614.7</ele>
        <time>2018-12-27T11:51:05Z</time>
      </trkpt>
      <trkpt lat="42.76598" lon="-0.26059">
        <ele>2616.4</ele>
        <time>2018-12-27T11:51:06Z</time>
      </trkpt>
      <trkpt lat="42.76603" lon="-0.26063">
        <ele>2618.7</ele>
        <time>2018-12-27T11:51:08Z</time>
      </trkpt>
      <trkpt lat="42.76604" lon="-0.26065">
        <ele>2619.8</ele>
        <time>2018-12-27T11:51:08Z</time>
      </trkpt>
      <trkpt lat="42.76605" lon="-0.26066">
        <ele>2620.3</ele>
        <time>2018-12-27T11:51:09Z</time>
      </trkpt>
      <trkpt lat="42.76606" lon="-0.26066">
        <ele>2620.6</ele>
        <time>2018-12-27T11:51:09Z</time>
      </trkpt>
      <trkpt lat="42.76608" lon="-0.26068">
        <ele>2621.8</ele>
        <time>2018-12-27T11:51:10Z</time>
      </trkpt>
      <trkpt lat="42.7661" lon="-0.26069">
        <ele>2622.7</ele>
        <time>2018-12-27T11:51:10Z</time>
      </trkpt>
      <trkpt lat="42.76614" lon="-0.26072">
        <ele>2624.2</ele>
        <time>2018-12-27T11:51:11Z</time>
      </trkpt>
      <trkpt lat="42.76617" lon="-0.26075">
        <ele>2626</ele>
        <time>2018-12-27T11:51:12Z</time>
      </trkpt>
      <trkpt lat="42.76624" lon="-0.26075">
        <ele>2627.1</ele>
        <time>2018-12-27T11:51:14Z</time>
      </trkpt>
      <trkpt lat="42.76631" lon="-0.26073">
        <ele>2627.3</ele>
        <time>2018-12-27T11:51:16Z</time>
      </trkpt>
      <trkpt lat="42.76635" lon="-0.26075">
        <ele>2628.5</ele>
        <time>2018-12-27T11:51:17Z</time>
      </trkpt>
      <trkpt lat="42.76638" lon="-0.26075">
        <ele>2629.4</ele>
        <time>2018-12-27T11:51:18Z</time>
      </trkpt>
      <trkpt lat="42.76642" lon="-0.26076">
        <ele>2630.2</ele>
        <time>2018-12-27T11:51:19Z</time>
      </trkpt>
      <trkpt lat="42.76646" lon="-0.26076">
        <ele>2631</ele>
        <time>2018-12-27T11:51:20Z</time>
      </trkpt>
      <trkpt lat="42.76648" lon="-0.26079">
        <ele>2632.9</ele>
        <time>2018-12-27T11:51:21Z</time>
      </trkpt>
      <trkpt lat="42.76653" lon="-0.26081">
        <ele>2634</ele>
        <time>2018-12-27T11:51:22Z</time>
      </trkpt>
      <trkpt lat="42.76656" lon="-0.2608">
        <ele>2634.2</ele>
        <time>2018-12-27T11:51:23Z</time>
      </trkpt>
      <trkpt lat="42.76659" lon="-0.26081">
        <ele>2635.3</ele>
        <time>2018-12-27T11:51:24Z</time>
      </trkpt>
      <trkpt lat="42.76663" lon="-0.2608">
        <ele>2635.4</ele>
        <time>2018-12-27T11:51:25Z</time>
      </trkpt>
      <trkpt lat="42.76666" lon="-0.26083">
        <ele>2637</ele>
        <time>2018-12-27T11:51:26Z</time>
      </trkpt>
      <trkpt lat="42.7667" lon="-0.26082">
        <ele>2637.7</ele>
        <time>2018-12-27T11:51:27Z</time>
      </trkpt>
      <trkpt lat="42.76677" lon="-0.26082">
        <ele>2638.7</ele>
        <time>2018-12-27T11:51:29Z</time>
      </trkpt>
      <trkpt lat="42.76682" lon="-0.26083">
        <ele>2639.6</ele>
        <time>2018-12-27T11:51:30Z</time>
      </trkpt>
      <trkpt lat="42.76683" lon="-0.26083">
        <ele>2639.9</ele>
        <time>2018-12-27T11:51:31Z</time>
      </trkpt>
      <trkpt lat="42.76686" lon="-0.26084">
        <ele>2641</ele>
        <time>2018-12-27T11:51:31Z</time>
      </trkpt>
      <trkpt lat="42.76689" lon="-0.26084">
        <ele>2641.3</ele>
        <time>2018-12-27T11:51:32Z</time>
      </trkpt>
      <trkpt lat="42.76694" lon="-0.26082">
        <ele>2641.2</ele>
        <time>2018-12-27T11:51:33Z</time>
      </trkpt>
      <trkpt lat="42.76694" lon="-0.26082">
        <ele>2641.2</ele>
        <time>2018-12-27T11:51:34Z</time>
      </trkpt>
      <trkpt lat="42.76702" lon="-0.2608">
        <ele>2641.6</ele>
        <time>2018-12-27T11:51:36Z</time>
      </trkpt>
      <trkpt lat="42.76703" lon="-0.2608">
        <ele>2641.3</ele>
        <time>2018-12-27T11:51:36Z</time>
      </trkpt>
      <trkpt lat="42.76711" lon="-0.26076">
        <ele>2640.9</ele>
        <time>2018-12-27T11:51:38Z</time>
      </trkpt>
      <trkpt lat="42.76714" lon="-0.26076">
        <ele>2641.7</ele>
        <time>2018-12-27T11:51:39Z</time>
      </trkpt>
      <trkpt lat="42.76717" lon="-0.26077">
        <ele>2642.5</ele>
        <time>2018-12-27T11:51:40Z</time>
      </trkpt>
      <trkpt lat="42.76719" lon="-0.26079">
        <ele>2644</ele>
        <time>2018-12-27T11:51:41Z</time>
      </trkpt>
      <trkpt lat="42.76722" lon="-0.26079">
        <ele>2644.7</ele>
        <time>2018-12-27T11:51:41Z</time>
      </trkpt>
      <trkpt lat="42.76724" lon="-0.26082">
        <ele>2646.3</ele>
        <time>2018-12-27T11:51:42Z</time>
      </trkpt>
      <trkpt lat="42.76725" lon="-0.26085">
        <ele>2648.3</ele>
        <time>2018-12-27T11:51:43Z</time>
      </trkpt>
      <trkpt lat="42.76726" lon="-0.2609">
        <ele>2650.8</ele>
        <time>2018-12-27T11:51:44Z</time>
      </trkpt>
      <trkpt lat="42.76727" lon="-0.26094">
        <ele>2653</ele>
        <time>2018-12-27T11:51:45Z</time>
      </trkpt>
      <trkpt lat="42.76731" lon="-0.26093">
        <ele>2653.5</ele>
        <time>2018-12-27T11:51:46Z</time>
      </trkpt>
      <trkpt lat="42.76735" lon="-0.26093">
        <ele>2654</ele>
        <time>2018-12-27T11:51:47Z</time>
      </trkpt>
      <trkpt lat="42.76736" lon="-0.26092">
        <ele>2654</ele>
        <time>2018-12-27T11:51:47Z</time>
      </trkpt>
      <trkpt lat="42.76739" lon="-0.26093">
        <ele>2655.1</ele>
        <time>2018-12-27T11:51:48Z</time>
      </trkpt>
      <trkpt lat="42.76742" lon="-0.26093">
        <ele>2655.5</ele>
        <time>2018-12-27T11:51:49Z</time>
      </trkpt>
      <trkpt lat="42.76747" lon="-0.26089">
        <ele>2654.9</ele>
        <time>2018-12-27T11:51:50Z</time>
      </trkpt>
      <trkpt lat="42.7675" lon="-0.26088">
        <ele>2654.9</ele>
        <time>2018-12-27T11:51:51Z</time>
      </trkpt>
      <trkpt lat="42.76752" lon="-0.26088">
        <ele>2655</ele>
        <time>2018-12-27T11:51:51Z</time>
      </trkpt>
      <trkpt lat="42.76756" lon="-0.26087">
        <ele>2655.4</ele>
        <time>2018-12-27T11:51:52Z</time>
      </trkpt>
      <trkpt lat="42.7676" lon="-0.26085">
        <ele>2655.5</ele>
        <time>2018-12-27T11:51:54Z</time>
      </trkpt>
      <trkpt lat="42.76764" lon="-0.26086">
        <ele>2656.4</ele>
        <time>2018-12-27T11:51:55Z</time>
      </trkpt>
      <trkpt lat="42.76765" lon="-0.26087">
        <ele>2657.5</ele>
        <time>2018-12-27T11:51:55Z</time>
      </trkpt>
      <trkpt lat="42.76765" lon="-0.2609">
        <ele>2659</ele>
        <time>2018-12-27T11:51:56Z</time>
      </trkpt>
      <trkpt lat="42.76765" lon="-0.26095">
        <ele>2661</ele>
        <time>2018-12-27T11:51:57Z</time>
      </trkpt>
      <trkpt lat="42.76767" lon="-0.26095">
        <ele>2661.5</ele>
        <time>2018-12-27T11:51:57Z</time>
      </trkpt>
      <trkpt lat="42.76769" lon="-0.26096">
        <ele>2662.2</ele>
        <time>2018-12-27T11:51:58Z</time>
      </trkpt>
      <trkpt lat="42.76768" lon="-0.26101">
        <ele>2664.2</ele>
        <time>2018-12-27T11:51:59Z</time>
      </trkpt>
      <trkpt lat="42.76769" lon="-0.26101">
        <ele>2664.9</ele>
        <time>2018-12-27T11:51:59Z</time>
      </trkpt>
      <trkpt lat="42.7677" lon="-0.26104">
        <ele>2666.4</ele>
        <time>2018-12-27T11:52:00Z</time>
      </trkpt>
      <trkpt lat="42.76772" lon="-0.26107">
        <ele>2667.8</ele>
        <time>2018-12-27T11:52:00Z</time>
      </trkpt>
      <trkpt lat="42.76772" lon="-0.2611">
        <ele>2669.5</ele>
        <time>2018-12-27T11:52:01Z</time>
      </trkpt>
      <trkpt lat="42.76774" lon="-0.26114">
        <ele>2671.8</ele>
        <time>2018-12-27T11:52:02Z</time>
      </trkpt>
      <trkpt lat="42.76777" lon="-0.26114">
        <ele>2672.3</ele>
        <time>2018-12-27T11:52:03Z</time>
      </trkpt>
      <trkpt lat="42.76778" lon="-0.26118">
        <ele>2674.3</ele>
        <time>2018-12-27T11:52:03Z</time>
      </trkpt>
      <trkpt lat="42.76781" lon="-0.26121">
        <ele>2676.3</ele>
        <time>2018-12-27T11:52:04Z</time>
      </trkpt>
      <trkpt lat="42.76785" lon="-0.26118">
        <ele>2675.6</ele>
        <time>2018-12-27T11:52:06Z</time>
      </trkpt>
      <trkpt lat="42.76788" lon="-0.26115">
        <ele>2674.9</ele>
        <time>2018-12-27T11:52:07Z</time>
      </trkpt>
      <trkpt lat="42.76792" lon="-0.26118">
        <ele>2676.8</ele>
        <time>2018-12-27T11:52:08Z</time>
      </trkpt>
      <trkpt lat="42.76793" lon="-0.26121">
        <ele>2678.6</ele>
        <time>2018-12-27T11:52:09Z</time>
      </trkpt>
      <trkpt lat="42.76794" lon="-0.26125">
        <ele>2680.8</ele>
        <time>2018-12-27T11:52:09Z</time>
      </trkpt>
      <trkpt lat="42.76796" lon="-0.26129">
        <ele>2682.4</ele>
        <time>2018-12-27T11:52:10Z</time>
      </trkpt>
      <trkpt lat="42.76798" lon="-0.26131">
        <ele>2683.5</ele>
        <time>2018-12-27T11:52:11Z</time>
      </trkpt>
      <trkpt lat="42.76797" lon="-0.26137">
        <ele>2685.6</ele>
        <time>2018-12-27T11:52:12Z</time>
      </trkpt>
      <trkpt lat="42.76797" lon="-0.2614">
        <ele>2687.1</ele>
        <time>2018-12-27T11:52:13Z</time>
      </trkpt>
      <trkpt lat="42.76798" lon="-0.26144">
        <ele>2688.6</ele>
        <time>2018-12-27T11:52:14Z</time>
      </trkpt>
      <trkpt lat="42.76801" lon="-0.26145">
        <ele>2689.8</ele>
        <time>2018-12-27T11:52:14Z</time>
      </trkpt>
      <trkpt lat="42.76804" lon="-0.26145">
        <ele>2690.5</ele>
        <time>2018-12-27T11:52:15Z</time>
      </trkpt>
      <trkpt lat="42.76806" lon="-0.26143">
        <ele>2690.2</ele>
        <time>2018-12-27T11:52:16Z</time>
      </trkpt>
      <trkpt lat="42.76809" lon="-0.26145">
        <ele>2691.6</ele>
        <time>2018-12-27T11:52:17Z</time>
      </trkpt>
      <trkpt lat="42.76811" lon="-0.26145">
        <ele>2692.1</ele>
        <time>2018-12-27T11:52:17Z</time>
      </trkpt>
      <trkpt lat="42.76815" lon="-0.26146">
        <ele>2693.3</ele>
        <time>2018-12-27T11:52:18Z</time>
      </trkpt>
      <trkpt lat="42.76816" lon="-0.26149">
        <ele>2694.9</ele>
        <time>2018-12-27T11:52:19Z</time>
      </trkpt>
      <trkpt lat="42.76815" lon="-0.26152">
        <ele>2695.7</ele>
        <time>2018-12-27T11:52:20Z</time>
      </trkpt>
      <trkpt lat="42.76815" lon="-0.26158">
        <ele>2697.6</ele>
        <time>2018-12-27T11:52:21Z</time>
      </trkpt>
      <trkpt lat="42.76814" lon="-0.26162">
        <ele>2699.4</ele>
        <time>2018-12-27T11:52:22Z</time>
      </trkpt>
      <trkpt lat="42.76815" lon="-0.26169">
        <ele>2701.9</ele>
        <time>2018-12-27T11:52:23Z</time>
      </trkpt>
      <trkpt lat="42.76816" lon="-0.26173">
        <ele>2703.6</ele>
        <time>2018-12-27T11:52:24Z</time>
      </trkpt>
      <trkpt lat="42.76817" lon="-0.26177">
        <ele>2705.7</ele>
        <time>2018-12-27T11:52:25Z</time>
      </trkpt>
      <trkpt lat="42.76817" lon="-0.26182">
        <ele>2707.5</ele>
        <time>2018-12-27T11:52:26Z</time>
      </trkpt>
      <trkpt lat="42.76819" lon="-0.26189">
        <ele>2710.5</ele>
        <time>2018-12-27T11:52:27Z</time>
      </trkpt>
      <trkpt lat="42.7682" lon="-0.26195">
        <ele>2713.2</ele>
        <time>2018-12-27T11:52:28Z</time>
      </trkpt>
      <trkpt lat="42.76822" lon="-0.26199">
        <ele>2715.3</ele>
        <time>2018-12-27T11:52:29Z</time>
      </trkpt>
      <trkpt lat="42.76824" lon="-0.26204">
        <ele>2717.4</ele>
        <time>2018-12-27T11:52:30Z</time>
      </trkpt>
      <trkpt lat="42.76825" lon="-0.26207">
        <ele>2719</ele>
        <time>2018-12-27T11:52:31Z</time>
      </trkpt>
      <trkpt lat="42.76828" lon="-0.26207">
        <ele>2719.7</ele>
        <time>2018-12-27T11:52:32Z</time>
      </trkpt>
      <trkpt lat="42.7683" lon="-0.2621">
        <ele>2721.5</ele>
        <time>2018-12-27T11:52:33Z</time>
      </trkpt>
      <trkpt lat="42.76831" lon="-0.26214">
        <ele>2725.2</ele>
        <time>2018-12-27T11:52:34Z</time>
      </trkpt>
      <trkpt lat="42.76832" lon="-0.26217">
        <ele>2727</ele>
        <time>2018-12-27T11:52:34Z</time>
      </trkpt>
      <trkpt lat="42.76832" lon="-0.2622">
        <ele>2729.3</ele>
        <time>2018-12-27T11:52:35Z</time>
      </trkpt>
      <trkpt lat="42.76833" lon="-0.26223">
        <ele>2731.6</ele>
        <time>2018-12-27T11:52:35Z</time>
      </trkpt>
      <trkpt lat="42.76834" lon="-0.26225">
        <ele>2733.1</ele>
        <time>2018-12-27T11:52:36Z</time>
      </trkpt>
      <trkpt lat="42.76834" lon="-0.26229">
        <ele>2735.9</ele>
        <time>2018-12-27T11:52:37Z</time>
      </trkpt>
      <trkpt lat="42.76837" lon="-0.26232">
        <ele>2737.9</ele>
        <time>2018-12-27T11:52:37Z</time>
      </trkpt>
      <trkpt lat="42.76838" lon="-0.26234">
        <ele>2739.6</ele>
        <time>2018-12-27T11:52:38Z</time>
      </trkpt>
      <trkpt lat="42.76841" lon="-0.26235">
        <ele>2740.8</ele>
        <time>2018-12-27T11:52:39Z</time>
      </trkpt>
      <trkpt lat="42.76843" lon="-0.2624">
        <ele>2744.1</ele>
        <time>2018-12-27T11:52:40Z</time>
      </trkpt>
      <trkpt lat="42.76843" lon="-0.26244">
        <ele>2746.4</ele>
        <time>2018-12-27T11:52:41Z</time>
      </trkpt>
      <trkpt lat="42.76844" lon="-0.26247">
        <ele>2748.1</ele>
        <time>2018-12-27T11:52:41Z</time>
      </trkpt>
      <trkpt lat="42.76846" lon="-0.26249">
        <ele>2749.7</ele>
        <time>2018-12-27T11:52:42Z</time>
      </trkpt>
      <trkpt lat="42.76845" lon="-0.26251">
        <ele>2750.9</ele>
        <time>2018-12-27T11:52:42Z</time>
      </trkpt>
      <trkpt lat="42.76846" lon="-0.26254">
        <ele>2752.4</ele>
        <time>2018-12-27T11:52:43Z</time>
      </trkpt>
      <trkpt lat="42.76846" lon="-0.26257">
        <ele>2754.6</ele>
        <time>2018-12-27T11:52:44Z</time>
      </trkpt>
      <trkpt lat="42.76847" lon="-0.2626">
        <ele>2756.4</ele>
        <time>2018-12-27T11:52:44Z</time>
      </trkpt>
      <trkpt lat="42.76847" lon="-0.26264">
        <ele>2758.7</ele>
        <time>2018-12-27T11:52:45Z</time>
      </trkpt>
      <trkpt lat="42.76849" lon="-0.26268">
        <ele>2761.2</ele>
        <time>2018-12-27T11:52:46Z</time>
      </trkpt>
      <trkpt lat="42.76848" lon="-0.26272">
        <ele>2763.6</ele>
        <time>2018-12-27T11:52:47Z</time>
      </trkpt>
      <trkpt lat="42.76848" lon="-0.26278">
        <ele>2766.8</ele>
        <time>2018-12-27T11:52:48Z</time>
      </trkpt>
      <trkpt lat="42.7685" lon="-0.26279">
        <ele>2767.1</ele>
        <time>2018-12-27T11:52:49Z</time>
      </trkpt>
      <trkpt lat="42.7685" lon="-0.26282">
        <ele>2769</ele>
        <time>2018-12-27T11:52:49Z</time>
      </trkpt>
      <trkpt lat="42.7685" lon="-0.26287">
        <ele>2772.1</ele>
        <time>2018-12-27T11:52:50Z</time>
      </trkpt>
      <trkpt lat="42.76854" lon="-0.2629">
        <ele>2773</ele>
        <time>2018-12-27T11:52:51Z</time>
      </trkpt>
      <trkpt lat="42.76853" lon="-0.26293">
        <ele>2775.6</ele>
        <time>2018-12-27T11:52:52Z</time>
      </trkpt>
      <trkpt lat="42.76854" lon="-0.26296">
        <ele>2778.4</ele>
        <time>2018-12-27T11:52:52Z</time>
      </trkpt>
      <trkpt lat="42.76855" lon="-0.26298">
        <ele>2780.5</ele>
        <time>2018-12-27T11:52:53Z</time>
      </trkpt>
      <trkpt lat="42.76856" lon="-0.26301">
        <ele>2782.7</ele>
        <time>2018-12-27T11:52:53Z</time>
      </trkpt>
      <trkpt lat="42.76856" lon="-0.26302">
        <ele>2784.6</ele>
        <time>2018-12-27T11:52:54Z</time>
      </trkpt>
      <trkpt lat="42.76855" lon="-0.26305">
        <ele>2787.4</ele>
        <time>2018-12-27T11:52:54Z</time>
      </trkpt>
      <trkpt lat="42.76855" lon="-0.26308">
        <ele>2790.2</ele>
        <time>2018-12-27T11:52:55Z</time>
      </trkpt>
      <trkpt lat="42.76856" lon="-0.26311">
        <ele>2793.6</ele>
        <time>2018-12-27T11:52:56Z</time>
      </trkpt>
      <trkpt lat="42.76857" lon="-0.26313">
        <ele>2795.3</ele>
        <time>2018-12-27T11:52:56Z</time>
      </trkpt>
      <trkpt lat="42.76857" lon="-0.26317">
        <ele>2799.7</ele>
        <time>2018-12-27T11:52:57Z</time>
      </trkpt>
      <trkpt lat="42.76856" lon="-0.2632">
        <ele>2802.8</ele>
        <time>2018-12-27T11:52:58Z</time>
      </trkpt>
      <trkpt lat="42.76856" lon="-0.26324">
        <ele>2806.7</ele>
        <time>2018-12-27T11:52:58Z</time>
      </trkpt>
      <trkpt lat="42.76857" lon="-0.26327">
        <ele>2809.3</ele>
        <time>2018-12-27T11:52:59Z</time>
      </trkpt>
      <trkpt lat="42.76855" lon="-0.26331">
        <ele>2813.6</ele>
        <time>2018-12-27T11:53:00Z</time>
      </trkpt>
      <trkpt lat="42.76854" lon="-0.26335">
        <ele>2818.4</ele>
        <time>2018-12-27T11:53:01Z</time>
      </trkpt>
      <trkpt lat="42.76853" lon="-0.26338">
        <ele>2821.5</ele>
        <time>2018-12-27T11:53:01Z</time>
      </trkpt>
      <trkpt lat="42.76851" lon="-0.2634">
        <ele>2823.3</ele>
        <time>2018-12-27T11:53:02Z</time>
      </trkpt>
      <trkpt lat="42.76849" lon="-0.26342">
        <ele>2825.3</ele>
        <time>2018-12-27T11:53:03Z</time>
      </trkpt>
      <trkpt lat="42.76847" lon="-0.26345">
        <ele>2828.4</ele>
        <time>2018-12-27T11:53:03Z</time>
      </trkpt>
      <trkpt lat="42.76846" lon="-0.26348">
        <ele>2831.2</ele>
        <time>2018-12-27T11:53:04Z</time>
      </trkpt>
      <trkpt lat="42.76848" lon="-0.26349">
        <ele>2832.6</ele>
        <time>2018-12-27T11:53:05Z</time>
      </trkpt>
      <trkpt lat="42.76847" lon="-0.26351">
        <ele>2834.1</ele>
        <time>2018-12-27T11:53:05Z</time>
      </trkpt>
      <trkpt lat="42.76847" lon="-0.26353">
        <ele>2836.6</ele>
        <time>2018-12-27T11:53:05Z</time>
      </trkpt>
      <trkpt lat="42.76847" lon="-0.26355">
        <ele>2838.5</ele>
        <time>2018-12-27T11:53:06Z</time>
      </trkpt>
      <trkpt lat="42.76848" lon="-0.26357">
        <ele>2840.2</ele>
        <time>2018-12-27T11:53:06Z</time>
      </trkpt>
      <trkpt lat="42.7685" lon="-0.26357">
        <ele>2840.7</ele>
        <time>2018-12-27T11:53:07Z</time>
      </trkpt>
      <trkpt lat="42.7685" lon="-0.2636">
        <ele>2843.1</ele>
        <time>2018-12-27T11:53:07Z</time>
      </trkpt>
      <trkpt lat="42.76849" lon="-0.26361">
        <ele>2844.7</ele>
        <time>2018-12-27T11:53:08Z</time>
      </trkpt>
      <trkpt lat="42.76851" lon="-0.26363">
        <ele>2846.8</ele>
        <time>2018-12-27T11:53:08Z</time>
      </trkpt>
      <trkpt lat="42.76852" lon="-0.26365">
        <ele>2849.2</ele>
        <time>2018-12-27T11:53:09Z</time>
      </trkpt>
      <trkpt lat="42.7685" lon="-0.26369">
        <ele>2852.8</ele>
        <time>2018-12-27T11:53:10Z</time>
      </trkpt>
      <trkpt lat="42.7685" lon="-0.26371">
        <ele>2854.8</ele>
        <time>2018-12-27T11:53:10Z</time>
      </trkpt>
      <trkpt lat="42.76851" lon="-0.26375">
        <ele>2858.8</ele>
        <time>2018-12-27T11:53:11Z</time>
      </trkpt>
      <trkpt lat="42.76853" lon="-0.26377">
        <ele>2859.5</ele>
        <time>2018-12-27T11:53:11Z</time>
      </trkpt>
      <trkpt lat="42.76854" lon="-0.26379">
        <ele>2860.1</ele>
        <time>2018-12-27T11:53:12Z</time>
      </trkpt>
      <trkpt lat="42.76855" lon="-0.26381">
        <ele>2860.5</ele>
        <time>2018-12-27T11:53:12Z</time>
      </trkpt>
      <trkpt lat="42.76852" lon="-0.26384">
        <ele>2860.6</ele>
        <time>2018-12-27T11:53:13Z</time>
      </trkpt>
      <trkpt lat="42.76852" lon="-0.26386">
        <ele>2861.1</ele>
        <time>2018-12-27T11:53:14Z</time>
      </trkpt>
      <trkpt lat="42.76853" lon="-0.26388">
        <ele>2861.7</ele>
        <time>2018-12-27T11:53:14Z</time>
      </trkpt>
      <trkpt lat="42.76852" lon="-0.2639">
        <ele>2861.7</ele>
        <time>2018-12-27T11:53:15Z</time>
      </trkpt>
      <trkpt lat="42.76851" lon="-0.26392">
        <ele>2861.9</ele>
        <time>2018-12-27T11:53:15Z</time>
      </trkpt>
      <trkpt lat="42.76852" lon="-0.26394">
        <ele>2862.6</ele>
        <time>2018-12-27T11:53:16Z</time>
      </trkpt>
      <trkpt lat="42.76852" lon="-0.26396">
        <ele>2862.9</ele>
        <time>2018-12-27T11:53:16Z</time>
      </trkpt>
      <trkpt lat="42.76853" lon="-0.264">
        <ele>2863.6</ele>
        <time>2018-12-27T11:53:17Z</time>
      </trkpt>
      <trkpt lat="42.76852" lon="-0.26401">
        <ele>2863.9</ele>
        <time>2018-12-27T11:53:18Z</time>
      </trkpt>
      <trkpt lat="42.76851" lon="-0.26404">
        <ele>2864.3</ele>
        <time>2018-12-27T11:53:18Z</time>
      </trkpt>
      <trkpt lat="42.76852" lon="-0.26407">
        <ele>2865</ele>
        <time>2018-12-27T11:53:19Z</time>
      </trkpt>
      <trkpt lat="42.76854" lon="-0.26409">
        <ele>2865.4</ele>
        <time>2018-12-27T11:53:19Z</time>
      </trkpt>
      <trkpt lat="42.76855" lon="-0.26412">
        <ele>2866.1</ele>
        <time>2018-12-27T11:53:20Z</time>
      </trkpt>
      <trkpt lat="42.76853" lon="-0.26415">
        <ele>2866.5</ele>
        <time>2018-12-27T11:53:21Z</time>
      </trkpt>
      <trkpt lat="42.76854" lon="-0.26418">
        <ele>2867.1</ele>
        <time>2018-12-27T11:53:21Z</time>
      </trkpt>
      <trkpt lat="42.76856" lon="-0.2642">
        <ele>2867.5</ele>
        <time>2018-12-27T11:53:22Z</time>
      </trkpt>
      <trkpt lat="42.76857" lon="-0.26422">
        <ele>2867.8</ele>
        <time>2018-12-27T11:53:22Z</time>
      </trkpt>
      <trkpt lat="42.76859" lon="-0.26424">
        <ele>2868.1</ele>
        <time>2018-12-27T11:53:23Z</time>
      </trkpt>
      <trkpt lat="42.7686" lon="-0.26428">
        <ele>2868.7</ele>
        <time>2018-12-27T11:53:24Z</time>
      </trkpt>
      <trkpt lat="42.76859" lon="-0.26431">
        <ele>2869.1</ele>
        <time>2018-12-27T11:53:25Z</time>
      </trkpt>
      <trkpt lat="42.76858" lon="-0.26433">
        <ele>2869.5</ele>
        <time>2018-12-27T11:53:25Z</time>
      </trkpt>
      <trkpt lat="42.76859" lon="-0.26436">
        <ele>2870.1</ele>
        <time>2018-12-27T11:53:26Z</time>
      </trkpt>
      <trkpt lat="42.7686" lon="-0.26438">
        <ele>2870.4</ele>
        <time>2018-12-27T11:53:26Z</time>
      </trkpt>
      <trkpt lat="42.76861" lon="-0.26442">
        <ele>2870.8</ele>
        <time>2018-12-27T11:53:27Z</time>
      </trkpt>
      <trkpt lat="42.76862" lon="-0.26444">
        <ele>2871.1</ele>
        <time>2018-12-27T11:53:27Z</time>
      </trkpt>
      <trkpt lat="42.76862" lon="-0.26448">
        <ele>2871.8</ele>
        <time>2018-12-27T11:53:28Z</time>
      </trkpt>
      <trkpt lat="42.76864" lon="-0.2645">
        <ele>2872</ele>
        <time>2018-12-27T11:53:29Z</time>
      </trkpt>
      <trkpt lat="42.76865" lon="-0.26452">
        <ele>2872.2</ele>
        <time>2018-12-27T11:53:29Z</time>
      </trkpt>
      <trkpt lat="42.76865" lon="-0.26455">
        <ele>2872.5</ele>
        <time>2018-12-27T11:53:30Z</time>
      </trkpt>
      <trkpt lat="42.76866" lon="-0.26457">
        <ele>2872.8</ele>
        <time>2018-12-27T11:53:30Z</time>
      </trkpt>
      <trkpt lat="42.76867" lon="-0.26458">
        <ele>2872.9</ele>
        <time>2018-12-27T11:53:31Z</time>
      </trkpt>
      <trkpt lat="42.76868" lon="-0.2646">
        <ele>2873.3</ele>
        <time>2018-12-27T11:53:31Z</time>
      </trkpt>
      <trkpt lat="42.76868" lon="-0.26462">
        <ele>2874</ele>
        <time>2018-12-27T11:53:32Z</time>
      </trkpt>
      <trkpt lat="42.76869" lon="-0.26466">
        <ele>2875.1</ele>
        <time>2018-12-27T11:53:33Z</time>
      </trkpt>
      <trkpt lat="42.7687" lon="-0.26468">
        <ele>2875.8</ele>
        <time>2018-12-27T11:53:33Z</time>
      </trkpt>
      <trkpt lat="42.76871" lon="-0.26471">
        <ele>2876.3</ele>
        <time>2018-12-27T11:53:34Z</time>
      </trkpt>
      <trkpt lat="42.7687" lon="-0.26473">
        <ele>2877.2</ele>
        <time>2018-12-27T11:53:34Z</time>
      </trkpt>
      <trkpt lat="42.7687" lon="-0.26475">
        <ele>2877.9</ele>
        <time>2018-12-27T11:53:35Z</time>
      </trkpt>
      <trkpt lat="42.76869" lon="-0.26478">
        <ele>2878.7</ele>
        <time>2018-12-27T11:53:35Z</time>
      </trkpt>
      <trkpt lat="42.7687" lon="-0.26479">
        <ele>2879.1</ele>
        <time>2018-12-27T11:53:36Z</time>
      </trkpt>
      <trkpt lat="42.76869" lon="-0.26481">
        <ele>2879.9</ele>
        <time>2018-12-27T11:53:36Z</time>
      </trkpt>
      <trkpt lat="42.7687" lon="-0.26485">
        <ele>2881</ele>
        <time>2018-12-27T11:53:37Z</time>
      </trkpt>
      <trkpt lat="42.76872" lon="-0.26487">
        <ele>2881.5</ele>
        <time>2018-12-27T11:53:37Z</time>
      </trkpt>
      <trkpt lat="42.76873" lon="-0.2649">
        <ele>2882.3</ele>
        <time>2018-12-27T11:53:38Z</time>
      </trkpt>
      <trkpt lat="42.76875" lon="-0.26493">
        <ele>2883.3</ele>
        <time>2018-12-27T11:53:39Z</time>
      </trkpt>
      <trkpt lat="42.76876" lon="-0.26496">
        <ele>2884</ele>
        <time>2018-12-27T11:53:39Z</time>
      </trkpt>
      <trkpt lat="42.76878" lon="-0.26498">
        <ele>2884.3</ele>
        <time>2018-12-27T11:53:40Z</time>
      </trkpt>
      <trkpt lat="42.76881" lon="-0.26501">
        <ele>2884.5</ele>
        <time>2018-12-27T11:53:41Z</time>
      </trkpt>
      <trkpt lat="42.76884" lon="-0.26505">
        <ele>2885.1</ele>
        <time>2018-12-27T11:53:42Z</time>
      </trkpt>
      <trkpt lat="42.76887" lon="-0.26508">
        <ele>2885.6</ele>
        <time>2018-12-27T11:53:43Z</time>
      </trkpt>
      <trkpt lat="42.7689" lon="-0.26511">
        <ele>2885.6</ele>
        <time>2018-12-27T11:53:44Z</time>
      </trkpt>
      <trkpt lat="42.7689" lon="-0.26515">
        <ele>2886.7</ele>
        <time>2018-12-27T11:53:45Z</time>
      </trkpt>
      <trkpt lat="42.7689" lon="-0.26519">
        <ele>2888</ele>
        <time>2018-12-27T11:53:46Z</time>
      </trkpt>
      <trkpt lat="42.76892" lon="-0.26522">
        <ele>2888.1</ele>
        <time>2018-12-27T11:53:47Z</time>
      </trkpt>
      <trkpt lat="42.76897" lon="-0.26524">
        <ele>2887.6</ele>
        <time>2018-12-27T11:53:48Z</time>
      </trkpt>
      <trkpt lat="42.76896" lon="-0.26529">
        <ele>2888.9</ele>
        <time>2018-12-27T11:53:49Z</time>
      </trkpt>
      <trkpt lat="42.76898" lon="-0.26531">
        <ele>2889.2</ele>
        <time>2018-12-27T11:53:50Z</time>
      </trkpt>
      <trkpt lat="42.76902" lon="-0.26537">
        <ele>2889.5</ele>
        <time>2018-12-27T11:53:51Z</time>
      </trkpt>
      <trkpt lat="42.76905" lon="-0.26542">
        <ele>2890</ele>
        <time>2018-12-27T11:53:52Z</time>
      </trkpt>
      <trkpt lat="42.76908" lon="-0.26551">
        <ele>2890.3</ele>
        <time>2018-12-27T11:53:54Z</time>
      </trkpt>
      <trkpt lat="42.76909" lon="-0.26552">
        <ele>2890.4</ele>
        <time>2018-12-27T11:53:55Z</time>
      </trkpt>
      <trkpt lat="42.76912" lon="-0.2656">
        <ele>2891</ele>
        <time>2018-12-27T11:53:56Z</time>
      </trkpt>
      <trkpt lat="42.76918" lon="-0.26568">
        <ele>2890.5</ele>
        <time>2018-12-27T11:53:59Z</time>
      </trkpt>
      <trkpt lat="42.7692" lon="-0.26572">
        <ele>2890.4</ele>
        <time>2018-12-27T11:54:00Z</time>
      </trkpt>
      <trkpt lat="42.76921" lon="-0.26576">
        <ele>2890.9</ele>
        <time>2018-12-27T11:54:00Z</time>
      </trkpt>
      <trkpt lat="42.76922" lon="-0.26583">
        <ele>2892</ele>
        <time>2018-12-27T11:54:02Z</time>
      </trkpt>
      <trkpt lat="42.76925" lon="-0.26587">
        <ele>2891.9</ele>
        <time>2018-12-27T11:54:03Z</time>
      </trkpt>
      <trkpt lat="42.76925" lon="-0.26588">
        <ele>2891.9</ele>
        <time>2018-12-27T11:54:03Z</time>
      </trkpt>
      <trkpt lat="42.76927" lon="-0.26592">
        <ele>2892.2</ele>
        <time>2018-12-27T11:54:04Z</time>
      </trkpt>
      <trkpt lat="42.76927" lon="-0.26594">
        <ele>2892.4</ele>
        <time>2018-12-27T11:54:04Z</time>
      </trkpt>
      <trkpt lat="42.76929" lon="-0.266">
        <ele>2892.9</ele>
        <time>2018-12-27T11:54:06Z</time>
      </trkpt>
      <trkpt lat="42.76932" lon="-0.26603">
        <ele>2892.6</ele>
        <time>2018-12-27T11:54:07Z</time>
      </trkpt>
      <trkpt lat="42.76933" lon="-0.26606">
        <ele>2892.6</ele>
        <time>2018-12-27T11:54:07Z</time>
      </trkpt>
      <trkpt lat="42.76936" lon="-0.2661">
        <ele>2892.5</ele>
        <time>2018-12-27T11:54:08Z</time>
      </trkpt>
      <trkpt lat="42.76936" lon="-0.26613">
        <ele>2892.9</ele>
        <time>2018-12-27T11:54:09Z</time>
      </trkpt>
      <trkpt lat="42.76938" lon="-0.26616">
        <ele>2893</ele>
        <time>2018-12-27T11:54:10Z</time>
      </trkpt>
      <trkpt lat="42.7694" lon="-0.2662">
        <ele>2893</ele>
        <time>2018-12-27T11:54:11Z</time>
      </trkpt>
      <trkpt lat="42.76942" lon="-0.26625">
        <ele>2893.3</ele>
        <time>2018-12-27T11:54:12Z</time>
      </trkpt>
      <trkpt lat="42.76945" lon="-0.2663">
        <ele>2892.5</ele>
        <time>2018-12-27T11:54:13Z</time>
      </trkpt>
      <trkpt lat="42.76948" lon="-0.26634">
        <ele>2891.9</ele>
        <time>2018-12-27T11:54:14Z</time>
      </trkpt>
      <trkpt lat="42.76948" lon="-0.26636">
        <ele>2892</ele>
        <time>2018-12-27T11:54:15Z</time>
      </trkpt>
      <trkpt lat="42.7695" lon="-0.26639">
        <ele>2891.3</ele>
        <time>2018-12-27T11:54:15Z</time>
      </trkpt>
      <trkpt lat="42.76951" lon="-0.26642">
        <ele>2891.2</ele>
        <time>2018-12-27T11:54:16Z</time>
      </trkpt>
      <trkpt lat="42.76952" lon="-0.26644">
        <ele>2891.1</ele>
        <time>2018-12-27T11:54:16Z</time>
      </trkpt>
      <trkpt lat="42.76952" lon="-0.26645">
        <ele>2891.1</ele>
        <time>2018-12-27T11:54:17Z</time>
      </trkpt>
      <trkpt lat="42.76954" lon="-0.2665">
        <ele>2890.4</ele>
        <time>2018-12-27T11:54:18Z</time>
      </trkpt>
      <trkpt lat="42.76955" lon="-0.26651">
        <ele>2890.1</ele>
        <time>2018-12-27T11:54:18Z</time>
      </trkpt>
      <trkpt lat="42.76959" lon="-0.26654">
        <ele>2889.2</ele>
        <time>2018-12-27T11:54:19Z</time>
      </trkpt>
      <trkpt lat="42.7696" lon="-0.26654">
        <ele>2889.2</ele>
        <time>2018-12-27T11:54:19Z</time>
      </trkpt>
      <trkpt lat="42.76964" lon="-0.26656">
        <ele>2889.9</ele>
        <time>2018-12-27T11:54:21Z</time>
      </trkpt>
      <trkpt lat="42.76968" lon="-0.26656">
        <ele>2890.3</ele>
        <time>2018-12-27T11:54:22Z</time>
      </trkpt>
      <trkpt lat="42.76971" lon="-0.26657">
        <ele>2890.8</ele>
        <time>2018-12-27T11:54:23Z</time>
      </trkpt>
      <trkpt lat="42.76973" lon="-0.26658">
        <ele>2891.1</ele>
        <time>2018-12-27T11:54:23Z</time>
      </trkpt>
      <trkpt lat="42.76976" lon="-0.2666">
        <ele>2891.4</ele>
        <time>2018-12-27T11:54:24Z</time>
      </trkpt>
      <trkpt lat="42.76977" lon="-0.2666">
        <ele>2891.5</ele>
        <time>2018-12-27T11:54:24Z</time>
      </trkpt>
      <trkpt lat="42.76978" lon="-0.26656">
        <ele>2891.6</ele>
        <time>2018-12-27T11:54:25Z</time>
      </trkpt>
      <trkpt lat="42.7698" lon="-0.26657">
        <ele>2891.9</ele>
        <time>2018-12-27T11:54:26Z</time>
      </trkpt>
      <trkpt lat="42.76983" lon="-0.26659">
        <ele>2892.2</ele>
        <time>2018-12-27T11:54:27Z</time>
      </trkpt>
      <trkpt lat="42.76989" lon="-0.2666">
        <ele>2893.1</ele>
        <time>2018-12-27T11:54:28Z</time>
      </trkpt>
      <trkpt lat="42.7699" lon="-0.26661">
        <ele>2893.2</ele>
        <time>2018-12-27T11:54:28Z</time>
      </trkpt>
      <trkpt lat="42.76991" lon="-0.26663">
        <ele>2893.4</ele>
        <time>2018-12-27T11:54:29Z</time>
      </trkpt>
      <trkpt lat="42.76991" lon="-0.26663">
        <ele>2893.4</ele>
        <time>2018-12-27T11:54:29Z</time>
      </trkpt>
      <trkpt lat="42.76991" lon="-0.26668">
        <ele>2893.4</ele>
        <time>2018-12-27T11:54:30Z</time>
      </trkpt>
      <trkpt lat="42.76992" lon="-0.26672">
        <ele>2893.7</ele>
        <time>2018-12-27T11:54:31Z</time>
      </trkpt>
      <trkpt lat="42.76995" lon="-0.26676">
        <ele>2894.1</ele>
        <time>2018-12-27T11:54:32Z</time>
      </trkpt>
      <trkpt lat="42.76999" lon="-0.26679">
        <ele>2894.6</ele>
        <time>2018-12-27T11:54:33Z</time>
      </trkpt>
      <trkpt lat="42.77001" lon="-0.26683">
        <ele>2894.8</ele>
        <time>2018-12-27T11:54:34Z</time>
      </trkpt>
      <trkpt lat="42.77004" lon="-0.26684">
        <ele>2895.3</ele>
        <time>2018-12-27T11:54:35Z</time>
      </trkpt>
      <trkpt lat="42.77005" lon="-0.2669">
        <ele>2895.4</ele>
        <time>2018-12-27T11:54:36Z</time>
      </trkpt>
      <trkpt lat="42.77008" lon="-0.26694">
        <ele>2895.8</ele>
        <time>2018-12-27T11:54:37Z</time>
      </trkpt>
      <trkpt lat="42.7701" lon="-0.26697">
        <ele>2896</ele>
        <time>2018-12-27T11:54:38Z</time>
      </trkpt>
      <trkpt lat="42.77011" lon="-0.26705">
        <ele>2896.2</ele>
        <time>2018-12-27T11:54:40Z</time>
      </trkpt>
      <trkpt lat="42.77014" lon="-0.26707">
        <ele>2896.4</ele>
        <time>2018-12-27T11:54:40Z</time>
      </trkpt>
      <trkpt lat="42.77017" lon="-0.26711">
        <ele>2897.1</ele>
        <time>2018-12-27T11:54:41Z</time>
      </trkpt>
      <trkpt lat="42.77019" lon="-0.26713">
        <ele>2897.7</ele>
        <time>2018-12-27T11:54:42Z</time>
      </trkpt>
      <trkpt lat="42.77021" lon="-0.26718">
        <ele>2898.7</ele>
        <time>2018-12-27T11:54:43Z</time>
      </trkpt>
      <trkpt lat="42.77024" lon="-0.2672">
        <ele>2899.6</ele>
        <time>2018-12-27T11:54:44Z</time>
      </trkpt>
      <trkpt lat="42.77028" lon="-0.2672">
        <ele>2899.8</ele>
        <time>2018-12-27T11:54:45Z</time>
      </trkpt>
      <trkpt lat="42.77031" lon="-0.26721">
        <ele>2900.4</ele>
        <time>2018-12-27T11:54:46Z</time>
      </trkpt>
      <trkpt lat="42.77034" lon="-0.26725">
        <ele>2901.3</ele>
        <time>2018-12-27T11:54:47Z</time>
      </trkpt>
      <trkpt lat="42.77035" lon="-0.26728">
        <ele>2902</ele>
        <time>2018-12-27T11:54:48Z</time>
      </trkpt>
      <trkpt lat="42.77034" lon="-0.26735">
        <ele>2903.3</ele>
        <time>2018-12-27T11:54:49Z</time>
      </trkpt>
      <trkpt lat="42.77034" lon="-0.26736">
        <ele>2903.5</ele>
        <time>2018-12-27T11:54:49Z</time>
      </trkpt>
      <trkpt lat="42.77035" lon="-0.2674">
        <ele>2904.1</ele>
        <time>2018-12-27T11:54:50Z</time>
      </trkpt>
      <trkpt lat="42.77036" lon="-0.26744">
        <ele>2905</ele>
        <time>2018-12-27T11:54:51Z</time>
      </trkpt>
      <trkpt lat="42.77038" lon="-0.26748">
        <ele>2905.8</ele>
        <time>2018-12-27T11:54:52Z</time>
      </trkpt>
      <trkpt lat="42.7704" lon="-0.26751">
        <ele>2906.6</ele>
        <time>2018-12-27T11:54:53Z</time>
      </trkpt>
      <trkpt lat="42.77041" lon="-0.26753">
        <ele>2907</ele>
        <time>2018-12-27T11:54:53Z</time>
      </trkpt>
      <trkpt lat="42.77043" lon="-0.26756">
        <ele>2907.7</ele>
        <time>2018-12-27T11:54:54Z</time>
      </trkpt>
      <trkpt lat="42.77044" lon="-0.26758">
        <ele>2908.2</ele>
        <time>2018-12-27T11:54:55Z</time>
      </trkpt>
      <trkpt lat="42.77046" lon="-0.26759">
        <ele>2908.6</ele>
        <time>2018-12-27T11:54:55Z</time>
      </trkpt>
      <trkpt lat="42.77047" lon="-0.26762">
        <ele>2909.1</ele>
        <time>2018-12-27T11:54:56Z</time>
      </trkpt>
      <trkpt lat="42.77048" lon="-0.26765">
        <ele>2909.6</ele>
        <time>2018-12-27T11:54:56Z</time>
      </trkpt>
      <trkpt lat="42.7705" lon="-0.26767">
        <ele>2910.2</ele>
        <time>2018-12-27T11:54:57Z</time>
      </trkpt>
      <trkpt lat="42.77051" lon="-0.26772">
        <ele>2910.9</ele>
        <time>2018-12-27T11:54:58Z</time>
      </trkpt>
      <trkpt lat="42.77052" lon="-0.26776">
        <ele>2911.4</ele>
        <time>2018-12-27T11:54:59Z</time>
      </trkpt>
      <trkpt lat="42.77054" lon="-0.2678">
        <ele>2912</ele>
        <time>2018-12-27T11:55:00Z</time>
      </trkpt>
      <trkpt lat="42.77055" lon="-0.26786">
        <ele>2912.6</ele>
        <time>2018-12-27T11:55:01Z</time>
      </trkpt>
      <trkpt lat="42.77055" lon="-0.2679">
        <ele>2913.1</ele>
        <time>2018-12-27T11:55:02Z</time>
      </trkpt>
      <trkpt lat="42.77058" lon="-0.26796">
        <ele>2914.3</ele>
        <time>2018-12-27T11:55:03Z</time>
      </trkpt>
      <trkpt lat="42.77059" lon="-0.26802">
        <ele>2915.6</ele>
        <time>2018-12-27T11:55:04Z</time>
      </trkpt>
      <trkpt lat="42.77061" lon="-0.26806">
        <ele>2916.1</ele>
        <time>2018-12-27T11:55:05Z</time>
      </trkpt>
      <trkpt lat="42.77062" lon="-0.26812">
        <ele>2917.2</ele>
        <time>2018-12-27T11:55:06Z</time>
      </trkpt>
      <trkpt lat="42.77063" lon="-0.26814">
        <ele>2917.4</ele>
        <time>2018-12-27T11:55:07Z</time>
      </trkpt>
      <trkpt lat="42.77065" lon="-0.26813">
        <ele>2916.6</ele>
        <time>2018-12-27T11:55:07Z</time>
      </trkpt>
      <trkpt lat="42.77068" lon="-0.26809">
        <ele>2915.5</ele>
        <time>2018-12-27T11:55:08Z</time>
      </trkpt>
      <trkpt lat="42.77069" lon="-0.26807">
        <ele>2915</ele>
        <time>2018-12-27T11:55:09Z</time>
      </trkpt>
      <trkpt lat="42.7707" lon="-0.26802">
        <ele>2914</ele>
        <time>2018-12-27T11:55:10Z</time>
      </trkpt>
      <trkpt lat="42.77071" lon="-0.26799">
        <ele>2913.6</ele>
        <time>2018-12-27T11:55:11Z</time>
      </trkpt>
      <trkpt lat="42.77072" lon="-0.26798">
        <ele>2913.2</ele>
        <time>2018-12-27T11:55:11Z</time>
      </trkpt>
      <trkpt lat="42.77074" lon="-0.26796">
        <ele>2912.9</ele>
        <time>2018-12-27T11:55:12Z</time>
      </trkpt>
      <trkpt lat="42.77074" lon="-0.26795">
        <ele>2912.7</ele>
        <time>2018-12-27T11:55:12Z</time>
      </trkpt>
      <trkpt lat="42.77076" lon="-0.26786">
        <ele>2912.3</ele>
        <time>2018-12-27T11:55:13Z</time>
      </trkpt>
      <trkpt lat="42.77076" lon="-0.26782">
        <ele>2912.2</ele>
        <time>2018-12-27T11:55:14Z</time>
      </trkpt>
      <trkpt lat="42.77077" lon="-0.26778">
        <ele>2912</ele>
        <time>2018-12-27T11:55:15Z</time>
      </trkpt>
      <trkpt lat="42.77078" lon="-0.26773">
        <ele>2911.9</ele>
        <time>2018-12-27T11:55:16Z</time>
      </trkpt>
      <trkpt lat="42.77079" lon="-0.2677">
        <ele>2911.9</ele>
        <time>2018-12-27T11:55:17Z</time>
      </trkpt>
      <trkpt lat="42.7708" lon="-0.26768">
        <ele>2911.8</ele>
        <time>2018-12-27T11:55:17Z</time>
      </trkpt>
      <trkpt lat="42.77081" lon="-0.26767">
        <ele>2911.9</ele>
        <time>2018-12-27T11:55:18Z</time>
      </trkpt>
      <trkpt lat="42.77083" lon="-0.26765">
        <ele>2912</ele>
        <time>2018-12-27T11:55:18Z</time>
      </trkpt>
      <trkpt lat="42.77084" lon="-0.26761">
        <ele>2912</ele>
        <time>2018-12-27T11:55:19Z</time>
      </trkpt>
      <trkpt lat="42.77083" lon="-0.26756">
        <ele>2912</ele>
        <time>2018-12-27T11:55:20Z</time>
      </trkpt>
      <trkpt lat="42.77084" lon="-0.26752">
        <ele>2912.1</ele>
        <time>2018-12-27T11:55:21Z</time>
      </trkpt>
      <trkpt lat="42.77085" lon="-0.26748">
        <ele>2912.2</ele>
        <time>2018-12-27T11:55:22Z</time>
      </trkpt>
      <trkpt lat="42.77085" lon="-0.26745">
        <ele>2912.4</ele>
        <time>2018-12-27T11:55:22Z</time>
      </trkpt>
      <trkpt lat="42.77087" lon="-0.26741">
        <ele>2912.7</ele>
        <time>2018-12-27T11:55:23Z</time>
      </trkpt>
      <trkpt lat="42.77088" lon="-0.26738">
        <ele>2912.9</ele>
        <time>2018-12-27T11:55:24Z</time>
      </trkpt>
      <trkpt lat="42.77089" lon="-0.26734">
        <ele>2913.1</ele>
        <time>2018-12-27T11:55:25Z</time>
      </trkpt>
      <trkpt lat="42.77091" lon="-0.2673">
        <ele>2913.6</ele>
        <time>2018-12-27T11:55:26Z</time>
      </trkpt>
      <trkpt lat="42.77093" lon="-0.26728">
        <ele>2914.2</ele>
        <time>2018-12-27T11:55:26Z</time>
      </trkpt>
      <trkpt lat="42.77094" lon="-0.26725">
        <ele>2914.6</ele>
        <time>2018-12-27T11:55:27Z</time>
      </trkpt>
      <trkpt lat="42.77094" lon="-0.26722">
        <ele>2914.8</ele>
        <time>2018-12-27T11:55:28Z</time>
      </trkpt>
      <trkpt lat="42.77093" lon="-0.26718">
        <ele>2914.7</ele>
        <time>2018-12-27T11:55:28Z</time>
      </trkpt>
      <trkpt lat="42.77093" lon="-0.26714">
        <ele>2914.8</ele>
        <time>2018-12-27T11:55:29Z</time>
      </trkpt>
      <trkpt lat="42.77094" lon="-0.26707">
        <ele>2915.4</ele>
        <time>2018-12-27T11:55:30Z</time>
      </trkpt>
      <trkpt lat="42.77094" lon="-0.267">
        <ele>2917</ele>
        <time>2018-12-27T11:55:32Z</time>
      </trkpt>
      <trkpt lat="42.77093" lon="-0.26694">
        <ele>2918.1</ele>
        <time>2018-12-27T11:55:33Z</time>
      </trkpt>
      <trkpt lat="42.77092" lon="-0.26692">
        <ele>2918.3</ele>
        <time>2018-12-27T11:55:33Z</time>
      </trkpt>
      <trkpt lat="42.77091" lon="-0.26686">
        <ele>2919.2</ele>
        <time>2018-12-27T11:55:35Z</time>
      </trkpt>
      <trkpt lat="42.77092" lon="-0.26683">
        <ele>2920.4</ele>
        <time>2018-12-27T11:55:35Z</time>
      </trkpt>
      <trkpt lat="42.77095" lon="-0.26681">
        <ele>2921.7</ele>
        <time>2018-12-27T11:55:36Z</time>
      </trkpt>
      <trkpt lat="42.77095" lon="-0.26676">
        <ele>2922.9</ele>
        <time>2018-12-27T11:55:37Z</time>
      </trkpt>
      <trkpt lat="42.77097" lon="-0.2667">
        <ele>2925.1</ele>
        <time>2018-12-27T11:55:38Z</time>
      </trkpt>
      <trkpt lat="42.77098" lon="-0.26665">
        <ele>2926.7</ele>
        <time>2018-12-27T11:55:39Z</time>
      </trkpt>
      <trkpt lat="42.77099" lon="-0.26663">
        <ele>2927.8</ele>
        <time>2018-12-27T11:55:40Z</time>
      </trkpt>
      <trkpt lat="42.771" lon="-0.2666">
        <ele>2929.2</ele>
        <time>2018-12-27T11:55:41Z</time>
      </trkpt>
      <trkpt lat="42.77101" lon="-0.26656">
        <ele>2930.6</ele>
        <time>2018-12-27T11:55:41Z</time>
      </trkpt>
      <trkpt lat="42.77102" lon="-0.26654">
        <ele>2931.9</ele>
        <time>2018-12-27T11:55:42Z</time>
      </trkpt>
      <trkpt lat="42.77104" lon="-0.26652">
        <ele>2933</ele>
        <time>2018-12-27T11:55:42Z</time>
      </trkpt>
      <trkpt lat="42.77105" lon="-0.2665">
        <ele>2934.5</ele>
        <time>2018-12-27T11:55:43Z</time>
      </trkpt>
      <trkpt lat="42.77108" lon="-0.26644">
        <ele>2937.4</ele>
        <time>2018-12-27T11:55:44Z</time>
      </trkpt>
      <trkpt lat="42.7711" lon="-0.26639">
        <ele>2940.4</ele>
        <time>2018-12-27T11:55:45Z</time>
      </trkpt>
      <trkpt lat="42.77112" lon="-0.26636">
        <ele>2942.5</ele>
        <time>2018-12-27T11:55:46Z</time>
      </trkpt>
      <trkpt lat="42.77114" lon="-0.26631">
        <ele>2945.3</ele>
        <time>2018-12-27T11:55:47Z</time>
      </trkpt>
      <trkpt lat="42.77114" lon="-0.26633">
        <ele>2944.8</ele>
        <time>2018-12-27T11:55:48Z</time>
      </trkpt>
      <trkpt lat="42.77115" lon="-0.26634">
        <ele>2944.7</ele>
        <time>2018-12-27T11:55:48Z</time>
      </trkpt>
      <trkpt lat="42.77116" lon="-0.26637">
        <ele>2944.5</ele>
        <time>2018-12-27T11:55:49Z</time>
      </trkpt>
      <trkpt lat="42.77117" lon="-0.2664">
        <ele>2944.3</ele>
        <time>2018-12-27T11:55:49Z</time>
      </trkpt>
      <trkpt lat="42.77118" lon="-0.26643">
        <ele>2943.9</ele>
        <time>2018-12-27T11:55:50Z</time>
      </trkpt>
      <trkpt lat="42.77121" lon="-0.26647">
        <ele>2943.9</ele>
        <time>2018-12-27T11:55:51Z</time>
      </trkpt>
      <trkpt lat="42.77123" lon="-0.26648">
        <ele>2945.2</ele>
        <time>2018-12-27T11:55:52Z</time>
      </trkpt>
      <trkpt lat="42.77125" lon="-0.26644">
        <ele>2947.2</ele>
        <time>2018-12-27T11:55:53Z</time>
      </trkpt>
      <trkpt lat="42.77126" lon="-0.26642">
        <ele>2948.2</ele>
        <time>2018-12-27T11:55:53Z</time>
      </trkpt>
      <trkpt lat="42.77127" lon="-0.2664">
        <ele>2948.4</ele>
        <time>2018-12-27T11:55:54Z</time>
      </trkpt>
      <trkpt lat="42.77129" lon="-0.26641">
        <ele>2948</ele>
        <time>2018-12-27T11:55:54Z</time>
      </trkpt>
      <trkpt lat="42.77131" lon="-0.26639">
        <ele>2948.7</ele>
        <time>2018-12-27T11:55:55Z</time>
      </trkpt>
      <trkpt lat="42.77133" lon="-0.26635">
        <ele>2949.7</ele>
        <time>2018-12-27T11:55:56Z</time>
      </trkpt>
      <trkpt lat="42.77135" lon="-0.26633">
        <ele>2950.5</ele>
        <time>2018-12-27T11:55:56Z</time>
      </trkpt>
      <trkpt lat="42.77137" lon="-0.2663">
        <ele>2951.3</ele>
        <time>2018-12-27T11:55:57Z</time>
      </trkpt>
      <trkpt lat="42.77138" lon="-0.26629">
        <ele>2951.7</ele>
        <time>2018-12-27T11:55:58Z</time>
      </trkpt>
      <trkpt lat="42.7714" lon="-0.26626">
        <ele>2952.7</ele>
        <time>2018-12-27T11:55:58Z</time>
      </trkpt>
      <trkpt lat="42.77142" lon="-0.26627">
        <ele>2952.1</ele>
        <time>2018-12-27T11:55:59Z</time>
      </trkpt>
      <trkpt lat="42.77143" lon="-0.26624">
        <ele>2953.4</ele>
        <time>2018-12-27T11:56:00Z</time>
      </trkpt>
      <trkpt lat="42.77145" lon="-0.26623">
        <ele>2953.6</ele>
        <time>2018-12-27T11:56:00Z</time>
      </trkpt>
      <trkpt lat="42.77146" lon="-0.2662">
        <ele>2954.6</ele>
        <time>2018-12-27T11:56:01Z</time>
      </trkpt>
      <trkpt lat="42.77147" lon="-0.26615">
        <ele>2956.3</ele>
        <time>2018-12-27T11:56:02Z</time>
      </trkpt>
      <trkpt lat="42.77147" lon="-0.26611">
        <ele>2957.7</ele>
        <time>2018-12-27T11:56:03Z</time>
      </trkpt>
      <trkpt lat="42.77149" lon="-0.26609">
        <ele>2958.5</ele>
        <time>2018-12-27T11:56:03Z</time>
      </trkpt>
      <trkpt lat="42.77152" lon="-0.26602">
        <ele>2961.2</ele>
        <time>2018-12-27T11:56:05Z</time>
      </trkpt>
      <trkpt lat="42.77151" lon="-0.26596">
        <ele>2963.5</ele>
        <time>2018-12-27T11:56:06Z</time>
      </trkpt>
      <trkpt lat="42.77152" lon="-0.26591">
        <ele>2965.6</ele>
        <time>2018-12-27T11:56:07Z</time>
      </trkpt>
      <trkpt lat="42.77154" lon="-0.26589">
        <ele>2966.8</ele>
        <time>2018-12-27T11:56:08Z</time>
      </trkpt>
      <trkpt lat="42.77155" lon="-0.26587">
        <ele>2967.7</ele>
        <time>2018-12-27T11:56:08Z</time>
      </trkpt>
      <trkpt lat="42.77157" lon="-0.26582">
        <ele>2970.2</ele>
        <time>2018-12-27T11:56:09Z</time>
      </trkpt>
      <trkpt lat="42.77157" lon="-0.26576">
        <ele>2972.8</ele>
        <time>2018-12-27T11:56:10Z</time>
      </trkpt>
      <trkpt lat="42.77158" lon="-0.26573">
        <ele>2974.4</ele>
        <time>2018-12-27T11:56:11Z</time>
      </trkpt>
      <trkpt lat="42.7716" lon="-0.26567">
        <ele>2977</ele>
        <time>2018-12-27T11:56:12Z</time>
      </trkpt>
      <trkpt lat="42.77161" lon="-0.26562">
        <ele>2979.5</ele>
        <time>2018-12-27T11:56:13Z</time>
      </trkpt>
      <trkpt lat="42.77162" lon="-0.26557">
        <ele>2982.4</ele>
        <time>2018-12-27T11:56:14Z</time>
      </trkpt>
      <trkpt lat="42.77163" lon="-0.26551">
        <ele>2985.4</ele>
        <time>2018-12-27T11:56:15Z</time>
      </trkpt>
      <trkpt lat="42.77162" lon="-0.26547">
        <ele>2986.6</ele>
        <time>2018-12-27T11:56:16Z</time>
      </trkpt>
      <trkpt lat="42.77163" lon="-0.26547">
        <ele>2987.1</ele>
        <time>2018-12-27T11:56:16Z</time>
      </trkpt>
      <trkpt lat="42.77164" lon="-0.26545">
        <ele>2988.6</ele>
        <time>2018-12-27T11:56:17Z</time>
      </trkpt>
      <trkpt lat="42.77163" lon="-0.26539">
        <ele>2990.4</ele>
        <time>2018-12-27T11:56:18Z</time>
      </trkpt>
      <trkpt lat="42.77164" lon="-0.26532">
        <ele>2992</ele>
        <time>2018-12-27T11:56:20Z</time>
      </trkpt>
      <trkpt lat="42.77166" lon="-0.26531">
        <ele>2993.1</ele>
        <time>2018-12-27T11:56:20Z</time>
      </trkpt>
      <trkpt lat="42.77169" lon="-0.2653">
        <ele>2994.8</ele>
        <time>2018-12-27T11:56:21Z</time>
      </trkpt>
      <trkpt lat="42.7717" lon="-0.26525">
        <ele>2996</ele>
        <time>2018-12-27T11:56:22Z</time>
      </trkpt>
      <trkpt lat="42.77171" lon="-0.26525">
        <ele>2996.6</ele>
        <time>2018-12-27T11:56:22Z</time>
      </trkpt>
      <trkpt lat="42.77173" lon="-0.26524">
        <ele>2997.7</ele>
        <time>2018-12-27T11:56:23Z</time>
      </trkpt>
      <trkpt lat="42.77174" lon="-0.26521">
        <ele>2998.8</ele>
        <time>2018-12-27T11:56:24Z</time>
      </trkpt>
      <trkpt lat="42.77175" lon="-0.26516">
        <ele>3000.3</ele>
        <time>2018-12-27T11:56:24Z</time>
      </trkpt>
      <trkpt lat="42.77177" lon="-0.26515">
        <ele>3001.4</ele>
        <time>2018-12-27T11:56:25Z</time>
      </trkpt>
      <trkpt lat="42.77179" lon="-0.26513">
        <ele>3002.4</ele>
        <time>2018-12-27T11:56:26Z</time>
      </trkpt>
      <trkpt lat="42.7718" lon="-0.26511">
        <ele>3003.7</ele>
        <time>2018-12-27T11:56:26Z</time>
      </trkpt>
      <trkpt lat="42.77182" lon="-0.2651">
        <ele>3004.8</ele>
        <time>2018-12-27T11:56:27Z</time>
      </trkpt>
      <trkpt lat="42.77184" lon="-0.26508">
        <ele>3006</ele>
        <time>2018-12-27T11:56:27Z</time>
      </trkpt>
      <trkpt lat="42.77185" lon="-0.26505">
        <ele>3007</ele>
        <time>2018-12-27T11:56:28Z</time>
      </trkpt>
      <trkpt lat="42.77186" lon="-0.26503">
        <ele>3008.3</ele>
        <time>2018-12-27T11:56:28Z</time>
      </trkpt>
      <trkpt lat="42.77187" lon="-0.26501">
        <ele>3009.2</ele>
        <time>2018-12-27T11:56:29Z</time>
      </trkpt>
      <trkpt lat="42.77186" lon="-0.26499">
        <ele>3009.2</ele>
        <time>2018-12-27T11:56:30Z</time>
      </trkpt>
      <trkpt lat="42.77184" lon="-0.26492">
        <ele>3010</ele>
        <time>2018-12-27T11:56:31Z</time>
      </trkpt>
      <trkpt lat="42.77184" lon="-0.26485">
        <ele>3011.3</ele>
        <time>2018-12-27T11:56:32Z</time>
      </trkpt>
      <trkpt lat="42.77183" lon="-0.26484">
        <ele>3011.6</ele>
        <time>2018-12-27T11:56:33Z</time>
      </trkpt>
      <trkpt lat="42.77182" lon="-0.2648">
        <ele>3011.8</ele>
        <time>2018-12-27T11:56:33Z</time>
      </trkpt>
      <trkpt lat="42.77182" lon="-0.26473">
        <ele>3013.3</ele>
        <time>2018-12-27T11:56:35Z</time>
      </trkpt>
      <trkpt lat="42.77181" lon="-0.26462">
        <ele>3015.4</ele>
        <time>2018-12-27T11:56:37Z</time>
      </trkpt>
      <trkpt lat="42.77179" lon="-0.2645">
        <ele>3016.7</ele>
        <time>2018-12-27T11:56:39Z</time>
      </trkpt>
      <trkpt lat="42.77178" lon="-0.26443">
        <ele>3017.2</ele>
        <time>2018-12-27T11:56:41Z</time>
      </trkpt>
      <trkpt lat="42.77177" lon="-0.26439">
        <ele>3016.9</ele>
        <time>2018-12-27T11:56:42Z</time>
      </trkpt>
      <trkpt lat="42.77176" lon="-0.26432">
        <ele>3017.5</ele>
        <time>2018-12-27T11:56:43Z</time>
      </trkpt>
      <trkpt lat="42.77174" lon="-0.26426">
        <ele>3017.6</ele>
        <time>2018-12-27T11:56:44Z</time>
      </trkpt>
      <trkpt lat="42.77172" lon="-0.2642">
        <ele>3017.4</ele>
        <time>2018-12-27T11:56:46Z</time>
      </trkpt>
      <trkpt lat="42.77171" lon="-0.26419">
        <ele>3017</ele>
        <time>2018-12-27T11:56:46Z</time>
      </trkpt>
      <trkpt lat="42.77171" lon="-0.26419">
        <ele>3017.1</ele>
        <time>2018-12-27T11:56:46Z</time>
      </trkpt>
      <trkpt lat="42.77169" lon="-0.26416">
        <ele>3016.2</ele>
        <time>2018-12-27T11:56:47Z</time>
      </trkpt>
      <trkpt lat="42.77166" lon="-0.26417">
        <ele>3014.6</ele>
        <time>2018-12-27T11:56:48Z</time>
      </trkpt>
      <trkpt lat="42.77163" lon="-0.26418">
        <ele>3012.9</ele>
        <time>2018-12-27T11:56:48Z</time>
      </trkpt>
      <trkpt lat="42.77163" lon="-0.26419">
        <ele>3012.5</ele>
        <time>2018-12-27T11:56:49Z</time>
      </trkpt>
      <trkpt lat="42.77162" lon="-0.26422">
        <ele>3011.7</ele>
        <time>2018-12-27T11:56:49Z</time>
      </trkpt>
      <trkpt lat="42.7716" lon="-0.26423">
        <ele>3010.5</ele>
        <time>2018-12-27T11:56:50Z</time>
      </trkpt>
      <trkpt lat="42.7716" lon="-0.26427">
        <ele>3009.7</ele>
        <time>2018-12-27T11:56:51Z</time>
      </trkpt>
      <trkpt lat="42.77156" lon="-0.26432">
        <ele>3007.3</ele>
        <time>2018-12-27T11:56:52Z</time>
      </trkpt>
      <trkpt lat="42.77157" lon="-0.26438">
        <ele>3007.1</ele>
        <time>2018-12-27T11:56:53Z</time>
      </trkpt>
      <trkpt lat="42.77157" lon="-0.26447">
        <ele>3005.9</ele>
        <time>2018-12-27T11:56:55Z</time>
      </trkpt>
      <trkpt lat="42.77154" lon="-0.26453">
        <ele>3003.7</ele>
        <time>2018-12-27T11:56:56Z</time>
      </trkpt>
      <trkpt lat="42.77154" lon="-0.26456">
        <ele>3003.1</ele>
        <time>2018-12-27T11:56:57Z</time>
      </trkpt>
      <trkpt lat="42.77154" lon="-0.2646">
        <ele>3002.3</ele>
        <time>2018-12-27T11:56:58Z</time>
      </trkpt>
      <trkpt lat="42.77153" lon="-0.26461">
        <ele>3001.7</ele>
        <time>2018-12-27T11:56:58Z</time>
      </trkpt>
      <trkpt lat="42.7715" lon="-0.26465">
        <ele>2999.5</ele>
        <time>2018-12-27T11:56:59Z</time>
      </trkpt>
      <trkpt lat="42.77146" lon="-0.2646">
        <ele>2998.2</ele>
        <time>2018-12-27T11:57:01Z</time>
      </trkpt>
      <trkpt lat="42.77145" lon="-0.26459">
        <ele>2997.7</ele>
        <time>2018-12-27T11:57:01Z</time>
      </trkpt>
      <trkpt lat="42.77142" lon="-0.26464">
        <ele>2995.6</ele>
        <time>2018-12-27T11:57:02Z</time>
      </trkpt>
      <trkpt lat="42.77139" lon="-0.26473">
        <ele>2992.5</ele>
        <time>2018-12-27T11:57:04Z</time>
      </trkpt>
      <trkpt lat="42.77139" lon="-0.26475">
        <ele>2992.1</ele>
        <time>2018-12-27T11:57:04Z</time>
      </trkpt>
      <trkpt lat="42.77139" lon="-0.26477">
        <ele>2991.4</ele>
        <time>2018-12-27T11:57:05Z</time>
      </trkpt>
      <trkpt lat="42.77138" lon="-0.26481">
        <ele>2990.4</ele>
        <time>2018-12-27T11:57:06Z</time>
      </trkpt>
      <trkpt lat="42.77137" lon="-0.26484">
        <ele>2989.5</ele>
        <time>2018-12-27T11:57:06Z</time>
      </trkpt>
      <trkpt lat="42.77134" lon="-0.26489">
        <ele>2987.1</ele>
        <time>2018-12-27T11:57:07Z</time>
      </trkpt>
      <trkpt lat="42.77131" lon="-0.26495">
        <ele>2984.9</ele>
        <time>2018-12-27T11:57:09Z</time>
      </trkpt>
      <trkpt lat="42.7713" lon="-0.26499">
        <ele>2983.3</ele>
        <time>2018-12-27T11:57:10Z</time>
      </trkpt>
      <trkpt lat="42.77128" lon="-0.26504">
        <ele>2981.7</ele>
        <time>2018-12-27T11:57:11Z</time>
      </trkpt>
      <trkpt lat="42.77126" lon="-0.2651">
        <ele>2980</ele>
        <time>2018-12-27T11:57:12Z</time>
      </trkpt>
      <trkpt lat="42.77123" lon="-0.26516">
        <ele>2977</ele>
        <time>2018-12-27T11:57:13Z</time>
      </trkpt>
      <trkpt lat="42.77123" lon="-0.26518">
        <ele>2976.6</ele>
        <time>2018-12-27T11:57:14Z</time>
      </trkpt>
      <trkpt lat="42.77121" lon="-0.26526">
        <ele>2973.9</ele>
        <time>2018-12-27T11:57:16Z</time>
      </trkpt>
      <trkpt lat="42.77121" lon="-0.26528">
        <ele>2973</ele>
        <time>2018-12-27T11:57:16Z</time>
      </trkpt>
      <trkpt lat="42.77118" lon="-0.26538">
        <ele>2969.4</ele>
        <time>2018-12-27T11:57:18Z</time>
      </trkpt>
      <trkpt lat="42.77115" lon="-0.26545">
        <ele>2965.6</ele>
        <time>2018-12-27T11:57:20Z</time>
      </trkpt>
      <trkpt lat="42.77114" lon="-0.26547">
        <ele>2964.9</ele>
        <time>2018-12-27T11:57:20Z</time>
      </trkpt>
      <trkpt lat="42.77112" lon="-0.26558">
        <ele>2960.4</ele>
        <time>2018-12-27T11:57:22Z</time>
      </trkpt>
      <trkpt lat="42.77109" lon="-0.26553">
        <ele>2959.8</ele>
        <time>2018-12-27T11:57:24Z</time>
      </trkpt>
      <trkpt lat="42.77106" lon="-0.26547">
        <ele>2958.4</ele>
        <time>2018-12-27T11:57:25Z</time>
      </trkpt>
      <trkpt lat="42.77104" lon="-0.26545">
        <ele>2957.8</ele>
        <time>2018-12-27T11:57:26Z</time>
      </trkpt>
      <trkpt lat="42.77101" lon="-0.26545">
        <ele>2955.6</ele>
        <time>2018-12-27T11:57:26Z</time>
      </trkpt>
      <trkpt lat="42.771" lon="-0.26549">
        <ele>2954.1</ele>
        <time>2018-12-27T11:57:27Z</time>
      </trkpt>
      <trkpt lat="42.77098" lon="-0.26555">
        <ele>2951.1</ele>
        <time>2018-12-27T11:57:29Z</time>
      </trkpt>
      <trkpt lat="42.77096" lon="-0.26559">
        <ele>2949.2</ele>
        <time>2018-12-27T11:57:29Z</time>
      </trkpt>
      <trkpt lat="42.77095" lon="-0.26568">
        <ele>2946</ele>
        <time>2018-12-27T11:57:31Z</time>
      </trkpt>
      <trkpt lat="42.77094" lon="-0.26568">
        <ele>2945.2</ele>
        <time>2018-12-27T11:57:32Z</time>
      </trkpt>
      <trkpt lat="42.77092" lon="-0.26569">
        <ele>2943.8</ele>
        <time>2018-12-27T11:57:32Z</time>
      </trkpt>
      <trkpt lat="42.77088" lon="-0.26567">
        <ele>2941.2</ele>
        <time>2018-12-27T11:57:33Z</time>
      </trkpt>
      <trkpt lat="42.77086" lon="-0.26565">
        <ele>2940.8</ele>
        <time>2018-12-27T11:57:34Z</time>
      </trkpt>
      <trkpt lat="42.7708" lon="-0.26555">
        <ele>2937.8</ele>
        <time>2018-12-27T11:57:36Z</time>
      </trkpt>
      <trkpt lat="42.77077" lon="-0.26557">
        <ele>2935.5</ele>
        <time>2018-12-27T11:57:37Z</time>
      </trkpt>
      <trkpt lat="42.77076" lon="-0.26558">
        <ele>2934.8</ele>
        <time>2018-12-27T11:57:37Z</time>
      </trkpt>
      <trkpt lat="42.77071" lon="-0.26568">
        <ele>2929.3</ele>
        <time>2018-12-27T11:57:40Z</time>
      </trkpt>
      <trkpt lat="42.77068" lon="-0.26577">
        <ele>2925</ele>
        <time>2018-12-27T11:57:42Z</time>
      </trkpt>
      <trkpt lat="42.77067" lon="-0.2659">
        <ele>2922.1</ele>
        <time>2018-12-27T11:57:44Z</time>
      </trkpt>
      <trkpt lat="42.77066" lon="-0.2659">
        <ele>2921.6</ele>
        <time>2018-12-27T11:57:45Z</time>
      </trkpt>
      <trkpt lat="42.77063" lon="-0.26589">
        <ele>2919.9</ele>
        <time>2018-12-27T11:57:45Z</time>
      </trkpt>
      <trkpt lat="42.7706" lon="-0.2659">
        <ele>2917.7</ele>
        <time>2018-12-27T11:57:46Z</time>
      </trkpt>
      <trkpt lat="42.77059" lon="-0.26589">
        <ele>2917</ele>
        <time>2018-12-27T11:57:47Z</time>
      </trkpt>
      <trkpt lat="42.77056" lon="-0.26587">
        <ele>2915.6</ele>
        <time>2018-12-27T11:57:47Z</time>
      </trkpt>
      <trkpt lat="42.77052" lon="-0.26582">
        <ele>2913.6</ele>
        <time>2018-12-27T11:57:49Z</time>
      </trkpt>
      <trkpt lat="42.77046" lon="-0.26578">
        <ele>2909.5</ele>
        <time>2018-12-27T11:57:51Z</time>
      </trkpt>
      <trkpt lat="42.77044" lon="-0.26577">
        <ele>2908.6</ele>
        <time>2018-12-27T11:57:51Z</time>
      </trkpt>
      <trkpt lat="42.7704" lon="-0.26573">
        <ele>2906.9</ele>
        <time>2018-12-27T11:57:53Z</time>
      </trkpt>
      <trkpt lat="42.77034" lon="-0.26573">
        <ele>2905</ele>
        <time>2018-12-27T11:57:54Z</time>
      </trkpt>
      <trkpt lat="42.77034" lon="-0.2658">
        <ele>2903.9</ele>
        <time>2018-12-27T11:57:56Z</time>
      </trkpt>
      <trkpt lat="42.77033" lon="-0.26582">
        <ele>2903.4</ele>
        <time>2018-12-27T11:57:56Z</time>
      </trkpt>
      <trkpt lat="42.7703" lon="-0.26582">
        <ele>2902.7</ele>
        <time>2018-12-27T11:57:57Z</time>
      </trkpt>
      <trkpt lat="42.77028" lon="-0.2658">
        <ele>2902.2</ele>
        <time>2018-12-27T11:57:57Z</time>
      </trkpt>
      <trkpt lat="42.77026" lon="-0.26584">
        <ele>2901.2</ele>
        <time>2018-12-27T11:57:58Z</time>
      </trkpt>
      <trkpt lat="42.77025" lon="-0.26585">
        <ele>2900.7</ele>
        <time>2018-12-27T11:57:59Z</time>
      </trkpt>
      <trkpt lat="42.77024" lon="-0.26587">
        <ele>2900.5</ele>
        <time>2018-12-27T11:57:59Z</time>
      </trkpt>
      <trkpt lat="42.77025" lon="-0.26592">
        <ele>2900.1</ele>
        <time>2018-12-27T11:58:00Z</time>
      </trkpt>
      <trkpt lat="42.77023" lon="-0.26597">
        <ele>2899.4</ele>
        <time>2018-12-27T11:58:01Z</time>
      </trkpt>
      <trkpt lat="42.7702" lon="-0.26602">
        <ele>2898.3</ele>
        <time>2018-12-27T11:58:02Z</time>
      </trkpt>
      <trkpt lat="42.77014" lon="-0.26606">
        <ele>2896.7</ele>
        <time>2018-12-27T11:58:04Z</time>
      </trkpt>
      <trkpt lat="42.77012" lon="-0.26609">
        <ele>2896.2</ele>
        <time>2018-12-27T11:58:05Z</time>
      </trkpt>
      <trkpt lat="42.77009" lon="-0.26612">
        <ele>2895.5</ele>
        <time>2018-12-27T11:58:06Z</time>
      </trkpt>
      <trkpt lat="42.77004" lon="-0.26608">
        <ele>2894.4</ele>
        <time>2018-12-27T11:58:08Z</time>
      </trkpt>
      <trkpt lat="42.77" lon="-0.2661">
        <ele>2893.8</ele>
        <time>2018-12-27T11:58:09Z</time>
      </trkpt>
      <trkpt lat="42.76993" lon="-0.26604">
        <ele>2892.2</ele>
        <time>2018-12-27T11:58:11Z</time>
      </trkpt>
      <trkpt lat="42.76991" lon="-0.26601">
        <ele>2891.5</ele>
        <time>2018-12-27T11:58:12Z</time>
      </trkpt>
      <trkpt lat="42.7699" lon="-0.26598">
        <ele>2891.1</ele>
        <time>2018-12-27T11:58:12Z</time>
      </trkpt>
      <trkpt lat="42.76985" lon="-0.26592">
        <ele>2889.5</ele>
        <time>2018-12-27T11:58:14Z</time>
      </trkpt>
      <trkpt lat="42.76983" lon="-0.2659">
        <ele>2888.6</ele>
        <time>2018-12-27T11:58:15Z</time>
      </trkpt>
      <trkpt lat="42.76979" lon="-0.26585">
        <ele>2887.1</ele>
        <time>2018-12-27T11:58:16Z</time>
      </trkpt>
      <trkpt lat="42.76977" lon="-0.26577">
        <ele>2885.6</ele>
        <time>2018-12-27T11:58:18Z</time>
      </trkpt>
      <trkpt lat="42.7697" lon="-0.2657">
        <ele>2882.3</ele>
        <time>2018-12-27T11:58:20Z</time>
      </trkpt>
      <trkpt lat="42.76969" lon="-0.26569">
        <ele>2881.8</ele>
        <time>2018-12-27T11:58:20Z</time>
      </trkpt>
      <trkpt lat="42.76968" lon="-0.26566">
        <ele>2881.1</ele>
        <time>2018-12-27T11:58:21Z</time>
      </trkpt>
      <trkpt lat="42.76965" lon="-0.26562">
        <ele>2879.1</ele>
        <time>2018-12-27T11:58:22Z</time>
      </trkpt>
      <trkpt lat="42.76957" lon="-0.26557">
        <ele>2876.3</ele>
        <time>2018-12-27T11:58:25Z</time>
      </trkpt>
      <trkpt lat="42.76954" lon="-0.26552">
        <ele>2876.5</ele>
        <time>2018-12-27T11:58:26Z</time>
      </trkpt>
      <trkpt lat="42.7695" lon="-0.26548">
        <ele>2876.8</ele>
        <time>2018-12-27T11:58:27Z</time>
      </trkpt>
      <trkpt lat="42.76945" lon="-0.2654">
        <ele>2876.9</ele>
        <time>2018-12-27T11:58:29Z</time>
      </trkpt>
      <trkpt lat="42.7694" lon="-0.26538">
        <ele>2878.2</ele>
        <time>2018-12-27T11:58:30Z</time>
      </trkpt>
      <trkpt lat="42.7694" lon="-0.26539">
        <ele>2878.5</ele>
        <time>2018-12-27T11:58:31Z</time>
      </trkpt>
      <trkpt lat="42.76935" lon="-0.26536">
        <ele>2879.3</ele>
        <time>2018-12-27T11:58:32Z</time>
      </trkpt>
      <trkpt lat="42.76931" lon="-0.26535">
        <ele>2880.3</ele>
        <time>2018-12-27T11:58:33Z</time>
      </trkpt>
      <trkpt lat="42.76926" lon="-0.2653">
        <ele>2880.7</ele>
        <time>2018-12-27T11:58:35Z</time>
      </trkpt>
      <trkpt lat="42.76922" lon="-0.26521">
        <ele>2880.3</ele>
        <time>2018-12-27T11:58:37Z</time>
      </trkpt>
      <trkpt lat="42.76923" lon="-0.26509">
        <ele>2877.5</ele>
        <time>2018-12-27T11:58:39Z</time>
      </trkpt>
      <trkpt lat="42.76923" lon="-0.26498">
        <ele>2875.3</ele>
        <time>2018-12-27T11:58:41Z</time>
      </trkpt>
      <trkpt lat="42.76922" lon="-0.26492">
        <ele>2874.4</ele>
        <time>2018-12-27T11:58:43Z</time>
      </trkpt>
      <trkpt lat="42.76921" lon="-0.26488">
        <ele>2873.8</ele>
        <time>2018-12-27T11:58:43Z</time>
      </trkpt>
      <trkpt lat="42.76921" lon="-0.2648">
        <ele>2872</ele>
        <time>2018-12-27T11:58:45Z</time>
      </trkpt>
      <trkpt lat="42.76916" lon="-0.26481">
        <ele>2873</ele>
        <time>2018-12-27T11:58:47Z</time>
      </trkpt>
      <trkpt lat="42.76913" lon="-0.26476">
        <ele>2872.5</ele>
        <time>2018-12-27T11:58:48Z</time>
      </trkpt>
      <trkpt lat="42.76914" lon="-0.26469">
        <ele>2870.7</ele>
        <time>2018-12-27T11:58:49Z</time>
      </trkpt>
      <trkpt lat="42.76913" lon="-0.26462">
        <ele>2869.2</ele>
        <time>2018-12-27T11:58:51Z</time>
      </trkpt>
      <trkpt lat="42.76915" lon="-0.26457">
        <ele>2868</ele>
        <time>2018-12-27T11:58:52Z</time>
      </trkpt>
      <trkpt lat="42.76915" lon="-0.26455">
        <ele>2867.9</ele>
        <time>2018-12-27T11:58:52Z</time>
      </trkpt>
      <trkpt lat="42.76913" lon="-0.26454">
        <ele>2867.9</ele>
        <time>2018-12-27T11:58:53Z</time>
      </trkpt>
      <trkpt lat="42.76913" lon="-0.26449">
        <ele>2867.2</ele>
        <time>2018-12-27T11:58:54Z</time>
      </trkpt>
      <trkpt lat="42.76914" lon="-0.26448">
        <ele>2866.9</ele>
        <time>2018-12-27T11:58:54Z</time>
      </trkpt>
      <trkpt lat="42.76914" lon="-0.26438">
        <ele>2865.6</ele>
        <time>2018-12-27T11:58:56Z</time>
      </trkpt>
      <trkpt lat="42.76914" lon="-0.26436">
        <ele>2865.4</ele>
        <time>2018-12-27T11:58:56Z</time>
      </trkpt>
      <trkpt lat="42.76913" lon="-0.26431">
        <ele>2864.7</ele>
        <time>2018-12-27T11:58:57Z</time>
      </trkpt>
      <trkpt lat="42.76912" lon="-0.26424">
        <ele>2864</ele>
        <time>2018-12-27T11:58:59Z</time>
      </trkpt>
      <trkpt lat="42.76912" lon="-0.26422">
        <ele>2863.7</ele>
        <time>2018-12-27T11:58:59Z</time>
      </trkpt>
      <trkpt lat="42.76911" lon="-0.26421">
        <ele>2863.7</ele>
        <time>2018-12-27T11:59:00Z</time>
      </trkpt>
      <trkpt lat="42.76909" lon="-0.26422">
        <ele>2864.1</ele>
        <time>2018-12-27T11:59:00Z</time>
      </trkpt>
      <trkpt lat="42.76905" lon="-0.26423">
        <ele>2864.6</ele>
        <time>2018-12-27T11:59:02Z</time>
      </trkpt>
      <trkpt lat="42.76903" lon="-0.26424">
        <ele>2865</ele>
        <time>2018-12-27T11:59:02Z</time>
      </trkpt>
      <trkpt lat="42.76901" lon="-0.26424">
        <ele>2865.2</ele>
        <time>2018-12-27T11:59:02Z</time>
      </trkpt>
      <trkpt lat="42.769" lon="-0.26425">
        <ele>2865.4</ele>
        <time>2018-12-27T11:59:03Z</time>
      </trkpt>
      <trkpt lat="42.76899" lon="-0.26423">
        <ele>2865.2</ele>
        <time>2018-12-27T11:59:03Z</time>
      </trkpt>
      <trkpt lat="42.769" lon="-0.26415">
        <ele>2864.2</ele>
        <time>2018-12-27T11:59:05Z</time>
      </trkpt>
      <trkpt lat="42.76901" lon="-0.26411">
        <ele>2863.6</ele>
        <time>2018-12-27T11:59:06Z</time>
      </trkpt>
      <trkpt lat="42.76903" lon="-0.26402">
        <ele>2862.1</ele>
        <time>2018-12-27T11:59:08Z</time>
      </trkpt>
      <trkpt lat="42.76904" lon="-0.26395">
        <ele>2861.1</ele>
        <time>2018-12-27T11:59:09Z</time>
      </trkpt>
      <trkpt lat="42.76905" lon="-0.26393">
        <ele>2860.7</ele>
        <time>2018-12-27T11:59:09Z</time>
      </trkpt>
      <trkpt lat="42.76905" lon="-0.26388">
        <ele>2860</ele>
        <time>2018-12-27T11:59:10Z</time>
      </trkpt>
      <trkpt lat="42.76906" lon="-0.26384">
        <ele>2859.5</ele>
        <time>2018-12-27T11:59:11Z</time>
      </trkpt>
      <trkpt lat="42.76904" lon="-0.26381">
        <ele>2859.4</ele>
        <time>2018-12-27T11:59:12Z</time>
      </trkpt>
      <trkpt lat="42.76903" lon="-0.26379">
        <ele>2859.2</ele>
        <time>2018-12-27T11:59:12Z</time>
      </trkpt>
      <trkpt lat="42.76901" lon="-0.26375">
        <ele>2859</ele>
        <time>2018-12-27T11:59:13Z</time>
      </trkpt>
      <trkpt lat="42.76896" lon="-0.26374">
        <ele>2858.8</ele>
        <time>2018-12-27T11:59:15Z</time>
      </trkpt>
      <trkpt lat="42.76892" lon="-0.26373">
        <ele>2858.2</ele>
        <time>2018-12-27T11:59:16Z</time>
      </trkpt>
      <trkpt lat="42.76889" lon="-0.26372">
        <ele>2857.6</ele>
        <time>2018-12-27T11:59:16Z</time>
      </trkpt>
      <trkpt lat="42.76889" lon="-0.26367">
        <ele>2852.5</ele>
        <time>2018-12-27T11:59:17Z</time>
      </trkpt>
      <trkpt lat="42.76889" lon="-0.26366">
        <ele>2850.9</ele>
        <time>2018-12-27T11:59:18Z</time>
      </trkpt>
      <trkpt lat="42.76888" lon="-0.26363">
        <ele>2848.5</ele>
        <time>2018-12-27T11:59:18Z</time>
      </trkpt>
      <trkpt lat="42.76887" lon="-0.26362">
        <ele>2847.5</ele>
        <time>2018-12-27T11:59:19Z</time>
      </trkpt>
      <trkpt lat="42.76886" lon="-0.26358">
        <ele>2843.4</ele>
        <time>2018-12-27T11:59:20Z</time>
      </trkpt>
      <trkpt lat="42.76886" lon="-0.2635">
        <ele>2835.4</ele>
        <time>2018-12-27T11:59:21Z</time>
      </trkpt>
      <trkpt lat="42.76886" lon="-0.26346">
        <ele>2830.8</ele>
        <time>2018-12-27T11:59:22Z</time>
      </trkpt>
      <trkpt lat="42.76887" lon="-0.26329">
        <ele>2814.1</ele>
        <time>2018-12-27T11:59:25Z</time>
      </trkpt>
      <trkpt lat="42.76888" lon="-0.26317">
        <ele>2801.7</ele>
        <time>2018-12-27T11:59:28Z</time>
      </trkpt>
      <trkpt lat="42.76888" lon="-0.2631">
        <ele>2794.8</ele>
        <time>2018-12-27T11:59:29Z</time>
      </trkpt>
      <trkpt lat="42.76882" lon="-0.26308">
        <ele>2790</ele>
        <time>2018-12-27T11:59:31Z</time>
      </trkpt>
      <trkpt lat="42.76881" lon="-0.26302">
        <ele>2783.8</ele>
        <time>2018-12-27T11:59:32Z</time>
      </trkpt>
      <trkpt lat="42.76881" lon="-0.263">
        <ele>2781.1</ele>
        <time>2018-12-27T11:59:32Z</time>
      </trkpt>
      <trkpt lat="42.76882" lon="-0.26297">
        <ele>2778.1</ele>
        <time>2018-12-27T11:59:33Z</time>
      </trkpt>
      <trkpt lat="42.76882" lon="-0.26292">
        <ele>2772.9</ele>
        <time>2018-12-27T11:59:34Z</time>
      </trkpt>
      <trkpt lat="42.76881" lon="-0.26289">
        <ele>2771.2</ele>
        <time>2018-12-27T11:59:35Z</time>
      </trkpt>
      <trkpt lat="42.76879" lon="-0.2628">
        <ele>2765.8</ele>
        <time>2018-12-27T11:59:36Z</time>
      </trkpt>
      <trkpt lat="42.76878" lon="-0.26271">
        <ele>2761.4</ele>
        <time>2018-12-27T11:59:38Z</time>
      </trkpt>
      <trkpt lat="42.76879" lon="-0.26264">
        <ele>2758.7</ele>
        <time>2018-12-27T11:59:39Z</time>
      </trkpt>
      <trkpt lat="42.76878" lon="-0.26259">
        <ele>2755.7</ele>
        <time>2018-12-27T11:59:41Z</time>
      </trkpt>
      <trkpt lat="42.76878" lon="-0.26253">
        <ele>2752.9</ele>
        <time>2018-12-27T11:59:42Z</time>
      </trkpt>
      <trkpt lat="42.76879" lon="-0.2625">
        <ele>2752.5</ele>
        <time>2018-12-27T11:59:42Z</time>
      </trkpt>
      <trkpt lat="42.7688" lon="-0.26247">
        <ele>2751.6</ele>
        <time>2018-12-27T11:59:43Z</time>
      </trkpt>
      <trkpt lat="42.76882" lon="-0.26245">
        <ele>2751.8</ele>
        <time>2018-12-27T11:59:44Z</time>
      </trkpt>
      <trkpt lat="42.76883" lon="-0.26245">
        <ele>2751.7</ele>
        <time>2018-12-27T11:59:44Z</time>
      </trkpt>
      <trkpt lat="42.76884" lon="-0.26237">
        <ele>2748.3</ele>
        <time>2018-12-27T11:59:45Z</time>
      </trkpt>
      <trkpt lat="42.76884" lon="-0.26236">
        <ele>2748.2</ele>
        <time>2018-12-27T11:59:46Z</time>
      </trkpt>
      <trkpt lat="42.76888" lon="-0.26228">
        <ele>2745.8</ele>
        <time>2018-12-27T11:59:48Z</time>
      </trkpt>
      <trkpt lat="42.76891" lon="-0.26221">
        <ele>2743.9</ele>
        <time>2018-12-27T11:59:49Z</time>
      </trkpt>
      <trkpt lat="42.76891" lon="-0.2622">
        <ele>2744</ele>
        <time>2018-12-27T11:59:49Z</time>
      </trkpt>
      <trkpt lat="42.76896" lon="-0.26217">
        <ele>2744.1</ele>
        <time>2018-12-27T11:59:51Z</time>
      </trkpt>
      <trkpt lat="42.76897" lon="-0.26215">
        <ele>2743.6</ele>
        <time>2018-12-27T11:59:51Z</time>
      </trkpt>
      <trkpt lat="42.769" lon="-0.26214">
        <ele>2743.8</ele>
        <time>2018-12-27T11:59:52Z</time>
      </trkpt>
      <trkpt lat="42.76903" lon="-0.2621">
        <ele>2743.3</ele>
        <time>2018-12-27T11:59:53Z</time>
      </trkpt>
      <trkpt lat="42.76903" lon="-0.26209">
        <ele>2742.6</ele>
        <time>2018-12-27T11:59:53Z</time>
      </trkpt>
      <trkpt lat="42.76904" lon="-0.26208">
        <ele>2742.3</ele>
        <time>2018-12-27T11:59:54Z</time>
      </trkpt>
      <trkpt lat="42.76908" lon="-0.26201">
        <ele>2740.9</ele>
        <time>2018-12-27T11:59:55Z</time>
      </trkpt>
      <trkpt lat="42.76909" lon="-0.26199">
        <ele>2740.1</ele>
        <time>2018-12-27T11:59:56Z</time>
      </trkpt>
      <trkpt lat="42.76911" lon="-0.2619">
        <ele>2736.9</ele>
        <time>2018-12-27T11:59:58Z</time>
      </trkpt>
      <trkpt lat="42.76915" lon="-0.26177">
        <ele>2731.7</ele>
        <time>2018-12-27T12:00:00Z</time>
      </trkpt>
      <trkpt lat="42.76918" lon="-0.26164">
        <ele>2726.2</ele>
        <time>2018-12-27T12:00:03Z</time>
      </trkpt>
      <trkpt lat="42.76918" lon="-0.26155">
        <ele>2721.8</ele>
        <time>2018-12-27T12:00:05Z</time>
      </trkpt>
      <trkpt lat="42.76919" lon="-0.26147">
        <ele>2718.1</ele>
        <time>2018-12-27T12:00:06Z</time>
      </trkpt>
      <trkpt lat="42.7692" lon="-0.26145">
        <ele>2717.4</ele>
        <time>2018-12-27T12:00:07Z</time>
      </trkpt>
      <trkpt lat="42.76919" lon="-0.26139">
        <ele>2714.3</ele>
        <time>2018-12-27T12:00:08Z</time>
      </trkpt>
      <trkpt lat="42.76918" lon="-0.26139">
        <ele>2714.2</ele>
        <time>2018-12-27T12:00:08Z</time>
      </trkpt>
      <trkpt lat="42.76911" lon="-0.2614">
        <ele>2712.9</ele>
        <time>2018-12-27T12:00:10Z</time>
      </trkpt>
      <trkpt lat="42.76907" lon="-0.26138">
        <ele>2711</ele>
        <time>2018-12-27T12:00:11Z</time>
      </trkpt>
      <trkpt lat="42.76907" lon="-0.26131">
        <ele>2708</ele>
        <time>2018-12-27T12:00:13Z</time>
      </trkpt>
      <trkpt lat="42.76905" lon="-0.26124">
        <ele>2704.2</ele>
        <time>2018-12-27T12:00:14Z</time>
      </trkpt>
      <trkpt lat="42.76904" lon="-0.26123">
        <ele>2703.8</ele>
        <time>2018-12-27T12:00:14Z</time>
      </trkpt>
      <trkpt lat="42.76899" lon="-0.2612">
        <ele>2701.9</ele>
        <time>2018-12-27T12:00:16Z</time>
      </trkpt>
      <trkpt lat="42.76899" lon="-0.26119">
        <ele>2701.1</ele>
        <time>2018-12-27T12:00:16Z</time>
      </trkpt>
      <trkpt lat="42.76899" lon="-0.26113">
        <ele>2699.2</ele>
        <time>2018-12-27T12:00:17Z</time>
      </trkpt>
      <trkpt lat="42.769" lon="-0.26108">
        <ele>2697.8</ele>
        <time>2018-12-27T12:00:18Z</time>
      </trkpt>
      <trkpt lat="42.769" lon="-0.26104">
        <ele>2696</ele>
        <time>2018-12-27T12:00:19Z</time>
      </trkpt>
      <trkpt lat="42.76901" lon="-0.26101">
        <ele>2695.1</ele>
        <time>2018-12-27T12:00:20Z</time>
      </trkpt>
      <trkpt lat="42.76901" lon="-0.26094">
        <ele>2692.6</ele>
        <time>2018-12-27T12:00:21Z</time>
      </trkpt>
      <trkpt lat="42.76902" lon="-0.26088">
        <ele>2690.4</ele>
        <time>2018-12-27T12:00:22Z</time>
      </trkpt>
      <trkpt lat="42.76906" lon="-0.26081">
        <ele>2688.6</ele>
        <time>2018-12-27T12:00:24Z</time>
      </trkpt>
      <trkpt lat="42.76907" lon="-0.26079">
        <ele>2688.2</ele>
        <time>2018-12-27T12:00:24Z</time>
      </trkpt>
      <trkpt lat="42.76911" lon="-0.26072">
        <ele>2686.6</ele>
        <time>2018-12-27T12:00:26Z</time>
      </trkpt>
      <trkpt lat="42.76917" lon="-0.26065">
        <ele>2685.1</ele>
        <time>2018-12-27T12:00:28Z</time>
      </trkpt>
      <trkpt lat="42.76921" lon="-0.2606">
        <ele>2683.8</ele>
        <time>2018-12-27T12:00:30Z</time>
      </trkpt>
      <trkpt lat="42.76922" lon="-0.26057">
        <ele>2683.4</ele>
        <time>2018-12-27T12:00:30Z</time>
      </trkpt>
      <trkpt lat="42.76925" lon="-0.26054">
        <ele>2682.7</ele>
        <time>2018-12-27T12:00:31Z</time>
      </trkpt>
      <trkpt lat="42.76926" lon="-0.26052">
        <ele>2682.2</ele>
        <time>2018-12-27T12:00:32Z</time>
      </trkpt>
      <trkpt lat="42.7693" lon="-0.26048">
        <ele>2681.5</ele>
        <time>2018-12-27T12:00:33Z</time>
      </trkpt>
      <trkpt lat="42.76936" lon="-0.26041">
        <ele>2680.4</ele>
        <time>2018-12-27T12:00:35Z</time>
      </trkpt>
      <trkpt lat="42.76941" lon="-0.26036">
        <ele>2679.2</ele>
        <time>2018-12-27T12:00:37Z</time>
      </trkpt>
      <trkpt lat="42.76944" lon="-0.26026">
        <ele>2675.7</ele>
        <time>2018-12-27T12:00:39Z</time>
      </trkpt>
      <trkpt lat="42.76948" lon="-0.26019">
        <ele>2673.9</ele>
        <time>2018-12-27T12:00:41Z</time>
      </trkpt>
      <trkpt lat="42.7695" lon="-0.26011">
        <ele>2671.2</ele>
        <time>2018-12-27T12:00:42Z</time>
      </trkpt>
      <trkpt lat="42.7695" lon="-0.26007">
        <ele>2669.8</ele>
        <time>2018-12-27T12:00:43Z</time>
      </trkpt>
      <trkpt lat="42.76952" lon="-0.25998">
        <ele>2666.9</ele>
        <time>2018-12-27T12:00:45Z</time>
      </trkpt>
      <trkpt lat="42.76955" lon="-0.25988">
        <ele>2663.9</ele>
        <time>2018-12-27T12:00:47Z</time>
      </trkpt>
      <trkpt lat="42.76959" lon="-0.25976">
        <ele>2659.7</ele>
        <time>2018-12-27T12:00:50Z</time>
      </trkpt>
      <trkpt lat="42.76958" lon="-0.25974">
        <ele>2659.1</ele>
        <time>2018-12-27T12:00:50Z</time>
      </trkpt>
      <trkpt lat="42.76959" lon="-0.2597">
        <ele>2657.7</ele>
        <time>2018-12-27T12:00:51Z</time>
      </trkpt>
      <trkpt lat="42.76959" lon="-0.25967">
        <ele>2656.6</ele>
        <time>2018-12-27T12:00:51Z</time>
      </trkpt>
      <trkpt lat="42.76959" lon="-0.25962">
        <ele>2654.4</ele>
        <time>2018-12-27T12:00:52Z</time>
      </trkpt>
      <trkpt lat="42.76958" lon="-0.25957">
        <ele>2652.3</ele>
        <time>2018-12-27T12:00:53Z</time>
      </trkpt>
      <trkpt lat="42.76955" lon="-0.25952">
        <ele>2649</ele>
        <time>2018-12-27T12:00:55Z</time>
      </trkpt>
      <trkpt lat="42.76955" lon="-0.25951">
        <ele>2648.4</ele>
        <time>2018-12-27T12:00:55Z</time>
      </trkpt>
      <trkpt lat="42.76954" lon="-0.25948">
        <ele>2646.9</ele>
        <time>2018-12-27T12:00:56Z</time>
      </trkpt>
      <trkpt lat="42.76955" lon="-0.25943">
        <ele>2645.2</ele>
        <time>2018-12-27T12:00:56Z</time>
      </trkpt>
      <trkpt lat="42.76956" lon="-0.25938">
        <ele>2643.3</ele>
        <time>2018-12-27T12:00:57Z</time>
      </trkpt>
      <trkpt lat="42.7696" lon="-0.25932">
        <ele>2641.6</ele>
        <time>2018-12-27T12:00:59Z</time>
      </trkpt>
      <trkpt lat="42.76961" lon="-0.25931">
        <ele>2641.4</ele>
        <time>2018-12-27T12:00:59Z</time>
      </trkpt>
      <trkpt lat="42.76963" lon="-0.25924">
        <ele>2639.5</ele>
        <time>2018-12-27T12:01:01Z</time>
      </trkpt>
      <trkpt lat="42.76964" lon="-0.25923">
        <ele>2639.1</ele>
        <time>2018-12-27T12:01:01Z</time>
      </trkpt>
      <trkpt lat="42.76966" lon="-0.25916">
        <ele>2636.8</ele>
        <time>2018-12-27T12:01:03Z</time>
      </trkpt>
      <trkpt lat="42.76967" lon="-0.25908">
        <ele>2633.5</ele>
        <time>2018-12-27T12:01:04Z</time>
      </trkpt>
      <trkpt lat="42.76968" lon="-0.25903">
        <ele>2631.9</ele>
        <time>2018-12-27T12:01:05Z</time>
      </trkpt>
      <trkpt lat="42.7697" lon="-0.25899">
        <ele>2630.5</ele>
        <time>2018-12-27T12:01:06Z</time>
      </trkpt>
      <trkpt lat="42.76972" lon="-0.25893">
        <ele>2628.7</ele>
        <time>2018-12-27T12:01:07Z</time>
      </trkpt>
      <trkpt lat="42.76973" lon="-0.25888">
        <ele>2626.9</ele>
        <time>2018-12-27T12:01:08Z</time>
      </trkpt>
      <trkpt lat="42.76974" lon="-0.25884">
        <ele>2625.8</ele>
        <time>2018-12-27T12:01:09Z</time>
      </trkpt>
      <trkpt lat="42.76976" lon="-0.25874">
        <ele>2622.6</ele>
        <time>2018-12-27T12:01:11Z</time>
      </trkpt>
      <trkpt lat="42.76979" lon="-0.25864">
        <ele>2620.3</ele>
        <time>2018-12-27T12:01:13Z</time>
      </trkpt>
      <trkpt lat="42.76981" lon="-0.2586">
        <ele>2619.7</ele>
        <time>2018-12-27T12:01:14Z</time>
      </trkpt>
      <trkpt lat="42.76981" lon="-0.25855">
        <ele>2618</ele>
        <time>2018-12-27T12:01:15Z</time>
      </trkpt>
      <trkpt lat="42.7698" lon="-0.25855">
        <ele>2617.5</ele>
        <time>2018-12-27T12:01:16Z</time>
      </trkpt>
      <trkpt lat="42.76982" lon="-0.25848">
        <ele>2615.8</ele>
        <time>2018-12-27T12:01:17Z</time>
      </trkpt>
      <trkpt lat="42.76982" lon="-0.25845">
        <ele>2615.3</ele>
        <time>2018-12-27T12:01:17Z</time>
      </trkpt>
      <trkpt lat="42.76982" lon="-0.25834">
        <ele>2611.3</ele>
        <time>2018-12-27T12:01:20Z</time>
      </trkpt>
      <trkpt lat="42.76982" lon="-0.25833">
        <ele>2610.8</ele>
        <time>2018-12-27T12:01:20Z</time>
      </trkpt>
      <trkpt lat="42.76983" lon="-0.25826">
        <ele>2608.7</ele>
        <time>2018-12-27T12:01:21Z</time>
      </trkpt>
      <trkpt lat="42.76982" lon="-0.25825">
        <ele>2608.2</ele>
        <time>2018-12-27T12:01:22Z</time>
      </trkpt>
      <trkpt lat="42.76978" lon="-0.2582">
        <ele>2604.6</ele>
        <time>2018-12-27T12:01:23Z</time>
      </trkpt>
      <trkpt lat="42.7698" lon="-0.25812">
        <ele>2602.9</ele>
        <time>2018-12-27T12:01:25Z</time>
      </trkpt>
      <trkpt lat="42.76981" lon="-0.2581">
        <ele>2602.6</ele>
        <time>2018-12-27T12:01:25Z</time>
      </trkpt>
      <trkpt lat="42.76981" lon="-0.25809">
        <ele>2601.8</ele>
        <time>2018-12-27T12:01:25Z</time>
      </trkpt>
      <trkpt lat="42.76981" lon="-0.25802">
        <ele>2599.4</ele>
        <time>2018-12-27T12:01:27Z</time>
      </trkpt>
      <trkpt lat="42.76981" lon="-0.2579">
        <ele>2595.6</ele>
        <time>2018-12-27T12:01:29Z</time>
      </trkpt>
      <trkpt lat="42.76985" lon="-0.2578">
        <ele>2593.3</ele>
        <time>2018-12-27T12:01:31Z</time>
      </trkpt>
      <trkpt lat="42.76991" lon="-0.25767">
        <ele>2591.2</ele>
        <time>2018-12-27T12:01:34Z</time>
      </trkpt>
      <trkpt lat="42.76996" lon="-0.25755">
        <ele>2588.3</ele>
        <time>2018-12-27T12:01:37Z</time>
      </trkpt>
      <trkpt lat="42.77001" lon="-0.25744">
        <ele>2586.1</ele>
        <time>2018-12-27T12:01:39Z</time>
      </trkpt>
      <trkpt lat="42.77006" lon="-0.25738">
        <ele>2586</ele>
        <time>2018-12-27T12:01:41Z</time>
      </trkpt>
      <trkpt lat="42.77014" lon="-0.25732">
        <ele>2586.9</ele>
        <time>2018-12-27T12:01:44Z</time>
      </trkpt>
      <trkpt lat="42.77022" lon="-0.25725">
        <ele>2586.9</ele>
        <time>2018-12-27T12:01:46Z</time>
      </trkpt>
      <trkpt lat="42.77028" lon="-0.25718">
        <ele>2586.5</ele>
        <time>2018-12-27T12:01:48Z</time>
      </trkpt>
      <trkpt lat="42.77029" lon="-0.25717">
        <ele>2586.7</ele>
        <time>2018-12-27T12:01:49Z</time>
      </trkpt>
      <trkpt lat="42.7703" lon="-0.25715">
        <ele>2586.3</ele>
        <time>2018-12-27T12:01:49Z</time>
      </trkpt>
      <trkpt lat="42.77034" lon="-0.25708">
        <ele>2584.9</ele>
        <time>2018-12-27T12:01:51Z</time>
      </trkpt>
      <trkpt lat="42.77035" lon="-0.25701">
        <ele>2582.7</ele>
        <time>2018-12-27T12:01:52Z</time>
      </trkpt>
      <trkpt lat="42.77035" lon="-0.25697">
        <ele>2581.2</ele>
        <time>2018-12-27T12:01:53Z</time>
      </trkpt>
      <trkpt lat="42.77037" lon="-0.25689">
        <ele>2578.7</ele>
        <time>2018-12-27T12:01:55Z</time>
      </trkpt>
      <trkpt lat="42.77039" lon="-0.25681">
        <ele>2576.2</ele>
        <time>2018-12-27T12:01:56Z</time>
      </trkpt>
      <trkpt lat="42.77043" lon="-0.2567">
        <ele>2573.5</ele>
        <time>2018-12-27T12:01:59Z</time>
      </trkpt>
      <trkpt lat="42.77043" lon="-0.25664">
        <ele>2570.9</ele>
        <time>2018-12-27T12:02:00Z</time>
      </trkpt>
      <trkpt lat="42.7704" lon="-0.25661">
        <ele>2568.6</ele>
        <time>2018-12-27T12:02:01Z</time>
      </trkpt>
      <trkpt lat="42.77037" lon="-0.25659">
        <ele>2566.5</ele>
        <time>2018-12-27T12:02:02Z</time>
      </trkpt>
      <trkpt lat="42.77033" lon="-0.25656">
        <ele>2564.3</ele>
        <time>2018-12-27T12:02:03Z</time>
      </trkpt>
      <trkpt lat="42.77031" lon="-0.25653">
        <ele>2562.4</ele>
        <time>2018-12-27T12:02:04Z</time>
      </trkpt>
      <trkpt lat="42.77032" lon="-0.25647">
        <ele>2560.1</ele>
        <time>2018-12-27T12:02:05Z</time>
      </trkpt>
      <trkpt lat="42.77031" lon="-0.25642">
        <ele>2558.1</ele>
        <time>2018-12-27T12:02:06Z</time>
      </trkpt>
      <trkpt lat="42.77031" lon="-0.25639">
        <ele>2556.6</ele>
        <time>2018-12-27T12:02:07Z</time>
      </trkpt>
      <trkpt lat="42.77031" lon="-0.25637">
        <ele>2555.7</ele>
        <time>2018-12-27T12:02:07Z</time>
      </trkpt>
      <trkpt lat="42.77035" lon="-0.25636">
        <ele>2557</ele>
        <time>2018-12-27T12:02:08Z</time>
      </trkpt>
      <trkpt lat="42.77037" lon="-0.25633">
        <ele>2556.7</ele>
        <time>2018-12-27T12:02:09Z</time>
      </trkpt>
      <trkpt lat="42.77038" lon="-0.25632">
        <ele>2556.4</ele>
        <time>2018-12-27T12:02:09Z</time>
      </trkpt>
      <trkpt lat="42.77037" lon="-0.25629">
        <ele>2555</ele>
        <time>2018-12-27T12:02:10Z</time>
      </trkpt>
      <trkpt lat="42.77037" lon="-0.25627">
        <ele>2554.1</ele>
        <time>2018-12-27T12:02:10Z</time>
      </trkpt>
      <trkpt lat="42.77037" lon="-0.25626">
        <ele>2553.8</ele>
        <time>2018-12-27T12:02:11Z</time>
      </trkpt>
      <trkpt lat="42.77038" lon="-0.25621">
        <ele>2552.3</ele>
        <time>2018-12-27T12:02:12Z</time>
      </trkpt>
      <trkpt lat="42.77039" lon="-0.25619">
        <ele>2551.9</ele>
        <time>2018-12-27T12:02:12Z</time>
      </trkpt>
      <trkpt lat="42.77041" lon="-0.25615">
        <ele>2551.3</ele>
        <time>2018-12-27T12:02:13Z</time>
      </trkpt>
      <trkpt lat="42.7704" lon="-0.25612">
        <ele>2550</ele>
        <time>2018-12-27T12:02:14Z</time>
      </trkpt>
      <trkpt lat="42.7704" lon="-0.25609">
        <ele>2549</ele>
        <time>2018-12-27T12:02:14Z</time>
      </trkpt>
      <trkpt lat="42.77038" lon="-0.25608">
        <ele>2548</ele>
        <time>2018-12-27T12:02:15Z</time>
      </trkpt>
      <trkpt lat="42.77038" lon="-0.25602">
        <ele>2545.9</ele>
        <time>2018-12-27T12:02:16Z</time>
      </trkpt>
      <trkpt lat="42.77039" lon="-0.25599">
        <ele>2545.2</ele>
        <time>2018-12-27T12:02:16Z</time>
      </trkpt>
      <trkpt lat="42.7704" lon="-0.25597">
        <ele>2544.5</ele>
        <time>2018-12-27T12:02:17Z</time>
      </trkpt>
      <trkpt lat="42.77041" lon="-0.25593">
        <ele>2543.8</ele>
        <time>2018-12-27T12:02:18Z</time>
      </trkpt>
      <trkpt lat="42.77041" lon="-0.25592">
        <ele>2543.3</ele>
        <time>2018-12-27T12:02:18Z</time>
      </trkpt>
      <trkpt lat="42.77043" lon="-0.2559">
        <ele>2543.5</ele>
        <time>2018-12-27T12:02:19Z</time>
      </trkpt>
      <trkpt lat="42.77046" lon="-0.2559">
        <ele>2544.6</ele>
        <time>2018-12-27T12:02:19Z</time>
      </trkpt>
      <trkpt lat="42.77049" lon="-0.25591">
        <ele>2546.5</ele>
        <time>2018-12-27T12:02:20Z</time>
      </trkpt>
      <trkpt lat="42.77051" lon="-0.25587">
        <ele>2545.5</ele>
        <time>2018-12-27T12:02:21Z</time>
      </trkpt>
      <trkpt lat="42.77051" lon="-0.25584">
        <ele>2544.6</ele>
        <time>2018-12-27T12:02:22Z</time>
      </trkpt>
      <trkpt lat="42.77052" lon="-0.25582">
        <ele>2544.4</ele>
        <time>2018-12-27T12:02:22Z</time>
      </trkpt>
      <trkpt lat="42.77053" lon="-0.25579">
        <ele>2543.5</ele>
        <time>2018-12-27T12:02:23Z</time>
      </trkpt>
      <trkpt lat="42.77054" lon="-0.25577">
        <ele>2543.3</ele>
        <time>2018-12-27T12:02:23Z</time>
      </trkpt>
      <trkpt lat="42.77056" lon="-0.2557">
        <ele>2541.9</ele>
        <time>2018-12-27T12:02:25Z</time>
      </trkpt>
      <trkpt lat="42.77062" lon="-0.25564">
        <ele>2541.8</ele>
        <time>2018-12-27T12:02:27Z</time>
      </trkpt>
      <trkpt lat="42.77066" lon="-0.2556">
        <ele>2541.9</ele>
        <time>2018-12-27T12:02:28Z</time>
      </trkpt>
      <trkpt lat="42.77066" lon="-0.2556">
        <ele>2542</ele>
        <time>2018-12-27T12:02:28Z</time>
      </trkpt>
      <trkpt lat="42.77066" lon="-0.25558">
        <ele>2541.6</ele>
        <time>2018-12-27T12:02:29Z</time>
      </trkpt>
      <trkpt lat="42.77067" lon="-0.25555">
        <ele>2541</ele>
        <time>2018-12-27T12:02:29Z</time>
      </trkpt>
      <trkpt lat="42.77069" lon="-0.25549">
        <ele>2539.4</ele>
        <time>2018-12-27T12:02:30Z</time>
      </trkpt>
      <trkpt lat="42.77073" lon="-0.25543">
        <ele>2539</ele>
        <time>2018-12-27T12:02:32Z</time>
      </trkpt>
      <trkpt lat="42.77078" lon="-0.25531">
        <ele>2536.1</ele>
        <time>2018-12-27T12:02:35Z</time>
      </trkpt>
      <trkpt lat="42.77078" lon="-0.25525">
        <ele>2533.8</ele>
        <time>2018-12-27T12:02:36Z</time>
      </trkpt>
      <trkpt lat="42.77077" lon="-0.25513">
        <ele>2528.6</ele>
        <time>2018-12-27T12:02:38Z</time>
      </trkpt>
      <trkpt lat="42.77077" lon="-0.25501">
        <ele>2523.7</ele>
        <time>2018-12-27T12:02:41Z</time>
      </trkpt>
      <trkpt lat="42.77075" lon="-0.25493">
        <ele>2520</ele>
        <time>2018-12-27T12:02:42Z</time>
      </trkpt>
      <trkpt lat="42.77075" lon="-0.25494">
        <ele>2519.8</ele>
        <time>2018-12-27T12:02:42Z</time>
      </trkpt>
      <trkpt lat="42.77075" lon="-0.25489">
        <ele>2517.8</ele>
        <time>2018-12-27T12:02:43Z</time>
      </trkpt>
      <trkpt lat="42.77072" lon="-0.25472">
        <ele>2510.1</ele>
        <time>2018-12-27T12:02:47Z</time>
      </trkpt>
      <trkpt lat="42.7707" lon="-0.25461">
        <ele>2504.3</ele>
        <time>2018-12-27T12:02:49Z</time>
      </trkpt>
      <trkpt lat="42.77068" lon="-0.2546">
        <ele>2503.4</ele>
        <time>2018-12-27T12:02:50Z</time>
      </trkpt>
      <trkpt lat="42.77065" lon="-0.25456">
        <ele>2500.7</ele>
        <time>2018-12-27T12:02:51Z</time>
      </trkpt>
      <trkpt lat="42.77066" lon="-0.25444">
        <ele>2497.5</ele>
        <time>2018-12-27T12:02:53Z</time>
      </trkpt>
      <trkpt lat="42.77064" lon="-0.25432">
        <ele>2493</ele>
        <time>2018-12-27T12:02:55Z</time>
      </trkpt>
      <trkpt lat="42.77064" lon="-0.25429">
        <ele>2492</ele>
        <time>2018-12-27T12:02:56Z</time>
      </trkpt>
      <trkpt lat="42.77065" lon="-0.25423">
        <ele>2491.1</ele>
        <time>2018-12-27T12:02:57Z</time>
      </trkpt>
      <trkpt lat="42.77065" lon="-0.25419">
        <ele>2490.1</ele>
        <time>2018-12-27T12:02:58Z</time>
      </trkpt>
      <trkpt lat="42.77066" lon="-0.25418">
        <ele>2490.3</ele>
        <time>2018-12-27T12:02:58Z</time>
      </trkpt>
      <trkpt lat="42.77066" lon="-0.25413">
        <ele>2489</ele>
        <time>2018-12-27T12:02:59Z</time>
      </trkpt>
      <trkpt lat="42.77066" lon="-0.25412">
        <ele>2488.3</ele>
        <time>2018-12-27T12:02:59Z</time>
      </trkpt>
      <trkpt lat="42.77064" lon="-0.2541">
        <ele>2486.5</ele>
        <time>2018-12-27T12:03:00Z</time>
      </trkpt>
      <trkpt lat="42.77059" lon="-0.25409">
        <ele>2483.8</ele>
        <time>2018-12-27T12:03:01Z</time>
      </trkpt>
      <trkpt lat="42.77058" lon="-0.25402">
        <ele>2481</ele>
        <time>2018-12-27T12:03:03Z</time>
      </trkpt>
      <trkpt lat="42.77056" lon="-0.25396">
        <ele>2478</ele>
        <time>2018-12-27T12:03:04Z</time>
      </trkpt>
      <trkpt lat="42.77055" lon="-0.25391">
        <ele>2476.2</ele>
        <time>2018-12-27T12:03:05Z</time>
      </trkpt>
      <trkpt lat="42.77057" lon="-0.25384">
        <ele>2474.7</ele>
        <time>2018-12-27T12:03:06Z</time>
      </trkpt>
      <trkpt lat="42.77059" lon="-0.2537">
        <ele>2472.6</ele>
        <time>2018-12-27T12:03:09Z</time>
      </trkpt>
      <trkpt lat="42.77059" lon="-0.25366">
        <ele>2472</ele>
        <time>2018-12-27T12:03:10Z</time>
      </trkpt>
      <trkpt lat="42.7706" lon="-0.25362">
        <ele>2471.6</ele>
        <time>2018-12-27T12:03:11Z</time>
      </trkpt>
      <trkpt lat="42.77061" lon="-0.25359">
        <ele>2471.9</ele>
        <time>2018-12-27T12:03:12Z</time>
      </trkpt>
      <trkpt lat="42.77062" lon="-0.25356">
        <ele>2471.8</ele>
        <time>2018-12-27T12:03:12Z</time>
      </trkpt>
      <trkpt lat="42.77066" lon="-0.25348">
        <ele>2473.1</ele>
        <time>2018-12-27T12:03:14Z</time>
      </trkpt>
      <trkpt lat="42.77066" lon="-0.25346">
        <ele>2472.8</ele>
        <time>2018-12-27T12:03:15Z</time>
      </trkpt>
      <trkpt lat="42.77067" lon="-0.25341">
        <ele>2472</ele>
        <time>2018-12-27T12:03:15Z</time>
      </trkpt>
      <trkpt lat="42.77066" lon="-0.25339">
        <ele>2471.6</ele>
        <time>2018-12-27T12:03:16Z</time>
      </trkpt>
      <trkpt lat="42.77068" lon="-0.25336">
        <ele>2471.8</ele>
        <time>2018-12-27T12:03:17Z</time>
      </trkpt>
      <trkpt lat="42.77069" lon="-0.25329">
        <ele>2471.3</ele>
        <time>2018-12-27T12:03:18Z</time>
      </trkpt>
      <trkpt lat="42.7707" lon="-0.25322">
        <ele>2470.8</ele>
        <time>2018-12-27T12:03:19Z</time>
      </trkpt>
      <trkpt lat="42.77071" lon="-0.25318">
        <ele>2471.1</ele>
        <time>2018-12-27T12:03:20Z</time>
      </trkpt>
      <trkpt lat="42.77072" lon="-0.25316">
        <ele>2471.7</ele>
        <time>2018-12-27T12:03:21Z</time>
      </trkpt>
      <trkpt lat="42.77072" lon="-0.2531">
        <ele>2470.1</ele>
        <time>2018-12-27T12:03:22Z</time>
      </trkpt>
      <trkpt lat="42.77071" lon="-0.25301">
        <ele>2468.1</ele>
        <time>2018-12-27T12:03:24Z</time>
      </trkpt>
      <trkpt lat="42.77072" lon="-0.25298">
        <ele>2467.7</ele>
        <time>2018-12-27T12:03:24Z</time>
      </trkpt>
      <trkpt lat="42.77073" lon="-0.25282">
        <ele>2465.4</ele>
        <time>2018-12-27T12:03:27Z</time>
      </trkpt>
      <trkpt lat="42.77074" lon="-0.2528">
        <ele>2465.6</ele>
        <time>2018-12-27T12:03:28Z</time>
      </trkpt>
      <trkpt lat="42.77076" lon="-0.25276">
        <ele>2466</ele>
        <time>2018-12-27T12:03:29Z</time>
      </trkpt>
      <trkpt lat="42.7708" lon="-0.25268">
        <ele>2466.7</ele>
        <time>2018-12-27T12:03:31Z</time>
      </trkpt>
      <trkpt lat="42.77081" lon="-0.25264">
        <ele>2466.9</ele>
        <time>2018-12-27T12:03:32Z</time>
      </trkpt>
      <trkpt lat="42.77082" lon="-0.25258">
        <ele>2465.9</ele>
        <time>2018-12-27T12:03:33Z</time>
      </trkpt>
      <trkpt lat="42.77086" lon="-0.25249">
        <ele>2466.9</ele>
        <time>2018-12-27T12:03:35Z</time>
      </trkpt>
      <trkpt lat="42.77087" lon="-0.25243">
        <ele>2466.4</ele>
        <time>2018-12-27T12:03:36Z</time>
      </trkpt>
      <trkpt lat="42.7709" lon="-0.25231">
        <ele>2465.5</ele>
        <time>2018-12-27T12:03:38Z</time>
      </trkpt>
      <trkpt lat="42.77091" lon="-0.25218">
        <ele>2463.7</ele>
        <time>2018-12-27T12:03:41Z</time>
      </trkpt>
      <trkpt lat="42.7709" lon="-0.25203">
        <ele>2459.5</ele>
        <time>2018-12-27T12:03:44Z</time>
      </trkpt>
      <trkpt lat="42.77093" lon="-0.25191">
        <ele>2459.5</ele>
        <time>2018-12-27T12:03:47Z</time>
      </trkpt>
      <trkpt lat="42.77095" lon="-0.25172">
        <ele>2457.8</ele>
        <time>2018-12-27T12:03:50Z</time>
      </trkpt>
      <trkpt lat="42.77099" lon="-0.2516">
        <ele>2458.8</ele>
        <time>2018-12-27T12:03:53Z</time>
      </trkpt>
      <trkpt lat="42.77102" lon="-0.25146">
        <ele>2458.1</ele>
        <time>2018-12-27T12:03:56Z</time>
      </trkpt>
      <trkpt lat="42.77102" lon="-0.25142">
        <ele>2457.7</ele>
        <time>2018-12-27T12:03:56Z</time>
      </trkpt>
      <trkpt lat="42.77103" lon="-0.2514">
        <ele>2457.9</ele>
        <time>2018-12-27T12:03:57Z</time>
      </trkpt>
      <trkpt lat="42.77104" lon="-0.25138">
        <ele>2458.3</ele>
        <time>2018-12-27T12:03:57Z</time>
      </trkpt>
      <trkpt lat="42.77104" lon="-0.25136">
        <ele>2458.1</ele>
        <time>2018-12-27T12:03:58Z</time>
      </trkpt>
      <trkpt lat="42.77105" lon="-0.25132">
        <ele>2458.5</ele>
        <time>2018-12-27T12:03:58Z</time>
      </trkpt>
      <trkpt lat="42.77106" lon="-0.25132">
        <ele>2458.8</ele>
        <time>2018-12-27T12:03:59Z</time>
      </trkpt>
      <trkpt lat="42.77107" lon="-0.25131">
        <ele>2460.1</ele>
        <time>2018-12-27T12:03:59Z</time>
      </trkpt>
      <trkpt lat="42.77108" lon="-0.25129">
        <ele>2459.9</ele>
        <time>2018-12-27T12:03:59Z</time>
      </trkpt>
      <trkpt lat="42.77107" lon="-0.25125">
        <ele>2458.2</ele>
        <time>2018-12-27T12:04:00Z</time>
      </trkpt>
      <trkpt lat="42.77108" lon="-0.25117">
        <ele>2458.3</ele>
        <time>2018-12-27T12:04:02Z</time>
      </trkpt>
      <trkpt lat="42.77107" lon="-0.25115">
        <ele>2457</ele>
        <time>2018-12-27T12:04:02Z</time>
      </trkpt>
      <trkpt lat="42.77105" lon="-0.2511">
        <ele>2454.7</ele>
        <time>2018-12-27T12:04:03Z</time>
      </trkpt>
      <trkpt lat="42.77103" lon="-0.25101">
        <ele>2450.9</ele>
        <time>2018-12-27T12:04:05Z</time>
      </trkpt>
      <trkpt lat="42.77103" lon="-0.25099">
        <ele>2450.7</ele>
        <time>2018-12-27T12:04:06Z</time>
      </trkpt>
      <trkpt lat="42.77102" lon="-0.25093">
        <ele>2449</ele>
        <time>2018-12-27T12:04:07Z</time>
      </trkpt>
      <trkpt lat="42.77102" lon="-0.25088">
        <ele>2447.9</ele>
        <time>2018-12-27T12:04:08Z</time>
      </trkpt>
      <trkpt lat="42.771" lon="-0.25086">
        <ele>2446.5</ele>
        <time>2018-12-27T12:04:09Z</time>
      </trkpt>
      <trkpt lat="42.771" lon="-0.25084">
        <ele>2445.5</ele>
        <time>2018-12-27T12:04:09Z</time>
      </trkpt>
      <trkpt lat="42.77099" lon="-0.25083">
        <ele>2444.7</ele>
        <time>2018-12-27T12:04:09Z</time>
      </trkpt>
      <trkpt lat="42.77098" lon="-0.25074">
        <ele>2442.8</ele>
        <time>2018-12-27T12:04:11Z</time>
      </trkpt>
      <trkpt lat="42.771" lon="-0.25069">
        <ele>2442.8</ele>
        <time>2018-12-27T12:04:12Z</time>
      </trkpt>
      <trkpt lat="42.771" lon="-0.25067">
        <ele>2442.9</ele>
        <time>2018-12-27T12:04:12Z</time>
      </trkpt>
      <trkpt lat="42.77101" lon="-0.25059">
        <ele>2442.5</ele>
        <time>2018-12-27T12:04:14Z</time>
      </trkpt>
      <trkpt lat="42.77102" lon="-0.25057">
        <ele>2442.3</ele>
        <time>2018-12-27T12:04:14Z</time>
      </trkpt>
      <trkpt lat="42.77103" lon="-0.25053">
        <ele>2443.1</ele>
        <time>2018-12-27T12:04:15Z</time>
      </trkpt>
      <trkpt lat="42.77104" lon="-0.25046">
        <ele>2442.3</ele>
        <time>2018-12-27T12:04:17Z</time>
      </trkpt>
      <trkpt lat="42.77105" lon="-0.25044">
        <ele>2442.6</ele>
        <time>2018-12-27T12:04:17Z</time>
      </trkpt>
      <trkpt lat="42.77108" lon="-0.25039">
        <ele>2443.8</ele>
        <time>2018-12-27T12:04:18Z</time>
      </trkpt>
      <trkpt lat="42.77107" lon="-0.25037">
        <ele>2443.4</ele>
        <time>2018-12-27T12:04:19Z</time>
      </trkpt>
      <trkpt lat="42.77105" lon="-0.25034">
        <ele>2441.3</ele>
        <time>2018-12-27T12:04:20Z</time>
      </trkpt>
      <trkpt lat="42.77103" lon="-0.25029">
        <ele>2438.4</ele>
        <time>2018-12-27T12:04:21Z</time>
      </trkpt>
      <trkpt lat="42.77103" lon="-0.25025">
        <ele>2437.6</ele>
        <time>2018-12-27T12:04:22Z</time>
      </trkpt>
      <trkpt lat="42.77102" lon="-0.25024">
        <ele>2436.7</ele>
        <time>2018-12-27T12:04:22Z</time>
      </trkpt>
      <trkpt lat="42.77102" lon="-0.25023">
        <ele>2436.6</ele>
        <time>2018-12-27T12:04:22Z</time>
      </trkpt>
      <trkpt lat="42.77101" lon="-0.25021">
        <ele>2435.4</ele>
        <time>2018-12-27T12:04:23Z</time>
      </trkpt>
      <trkpt lat="42.77101" lon="-0.25018">
        <ele>2434.8</ele>
        <time>2018-12-27T12:04:23Z</time>
      </trkpt>
      <trkpt lat="42.77101" lon="-0.25013">
        <ele>2433.8</ele>
        <time>2018-12-27T12:04:24Z</time>
      </trkpt>
      <trkpt lat="42.77099" lon="-0.25011">
        <ele>2432.1</ele>
        <time>2018-12-27T12:04:25Z</time>
      </trkpt>
      <trkpt lat="42.77099" lon="-0.25009">
        <ele>2431.8</ele>
        <time>2018-12-27T12:04:25Z</time>
      </trkpt>
      <trkpt lat="42.77101" lon="-0.25008">
        <ele>2432.8</ele>
        <time>2018-12-27T12:04:26Z</time>
      </trkpt>
      <trkpt lat="42.77104" lon="-0.25005">
        <ele>2434.4</ele>
        <time>2018-12-27T12:04:27Z</time>
      </trkpt>
      <trkpt lat="42.77103" lon="-0.25003">
        <ele>2433.9</ele>
        <time>2018-12-27T12:04:27Z</time>
      </trkpt>
      <trkpt lat="42.77105" lon="-0.24999">
        <ele>2434.4</ele>
        <time>2018-12-27T12:04:28Z</time>
      </trkpt>
      <trkpt lat="42.77105" lon="-0.24997">
        <ele>2433.8</ele>
        <time>2018-12-27T12:04:28Z</time>
      </trkpt>
      <trkpt lat="42.77102" lon="-0.24995">
        <ele>2431.3</ele>
        <time>2018-12-27T12:04:29Z</time>
      </trkpt>
      <trkpt lat="42.77101" lon="-0.24992">
        <ele>2429.9</ele>
        <time>2018-12-27T12:04:30Z</time>
      </trkpt>
      <trkpt lat="42.771" lon="-0.24992">
        <ele>2429.6</ele>
        <time>2018-12-27T12:04:30Z</time>
      </trkpt>
      <trkpt lat="42.771" lon="-0.24989">
        <ele>2428.7</ele>
        <time>2018-12-27T12:04:31Z</time>
      </trkpt>
      <trkpt lat="42.77098" lon="-0.24988">
        <ele>2426.9</ele>
        <time>2018-12-27T12:04:31Z</time>
      </trkpt>
      <trkpt lat="42.77098" lon="-0.24988">
        <ele>2426.6</ele>
        <time>2018-12-27T12:04:31Z</time>
      </trkpt>
      <trkpt lat="42.77095" lon="-0.24987">
        <ele>2424.9</ele>
        <time>2018-12-27T12:04:32Z</time>
      </trkpt>
      <trkpt lat="42.77095" lon="-0.24986">
        <ele>2424.4</ele>
        <time>2018-12-27T12:04:32Z</time>
      </trkpt>
      <trkpt lat="42.77095" lon="-0.24982">
        <ele>2423.8</ele>
        <time>2018-12-27T12:04:33Z</time>
      </trkpt>
      <trkpt lat="42.77094" lon="-0.24982">
        <ele>2422.9</ele>
        <time>2018-12-27T12:04:33Z</time>
      </trkpt>
      <trkpt lat="42.77089" lon="-0.24985">
        <ele>2420.2</ele>
        <time>2018-12-27T12:04:35Z</time>
      </trkpt>
      <trkpt lat="42.77088" lon="-0.24983">
        <ele>2419</ele>
        <time>2018-12-27T12:04:35Z</time>
      </trkpt>
      <trkpt lat="42.77087" lon="-0.24982">
        <ele>2418.2</ele>
        <time>2018-12-27T12:04:35Z</time>
      </trkpt>
      <trkpt lat="42.77085" lon="-0.24984">
        <ele>2416.7</ele>
        <time>2018-12-27T12:04:36Z</time>
      </trkpt>
      <trkpt lat="42.77084" lon="-0.24984">
        <ele>2416.5</ele>
        <time>2018-12-27T12:04:36Z</time>
      </trkpt>
      <trkpt lat="42.77084" lon="-0.24983">
        <ele>2416.4</ele>
        <time>2018-12-27T12:04:37Z</time>
      </trkpt>
      <trkpt lat="42.77083" lon="-0.24982">
        <ele>2415.5</ele>
        <time>2018-12-27T12:04:37Z</time>
      </trkpt>
      <trkpt lat="42.77081" lon="-0.24981">
        <ele>2413.6</ele>
        <time>2018-12-27T12:04:38Z</time>
      </trkpt>
      <trkpt lat="42.77079" lon="-0.24982">
        <ele>2412.3</ele>
        <time>2018-12-27T12:04:38Z</time>
      </trkpt>
      <trkpt lat="42.77077" lon="-0.24982">
        <ele>2410.8</ele>
        <time>2018-12-27T12:04:39Z</time>
      </trkpt>
      <trkpt lat="42.77074" lon="-0.24977">
        <ele>2408.4</ele>
        <time>2018-12-27T12:04:40Z</time>
      </trkpt>
      <trkpt lat="42.77071" lon="-0.2498">
        <ele>2406.5</ele>
        <time>2018-12-27T12:04:41Z</time>
      </trkpt>
      <trkpt lat="42.7707" lon="-0.24981">
        <ele>2406</ele>
        <time>2018-12-27T12:04:41Z</time>
      </trkpt>
      <trkpt lat="42.77069" lon="-0.24982">
        <ele>2405.3</ele>
        <time>2018-12-27T12:04:42Z</time>
      </trkpt>
      <trkpt lat="42.77065" lon="-0.24988">
        <ele>2403.1</ele>
        <time>2018-12-27T12:04:43Z</time>
      </trkpt>
      <trkpt lat="42.77064" lon="-0.24988">
        <ele>2402.5</ele>
        <time>2018-12-27T12:04:44Z</time>
      </trkpt>
      <trkpt lat="42.77063" lon="-0.24983">
        <ele>2400.9</ele>
        <time>2018-12-27T12:04:45Z</time>
      </trkpt>
      <trkpt lat="42.77062" lon="-0.24982">
        <ele>2400</ele>
        <time>2018-12-27T12:04:45Z</time>
      </trkpt>
      <trkpt lat="42.77059" lon="-0.24974">
        <ele>2397.1</ele>
        <time>2018-12-27T12:04:47Z</time>
      </trkpt>
      <trkpt lat="42.77054" lon="-0.2498">
        <ele>2394.2</ele>
        <time>2018-12-27T12:04:48Z</time>
      </trkpt>
      <trkpt lat="42.77053" lon="-0.24981">
        <ele>2393.7</ele>
        <time>2018-12-27T12:04:49Z</time>
      </trkpt>
      <trkpt lat="42.77051" lon="-0.24981">
        <ele>2392.5</ele>
        <time>2018-12-27T12:04:49Z</time>
      </trkpt>
      <trkpt lat="42.77047" lon="-0.24982">
        <ele>2389.6</ele>
        <time>2018-12-27T12:04:50Z</time>
      </trkpt>
      <trkpt lat="42.77046" lon="-0.24983">
        <ele>2388.7</ele>
        <time>2018-12-27T12:04:51Z</time>
      </trkpt>
      <trkpt lat="42.77041" lon="-0.24985">
        <ele>2385.7</ele>
        <time>2018-12-27T12:04:52Z</time>
      </trkpt>
      <trkpt lat="42.77039" lon="-0.24984">
        <ele>2383.9</ele>
        <time>2018-12-27T12:04:52Z</time>
      </trkpt>
      <trkpt lat="42.77037" lon="-0.24981">
        <ele>2381.6</ele>
        <time>2018-12-27T12:04:53Z</time>
      </trkpt>
      <trkpt lat="42.77035" lon="-0.24976">
        <ele>2379</ele>
        <time>2018-12-27T12:04:54Z</time>
      </trkpt>
      <trkpt lat="42.77031" lon="-0.2497">
        <ele>2375.7</ele>
        <time>2018-12-27T12:04:56Z</time>
      </trkpt>
      <trkpt lat="42.77027" lon="-0.24969">
        <ele>2372.3</ele>
        <time>2018-12-27T12:04:57Z</time>
      </trkpt>
      <trkpt lat="42.77028" lon="-0.2497">
        <ele>2372.4</ele>
        <time>2018-12-27T12:04:57Z</time>
      </trkpt>
      <trkpt lat="42.77027" lon="-0.24971">
        <ele>2372.1</ele>
        <time>2018-12-27T12:04:57Z</time>
      </trkpt>
      <trkpt lat="42.77026" lon="-0.24975">
        <ele>2371.6</ele>
        <time>2018-12-27T12:04:58Z</time>
      </trkpt>
      <trkpt lat="42.77021" lon="-0.24979">
        <ele>2368.3</ele>
        <time>2018-12-27T12:05:00Z</time>
      </trkpt>
      <trkpt lat="42.77021" lon="-0.24983">
        <ele>2368.3</ele>
        <time>2018-12-27T12:05:00Z</time>
      </trkpt>
      <trkpt lat="42.7702" lon="-0.24981">
        <ele>2367.5</ele>
        <time>2018-12-27T12:05:01Z</time>
      </trkpt>
      <trkpt lat="42.77018" lon="-0.24986">
        <ele>2366.3</ele>
        <time>2018-12-27T12:05:02Z</time>
      </trkpt>
      <trkpt lat="42.77018" lon="-0.24986">
        <ele>2366.2</ele>
        <time>2018-12-27T12:05:02Z</time>
      </trkpt>
      <trkpt lat="42.77018" lon="-0.24985">
        <ele>2365.5</ele>
        <time>2018-12-27T12:05:02Z</time>
      </trkpt>
      <trkpt lat="42.77016" lon="-0.24983">
        <ele>2364.3</ele>
        <time>2018-12-27T12:05:02Z</time>
      </trkpt>
      <trkpt lat="42.77012" lon="-0.24978">
        <ele>2360.4</ele>
        <time>2018-12-27T12:05:04Z</time>
      </trkpt>
      <trkpt lat="42.7701" lon="-0.24981">
        <ele>2359</ele>
        <time>2018-12-27T12:05:05Z</time>
      </trkpt>
      <trkpt lat="42.7701" lon="-0.2498">
        <ele>2358.4</ele>
        <time>2018-12-27T12:05:05Z</time>
      </trkpt>
      <trkpt lat="42.77008" lon="-0.24979">
        <ele>2356.6</ele>
        <time>2018-12-27T12:05:05Z</time>
      </trkpt>
      <trkpt lat="42.77009" lon="-0.24976">
        <ele>2357.7</ele>
        <time>2018-12-27T12:05:06Z</time>
      </trkpt>
      <trkpt lat="42.77007" lon="-0.24979">
        <ele>2356.4</ele>
        <time>2018-12-27T12:05:07Z</time>
      </trkpt>
      <trkpt lat="42.77007" lon="-0.24978">
        <ele>2355.9</ele>
        <time>2018-12-27T12:05:07Z</time>
      </trkpt>
      <trkpt lat="42.77006" lon="-0.24976">
        <ele>2354.7</ele>
        <time>2018-12-27T12:05:08Z</time>
      </trkpt>
      <trkpt lat="42.77003" lon="-0.2498">
        <ele>2352.7</ele>
        <time>2018-12-27T12:05:09Z</time>
      </trkpt>
      <trkpt lat="42.77004" lon="-0.24975">
        <ele>2352.9</ele>
        <time>2018-12-27T12:05:10Z</time>
      </trkpt>
      <trkpt lat="42.77004" lon="-0.24972">
        <ele>2352.8</ele>
        <time>2018-12-27T12:05:10Z</time>
      </trkpt>
      <trkpt lat="42.77004" lon="-0.24971">
        <ele>2352.4</ele>
        <time>2018-12-27T12:05:11Z</time>
      </trkpt>
      <trkpt lat="42.77003" lon="-0.2497">
        <ele>2351.5</ele>
        <time>2018-12-27T12:05:11Z</time>
      </trkpt>
      <trkpt lat="42.77005" lon="-0.24965">
        <ele>2352.1</ele>
        <time>2018-12-27T12:05:12Z</time>
      </trkpt>
      <trkpt lat="42.77003" lon="-0.2496">
        <ele>2350.4</ele>
        <time>2018-12-27T12:05:13Z</time>
      </trkpt>
      <trkpt lat="42.77002" lon="-0.2496">
        <ele>2349.2</ele>
        <time>2018-12-27T12:05:13Z</time>
      </trkpt>
      <trkpt lat="42.76999" lon="-0.24961">
        <ele>2347.3</ele>
        <time>2018-12-27T12:05:14Z</time>
      </trkpt>
      <trkpt lat="42.76995" lon="-0.24963">
        <ele>2343.9</ele>
        <time>2018-12-27T12:05:15Z</time>
      </trkpt>
      <trkpt lat="42.76992" lon="-0.24962">
        <ele>2341.4</ele>
        <time>2018-12-27T12:05:16Z</time>
      </trkpt>
      <trkpt lat="42.76988" lon="-0.24957">
        <ele>2337.1</ele>
        <time>2018-12-27T12:05:18Z</time>
      </trkpt>
      <trkpt lat="42.76987" lon="-0.24953">
        <ele>2336.1</ele>
        <time>2018-12-27T12:05:18Z</time>
      </trkpt>
      <trkpt lat="42.76986" lon="-0.24946">
        <ele>2334.6</ele>
        <time>2018-12-27T12:05:20Z</time>
      </trkpt>
      <trkpt lat="42.76983" lon="-0.24937">
        <ele>2331.3</ele>
        <time>2018-12-27T12:05:22Z</time>
      </trkpt>
      <trkpt lat="42.76983" lon="-0.24935">
        <ele>2330.5</ele>
        <time>2018-12-27T12:05:22Z</time>
      </trkpt>
      <trkpt lat="42.76981" lon="-0.24935">
        <ele>2329.1</ele>
        <time>2018-12-27T12:05:23Z</time>
      </trkpt>
      <trkpt lat="42.76978" lon="-0.24931">
        <ele>2326.3</ele>
        <time>2018-12-27T12:05:24Z</time>
      </trkpt>
      <trkpt lat="42.76975" lon="-0.24925">
        <ele>2323</ele>
        <time>2018-12-27T12:05:25Z</time>
      </trkpt>
      <trkpt lat="42.76975" lon="-0.24915">
        <ele>2322.5</ele>
        <time>2018-12-27T12:05:27Z</time>
      </trkpt>
      <trkpt lat="42.76974" lon="-0.24912">
        <ele>2321.7</ele>
        <time>2018-12-27T12:05:28Z</time>
      </trkpt>
      <trkpt lat="42.76973" lon="-0.2491">
        <ele>2320.7</ele>
        <time>2018-12-27T12:05:28Z</time>
      </trkpt>
      <trkpt lat="42.76971" lon="-0.24908">
        <ele>2319</ele>
        <time>2018-12-27T12:05:29Z</time>
      </trkpt>
      <trkpt lat="42.76971" lon="-0.24907">
        <ele>2318.6</ele>
        <time>2018-12-27T12:05:29Z</time>
      </trkpt>
      <trkpt lat="42.76969" lon="-0.24905">
        <ele>2316.5</ele>
        <time>2018-12-27T12:05:30Z</time>
      </trkpt>
      <trkpt lat="42.76968" lon="-0.24902">
        <ele>2316</ele>
        <time>2018-12-27T12:05:31Z</time>
      </trkpt>
      <trkpt lat="42.76968" lon="-0.24901">
        <ele>2315.3</ele>
        <time>2018-12-27T12:05:31Z</time>
      </trkpt>
      <trkpt lat="42.76967" lon="-0.24899">
        <ele>2314.7</ele>
        <time>2018-12-27T12:05:31Z</time>
      </trkpt>
      <trkpt lat="42.76966" lon="-0.24893">
        <ele>2313.6</ele>
        <time>2018-12-27T12:05:32Z</time>
      </trkpt>
      <trkpt lat="42.76964" lon="-0.24886">
        <ele>2311.2</ele>
        <time>2018-12-27T12:05:34Z</time>
      </trkpt>
      <trkpt lat="42.76964" lon="-0.24884">
        <ele>2311.3</ele>
        <time>2018-12-27T12:05:34Z</time>
      </trkpt>
      <trkpt lat="42.76962" lon="-0.24876">
        <ele>2309</ele>
        <time>2018-12-27T12:05:36Z</time>
      </trkpt>
      <trkpt lat="42.76962" lon="-0.24872">
        <ele>2308.4</ele>
        <time>2018-12-27T12:05:37Z</time>
      </trkpt>
      <trkpt lat="42.76964" lon="-0.24867">
        <ele>2309.4</ele>
        <time>2018-12-27T12:05:38Z</time>
      </trkpt>
      <trkpt lat="42.76967" lon="-0.24865">
        <ele>2310.7</ele>
        <time>2018-12-27T12:05:39Z</time>
      </trkpt>
      <trkpt lat="42.76968" lon="-0.24862">
        <ele>2311.3</ele>
        <time>2018-12-27T12:05:39Z</time>
      </trkpt>
      <trkpt lat="42.76969" lon="-0.2486">
        <ele>2311.4</ele>
        <time>2018-12-27T12:05:40Z</time>
      </trkpt>
      <trkpt lat="42.7697" lon="-0.24853">
        <ele>2310.7</ele>
        <time>2018-12-27T12:05:41Z</time>
      </trkpt>
      <trkpt lat="42.76969" lon="-0.24844">
        <ele>2308.2</ele>
        <time>2018-12-27T12:05:43Z</time>
      </trkpt>
      <trkpt lat="42.76972" lon="-0.24836">
        <ele>2309.1</ele>
        <time>2018-12-27T12:05:45Z</time>
      </trkpt>
      <trkpt lat="42.76974" lon="-0.24832">
        <ele>2310.2</ele>
        <time>2018-12-27T12:05:46Z</time>
      </trkpt>
      <trkpt lat="42.76977" lon="-0.24828">
        <ele>2310.9</ele>
        <time>2018-12-27T12:05:47Z</time>
      </trkpt>
      <trkpt lat="42.76979" lon="-0.2482">
        <ele>2310.8</ele>
        <time>2018-12-27T12:05:49Z</time>
      </trkpt>
      <trkpt lat="42.76982" lon="-0.24813">
        <ele>2311.1</ele>
        <time>2018-12-27T12:05:50Z</time>
      </trkpt>
      <trkpt lat="42.76982" lon="-0.2481">
        <ele>2310.5</ele>
        <time>2018-12-27T12:05:51Z</time>
      </trkpt>
      <trkpt lat="42.76983" lon="-0.24807">
        <ele>2310.4</ele>
        <time>2018-12-27T12:05:51Z</time>
      </trkpt>
      <trkpt lat="42.76983" lon="-0.24805">
        <ele>2309.8</ele>
        <time>2018-12-27T12:05:52Z</time>
      </trkpt>
      <trkpt lat="42.76982" lon="-0.24802">
        <ele>2309</ele>
        <time>2018-12-27T12:05:52Z</time>
      </trkpt>
      <trkpt lat="42.76981" lon="-0.248">
        <ele>2307.6</ele>
        <time>2018-12-27T12:05:53Z</time>
      </trkpt>
      <trkpt lat="42.7698" lon="-0.24796">
        <ele>2306.5</ele>
        <time>2018-12-27T12:05:54Z</time>
      </trkpt>
      <trkpt lat="42.76976" lon="-0.24792">
        <ele>2303.1</ele>
        <time>2018-12-27T12:05:55Z</time>
      </trkpt>
      <trkpt lat="42.76977" lon="-0.24788">
        <ele>2302.5</ele>
        <time>2018-12-27T12:05:56Z</time>
      </trkpt>
      <trkpt lat="42.76978" lon="-0.24784">
        <ele>2302.3</ele>
        <time>2018-12-27T12:05:57Z</time>
      </trkpt>
      <trkpt lat="42.76983" lon="-0.24778">
        <ele>2303.4</ele>
        <time>2018-12-27T12:05:59Z</time>
      </trkpt>
      <trkpt lat="42.76986" lon="-0.24774">
        <ele>2304.1</ele>
        <time>2018-12-27T12:06:00Z</time>
      </trkpt>
      <trkpt lat="42.7699" lon="-0.24771">
        <ele>2305.1</ele>
        <time>2018-12-27T12:06:01Z</time>
      </trkpt>
      <trkpt lat="42.76993" lon="-0.2476">
        <ele>2303.7</ele>
        <time>2018-12-27T12:06:03Z</time>
      </trkpt>
      <trkpt lat="42.76996" lon="-0.24752">
        <ele>2302.4</ele>
        <time>2018-12-27T12:06:05Z</time>
      </trkpt>
      <trkpt lat="42.76999" lon="-0.24743">
        <ele>2301.5</ele>
        <time>2018-12-27T12:06:07Z</time>
      </trkpt>
      <trkpt lat="42.77002" lon="-0.24738">
        <ele>2301.3</ele>
        <time>2018-12-27T12:06:08Z</time>
      </trkpt>
      <trkpt lat="42.77004" lon="-0.24733">
        <ele>2300.4</ele>
        <time>2018-12-27T12:06:09Z</time>
      </trkpt>
      <trkpt lat="42.77004" lon="-0.24731">
        <ele>2300.1</ele>
        <time>2018-12-27T12:06:10Z</time>
      </trkpt>
      <trkpt lat="42.77007" lon="-0.24726">
        <ele>2299.4</ele>
        <time>2018-12-27T12:06:11Z</time>
      </trkpt>
      <trkpt lat="42.77008" lon="-0.24724">
        <ele>2299.2</ele>
        <time>2018-12-27T12:06:11Z</time>
      </trkpt>
      <trkpt lat="42.7701" lon="-0.24722">
        <ele>2299.5</ele>
        <time>2018-12-27T12:06:12Z</time>
      </trkpt>
      <trkpt lat="42.77013" lon="-0.24718">
        <ele>2299.5</ele>
        <time>2018-12-27T12:06:13Z</time>
      </trkpt>
      <trkpt lat="42.77017" lon="-0.24715">
        <ele>2300</ele>
        <time>2018-12-27T12:06:14Z</time>
      </trkpt>
      <trkpt lat="42.7702" lon="-0.24711">
        <ele>2300.1</ele>
        <time>2018-12-27T12:06:16Z</time>
      </trkpt>
      <trkpt lat="42.77021" lon="-0.24709">
        <ele>2300</ele>
        <time>2018-12-27T12:06:16Z</time>
      </trkpt>
      <trkpt lat="42.7702" lon="-0.24704">
        <ele>2298.2</ele>
        <time>2018-12-27T12:06:17Z</time>
      </trkpt>
      <trkpt lat="42.77021" lon="-0.24699">
        <ele>2297</ele>
        <time>2018-12-27T12:06:18Z</time>
      </trkpt>
      <trkpt lat="42.77023" lon="-0.24693">
        <ele>2296.2</ele>
        <time>2018-12-27T12:06:19Z</time>
      </trkpt>
      <trkpt lat="42.77024" lon="-0.24692">
        <ele>2296.4</ele>
        <time>2018-12-27T12:06:20Z</time>
      </trkpt>
      <trkpt lat="42.77027" lon="-0.24683">
        <ele>2295.3</ele>
        <time>2018-12-27T12:06:21Z</time>
      </trkpt>
      <trkpt lat="42.77028" lon="-0.24682">
        <ele>2295.1</ele>
        <time>2018-12-27T12:06:22Z</time>
      </trkpt>
      <trkpt lat="42.77029" lon="-0.24681">
        <ele>2295.3</ele>
        <time>2018-12-27T12:06:22Z</time>
      </trkpt>
      <trkpt lat="42.77034" lon="-0.24675">
        <ele>2295.8</ele>
        <time>2018-12-27T12:06:24Z</time>
      </trkpt>
      <trkpt lat="42.77037" lon="-0.24671">
        <ele>2295.8</ele>
        <time>2018-12-27T12:06:25Z</time>
      </trkpt>
      <trkpt lat="42.77038" lon="-0.24667">
        <ele>2295.2</ele>
        <time>2018-12-27T12:06:26Z</time>
      </trkpt>
      <trkpt lat="42.77045" lon="-0.2466">
        <ele>2296.1</ele>
        <time>2018-12-27T12:06:28Z</time>
      </trkpt>
      <trkpt lat="42.7705" lon="-0.24657">
        <ele>2297.2</ele>
        <time>2018-12-27T12:06:30Z</time>
      </trkpt>
      <trkpt lat="42.77052" lon="-0.24657">
        <ele>2297.8</ele>
        <time>2018-12-27T12:06:30Z</time>
      </trkpt>
      <trkpt lat="42.77056" lon="-0.24651">
        <ele>2297.6</ele>
        <time>2018-12-27T12:06:32Z</time>
      </trkpt>
      <trkpt lat="42.77057" lon="-0.24646">
        <ele>2297</ele>
        <time>2018-12-27T12:06:33Z</time>
      </trkpt>
      <trkpt lat="42.77061" lon="-0.24644">
        <ele>2298.2</ele>
        <time>2018-12-27T12:06:34Z</time>
      </trkpt>
      <trkpt lat="42.77066" lon="-0.2464">
        <ele>2299.1</ele>
        <time>2018-12-27T12:06:35Z</time>
      </trkpt>
      <trkpt lat="42.7707" lon="-0.24634">
        <ele>2298.9</ele>
        <time>2018-12-27T12:06:37Z</time>
      </trkpt>
      <trkpt lat="42.77072" lon="-0.24631">
        <ele>2299</ele>
        <time>2018-12-27T12:06:38Z</time>
      </trkpt>
      <trkpt lat="42.77074" lon="-0.24628">
        <ele>2299.2</ele>
        <time>2018-12-27T12:06:39Z</time>
      </trkpt>
      <trkpt lat="42.77077" lon="-0.24622">
        <ele>2299.1</ele>
        <time>2018-12-27T12:06:40Z</time>
      </trkpt>
      <trkpt lat="42.77082" lon="-0.24615">
        <ele>2299.7</ele>
        <time>2018-12-27T12:06:42Z</time>
      </trkpt>
      <trkpt lat="42.77083" lon="-0.24614">
        <ele>2299.9</ele>
        <time>2018-12-27T12:06:42Z</time>
      </trkpt>
      <trkpt lat="42.77086" lon="-0.24603">
        <ele>2299.4</ele>
        <time>2018-12-27T12:06:44Z</time>
      </trkpt>
      <trkpt lat="42.77088" lon="-0.24595">
        <ele>2299</ele>
        <time>2018-12-27T12:06:46Z</time>
      </trkpt>
      <trkpt lat="42.7709" lon="-0.24587">
        <ele>2298.5</ele>
        <time>2018-12-27T12:06:48Z</time>
      </trkpt>
      <trkpt lat="42.77093" lon="-0.24578">
        <ele>2298.2</ele>
        <time>2018-12-27T12:06:50Z</time>
      </trkpt>
      <trkpt lat="42.77096" lon="-0.2457">
        <ele>2298.3</ele>
        <time>2018-12-27T12:06:52Z</time>
      </trkpt>
      <trkpt lat="42.771" lon="-0.24564">
        <ele>2298.7</ele>
        <time>2018-12-27T12:06:53Z</time>
      </trkpt>
      <trkpt lat="42.771" lon="-0.24561">
        <ele>2298.6</ele>
        <time>2018-12-27T12:06:54Z</time>
      </trkpt>
      <trkpt lat="42.77105" lon="-0.2455">
        <ele>2298.7</ele>
        <time>2018-12-27T12:06:56Z</time>
      </trkpt>
      <trkpt lat="42.77101" lon="-0.2454">
        <ele>2295.6</ele>
        <time>2018-12-27T12:06:58Z</time>
      </trkpt>
      <trkpt lat="42.77096" lon="-0.24532">
        <ele>2291.4</ele>
        <time>2018-12-27T12:07:00Z</time>
      </trkpt>
      <trkpt lat="42.77095" lon="-0.24527">
        <ele>2289.7</ele>
        <time>2018-12-27T12:07:01Z</time>
      </trkpt>
      <trkpt lat="42.77095" lon="-0.24522">
        <ele>2288.6</ele>
        <time>2018-12-27T12:07:02Z</time>
      </trkpt>
      <trkpt lat="42.77096" lon="-0.24508">
        <ele>2285.7</ele>
        <time>2018-12-27T12:07:05Z</time>
      </trkpt>
      <trkpt lat="42.77092" lon="-0.24497">
        <ele>2281.5</ele>
        <time>2018-12-27T12:07:07Z</time>
      </trkpt>
      <trkpt lat="42.77091" lon="-0.24483">
        <ele>2278.1</ele>
        <time>2018-12-27T12:07:10Z</time>
      </trkpt>
      <trkpt lat="42.7709" lon="-0.24473">
        <ele>2275.4</ele>
        <time>2018-12-27T12:07:12Z</time>
      </trkpt>
      <trkpt lat="42.77089" lon="-0.24464">
        <ele>2273.2</ele>
        <time>2018-12-27T12:07:14Z</time>
      </trkpt>
      <trkpt lat="42.77088" lon="-0.24461">
        <ele>2272.3</ele>
        <time>2018-12-27T12:07:15Z</time>
      </trkpt>
      <trkpt lat="42.77092" lon="-0.24455">
        <ele>2272.9</ele>
        <time>2018-12-27T12:07:16Z</time>
      </trkpt>
      <trkpt lat="42.77094" lon="-0.24451">
        <ele>2273.9</ele>
        <time>2018-12-27T12:07:17Z</time>
      </trkpt>
      <trkpt lat="42.77094" lon="-0.2445">
        <ele>2274</ele>
        <time>2018-12-27T12:07:17Z</time>
      </trkpt>
      <trkpt lat="42.77093" lon="-0.24443">
        <ele>2273.2</ele>
        <time>2018-12-27T12:07:19Z</time>
      </trkpt>
      <trkpt lat="42.77097" lon="-0.24432">
        <ele>2274.6</ele>
        <time>2018-12-27T12:07:21Z</time>
      </trkpt>
      <trkpt lat="42.771" lon="-0.24428">
        <ele>2276.4</ele>
        <time>2018-12-27T12:07:22Z</time>
      </trkpt>
      <trkpt lat="42.77106" lon="-0.2443">
        <ele>2279.1</ele>
        <time>2018-12-27T12:07:24Z</time>
      </trkpt>
      <trkpt lat="42.77113" lon="-0.24429">
        <ele>2282.7</ele>
        <time>2018-12-27T12:07:26Z</time>
      </trkpt>
      <trkpt lat="42.77114" lon="-0.24428">
        <ele>2283.3</ele>
        <time>2018-12-27T12:07:26Z</time>
      </trkpt>
      <trkpt lat="42.77122" lon="-0.2443">
        <ele>2287.1</ele>
        <time>2018-12-27T12:07:28Z</time>
      </trkpt>
      <trkpt lat="42.77126" lon="-0.24426">
        <ele>2289</ele>
        <time>2018-12-27T12:07:29Z</time>
      </trkpt>
      <trkpt lat="42.77126" lon="-0.24423">
        <ele>2289.2</ele>
        <time>2018-12-27T12:07:30Z</time>
      </trkpt>
      <trkpt lat="42.77126" lon="-0.24422">
        <ele>2289.3</ele>
        <time>2018-12-27T12:07:30Z</time>
      </trkpt>
      <trkpt lat="42.77129" lon="-0.24419">
        <ele>2289.7</ele>
        <time>2018-12-27T12:07:31Z</time>
      </trkpt>
      <trkpt lat="42.77131" lon="-0.24414">
        <ele>2290.3</ele>
        <time>2018-12-27T12:07:32Z</time>
      </trkpt>
      <trkpt lat="42.77133" lon="-0.24403">
        <ele>2291.1</ele>
        <time>2018-12-27T12:07:34Z</time>
      </trkpt>
      <trkpt lat="42.77134" lon="-0.24402">
        <ele>2291.2</ele>
        <time>2018-12-27T12:07:35Z</time>
      </trkpt>
      <trkpt lat="42.77139" lon="-0.24399">
        <ele>2292</ele>
        <time>2018-12-27T12:07:36Z</time>
      </trkpt>
      <trkpt lat="42.77144" lon="-0.24394">
        <ele>2292.9</ele>
        <time>2018-12-27T12:07:38Z</time>
      </trkpt>
      <trkpt lat="42.77145" lon="-0.24393">
        <ele>2293</ele>
        <time>2018-12-27T12:07:38Z</time>
      </trkpt>
      <trkpt lat="42.77148" lon="-0.24389">
        <ele>2293.6</ele>
        <time>2018-12-27T12:07:39Z</time>
      </trkpt>
      <trkpt lat="42.77151" lon="-0.24386">
        <ele>2294</ele>
        <time>2018-12-27T12:07:40Z</time>
      </trkpt>
      <trkpt lat="42.77151" lon="-0.24381">
        <ele>2294.1</ele>
        <time>2018-12-27T12:07:41Z</time>
      </trkpt>
      <trkpt lat="42.77152" lon="-0.2438">
        <ele>2294.3</ele>
        <time>2018-12-27T12:07:41Z</time>
      </trkpt>
      <trkpt lat="42.77153" lon="-0.24373">
        <ele>2294.8</ele>
        <time>2018-12-27T12:07:43Z</time>
      </trkpt>
      <trkpt lat="42.77153" lon="-0.24372">
        <ele>2294.8</ele>
        <time>2018-12-27T12:07:43Z</time>
      </trkpt>
      <trkpt lat="42.77154" lon="-0.24363">
        <ele>2295.3</ele>
        <time>2018-12-27T12:07:45Z</time>
      </trkpt>
      <trkpt lat="42.77156" lon="-0.24355">
        <ele>2295.8</ele>
        <time>2018-12-27T12:07:47Z</time>
      </trkpt>
      <trkpt lat="42.77157" lon="-0.24348">
        <ele>2296.3</ele>
        <time>2018-12-27T12:07:48Z</time>
      </trkpt>
      <trkpt lat="42.77159" lon="-0.24347">
        <ele>2296.4</ele>
        <time>2018-12-27T12:07:48Z</time>
      </trkpt>
      <trkpt lat="42.77163" lon="-0.24338">
        <ele>2297.3</ele>
        <time>2018-12-27T12:07:50Z</time>
      </trkpt>
      <trkpt lat="42.77169" lon="-0.24328">
        <ele>2298.3</ele>
        <time>2018-12-27T12:07:53Z</time>
      </trkpt>
      <trkpt lat="42.77177" lon="-0.24318">
        <ele>2299.6</ele>
        <time>2018-12-27T12:07:56Z</time>
      </trkpt>
      <trkpt lat="42.77188" lon="-0.24307">
        <ele>2301.2</ele>
        <time>2018-12-27T12:08:00Z</time>
      </trkpt>
      <trkpt lat="42.77188" lon="-0.24303">
        <ele>2301.4</ele>
        <time>2018-12-27T12:08:00Z</time>
      </trkpt>
      <trkpt lat="42.77189" lon="-0.24301">
        <ele>2301.5</ele>
        <time>2018-12-27T12:08:01Z</time>
      </trkpt>
      <trkpt lat="42.77191" lon="-0.24299">
        <ele>2301.8</ele>
        <time>2018-12-27T12:08:01Z</time>
      </trkpt>
      <trkpt lat="42.77197" lon="-0.24295">
        <ele>2302.6</ele>
        <time>2018-12-27T12:08:03Z</time>
      </trkpt>
      <trkpt lat="42.772" lon="-0.2429">
        <ele>2303.3</ele>
        <time>2018-12-27T12:08:04Z</time>
      </trkpt>
      <trkpt lat="42.77202" lon="-0.24289">
        <ele>2303.6</ele>
        <time>2018-12-27T12:08:05Z</time>
      </trkpt>
      <trkpt lat="42.7721" lon="-0.24284">
        <ele>2304.7</ele>
        <time>2018-12-27T12:08:07Z</time>
      </trkpt>
      <trkpt lat="42.77212" lon="-0.24277">
        <ele>2305.3</ele>
        <time>2018-12-27T12:08:09Z</time>
      </trkpt>
      <trkpt lat="42.77211" lon="-0.24274">
        <ele>2305.6</ele>
        <time>2018-12-27T12:08:09Z</time>
      </trkpt>
      <trkpt lat="42.77211" lon="-0.24271">
        <ele>2305.7</ele>
        <time>2018-12-27T12:08:10Z</time>
      </trkpt>
      <trkpt lat="42.7721" lon="-0.24264">
        <ele>2306.4</ele>
        <time>2018-12-27T12:08:11Z</time>
      </trkpt>
      <trkpt lat="42.77211" lon="-0.24256">
        <ele>2307</ele>
        <time>2018-12-27T12:08:13Z</time>
      </trkpt>
      <trkpt lat="42.77216" lon="-0.24241">
        <ele>2308.3</ele>
        <time>2018-12-27T12:08:16Z</time>
      </trkpt>
      <trkpt lat="42.77218" lon="-0.24229">
        <ele>2309.3</ele>
        <time>2018-12-27T12:08:19Z</time>
      </trkpt>
      <trkpt lat="42.77222" lon="-0.24217">
        <ele>2310.2</ele>
        <time>2018-12-27T12:08:21Z</time>
      </trkpt>
      <trkpt lat="42.77223" lon="-0.24215">
        <ele>2310.5</ele>
        <time>2018-12-27T12:08:22Z</time>
      </trkpt>
      <trkpt lat="42.77223" lon="-0.24205">
        <ele>2311.2</ele>
        <time>2018-12-27T12:08:24Z</time>
      </trkpt>
      <trkpt lat="42.7722" lon="-0.24189">
        <ele>2312.1</ele>
        <time>2018-12-27T12:08:27Z</time>
      </trkpt>
      <trkpt lat="42.7722" lon="-0.24176">
        <ele>2312.9</ele>
        <time>2018-12-27T12:08:29Z</time>
      </trkpt>
      <trkpt lat="42.77218" lon="-0.24163">
        <ele>2313.4</ele>
        <time>2018-12-27T12:08:32Z</time>
      </trkpt>
      <trkpt lat="42.77217" lon="-0.24155">
        <ele>2313.8</ele>
        <time>2018-12-27T12:08:34Z</time>
      </trkpt>
      <trkpt lat="42.77217" lon="-0.24152">
        <ele>2314.1</ele>
        <time>2018-12-27T12:08:34Z</time>
      </trkpt>
      <trkpt lat="42.77215" lon="-0.24145">
        <ele>2314.3</ele>
        <time>2018-12-27T12:08:36Z</time>
      </trkpt>
      <trkpt lat="42.77214" lon="-0.24136">
        <ele>2314.8</ele>
        <time>2018-12-27T12:08:37Z</time>
      </trkpt>
      <trkpt lat="42.77212" lon="-0.2413">
        <ele>2315</ele>
        <time>2018-12-27T12:08:39Z</time>
      </trkpt>
      <trkpt lat="42.77211" lon="-0.24126">
        <ele>2315.1</ele>
        <time>2018-12-27T12:08:40Z</time>
      </trkpt>
      <trkpt lat="42.77208" lon="-0.24114">
        <ele>2314.8</ele>
        <time>2018-12-27T12:08:42Z</time>
      </trkpt>
      <trkpt lat="42.77207" lon="-0.24109">
        <ele>2314.5</ele>
        <time>2018-12-27T12:08:43Z</time>
      </trkpt>
      <trkpt lat="42.77204" lon="-0.24103">
        <ele>2314.1</ele>
        <time>2018-12-27T12:08:44Z</time>
      </trkpt>
      <trkpt lat="42.77202" lon="-0.24097">
        <ele>2313.6</ele>
        <time>2018-12-27T12:08:46Z</time>
      </trkpt>
      <trkpt lat="42.772" lon="-0.24093">
        <ele>2313</ele>
        <time>2018-12-27T12:08:47Z</time>
      </trkpt>
      <trkpt lat="42.77195" lon="-0.24081">
        <ele>2311.8</ele>
        <time>2018-12-27T12:08:49Z</time>
      </trkpt>
      <trkpt lat="42.77193" lon="-0.24071">
        <ele>2311</ele>
        <time>2018-12-27T12:08:51Z</time>
      </trkpt>
      <trkpt lat="42.77194" lon="-0.24062">
        <ele>2311.2</ele>
        <time>2018-12-27T12:08:53Z</time>
      </trkpt>
      <trkpt lat="42.77197" lon="-0.24056">
        <ele>2311.8</ele>
        <time>2018-12-27T12:08:55Z</time>
      </trkpt>
      <trkpt lat="42.77205" lon="-0.24049">
        <ele>2313.3</ele>
        <time>2018-12-27T12:08:57Z</time>
      </trkpt>
      <trkpt lat="42.77205" lon="-0.24043">
        <ele>2313.2</ele>
        <time>2018-12-27T12:08:58Z</time>
      </trkpt>
      <trkpt lat="42.77204" lon="-0.2404">
        <ele>2312.7</ele>
        <time>2018-12-27T12:08:59Z</time>
      </trkpt>
      <trkpt lat="42.77208" lon="-0.24032">
        <ele>2311.8</ele>
        <time>2018-12-27T12:09:01Z</time>
      </trkpt>
      <trkpt lat="42.77207" lon="-0.24023">
        <ele>2309.6</ele>
        <time>2018-12-27T12:09:02Z</time>
      </trkpt>
      <trkpt lat="42.77211" lon="-0.24019">
        <ele>2309.4</ele>
        <time>2018-12-27T12:09:04Z</time>
      </trkpt>
      <trkpt lat="42.77213" lon="-0.24019">
        <ele>2309.7</ele>
        <time>2018-12-27T12:09:04Z</time>
      </trkpt>
      <trkpt lat="42.77215" lon="-0.24017">
        <ele>2309.6</ele>
        <time>2018-12-27T12:09:05Z</time>
      </trkpt>
      <trkpt lat="42.77219" lon="-0.24015">
        <ele>2309.8</ele>
        <time>2018-12-27T12:09:06Z</time>
      </trkpt>
      <trkpt lat="42.77223" lon="-0.24011">
        <ele>2309.5</ele>
        <time>2018-12-27T12:09:07Z</time>
      </trkpt>
      <trkpt lat="42.77226" lon="-0.24009">
        <ele>2309.6</ele>
        <time>2018-12-27T12:09:08Z</time>
      </trkpt>
      <trkpt lat="42.77231" lon="-0.23996">
        <ele>2307.6</ele>
        <time>2018-12-27T12:09:11Z</time>
      </trkpt>
      <trkpt lat="42.77235" lon="-0.23976">
        <ele>2304</ele>
        <time>2018-12-27T12:09:15Z</time>
      </trkpt>
      <trkpt lat="42.77237" lon="-0.23969">
        <ele>2302.9</ele>
        <time>2018-12-27T12:09:17Z</time>
      </trkpt>
      <trkpt lat="42.7724" lon="-0.23962">
        <ele>2301.7</ele>
        <time>2018-12-27T12:09:18Z</time>
      </trkpt>
      <trkpt lat="42.77239" lon="-0.23955">
        <ele>2300.2</ele>
        <time>2018-12-27T12:09:20Z</time>
      </trkpt>
      <trkpt lat="42.77239" lon="-0.23953">
        <ele>2299.9</ele>
        <time>2018-12-27T12:09:20Z</time>
      </trkpt>
      <trkpt lat="42.7724" lon="-0.23951">
        <ele>2299.7</ele>
        <time>2018-12-27T12:09:21Z</time>
      </trkpt>
      <trkpt lat="42.77242" lon="-0.23947">
        <ele>2299.4</ele>
        <time>2018-12-27T12:09:22Z</time>
      </trkpt>
      <trkpt lat="42.77248" lon="-0.23946">
        <ele>2300.1</ele>
        <time>2018-12-27T12:09:23Z</time>
      </trkpt>
      <trkpt lat="42.77252" lon="-0.23939">
        <ele>2299.5</ele>
        <time>2018-12-27T12:09:25Z</time>
      </trkpt>
      <trkpt lat="42.77257" lon="-0.23934">
        <ele>2299.1</ele>
        <time>2018-12-27T12:09:27Z</time>
      </trkpt>
      <trkpt lat="42.77261" lon="-0.23924">
        <ele>2297.9</ele>
        <time>2018-12-27T12:09:29Z</time>
      </trkpt>
      <trkpt lat="42.77263" lon="-0.23916">
        <ele>2296.5</ele>
        <time>2018-12-27T12:09:30Z</time>
      </trkpt>
      <trkpt lat="42.77264" lon="-0.23913">
        <ele>2296.1</ele>
        <time>2018-12-27T12:09:31Z</time>
      </trkpt>
      <trkpt lat="42.77271" lon="-0.23904">
        <ele>2294.8</ele>
        <time>2018-12-27T12:09:34Z</time>
      </trkpt>
      <trkpt lat="42.77281" lon="-0.23903">
        <ele>2295.5</ele>
        <time>2018-12-27T12:09:36Z</time>
      </trkpt>
      <trkpt lat="42.77287" lon="-0.23903">
        <ele>2296.1</ele>
        <time>2018-12-27T12:09:38Z</time>
      </trkpt>
      <trkpt lat="42.77289" lon="-0.23902">
        <ele>2295.9</ele>
        <time>2018-12-27T12:09:39Z</time>
      </trkpt>
      <trkpt lat="42.77295" lon="-0.23896">
        <ele>2294.9</ele>
        <time>2018-12-27T12:09:40Z</time>
      </trkpt>
      <trkpt lat="42.77299" lon="-0.23894">
        <ele>2294.4</ele>
        <time>2018-12-27T12:09:42Z</time>
      </trkpt>
      <trkpt lat="42.773" lon="-0.23886">
        <ele>2292.4</ele>
        <time>2018-12-27T12:09:43Z</time>
      </trkpt>
      <trkpt lat="42.77302" lon="-0.23885">
        <ele>2292.2</ele>
        <time>2018-12-27T12:09:44Z</time>
      </trkpt>
      <trkpt lat="42.7731" lon="-0.23882">
        <ele>2290.9</ele>
        <time>2018-12-27T12:09:46Z</time>
      </trkpt>
      <trkpt lat="42.77317" lon="-0.23883">
        <ele>2291.1</ele>
        <time>2018-12-27T12:09:48Z</time>
      </trkpt>
      <trkpt lat="42.77324" lon="-0.23878">
        <ele>2289.1</ele>
        <time>2018-12-27T12:09:50Z</time>
      </trkpt>
      <trkpt lat="42.77332" lon="-0.23876">
        <ele>2287.8</ele>
        <time>2018-12-27T12:09:52Z</time>
      </trkpt>
      <trkpt lat="42.77333" lon="-0.23877">
        <ele>2288.3</ele>
        <time>2018-12-27T12:09:52Z</time>
      </trkpt>
      <trkpt lat="42.77337" lon="-0.23875">
        <ele>2287.2</ele>
        <time>2018-12-27T12:09:54Z</time>
      </trkpt>
      <trkpt lat="42.7734" lon="-0.23868">
        <ele>2285.7</ele>
        <time>2018-12-27T12:09:55Z</time>
      </trkpt>
      <trkpt lat="42.77346" lon="-0.23864">
        <ele>2284.6</ele>
        <time>2018-12-27T12:09:57Z</time>
      </trkpt>
      <trkpt lat="42.77349" lon="-0.23859">
        <ele>2283.6</ele>
        <time>2018-12-27T12:09:58Z</time>
      </trkpt>
      <trkpt lat="42.7735" lon="-0.23855">
        <ele>2282.5</ele>
        <time>2018-12-27T12:09:59Z</time>
      </trkpt>
      <trkpt lat="42.77354" lon="-0.23849">
        <ele>2281</ele>
        <time>2018-12-27T12:10:01Z</time>
      </trkpt>
      <trkpt lat="42.77358" lon="-0.23843">
        <ele>2279.6</ele>
        <time>2018-12-27T12:10:02Z</time>
      </trkpt>
      <trkpt lat="42.77358" lon="-0.2384">
        <ele>2278.8</ele>
        <time>2018-12-27T12:10:03Z</time>
      </trkpt>
      <trkpt lat="42.77359" lon="-0.23839">
        <ele>2278.5</ele>
        <time>2018-12-27T12:10:03Z</time>
      </trkpt>
      <trkpt lat="42.77363" lon="-0.23839">
        <ele>2278.2</ele>
        <time>2018-12-27T12:10:04Z</time>
      </trkpt>
      <trkpt lat="42.77373" lon="-0.2384">
        <ele>2277.7</ele>
        <time>2018-12-27T12:10:07Z</time>
      </trkpt>
      <trkpt lat="42.77375" lon="-0.23838">
        <ele>2277.2</ele>
        <time>2018-12-27T12:10:08Z</time>
      </trkpt>
      <trkpt lat="42.77377" lon="-0.23833">
        <ele>2275.7</ele>
        <time>2018-12-27T12:10:09Z</time>
      </trkpt>
      <trkpt lat="42.77378" lon="-0.23823">
        <ele>2273.3</ele>
        <time>2018-12-27T12:10:11Z</time>
      </trkpt>
      <trkpt lat="42.77377" lon="-0.23822">
        <ele>2273.1</ele>
        <time>2018-12-27T12:10:11Z</time>
      </trkpt>
      <trkpt lat="42.77377" lon="-0.23816">
        <ele>2272</ele>
        <time>2018-12-27T12:10:12Z</time>
      </trkpt>
      <trkpt lat="42.77377" lon="-0.23813">
        <ele>2271.3</ele>
        <time>2018-12-27T12:10:13Z</time>
      </trkpt>
      <trkpt lat="42.77379" lon="-0.23801">
        <ele>2268.2</ele>
        <time>2018-12-27T12:10:15Z</time>
      </trkpt>
      <trkpt lat="42.77381" lon="-0.23795">
        <ele>2266.6</ele>
        <time>2018-12-27T12:10:16Z</time>
      </trkpt>
      <trkpt lat="42.77385" lon="-0.23791">
        <ele>2264.9</ele>
        <time>2018-12-27T12:10:18Z</time>
      </trkpt>
      <trkpt lat="42.77387" lon="-0.23788">
        <ele>2264</ele>
        <time>2018-12-27T12:10:19Z</time>
      </trkpt>
      <trkpt lat="42.77392" lon="-0.23775">
        <ele>2261.1</ele>
        <time>2018-12-27T12:10:21Z</time>
      </trkpt>
      <trkpt lat="42.77393" lon="-0.23768">
        <ele>2259.7</ele>
        <time>2018-12-27T12:10:23Z</time>
      </trkpt>
      <trkpt lat="42.77398" lon="-0.23759">
        <ele>2257.6</ele>
        <time>2018-12-27T12:10:25Z</time>
      </trkpt>
      <trkpt lat="42.77398" lon="-0.23748">
        <ele>2255.7</ele>
        <time>2018-12-27T12:10:27Z</time>
      </trkpt>
      <trkpt lat="42.77395" lon="-0.23735">
        <ele>2254.3</ele>
        <time>2018-12-27T12:10:30Z</time>
      </trkpt>
      <trkpt lat="42.77395" lon="-0.23721">
        <ele>2252</ele>
        <time>2018-12-27T12:10:33Z</time>
      </trkpt>
      <trkpt lat="42.77395" lon="-0.23718">
        <ele>2251.6</ele>
        <time>2018-12-27T12:10:33Z</time>
      </trkpt>
      <trkpt lat="42.77398" lon="-0.23714">
        <ele>2250.6</ele>
        <time>2018-12-27T12:10:34Z</time>
      </trkpt>
      <trkpt lat="42.77403" lon="-0.2371">
        <ele>2249.6</ele>
        <time>2018-12-27T12:10:36Z</time>
      </trkpt>
      <trkpt lat="42.77409" lon="-0.23705">
        <ele>2248</ele>
        <time>2018-12-27T12:10:38Z</time>
      </trkpt>
      <trkpt lat="42.77411" lon="-0.23703">
        <ele>2247.5</ele>
        <time>2018-12-27T12:10:38Z</time>
      </trkpt>
      <trkpt lat="42.77412" lon="-0.23695">
        <ele>2245.9</ele>
        <time>2018-12-27T12:10:40Z</time>
      </trkpt>
      <trkpt lat="42.77411" lon="-0.23692">
        <ele>2245.4</ele>
        <time>2018-12-27T12:10:41Z</time>
      </trkpt>
      <trkpt lat="42.77412" lon="-0.23685">
        <ele>2243.7</ele>
        <time>2018-12-27T12:10:42Z</time>
      </trkpt>
      <trkpt lat="42.77414" lon="-0.2368">
        <ele>2242.6</ele>
        <time>2018-12-27T12:10:43Z</time>
      </trkpt>
      <trkpt lat="42.77416" lon="-0.23679">
        <ele>2242.3</ele>
        <time>2018-12-27T12:10:44Z</time>
      </trkpt>
      <trkpt lat="42.77419" lon="-0.23672">
        <ele>2240.8</ele>
        <time>2018-12-27T12:10:45Z</time>
      </trkpt>
      <trkpt lat="42.77421" lon="-0.23664">
        <ele>2239.3</ele>
        <time>2018-12-27T12:10:47Z</time>
      </trkpt>
      <trkpt lat="42.77424" lon="-0.23656">
        <ele>2237.8</ele>
        <time>2018-12-27T12:10:49Z</time>
      </trkpt>
      <trkpt lat="42.77425" lon="-0.23647">
        <ele>2236.2</ele>
        <time>2018-12-27T12:10:50Z</time>
      </trkpt>
      <trkpt lat="42.77428" lon="-0.23639">
        <ele>2234.5</ele>
        <time>2018-12-27T12:10:52Z</time>
      </trkpt>
      <trkpt lat="42.77428" lon="-0.23629">
        <ele>2232.8</ele>
        <time>2018-12-27T12:10:54Z</time>
      </trkpt>
      <trkpt lat="42.77427" lon="-0.23615">
        <ele>2229</ele>
        <time>2018-12-27T12:10:57Z</time>
      </trkpt>
      <trkpt lat="42.77428" lon="-0.23612">
        <ele>2228</ele>
        <time>2018-12-27T12:10:58Z</time>
      </trkpt>
      <trkpt lat="42.7743" lon="-0.2361">
        <ele>2227.4</ele>
        <time>2018-12-27T12:10:58Z</time>
      </trkpt>
      <trkpt lat="42.77429" lon="-0.23608">
        <ele>2226.7</ele>
        <time>2018-12-27T12:10:58Z</time>
      </trkpt>
      <trkpt lat="42.7743" lon="-0.23603">
        <ele>2225.2</ele>
        <time>2018-12-27T12:11:00Z</time>
      </trkpt>
      <trkpt lat="42.77428" lon="-0.23596">
        <ele>2223.3</ele>
        <time>2018-12-27T12:11:01Z</time>
      </trkpt>
      <trkpt lat="42.77428" lon="-0.23587">
        <ele>2220.5</ele>
        <time>2018-12-27T12:11:03Z</time>
      </trkpt>
      <trkpt lat="42.77429" lon="-0.23582">
        <ele>2218.9</ele>
        <time>2018-12-27T12:11:04Z</time>
      </trkpt>
      <trkpt lat="42.77431" lon="-0.23574">
        <ele>2216.5</ele>
        <time>2018-12-27T12:11:05Z</time>
      </trkpt>
      <trkpt lat="42.77438" lon="-0.23571">
        <ele>2216.2</ele>
        <time>2018-12-27T12:11:08Z</time>
      </trkpt>
      <trkpt lat="42.7744" lon="-0.2357">
        <ele>2216</ele>
        <time>2018-12-27T12:11:08Z</time>
      </trkpt>
      <trkpt lat="42.77444" lon="-0.23563">
        <ele>2214.3</ele>
        <time>2018-12-27T12:11:10Z</time>
      </trkpt>
      <trkpt lat="42.77446" lon="-0.23563">
        <ele>2214.4</ele>
        <time>2018-12-27T12:11:10Z</time>
      </trkpt>
      <trkpt lat="42.7745" lon="-0.23558">
        <ele>2213.5</ele>
        <time>2018-12-27T12:11:12Z</time>
      </trkpt>
      <trkpt lat="42.77456" lon="-0.23555">
        <ele>2213.3</ele>
        <time>2018-12-27T12:11:13Z</time>
      </trkpt>
      <trkpt lat="42.77459" lon="-0.23552">
        <ele>2212.9</ele>
        <time>2018-12-27T12:11:14Z</time>
      </trkpt>
      <trkpt lat="42.77463" lon="-0.23552">
        <ele>2212.4</ele>
        <time>2018-12-27T12:11:16Z</time>
      </trkpt>
      <trkpt lat="42.77464" lon="-0.23551">
        <ele>2212.2</ele>
        <time>2018-12-27T12:11:16Z</time>
      </trkpt>
      <trkpt lat="42.77469" lon="-0.23548">
        <ele>2210.7</ele>
        <time>2018-12-27T12:11:17Z</time>
      </trkpt>
      <trkpt lat="42.77476" lon="-0.23541">
        <ele>2208.1</ele>
        <time>2018-12-27T12:11:20Z</time>
      </trkpt>
      <trkpt lat="42.7748" lon="-0.23539">
        <ele>2207.2</ele>
        <time>2018-12-27T12:11:21Z</time>
      </trkpt>
      <trkpt lat="42.77483" lon="-0.23542">
        <ele>2208.3</ele>
        <time>2018-12-27T12:11:22Z</time>
      </trkpt>
      <trkpt lat="42.77485" lon="-0.23541">
        <ele>2207.6</ele>
        <time>2018-12-27T12:11:22Z</time>
      </trkpt>
      <trkpt lat="42.77487" lon="-0.23542">
        <ele>2207.7</ele>
        <time>2018-12-27T12:11:23Z</time>
      </trkpt>
      <trkpt lat="42.77488" lon="-0.23543">
        <ele>2207.8</ele>
        <time>2018-12-27T12:11:23Z</time>
      </trkpt>
      <trkpt lat="42.7749" lon="-0.23545">
        <ele>2208.4</ele>
        <time>2018-12-27T12:11:24Z</time>
      </trkpt>
      <trkpt lat="42.77492" lon="-0.23546">
        <ele>2208.5</ele>
        <time>2018-12-27T12:11:24Z</time>
      </trkpt>
      <trkpt lat="42.775" lon="-0.23544">
        <ele>2207.4</ele>
        <time>2018-12-27T12:11:26Z</time>
      </trkpt>
      <trkpt lat="42.77509" lon="-0.23538">
        <ele>2203.9</ele>
        <time>2018-12-27T12:11:29Z</time>
      </trkpt>
      <trkpt lat="42.77511" lon="-0.23538">
        <ele>2203.8</ele>
        <time>2018-12-27T12:11:30Z</time>
      </trkpt>
      <trkpt lat="42.77511" lon="-0.23538">
        <ele>2203.9</ele>
        <time>2018-12-27T12:11:30Z</time>
      </trkpt>
      <trkpt lat="42.77518" lon="-0.23538">
        <ele>2203.1</ele>
        <time>2018-12-27T12:11:32Z</time>
      </trkpt>
      <trkpt lat="42.77519" lon="-0.23538">
        <ele>2203.4</ele>
        <time>2018-12-27T12:11:32Z</time>
      </trkpt>
      <trkpt lat="42.77524" lon="-0.23539">
        <ele>2203.4</ele>
        <time>2018-12-27T12:11:33Z</time>
      </trkpt>
      <trkpt lat="42.7753" lon="-0.2354">
        <ele>2203.1</ele>
        <time>2018-12-27T12:11:35Z</time>
      </trkpt>
      <trkpt lat="42.77535" lon="-0.23542">
        <ele>2203.8</ele>
        <time>2018-12-27T12:11:36Z</time>
      </trkpt>
      <trkpt lat="42.7754" lon="-0.23543">
        <ele>2203.7</ele>
        <time>2018-12-27T12:11:38Z</time>
      </trkpt>
      <trkpt lat="42.77542" lon="-0.23542">
        <ele>2203</ele>
        <time>2018-12-27T12:11:38Z</time>
      </trkpt>
      <trkpt lat="42.77548" lon="-0.2354">
        <ele>2203.2</ele>
        <time>2018-12-27T12:11:40Z</time>
      </trkpt>
      <trkpt lat="42.77554" lon="-0.23537">
        <ele>2202.4</ele>
        <time>2018-12-27T12:11:41Z</time>
      </trkpt>
      <trkpt lat="42.77554" lon="-0.23538">
        <ele>2202.8</ele>
        <time>2018-12-27T12:11:42Z</time>
      </trkpt>
      <trkpt lat="42.77556" lon="-0.23537">
        <ele>2202.7</ele>
        <time>2018-12-27T12:11:42Z</time>
      </trkpt>
      <trkpt lat="42.77557" lon="-0.23536">
        <ele>2202.4</ele>
        <time>2018-12-27T12:11:42Z</time>
      </trkpt>
      <trkpt lat="42.77559" lon="-0.23534">
        <ele>2201.7</ele>
        <time>2018-12-27T12:11:43Z</time>
      </trkpt>
      <trkpt lat="42.7756" lon="-0.23533">
        <ele>2201.1</ele>
        <time>2018-12-27T12:11:44Z</time>
      </trkpt>
      <trkpt lat="42.77562" lon="-0.23531">
        <ele>2200.5</ele>
        <time>2018-12-27T12:11:44Z</time>
      </trkpt>
      <trkpt lat="42.77563" lon="-0.2353">
        <ele>2200.1</ele>
        <time>2018-12-27T12:11:44Z</time>
      </trkpt>
      <trkpt lat="42.77565" lon="-0.2353">
        <ele>2200.3</ele>
        <time>2018-12-27T12:11:45Z</time>
      </trkpt>
      <trkpt lat="42.77566" lon="-0.23531">
        <ele>2200.9</ele>
        <time>2018-12-27T12:11:45Z</time>
      </trkpt>
      <trkpt lat="42.77568" lon="-0.2353">
        <ele>2200.8</ele>
        <time>2018-12-27T12:11:46Z</time>
      </trkpt>
      <trkpt lat="42.77575" lon="-0.23527">
        <ele>2199.9</ele>
        <time>2018-12-27T12:11:48Z</time>
      </trkpt>
      <trkpt lat="42.7758" lon="-0.23527">
        <ele>2200.8</ele>
        <time>2018-12-27T12:11:49Z</time>
      </trkpt>
      <trkpt lat="42.77587" lon="-0.23524">
        <ele>2199.8</ele>
        <time>2018-12-27T12:11:51Z</time>
      </trkpt>
      <trkpt lat="42.7759" lon="-0.23522">
        <ele>2198.8</ele>
        <time>2018-12-27T12:11:52Z</time>
      </trkpt>
      <trkpt lat="42.77592" lon="-0.23518">
        <ele>2196.6</ele>
        <time>2018-12-27T12:11:53Z</time>
      </trkpt>
      <trkpt lat="42.77593" lon="-0.23508">
        <ele>2191.2</ele>
        <time>2018-12-27T12:11:55Z</time>
      </trkpt>
      <trkpt lat="42.77593" lon="-0.23506">
        <ele>2190.6</ele>
        <time>2018-12-27T12:11:55Z</time>
      </trkpt>
      <trkpt lat="42.77597" lon="-0.23506">
        <ele>2190.6</ele>
        <time>2018-12-27T12:11:56Z</time>
      </trkpt>
      <trkpt lat="42.77597" lon="-0.23504">
        <ele>2189.1</ele>
        <time>2018-12-27T12:11:57Z</time>
      </trkpt>
      <trkpt lat="42.77598" lon="-0.23503">
        <ele>2188.8</ele>
        <time>2018-12-27T12:11:57Z</time>
      </trkpt>
      <trkpt lat="42.77597" lon="-0.23497">
        <ele>2185.4</ele>
        <time>2018-12-27T12:11:58Z</time>
      </trkpt>
      <trkpt lat="42.77596" lon="-0.23494">
        <ele>2183.9</ele>
        <time>2018-12-27T12:11:59Z</time>
      </trkpt>
      <trkpt lat="42.77597" lon="-0.2349">
        <ele>2181.7</ele>
        <time>2018-12-27T12:11:59Z</time>
      </trkpt>
      <trkpt lat="42.77596" lon="-0.23481">
        <ele>2176.2</ele>
        <time>2018-12-27T12:12:01Z</time>
      </trkpt>
      <trkpt lat="42.77601" lon="-0.23474">
        <ele>2172.5</ele>
        <time>2018-12-27T12:12:03Z</time>
      </trkpt>
      <trkpt lat="42.77607" lon="-0.23466">
        <ele>2168.2</ele>
        <time>2018-12-27T12:12:05Z</time>
      </trkpt>
      <trkpt lat="42.77611" lon="-0.2346">
        <ele>2164.5</ele>
        <time>2018-12-27T12:12:07Z</time>
      </trkpt>
      <trkpt lat="42.77613" lon="-0.23459">
        <ele>2163.9</ele>
        <time>2018-12-27T12:12:07Z</time>
      </trkpt>
      <trkpt lat="42.77617" lon="-0.23446">
        <ele>2159.4</ele>
        <time>2018-12-27T12:12:10Z</time>
      </trkpt>
      <trkpt lat="42.77619" lon="-0.23434">
        <ele>2154.7</ele>
        <time>2018-12-27T12:12:13Z</time>
      </trkpt>
      <trkpt lat="42.77619" lon="-0.23431">
        <ele>2153.9</ele>
        <time>2018-12-27T12:12:13Z</time>
      </trkpt>
      <trkpt lat="42.77621" lon="-0.23428">
        <ele>2152.6</ele>
        <time>2018-12-27T12:12:14Z</time>
      </trkpt>
      <trkpt lat="42.77622" lon="-0.23429">
        <ele>2153.1</ele>
        <time>2018-12-27T12:12:14Z</time>
      </trkpt>
      <trkpt lat="42.77627" lon="-0.23429">
        <ele>2153.3</ele>
        <time>2018-12-27T12:12:15Z</time>
      </trkpt>
      <trkpt lat="42.77628" lon="-0.23428">
        <ele>2153.6</ele>
        <time>2018-12-27T12:12:16Z</time>
      </trkpt>
      <trkpt lat="42.77629" lon="-0.23427">
        <ele>2153.2</ele>
        <time>2018-12-27T12:12:16Z</time>
      </trkpt>
      <trkpt lat="42.7763" lon="-0.23425">
        <ele>2152.9</ele>
        <time>2018-12-27T12:12:17Z</time>
      </trkpt>
      <trkpt lat="42.77629" lon="-0.23416">
        <ele>2149.2</ele>
        <time>2018-12-27T12:12:18Z</time>
      </trkpt>
      <trkpt lat="42.77632" lon="-0.23406">
        <ele>2146.2</ele>
        <time>2018-12-27T12:12:21Z</time>
      </trkpt>
      <trkpt lat="42.77634" lon="-0.23403">
        <ele>2145.4</ele>
        <time>2018-12-27T12:12:21Z</time>
      </trkpt>
      <trkpt lat="42.77635" lon="-0.234">
        <ele>2144.8</ele>
        <time>2018-12-27T12:12:22Z</time>
      </trkpt>
      <trkpt lat="42.77641" lon="-0.23397">
        <ele>2145.5</ele>
        <time>2018-12-27T12:12:24Z</time>
      </trkpt>
      <trkpt lat="42.77643" lon="-0.23397">
        <ele>2146.2</ele>
        <time>2018-12-27T12:12:24Z</time>
      </trkpt>
      <trkpt lat="42.77646" lon="-0.23395">
        <ele>2146.5</ele>
        <time>2018-12-27T12:12:25Z</time>
      </trkpt>
      <trkpt lat="42.77653" lon="-0.23394">
        <ele>2148.1</ele>
        <time>2018-12-27T12:12:27Z</time>
      </trkpt>
      <trkpt lat="42.77659" lon="-0.23395">
        <ele>2150.4</ele>
        <time>2018-12-27T12:12:29Z</time>
      </trkpt>
      <trkpt lat="42.77666" lon="-0.23393">
        <ele>2151.5</ele>
        <time>2018-12-27T12:12:31Z</time>
      </trkpt>
      <trkpt lat="42.77671" lon="-0.23392">
        <ele>2153.1</ele>
        <time>2018-12-27T12:12:32Z</time>
      </trkpt>
      <trkpt lat="42.77672" lon="-0.23392">
        <ele>2153.2</ele>
        <time>2018-12-27T12:12:32Z</time>
      </trkpt>
      <trkpt lat="42.77681" lon="-0.23389">
        <ele>2154.6</ele>
        <time>2018-12-27T12:12:35Z</time>
      </trkpt>
      <trkpt lat="42.77681" lon="-0.23386">
        <ele>2153.6</ele>
        <time>2018-12-27T12:12:35Z</time>
      </trkpt>
      <trkpt lat="42.77683" lon="-0.23383">
        <ele>2152.7</ele>
        <time>2018-12-27T12:12:36Z</time>
      </trkpt>
      <trkpt lat="42.77687" lon="-0.23376">
        <ele>2150.9</ele>
        <time>2018-12-27T12:12:38Z</time>
      </trkpt>
      <trkpt lat="42.77689" lon="-0.23374">
        <ele>2150.7</ele>
        <time>2018-12-27T12:12:38Z</time>
      </trkpt>
      <trkpt lat="42.77699" lon="-0.2337">
        <ele>2152.6</ele>
        <time>2018-12-27T12:12:41Z</time>
      </trkpt>
      <trkpt lat="42.77704" lon="-0.23365">
        <ele>2152.7</ele>
        <time>2018-12-27T12:12:43Z</time>
      </trkpt>
      <trkpt lat="42.77711" lon="-0.23366">
        <ele>2154.5</ele>
        <time>2018-12-27T12:12:45Z</time>
      </trkpt>
      <trkpt lat="42.77712" lon="-0.23366">
        <ele>2154.5</ele>
        <time>2018-12-27T12:12:45Z</time>
      </trkpt>
      <trkpt lat="42.77716" lon="-0.23364">
        <ele>2153.9</ele>
        <time>2018-12-27T12:12:46Z</time>
      </trkpt>
      <trkpt lat="42.77717" lon="-0.23364">
        <ele>2154</ele>
        <time>2018-12-27T12:12:46Z</time>
      </trkpt>
      <trkpt lat="42.77721" lon="-0.23363">
        <ele>2153.8</ele>
        <time>2018-12-27T12:12:47Z</time>
      </trkpt>
      <trkpt lat="42.77722" lon="-0.23363">
        <ele>2153.9</ele>
        <time>2018-12-27T12:12:48Z</time>
      </trkpt>
      <trkpt lat="42.77728" lon="-0.23364">
        <ele>2154.2</ele>
        <time>2018-12-27T12:12:49Z</time>
      </trkpt>
      <trkpt lat="42.77728" lon="-0.23364">
        <ele>2154.4</ele>
        <time>2018-12-27T12:12:49Z</time>
      </trkpt>
      <trkpt lat="42.77729" lon="-0.23365">
        <ele>2154.8</ele>
        <time>2018-12-27T12:12:50Z</time>
      </trkpt>
      <trkpt lat="42.7773" lon="-0.23367">
        <ele>2155.2</ele>
        <time>2018-12-27T12:12:50Z</time>
      </trkpt>
      <trkpt lat="42.7773" lon="-0.23369">
        <ele>2155.7</ele>
        <time>2018-12-27T12:12:51Z</time>
      </trkpt>
      <trkpt lat="42.77732" lon="-0.23371">
        <ele>2156.3</ele>
        <time>2018-12-27T12:12:51Z</time>
      </trkpt>
      <trkpt lat="42.77736" lon="-0.23369">
        <ele>2155.8</ele>
        <time>2018-12-27T12:12:52Z</time>
      </trkpt>
      <trkpt lat="42.77737" lon="-0.23368">
        <ele>2155.6</ele>
        <time>2018-12-27T12:12:52Z</time>
      </trkpt>
      <trkpt lat="42.77738" lon="-0.23368">
        <ele>2155.5</ele>
        <time>2018-12-27T12:12:53Z</time>
      </trkpt>
      <trkpt lat="42.7774" lon="-0.23365">
        <ele>2154.8</ele>
        <time>2018-12-27T12:12:54Z</time>
      </trkpt>
      <trkpt lat="42.77746" lon="-0.2336">
        <ele>2153.9</ele>
        <time>2018-12-27T12:12:55Z</time>
      </trkpt>
      <trkpt lat="42.77746" lon="-0.2336">
        <ele>2153.9</ele>
        <time>2018-12-27T12:12:56Z</time>
      </trkpt>
      <trkpt lat="42.77748" lon="-0.2336">
        <ele>2153.9</ele>
        <time>2018-12-27T12:12:56Z</time>
      </trkpt>
      <trkpt lat="42.77749" lon="-0.23359">
        <ele>2153.8</ele>
        <time>2018-12-27T12:12:56Z</time>
      </trkpt>
      <trkpt lat="42.77754" lon="-0.2336">
        <ele>2154</ele>
        <time>2018-12-27T12:12:58Z</time>
      </trkpt>
      <trkpt lat="42.77756" lon="-0.23358">
        <ele>2153.8</ele>
        <time>2018-12-27T12:12:58Z</time>
      </trkpt>
      <trkpt lat="42.77761" lon="-0.23355">
        <ele>2153.4</ele>
        <time>2018-12-27T12:13:00Z</time>
      </trkpt>
      <trkpt lat="42.77762" lon="-0.23354">
        <ele>2153.3</ele>
        <time>2018-12-27T12:13:00Z</time>
      </trkpt>
      <trkpt lat="42.77766" lon="-0.23352">
        <ele>2153.1</ele>
        <time>2018-12-27T12:13:01Z</time>
      </trkpt>
      <trkpt lat="42.77778" lon="-0.23358">
        <ele>2154.7</ele>
        <time>2018-12-27T12:13:04Z</time>
      </trkpt>
      <trkpt lat="42.77781" lon="-0.23359">
        <ele>2154.8</ele>
        <time>2018-12-27T12:13:05Z</time>
      </trkpt>
      <trkpt lat="42.77782" lon="-0.2336">
        <ele>2155.2</ele>
        <time>2018-12-27T12:13:06Z</time>
      </trkpt>
      <trkpt lat="42.77788" lon="-0.2337">
        <ele>2157.2</ele>
        <time>2018-12-27T12:13:08Z</time>
      </trkpt>
      <trkpt lat="42.77796" lon="-0.23382">
        <ele>2161.7</ele>
        <time>2018-12-27T12:13:12Z</time>
      </trkpt>
      <trkpt lat="42.778" lon="-0.23383">
        <ele>2162.8</ele>
        <time>2018-12-27T12:13:13Z</time>
      </trkpt>
      <trkpt lat="42.77805" lon="-0.2338">
        <ele>2162.6</ele>
        <time>2018-12-27T12:13:14Z</time>
      </trkpt>
      <trkpt lat="42.77809" lon="-0.23374">
        <ele>2161.4</ele>
        <time>2018-12-27T12:13:16Z</time>
      </trkpt>
      <trkpt lat="42.77813" lon="-0.23368">
        <ele>2161.2</ele>
        <time>2018-12-27T12:13:17Z</time>
      </trkpt>
      <trkpt lat="42.77824" lon="-0.23357">
        <ele>2161.3</ele>
        <time>2018-12-27T12:13:21Z</time>
      </trkpt>
      <trkpt lat="42.77832" lon="-0.23357">
        <ele>2162.7</ele>
        <time>2018-12-27T12:13:23Z</time>
      </trkpt>
      <trkpt lat="42.77834" lon="-0.23359">
        <ele>2163.5</ele>
        <time>2018-12-27T12:13:24Z</time>
      </trkpt>
      <trkpt lat="42.77838" lon="-0.23359">
        <ele>2164.3</ele>
        <time>2018-12-27T12:13:25Z</time>
      </trkpt>
      <trkpt lat="42.77844" lon="-0.23358">
        <ele>2165.3</ele>
        <time>2018-12-27T12:13:26Z</time>
      </trkpt>
      <trkpt lat="42.77845" lon="-0.23358">
        <ele>2165.4</ele>
        <time>2018-12-27T12:13:26Z</time>
      </trkpt>
      <trkpt lat="42.77847" lon="-0.23357">
        <ele>2165.5</ele>
        <time>2018-12-27T12:13:27Z</time>
      </trkpt>
      <trkpt lat="42.77848" lon="-0.23355">
        <ele>2165.2</ele>
        <time>2018-12-27T12:13:27Z</time>
      </trkpt>
      <trkpt lat="42.77853" lon="-0.2335">
        <ele>2164.8</ele>
        <time>2018-12-27T12:13:29Z</time>
      </trkpt>
      <trkpt lat="42.77855" lon="-0.23348">
        <ele>2164.6</ele>
        <time>2018-12-27T12:13:30Z</time>
      </trkpt>
      <trkpt lat="42.7786" lon="-0.23342">
        <ele>2163.9</ele>
        <time>2018-12-27T12:13:32Z</time>
      </trkpt>
      <trkpt lat="42.77863" lon="-0.23338">
        <ele>2163.4</ele>
        <time>2018-12-27T12:13:33Z</time>
      </trkpt>
      <trkpt lat="42.77865" lon="-0.23333">
        <ele>2162.6</ele>
        <time>2018-12-27T12:13:34Z</time>
      </trkpt>
      <trkpt lat="42.77868" lon="-0.23325">
        <ele>2160.7</ele>
        <time>2018-12-27T12:13:36Z</time>
      </trkpt>
      <trkpt lat="42.7787" lon="-0.23323">
        <ele>2160.3</ele>
        <time>2018-12-27T12:13:36Z</time>
      </trkpt>
      <trkpt lat="42.77873" lon="-0.23318">
        <ele>2159.4</ele>
        <time>2018-12-27T12:13:37Z</time>
      </trkpt>
      <trkpt lat="42.77875" lon="-0.23315">
        <ele>2158.7</ele>
        <time>2018-12-27T12:13:38Z</time>
      </trkpt>
      <trkpt lat="42.77877" lon="-0.23313">
        <ele>2159</ele>
        <time>2018-12-27T12:13:39Z</time>
      </trkpt>
      <trkpt lat="42.77882" lon="-0.23306">
        <ele>2159</ele>
        <time>2018-12-27T12:13:41Z</time>
      </trkpt>
      <trkpt lat="42.77883" lon="-0.23304">
        <ele>2158.8</ele>
        <time>2018-12-27T12:13:41Z</time>
      </trkpt>
      <trkpt lat="42.77885" lon="-0.23297">
        <ele>2157.6</ele>
        <time>2018-12-27T12:13:43Z</time>
      </trkpt>
      <trkpt lat="42.77889" lon="-0.23286">
        <ele>2154.1</ele>
        <time>2018-12-27T12:13:45Z</time>
      </trkpt>
      <trkpt lat="42.77891" lon="-0.23281">
        <ele>2152.1</ele>
        <time>2018-12-27T12:13:46Z</time>
      </trkpt>
      <trkpt lat="42.77895" lon="-0.23278">
        <ele>2152</ele>
        <time>2018-12-27T12:13:47Z</time>
      </trkpt>
      <trkpt lat="42.77899" lon="-0.2327">
        <ele>2149</ele>
        <time>2018-12-27T12:13:50Z</time>
      </trkpt>
      <trkpt lat="42.779" lon="-0.23256">
        <ele>2141.9</ele>
        <time>2018-12-27T12:13:52Z</time>
      </trkpt>
      <trkpt lat="42.77903" lon="-0.23241">
        <ele>2135.3</ele>
        <time>2018-12-27T12:13:55Z</time>
      </trkpt>
      <trkpt lat="42.77902" lon="-0.2323">
        <ele>2128.2</ele>
        <time>2018-12-27T12:13:58Z</time>
      </trkpt>
      <trkpt lat="42.77904" lon="-0.2322">
        <ele>2123.7</ele>
        <time>2018-12-27T12:14:00Z</time>
      </trkpt>
      <trkpt lat="42.77901" lon="-0.23216">
        <ele>2119.3</ele>
        <time>2018-12-27T12:14:01Z</time>
      </trkpt>
      <trkpt lat="42.779" lon="-0.23215">
        <ele>2118.5</ele>
        <time>2018-12-27T12:14:01Z</time>
      </trkpt>
      <trkpt lat="42.77899" lon="-0.2321">
        <ele>2115.2</ele>
        <time>2018-12-27T12:14:02Z</time>
      </trkpt>
      <trkpt lat="42.77898" lon="-0.23209">
        <ele>2113.8</ele>
        <time>2018-12-27T12:14:02Z</time>
      </trkpt>
      <trkpt lat="42.77898" lon="-0.23204">
        <ele>2112.1</ele>
        <time>2018-12-27T12:14:03Z</time>
      </trkpt>
      <trkpt lat="42.77899" lon="-0.23203">
        <ele>2112.1</ele>
        <time>2018-12-27T12:14:03Z</time>
      </trkpt>
      <trkpt lat="42.779" lon="-0.23203">
        <ele>2112.5</ele>
        <time>2018-12-27T12:14:04Z</time>
      </trkpt>
      <trkpt lat="42.77904" lon="-0.232">
        <ele>2114.2</ele>
        <time>2018-12-27T12:14:05Z</time>
      </trkpt>
      <trkpt lat="42.77904" lon="-0.23199">
        <ele>2114.3</ele>
        <time>2018-12-27T12:14:05Z</time>
      </trkpt>
      <trkpt lat="42.77906" lon="-0.23197">
        <ele>2114.7</ele>
        <time>2018-12-27T12:14:06Z</time>
      </trkpt>
      <trkpt lat="42.77909" lon="-0.23193">
        <ele>2115.7</ele>
        <time>2018-12-27T12:14:07Z</time>
      </trkpt>
      <trkpt lat="42.77909" lon="-0.23192">
        <ele>2115.3</ele>
        <time>2018-12-27T12:14:07Z</time>
      </trkpt>
      <trkpt lat="42.77912" lon="-0.23187">
        <ele>2115.4</ele>
        <time>2018-12-27T12:14:08Z</time>
      </trkpt>
      <trkpt lat="42.77914" lon="-0.23185">
        <ele>2115.7</ele>
        <time>2018-12-27T12:14:09Z</time>
      </trkpt>
      <trkpt lat="42.77917" lon="-0.2318">
        <ele>2116.2</ele>
        <time>2018-12-27T12:14:10Z</time>
      </trkpt>
      <trkpt lat="42.77918" lon="-0.23179">
        <ele>2116.3</ele>
        <time>2018-12-27T12:14:10Z</time>
      </trkpt>
      <trkpt lat="42.77921" lon="-0.23175">
        <ele>2117</ele>
        <time>2018-12-27T12:14:12Z</time>
      </trkpt>
      <trkpt lat="42.77922" lon="-0.23175">
        <ele>2117.6</ele>
        <time>2018-12-27T12:14:12Z</time>
      </trkpt>
      <trkpt lat="42.77923" lon="-0.23171">
        <ele>2117.3</ele>
        <time>2018-12-27T12:14:13Z</time>
      </trkpt>
      <trkpt lat="42.77925" lon="-0.23165">
        <ele>2115.8</ele>
        <time>2018-12-27T12:14:14Z</time>
      </trkpt>
      <trkpt lat="42.77924" lon="-0.23161">
        <ele>2114</ele>
        <time>2018-12-27T12:14:15Z</time>
      </trkpt>
      <trkpt lat="42.77926" lon="-0.23159">
        <ele>2114.8</ele>
        <time>2018-12-27T12:14:15Z</time>
      </trkpt>
      <trkpt lat="42.77927" lon="-0.23158">
        <ele>2115.2</ele>
        <time>2018-12-27T12:14:16Z</time>
      </trkpt>
      <trkpt lat="42.77928" lon="-0.23157">
        <ele>2115.4</ele>
        <time>2018-12-27T12:14:16Z</time>
      </trkpt>
      <trkpt lat="42.7793" lon="-0.23154">
        <ele>2115.3</ele>
        <time>2018-12-27T12:14:17Z</time>
      </trkpt>
      <trkpt lat="42.77935" lon="-0.23146">
        <ele>2115.5</ele>
        <time>2018-12-27T12:14:19Z</time>
      </trkpt>
      <trkpt lat="42.77937" lon="-0.23136">
        <ele>2113</ele>
        <time>2018-12-27T12:14:21Z</time>
      </trkpt>
      <trkpt lat="42.77938" lon="-0.23129">
        <ele>2110.7</ele>
        <time>2018-12-27T12:14:22Z</time>
      </trkpt>
      <trkpt lat="42.77943" lon="-0.23122">
        <ele>2112</ele>
        <time>2018-12-27T12:14:24Z</time>
      </trkpt>
      <trkpt lat="42.7795" lon="-0.23112">
        <ele>2114.1</ele>
        <time>2018-12-27T12:14:27Z</time>
      </trkpt>
      <trkpt lat="42.77955" lon="-0.23105">
        <ele>2116</ele>
        <time>2018-12-27T12:14:29Z</time>
      </trkpt>
      <trkpt lat="42.7796" lon="-0.23099">
        <ele>2118.7</ele>
        <time>2018-12-27T12:14:31Z</time>
      </trkpt>
      <trkpt lat="42.77962" lon="-0.23096">
        <ele>2119.2</ele>
        <time>2018-12-27T12:14:31Z</time>
      </trkpt>
      <trkpt lat="42.77965" lon="-0.23094">
        <ele>2120.9</ele>
        <time>2018-12-27T12:14:32Z</time>
      </trkpt>
      <trkpt lat="42.77967" lon="-0.23093">
        <ele>2122.2</ele>
        <time>2018-12-27T12:14:33Z</time>
      </trkpt>
      <trkpt lat="42.77968" lon="-0.23093">
        <ele>2123.1</ele>
        <time>2018-12-27T12:14:33Z</time>
      </trkpt>
      <trkpt lat="42.77969" lon="-0.23092">
        <ele>2123.6</ele>
        <time>2018-12-27T12:14:33Z</time>
      </trkpt>
      <trkpt lat="42.77974" lon="-0.23085">
        <ele>2125.7</ele>
        <time>2018-12-27T12:14:35Z</time>
      </trkpt>
      <trkpt lat="42.77975" lon="-0.23084">
        <ele>2126.7</ele>
        <time>2018-12-27T12:14:36Z</time>
      </trkpt>
      <trkpt lat="42.77983" lon="-0.23081">
        <ele>2131.4</ele>
        <time>2018-12-27T12:14:38Z</time>
      </trkpt>
      <trkpt lat="42.77984" lon="-0.23082">
        <ele>2132.8</ele>
        <time>2018-12-27T12:14:38Z</time>
      </trkpt>
      <trkpt lat="42.77988" lon="-0.23082">
        <ele>2135.2</ele>
        <time>2018-12-27T12:14:39Z</time>
      </trkpt>
      <trkpt lat="42.7799" lon="-0.23082">
        <ele>2136.4</ele>
        <time>2018-12-27T12:14:40Z</time>
      </trkpt>
      <trkpt lat="42.7799" lon="-0.23081">
        <ele>2136.6</ele>
        <time>2018-12-27T12:14:40Z</time>
      </trkpt>
      <trkpt lat="42.77992" lon="-0.23079">
        <ele>2137.5</ele>
        <time>2018-12-27T12:14:41Z</time>
      </trkpt>
      <trkpt lat="42.77997" lon="-0.23076">
        <ele>2140</ele>
        <time>2018-12-27T12:14:42Z</time>
      </trkpt>
      <trkpt lat="42.77998" lon="-0.23075">
        <ele>2140.6</ele>
        <time>2018-12-27T12:14:42Z</time>
      </trkpt>
      <trkpt lat="42.78007" lon="-0.23067">
        <ele>2143.7</ele>
        <time>2018-12-27T12:14:45Z</time>
      </trkpt>
      <trkpt lat="42.78013" lon="-0.23056">
        <ele>2144.4</ele>
        <time>2018-12-27T12:14:48Z</time>
      </trkpt>
      <trkpt lat="42.78015" lon="-0.23047">
        <ele>2141.7</ele>
        <time>2018-12-27T12:14:50Z</time>
      </trkpt>
      <trkpt lat="42.78017" lon="-0.23045">
        <ele>2142</ele>
        <time>2018-12-27T12:14:50Z</time>
      </trkpt>
      <trkpt lat="42.78019" lon="-0.23041">
        <ele>2142.6</ele>
        <time>2018-12-27T12:14:51Z</time>
      </trkpt>
      <trkpt lat="42.78024" lon="-0.23037">
        <ele>2145.2</ele>
        <time>2018-12-27T12:14:53Z</time>
      </trkpt>
      <trkpt lat="42.78025" lon="-0.23035">
        <ele>2145.8</ele>
        <time>2018-12-27T12:14:53Z</time>
      </trkpt>
      <trkpt lat="42.78027" lon="-0.2303">
        <ele>2146.7</ele>
        <time>2018-12-27T12:14:55Z</time>
      </trkpt>
      <trkpt lat="42.78029" lon="-0.23026">
        <ele>2148</ele>
        <time>2018-12-27T12:14:55Z</time>
      </trkpt>
      <trkpt lat="42.78031" lon="-0.23025">
        <ele>2148.8</ele>
        <time>2018-12-27T12:14:56Z</time>
      </trkpt>
      <trkpt lat="42.78035" lon="-0.23017">
        <ele>2150.4</ele>
        <time>2018-12-27T12:14:58Z</time>
      </trkpt>
      <trkpt lat="42.78036" lon="-0.23017">
        <ele>2151</ele>
        <time>2018-12-27T12:14:58Z</time>
      </trkpt>
      <trkpt lat="42.78039" lon="-0.2301">
        <ele>2151.9</ele>
        <time>2018-12-27T12:15:00Z</time>
      </trkpt>
      <trkpt lat="42.7804" lon="-0.23">
        <ele>2151.9</ele>
        <time>2018-12-27T12:15:02Z</time>
      </trkpt>
      <trkpt lat="42.78041" lon="-0.22998">
        <ele>2152.2</ele>
        <time>2018-12-27T12:15:02Z</time>
      </trkpt>
      <trkpt lat="42.78044" lon="-0.22988">
        <ele>2152.7</ele>
        <time>2018-12-27T12:15:04Z</time>
      </trkpt>
      <trkpt lat="42.78046" lon="-0.2298">
        <ele>2153.6</ele>
        <time>2018-12-27T12:15:06Z</time>
      </trkpt>
      <trkpt lat="42.78049" lon="-0.22973">
        <ele>2154.1</ele>
        <time>2018-12-27T12:15:07Z</time>
      </trkpt>
      <trkpt lat="42.78049" lon="-0.22971">
        <ele>2153.9</ele>
        <time>2018-12-27T12:15:08Z</time>
      </trkpt>
      <trkpt lat="42.7805" lon="-0.2297">
        <ele>2154.8</ele>
        <time>2018-12-27T12:15:08Z</time>
      </trkpt>
      <trkpt lat="42.78051" lon="-0.22969">
        <ele>2155.2</ele>
        <time>2018-12-27T12:15:09Z</time>
      </trkpt>
      <trkpt lat="42.78054" lon="-0.22968">
        <ele>2156.8</ele>
        <time>2018-12-27T12:15:09Z</time>
      </trkpt>
      <trkpt lat="42.78056" lon="-0.22969">
        <ele>2157.6</ele>
        <time>2018-12-27T12:15:10Z</time>
      </trkpt>
      <trkpt lat="42.78059" lon="-0.22976">
        <ele>2160.2</ele>
        <time>2018-12-27T12:15:11Z</time>
      </trkpt>
      <trkpt lat="42.78061" lon="-0.22978">
        <ele>2161.5</ele>
        <time>2018-12-27T12:15:12Z</time>
      </trkpt>
      <trkpt lat="42.78064" lon="-0.22972">
        <ele>2162.6</ele>
        <time>2018-12-27T12:15:14Z</time>
      </trkpt>
      <trkpt lat="42.78062" lon="-0.22961">
        <ele>2160.1</ele>
        <time>2018-12-27T12:15:16Z</time>
      </trkpt>
      <trkpt lat="42.78062" lon="-0.22958">
        <ele>2159.4</ele>
        <time>2018-12-27T12:15:16Z</time>
      </trkpt>
      <trkpt lat="42.7806" lon="-0.22946">
        <ele>2159.8</ele>
        <time>2018-12-27T12:15:19Z</time>
      </trkpt>
      <trkpt lat="42.7806" lon="-0.22944">
        <ele>2160.3</ele>
        <time>2018-12-27T12:15:19Z</time>
      </trkpt>
      <trkpt lat="42.78064" lon="-0.22935">
        <ele>2162.8</ele>
        <time>2018-12-27T12:15:21Z</time>
      </trkpt>
      <trkpt lat="42.78065" lon="-0.22934">
        <ele>2163.6</ele>
        <time>2018-12-27T12:15:22Z</time>
      </trkpt>
      <trkpt lat="42.78068" lon="-0.2293">
        <ele>2165.2</ele>
        <time>2018-12-27T12:15:23Z</time>
      </trkpt>
      <trkpt lat="42.78071" lon="-0.22927">
        <ele>2166.8</ele>
        <time>2018-12-27T12:15:24Z</time>
      </trkpt>
      <trkpt lat="42.78076" lon="-0.2292">
        <ele>2169.1</ele>
        <time>2018-12-27T12:15:26Z</time>
      </trkpt>
      <trkpt lat="42.78081" lon="-0.22914">
        <ele>2171.3</ele>
        <time>2018-12-27T12:15:27Z</time>
      </trkpt>
      <trkpt lat="42.78081" lon="-0.229">
        <ele>2172.4</ele>
        <time>2018-12-27T12:15:30Z</time>
      </trkpt>
      <trkpt lat="42.78077" lon="-0.22889">
        <ele>2171.7</ele>
        <time>2018-12-27T12:15:32Z</time>
      </trkpt>
      <trkpt lat="42.78077" lon="-0.22886">
        <ele>2171.7</ele>
        <time>2018-12-27T12:15:33Z</time>
      </trkpt>
      <trkpt lat="42.78073" lon="-0.22882">
        <ele>2171</ele>
        <time>2018-12-27T12:15:34Z</time>
      </trkpt>
      <trkpt lat="42.78068" lon="-0.2288">
        <ele>2170</ele>
        <time>2018-12-27T12:15:36Z</time>
      </trkpt>
      <trkpt lat="42.78056" lon="-0.22875">
        <ele>2167.5</ele>
        <time>2018-12-27T12:15:39Z</time>
      </trkpt>
      <trkpt lat="42.78051" lon="-0.22871">
        <ele>2166.9</ele>
        <time>2018-12-27T12:15:40Z</time>
      </trkpt>
      <trkpt lat="42.7805" lon="-0.22865">
        <ele>2167.2</ele>
        <time>2018-12-27T12:15:42Z</time>
      </trkpt>
      <trkpt lat="42.78046" lon="-0.22858">
        <ele>2167</ele>
        <time>2018-12-27T12:15:43Z</time>
      </trkpt>
      <trkpt lat="42.78044" lon="-0.22854">
        <ele>2167.1</ele>
        <time>2018-12-27T12:15:44Z</time>
      </trkpt>
      <trkpt lat="42.78043" lon="-0.22846">
        <ele>2168.1</ele>
        <time>2018-12-27T12:15:46Z</time>
      </trkpt>
      <trkpt lat="42.78042" lon="-0.22845">
        <ele>2168.2</ele>
        <time>2018-12-27T12:15:46Z</time>
      </trkpt>
      <trkpt lat="42.78041" lon="-0.22841">
        <ele>2168.5</ele>
        <time>2018-12-27T12:15:47Z</time>
      </trkpt>
      <trkpt lat="42.78039" lon="-0.22837">
        <ele>2168.5</ele>
        <time>2018-12-27T12:15:48Z</time>
      </trkpt>
      <trkpt lat="42.78038" lon="-0.2284">
        <ele>2167.9</ele>
        <time>2018-12-27T12:15:49Z</time>
      </trkpt>
      <trkpt lat="42.78037" lon="-0.22835">
        <ele>2168.3</ele>
        <time>2018-12-27T12:15:50Z</time>
      </trkpt>
      <trkpt lat="42.78037" lon="-0.22831">
        <ele>2168.9</ele>
        <time>2018-12-27T12:15:51Z</time>
      </trkpt>
      <trkpt lat="42.78036" lon="-0.22831">
        <ele>2168.7</ele>
        <time>2018-12-27T12:15:51Z</time>
      </trkpt>
      <trkpt lat="42.78031" lon="-0.22836">
        <ele>2167.2</ele>
        <time>2018-12-27T12:15:53Z</time>
      </trkpt>
      <trkpt lat="42.7803" lon="-0.22837">
        <ele>2166.7</ele>
        <time>2018-12-27T12:15:53Z</time>
      </trkpt>
      <trkpt lat="42.78025" lon="-0.22839">
        <ele>2165.5</ele>
        <time>2018-12-27T12:15:54Z</time>
      </trkpt>
      <trkpt lat="42.78024" lon="-0.22838">
        <ele>2165.5</ele>
        <time>2018-12-27T12:15:55Z</time>
      </trkpt>
      <trkpt lat="42.78023" lon="-0.2283">
        <ele>2166.4</ele>
        <time>2018-12-27T12:15:56Z</time>
      </trkpt>
      <trkpt lat="42.78022" lon="-0.22827">
        <ele>2166.7</ele>
        <time>2018-12-27T12:15:57Z</time>
      </trkpt>
      <trkpt lat="42.78016" lon="-0.22815">
        <ele>2167.6</ele>
        <time>2018-12-27T12:16:00Z</time>
      </trkpt>
      <trkpt lat="42.78012" lon="-0.22804">
        <ele>2168.4</ele>
        <time>2018-12-27T12:16:02Z</time>
      </trkpt>
      <trkpt lat="42.78009" lon="-0.22792">
        <ele>2170</ele>
        <time>2018-12-27T12:16:05Z</time>
      </trkpt>
      <trkpt lat="42.78007" lon="-0.22783">
        <ele>2170.1</ele>
        <time>2018-12-27T12:16:07Z</time>
      </trkpt>
      <trkpt lat="42.78008" lon="-0.2278">
        <ele>2170.4</ele>
        <time>2018-12-27T12:16:07Z</time>
      </trkpt>
      <trkpt lat="42.78009" lon="-0.22773">
        <ele>2170.9</ele>
        <time>2018-12-27T12:16:09Z</time>
      </trkpt>
      <trkpt lat="42.78009" lon="-0.22771">
        <ele>2171.1</ele>
        <time>2018-12-27T12:16:09Z</time>
      </trkpt>
      <trkpt lat="42.78007" lon="-0.22766">
        <ele>2171</ele>
        <time>2018-12-27T12:16:10Z</time>
      </trkpt>
      <trkpt lat="42.78006" lon="-0.22765">
        <ele>2170.9</ele>
        <time>2018-12-27T12:16:10Z</time>
      </trkpt>
      <trkpt lat="42.78009" lon="-0.22765">
        <ele>2171.4</ele>
        <time>2018-12-27T12:16:11Z</time>
      </trkpt>
      <trkpt lat="42.78004" lon="-0.22771">
        <ele>2170.4</ele>
        <time>2018-12-27T12:16:13Z</time>
      </trkpt>
      <trkpt lat="42.78003" lon="-0.22772">
        <ele>2170.1</ele>
        <time>2018-12-27T12:16:14Z</time>
      </trkpt>
      <trkpt lat="42.78007" lon="-0.22765">
        <ele>2171.1</ele>
        <time>2018-12-27T12:16:15Z</time>
      </trkpt>
      <trkpt lat="42.78005" lon="-0.22769">
        <ele>2170.7</ele>
        <time>2018-12-27T12:16:16Z</time>
      </trkpt>
      <trkpt lat="42.78004" lon="-0.22769">
        <ele>2170.5</ele>
        <time>2018-12-27T12:16:17Z</time>
      </trkpt>
      <trkpt lat="42.78004" lon="-0.2277">
        <ele>2170.4</ele>
        <time>2018-12-27T12:16:17Z</time>
      </trkpt>
      <trkpt lat="42.78012" lon="-0.22765">
        <ele>2171.7</ele>
        <time>2018-12-27T12:16:19Z</time>
      </trkpt>
      <trkpt lat="42.78009" lon="-0.22764">
        <ele>2171.4</ele>
        <time>2018-12-27T12:16:20Z</time>
      </trkpt>
      <trkpt lat="42.78009" lon="-0.22767">
        <ele>2171.4</ele>
        <time>2018-12-27T12:16:21Z</time>
      </trkpt>
      <trkpt lat="42.78009" lon="-0.22767">
        <ele>2171.4</ele>
        <time>2018-12-27T12:16:21Z</time>
      </trkpt>
      <trkpt lat="42.7801" lon="-0.22768">
        <ele>2171.5</ele>
        <time>2018-12-27T12:16:21Z</time>
      </trkpt>
      <trkpt lat="42.78008" lon="-0.22772">
        <ele>2170.8</ele>
        <time>2018-12-27T12:16:22Z</time>
      </trkpt>
      <trkpt lat="42.78006" lon="-0.22768">
        <ele>2170.9</ele>
        <time>2018-12-27T12:16:23Z</time>
      </trkpt>
      <trkpt lat="42.78004" lon="-0.22772">
        <ele>2170.3</ele>
        <time>2018-12-27T12:16:24Z</time>
      </trkpt>
      <trkpt lat="42.78006" lon="-0.22768">
        <ele>2170.8</ele>
        <time>2018-12-27T12:16:25Z</time>
      </trkpt>
      <trkpt lat="42.78008" lon="-0.22768">
        <ele>2171.1</ele>
        <time>2018-12-27T12:16:25Z</time>
      </trkpt>
      <trkpt lat="42.78009" lon="-0.22766">
        <ele>2171.4</ele>
        <time>2018-12-27T12:16:26Z</time>
      </trkpt>
      <trkpt lat="42.78007" lon="-0.22768">
        <ele>2170.9</ele>
        <time>2018-12-27T12:16:27Z</time>
      </trkpt>
      <trkpt lat="42.78009" lon="-0.22767">
        <ele>2171.2</ele>
        <time>2018-12-27T12:16:27Z</time>
      </trkpt>
      <trkpt lat="42.78009" lon="-0.22767">
        <ele>2171.2</ele>
        <time>2018-12-27T12:16:27Z</time>
      </trkpt>
      <trkpt lat="42.78009" lon="-0.22765">
        <ele>2171.3</ele>
        <time>2018-12-27T12:16:28Z</time>
      </trkpt>
      <trkpt lat="42.7801" lon="-0.22766">
        <ele>2171.4</ele>
        <time>2018-12-27T12:16:28Z</time>
      </trkpt>
      <trkpt lat="42.78011" lon="-0.22764">
        <ele>2171.8</ele>
        <time>2018-12-27T12:16:29Z</time>
      </trkpt>
      <trkpt lat="42.78011" lon="-0.22763">
        <ele>2171.7</ele>
        <time>2018-12-27T12:16:29Z</time>
      </trkpt>
      <trkpt lat="42.7801" lon="-0.22763">
        <ele>2171.7</ele>
        <time>2018-12-27T12:16:29Z</time>
      </trkpt>
      <trkpt lat="42.7801" lon="-0.22764">
        <ele>2171.5</ele>
        <time>2018-12-27T12:16:29Z</time>
      </trkpt>
      <trkpt lat="42.7801" lon="-0.22763">
        <ele>2171.5</ele>
        <time>2018-12-27T12:16:29Z</time>
      </trkpt>
      <trkpt lat="42.78009" lon="-0.22765">
        <ele>2171.4</ele>
        <time>2018-12-27T12:16:29Z</time>
      </trkpt>
      <trkpt lat="42.78008" lon="-0.22769">
        <ele>2170.9</ele>
        <time>2018-12-27T12:16:30Z</time>
      </trkpt>
      <trkpt lat="42.78007" lon="-0.22769">
        <ele>2171</ele>
        <time>2018-12-27T12:16:31Z</time>
      </trkpt>
      <trkpt lat="42.7801" lon="-0.22769">
        <ele>2171.3</ele>
        <time>2018-12-27T12:16:31Z</time>
      </trkpt>
      <trkpt lat="42.7801" lon="-0.22769">
        <ele>2171.3</ele>
        <time>2018-12-27T12:16:31Z</time>
      </trkpt>
      <trkpt lat="42.7801" lon="-0.22771">
        <ele>2171.4</ele>
        <time>2018-12-27T12:16:32Z</time>
      </trkpt>
      <trkpt lat="42.78012" lon="-0.22778">
        <ele>2171.1</ele>
        <time>2018-12-27T12:16:33Z</time>
      </trkpt>
      <trkpt lat="42.78016" lon="-0.22791">
        <ele>2171.1</ele>
        <time>2018-12-27T12:16:36Z</time>
      </trkpt>
      <trkpt lat="42.78021" lon="-0.22797">
        <ele>2170.9</ele>
        <time>2018-12-27T12:16:38Z</time>
      </trkpt>
      <trkpt lat="42.78022" lon="-0.228">
        <ele>2170.8</ele>
        <time>2018-12-27T12:16:38Z</time>
      </trkpt>
      <trkpt lat="42.78024" lon="-0.22811">
        <ele>2169.5</ele>
        <time>2018-12-27T12:16:40Z</time>
      </trkpt>
      <trkpt lat="42.78026" lon="-0.22813">
        <ele>2169.5</ele>
        <time>2018-12-27T12:16:41Z</time>
      </trkpt>
      <trkpt lat="42.78027" lon="-0.22825">
        <ele>2167.8</ele>
        <time>2018-12-27T12:16:43Z</time>
      </trkpt>
      <trkpt lat="42.78028" lon="-0.22837">
        <ele>2166.3</ele>
        <time>2018-12-27T12:16:46Z</time>
      </trkpt>
      <trkpt lat="42.78029" lon="-0.22841">
        <ele>2166.1</ele>
        <time>2018-12-27T12:16:47Z</time>
      </trkpt>
      <trkpt lat="42.78031" lon="-0.22843">
        <ele>2166</ele>
        <time>2018-12-27T12:16:47Z</time>
      </trkpt>
      <trkpt lat="42.78033" lon="-0.22846">
        <ele>2165.9</ele>
        <time>2018-12-27T12:16:48Z</time>
      </trkpt>
      <trkpt lat="42.78038" lon="-0.22842">
        <ele>2167.7</ele>
        <time>2018-12-27T12:16:50Z</time>
      </trkpt>
      <trkpt lat="42.78037" lon="-0.2285">
        <ele>2166.3</ele>
        <time>2018-12-27T12:16:52Z</time>
      </trkpt>
      <trkpt lat="42.78042" lon="-0.22849">
        <ele>2167.5</ele>
        <time>2018-12-27T12:16:53Z</time>
      </trkpt>
      <trkpt lat="42.78044" lon="-0.22846">
        <ele>2168.2</ele>
        <time>2018-12-27T12:16:54Z</time>
      </trkpt>
      <trkpt lat="42.78043" lon="-0.22861">
        <ele>2166</ele>
        <time>2018-12-27T12:16:57Z</time>
      </trkpt>
      <trkpt lat="42.78044" lon="-0.22871">
        <ele>2165.2</ele>
        <time>2018-12-27T12:16:59Z</time>
      </trkpt>
      <trkpt lat="42.78051" lon="-0.22874">
        <ele>2166.4</ele>
        <time>2018-12-27T12:17:01Z</time>
      </trkpt>
      <trkpt lat="42.78055" lon="-0.22885">
        <ele>2166</ele>
        <time>2018-12-27T12:17:03Z</time>
      </trkpt>
      <trkpt lat="42.7806" lon="-0.22889">
        <ele>2166.9</ele>
        <time>2018-12-27T12:17:04Z</time>
      </trkpt>
      <trkpt lat="42.78065" lon="-0.22891">
        <ele>2168</ele>
        <time>2018-12-27T12:17:06Z</time>
      </trkpt>
      <trkpt lat="42.78077" lon="-0.22897">
        <ele>2171.2</ele>
        <time>2018-12-27T12:17:09Z</time>
      </trkpt>
      <trkpt lat="42.78082" lon="-0.22906">
        <ele>2172.4</ele>
        <time>2018-12-27T12:17:12Z</time>
      </trkpt>
      <trkpt lat="42.78083" lon="-0.22909">
        <ele>2172.7</ele>
        <time>2018-12-27T12:17:12Z</time>
      </trkpt>
      <trkpt lat="42.78084" lon="-0.2291">
        <ele>2172.9</ele>
        <time>2018-12-27T12:17:12Z</time>
      </trkpt>
      <trkpt lat="42.78086" lon="-0.22911">
        <ele>2173.5</ele>
        <time>2018-12-27T12:17:13Z</time>
      </trkpt>
      <trkpt lat="42.78087" lon="-0.22916">
        <ele>2173.6</ele>
        <time>2018-12-27T12:17:14Z</time>
      </trkpt>
      <trkpt lat="42.78087" lon="-0.22921">
        <ele>2173.5</ele>
        <time>2018-12-27T12:17:15Z</time>
      </trkpt>
      <trkpt lat="42.78086" lon="-0.2293">
        <ele>2172.8</ele>
        <time>2018-12-27T12:17:17Z</time>
      </trkpt>
      <trkpt lat="42.78087" lon="-0.22935">
        <ele>2173.1</ele>
        <time>2018-12-27T12:17:18Z</time>
      </trkpt>
      <trkpt lat="42.78085" lon="-0.22947">
        <ele>2172</ele>
        <time>2018-12-27T12:17:20Z</time>
      </trkpt>
      <trkpt lat="42.78086" lon="-0.2295">
        <ele>2172.3</ele>
        <time>2018-12-27T12:17:21Z</time>
      </trkpt>
      <trkpt lat="42.78088" lon="-0.22949">
        <ele>2172.9</ele>
        <time>2018-12-27T12:17:21Z</time>
      </trkpt>
      <trkpt lat="42.7809" lon="-0.22954">
        <ele>2174.1</ele>
        <time>2018-12-27T12:17:22Z</time>
      </trkpt>
      <trkpt lat="42.78093" lon="-0.2296">
        <ele>2175.7</ele>
        <time>2018-12-27T12:17:24Z</time>
      </trkpt>
      <trkpt lat="42.78095" lon="-0.22961">
        <ele>2176.8</ele>
        <time>2018-12-27T12:17:24Z</time>
      </trkpt>
      <trkpt lat="42.78096" lon="-0.22956">
        <ele>2177</ele>
        <time>2018-12-27T12:17:25Z</time>
      </trkpt>
      <trkpt lat="42.78098" lon="-0.22947">
        <ele>2177.9</ele>
        <time>2018-12-27T12:17:27Z</time>
      </trkpt>
      <trkpt lat="42.78099" lon="-0.2294">
        <ele>2178.4</ele>
        <time>2018-12-27T12:17:28Z</time>
      </trkpt>
      <trkpt lat="42.78099" lon="-0.22936">
        <ele>2178.5</ele>
        <time>2018-12-27T12:17:29Z</time>
      </trkpt>
      <trkpt lat="42.78099" lon="-0.22925">
        <ele>2178.3</ele>
        <time>2018-12-27T12:17:31Z</time>
      </trkpt>
      <trkpt lat="42.781" lon="-0.22922">
        <ele>2178.9</ele>
        <time>2018-12-27T12:17:32Z</time>
      </trkpt>
      <trkpt lat="42.78102" lon="-0.2292">
        <ele>2179.5</ele>
        <time>2018-12-27T12:17:33Z</time>
      </trkpt>
      <trkpt lat="42.78103" lon="-0.22917">
        <ele>2179.7</ele>
        <time>2018-12-27T12:17:33Z</time>
      </trkpt>
      <trkpt lat="42.78102" lon="-0.22911">
        <ele>2179.4</ele>
        <time>2018-12-27T12:17:34Z</time>
      </trkpt>
      <trkpt lat="42.78102" lon="-0.22906">
        <ele>2179.2</ele>
        <time>2018-12-27T12:17:36Z</time>
      </trkpt>
      <trkpt lat="42.78106" lon="-0.22898">
        <ele>2180.1</ele>
        <time>2018-12-27T12:17:37Z</time>
      </trkpt>
      <trkpt lat="42.78108" lon="-0.22895">
        <ele>2180.9</ele>
        <time>2018-12-27T12:17:38Z</time>
      </trkpt>
      <trkpt lat="42.78114" lon="-0.22888">
        <ele>2182.3</ele>
        <time>2018-12-27T12:17:40Z</time>
      </trkpt>
      <trkpt lat="42.78121" lon="-0.22875">
        <ele>2182.9</ele>
        <time>2018-12-27T12:17:43Z</time>
      </trkpt>
      <trkpt lat="42.78126" lon="-0.22871">
        <ele>2184.1</ele>
        <time>2018-12-27T12:17:45Z</time>
      </trkpt>
      <trkpt lat="42.78127" lon="-0.22872">
        <ele>2184.7</ele>
        <time>2018-12-27T12:17:45Z</time>
      </trkpt>
      <trkpt lat="42.78134" lon="-0.22879">
        <ele>2189.2</ele>
        <time>2018-12-27T12:17:48Z</time>
      </trkpt>
      <trkpt lat="42.78142" lon="-0.22882">
        <ele>2193.5</ele>
        <time>2018-12-27T12:17:50Z</time>
      </trkpt>
      <trkpt lat="42.78145" lon="-0.22881">
        <ele>2195</ele>
        <time>2018-12-27T12:17:51Z</time>
      </trkpt>
      <trkpt lat="42.78148" lon="-0.22879">
        <ele>2196.2</ele>
        <time>2018-12-27T12:17:52Z</time>
      </trkpt>
      <trkpt lat="42.78158" lon="-0.22876">
        <ele>2200.3</ele>
        <time>2018-12-27T12:17:54Z</time>
      </trkpt>
      <trkpt lat="42.78167" lon="-0.22868">
        <ele>2203.2</ele>
        <time>2018-12-27T12:17:57Z</time>
      </trkpt>
      <trkpt lat="42.78168" lon="-0.22867">
        <ele>2203.6</ele>
        <time>2018-12-27T12:17:58Z</time>
      </trkpt>
      <trkpt lat="42.78175" lon="-0.22863">
        <ele>2205.9</ele>
        <time>2018-12-27T12:18:00Z</time>
      </trkpt>
      <trkpt lat="42.78181" lon="-0.22853">
        <ele>2206.7</ele>
        <time>2018-12-27T12:18:02Z</time>
      </trkpt>
      <trkpt lat="42.78186" lon="-0.22843">
        <ele>2206.8</ele>
        <time>2018-12-27T12:18:05Z</time>
      </trkpt>
      <trkpt lat="42.78193" lon="-0.2283">
        <ele>2206.2</ele>
        <time>2018-12-27T12:18:08Z</time>
      </trkpt>
      <trkpt lat="42.78194" lon="-0.22829">
        <ele>2206.5</ele>
        <time>2018-12-27T12:18:08Z</time>
      </trkpt>
      <trkpt lat="42.78197" lon="-0.22825">
        <ele>2206.4</ele>
        <time>2018-12-27T12:18:09Z</time>
      </trkpt>
      <trkpt lat="42.78197" lon="-0.22822">
        <ele>2205.8</ele>
        <time>2018-12-27T12:18:10Z</time>
      </trkpt>
      <trkpt lat="42.78203" lon="-0.22806">
        <ele>2203.3</ele>
        <time>2018-12-27T12:18:13Z</time>
      </trkpt>
      <trkpt lat="42.78206" lon="-0.22789">
        <ele>2199.9</ele>
        <time>2018-12-27T12:18:17Z</time>
      </trkpt>
      <trkpt lat="42.78206" lon="-0.22779">
        <ele>2198.9</ele>
        <time>2018-12-27T12:18:19Z</time>
      </trkpt>
      <trkpt lat="42.78208" lon="-0.22769">
        <ele>2198</ele>
        <time>2018-12-27T12:18:21Z</time>
      </trkpt>
      <trkpt lat="42.78212" lon="-0.2276">
        <ele>2199.8</ele>
        <time>2018-12-27T12:18:23Z</time>
      </trkpt>
      <trkpt lat="42.78214" lon="-0.22757">
        <ele>2201.6</ele>
        <time>2018-12-27T12:18:24Z</time>
      </trkpt>
      <trkpt lat="42.78215" lon="-0.22756">
        <ele>2202.2</ele>
        <time>2018-12-27T12:18:24Z</time>
      </trkpt>
      <trkpt lat="42.78217" lon="-0.22749">
        <ele>2202.6</ele>
        <time>2018-12-27T12:18:25Z</time>
      </trkpt>
      <trkpt lat="42.78222" lon="-0.22739">
        <ele>2205.6</ele>
        <time>2018-12-27T12:18:28Z</time>
      </trkpt>
      <trkpt lat="42.78225" lon="-0.22731">
        <ele>2206.6</ele>
        <time>2018-12-27T12:18:30Z</time>
      </trkpt>
      <trkpt lat="42.78226" lon="-0.2273">
        <ele>2207</ele>
        <time>2018-12-27T12:18:30Z</time>
      </trkpt>
      <trkpt lat="42.78229" lon="-0.22727">
        <ele>2208.5</ele>
        <time>2018-12-27T12:18:31Z</time>
      </trkpt>
      <trkpt lat="42.78231" lon="-0.22724">
        <ele>2209.9</ele>
        <time>2018-12-27T12:18:32Z</time>
      </trkpt>
      <trkpt lat="42.78231" lon="-0.2272">
        <ele>2209</ele>
        <time>2018-12-27T12:18:32Z</time>
      </trkpt>
      <trkpt lat="42.78231" lon="-0.22719">
        <ele>2208.8</ele>
        <time>2018-12-27T12:18:33Z</time>
      </trkpt>
      <trkpt lat="42.78233" lon="-0.22714">
        <ele>2209.2</ele>
        <time>2018-12-27T12:18:34Z</time>
      </trkpt>
      <trkpt lat="42.78233" lon="-0.2271">
        <ele>2209.2</ele>
        <time>2018-12-27T12:18:34Z</time>
      </trkpt>
      <trkpt lat="42.78236" lon="-0.22706">
        <ele>2210.5</ele>
        <time>2018-12-27T12:18:36Z</time>
      </trkpt>
      <trkpt lat="42.78237" lon="-0.22701">
        <ele>2210.7</ele>
        <time>2018-12-27T12:18:36Z</time>
      </trkpt>
      <trkpt lat="42.78236" lon="-0.227">
        <ele>2210.3</ele>
        <time>2018-12-27T12:18:37Z</time>
      </trkpt>
      <trkpt lat="42.78237" lon="-0.22693">
        <ele>2210.4</ele>
        <time>2018-12-27T12:18:38Z</time>
      </trkpt>
      <trkpt lat="42.78238" lon="-0.22691">
        <ele>2210.9</ele>
        <time>2018-12-27T12:18:39Z</time>
      </trkpt>
      <trkpt lat="42.78241" lon="-0.22688">
        <ele>2212.5</ele>
        <time>2018-12-27T12:18:39Z</time>
      </trkpt>
      <trkpt lat="42.78241" lon="-0.22684">
        <ele>2212.4</ele>
        <time>2018-12-27T12:18:40Z</time>
      </trkpt>
      <trkpt lat="42.78243" lon="-0.22679">
        <ele>2213</ele>
        <time>2018-12-27T12:18:41Z</time>
      </trkpt>
      <trkpt lat="42.78242" lon="-0.22668">
        <ele>2211.4</ele>
        <time>2018-12-27T12:18:43Z</time>
      </trkpt>
      <trkpt lat="42.78241" lon="-0.22658">
        <ele>2209.4</ele>
        <time>2018-12-27T12:18:45Z</time>
      </trkpt>
      <trkpt lat="42.78241" lon="-0.22644">
        <ele>2208.2</ele>
        <time>2018-12-27T12:18:48Z</time>
      </trkpt>
      <trkpt lat="42.78245" lon="-0.22627">
        <ele>2209.2</ele>
        <time>2018-12-27T12:18:52Z</time>
      </trkpt>
      <trkpt lat="42.78248" lon="-0.22614">
        <ele>2210.1</ele>
        <time>2018-12-27T12:18:54Z</time>
      </trkpt>
      <trkpt lat="42.7825" lon="-0.22602">
        <ele>2210.1</ele>
        <time>2018-12-27T12:18:57Z</time>
      </trkpt>
      <trkpt lat="42.78255" lon="-0.2259">
        <ele>2211.9</ele>
        <time>2018-12-27T12:18:59Z</time>
      </trkpt>
      <trkpt lat="42.78259" lon="-0.22575">
        <ele>2212.8</ele>
        <time>2018-12-27T12:19:03Z</time>
      </trkpt>
      <trkpt lat="42.78263" lon="-0.22558">
        <ele>2213.1</ele>
        <time>2018-12-27T12:19:06Z</time>
      </trkpt>
      <trkpt lat="42.78267" lon="-0.22547">
        <ele>2214</ele>
        <time>2018-12-27T12:19:09Z</time>
      </trkpt>
      <trkpt lat="42.78273" lon="-0.22533">
        <ele>2215.3</ele>
        <time>2018-12-27T12:19:12Z</time>
      </trkpt>
      <trkpt lat="42.78277" lon="-0.22521">
        <ele>2216</ele>
        <time>2018-12-27T12:19:14Z</time>
      </trkpt>
      <trkpt lat="42.78279" lon="-0.22509">
        <ele>2215.7</ele>
        <time>2018-12-27T12:19:17Z</time>
      </trkpt>
      <trkpt lat="42.78284" lon="-0.22494">
        <ele>2215.9</ele>
        <time>2018-12-27T12:19:20Z</time>
      </trkpt>
      <trkpt lat="42.78287" lon="-0.22481">
        <ele>2215.4</ele>
        <time>2018-12-27T12:19:23Z</time>
      </trkpt>
      <trkpt lat="42.78295" lon="-0.22466">
        <ele>2216.6</ele>
        <time>2018-12-27T12:19:26Z</time>
      </trkpt>
      <trkpt lat="42.78299" lon="-0.22455">
        <ele>2216.9</ele>
        <time>2018-12-27T12:19:29Z</time>
      </trkpt>
      <trkpt lat="42.78303" lon="-0.22443">
        <ele>2216.7</ele>
        <time>2018-12-27T12:19:31Z</time>
      </trkpt>
      <trkpt lat="42.78308" lon="-0.22434">
        <ele>2217.3</ele>
        <time>2018-12-27T12:19:33Z</time>
      </trkpt>
      <trkpt lat="42.78313" lon="-0.22427">
        <ele>2217.8</ele>
        <time>2018-12-27T12:19:35Z</time>
      </trkpt>
      <trkpt lat="42.78318" lon="-0.22419">
        <ele>2218.6</ele>
        <time>2018-12-27T12:19:37Z</time>
      </trkpt>
      <trkpt lat="42.78321" lon="-0.22415">
        <ele>2218.6</ele>
        <time>2018-12-27T12:19:38Z</time>
      </trkpt>
      <trkpt lat="42.78322" lon="-0.2241">
        <ele>2218.3</ele>
        <time>2018-12-27T12:19:39Z</time>
      </trkpt>
      <trkpt lat="42.78323" lon="-0.2241">
        <ele>2218.5</ele>
        <time>2018-12-27T12:19:40Z</time>
      </trkpt>
      <trkpt lat="42.78327" lon="-0.22409">
        <ele>2219.8</ele>
        <time>2018-12-27T12:19:41Z</time>
      </trkpt>
      <trkpt lat="42.78329" lon="-0.2241">
        <ele>2220.4</ele>
        <time>2018-12-27T12:19:41Z</time>
      </trkpt>
      <trkpt lat="42.78339" lon="-0.22414">
        <ele>2224.9</ele>
        <time>2018-12-27T12:19:44Z</time>
      </trkpt>
      <trkpt lat="42.78342" lon="-0.22422">
        <ele>2228.1</ele>
        <time>2018-12-27T12:19:46Z</time>
      </trkpt>
      <trkpt lat="42.78347" lon="-0.22426">
        <ele>2230.7</ele>
        <time>2018-12-27T12:19:47Z</time>
      </trkpt>
      <trkpt lat="42.78348" lon="-0.22427">
        <ele>2231.3</ele>
        <time>2018-12-27T12:19:48Z</time>
      </trkpt>
      <trkpt lat="42.78357" lon="-0.22436">
        <ele>2237.4</ele>
        <time>2018-12-27T12:19:51Z</time>
      </trkpt>
      <trkpt lat="42.78365" lon="-0.22441">
        <ele>2241.8</ele>
        <time>2018-12-27T12:19:53Z</time>
      </trkpt>
      <trkpt lat="42.78371" lon="-0.22447">
        <ele>2246.1</ele>
        <time>2018-12-27T12:19:55Z</time>
      </trkpt>
      <trkpt lat="42.78377" lon="-0.22451">
        <ele>2248.8</ele>
        <time>2018-12-27T12:19:57Z</time>
      </trkpt>
      <trkpt lat="42.78385" lon="-0.22457">
        <ele>2251.1</ele>
        <time>2018-12-27T12:19:59Z</time>
      </trkpt>
      <trkpt lat="42.78394" lon="-0.22466">
        <ele>2254.7</ele>
        <time>2018-12-27T12:20:02Z</time>
      </trkpt>
      <trkpt lat="42.78399" lon="-0.2247">
        <ele>2256.6</ele>
        <time>2018-12-27T12:20:04Z</time>
      </trkpt>
      <trkpt lat="42.784" lon="-0.22472">
        <ele>2257.5</ele>
        <time>2018-12-27T12:20:04Z</time>
      </trkpt>
      <trkpt lat="42.78404" lon="-0.22474">
        <ele>2258.8</ele>
        <time>2018-12-27T12:20:05Z</time>
      </trkpt>
      <trkpt lat="42.7841" lon="-0.22473">
        <ele>2259.1</ele>
        <time>2018-12-27T12:20:07Z</time>
      </trkpt>
      <trkpt lat="42.78415" lon="-0.22473">
        <ele>2259.2</ele>
        <time>2018-12-27T12:20:08Z</time>
      </trkpt>
      <trkpt lat="42.78423" lon="-0.22471">
        <ele>2259</ele>
        <time>2018-12-27T12:20:10Z</time>
      </trkpt>
      <trkpt lat="42.78432" lon="-0.22471">
        <ele>2259.9</ele>
        <time>2018-12-27T12:20:13Z</time>
      </trkpt>
      <trkpt lat="42.78441" lon="-0.22466">
        <ele>2257.8</ele>
        <time>2018-12-27T12:20:15Z</time>
      </trkpt>
      <trkpt lat="42.78453" lon="-0.2246">
        <ele>2254.7</ele>
        <time>2018-12-27T12:20:19Z</time>
      </trkpt>
      <trkpt lat="42.78462" lon="-0.22455">
        <ele>2252.4</ele>
        <time>2018-12-27T12:20:22Z</time>
      </trkpt>
      <trkpt lat="42.78469" lon="-0.22458">
        <ele>2252.2</ele>
        <time>2018-12-27T12:20:23Z</time>
      </trkpt>
      <trkpt lat="42.78471" lon="-0.22461">
        <ele>2253.5</ele>
        <time>2018-12-27T12:20:24Z</time>
      </trkpt>
      <trkpt lat="42.78476" lon="-0.22466">
        <ele>2255.8</ele>
        <time>2018-12-27T12:20:26Z</time>
      </trkpt>
      <trkpt lat="42.78477" lon="-0.2247">
        <ele>2257.7</ele>
        <time>2018-12-27T12:20:27Z</time>
      </trkpt>
      <trkpt lat="42.7848" lon="-0.22472">
        <ele>2258.7</ele>
        <time>2018-12-27T12:20:27Z</time>
      </trkpt>
      <trkpt lat="42.78487" lon="-0.22477">
        <ele>2260.2</ele>
        <time>2018-12-27T12:20:29Z</time>
      </trkpt>
      <trkpt lat="42.78488" lon="-0.2248">
        <ele>2261.6</ele>
        <time>2018-12-27T12:20:30Z</time>
      </trkpt>
      <trkpt lat="42.7849" lon="-0.22483">
        <ele>2262.5</ele>
        <time>2018-12-27T12:20:31Z</time>
      </trkpt>
      <trkpt lat="42.78491" lon="-0.22485">
        <ele>2263.6</ele>
        <time>2018-12-27T12:20:31Z</time>
      </trkpt>
      <trkpt lat="42.78495" lon="-0.22491">
        <ele>2265.7</ele>
        <time>2018-12-27T12:20:33Z</time>
      </trkpt>
      <trkpt lat="42.78498" lon="-0.22494">
        <ele>2266.6</ele>
        <time>2018-12-27T12:20:34Z</time>
      </trkpt>
      <trkpt lat="42.78506" lon="-0.22503">
        <ele>2269.2</ele>
        <time>2018-12-27T12:20:37Z</time>
      </trkpt>
      <trkpt lat="42.78511" lon="-0.22512">
        <ele>2272.4</ele>
        <time>2018-12-27T12:20:39Z</time>
      </trkpt>
      <trkpt lat="42.78517" lon="-0.22521">
        <ele>2275</ele>
        <time>2018-12-27T12:20:41Z</time>
      </trkpt>
      <trkpt lat="42.78523" lon="-0.22527">
        <ele>2276.1</ele>
        <time>2018-12-27T12:20:43Z</time>
      </trkpt>
      <trkpt lat="42.78526" lon="-0.22532">
        <ele>2277.3</ele>
        <time>2018-12-27T12:20:45Z</time>
      </trkpt>
      <trkpt lat="42.78527" lon="-0.2253">
        <ele>2276.1</ele>
        <time>2018-12-27T12:20:45Z</time>
      </trkpt>
      <trkpt lat="42.78526" lon="-0.22527">
        <ele>2275</ele>
        <time>2018-12-27T12:20:46Z</time>
      </trkpt>
      <trkpt lat="42.78527" lon="-0.22527">
        <ele>2274.5</ele>
        <time>2018-12-27T12:20:46Z</time>
      </trkpt>
      <trkpt lat="42.78531" lon="-0.22526">
        <ele>2272.8</ele>
        <time>2018-12-27T12:20:47Z</time>
      </trkpt>
      <trkpt lat="42.78537" lon="-0.22528">
        <ele>2271.9</ele>
        <time>2018-12-27T12:20:49Z</time>
      </trkpt>
      <trkpt lat="42.78539" lon="-0.22529">
        <ele>2271.7</ele>
        <time>2018-12-27T12:20:50Z</time>
      </trkpt>
      <trkpt lat="42.7854" lon="-0.2253">
        <ele>2272.1</ele>
        <time>2018-12-27T12:20:50Z</time>
      </trkpt>
      <trkpt lat="42.78543" lon="-0.2253">
        <ele>2270.9</ele>
        <time>2018-12-27T12:20:51Z</time>
      </trkpt>
      <trkpt lat="42.78546" lon="-0.22525">
        <ele>2266.9</ele>
        <time>2018-12-27T12:20:52Z</time>
      </trkpt>
      <trkpt lat="42.78553" lon="-0.22531">
        <ele>2265.6</ele>
        <time>2018-12-27T12:20:54Z</time>
      </trkpt>
      <trkpt lat="42.78561" lon="-0.22537">
        <ele>2263.6</ele>
        <time>2018-12-27T12:20:57Z</time>
      </trkpt>
      <trkpt lat="42.78565" lon="-0.22541">
        <ele>2263.2</ele>
        <time>2018-12-27T12:20:58Z</time>
      </trkpt>
      <trkpt lat="42.78568" lon="-0.22545">
        <ele>2263.3</ele>
        <time>2018-12-27T12:20:59Z</time>
      </trkpt>
      <trkpt lat="42.78574" lon="-0.22554">
        <ele>2264</ele>
        <time>2018-12-27T12:21:02Z</time>
      </trkpt>
      <trkpt lat="42.78577" lon="-0.22565">
        <ele>2267</ele>
        <time>2018-12-27T12:21:04Z</time>
      </trkpt>
      <trkpt lat="42.78579" lon="-0.22576">
        <ele>2270.5</ele>
        <time>2018-12-27T12:21:06Z</time>
      </trkpt>
      <trkpt lat="42.78581" lon="-0.22578">
        <ele>2270.6</ele>
        <time>2018-12-27T12:21:07Z</time>
      </trkpt>
      <trkpt lat="42.78584" lon="-0.22582">
        <ele>2270.6</ele>
        <time>2018-12-27T12:21:08Z</time>
      </trkpt>
      <trkpt lat="42.78591" lon="-0.22591">
        <ele>2270.2</ele>
        <time>2018-12-27T12:21:10Z</time>
      </trkpt>
      <trkpt lat="42.78598" lon="-0.22601">
        <ele>2270.3</ele>
        <time>2018-12-27T12:21:13Z</time>
      </trkpt>
      <trkpt lat="42.78599" lon="-0.22603">
        <ele>2270.9</ele>
        <time>2018-12-27T12:21:14Z</time>
      </trkpt>
      <trkpt lat="42.78602" lon="-0.22606">
        <ele>2270.4</ele>
        <time>2018-12-27T12:21:15Z</time>
      </trkpt>
      <trkpt lat="42.78608" lon="-0.22614">
        <ele>2270</ele>
        <time>2018-12-27T12:21:17Z</time>
      </trkpt>
      <trkpt lat="42.78613" lon="-0.2262">
        <ele>2269.2</ele>
        <time>2018-12-27T12:21:19Z</time>
      </trkpt>
      <trkpt lat="42.78615" lon="-0.22621">
        <ele>2268.7</ele>
        <time>2018-12-27T12:21:19Z</time>
      </trkpt>
      <trkpt lat="42.78618" lon="-0.22625">
        <ele>2268.3</ele>
        <time>2018-12-27T12:21:20Z</time>
      </trkpt>
      <trkpt lat="42.7862" lon="-0.2263">
        <ele>2269.1</ele>
        <time>2018-12-27T12:21:21Z</time>
      </trkpt>
      <trkpt lat="42.78622" lon="-0.22633">
        <ele>2269</ele>
        <time>2018-12-27T12:21:22Z</time>
      </trkpt>
      <trkpt lat="42.78625" lon="-0.22636">
        <ele>2268.2</ele>
        <time>2018-12-27T12:21:23Z</time>
      </trkpt>
      <trkpt lat="42.78627" lon="-0.22641">
        <ele>2268.5</ele>
        <time>2018-12-27T12:21:24Z</time>
      </trkpt>
      <trkpt lat="42.78627" lon="-0.22642">
        <ele>2269.2</ele>
        <time>2018-12-27T12:21:25Z</time>
      </trkpt>
      <trkpt lat="42.78623" lon="-0.22644">
        <ele>2272.4</ele>
        <time>2018-12-27T12:21:26Z</time>
      </trkpt>
      <trkpt lat="42.78619" lon="-0.22648">
        <ele>2276.4</ele>
        <time>2018-12-27T12:21:27Z</time>
      </trkpt>
      <trkpt lat="42.78617" lon="-0.22648">
        <ele>2277.3</ele>
        <time>2018-12-27T12:21:28Z</time>
      </trkpt>
      <trkpt lat="42.78615" lon="-0.22648">
        <ele>2279</ele>
        <time>2018-12-27T12:21:28Z</time>
      </trkpt>
      <trkpt lat="42.78614" lon="-0.2265">
        <ele>2279.8</ele>
        <time>2018-12-27T12:21:29Z</time>
      </trkpt>
      <trkpt lat="42.78615" lon="-0.22652">
        <ele>2280.4</ele>
        <time>2018-12-27T12:21:29Z</time>
      </trkpt>
      <trkpt lat="42.78615" lon="-0.22654">
        <ele>2281</ele>
        <time>2018-12-27T12:21:29Z</time>
      </trkpt>
      <trkpt lat="42.78616" lon="-0.22656">
        <ele>2281.2</ele>
        <time>2018-12-27T12:21:30Z</time>
      </trkpt>
      <trkpt lat="42.78616" lon="-0.22659">
        <ele>2281.9</ele>
        <time>2018-12-27T12:21:30Z</time>
      </trkpt>
      <trkpt lat="42.78617" lon="-0.2266">
        <ele>2281.8</ele>
        <time>2018-12-27T12:21:31Z</time>
      </trkpt>
      <trkpt lat="42.78619" lon="-0.22664">
        <ele>2282.3</ele>
        <time>2018-12-27T12:21:32Z</time>
      </trkpt>
      <trkpt lat="42.78619" lon="-0.22668">
        <ele>2283.7</ele>
        <time>2018-12-27T12:21:32Z</time>
      </trkpt>
      <trkpt lat="42.78621" lon="-0.22673">
        <ele>2283.9</ele>
        <time>2018-12-27T12:21:34Z</time>
      </trkpt>
      <trkpt lat="42.78622" lon="-0.22678">
        <ele>2284.9</ele>
        <time>2018-12-27T12:21:35Z</time>
      </trkpt>
      <trkpt lat="42.78623" lon="-0.22679">
        <ele>2285</ele>
        <time>2018-12-27T12:21:35Z</time>
      </trkpt>
      <trkpt lat="42.78624" lon="-0.22683">
        <ele>2285.7</ele>
        <time>2018-12-27T12:21:36Z</time>
      </trkpt>
      <trkpt lat="42.78625" lon="-0.22684">
        <ele>2285.5</ele>
        <time>2018-12-27T12:21:36Z</time>
      </trkpt>
      <trkpt lat="42.78625" lon="-0.22688">
        <ele>2286.6</ele>
        <time>2018-12-27T12:21:37Z</time>
      </trkpt>
      <trkpt lat="42.78625" lon="-0.22689">
        <ele>2287.3</ele>
        <time>2018-12-27T12:21:37Z</time>
      </trkpt>
      <trkpt lat="42.78624" lon="-0.22694">
        <ele>2289.5</ele>
        <time>2018-12-27T12:21:38Z</time>
      </trkpt>
      <trkpt lat="42.78623" lon="-0.22699">
        <ele>2292.2</ele>
        <time>2018-12-27T12:21:39Z</time>
      </trkpt>
      <trkpt lat="42.78624" lon="-0.22701">
        <ele>2292</ele>
        <time>2018-12-27T12:21:40Z</time>
      </trkpt>
      <trkpt lat="42.78625" lon="-0.22704">
        <ele>2292.4</ele>
        <time>2018-12-27T12:21:40Z</time>
      </trkpt>
      <trkpt lat="42.78627" lon="-0.22705">
        <ele>2291.6</ele>
        <time>2018-12-27T12:21:41Z</time>
      </trkpt>
      <trkpt lat="42.78629" lon="-0.22711">
        <ele>2292.6</ele>
        <time>2018-12-27T12:21:42Z</time>
      </trkpt>
      <trkpt lat="42.7863" lon="-0.22716">
        <ele>2292.8</ele>
        <time>2018-12-27T12:21:43Z</time>
      </trkpt>
      <trkpt lat="42.78633" lon="-0.22722">
        <ele>2292.5</ele>
        <time>2018-12-27T12:21:44Z</time>
      </trkpt>
      <trkpt lat="42.78638" lon="-0.22733">
        <ele>2292.6</ele>
        <time>2018-12-27T12:21:47Z</time>
      </trkpt>
      <trkpt lat="42.78645" lon="-0.22736">
        <ele>2289.2</ele>
        <time>2018-12-27T12:21:49Z</time>
      </trkpt>
      <trkpt lat="42.78647" lon="-0.2274">
        <ele>2288.5</ele>
        <time>2018-12-27T12:21:50Z</time>
      </trkpt>
      <trkpt lat="42.78652" lon="-0.22749">
        <ele>2288</ele>
        <time>2018-12-27T12:21:52Z</time>
      </trkpt>
      <trkpt lat="42.7866" lon="-0.22759">
        <ele>2286.1</ele>
        <time>2018-12-27T12:21:55Z</time>
      </trkpt>
      <trkpt lat="42.78661" lon="-0.22761">
        <ele>2285.6</ele>
        <time>2018-12-27T12:21:55Z</time>
      </trkpt>
      <trkpt lat="42.7867" lon="-0.22765">
        <ele>2281.6</ele>
        <time>2018-12-27T12:21:58Z</time>
      </trkpt>
      <trkpt lat="42.78679" lon="-0.22769">
        <ele>2277.4</ele>
        <time>2018-12-27T12:22:00Z</time>
      </trkpt>
      <trkpt lat="42.78686" lon="-0.22776">
        <ele>2274.9</ele>
        <time>2018-12-27T12:22:03Z</time>
      </trkpt>
      <trkpt lat="42.78692" lon="-0.22784">
        <ele>2273.4</ele>
        <time>2018-12-27T12:22:05Z</time>
      </trkpt>
      <trkpt lat="42.78693" lon="-0.22785">
        <ele>2273.5</ele>
        <time>2018-12-27T12:22:05Z</time>
      </trkpt>
      <trkpt lat="42.78697" lon="-0.22791">
        <ele>2272.4</ele>
        <time>2018-12-27T12:22:07Z</time>
      </trkpt>
      <trkpt lat="42.787" lon="-0.22794">
        <ele>2271.4</ele>
        <time>2018-12-27T12:22:08Z</time>
      </trkpt>
      <trkpt lat="42.78703" lon="-0.228">
        <ele>2271.6</ele>
        <time>2018-12-27T12:22:09Z</time>
      </trkpt>
      <trkpt lat="42.78703" lon="-0.22803">
        <ele>2272.1</ele>
        <time>2018-12-27T12:22:10Z</time>
      </trkpt>
      <trkpt lat="42.78706" lon="-0.22807">
        <ele>2271.7</ele>
        <time>2018-12-27T12:22:11Z</time>
      </trkpt>
      <trkpt lat="42.78707" lon="-0.2281">
        <ele>2271.6</ele>
        <time>2018-12-27T12:22:12Z</time>
      </trkpt>
      <trkpt lat="42.78711" lon="-0.22817">
        <ele>2271.9</ele>
        <time>2018-12-27T12:22:13Z</time>
      </trkpt>
      <trkpt lat="42.78714" lon="-0.22821">
        <ele>2271.6</ele>
        <time>2018-12-27T12:22:14Z</time>
      </trkpt>
      <trkpt lat="42.78719" lon="-0.22826">
        <ele>2270.4</ele>
        <time>2018-12-27T12:22:16Z</time>
      </trkpt>
      <trkpt lat="42.7872" lon="-0.22827">
        <ele>2270.5</ele>
        <time>2018-12-27T12:22:17Z</time>
      </trkpt>
      <trkpt lat="42.78721" lon="-0.2283">
        <ele>2270.8</ele>
        <time>2018-12-27T12:22:17Z</time>
      </trkpt>
      <trkpt lat="42.78723" lon="-0.22833">
        <ele>2271</ele>
        <time>2018-12-27T12:22:18Z</time>
      </trkpt>
      <trkpt lat="42.78724" lon="-0.22836">
        <ele>2270.9</ele>
        <time>2018-12-27T12:22:18Z</time>
      </trkpt>
      <trkpt lat="42.7873" lon="-0.22845">
        <ele>2269.9</ele>
        <time>2018-12-27T12:22:21Z</time>
      </trkpt>
      <trkpt lat="42.78731" lon="-0.22848">
        <ele>2270.3</ele>
        <time>2018-12-27T12:22:22Z</time>
      </trkpt>
      <trkpt lat="42.78731" lon="-0.22856">
        <ele>2271.8</ele>
        <time>2018-12-27T12:22:23Z</time>
      </trkpt>
      <trkpt lat="42.78732" lon="-0.22862">
        <ele>2272.7</ele>
        <time>2018-12-27T12:22:24Z</time>
      </trkpt>
      <trkpt lat="42.78734" lon="-0.22868">
        <ele>2273.2</ele>
        <time>2018-12-27T12:22:26Z</time>
      </trkpt>
      <trkpt lat="42.78736" lon="-0.22879">
        <ele>2273.7</ele>
        <time>2018-12-27T12:22:28Z</time>
      </trkpt>
      <trkpt lat="42.78737" lon="-0.22882">
        <ele>2273.5</ele>
        <time>2018-12-27T12:22:29Z</time>
      </trkpt>
      <trkpt lat="42.78739" lon="-0.2289">
        <ele>2272.9</ele>
        <time>2018-12-27T12:22:30Z</time>
      </trkpt>
      <trkpt lat="42.78742" lon="-0.22897">
        <ele>2272</ele>
        <time>2018-12-27T12:22:32Z</time>
      </trkpt>
      <trkpt lat="42.78741" lon="-0.22902">
        <ele>2272.5</ele>
        <time>2018-12-27T12:22:33Z</time>
      </trkpt>
      <trkpt lat="42.78747" lon="-0.22911">
        <ele>2269.8</ele>
        <time>2018-12-27T12:22:35Z</time>
      </trkpt>
      <trkpt lat="42.78749" lon="-0.22925">
        <ele>2269.3</ele>
        <time>2018-12-27T12:22:38Z</time>
      </trkpt>
      <trkpt lat="42.7875" lon="-0.22927">
        <ele>2268.9</ele>
        <time>2018-12-27T12:22:38Z</time>
      </trkpt>
      <trkpt lat="42.7875" lon="-0.22933">
        <ele>2269.4</ele>
        <time>2018-12-27T12:22:39Z</time>
      </trkpt>
      <trkpt lat="42.78749" lon="-0.22938">
        <ele>2270.4</ele>
        <time>2018-12-27T12:22:40Z</time>
      </trkpt>
      <trkpt lat="42.78747" lon="-0.22952">
        <ele>2272.7</ele>
        <time>2018-12-27T12:22:43Z</time>
      </trkpt>
      <trkpt lat="42.78744" lon="-0.22965">
        <ele>2275.1</ele>
        <time>2018-12-27T12:22:46Z</time>
      </trkpt>
      <trkpt lat="42.78744" lon="-0.2298">
        <ele>2274.9</ele>
        <time>2018-12-27T12:22:49Z</time>
      </trkpt>
      <trkpt lat="42.78746" lon="-0.22989">
        <ele>2273.8</ele>
        <time>2018-12-27T12:22:51Z</time>
      </trkpt>
      <trkpt lat="42.78746" lon="-0.22991">
        <ele>2273.4</ele>
        <time>2018-12-27T12:22:51Z</time>
      </trkpt>
      <trkpt lat="42.78747" lon="-0.23004">
        <ele>2272.7</ele>
        <time>2018-12-27T12:22:54Z</time>
      </trkpt>
      <trkpt lat="42.7875" lon="-0.23008">
        <ele>2271.3</ele>
        <time>2018-12-27T12:22:55Z</time>
      </trkpt>
      <trkpt lat="42.78752" lon="-0.23014">
        <ele>2270.1</ele>
        <time>2018-12-27T12:22:56Z</time>
      </trkpt>
      <trkpt lat="42.78756" lon="-0.23023">
        <ele>2268</ele>
        <time>2018-12-27T12:22:58Z</time>
      </trkpt>
      <trkpt lat="42.78756" lon="-0.2304">
        <ele>2268.1</ele>
        <time>2018-12-27T12:23:01Z</time>
      </trkpt>
      <trkpt lat="42.78755" lon="-0.23045">
        <ele>2268.3</ele>
        <time>2018-12-27T12:23:02Z</time>
      </trkpt>
      <trkpt lat="42.78756" lon="-0.23047">
        <ele>2267.8</ele>
        <time>2018-12-27T12:23:03Z</time>
      </trkpt>
      <trkpt lat="42.78757" lon="-0.23048">
        <ele>2267.5</ele>
        <time>2018-12-27T12:23:03Z</time>
      </trkpt>
      <trkpt lat="42.78761" lon="-0.23056">
        <ele>2265.4</ele>
        <time>2018-12-27T12:23:05Z</time>
      </trkpt>
      <trkpt lat="42.78765" lon="-0.2306">
        <ele>2263.6</ele>
        <time>2018-12-27T12:23:06Z</time>
      </trkpt>
      <trkpt lat="42.78766" lon="-0.23062">
        <ele>2263.1</ele>
        <time>2018-12-27T12:23:07Z</time>
      </trkpt>
      <trkpt lat="42.78766" lon="-0.23064">
        <ele>2262.9</ele>
        <time>2018-12-27T12:23:07Z</time>
      </trkpt>
      <trkpt lat="42.78767" lon="-0.2307">
        <ele>2262.5</ele>
        <time>2018-12-27T12:23:08Z</time>
      </trkpt>
      <trkpt lat="42.78769" lon="-0.23075">
        <ele>2261.6</ele>
        <time>2018-12-27T12:23:10Z</time>
      </trkpt>
      <trkpt lat="42.78771" lon="-0.23083">
        <ele>2260.9</ele>
        <time>2018-12-27T12:23:11Z</time>
      </trkpt>
      <trkpt lat="42.78774" lon="-0.23091">
        <ele>2260</ele>
        <time>2018-12-27T12:23:13Z</time>
      </trkpt>
      <trkpt lat="42.78775" lon="-0.23096">
        <ele>2259.7</ele>
        <time>2018-12-27T12:23:14Z</time>
      </trkpt>
      <trkpt lat="42.78779" lon="-0.23104">
        <ele>2258.7</ele>
        <time>2018-12-27T12:23:16Z</time>
      </trkpt>
      <trkpt lat="42.7878" lon="-0.23106">
        <ele>2258.4</ele>
        <time>2018-12-27T12:23:16Z</time>
      </trkpt>
      <trkpt lat="42.78785" lon="-0.23113">
        <ele>2257.1</ele>
        <time>2018-12-27T12:23:18Z</time>
      </trkpt>
      <trkpt lat="42.78787" lon="-0.23114">
        <ele>2256.7</ele>
        <time>2018-12-27T12:23:19Z</time>
      </trkpt>
      <trkpt lat="42.78793" lon="-0.2312">
        <ele>2255.2</ele>
        <time>2018-12-27T12:23:21Z</time>
      </trkpt>
      <trkpt lat="42.78796" lon="-0.23124">
        <ele>2254.7</ele>
        <time>2018-12-27T12:23:22Z</time>
      </trkpt>
      <trkpt lat="42.788" lon="-0.2313">
        <ele>2254.3</ele>
        <time>2018-12-27T12:23:24Z</time>
      </trkpt>
      <trkpt lat="42.78807" lon="-0.23137">
        <ele>2253.7</ele>
        <time>2018-12-27T12:23:26Z</time>
      </trkpt>
      <trkpt lat="42.78811" lon="-0.23144">
        <ele>2254.2</ele>
        <time>2018-12-27T12:23:28Z</time>
      </trkpt>
      <trkpt lat="42.78813" lon="-0.23148">
        <ele>2254.3</ele>
        <time>2018-12-27T12:23:29Z</time>
      </trkpt>
      <trkpt lat="42.78817" lon="-0.23152">
        <ele>2254.1</ele>
        <time>2018-12-27T12:23:30Z</time>
      </trkpt>
      <trkpt lat="42.78821" lon="-0.23165">
        <ele>2255.9</ele>
        <time>2018-12-27T12:23:33Z</time>
      </trkpt>
      <trkpt lat="42.78825" lon="-0.23172">
        <ele>2256.2</ele>
        <time>2018-12-27T12:23:34Z</time>
      </trkpt>
      <trkpt lat="42.78827" lon="-0.23177">
        <ele>2256.8</ele>
        <time>2018-12-27T12:23:35Z</time>
      </trkpt>
      <trkpt lat="42.78834" lon="-0.23183">
        <ele>2256</ele>
        <time>2018-12-27T12:23:38Z</time>
      </trkpt>
      <trkpt lat="42.78842" lon="-0.23193">
        <ele>2256.1</ele>
        <time>2018-12-27T12:23:40Z</time>
      </trkpt>
      <trkpt lat="42.78846" lon="-0.23197">
        <ele>2255.8</ele>
        <time>2018-12-27T12:23:42Z</time>
      </trkpt>
      <trkpt lat="42.78849" lon="-0.232">
        <ele>2255.3</ele>
        <time>2018-12-27T12:23:43Z</time>
      </trkpt>
      <trkpt lat="42.78857" lon="-0.23205">
        <ele>2253.8</ele>
        <time>2018-12-27T12:23:45Z</time>
      </trkpt>
      <trkpt lat="42.78865" lon="-0.23205">
        <ele>2251.5</ele>
        <time>2018-12-27T12:23:47Z</time>
      </trkpt>
      <trkpt lat="42.78877" lon="-0.2321">
        <ele>2249</ele>
        <time>2018-12-27T12:23:51Z</time>
      </trkpt>
      <trkpt lat="42.78881" lon="-0.23216">
        <ele>2249.6</ele>
        <time>2018-12-27T12:23:52Z</time>
      </trkpt>
      <trkpt lat="42.78884" lon="-0.2322">
        <ele>2249.9</ele>
        <time>2018-12-27T12:23:53Z</time>
      </trkpt>
      <trkpt lat="42.78891" lon="-0.23228">
        <ele>2249.6</ele>
        <time>2018-12-27T12:23:56Z</time>
      </trkpt>
      <trkpt lat="42.78894" lon="-0.2323">
        <ele>2249.2</ele>
        <time>2018-12-27T12:23:57Z</time>
      </trkpt>
      <trkpt lat="42.78897" lon="-0.23232">
        <ele>2248.6</ele>
        <time>2018-12-27T12:23:58Z</time>
      </trkpt>
      <trkpt lat="42.78902" lon="-0.2324">
        <ele>2248.9</ele>
        <time>2018-12-27T12:24:00Z</time>
      </trkpt>
      <trkpt lat="42.78906" lon="-0.23244">
        <ele>2248.8</ele>
        <time>2018-12-27T12:24:01Z</time>
      </trkpt>
      <trkpt lat="42.78907" lon="-0.23246">
        <ele>2248.5</ele>
        <time>2018-12-27T12:24:01Z</time>
      </trkpt>
      <trkpt lat="42.78907" lon="-0.23249">
        <ele>2249.4</ele>
        <time>2018-12-27T12:24:02Z</time>
      </trkpt>
      <trkpt lat="42.78907" lon="-0.2325">
        <ele>2249.8</ele>
        <time>2018-12-27T12:24:02Z</time>
      </trkpt>
      <trkpt lat="42.78907" lon="-0.23255">
        <ele>2250.9</ele>
        <time>2018-12-27T12:24:03Z</time>
      </trkpt>
      <trkpt lat="42.78909" lon="-0.23261">
        <ele>2251.5</ele>
        <time>2018-12-27T12:24:04Z</time>
      </trkpt>
      <trkpt lat="42.78915" lon="-0.23262">
        <ele>2249</ele>
        <time>2018-12-27T12:24:06Z</time>
      </trkpt>
      <trkpt lat="42.78921" lon="-0.23263">
        <ele>2246.6</ele>
        <time>2018-12-27T12:24:08Z</time>
      </trkpt>
      <trkpt lat="42.78923" lon="-0.23264">
        <ele>2245.7</ele>
        <time>2018-12-27T12:24:08Z</time>
      </trkpt>
      <trkpt lat="42.78933" lon="-0.2327">
        <ele>2242.5</ele>
        <time>2018-12-27T12:24:11Z</time>
      </trkpt>
      <trkpt lat="42.78942" lon="-0.23273">
        <ele>2238.7</ele>
        <time>2018-12-27T12:24:14Z</time>
      </trkpt>
      <trkpt lat="42.78951" lon="-0.23277">
        <ele>2234.7</ele>
        <time>2018-12-27T12:24:16Z</time>
      </trkpt>
      <trkpt lat="42.78959" lon="-0.23278">
        <ele>2231.4</ele>
        <time>2018-12-27T12:24:18Z</time>
      </trkpt>
      <trkpt lat="42.7896" lon="-0.2328">
        <ele>2231.7</ele>
        <time>2018-12-27T12:24:19Z</time>
      </trkpt>
      <trkpt lat="42.78965" lon="-0.23288">
        <ele>2232.6</ele>
        <time>2018-12-27T12:24:21Z</time>
      </trkpt>
      <trkpt lat="42.78967" lon="-0.23289">
        <ele>2232.8</ele>
        <time>2018-12-27T12:24:21Z</time>
      </trkpt>
      <trkpt lat="42.78976" lon="-0.23299">
        <ele>2234.3</ele>
        <time>2018-12-27T12:24:24Z</time>
      </trkpt>
      <trkpt lat="42.78986" lon="-0.23308">
        <ele>2235.8</ele>
        <time>2018-12-27T12:24:28Z</time>
      </trkpt>
      <trkpt lat="42.78991" lon="-0.23315">
        <ele>2236.9</ele>
        <time>2018-12-27T12:24:30Z</time>
      </trkpt>
      <trkpt lat="42.78992" lon="-0.23317">
        <ele>2237.2</ele>
        <time>2018-12-27T12:24:30Z</time>
      </trkpt>
      <trkpt lat="42.78997" lon="-0.23331">
        <ele>2239.4</ele>
        <time>2018-12-27T12:24:33Z</time>
      </trkpt>
      <trkpt lat="42.79002" lon="-0.23337">
        <ele>2240.5</ele>
        <time>2018-12-27T12:24:35Z</time>
      </trkpt>
      <trkpt lat="42.79004" lon="-0.2334">
        <ele>2240.8</ele>
        <time>2018-12-27T12:24:36Z</time>
      </trkpt>
      <trkpt lat="42.79007" lon="-0.23342">
        <ele>2241.1</ele>
        <time>2018-12-27T12:24:37Z</time>
      </trkpt>
      <trkpt lat="42.7901" lon="-0.23347">
        <ele>2241.7</ele>
        <time>2018-12-27T12:24:38Z</time>
      </trkpt>
      <trkpt lat="42.79015" lon="-0.23351">
        <ele>2242.3</ele>
        <time>2018-12-27T12:24:39Z</time>
      </trkpt>
      <trkpt lat="42.79017" lon="-0.23355">
        <ele>2242.8</ele>
        <time>2018-12-27T12:24:40Z</time>
      </trkpt>
      <trkpt lat="42.79017" lon="-0.23357">
        <ele>2243.1</ele>
        <time>2018-12-27T12:24:41Z</time>
      </trkpt>
      <trkpt lat="42.79018" lon="-0.23358">
        <ele>2243.4</ele>
        <time>2018-12-27T12:24:41Z</time>
      </trkpt>
      <trkpt lat="42.7902" lon="-0.23363">
        <ele>2244.1</ele>
        <time>2018-12-27T12:24:42Z</time>
      </trkpt>
      <trkpt lat="42.7902" lon="-0.23364">
        <ele>2244.2</ele>
        <time>2018-12-27T12:24:42Z</time>
      </trkpt>
      <trkpt lat="42.7902" lon="-0.23372">
        <ele>2245.4</ele>
        <time>2018-12-27T12:24:44Z</time>
      </trkpt>
      <trkpt lat="42.7902" lon="-0.23373">
        <ele>2245.5</ele>
        <time>2018-12-27T12:24:44Z</time>
      </trkpt>
      <trkpt lat="42.79016" lon="-0.23382">
        <ele>2247.9</ele>
        <time>2018-12-27T12:24:46Z</time>
      </trkpt>
      <trkpt lat="42.79016" lon="-0.23384">
        <ele>2248.3</ele>
        <time>2018-12-27T12:24:46Z</time>
      </trkpt>
      <trkpt lat="42.79016" lon="-0.23388">
        <ele>2249.5</ele>
        <time>2018-12-27T12:24:47Z</time>
      </trkpt>
      <trkpt lat="42.79015" lon="-0.23393">
        <ele>2250.9</ele>
        <time>2018-12-27T12:24:48Z</time>
      </trkpt>
      <trkpt lat="42.79011" lon="-0.23406">
        <ele>2254.3</ele>
        <time>2018-12-27T12:24:51Z</time>
      </trkpt>
      <trkpt lat="42.7901" lon="-0.23405">
        <ele>2254.3</ele>
        <time>2018-12-27T12:24:51Z</time>
      </trkpt>
      <trkpt lat="42.79007" lon="-0.23408">
        <ele>2255.1</ele>
        <time>2018-12-27T12:24:52Z</time>
      </trkpt>
      <trkpt lat="42.79006" lon="-0.2341">
        <ele>2255.4</ele>
        <time>2018-12-27T12:24:53Z</time>
      </trkpt>
      <trkpt lat="42.79002" lon="-0.23418">
        <ele>2257.4</ele>
        <time>2018-12-27T12:24:55Z</time>
      </trkpt>
      <trkpt lat="42.79001" lon="-0.23418">
        <ele>2257.5</ele>
        <time>2018-12-27T12:24:55Z</time>
      </trkpt>
      <trkpt lat="42.79" lon="-0.23423">
        <ele>2258.5</ele>
        <time>2018-12-27T12:24:56Z</time>
      </trkpt>
      <trkpt lat="42.78998" lon="-0.23424">
        <ele>2258.8</ele>
        <time>2018-12-27T12:24:56Z</time>
      </trkpt>
      <trkpt lat="42.78998" lon="-0.23424">
        <ele>2258.8</ele>
        <time>2018-12-27T12:24:56Z</time>
      </trkpt>
      <trkpt lat="42.78993" lon="-0.23426">
        <ele>2259.2</ele>
        <time>2018-12-27T12:24:58Z</time>
      </trkpt>
      <trkpt lat="42.78991" lon="-0.23424">
        <ele>2258.6</ele>
        <time>2018-12-27T12:24:58Z</time>
      </trkpt>
      <trkpt lat="42.78989" lon="-0.23432">
        <ele>2260.4</ele>
        <time>2018-12-27T12:25:00Z</time>
      </trkpt>
      <trkpt lat="42.78986" lon="-0.23438">
        <ele>2261.5</ele>
        <time>2018-12-27T12:25:01Z</time>
      </trkpt>
      <trkpt lat="42.78982" lon="-0.2344">
        <ele>2262</ele>
        <time>2018-12-27T12:25:03Z</time>
      </trkpt>
      <trkpt lat="42.78981" lon="-0.23442">
        <ele>2262.2</ele>
        <time>2018-12-27T12:25:03Z</time>
      </trkpt>
      <trkpt lat="42.78977" lon="-0.23444">
        <ele>2262.4</ele>
        <time>2018-12-27T12:25:04Z</time>
      </trkpt>
      <trkpt lat="42.78975" lon="-0.23446">
        <ele>2262.8</ele>
        <time>2018-12-27T12:25:05Z</time>
      </trkpt>
      <trkpt lat="42.78969" lon="-0.23451">
        <ele>2263.4</ele>
        <time>2018-12-27T12:25:07Z</time>
      </trkpt>
      <trkpt lat="42.78966" lon="-0.23453">
        <ele>2263.7</ele>
        <time>2018-12-27T12:25:08Z</time>
      </trkpt>
      <trkpt lat="42.78967" lon="-0.23455">
        <ele>2264</ele>
        <time>2018-12-27T12:25:08Z</time>
      </trkpt>
      <trkpt lat="42.78968" lon="-0.23455">
        <ele>2264.3</ele>
        <time>2018-12-27T12:25:08Z</time>
      </trkpt>
      <trkpt lat="42.7897" lon="-0.23456">
        <ele>2264.5</ele>
        <time>2018-12-27T12:25:09Z</time>
      </trkpt>
      <trkpt lat="42.78971" lon="-0.23457">
        <ele>2264.9</ele>
        <time>2018-12-27T12:25:09Z</time>
      </trkpt>
      <trkpt lat="42.78975" lon="-0.23458">
        <ele>2265.4</ele>
        <time>2018-12-27T12:25:10Z</time>
      </trkpt>
      <trkpt lat="42.78979" lon="-0.23459">
        <ele>2266</ele>
        <time>2018-12-27T12:25:11Z</time>
      </trkpt>
      <trkpt lat="42.7898" lon="-0.2346">
        <ele>2266.2</ele>
        <time>2018-12-27T12:25:12Z</time>
      </trkpt>
      <trkpt lat="42.78982" lon="-0.2346">
        <ele>2266.5</ele>
        <time>2018-12-27T12:25:12Z</time>
      </trkpt>
      <trkpt lat="42.78985" lon="-0.23461">
        <ele>2266.9</ele>
        <time>2018-12-27T12:25:13Z</time>
      </trkpt>
      <trkpt lat="42.78988" lon="-0.23465">
        <ele>2268.1</ele>
        <time>2018-12-27T12:25:14Z</time>
      </trkpt>
      <trkpt lat="42.78984" lon="-0.23468">
        <ele>2268.2</ele>
        <time>2018-12-27T12:25:15Z</time>
      </trkpt>
      <trkpt lat="42.78983" lon="-0.23468">
        <ele>2268.1</ele>
        <time>2018-12-27T12:25:16Z</time>
      </trkpt>
      <trkpt lat="42.78978" lon="-0.23469">
        <ele>2267.9</ele>
        <time>2018-12-27T12:25:17Z</time>
      </trkpt>
      <trkpt lat="42.78978" lon="-0.2347">
        <ele>2268.1</ele>
        <time>2018-12-27T12:25:17Z</time>
      </trkpt>
      <trkpt lat="42.78974" lon="-0.23476">
        <ele>2268.8</ele>
        <time>2018-12-27T12:25:19Z</time>
      </trkpt>
      <trkpt lat="42.78971" lon="-0.23479">
        <ele>2269.1</ele>
        <time>2018-12-27T12:25:20Z</time>
      </trkpt>
      <trkpt lat="42.7897" lon="-0.23482">
        <ele>2269.5</ele>
        <time>2018-12-27T12:25:20Z</time>
      </trkpt>
      <trkpt lat="42.78967" lon="-0.23487">
        <ele>2270.1</ele>
        <time>2018-12-27T12:25:22Z</time>
      </trkpt>
      <trkpt lat="42.78966" lon="-0.23495">
        <ele>2271.3</ele>
        <time>2018-12-27T12:25:23Z</time>
      </trkpt>
      <trkpt lat="42.78964" lon="-0.23499">
        <ele>2271.9</ele>
        <time>2018-12-27T12:25:24Z</time>
      </trkpt>
      <trkpt lat="42.78964" lon="-0.23503">
        <ele>2272.4</ele>
        <time>2018-12-27T12:25:25Z</time>
      </trkpt>
      <trkpt lat="42.78964" lon="-0.23512">
        <ele>2274</ele>
        <time>2018-12-27T12:25:27Z</time>
      </trkpt>
      <trkpt lat="42.78962" lon="-0.23523">
        <ele>2275.6</ele>
        <time>2018-12-27T12:25:29Z</time>
      </trkpt>
      <trkpt lat="42.7896" lon="-0.23532">
        <ele>2276.8</ele>
        <time>2018-12-27T12:25:31Z</time>
      </trkpt>
      <trkpt lat="42.78953" lon="-0.23538">
        <ele>2279</ele>
        <time>2018-12-27T12:25:33Z</time>
      </trkpt>
      <trkpt lat="42.78951" lon="-0.23546">
        <ele>2281</ele>
        <time>2018-12-27T12:25:35Z</time>
      </trkpt>
      <trkpt lat="42.78951" lon="-0.23548">
        <ele>2281.3</ele>
        <time>2018-12-27T12:25:35Z</time>
      </trkpt>
      <trkpt lat="42.78951" lon="-0.23552">
        <ele>2281.8</ele>
        <time>2018-12-27T12:25:36Z</time>
      </trkpt>
      <trkpt lat="42.78952" lon="-0.23556">
        <ele>2282.3</ele>
        <time>2018-12-27T12:25:36Z</time>
      </trkpt>
      <trkpt lat="42.78955" lon="-0.2356">
        <ele>2282.4</ele>
        <time>2018-12-27T12:25:38Z</time>
      </trkpt>
      <trkpt lat="42.78954" lon="-0.23563">
        <ele>2283.3</ele>
        <time>2018-12-27T12:25:38Z</time>
      </trkpt>
      <trkpt lat="42.78952" lon="-0.23567">
        <ele>2284.6</ele>
        <time>2018-12-27T12:25:39Z</time>
      </trkpt>
      <trkpt lat="42.78947" lon="-0.23576">
        <ele>2287.1</ele>
        <time>2018-12-27T12:25:41Z</time>
      </trkpt>
      <trkpt lat="42.78948" lon="-0.23583">
        <ele>2288</ele>
        <time>2018-12-27T12:25:43Z</time>
      </trkpt>
      <trkpt lat="42.78951" lon="-0.23587">
        <ele>2288.2</ele>
        <time>2018-12-27T12:25:44Z</time>
      </trkpt>
      <trkpt lat="42.78949" lon="-0.23591">
        <ele>2289.3</ele>
        <time>2018-12-27T12:25:45Z</time>
      </trkpt>
      <trkpt lat="42.78947" lon="-0.23592">
        <ele>2289.9</ele>
        <time>2018-12-27T12:25:45Z</time>
      </trkpt>
      <trkpt lat="42.78942" lon="-0.23595">
        <ele>2291.1</ele>
        <time>2018-12-27T12:25:47Z</time>
      </trkpt>
      <trkpt lat="42.78941" lon="-0.23602">
        <ele>2292.6</ele>
        <time>2018-12-27T12:25:48Z</time>
      </trkpt>
      <trkpt lat="42.78941" lon="-0.23605">
        <ele>2292.9</ele>
        <time>2018-12-27T12:25:49Z</time>
      </trkpt>
      <trkpt lat="42.78941" lon="-0.23608">
        <ele>2293.6</ele>
        <time>2018-12-27T12:25:49Z</time>
      </trkpt>
      <trkpt lat="42.7894" lon="-0.23614">
        <ele>2294.5</ele>
        <time>2018-12-27T12:25:50Z</time>
      </trkpt>
      <trkpt lat="42.78939" lon="-0.2362">
        <ele>2295.7</ele>
        <time>2018-12-27T12:25:52Z</time>
      </trkpt>
      <trkpt lat="42.78937" lon="-0.23629">
        <ele>2297.1</ele>
        <time>2018-12-27T12:25:53Z</time>
      </trkpt>
      <trkpt lat="42.78938" lon="-0.2363">
        <ele>2297.1</ele>
        <time>2018-12-27T12:25:54Z</time>
      </trkpt>
      <trkpt lat="42.78937" lon="-0.23632">
        <ele>2297.5</ele>
        <time>2018-12-27T12:25:54Z</time>
      </trkpt>
      <trkpt lat="42.78937" lon="-0.23638">
        <ele>2298.4</ele>
        <time>2018-12-27T12:25:55Z</time>
      </trkpt>
      <trkpt lat="42.78938" lon="-0.23646">
        <ele>2299.3</ele>
        <time>2018-12-27T12:25:57Z</time>
      </trkpt>
      <trkpt lat="42.78941" lon="-0.23648">
        <ele>2299.3</ele>
        <time>2018-12-27T12:25:58Z</time>
      </trkpt>
      <trkpt lat="42.78942" lon="-0.23651">
        <ele>2299.6</ele>
        <time>2018-12-27T12:25:59Z</time>
      </trkpt>
      <trkpt lat="42.78942" lon="-0.23654">
        <ele>2300</ele>
        <time>2018-12-27T12:25:59Z</time>
      </trkpt>
      <trkpt lat="42.78942" lon="-0.23663">
        <ele>2301.2</ele>
        <time>2018-12-27T12:26:01Z</time>
      </trkpt>
      <trkpt lat="42.78942" lon="-0.23665">
        <ele>2301.4</ele>
        <time>2018-12-27T12:26:01Z</time>
      </trkpt>
      <trkpt lat="42.78941" lon="-0.23673">
        <ele>2302.7</ele>
        <time>2018-12-27T12:26:03Z</time>
      </trkpt>
      <trkpt lat="42.7894" lon="-0.23676">
        <ele>2303.1</ele>
        <time>2018-12-27T12:26:04Z</time>
      </trkpt>
      <trkpt lat="42.7894" lon="-0.23677">
        <ele>2303.4</ele>
        <time>2018-12-27T12:26:04Z</time>
      </trkpt>
      <trkpt lat="42.78939" lon="-0.23686">
        <ele>2304.5</ele>
        <time>2018-12-27T12:26:06Z</time>
      </trkpt>
      <trkpt lat="42.78936" lon="-0.237">
        <ele>2306.4</ele>
        <time>2018-12-27T12:26:08Z</time>
      </trkpt>
      <trkpt lat="42.78935" lon="-0.23702">
        <ele>2306.9</ele>
        <time>2018-12-27T12:26:09Z</time>
      </trkpt>
      <trkpt lat="42.78933" lon="-0.23707">
        <ele>2307.5</ele>
        <time>2018-12-27T12:26:10Z</time>
      </trkpt>
      <trkpt lat="42.78931" lon="-0.23711">
        <ele>2308</ele>
        <time>2018-12-27T12:26:11Z</time>
      </trkpt>
      <trkpt lat="42.78931" lon="-0.23714">
        <ele>2308.3</ele>
        <time>2018-12-27T12:26:12Z</time>
      </trkpt>
      <trkpt lat="42.78929" lon="-0.2372">
        <ele>2308.8</ele>
        <time>2018-12-27T12:26:13Z</time>
      </trkpt>
      <trkpt lat="42.78927" lon="-0.23723">
        <ele>2309.1</ele>
        <time>2018-12-27T12:26:14Z</time>
      </trkpt>
      <trkpt lat="42.78926" lon="-0.23723">
        <ele>2309.2</ele>
        <time>2018-12-27T12:26:14Z</time>
      </trkpt>
      <trkpt lat="42.78923" lon="-0.23726">
        <ele>2309.5</ele>
        <time>2018-12-27T12:26:15Z</time>
      </trkpt>
      <trkpt lat="42.78921" lon="-0.23729">
        <ele>2309.8</ele>
        <time>2018-12-27T12:26:16Z</time>
      </trkpt>
      <trkpt lat="42.7892" lon="-0.23731">
        <ele>2310</ele>
        <time>2018-12-27T12:26:16Z</time>
      </trkpt>
      <trkpt lat="42.78918" lon="-0.23735">
        <ele>2310.3</ele>
        <time>2018-12-27T12:26:17Z</time>
      </trkpt>
      <trkpt lat="42.78917" lon="-0.23745">
        <ele>2311.2</ele>
        <time>2018-12-27T12:26:19Z</time>
      </trkpt>
      <trkpt lat="42.78916" lon="-0.23755">
        <ele>2312</ele>
        <time>2018-12-27T12:26:21Z</time>
      </trkpt>
      <trkpt lat="42.78915" lon="-0.23758">
        <ele>2312.2</ele>
        <time>2018-12-27T12:26:22Z</time>
      </trkpt>
      <trkpt lat="42.78914" lon="-0.23771">
        <ele>2313.3</ele>
        <time>2018-12-27T12:26:24Z</time>
      </trkpt>
      <trkpt lat="42.78914" lon="-0.23774">
        <ele>2313.4</ele>
        <time>2018-12-27T12:26:25Z</time>
      </trkpt>
      <trkpt lat="42.78913" lon="-0.23783">
        <ele>2314.1</ele>
        <time>2018-12-27T12:26:27Z</time>
      </trkpt>
      <trkpt lat="42.78915" lon="-0.23794">
        <ele>2315.5</ele>
        <time>2018-12-27T12:26:29Z</time>
      </trkpt>
      <trkpt lat="42.78916" lon="-0.23798">
        <ele>2316.1</ele>
        <time>2018-12-27T12:26:30Z</time>
      </trkpt>
      <trkpt lat="42.78917" lon="-0.23801">
        <ele>2316.9</ele>
        <time>2018-12-27T12:26:30Z</time>
      </trkpt>
      <trkpt lat="42.78918" lon="-0.23804">
        <ele>2317.4</ele>
        <time>2018-12-27T12:26:31Z</time>
      </trkpt>
      <trkpt lat="42.7892" lon="-0.23808">
        <ele>2318.6</ele>
        <time>2018-12-27T12:26:32Z</time>
      </trkpt>
      <trkpt lat="42.78921" lon="-0.2381">
        <ele>2318.8</ele>
        <time>2018-12-27T12:26:32Z</time>
      </trkpt>
      <trkpt lat="42.7892" lon="-0.23813">
        <ele>2319.4</ele>
        <time>2018-12-27T12:26:33Z</time>
      </trkpt>
      <trkpt lat="42.78918" lon="-0.2382">
        <ele>2320.7</ele>
        <time>2018-12-27T12:26:34Z</time>
      </trkpt>
      <trkpt lat="42.78918" lon="-0.23824">
        <ele>2321.6</ele>
        <time>2018-12-27T12:26:35Z</time>
      </trkpt>
      <trkpt lat="42.78916" lon="-0.23829">
        <ele>2322.3</ele>
        <time>2018-12-27T12:26:36Z</time>
      </trkpt>
      <trkpt lat="42.78915" lon="-0.23832">
        <ele>2323</ele>
        <time>2018-12-27T12:26:37Z</time>
      </trkpt>
      <trkpt lat="42.78912" lon="-0.23836">
        <ele>2323.5</ele>
        <time>2018-12-27T12:26:38Z</time>
      </trkpt>
      <trkpt lat="42.78911" lon="-0.23837">
        <ele>2323.6</ele>
        <time>2018-12-27T12:26:38Z</time>
      </trkpt>
      <trkpt lat="42.7891" lon="-0.23839">
        <ele>2324.1</ele>
        <time>2018-12-27T12:26:39Z</time>
      </trkpt>
      <trkpt lat="42.78909" lon="-0.23843">
        <ele>2324.7</ele>
        <time>2018-12-27T12:26:40Z</time>
      </trkpt>
      <trkpt lat="42.78908" lon="-0.23843">
        <ele>2324.8</ele>
        <time>2018-12-27T12:26:40Z</time>
      </trkpt>
      <trkpt lat="42.78906" lon="-0.2385">
        <ele>2326.1</ele>
        <time>2018-12-27T12:26:41Z</time>
      </trkpt>
      <trkpt lat="42.78907" lon="-0.23853">
        <ele>2326.6</ele>
        <time>2018-12-27T12:26:42Z</time>
      </trkpt>
      <trkpt lat="42.78905" lon="-0.23857">
        <ele>2327.4</ele>
        <time>2018-12-27T12:26:43Z</time>
      </trkpt>
      <trkpt lat="42.78905" lon="-0.23862">
        <ele>2328.2</ele>
        <time>2018-12-27T12:26:44Z</time>
      </trkpt>
      <trkpt lat="42.78905" lon="-0.23864">
        <ele>2328.6</ele>
        <time>2018-12-27T12:26:44Z</time>
      </trkpt>
      <trkpt lat="42.78902" lon="-0.23867">
        <ele>2329.1</ele>
        <time>2018-12-27T12:26:45Z</time>
      </trkpt>
      <trkpt lat="42.78902" lon="-0.23875">
        <ele>2330.6</ele>
        <time>2018-12-27T12:26:46Z</time>
      </trkpt>
      <trkpt lat="42.78902" lon="-0.23879">
        <ele>2331.6</ele>
        <time>2018-12-27T12:26:47Z</time>
      </trkpt>
      <trkpt lat="42.78901" lon="-0.23884">
        <ele>2332.8</ele>
        <time>2018-12-27T12:26:48Z</time>
      </trkpt>
      <trkpt lat="42.78898" lon="-0.23888">
        <ele>2333.8</ele>
        <time>2018-12-27T12:26:49Z</time>
      </trkpt>
      <trkpt lat="42.78895" lon="-0.2389">
        <ele>2334</ele>
        <time>2018-12-27T12:26:50Z</time>
      </trkpt>
      <trkpt lat="42.78893" lon="-0.23896">
        <ele>2335.4</ele>
        <time>2018-12-27T12:26:52Z</time>
      </trkpt>
      <trkpt lat="42.78892" lon="-0.239">
        <ele>2336.3</ele>
        <time>2018-12-27T12:26:52Z</time>
      </trkpt>
      <trkpt lat="42.7889" lon="-0.23903">
        <ele>2336.9</ele>
        <time>2018-12-27T12:26:53Z</time>
      </trkpt>
      <trkpt lat="42.78892" lon="-0.23909">
        <ele>2338.7</ele>
        <time>2018-12-27T12:26:54Z</time>
      </trkpt>
      <trkpt lat="42.78892" lon="-0.23912">
        <ele>2339.4</ele>
        <time>2018-12-27T12:26:55Z</time>
      </trkpt>
      <trkpt lat="42.7889" lon="-0.23919">
        <ele>2340.9</ele>
        <time>2018-12-27T12:26:56Z</time>
      </trkpt>
      <trkpt lat="42.78889" lon="-0.23922">
        <ele>2341.4</ele>
        <time>2018-12-27T12:26:57Z</time>
      </trkpt>
      <trkpt lat="42.78888" lon="-0.23924">
        <ele>2341.9</ele>
        <time>2018-12-27T12:26:58Z</time>
      </trkpt>
      <trkpt lat="42.78884" lon="-0.2393">
        <ele>2342.8</ele>
        <time>2018-12-27T12:26:59Z</time>
      </trkpt>
      <trkpt lat="42.78883" lon="-0.23931">
        <ele>2342.9</ele>
        <time>2018-12-27T12:26:59Z</time>
      </trkpt>
      <trkpt lat="42.78883" lon="-0.23938">
        <ele>2344.5</ele>
        <time>2018-12-27T12:27:01Z</time>
      </trkpt>
      <trkpt lat="42.78878" lon="-0.23944">
        <ele>2345</ele>
        <time>2018-12-27T12:27:03Z</time>
      </trkpt>
      <trkpt lat="42.78874" lon="-0.23949">
        <ele>2346.1</ele>
        <time>2018-12-27T12:27:04Z</time>
      </trkpt>
      <trkpt lat="42.78869" lon="-0.23953">
        <ele>2347.7</ele>
        <time>2018-12-27T12:27:06Z</time>
      </trkpt>
      <trkpt lat="42.78865" lon="-0.23958">
        <ele>2349.1</ele>
        <time>2018-12-27T12:27:07Z</time>
      </trkpt>
      <trkpt lat="42.78861" lon="-0.23963">
        <ele>2349.9</ele>
        <time>2018-12-27T12:27:08Z</time>
      </trkpt>
      <trkpt lat="42.7886" lon="-0.23962">
        <ele>2349.9</ele>
        <time>2018-12-27T12:27:09Z</time>
      </trkpt>
      <trkpt lat="42.78857" lon="-0.23962">
        <ele>2350.1</ele>
        <time>2018-12-27T12:27:09Z</time>
      </trkpt>
      <trkpt lat="42.78856" lon="-0.23963">
        <ele>2350.4</ele>
        <time>2018-12-27T12:27:10Z</time>
      </trkpt>
      <trkpt lat="42.78853" lon="-0.23962">
        <ele>2350.7</ele>
        <time>2018-12-27T12:27:11Z</time>
      </trkpt>
      <trkpt lat="42.78847" lon="-0.23957">
        <ele>2350.8</ele>
        <time>2018-12-27T12:27:13Z</time>
      </trkpt>
      <trkpt lat="42.78844" lon="-0.23961">
        <ele>2351.5</ele>
        <time>2018-12-27T12:27:14Z</time>
      </trkpt>
      <trkpt lat="42.7884" lon="-0.23963">
        <ele>2351.9</ele>
        <time>2018-12-27T12:27:15Z</time>
      </trkpt>
      <trkpt lat="42.78838" lon="-0.23965">
        <ele>2352.1</ele>
        <time>2018-12-27T12:27:15Z</time>
      </trkpt>
      <trkpt lat="42.78838" lon="-0.23966">
        <ele>2352.2</ele>
        <time>2018-12-27T12:27:16Z</time>
      </trkpt>
      <trkpt lat="42.78841" lon="-0.23969">
        <ele>2351.9</ele>
        <time>2018-12-27T12:27:17Z</time>
      </trkpt>
      <trkpt lat="42.78841" lon="-0.23968">
        <ele>2351.9</ele>
        <time>2018-12-27T12:27:17Z</time>
      </trkpt>
      <trkpt lat="42.78842" lon="-0.23969">
        <ele>2351.9</ele>
        <time>2018-12-27T12:27:17Z</time>
      </trkpt>
      <trkpt lat="42.78844" lon="-0.23969">
        <ele>2351.6</ele>
        <time>2018-12-27T12:27:17Z</time>
      </trkpt>
      <trkpt lat="42.78845" lon="-0.2397">
        <ele>2351.5</ele>
        <time>2018-12-27T12:27:18Z</time>
      </trkpt>
      <trkpt lat="42.78846" lon="-0.23971">
        <ele>2351.6</ele>
        <time>2018-12-27T12:27:18Z</time>
      </trkpt>
      <trkpt lat="42.78848" lon="-0.23973">
        <ele>2351.4</ele>
        <time>2018-12-27T12:27:19Z</time>
      </trkpt>
      <trkpt lat="42.78848" lon="-0.23975">
        <ele>2351.5</ele>
        <time>2018-12-27T12:27:19Z</time>
      </trkpt>
      <trkpt lat="42.78848" lon="-0.23978">
        <ele>2351.6</ele>
        <time>2018-12-27T12:27:20Z</time>
      </trkpt>
      <trkpt lat="42.78847" lon="-0.23978">
        <ele>2351.8</ele>
        <time>2018-12-27T12:27:20Z</time>
      </trkpt>
      <trkpt lat="42.78841" lon="-0.23982">
        <ele>2352.1</ele>
        <time>2018-12-27T12:27:22Z</time>
      </trkpt>
      <trkpt lat="42.7884" lon="-0.23983">
        <ele>2352.2</ele>
        <time>2018-12-27T12:27:22Z</time>
      </trkpt>
      <trkpt lat="42.78838" lon="-0.23983">
        <ele>2352.3</ele>
        <time>2018-12-27T12:27:23Z</time>
      </trkpt>
      <trkpt lat="42.78836" lon="-0.23985">
        <ele>2352.4</ele>
        <time>2018-12-27T12:27:23Z</time>
      </trkpt>
      <trkpt lat="42.78829" lon="-0.23992">
        <ele>2352.7</ele>
        <time>2018-12-27T12:27:25Z</time>
      </trkpt>
      <trkpt lat="42.78831" lon="-0.23998">
        <ele>2352.5</ele>
        <time>2018-12-27T12:27:27Z</time>
      </trkpt>
      <trkpt lat="42.78832" lon="-0.23999">
        <ele>2352.5</ele>
        <time>2018-12-27T12:27:27Z</time>
      </trkpt>
      <trkpt lat="42.78835" lon="-0.24001">
        <ele>2352.6</ele>
        <time>2018-12-27T12:27:28Z</time>
      </trkpt>
      <trkpt lat="42.78836" lon="-0.24004">
        <ele>2352.5</ele>
        <time>2018-12-27T12:27:29Z</time>
      </trkpt>
      <trkpt lat="42.78837" lon="-0.24004">
        <ele>2352.5</ele>
        <time>2018-12-27T12:27:29Z</time>
      </trkpt>
      <trkpt lat="42.78837" lon="-0.24008">
        <ele>2352.5</ele>
        <time>2018-12-27T12:27:30Z</time>
      </trkpt>
      <trkpt lat="42.7884" lon="-0.24011">
        <ele>2352.7</ele>
        <time>2018-12-27T12:27:31Z</time>
      </trkpt>
      <trkpt lat="42.78844" lon="-0.24016">
        <ele>2352.9</ele>
        <time>2018-12-27T12:27:32Z</time>
      </trkpt>
      <trkpt lat="42.78845" lon="-0.2402">
        <ele>2352.9</ele>
        <time>2018-12-27T12:27:33Z</time>
      </trkpt>
      <trkpt lat="42.78845" lon="-0.24026">
        <ele>2353.1</ele>
        <time>2018-12-27T12:27:34Z</time>
      </trkpt>
      <trkpt lat="42.7884" lon="-0.24031">
        <ele>2353</ele>
        <time>2018-12-27T12:27:36Z</time>
      </trkpt>
      <trkpt lat="42.78833" lon="-0.24027">
        <ele>2352.5</ele>
        <time>2018-12-27T12:27:38Z</time>
      </trkpt>
      <trkpt lat="42.78832" lon="-0.24027">
        <ele>2352.4</ele>
        <time>2018-12-27T12:27:38Z</time>
      </trkpt>
      <trkpt lat="42.78826" lon="-0.24025">
        <ele>2352.2</ele>
        <time>2018-12-27T12:27:40Z</time>
      </trkpt>
      <trkpt lat="42.78825" lon="-0.24024">
        <ele>2352.1</ele>
        <time>2018-12-27T12:27:40Z</time>
      </trkpt>
      <trkpt lat="42.78819" lon="-0.24025">
        <ele>2351.8</ele>
        <time>2018-12-27T12:27:41Z</time>
      </trkpt>
      <trkpt lat="42.78819" lon="-0.24026">
        <ele>2351.8</ele>
        <time>2018-12-27T12:27:42Z</time>
      </trkpt>
      <trkpt lat="42.78814" lon="-0.24028">
        <ele>2351.5</ele>
        <time>2018-12-27T12:27:43Z</time>
      </trkpt>
      <trkpt lat="42.78811" lon="-0.24034">
        <ele>2351</ele>
        <time>2018-12-27T12:27:44Z</time>
      </trkpt>
      <trkpt lat="42.7881" lon="-0.24036">
        <ele>2351</ele>
        <time>2018-12-27T12:27:45Z</time>
      </trkpt>
      <trkpt lat="42.78811" lon="-0.24038">
        <ele>2350.9</ele>
        <time>2018-12-27T12:27:45Z</time>
      </trkpt>
      <trkpt lat="42.78812" lon="-0.24047">
        <ele>2350.8</ele>
        <time>2018-12-27T12:27:47Z</time>
      </trkpt>
      <trkpt lat="42.78818" lon="-0.24065">
        <ele>2351.5</ele>
        <time>2018-12-27T12:27:51Z</time>
      </trkpt>
      <trkpt lat="42.78823" lon="-0.24074">
        <ele>2352.2</ele>
        <time>2018-12-27T12:27:53Z</time>
      </trkpt>
      <trkpt lat="42.78824" lon="-0.24083">
        <ele>2352.6</ele>
        <time>2018-12-27T12:27:55Z</time>
      </trkpt>
      <trkpt lat="42.78826" lon="-0.24084">
        <ele>2353</ele>
        <time>2018-12-27T12:27:56Z</time>
      </trkpt>
      <trkpt lat="42.78826" lon="-0.24086">
        <ele>2353</ele>
        <time>2018-12-27T12:27:56Z</time>
      </trkpt>
      <trkpt lat="42.78826" lon="-0.24087">
        <ele>2353</ele>
        <time>2018-12-27T12:27:56Z</time>
      </trkpt>
      <trkpt lat="42.78825" lon="-0.24088">
        <ele>2352.8</ele>
        <time>2018-12-27T12:27:56Z</time>
      </trkpt>
      <trkpt lat="42.78831" lon="-0.2409">
        <ele>2353.8</ele>
        <time>2018-12-27T12:27:58Z</time>
      </trkpt>
      <trkpt lat="42.78832" lon="-0.24091">
        <ele>2354</ele>
        <time>2018-12-27T12:27:58Z</time>
      </trkpt>
      <trkpt lat="42.78833" lon="-0.24095">
        <ele>2354.5</ele>
        <time>2018-12-27T12:27:59Z</time>
      </trkpt>
      <trkpt lat="42.78834" lon="-0.24098">
        <ele>2354.7</ele>
        <time>2018-12-27T12:28:00Z</time>
      </trkpt>
      <trkpt lat="42.78836" lon="-0.241">
        <ele>2355.1</ele>
        <time>2018-12-27T12:28:01Z</time>
      </trkpt>
      <trkpt lat="42.78839" lon="-0.24102">
        <ele>2355.8</ele>
        <time>2018-12-27T12:28:01Z</time>
      </trkpt>
      <trkpt lat="42.78842" lon="-0.24104">
        <ele>2356.5</ele>
        <time>2018-12-27T12:28:02Z</time>
      </trkpt>
      <trkpt lat="42.78843" lon="-0.24106">
        <ele>2356.6</ele>
        <time>2018-12-27T12:28:03Z</time>
      </trkpt>
      <trkpt lat="42.78844" lon="-0.24111">
        <ele>2357.3</ele>
        <time>2018-12-27T12:28:04Z</time>
      </trkpt>
      <trkpt lat="42.78847" lon="-0.24114">
        <ele>2358</ele>
        <time>2018-12-27T12:28:05Z</time>
      </trkpt>
      <trkpt lat="42.78853" lon="-0.24118">
        <ele>2359.6</ele>
        <time>2018-12-27T12:28:07Z</time>
      </trkpt>
      <trkpt lat="42.78857" lon="-0.24121">
        <ele>2360.6</ele>
        <time>2018-12-27T12:28:08Z</time>
      </trkpt>
      <trkpt lat="42.78859" lon="-0.24123">
        <ele>2361.2</ele>
        <time>2018-12-27T12:28:08Z</time>
      </trkpt>
      <trkpt lat="42.7886" lon="-0.24125">
        <ele>2361.6</ele>
        <time>2018-12-27T12:28:09Z</time>
      </trkpt>
      <trkpt lat="42.78861" lon="-0.2413">
        <ele>2362.4</ele>
        <time>2018-12-27T12:28:10Z</time>
      </trkpt>
      <trkpt lat="42.78861" lon="-0.24136">
        <ele>2363.3</ele>
        <time>2018-12-27T12:28:11Z</time>
      </trkpt>
      <trkpt lat="42.78862" lon="-0.24139">
        <ele>2363.8</ele>
        <time>2018-12-27T12:28:12Z</time>
      </trkpt>
      <trkpt lat="42.78864" lon="-0.24141">
        <ele>2364.5</ele>
        <time>2018-12-27T12:28:12Z</time>
      </trkpt>
      <trkpt lat="42.78864" lon="-0.24142">
        <ele>2364.8</ele>
        <time>2018-12-27T12:28:13Z</time>
      </trkpt>
      <trkpt lat="42.78865" lon="-0.24145">
        <ele>2365.6</ele>
        <time>2018-12-27T12:28:13Z</time>
      </trkpt>
      <trkpt lat="42.78865" lon="-0.24146">
        <ele>2365.5</ele>
        <time>2018-12-27T12:28:13Z</time>
      </trkpt>
      <trkpt lat="42.78866" lon="-0.2415">
        <ele>2366.5</ele>
        <time>2018-12-27T12:28:14Z</time>
      </trkpt>
      <trkpt lat="42.78867" lon="-0.24155">
        <ele>2367.1</ele>
        <time>2018-12-27T12:28:15Z</time>
      </trkpt>
      <trkpt lat="42.78868" lon="-0.24158">
        <ele>2368</ele>
        <time>2018-12-27T12:28:16Z</time>
      </trkpt>
      <trkpt lat="42.78867" lon="-0.24163">
        <ele>2368.4</ele>
        <time>2018-12-27T12:28:17Z</time>
      </trkpt>
      <trkpt lat="42.78865" lon="-0.24166">
        <ele>2368.2</ele>
        <time>2018-12-27T12:28:18Z</time>
      </trkpt>
      <trkpt lat="42.7886" lon="-0.24169">
        <ele>2367.1</ele>
        <time>2018-12-27T12:28:19Z</time>
      </trkpt>
      <trkpt lat="42.78862" lon="-0.2417">
        <ele>2367.9</ele>
        <time>2018-12-27T12:28:20Z</time>
      </trkpt>
      <trkpt lat="42.78862" lon="-0.24173">
        <ele>2368.3</ele>
        <time>2018-12-27T12:28:21Z</time>
      </trkpt>
      <trkpt lat="42.78861" lon="-0.24173">
        <ele>2368.1</ele>
        <time>2018-12-27T12:28:21Z</time>
      </trkpt>
      <trkpt lat="42.78861" lon="-0.24173">
        <ele>2367.9</ele>
        <time>2018-12-27T12:28:21Z</time>
      </trkpt>
      <trkpt lat="42.78858" lon="-0.24176">
        <ele>2367.7</ele>
        <time>2018-12-27T12:28:22Z</time>
      </trkpt>
      <trkpt lat="42.78853" lon="-0.24181">
        <ele>2366.6</ele>
        <time>2018-12-27T12:28:23Z</time>
      </trkpt>
      <trkpt lat="42.78853" lon="-0.24181">
        <ele>2366.8</ele>
        <time>2018-12-27T12:28:24Z</time>
      </trkpt>
      <trkpt lat="42.78857" lon="-0.24184">
        <ele>2368.3</ele>
        <time>2018-12-27T12:28:25Z</time>
      </trkpt>
      <trkpt lat="42.78861" lon="-0.24184">
        <ele>2369.3</ele>
        <time>2018-12-27T12:28:26Z</time>
      </trkpt>
      <trkpt lat="42.78862" lon="-0.24183">
        <ele>2369.7</ele>
        <time>2018-12-27T12:28:26Z</time>
      </trkpt>
      <trkpt lat="42.78861" lon="-0.24188">
        <ele>2369.9</ele>
        <time>2018-12-27T12:28:27Z</time>
      </trkpt>
      <trkpt lat="42.78861" lon="-0.24192">
        <ele>2370.3</ele>
        <time>2018-12-27T12:28:28Z</time>
      </trkpt>
      <trkpt lat="42.78861" lon="-0.24194">
        <ele>2370.7</ele>
        <time>2018-12-27T12:28:28Z</time>
      </trkpt>
      <trkpt lat="42.78863" lon="-0.24201">
        <ele>2372.2</ele>
        <time>2018-12-27T12:28:30Z</time>
      </trkpt>
      <trkpt lat="42.78863" lon="-0.24203">
        <ele>2372.4</ele>
        <time>2018-12-27T12:28:30Z</time>
      </trkpt>
      <trkpt lat="42.78863" lon="-0.24204">
        <ele>2372.7</ele>
        <time>2018-12-27T12:28:30Z</time>
      </trkpt>
      <trkpt lat="42.78864" lon="-0.24204">
        <ele>2372.9</ele>
        <time>2018-12-27T12:28:31Z</time>
      </trkpt>
      <trkpt lat="42.78866" lon="-0.24206">
        <ele>2373.9</ele>
        <time>2018-12-27T12:28:31Z</time>
      </trkpt>
      <trkpt lat="42.78867" lon="-0.2421">
        <ele>2374.7</ele>
        <time>2018-12-27T12:28:32Z</time>
      </trkpt>
      <trkpt lat="42.78867" lon="-0.24213">
        <ele>2375.1</ele>
        <time>2018-12-27T12:28:33Z</time>
      </trkpt>
      <trkpt lat="42.78868" lon="-0.24217">
        <ele>2375.6</ele>
        <time>2018-12-27T12:28:33Z</time>
      </trkpt>
      <trkpt lat="42.7887" lon="-0.24221">
        <ele>2376.9</ele>
        <time>2018-12-27T12:28:34Z</time>
      </trkpt>
      <trkpt lat="42.78871" lon="-0.24227">
        <ele>2377.7</ele>
        <time>2018-12-27T12:28:36Z</time>
      </trkpt>
      <trkpt lat="42.78872" lon="-0.24228">
        <ele>2378.2</ele>
        <time>2018-12-27T12:28:36Z</time>
      </trkpt>
      <trkpt lat="42.78873" lon="-0.24232">
        <ele>2379.1</ele>
        <time>2018-12-27T12:28:37Z</time>
      </trkpt>
      <trkpt lat="42.78874" lon="-0.24233">
        <ele>2379.3</ele>
        <time>2018-12-27T12:28:37Z</time>
      </trkpt>
      <trkpt lat="42.78874" lon="-0.24234">
        <ele>2379.4</ele>
        <time>2018-12-27T12:28:37Z</time>
      </trkpt>
      <trkpt lat="42.78874" lon="-0.24236">
        <ele>2379.7</ele>
        <time>2018-12-27T12:28:38Z</time>
      </trkpt>
      <trkpt lat="42.78876" lon="-0.24241">
        <ele>2380.9</ele>
        <time>2018-12-27T12:28:39Z</time>
      </trkpt>
      <trkpt lat="42.78879" lon="-0.24246">
        <ele>2382.6</ele>
        <time>2018-12-27T12:28:40Z</time>
      </trkpt>
      <trkpt lat="42.78881" lon="-0.24248">
        <ele>2383.2</ele>
        <time>2018-12-27T12:28:41Z</time>
      </trkpt>
      <trkpt lat="42.78883" lon="-0.2425">
        <ele>2384</ele>
        <time>2018-12-27T12:28:41Z</time>
      </trkpt>
      <trkpt lat="42.78884" lon="-0.2425">
        <ele>2384.6</ele>
        <time>2018-12-27T12:28:42Z</time>
      </trkpt>
      <trkpt lat="42.78884" lon="-0.24251">
        <ele>2384.7</ele>
        <time>2018-12-27T12:28:42Z</time>
      </trkpt>
      <trkpt lat="42.78886" lon="-0.24256">
        <ele>2385.7</ele>
        <time>2018-12-27T12:28:43Z</time>
      </trkpt>
      <trkpt lat="42.78887" lon="-0.24259">
        <ele>2386.3</ele>
        <time>2018-12-27T12:28:43Z</time>
      </trkpt>
      <trkpt lat="42.78889" lon="-0.24263">
        <ele>2387.1</ele>
        <time>2018-12-27T12:28:44Z</time>
      </trkpt>
      <trkpt lat="42.78889" lon="-0.24264">
        <ele>2387.3</ele>
        <time>2018-12-27T12:28:45Z</time>
      </trkpt>
      <trkpt lat="42.7889" lon="-0.2427">
        <ele>2388.2</ele>
        <time>2018-12-27T12:28:46Z</time>
      </trkpt>
      <trkpt lat="42.78893" lon="-0.24277">
        <ele>2389.7</ele>
        <time>2018-12-27T12:28:47Z</time>
      </trkpt>
      <trkpt lat="42.78893" lon="-0.24279">
        <ele>2389.9</ele>
        <time>2018-12-27T12:28:48Z</time>
      </trkpt>
      <trkpt lat="42.78894" lon="-0.24283">
        <ele>2390.4</ele>
        <time>2018-12-27T12:28:49Z</time>
      </trkpt>
      <trkpt lat="42.78896" lon="-0.24288">
        <ele>2391.4</ele>
        <time>2018-12-27T12:28:50Z</time>
      </trkpt>
      <trkpt lat="42.78897" lon="-0.24289">
        <ele>2391.9</ele>
        <time>2018-12-27T12:28:50Z</time>
      </trkpt>
      <trkpt lat="42.789" lon="-0.24295">
        <ele>2393.2</ele>
        <time>2018-12-27T12:28:52Z</time>
      </trkpt>
      <trkpt lat="42.78902" lon="-0.24299">
        <ele>2394.1</ele>
        <time>2018-12-27T12:28:52Z</time>
      </trkpt>
      <trkpt lat="42.78904" lon="-0.24306">
        <ele>2395.2</ele>
        <time>2018-12-27T12:28:54Z</time>
      </trkpt>
      <trkpt lat="42.78907" lon="-0.24311">
        <ele>2396.3</ele>
        <time>2018-12-27T12:28:55Z</time>
      </trkpt>
      <trkpt lat="42.78908" lon="-0.24314">
        <ele>2396.8</ele>
        <time>2018-12-27T12:28:56Z</time>
      </trkpt>
      <trkpt lat="42.78907" lon="-0.24316">
        <ele>2396.9</ele>
        <time>2018-12-27T12:28:56Z</time>
      </trkpt>
      <trkpt lat="42.78905" lon="-0.24324">
        <ele>2396.9</ele>
        <time>2018-12-27T12:28:58Z</time>
      </trkpt>
      <trkpt lat="42.7891" lon="-0.2433">
        <ele>2398.3</ele>
        <time>2018-12-27T12:29:00Z</time>
      </trkpt>
      <trkpt lat="42.78916" lon="-0.2434">
        <ele>2400.1</ele>
        <time>2018-12-27T12:29:02Z</time>
      </trkpt>
      <trkpt lat="42.78923" lon="-0.24349">
        <ele>2401.6</ele>
        <time>2018-12-27T12:29:05Z</time>
      </trkpt>
      <trkpt lat="42.78926" lon="-0.24356">
        <ele>2402.1</ele>
        <time>2018-12-27T12:29:06Z</time>
      </trkpt>
      <trkpt lat="42.78927" lon="-0.24355">
        <ele>2402.2</ele>
        <time>2018-12-27T12:29:07Z</time>
      </trkpt>
      <trkpt lat="42.78932" lon="-0.24355">
        <ele>2402.8</ele>
        <time>2018-12-27T12:29:08Z</time>
      </trkpt>
      <trkpt lat="42.7894" lon="-0.24357">
        <ele>2403.8</ele>
        <time>2018-12-27T12:29:10Z</time>
      </trkpt>
      <trkpt lat="42.78946" lon="-0.24358">
        <ele>2404.6</ele>
        <time>2018-12-27T12:29:12Z</time>
      </trkpt>
      <trkpt lat="42.78951" lon="-0.2436">
        <ele>2405.1</ele>
        <time>2018-12-27T12:29:13Z</time>
      </trkpt>
      <trkpt lat="42.78953" lon="-0.2436">
        <ele>2405.3</ele>
        <time>2018-12-27T12:29:14Z</time>
      </trkpt>
      <trkpt lat="42.78954" lon="-0.24361">
        <ele>2405.2</ele>
        <time>2018-12-27T12:29:14Z</time>
      </trkpt>
      <trkpt lat="42.78958" lon="-0.24369">
        <ele>2405.3</ele>
        <time>2018-12-27T12:29:16Z</time>
      </trkpt>
      <trkpt lat="42.7896" lon="-0.24373">
        <ele>2405.1</ele>
        <time>2018-12-27T12:29:17Z</time>
      </trkpt>
      <trkpt lat="42.78963" lon="-0.24374">
        <ele>2405.2</ele>
        <time>2018-12-27T12:29:18Z</time>
      </trkpt>
      <trkpt lat="42.78963" lon="-0.24375">
        <ele>2405.1</ele>
        <time>2018-12-27T12:29:18Z</time>
      </trkpt>
      <trkpt lat="42.78966" lon="-0.24384">
        <ele>2405.3</ele>
        <time>2018-12-27T12:29:20Z</time>
      </trkpt>
      <trkpt lat="42.78971" lon="-0.24392">
        <ele>2405.3</ele>
        <time>2018-12-27T12:29:22Z</time>
      </trkpt>
      <trkpt lat="42.78973" lon="-0.24394">
        <ele>2405.3</ele>
        <time>2018-12-27T12:29:23Z</time>
      </trkpt>
      <trkpt lat="42.78979" lon="-0.24403">
        <ele>2405.3</ele>
        <time>2018-12-27T12:29:25Z</time>
      </trkpt>
      <trkpt lat="42.78982" lon="-0.24406">
        <ele>2405.3</ele>
        <time>2018-12-27T12:29:26Z</time>
      </trkpt>
      <trkpt lat="42.78987" lon="-0.24409">
        <ele>2405.2</ele>
        <time>2018-12-27T12:29:28Z</time>
      </trkpt>
      <trkpt lat="42.78992" lon="-0.24412">
        <ele>2405.2</ele>
        <time>2018-12-27T12:29:29Z</time>
      </trkpt>
      <trkpt lat="42.78994" lon="-0.24411">
        <ele>2405.2</ele>
        <time>2018-12-27T12:29:29Z</time>
      </trkpt>
      <trkpt lat="42.78999" lon="-0.24414">
        <ele>2405</ele>
        <time>2018-12-27T12:29:31Z</time>
      </trkpt>
      <trkpt lat="42.79005" lon="-0.24419">
        <ele>2404.9</ele>
        <time>2018-12-27T12:29:33Z</time>
      </trkpt>
      <trkpt lat="42.79013" lon="-0.24423">
        <ele>2404.7</ele>
        <time>2018-12-27T12:29:35Z</time>
      </trkpt>
      <trkpt lat="42.79021" lon="-0.24424">
        <ele>2404.4</ele>
        <time>2018-12-27T12:29:37Z</time>
      </trkpt>
      <trkpt lat="42.79028" lon="-0.24431">
        <ele>2404.2</ele>
        <time>2018-12-27T12:29:40Z</time>
      </trkpt>
      <trkpt lat="42.79029" lon="-0.24432">
        <ele>2404.1</ele>
        <time>2018-12-27T12:29:40Z</time>
      </trkpt>
      <trkpt lat="42.79035" lon="-0.24439">
        <ele>2403.7</ele>
        <time>2018-12-27T12:29:42Z</time>
      </trkpt>
      <trkpt lat="42.79042" lon="-0.24448">
        <ele>2403.3</ele>
        <time>2018-12-27T12:29:45Z</time>
      </trkpt>
      <trkpt lat="42.79049" lon="-0.24451">
        <ele>2404.3</ele>
        <time>2018-12-27T12:29:47Z</time>
      </trkpt>
      <trkpt lat="42.79058" lon="-0.24454">
        <ele>2405.8</ele>
        <time>2018-12-27T12:29:49Z</time>
      </trkpt>
      <trkpt lat="42.79066" lon="-0.24456">
        <ele>2406.9</ele>
        <time>2018-12-27T12:29:51Z</time>
      </trkpt>
      <trkpt lat="42.79067" lon="-0.24464">
        <ele>2407.2</ele>
        <time>2018-12-27T12:29:53Z</time>
      </trkpt>
      <trkpt lat="42.79068" lon="-0.24467">
        <ele>2407.4</ele>
        <time>2018-12-27T12:29:54Z</time>
      </trkpt>
      <trkpt lat="42.7907" lon="-0.24481">
        <ele>2407.7</ele>
        <time>2018-12-27T12:29:56Z</time>
      </trkpt>
      <trkpt lat="42.79073" lon="-0.24494">
        <ele>2408.1</ele>
        <time>2018-12-27T12:29:59Z</time>
      </trkpt>
      <trkpt lat="42.79074" lon="-0.24495">
        <ele>2408.4</ele>
        <time>2018-12-27T12:29:59Z</time>
      </trkpt>
      <trkpt lat="42.79078" lon="-0.24502">
        <ele>2408.7</ele>
        <time>2018-12-27T12:30:01Z</time>
      </trkpt>
      <trkpt lat="42.79082" lon="-0.24516">
        <ele>2409</ele>
        <time>2018-12-27T12:30:04Z</time>
      </trkpt>
      <trkpt lat="42.79087" lon="-0.24534">
        <ele>2409.2</ele>
        <time>2018-12-27T12:30:08Z</time>
      </trkpt>
      <trkpt lat="42.79093" lon="-0.24551">
        <ele>2409</ele>
        <time>2018-12-27T12:30:12Z</time>
      </trkpt>
      <trkpt lat="42.79098" lon="-0.24564">
        <ele>2408.6</ele>
        <time>2018-12-27T12:30:14Z</time>
      </trkpt>
      <trkpt lat="42.79105" lon="-0.24578">
        <ele>2408.2</ele>
        <time>2018-12-27T12:30:18Z</time>
      </trkpt>
      <trkpt lat="42.7911" lon="-0.24591">
        <ele>2407.7</ele>
        <time>2018-12-27T12:30:21Z</time>
      </trkpt>
      <trkpt lat="42.79114" lon="-0.24599">
        <ele>2407.3</ele>
        <time>2018-12-27T12:30:22Z</time>
      </trkpt>
      <trkpt lat="42.79113" lon="-0.24602">
        <ele>2407.1</ele>
        <time>2018-12-27T12:30:23Z</time>
      </trkpt>
      <trkpt lat="42.79111" lon="-0.2461">
        <ele>2406.8</ele>
        <time>2018-12-27T12:30:25Z</time>
      </trkpt>
      <trkpt lat="42.79109" lon="-0.24622">
        <ele>2406</ele>
        <time>2018-12-27T12:30:27Z</time>
      </trkpt>
      <trkpt lat="42.79109" lon="-0.24632">
        <ele>2406.3</ele>
        <time>2018-12-27T12:30:29Z</time>
      </trkpt>
      <trkpt lat="42.7911" lon="-0.24635">
        <ele>2406.5</ele>
        <time>2018-12-27T12:30:30Z</time>
      </trkpt>
      <trkpt lat="42.79111" lon="-0.24636">
        <ele>2406.6</ele>
        <time>2018-12-27T12:30:30Z</time>
      </trkpt>
      <trkpt lat="42.79112" lon="-0.24638">
        <ele>2406.6</ele>
        <time>2018-12-27T12:30:30Z</time>
      </trkpt>
      <trkpt lat="42.79112" lon="-0.24645">
        <ele>2407</ele>
        <time>2018-12-27T12:30:32Z</time>
      </trkpt>
      <trkpt lat="42.79113" lon="-0.24647">
        <ele>2407.2</ele>
        <time>2018-12-27T12:30:32Z</time>
      </trkpt>
      <trkpt lat="42.79111" lon="-0.24659">
        <ele>2407.9</ele>
        <time>2018-12-27T12:30:35Z</time>
      </trkpt>
      <trkpt lat="42.79111" lon="-0.24668">
        <ele>2408.4</ele>
        <time>2018-12-27T12:30:36Z</time>
      </trkpt>
      <trkpt lat="42.7911" lon="-0.2467">
        <ele>2408.4</ele>
        <time>2018-12-27T12:30:37Z</time>
      </trkpt>
      <trkpt lat="42.79113" lon="-0.2468">
        <ele>2409.1</ele>
        <time>2018-12-27T12:30:39Z</time>
      </trkpt>
      <trkpt lat="42.79113" lon="-0.2469">
        <ele>2409.8</ele>
        <time>2018-12-27T12:30:41Z</time>
      </trkpt>
      <trkpt lat="42.79111" lon="-0.24698">
        <ele>2410.1</ele>
        <time>2018-12-27T12:30:43Z</time>
      </trkpt>
      <trkpt lat="42.79109" lon="-0.24703">
        <ele>2410.3</ele>
        <time>2018-12-27T12:30:44Z</time>
      </trkpt>
      <trkpt lat="42.79107" lon="-0.24716">
        <ele>2411</ele>
        <time>2018-12-27T12:30:46Z</time>
      </trkpt>
      <trkpt lat="42.79106" lon="-0.2473">
        <ele>2411.8</ele>
        <time>2018-12-27T12:30:49Z</time>
      </trkpt>
      <trkpt lat="42.79108" lon="-0.24746">
        <ele>2412.5</ele>
        <time>2018-12-27T12:30:52Z</time>
      </trkpt>
      <trkpt lat="42.79111" lon="-0.24764">
        <ele>2413.4</ele>
        <time>2018-12-27T12:30:56Z</time>
      </trkpt>
      <trkpt lat="42.79113" lon="-0.24781">
        <ele>2414.3</ele>
        <time>2018-12-27T12:30:59Z</time>
      </trkpt>
      <trkpt lat="42.7911" lon="-0.24795">
        <ele>2415.1</ele>
        <time>2018-12-27T12:31:02Z</time>
      </trkpt>
      <trkpt lat="42.7911" lon="-0.24807">
        <ele>2416</ele>
        <time>2018-12-27T12:31:05Z</time>
      </trkpt>
      <trkpt lat="42.79107" lon="-0.24822">
        <ele>2417.1</ele>
        <time>2018-12-27T12:31:07Z</time>
      </trkpt>
      <trkpt lat="42.79105" lon="-0.24839">
        <ele>2418.6</ele>
        <time>2018-12-27T12:31:11Z</time>
      </trkpt>
      <trkpt lat="42.79106" lon="-0.24851">
        <ele>2419.5</ele>
        <time>2018-12-27T12:31:13Z</time>
      </trkpt>
      <trkpt lat="42.79105" lon="-0.24866">
        <ele>2420.7</ele>
        <time>2018-12-27T12:31:16Z</time>
      </trkpt>
      <trkpt lat="42.79102" lon="-0.2488">
        <ele>2422.6</ele>
        <time>2018-12-27T12:31:19Z</time>
      </trkpt>
      <trkpt lat="42.79102" lon="-0.24896">
        <ele>2424.6</ele>
        <time>2018-12-27T12:31:22Z</time>
      </trkpt>
      <trkpt lat="42.79103" lon="-0.24906">
        <ele>2425.6</ele>
        <time>2018-12-27T12:31:24Z</time>
      </trkpt>
      <trkpt lat="42.79103" lon="-0.24906">
        <ele>2425.6</ele>
        <time>2018-12-27T12:31:24Z</time>
      </trkpt>
      <trkpt lat="42.791" lon="-0.24905">
        <ele>2426.1</ele>
        <time>2018-12-27T12:31:25Z</time>
      </trkpt>
      <trkpt lat="42.79098" lon="-0.24913">
        <ele>2427.4</ele>
        <time>2018-12-27T12:31:27Z</time>
      </trkpt>
      <trkpt lat="42.79096" lon="-0.24917">
        <ele>2428.3</ele>
        <time>2018-12-27T12:31:27Z</time>
      </trkpt>
      <trkpt lat="42.79094" lon="-0.24922">
        <ele>2429.3</ele>
        <time>2018-12-27T12:31:29Z</time>
      </trkpt>
      <trkpt lat="42.79093" lon="-0.24923">
        <ele>2429.5</ele>
        <time>2018-12-27T12:31:29Z</time>
      </trkpt>
      <trkpt lat="42.79091" lon="-0.24928">
        <ele>2430.6</ele>
        <time>2018-12-27T12:31:30Z</time>
      </trkpt>
      <trkpt lat="42.7909" lon="-0.24933">
        <ele>2431.5</ele>
        <time>2018-12-27T12:31:31Z</time>
      </trkpt>
      <trkpt lat="42.79085" lon="-0.24933">
        <ele>2432.4</ele>
        <time>2018-12-27T12:31:32Z</time>
      </trkpt>
      <trkpt lat="42.79082" lon="-0.24937">
        <ele>2433.4</ele>
        <time>2018-12-27T12:31:33Z</time>
      </trkpt>
      <trkpt lat="42.79079" lon="-0.24945">
        <ele>2435.3</ele>
        <time>2018-12-27T12:31:35Z</time>
      </trkpt>
      <trkpt lat="42.79078" lon="-0.24949">
        <ele>2435.9</ele>
        <time>2018-12-27T12:31:36Z</time>
      </trkpt>
      <trkpt lat="42.79077" lon="-0.24954">
        <ele>2436.7</ele>
        <time>2018-12-27T12:31:37Z</time>
      </trkpt>
      <trkpt lat="42.79076" lon="-0.24964">
        <ele>2438.3</ele>
        <time>2018-12-27T12:31:39Z</time>
      </trkpt>
      <trkpt lat="42.79077" lon="-0.24968">
        <ele>2439</ele>
        <time>2018-12-27T12:31:40Z</time>
      </trkpt>
      <trkpt lat="42.79076" lon="-0.24976">
        <ele>2440.3</ele>
        <time>2018-12-27T12:31:42Z</time>
      </trkpt>
      <trkpt lat="42.79075" lon="-0.24978">
        <ele>2440.8</ele>
        <time>2018-12-27T12:31:42Z</time>
      </trkpt>
      <trkpt lat="42.79072" lon="-0.24984">
        <ele>2442.4</ele>
        <time>2018-12-27T12:31:43Z</time>
      </trkpt>
      <trkpt lat="42.7907" lon="-0.24991">
        <ele>2444.1</ele>
        <time>2018-12-27T12:31:45Z</time>
      </trkpt>
      <trkpt lat="42.79068" lon="-0.24997">
        <ele>2445.4</ele>
        <time>2018-12-27T12:31:46Z</time>
      </trkpt>
      <trkpt lat="42.79066" lon="-0.25004">
        <ele>2447</ele>
        <time>2018-12-27T12:31:48Z</time>
      </trkpt>
      <trkpt lat="42.79066" lon="-0.25006">
        <ele>2447.2</ele>
        <time>2018-12-27T12:31:48Z</time>
      </trkpt>
      <trkpt lat="42.79068" lon="-0.25013">
        <ele>2447.9</ele>
        <time>2018-12-27T12:31:50Z</time>
      </trkpt>
      <trkpt lat="42.79068" lon="-0.25024">
        <ele>2449.6</ele>
        <time>2018-12-27T12:31:52Z</time>
      </trkpt>
      <trkpt lat="42.79068" lon="-0.2503">
        <ele>2450.7</ele>
        <time>2018-12-27T12:31:53Z</time>
      </trkpt>
      <trkpt lat="42.79068" lon="-0.25033">
        <ele>2451.4</ele>
        <time>2018-12-27T12:31:54Z</time>
      </trkpt>
      <trkpt lat="42.79068" lon="-0.25037">
        <ele>2452</ele>
        <time>2018-12-27T12:31:54Z</time>
      </trkpt>
      <trkpt lat="42.79068" lon="-0.25045">
        <ele>2453.2</ele>
        <time>2018-12-27T12:31:56Z</time>
      </trkpt>
      <trkpt lat="42.79069" lon="-0.25049">
        <ele>2453.8</ele>
        <time>2018-12-27T12:31:57Z</time>
      </trkpt>
      <trkpt lat="42.79069" lon="-0.25055">
        <ele>2454.7</ele>
        <time>2018-12-27T12:31:58Z</time>
      </trkpt>
      <trkpt lat="42.79067" lon="-0.25066">
        <ele>2456.8</ele>
        <time>2018-12-27T12:32:00Z</time>
      </trkpt>
      <trkpt lat="42.79067" lon="-0.25069">
        <ele>2457.4</ele>
        <time>2018-12-27T12:32:01Z</time>
      </trkpt>
      <trkpt lat="42.79065" lon="-0.25073">
        <ele>2458.6</ele>
        <time>2018-12-27T12:32:02Z</time>
      </trkpt>
      <trkpt lat="42.79064" lon="-0.2508">
        <ele>2459.8</ele>
        <time>2018-12-27T12:32:03Z</time>
      </trkpt>
      <trkpt lat="42.79064" lon="-0.25083">
        <ele>2460.3</ele>
        <time>2018-12-27T12:32:04Z</time>
      </trkpt>
      <trkpt lat="42.79065" lon="-0.25094">
        <ele>2461.9</ele>
        <time>2018-12-27T12:32:06Z</time>
      </trkpt>
      <trkpt lat="42.79062" lon="-0.25105">
        <ele>2464.5</ele>
        <time>2018-12-27T12:32:08Z</time>
      </trkpt>
      <trkpt lat="42.79058" lon="-0.25115">
        <ele>2467.3</ele>
        <time>2018-12-27T12:32:10Z</time>
      </trkpt>
      <trkpt lat="42.79055" lon="-0.25125">
        <ele>2469.8</ele>
        <time>2018-12-27T12:32:12Z</time>
      </trkpt>
      <trkpt lat="42.79055" lon="-0.25129">
        <ele>2470.6</ele>
        <time>2018-12-27T12:32:13Z</time>
      </trkpt>
      <trkpt lat="42.79056" lon="-0.25135">
        <ele>2471.5</ele>
        <time>2018-12-27T12:32:14Z</time>
      </trkpt>
      <trkpt lat="42.79053" lon="-0.25147">
        <ele>2474.5</ele>
        <time>2018-12-27T12:32:17Z</time>
      </trkpt>
      <trkpt lat="42.79053" lon="-0.25151">
        <ele>2475.5</ele>
        <time>2018-12-27T12:32:18Z</time>
      </trkpt>
      <trkpt lat="42.79051" lon="-0.25155">
        <ele>2476.8</ele>
        <time>2018-12-27T12:32:19Z</time>
      </trkpt>
      <trkpt lat="42.79051" lon="-0.25158">
        <ele>2477.4</ele>
        <time>2018-12-27T12:32:19Z</time>
      </trkpt>
      <trkpt lat="42.7905" lon="-0.25163">
        <ele>2478.5</ele>
        <time>2018-12-27T12:32:20Z</time>
      </trkpt>
      <trkpt lat="42.79046" lon="-0.2517">
        <ele>2481.3</ele>
        <time>2018-12-27T12:32:22Z</time>
      </trkpt>
      <trkpt lat="42.79045" lon="-0.25171">
        <ele>2481.6</ele>
        <time>2018-12-27T12:32:22Z</time>
      </trkpt>
      <trkpt lat="42.79044" lon="-0.25175">
        <ele>2482.6</ele>
        <time>2018-12-27T12:32:23Z</time>
      </trkpt>
      <trkpt lat="42.79044" lon="-0.25179">
        <ele>2483.7</ele>
        <time>2018-12-27T12:32:24Z</time>
      </trkpt>
      <trkpt lat="42.79042" lon="-0.25189">
        <ele>2486.2</ele>
        <time>2018-12-27T12:32:26Z</time>
      </trkpt>
      <trkpt lat="42.79042" lon="-0.2519">
        <ele>2486.5</ele>
        <time>2018-12-27T12:32:26Z</time>
      </trkpt>
      <trkpt lat="42.79041" lon="-0.25192">
        <ele>2487.3</ele>
        <time>2018-12-27T12:32:27Z</time>
      </trkpt>
      <trkpt lat="42.7904" lon="-0.25194">
        <ele>2488.2</ele>
        <time>2018-12-27T12:32:27Z</time>
      </trkpt>
      <trkpt lat="42.79041" lon="-0.25202">
        <ele>2489.3</ele>
        <time>2018-12-27T12:32:28Z</time>
      </trkpt>
      <trkpt lat="42.79041" lon="-0.25202">
        <ele>2489.2</ele>
        <time>2018-12-27T12:32:29Z</time>
      </trkpt>
      <trkpt lat="42.7904" lon="-0.25202">
        <ele>2489.6</ele>
        <time>2018-12-27T12:32:29Z</time>
      </trkpt>
      <trkpt lat="42.79045" lon="-0.25206">
        <ele>2488.5</ele>
        <time>2018-12-27T12:32:30Z</time>
      </trkpt>
      <trkpt lat="42.79046" lon="-0.2521">
        <ele>2489.1</ele>
        <time>2018-12-27T12:32:31Z</time>
      </trkpt>
      <trkpt lat="42.79045" lon="-0.2521">
        <ele>2489.6</ele>
        <time>2018-12-27T12:32:32Z</time>
      </trkpt>
      <trkpt lat="42.79044" lon="-0.25213">
        <ele>2490.4</ele>
        <time>2018-12-27T12:32:32Z</time>
      </trkpt>
      <trkpt lat="42.79045" lon="-0.25216">
        <ele>2491.1</ele>
        <time>2018-12-27T12:32:33Z</time>
      </trkpt>
      <trkpt lat="42.79046" lon="-0.25221">
        <ele>2492.3</ele>
        <time>2018-12-27T12:32:34Z</time>
      </trkpt>
      <trkpt lat="42.79044" lon="-0.25223">
        <ele>2493.3</ele>
        <time>2018-12-27T12:32:34Z</time>
      </trkpt>
      <trkpt lat="42.79041" lon="-0.25225">
        <ele>2494.6</ele>
        <time>2018-12-27T12:32:35Z</time>
      </trkpt>
      <trkpt lat="42.79041" lon="-0.25233">
        <ele>2497.2</ele>
        <time>2018-12-27T12:32:37Z</time>
      </trkpt>
      <trkpt lat="42.79041" lon="-0.25238">
        <ele>2498.1</ele>
        <time>2018-12-27T12:32:38Z</time>
      </trkpt>
      <trkpt lat="42.79041" lon="-0.25239">
        <ele>2498.6</ele>
        <time>2018-12-27T12:32:38Z</time>
      </trkpt>
      <trkpt lat="42.79041" lon="-0.2524">
        <ele>2498.8</ele>
        <time>2018-12-27T12:32:38Z</time>
      </trkpt>
      <trkpt lat="42.79037" lon="-0.25241">
        <ele>2500.8</ele>
        <time>2018-12-27T12:32:39Z</time>
      </trkpt>
      <trkpt lat="42.79037" lon="-0.25243">
        <ele>2501.2</ele>
        <time>2018-12-27T12:32:39Z</time>
      </trkpt>
      <trkpt lat="42.79039" lon="-0.25243">
        <ele>2500.3</ele>
        <time>2018-12-27T12:32:40Z</time>
      </trkpt>
      <trkpt lat="42.79043" lon="-0.25245">
        <ele>2499.6</ele>
        <time>2018-12-27T12:32:41Z</time>
      </trkpt>
      <trkpt lat="42.79046" lon="-0.25251">
        <ele>2500.3</ele>
        <time>2018-12-27T12:32:42Z</time>
      </trkpt>
      <trkpt lat="42.79044" lon="-0.25253">
        <ele>2501.4</ele>
        <time>2018-12-27T12:32:43Z</time>
      </trkpt>
      <trkpt lat="42.79042" lon="-0.25255">
        <ele>2502.2</ele>
        <time>2018-12-27T12:32:44Z</time>
      </trkpt>
      <trkpt lat="42.79041" lon="-0.25259">
        <ele>2503.6</ele>
        <time>2018-12-27T12:32:45Z</time>
      </trkpt>
      <trkpt lat="42.7904" lon="-0.25259">
        <ele>2503.9</ele>
        <time>2018-12-27T12:32:45Z</time>
      </trkpt>
      <trkpt lat="42.79039" lon="-0.25261">
        <ele>2505.2</ele>
        <time>2018-12-27T12:32:46Z</time>
      </trkpt>
      <trkpt lat="42.79037" lon="-0.25264">
        <ele>2506.7</ele>
        <time>2018-12-27T12:32:46Z</time>
      </trkpt>
      <trkpt lat="42.79036" lon="-0.25266">
        <ele>2507.6</ele>
        <time>2018-12-27T12:32:47Z</time>
      </trkpt>
      <trkpt lat="42.79037" lon="-0.25268">
        <ele>2507.6</ele>
        <time>2018-12-27T12:32:47Z</time>
      </trkpt>
      <trkpt lat="42.7904" lon="-0.25267">
        <ele>2506.1</ele>
        <time>2018-12-27T12:32:48Z</time>
      </trkpt>
      <trkpt lat="42.7904" lon="-0.25269">
        <ele>2506.6</ele>
        <time>2018-12-27T12:32:48Z</time>
      </trkpt>
      <trkpt lat="42.79041" lon="-0.25271">
        <ele>2506.7</ele>
        <time>2018-12-27T12:32:49Z</time>
      </trkpt>
      <trkpt lat="42.7904" lon="-0.25272">
        <ele>2507.4</ele>
        <time>2018-12-27T12:32:49Z</time>
      </trkpt>
      <trkpt lat="42.79038" lon="-0.25277">
        <ele>2509.5</ele>
        <time>2018-12-27T12:32:50Z</time>
      </trkpt>
      <trkpt lat="42.79038" lon="-0.25278">
        <ele>2510.1</ele>
        <time>2018-12-27T12:32:51Z</time>
      </trkpt>
      <trkpt lat="42.79036" lon="-0.25283">
        <ele>2511.8</ele>
        <time>2018-12-27T12:32:52Z</time>
      </trkpt>
      <trkpt lat="42.79036" lon="-0.25285">
        <ele>2512.6</ele>
        <time>2018-12-27T12:32:52Z</time>
      </trkpt>
      <trkpt lat="42.79034" lon="-0.25288">
        <ele>2513.9</ele>
        <time>2018-12-27T12:32:53Z</time>
      </trkpt>
      <trkpt lat="42.79033" lon="-0.2529">
        <ele>2514.5</ele>
        <time>2018-12-27T12:32:53Z</time>
      </trkpt>
      <trkpt lat="42.79033" lon="-0.25291">
        <ele>2514.9</ele>
        <time>2018-12-27T12:32:53Z</time>
      </trkpt>
      <trkpt lat="42.79034" lon="-0.25292">
        <ele>2515</ele>
        <time>2018-12-27T12:32:54Z</time>
      </trkpt>
      <trkpt lat="42.79033" lon="-0.25294">
        <ele>2515.7</ele>
        <time>2018-12-27T12:32:54Z</time>
      </trkpt>
      <trkpt lat="42.7903" lon="-0.25293">
        <ele>2516.6</ele>
        <time>2018-12-27T12:32:55Z</time>
      </trkpt>
      <trkpt lat="42.79027" lon="-0.25295">
        <ele>2517.8</ele>
        <time>2018-12-27T12:32:56Z</time>
      </trkpt>
      <trkpt lat="42.79026" lon="-0.25299">
        <ele>2519.1</ele>
        <time>2018-12-27T12:32:57Z</time>
      </trkpt>
      <trkpt lat="42.79024" lon="-0.25302">
        <ele>2520.1</ele>
        <time>2018-12-27T12:32:58Z</time>
      </trkpt>
      <trkpt lat="42.79023" lon="-0.25303">
        <ele>2520.8</ele>
        <time>2018-12-27T12:32:58Z</time>
      </trkpt>
      <trkpt lat="42.79022" lon="-0.25304">
        <ele>2521</ele>
        <time>2018-12-27T12:32:58Z</time>
      </trkpt>
      <trkpt lat="42.79022" lon="-0.25305">
        <ele>2521.5</ele>
        <time>2018-12-27T12:32:58Z</time>
      </trkpt>
      <trkpt lat="42.7902" lon="-0.25308">
        <ele>2522.5</ele>
        <time>2018-12-27T12:32:59Z</time>
      </trkpt>
      <trkpt lat="42.79017" lon="-0.25311">
        <ele>2523.8</ele>
        <time>2018-12-27T12:33:00Z</time>
      </trkpt>
      <trkpt lat="42.79014" lon="-0.25308">
        <ele>2524.2</ele>
        <time>2018-12-27T12:33:01Z</time>
      </trkpt>
      <trkpt lat="42.79011" lon="-0.2531">
        <ele>2525.6</ele>
        <time>2018-12-27T12:33:02Z</time>
      </trkpt>
      <trkpt lat="42.7901" lon="-0.25312">
        <ele>2526</ele>
        <time>2018-12-27T12:33:03Z</time>
      </trkpt>
      <trkpt lat="42.79008" lon="-0.25316">
        <ele>2526.9</ele>
        <time>2018-12-27T12:33:04Z</time>
      </trkpt>
      <trkpt lat="42.79006" lon="-0.2532">
        <ele>2527.9</ele>
        <time>2018-12-27T12:33:05Z</time>
      </trkpt>
      <trkpt lat="42.79004" lon="-0.25327">
        <ele>2529.1</ele>
        <time>2018-12-27T12:33:06Z</time>
      </trkpt>
      <trkpt lat="42.79" lon="-0.2534">
        <ele>2531.2</ele>
        <time>2018-12-27T12:33:09Z</time>
      </trkpt>
      <trkpt lat="42.78998" lon="-0.25345">
        <ele>2531.9</ele>
        <time>2018-12-27T12:33:10Z</time>
      </trkpt>
      <trkpt lat="42.78997" lon="-0.25346">
        <ele>2532.1</ele>
        <time>2018-12-27T12:33:10Z</time>
      </trkpt>
      <trkpt lat="42.78993" lon="-0.25349">
        <ele>2532.8</ele>
        <time>2018-12-27T12:33:11Z</time>
      </trkpt>
      <trkpt lat="42.7899" lon="-0.25353">
        <ele>2533.4</ele>
        <time>2018-12-27T12:33:12Z</time>
      </trkpt>
      <trkpt lat="42.78986" lon="-0.25354">
        <ele>2533.8</ele>
        <time>2018-12-27T12:33:13Z</time>
      </trkpt>
      <trkpt lat="42.78986" lon="-0.25356">
        <ele>2533.8</ele>
        <time>2018-12-27T12:33:14Z</time>
      </trkpt>
      <trkpt lat="42.78985" lon="-0.25359">
        <ele>2534</ele>
        <time>2018-12-27T12:33:14Z</time>
      </trkpt>
      <trkpt lat="42.78984" lon="-0.25366">
        <ele>2534.3</ele>
        <time>2018-12-27T12:33:16Z</time>
      </trkpt>
      <trkpt lat="42.78984" lon="-0.25368">
        <ele>2534.3</ele>
        <time>2018-12-27T12:33:16Z</time>
      </trkpt>
      <trkpt lat="42.78981" lon="-0.25374">
        <ele>2534.4</ele>
        <time>2018-12-27T12:33:18Z</time>
      </trkpt>
      <trkpt lat="42.78979" lon="-0.25376">
        <ele>2534.6</ele>
        <time>2018-12-27T12:33:18Z</time>
      </trkpt>
      <trkpt lat="42.78974" lon="-0.25385">
        <ele>2535.8</ele>
        <time>2018-12-27T12:33:20Z</time>
      </trkpt>
      <trkpt lat="42.78974" lon="-0.25386">
        <ele>2535.9</ele>
        <time>2018-12-27T12:33:21Z</time>
      </trkpt>
      <trkpt lat="42.7897" lon="-0.25393">
        <ele>2536.6</ele>
        <time>2018-12-27T12:33:23Z</time>
      </trkpt>
      <trkpt lat="42.78965" lon="-0.25401">
        <ele>2537.2</ele>
        <time>2018-12-27T12:33:25Z</time>
      </trkpt>
      <trkpt lat="42.7896" lon="-0.25418">
        <ele>2538.3</ele>
        <time>2018-12-27T12:33:28Z</time>
      </trkpt>
      <trkpt lat="42.78959" lon="-0.25418">
        <ele>2538.2</ele>
        <time>2018-12-27T12:33:28Z</time>
      </trkpt>
      <trkpt lat="42.78957" lon="-0.25424">
        <ele>2539.3</ele>
        <time>2018-12-27T12:33:30Z</time>
      </trkpt>
      <trkpt lat="42.78955" lon="-0.25428">
        <ele>2540.7</ele>
        <time>2018-12-27T12:33:31Z</time>
      </trkpt>
      <trkpt lat="42.78955" lon="-0.25433">
        <ele>2540.9</ele>
        <time>2018-12-27T12:33:32Z</time>
      </trkpt>
      <trkpt lat="42.78956" lon="-0.25443">
        <ele>2541</ele>
        <time>2018-12-27T12:33:34Z</time>
      </trkpt>
      <trkpt lat="42.78954" lon="-0.25456">
        <ele>2542.9</ele>
        <time>2018-12-27T12:33:36Z</time>
      </trkpt>
      <trkpt lat="42.78954" lon="-0.25459">
        <ele>2543.2</ele>
        <time>2018-12-27T12:33:37Z</time>
      </trkpt>
      <trkpt lat="42.78954" lon="-0.25472">
        <ele>2544.7</ele>
        <time>2018-12-27T12:33:39Z</time>
      </trkpt>
      <trkpt lat="42.78955" lon="-0.25489">
        <ele>2546.4</ele>
        <time>2018-12-27T12:33:43Z</time>
      </trkpt>
      <trkpt lat="42.78956" lon="-0.25492">
        <ele>2546.4</ele>
        <time>2018-12-27T12:33:43Z</time>
      </trkpt>
      <trkpt lat="42.78957" lon="-0.25497">
        <ele>2546.7</ele>
        <time>2018-12-27T12:33:44Z</time>
      </trkpt>
      <trkpt lat="42.78957" lon="-0.25499">
        <ele>2546.9</ele>
        <time>2018-12-27T12:33:45Z</time>
      </trkpt>
      <trkpt lat="42.78959" lon="-0.255">
        <ele>2546.6</ele>
        <time>2018-12-27T12:33:45Z</time>
      </trkpt>
      <trkpt lat="42.7896" lon="-0.25507">
        <ele>2547.8</ele>
        <time>2018-12-27T12:33:47Z</time>
      </trkpt>
      <trkpt lat="42.7896" lon="-0.25518">
        <ele>2549.1</ele>
        <time>2018-12-27T12:33:49Z</time>
      </trkpt>
      <trkpt lat="42.78959" lon="-0.25519">
        <ele>2549.3</ele>
        <time>2018-12-27T12:33:49Z</time>
      </trkpt>
      <trkpt lat="42.78959" lon="-0.25526">
        <ele>2550.2</ele>
        <time>2018-12-27T12:33:50Z</time>
      </trkpt>
      <trkpt lat="42.78962" lon="-0.25527">
        <ele>2550.7</ele>
        <time>2018-12-27T12:33:51Z</time>
      </trkpt>
      <trkpt lat="42.78964" lon="-0.25531">
        <ele>2551.6</ele>
        <time>2018-12-27T12:33:52Z</time>
      </trkpt>
      <trkpt lat="42.78964" lon="-0.25532">
        <ele>2551.9</ele>
        <time>2018-12-27T12:33:52Z</time>
      </trkpt>
      <trkpt lat="42.78964" lon="-0.25534">
        <ele>2552</ele>
        <time>2018-12-27T12:33:52Z</time>
      </trkpt>
      <trkpt lat="42.78964" lon="-0.25538">
        <ele>2552.7</ele>
        <time>2018-12-27T12:33:53Z</time>
      </trkpt>
      <trkpt lat="42.78966" lon="-0.25539">
        <ele>2553.2</ele>
        <time>2018-12-27T12:33:54Z</time>
      </trkpt>
      <trkpt lat="42.78965" lon="-0.25547">
        <ele>2554.1</ele>
        <time>2018-12-27T12:33:55Z</time>
      </trkpt>
      <trkpt lat="42.78966" lon="-0.25554">
        <ele>2554.9</ele>
        <time>2018-12-27T12:33:56Z</time>
      </trkpt>
      <trkpt lat="42.78971" lon="-0.25553">
        <ele>2555.8</ele>
        <time>2018-12-27T12:33:58Z</time>
      </trkpt>
      <trkpt lat="42.78972" lon="-0.25554">
        <ele>2556.2</ele>
        <time>2018-12-27T12:33:58Z</time>
      </trkpt>
      <trkpt lat="42.78972" lon="-0.25556">
        <ele>2556.4</ele>
        <time>2018-12-27T12:33:59Z</time>
      </trkpt>
      <trkpt lat="42.78971" lon="-0.2556">
        <ele>2556.9</ele>
        <time>2018-12-27T12:33:59Z</time>
      </trkpt>
      <trkpt lat="42.78972" lon="-0.25566">
        <ele>2557.7</ele>
        <time>2018-12-27T12:34:00Z</time>
      </trkpt>
      <trkpt lat="42.78972" lon="-0.25566">
        <ele>2557.8</ele>
        <time>2018-12-27T12:34:01Z</time>
      </trkpt>
      <trkpt lat="42.78973" lon="-0.25566">
        <ele>2557.9</ele>
        <time>2018-12-27T12:34:01Z</time>
      </trkpt>
      <trkpt lat="42.78973" lon="-0.25566">
        <ele>2557.9</ele>
        <time>2018-12-27T12:34:01Z</time>
      </trkpt>
      <trkpt lat="42.7897" lon="-0.25573">
        <ele>2558.3</ele>
        <time>2018-12-27T12:34:02Z</time>
      </trkpt>
      <trkpt lat="42.7897" lon="-0.25574">
        <ele>2558.4</ele>
        <time>2018-12-27T12:34:03Z</time>
      </trkpt>
      <trkpt lat="42.7897" lon="-0.25578">
        <ele>2559</ele>
        <time>2018-12-27T12:34:03Z</time>
      </trkpt>
      <trkpt lat="42.78971" lon="-0.25579">
        <ele>2559.4</ele>
        <time>2018-12-27T12:34:04Z</time>
      </trkpt>
      <trkpt lat="42.78971" lon="-0.25581">
        <ele>2559.6</ele>
        <time>2018-12-27T12:34:04Z</time>
      </trkpt>
      <trkpt lat="42.78971" lon="-0.25585">
        <ele>2560.2</ele>
        <time>2018-12-27T12:34:05Z</time>
      </trkpt>
      <trkpt lat="42.78969" lon="-0.2559">
        <ele>2560.3</ele>
        <time>2018-12-27T12:34:06Z</time>
      </trkpt>
      <trkpt lat="42.78969" lon="-0.25593">
        <ele>2560.7</ele>
        <time>2018-12-27T12:34:07Z</time>
      </trkpt>
      <trkpt lat="42.7897" lon="-0.256">
        <ele>2561.7</ele>
        <time>2018-12-27T12:34:08Z</time>
      </trkpt>
      <trkpt lat="42.7897" lon="-0.25602">
        <ele>2562</ele>
        <time>2018-12-27T12:34:08Z</time>
      </trkpt>
      <trkpt lat="42.7897" lon="-0.25609">
        <ele>2563.1</ele>
        <time>2018-12-27T12:34:10Z</time>
      </trkpt>
      <trkpt lat="42.78968" lon="-0.25617">
        <ele>2563.7</ele>
        <time>2018-12-27T12:34:11Z</time>
      </trkpt>
      <trkpt lat="42.78968" lon="-0.25618">
        <ele>2563.9</ele>
        <time>2018-12-27T12:34:12Z</time>
      </trkpt>
      <trkpt lat="42.78969" lon="-0.25622">
        <ele>2564.5</ele>
        <time>2018-12-27T12:34:12Z</time>
      </trkpt>
      <trkpt lat="42.78969" lon="-0.25622">
        <ele>2564.6</ele>
        <time>2018-12-27T12:34:13Z</time>
      </trkpt>
      <trkpt lat="42.78968" lon="-0.25624">
        <ele>2564.8</ele>
        <time>2018-12-27T12:34:13Z</time>
      </trkpt>
      <trkpt lat="42.78967" lon="-0.25628">
        <ele>2564.8</ele>
        <time>2018-12-27T12:34:14Z</time>
      </trkpt>
      <trkpt lat="42.78967" lon="-0.25639">
        <ele>2566.3</ele>
        <time>2018-12-27T12:34:16Z</time>
      </trkpt>
      <trkpt lat="42.78969" lon="-0.25649">
        <ele>2567.7</ele>
        <time>2018-12-27T12:34:18Z</time>
      </trkpt>
      <trkpt lat="42.78972" lon="-0.25657">
        <ele>2569.2</ele>
        <time>2018-12-27T12:34:20Z</time>
      </trkpt>
      <trkpt lat="42.78973" lon="-0.25668">
        <ele>2570.7</ele>
        <time>2018-12-27T12:34:22Z</time>
      </trkpt>
      <trkpt lat="42.78974" lon="-0.25674">
        <ele>2571.6</ele>
        <time>2018-12-27T12:34:23Z</time>
      </trkpt>
      <trkpt lat="42.78973" lon="-0.25675">
        <ele>2571.6</ele>
        <time>2018-12-27T12:34:23Z</time>
      </trkpt>
      <trkpt lat="42.78973" lon="-0.25679">
        <ele>2572</ele>
        <time>2018-12-27T12:34:24Z</time>
      </trkpt>
      <trkpt lat="42.78973" lon="-0.25682">
        <ele>2572.4</ele>
        <time>2018-12-27T12:34:25Z</time>
      </trkpt>
      <trkpt lat="42.78972" lon="-0.25683">
        <ele>2572.3</ele>
        <time>2018-12-27T12:34:25Z</time>
      </trkpt>
      <trkpt lat="42.78972" lon="-0.25686">
        <ele>2572.6</ele>
        <time>2018-12-27T12:34:25Z</time>
      </trkpt>
      <trkpt lat="42.78975" lon="-0.25686">
        <ele>2573.4</ele>
        <time>2018-12-27T12:34:26Z</time>
      </trkpt>
      <trkpt lat="42.78975" lon="-0.25691">
        <ele>2574</ele>
        <time>2018-12-27T12:34:27Z</time>
      </trkpt>
      <trkpt lat="42.78975" lon="-0.25692">
        <ele>2574.3</ele>
        <time>2018-12-27T12:34:27Z</time>
      </trkpt>
      <trkpt lat="42.78977" lon="-0.25701">
        <ele>2575.8</ele>
        <time>2018-12-27T12:34:29Z</time>
      </trkpt>
      <trkpt lat="42.78979" lon="-0.25706">
        <ele>2577.1</ele>
        <time>2018-12-27T12:34:30Z</time>
      </trkpt>
      <trkpt lat="42.7898" lon="-0.25707">
        <ele>2577.7</ele>
        <time>2018-12-27T12:34:31Z</time>
      </trkpt>
      <trkpt lat="42.78981" lon="-0.2571">
        <ele>2578.2</ele>
        <time>2018-12-27T12:34:31Z</time>
      </trkpt>
      <trkpt lat="42.78981" lon="-0.25712">
        <ele>2578.5</ele>
        <time>2018-12-27T12:34:32Z</time>
      </trkpt>
      <trkpt lat="42.78981" lon="-0.25719">
        <ele>2579.1</ele>
        <time>2018-12-27T12:34:33Z</time>
      </trkpt>
      <trkpt lat="42.78982" lon="-0.25721">
        <ele>2579.4</ele>
        <time>2018-12-27T12:34:34Z</time>
      </trkpt>
      <trkpt lat="42.78982" lon="-0.25732">
        <ele>2580.3</ele>
        <time>2018-12-27T12:34:36Z</time>
      </trkpt>
      <trkpt lat="42.78982" lon="-0.25733">
        <ele>2580.5</ele>
        <time>2018-12-27T12:34:36Z</time>
      </trkpt>
      <trkpt lat="42.78981" lon="-0.25735">
        <ele>2580.2</ele>
        <time>2018-12-27T12:34:36Z</time>
      </trkpt>
      <trkpt lat="42.78979" lon="-0.25739">
        <ele>2580</ele>
        <time>2018-12-27T12:34:37Z</time>
      </trkpt>
      <trkpt lat="42.78977" lon="-0.25746">
        <ele>2579.9</ele>
        <time>2018-12-27T12:34:39Z</time>
      </trkpt>
      <trkpt lat="42.78977" lon="-0.25751">
        <ele>2580.6</ele>
        <time>2018-12-27T12:34:40Z</time>
      </trkpt>
      <trkpt lat="42.78977" lon="-0.25754">
        <ele>2580.8</ele>
        <time>2018-12-27T12:34:40Z</time>
      </trkpt>
      <trkpt lat="42.78977" lon="-0.25756">
        <ele>2580.8</ele>
        <time>2018-12-27T12:34:41Z</time>
      </trkpt>
      <trkpt lat="42.78976" lon="-0.2576">
        <ele>2580.7</ele>
        <time>2018-12-27T12:34:42Z</time>
      </trkpt>
      <trkpt lat="42.78973" lon="-0.25763">
        <ele>2580.2</ele>
        <time>2018-12-27T12:34:43Z</time>
      </trkpt>
      <trkpt lat="42.7897" lon="-0.2577">
        <ele>2579.8</ele>
        <time>2018-12-27T12:34:44Z</time>
      </trkpt>
      <trkpt lat="42.78969" lon="-0.25776">
        <ele>2580.2</ele>
        <time>2018-12-27T12:34:45Z</time>
      </trkpt>
      <trkpt lat="42.78965" lon="-0.25783">
        <ele>2579.4</ele>
        <time>2018-12-27T12:34:47Z</time>
      </trkpt>
      <trkpt lat="42.78964" lon="-0.25784">
        <ele>2579.2</ele>
        <time>2018-12-27T12:34:48Z</time>
      </trkpt>
      <trkpt lat="42.78962" lon="-0.25788">
        <ele>2578.9</ele>
        <time>2018-12-27T12:34:48Z</time>
      </trkpt>
      <trkpt lat="42.78963" lon="-0.25793">
        <ele>2579.6</ele>
        <time>2018-12-27T12:34:49Z</time>
      </trkpt>
      <trkpt lat="42.78964" lon="-0.25794">
        <ele>2580.6</ele>
        <time>2018-12-27T12:34:50Z</time>
      </trkpt>
      <trkpt lat="42.78965" lon="-0.25798">
        <ele>2581.6</ele>
        <time>2018-12-27T12:34:51Z</time>
      </trkpt>
      <trkpt lat="42.78964" lon="-0.25799">
        <ele>2581.7</ele>
        <time>2018-12-27T12:34:51Z</time>
      </trkpt>
      <trkpt lat="42.78963" lon="-0.25806">
        <ele>2583.1</ele>
        <time>2018-12-27T12:34:52Z</time>
      </trkpt>
      <trkpt lat="42.78963" lon="-0.25808">
        <ele>2583.6</ele>
        <time>2018-12-27T12:34:53Z</time>
      </trkpt>
      <trkpt lat="42.78961" lon="-0.25809">
        <ele>2583.3</ele>
        <time>2018-12-27T12:34:53Z</time>
      </trkpt>
      <trkpt lat="42.78958" lon="-0.25813">
        <ele>2583.8</ele>
        <time>2018-12-27T12:34:54Z</time>
      </trkpt>
      <trkpt lat="42.78958" lon="-0.25818">
        <ele>2585.1</ele>
        <time>2018-12-27T12:34:55Z</time>
      </trkpt>
      <trkpt lat="42.78958" lon="-0.2582">
        <ele>2585.4</ele>
        <time>2018-12-27T12:34:56Z</time>
      </trkpt>
      <trkpt lat="42.7896" lon="-0.25825">
        <ele>2587.2</ele>
        <time>2018-12-27T12:34:57Z</time>
      </trkpt>
      <trkpt lat="42.78959" lon="-0.25832">
        <ele>2588.8</ele>
        <time>2018-12-27T12:34:58Z</time>
      </trkpt>
      <trkpt lat="42.78959" lon="-0.25833">
        <ele>2589.2</ele>
        <time>2018-12-27T12:34:58Z</time>
      </trkpt>
      <trkpt lat="42.78959" lon="-0.25834">
        <ele>2589.5</ele>
        <time>2018-12-27T12:34:59Z</time>
      </trkpt>
      <trkpt lat="42.78957" lon="-0.2584">
        <ele>2590.9</ele>
        <time>2018-12-27T12:35:00Z</time>
      </trkpt>
      <trkpt lat="42.78955" lon="-0.25849">
        <ele>2593.8</ele>
        <time>2018-12-27T12:35:02Z</time>
      </trkpt>
      <trkpt lat="42.78953" lon="-0.25857">
        <ele>2596.1</ele>
        <time>2018-12-27T12:35:03Z</time>
      </trkpt>
      <trkpt lat="42.78952" lon="-0.2586">
        <ele>2597</ele>
        <time>2018-12-27T12:35:04Z</time>
      </trkpt>
      <trkpt lat="42.78947" lon="-0.25871">
        <ele>2600.5</ele>
        <time>2018-12-27T12:35:07Z</time>
      </trkpt>
      <trkpt lat="42.78942" lon="-0.25876">
        <ele>2602.5</ele>
        <time>2018-12-27T12:35:08Z</time>
      </trkpt>
      <trkpt lat="42.7894" lon="-0.2588">
        <ele>2603.8</ele>
        <time>2018-12-27T12:35:09Z</time>
      </trkpt>
      <trkpt lat="42.78939" lon="-0.25883">
        <ele>2604.4</ele>
        <time>2018-12-27T12:35:10Z</time>
      </trkpt>
      <trkpt lat="42.78936" lon="-0.25891">
        <ele>2606.5</ele>
        <time>2018-12-27T12:35:12Z</time>
      </trkpt>
      <trkpt lat="42.78935" lon="-0.25893">
        <ele>2607</ele>
        <time>2018-12-27T12:35:12Z</time>
      </trkpt>
      <trkpt lat="42.78931" lon="-0.25897">
        <ele>2608.5</ele>
        <time>2018-12-27T12:35:13Z</time>
      </trkpt>
      <trkpt lat="42.78928" lon="-0.259">
        <ele>2609.5</ele>
        <time>2018-12-27T12:35:14Z</time>
      </trkpt>
      <trkpt lat="42.78927" lon="-0.25902">
        <ele>2610.2</ele>
        <time>2018-12-27T12:35:15Z</time>
      </trkpt>
      <trkpt lat="42.78925" lon="-0.2591">
        <ele>2612.1</ele>
        <time>2018-12-27T12:35:17Z</time>
      </trkpt>
      <trkpt lat="42.78925" lon="-0.25911">
        <ele>2612.3</ele>
        <time>2018-12-27T12:35:17Z</time>
      </trkpt>
      <trkpt lat="42.78926" lon="-0.25914">
        <ele>2612.6</ele>
        <time>2018-12-27T12:35:18Z</time>
      </trkpt>
      <trkpt lat="42.78928" lon="-0.25917">
        <ele>2613</ele>
        <time>2018-12-27T12:35:18Z</time>
      </trkpt>
      <trkpt lat="42.78929" lon="-0.2592">
        <ele>2613.6</ele>
        <time>2018-12-27T12:35:19Z</time>
      </trkpt>
      <trkpt lat="42.7893" lon="-0.25926">
        <ele>2614.6</ele>
        <time>2018-12-27T12:35:20Z</time>
      </trkpt>
      <trkpt lat="42.78931" lon="-0.25931">
        <ele>2615.4</ele>
        <time>2018-12-27T12:35:21Z</time>
      </trkpt>
      <trkpt lat="42.78932" lon="-0.25934">
        <ele>2615.9</ele>
        <time>2018-12-27T12:35:22Z</time>
      </trkpt>
      <trkpt lat="42.78931" lon="-0.25937">
        <ele>2616.5</ele>
        <time>2018-12-27T12:35:22Z</time>
      </trkpt>
      <trkpt lat="42.78931" lon="-0.2594">
        <ele>2617.3</ele>
        <time>2018-12-27T12:35:23Z</time>
      </trkpt>
      <trkpt lat="42.7893" lon="-0.25944">
        <ele>2618.3</ele>
        <time>2018-12-27T12:35:24Z</time>
      </trkpt>
      <trkpt lat="42.78929" lon="-0.25951">
        <ele>2619.9</ele>
        <time>2018-12-27T12:35:25Z</time>
      </trkpt>
      <trkpt lat="42.78927" lon="-0.25957">
        <ele>2621.3</ele>
        <time>2018-12-27T12:35:26Z</time>
      </trkpt>
      <trkpt lat="42.78928" lon="-0.2596">
        <ele>2622</ele>
        <time>2018-12-27T12:35:27Z</time>
      </trkpt>
      <trkpt lat="42.78928" lon="-0.25963">
        <ele>2622.8</ele>
        <time>2018-12-27T12:35:28Z</time>
      </trkpt>
      <trkpt lat="42.78928" lon="-0.25965">
        <ele>2623.6</ele>
        <time>2018-12-27T12:35:28Z</time>
      </trkpt>
      <trkpt lat="42.78928" lon="-0.2597">
        <ele>2624.9</ele>
        <time>2018-12-27T12:35:29Z</time>
      </trkpt>
      <trkpt lat="42.78928" lon="-0.25974">
        <ele>2626.3</ele>
        <time>2018-12-27T12:35:30Z</time>
      </trkpt>
      <trkpt lat="42.78929" lon="-0.25979">
        <ele>2627.4</ele>
        <time>2018-12-27T12:35:31Z</time>
      </trkpt>
      <trkpt lat="42.78929" lon="-0.2598">
        <ele>2627.5</ele>
        <time>2018-12-27T12:35:31Z</time>
      </trkpt>
      <trkpt lat="42.78929" lon="-0.25984">
        <ele>2628.7</ele>
        <time>2018-12-27T12:35:32Z</time>
      </trkpt>
      <trkpt lat="42.78929" lon="-0.25985">
        <ele>2629.5</ele>
        <time>2018-12-27T12:35:32Z</time>
      </trkpt>
      <trkpt lat="42.78926" lon="-0.25989">
        <ele>2630.8</ele>
        <time>2018-12-27T12:35:33Z</time>
      </trkpt>
      <trkpt lat="42.78925" lon="-0.25995">
        <ele>2632.8</ele>
        <time>2018-12-27T12:35:35Z</time>
      </trkpt>
      <trkpt lat="42.78925" lon="-0.25996">
        <ele>2633</ele>
        <time>2018-12-27T12:35:35Z</time>
      </trkpt>
      <trkpt lat="42.78924" lon="-0.25998">
        <ele>2633.8</ele>
        <time>2018-12-27T12:35:35Z</time>
      </trkpt>
      <trkpt lat="42.78924" lon="-0.25999">
        <ele>2634.1</ele>
        <time>2018-12-27T12:35:35Z</time>
      </trkpt>
      <trkpt lat="42.78921" lon="-0.26001">
        <ele>2635.1</ele>
        <time>2018-12-27T12:35:36Z</time>
      </trkpt>
      <trkpt lat="42.78921" lon="-0.26002">
        <ele>2635.2</ele>
        <time>2018-12-27T12:35:36Z</time>
      </trkpt>
      <trkpt lat="42.7892" lon="-0.26003">
        <ele>2635.7</ele>
        <time>2018-12-27T12:35:37Z</time>
      </trkpt>
      <trkpt lat="42.78921" lon="-0.26006">
        <ele>2636.3</ele>
        <time>2018-12-27T12:35:37Z</time>
      </trkpt>
      <trkpt lat="42.78921" lon="-0.26007">
        <ele>2636.8</ele>
        <time>2018-12-27T12:35:38Z</time>
      </trkpt>
      <trkpt lat="42.7892" lon="-0.26008">
        <ele>2637.1</ele>
        <time>2018-12-27T12:35:38Z</time>
      </trkpt>
      <trkpt lat="42.78919" lon="-0.26008">
        <ele>2637.4</ele>
        <time>2018-12-27T12:35:38Z</time>
      </trkpt>
      <trkpt lat="42.78917" lon="-0.26013">
        <ele>2638.8</ele>
        <time>2018-12-27T12:35:39Z</time>
      </trkpt>
      <trkpt lat="42.78918" lon="-0.26014">
        <ele>2639.1</ele>
        <time>2018-12-27T12:35:39Z</time>
      </trkpt>
      <trkpt lat="42.78915" lon="-0.26032">
        <ele>2644.4</ele>
        <time>2018-12-27T12:35:43Z</time>
      </trkpt>
      <trkpt lat="42.78912" lon="-0.26034">
        <ele>2645.3</ele>
        <time>2018-12-27T12:35:44Z</time>
      </trkpt>
      <trkpt lat="42.78915" lon="-0.26038">
        <ele>2646.2</ele>
        <time>2018-12-27T12:35:45Z</time>
      </trkpt>
      <trkpt lat="42.78917" lon="-0.26041">
        <ele>2646.8</ele>
        <time>2018-12-27T12:35:46Z</time>
      </trkpt>
      <trkpt lat="42.78916" lon="-0.26046">
        <ele>2648.5</ele>
        <time>2018-12-27T12:35:47Z</time>
      </trkpt>
      <trkpt lat="42.78912" lon="-0.26049">
        <ele>2649.9</ele>
        <time>2018-12-27T12:35:48Z</time>
      </trkpt>
      <trkpt lat="42.78911" lon="-0.26054">
        <ele>2651.7</ele>
        <time>2018-12-27T12:35:49Z</time>
      </trkpt>
      <trkpt lat="42.7891" lon="-0.26056">
        <ele>2652.4</ele>
        <time>2018-12-27T12:35:50Z</time>
      </trkpt>
      <trkpt lat="42.78909" lon="-0.26056">
        <ele>2652.5</ele>
        <time>2018-12-27T12:35:50Z</time>
      </trkpt>
      <trkpt lat="42.78908" lon="-0.26061">
        <ele>2654</ele>
        <time>2018-12-27T12:35:51Z</time>
      </trkpt>
      <trkpt lat="42.78907" lon="-0.26062">
        <ele>2654.5</ele>
        <time>2018-12-27T12:35:51Z</time>
      </trkpt>
      <trkpt lat="42.78907" lon="-0.26065">
        <ele>2655.4</ele>
        <time>2018-12-27T12:35:52Z</time>
      </trkpt>
      <trkpt lat="42.78907" lon="-0.26065">
        <ele>2655.6</ele>
        <time>2018-12-27T12:35:52Z</time>
      </trkpt>
      <trkpt lat="42.78907" lon="-0.26066">
        <ele>2655.8</ele>
        <time>2018-12-27T12:35:52Z</time>
      </trkpt>
      <trkpt lat="42.78906" lon="-0.26069">
        <ele>2656.6</ele>
        <time>2018-12-27T12:35:52Z</time>
      </trkpt>
      <trkpt lat="42.78906" lon="-0.26071">
        <ele>2657.3</ele>
        <time>2018-12-27T12:35:53Z</time>
      </trkpt>
      <trkpt lat="42.78906" lon="-0.26073">
        <ele>2658.1</ele>
        <time>2018-12-27T12:35:53Z</time>
      </trkpt>
      <trkpt lat="42.78904" lon="-0.26074">
        <ele>2658.5</ele>
        <time>2018-12-27T12:35:54Z</time>
      </trkpt>
      <trkpt lat="42.78904" lon="-0.26076">
        <ele>2659</ele>
        <time>2018-12-27T12:35:54Z</time>
      </trkpt>
      <trkpt lat="42.78905" lon="-0.26077">
        <ele>2659.3</ele>
        <time>2018-12-27T12:35:54Z</time>
      </trkpt>
      <trkpt lat="42.78903" lon="-0.26083">
        <ele>2661.2</ele>
        <time>2018-12-27T12:35:56Z</time>
      </trkpt>
      <trkpt lat="42.78904" lon="-0.26087">
        <ele>2662.4</ele>
        <time>2018-12-27T12:35:56Z</time>
      </trkpt>
      <trkpt lat="42.78905" lon="-0.26087">
        <ele>2662.6</ele>
        <time>2018-12-27T12:35:57Z</time>
      </trkpt>
      <trkpt lat="42.78906" lon="-0.26089">
        <ele>2663.1</ele>
        <time>2018-12-27T12:35:57Z</time>
      </trkpt>
      <trkpt lat="42.78905" lon="-0.26091">
        <ele>2663.8</ele>
        <time>2018-12-27T12:35:58Z</time>
      </trkpt>
      <trkpt lat="42.78905" lon="-0.26092">
        <ele>2664</ele>
        <time>2018-12-27T12:35:58Z</time>
      </trkpt>
      <trkpt lat="42.78904" lon="-0.26093">
        <ele>2664.6</ele>
        <time>2018-12-27T12:35:58Z</time>
      </trkpt>
      <trkpt lat="42.78904" lon="-0.26097">
        <ele>2665.9</ele>
        <time>2018-12-27T12:35:59Z</time>
      </trkpt>
      <trkpt lat="42.78903" lon="-0.261">
        <ele>2666.6</ele>
        <time>2018-12-27T12:35:59Z</time>
      </trkpt>
      <trkpt lat="42.78905" lon="-0.26102">
        <ele>2667.4</ele>
        <time>2018-12-27T12:36:00Z</time>
      </trkpt>
      <trkpt lat="42.78905" lon="-0.26108">
        <ele>2669.2</ele>
        <time>2018-12-27T12:36:01Z</time>
      </trkpt>
      <trkpt lat="42.78905" lon="-0.26109">
        <ele>2669.7</ele>
        <time>2018-12-27T12:36:02Z</time>
      </trkpt>
      <trkpt lat="42.78904" lon="-0.26112">
        <ele>2670.6</ele>
        <time>2018-12-27T12:36:02Z</time>
      </trkpt>
      <trkpt lat="42.78903" lon="-0.26119">
        <ele>2672.8</ele>
        <time>2018-12-27T12:36:04Z</time>
      </trkpt>
      <trkpt lat="42.78903" lon="-0.2612">
        <ele>2673.2</ele>
        <time>2018-12-27T12:36:04Z</time>
      </trkpt>
      <trkpt lat="42.78905" lon="-0.26122">
        <ele>2673.7</ele>
        <time>2018-12-27T12:36:05Z</time>
      </trkpt>
      <trkpt lat="42.78904" lon="-0.26123">
        <ele>2674.2</ele>
        <time>2018-12-27T12:36:05Z</time>
      </trkpt>
      <trkpt lat="42.78904" lon="-0.26127">
        <ele>2675.6</ele>
        <time>2018-12-27T12:36:06Z</time>
      </trkpt>
      <trkpt lat="42.78903" lon="-0.26133">
        <ele>2677.8</ele>
        <time>2018-12-27T12:36:07Z</time>
      </trkpt>
      <trkpt lat="42.78902" lon="-0.26137">
        <ele>2679.3</ele>
        <time>2018-12-27T12:36:08Z</time>
      </trkpt>
      <trkpt lat="42.78903" lon="-0.26139">
        <ele>2680.1</ele>
        <time>2018-12-27T12:36:08Z</time>
      </trkpt>
      <trkpt lat="42.78902" lon="-0.2614">
        <ele>2680.2</ele>
        <time>2018-12-27T12:36:08Z</time>
      </trkpt>
      <trkpt lat="42.78902" lon="-0.26144">
        <ele>2682</ele>
        <time>2018-12-27T12:36:09Z</time>
      </trkpt>
      <trkpt lat="42.78902" lon="-0.26145">
        <ele>2682.3</ele>
        <time>2018-12-27T12:36:09Z</time>
      </trkpt>
      <trkpt lat="42.78899" lon="-0.26149">
        <ele>2683.5</ele>
        <time>2018-12-27T12:36:11Z</time>
      </trkpt>
      <trkpt lat="42.78898" lon="-0.2615">
        <ele>2683.9</ele>
        <time>2018-12-27T12:36:11Z</time>
      </trkpt>
      <trkpt lat="42.78896" lon="-0.26153">
        <ele>2684.8</ele>
        <time>2018-12-27T12:36:12Z</time>
      </trkpt>
      <trkpt lat="42.78896" lon="-0.26157">
        <ele>2686.2</ele>
        <time>2018-12-27T12:36:12Z</time>
      </trkpt>
      <trkpt lat="42.78895" lon="-0.26161">
        <ele>2688</ele>
        <time>2018-12-27T12:36:13Z</time>
      </trkpt>
      <trkpt lat="42.78896" lon="-0.26165">
        <ele>2689.5</ele>
        <time>2018-12-27T12:36:14Z</time>
      </trkpt>
      <trkpt lat="42.78897" lon="-0.26168">
        <ele>2690.6</ele>
        <time>2018-12-27T12:36:15Z</time>
      </trkpt>
      <trkpt lat="42.78898" lon="-0.26174">
        <ele>2692.8</ele>
        <time>2018-12-27T12:36:16Z</time>
      </trkpt>
      <trkpt lat="42.78898" lon="-0.26178">
        <ele>2694.4</ele>
        <time>2018-12-27T12:36:17Z</time>
      </trkpt>
      <trkpt lat="42.78899" lon="-0.26181">
        <ele>2695.7</ele>
        <time>2018-12-27T12:36:17Z</time>
      </trkpt>
      <trkpt lat="42.78899" lon="-0.26185">
        <ele>2697.2</ele>
        <time>2018-12-27T12:36:18Z</time>
      </trkpt>
      <trkpt lat="42.78898" lon="-0.2619">
        <ele>2699</ele>
        <time>2018-12-27T12:36:19Z</time>
      </trkpt>
      <trkpt lat="42.78898" lon="-0.26195">
        <ele>2700.9</ele>
        <time>2018-12-27T12:36:20Z</time>
      </trkpt>
      <trkpt lat="42.78899" lon="-0.26197">
        <ele>2701.9</ele>
        <time>2018-12-27T12:36:21Z</time>
      </trkpt>
      <trkpt lat="42.78898" lon="-0.262">
        <ele>2703.1</ele>
        <time>2018-12-27T12:36:21Z</time>
      </trkpt>
      <trkpt lat="42.78899" lon="-0.26202">
        <ele>2703.8</ele>
        <time>2018-12-27T12:36:22Z</time>
      </trkpt>
      <trkpt lat="42.78899" lon="-0.26208">
        <ele>2705.8</ele>
        <time>2018-12-27T12:36:23Z</time>
      </trkpt>
      <trkpt lat="42.789" lon="-0.26211">
        <ele>2706.9</ele>
        <time>2018-12-27T12:36:24Z</time>
      </trkpt>
      <trkpt lat="42.78899" lon="-0.26214">
        <ele>2708.1</ele>
        <time>2018-12-27T12:36:24Z</time>
      </trkpt>
      <trkpt lat="42.78899" lon="-0.26217">
        <ele>2709.3</ele>
        <time>2018-12-27T12:36:25Z</time>
      </trkpt>
      <trkpt lat="42.789" lon="-0.26221">
        <ele>2710.8</ele>
        <time>2018-12-27T12:36:26Z</time>
      </trkpt>
      <trkpt lat="42.78903" lon="-0.26221">
        <ele>2710.7</ele>
        <time>2018-12-27T12:36:27Z</time>
      </trkpt>
      <trkpt lat="42.78907" lon="-0.26223">
        <ele>2711.4</ele>
        <time>2018-12-27T12:36:28Z</time>
      </trkpt>
      <trkpt lat="42.78906" lon="-0.26226">
        <ele>2712.4</ele>
        <time>2018-12-27T12:36:28Z</time>
      </trkpt>
      <trkpt lat="42.78907" lon="-0.26227">
        <ele>2712.8</ele>
        <time>2018-12-27T12:36:29Z</time>
      </trkpt>
      <trkpt lat="42.78909" lon="-0.26228">
        <ele>2713.1</ele>
        <time>2018-12-27T12:36:29Z</time>
      </trkpt>
      <trkpt lat="42.78911" lon="-0.2623">
        <ele>2713.7</ele>
        <time>2018-12-27T12:36:30Z</time>
      </trkpt>
      <trkpt lat="42.78913" lon="-0.26233">
        <ele>2714.8</ele>
        <time>2018-12-27T12:36:31Z</time>
      </trkpt>
      <trkpt lat="42.78911" lon="-0.26238">
        <ele>2716.6</ele>
        <time>2018-12-27T12:36:32Z</time>
      </trkpt>
      <trkpt lat="42.78911" lon="-0.26243">
        <ele>2718.4</ele>
        <time>2018-12-27T12:36:33Z</time>
      </trkpt>
      <trkpt lat="42.78911" lon="-0.26244">
        <ele>2718.8</ele>
        <time>2018-12-27T12:36:33Z</time>
      </trkpt>
      <trkpt lat="42.78911" lon="-0.26249">
        <ele>2720.6</ele>
        <time>2018-12-27T12:36:34Z</time>
      </trkpt>
      <trkpt lat="42.78911" lon="-0.26251">
        <ele>2721.4</ele>
        <time>2018-12-27T12:36:34Z</time>
      </trkpt>
      <trkpt lat="42.78911" lon="-0.26255">
        <ele>2722.6</ele>
        <time>2018-12-27T12:36:35Z</time>
      </trkpt>
      <trkpt lat="42.78911" lon="-0.26261">
        <ele>2724.8</ele>
        <time>2018-12-27T12:36:36Z</time>
      </trkpt>
      <trkpt lat="42.78913" lon="-0.26265">
        <ele>2726.3</ele>
        <time>2018-12-27T12:36:37Z</time>
      </trkpt>
      <trkpt lat="42.7891" lon="-0.26274">
        <ele>2729.6</ele>
        <time>2018-12-27T12:36:39Z</time>
      </trkpt>
      <trkpt lat="42.78908" lon="-0.26277">
        <ele>2731</ele>
        <time>2018-12-27T12:36:40Z</time>
      </trkpt>
      <trkpt lat="42.78908" lon="-0.26279">
        <ele>2731.8</ele>
        <time>2018-12-27T12:36:40Z</time>
      </trkpt>
      <trkpt lat="42.78907" lon="-0.26281">
        <ele>2732.5</ele>
        <time>2018-12-27T12:36:41Z</time>
      </trkpt>
      <trkpt lat="42.78907" lon="-0.26283">
        <ele>2733.3</ele>
        <time>2018-12-27T12:36:41Z</time>
      </trkpt>
      <trkpt lat="42.78906" lon="-0.26288">
        <ele>2735</ele>
        <time>2018-12-27T12:36:42Z</time>
      </trkpt>
      <trkpt lat="42.78906" lon="-0.26289">
        <ele>2735.5</ele>
        <time>2018-12-27T12:36:42Z</time>
      </trkpt>
      <trkpt lat="42.78905" lon="-0.26294">
        <ele>2737.1</ele>
        <time>2018-12-27T12:36:43Z</time>
      </trkpt>
      <trkpt lat="42.78902" lon="-0.26298">
        <ele>2738.2</ele>
        <time>2018-12-27T12:36:45Z</time>
      </trkpt>
      <trkpt lat="42.78903" lon="-0.26302">
        <ele>2738.6</ele>
        <time>2018-12-27T12:36:45Z</time>
      </trkpt>
      <trkpt lat="42.78902" lon="-0.26306">
        <ele>2739.6</ele>
        <time>2018-12-27T12:36:46Z</time>
      </trkpt>
      <trkpt lat="42.78903" lon="-0.26313">
        <ele>2740.5</ele>
        <time>2018-12-27T12:36:47Z</time>
      </trkpt>
      <trkpt lat="42.78907" lon="-0.26322">
        <ele>2741.2</ele>
        <time>2018-12-27T12:36:50Z</time>
      </trkpt>
      <trkpt lat="42.78908" lon="-0.26325">
        <ele>2741.3</ele>
        <time>2018-12-27T12:36:50Z</time>
      </trkpt>
      <trkpt lat="42.78909" lon="-0.2633">
        <ele>2741.8</ele>
        <time>2018-12-27T12:36:51Z</time>
      </trkpt>
      <trkpt lat="42.78909" lon="-0.26331">
        <ele>2742.1</ele>
        <time>2018-12-27T12:36:51Z</time>
      </trkpt>
      <trkpt lat="42.78909" lon="-0.26334">
        <ele>2742.5</ele>
        <time>2018-12-27T12:36:52Z</time>
      </trkpt>
      <trkpt lat="42.78909" lon="-0.26336">
        <ele>2742.6</ele>
        <time>2018-12-27T12:36:52Z</time>
      </trkpt>
      <trkpt lat="42.7891" lon="-0.26337">
        <ele>2742.7</ele>
        <time>2018-12-27T12:36:53Z</time>
      </trkpt>
      <trkpt lat="42.78911" lon="-0.26343">
        <ele>2743.3</ele>
        <time>2018-12-27T12:36:54Z</time>
      </trkpt>
      <trkpt lat="42.78911" lon="-0.26344">
        <ele>2743.2</ele>
        <time>2018-12-27T12:36:54Z</time>
      </trkpt>
      <trkpt lat="42.78912" lon="-0.26349">
        <ele>2743.8</ele>
        <time>2018-12-27T12:36:55Z</time>
      </trkpt>
      <trkpt lat="42.78912" lon="-0.26352">
        <ele>2744</ele>
        <time>2018-12-27T12:36:56Z</time>
      </trkpt>
      <trkpt lat="42.78913" lon="-0.26355">
        <ele>2744.3</ele>
        <time>2018-12-27T12:36:56Z</time>
      </trkpt>
      <trkpt lat="42.78917" lon="-0.26363">
        <ele>2744</ele>
        <time>2018-12-27T12:36:58Z</time>
      </trkpt>
      <trkpt lat="42.78917" lon="-0.26365">
        <ele>2744.2</ele>
        <time>2018-12-27T12:36:58Z</time>
      </trkpt>
      <trkpt lat="42.78916" lon="-0.26369">
        <ele>2745</ele>
        <time>2018-12-27T12:36:59Z</time>
      </trkpt>
      <trkpt lat="42.78915" lon="-0.26373">
        <ele>2745.9</ele>
        <time>2018-12-27T12:37:00Z</time>
      </trkpt>
      <trkpt lat="42.78915" lon="-0.26375">
        <ele>2746.2</ele>
        <time>2018-12-27T12:37:01Z</time>
      </trkpt>
      <trkpt lat="42.78916" lon="-0.26381">
        <ele>2745.3</ele>
        <time>2018-12-27T12:37:02Z</time>
      </trkpt>
      <trkpt lat="42.78916" lon="-0.26382">
        <ele>2745.3</ele>
        <time>2018-12-27T12:37:02Z</time>
      </trkpt>
      <trkpt lat="42.78916" lon="-0.26383">
        <ele>2745.1</ele>
        <time>2018-12-27T12:37:02Z</time>
      </trkpt>
      <trkpt lat="42.78916" lon="-0.26385">
        <ele>2744.8</ele>
        <time>2018-12-27T12:37:03Z</time>
      </trkpt>
      <trkpt lat="42.78917" lon="-0.2639">
        <ele>2744</ele>
        <time>2018-12-27T12:37:04Z</time>
      </trkpt>
      <trkpt lat="42.78917" lon="-0.26391">
        <ele>2744</ele>
        <time>2018-12-27T12:37:04Z</time>
      </trkpt>
      <trkpt lat="42.78916" lon="-0.26397">
        <ele>2743.7</ele>
        <time>2018-12-27T12:37:05Z</time>
      </trkpt>
      <trkpt lat="42.78917" lon="-0.26398">
        <ele>2743.5</ele>
        <time>2018-12-27T12:37:05Z</time>
      </trkpt>
      <trkpt lat="42.78917" lon="-0.26402">
        <ele>2743</ele>
        <time>2018-12-27T12:37:06Z</time>
      </trkpt>
      <trkpt lat="42.78917" lon="-0.26404">
        <ele>2742.9</ele>
        <time>2018-12-27T12:37:06Z</time>
      </trkpt>
      <trkpt lat="42.78918" lon="-0.26411">
        <ele>2742</ele>
        <time>2018-12-27T12:37:08Z</time>
      </trkpt>
      <trkpt lat="42.78917" lon="-0.26412">
        <ele>2742.1</ele>
        <time>2018-12-27T12:37:08Z</time>
      </trkpt>
      <trkpt lat="42.78919" lon="-0.2642">
        <ele>2740.6</ele>
        <time>2018-12-27T12:37:10Z</time>
      </trkpt>
      <trkpt lat="42.7892" lon="-0.26421">
        <ele>2740.1</ele>
        <time>2018-12-27T12:37:10Z</time>
      </trkpt>
      <trkpt lat="42.78919" lon="-0.26423">
        <ele>2740.1</ele>
        <time>2018-12-27T12:37:10Z</time>
      </trkpt>
      <trkpt lat="42.7892" lon="-0.2643">
        <ele>2739.1</ele>
        <time>2018-12-27T12:37:12Z</time>
      </trkpt>
      <trkpt lat="42.78922" lon="-0.26432">
        <ele>2738.1</ele>
        <time>2018-12-27T12:37:12Z</time>
      </trkpt>
      <trkpt lat="42.78928" lon="-0.2644">
        <ele>2734.9</ele>
        <time>2018-12-27T12:37:14Z</time>
      </trkpt>
      <trkpt lat="42.78929" lon="-0.26441">
        <ele>2734.2</ele>
        <time>2018-12-27T12:37:15Z</time>
      </trkpt>
      <trkpt lat="42.78936" lon="-0.26445">
        <ele>2730.8</ele>
        <time>2018-12-27T12:37:17Z</time>
      </trkpt>
      <trkpt lat="42.78941" lon="-0.26451">
        <ele>2727.7</ele>
        <time>2018-12-27T12:37:19Z</time>
      </trkpt>
      <trkpt lat="42.78948" lon="-0.26456">
        <ele>2724.1</ele>
        <time>2018-12-27T12:37:21Z</time>
      </trkpt>
      <trkpt lat="42.78952" lon="-0.2646">
        <ele>2721.7</ele>
        <time>2018-12-27T12:37:22Z</time>
      </trkpt>
      <trkpt lat="42.78956" lon="-0.26463">
        <ele>2719</ele>
        <time>2018-12-27T12:37:23Z</time>
      </trkpt>
      <trkpt lat="42.78962" lon="-0.26473">
        <ele>2715.2</ele>
        <time>2018-12-27T12:37:26Z</time>
      </trkpt>
      <trkpt lat="42.78964" lon="-0.26475">
        <ele>2714.6</ele>
        <time>2018-12-27T12:37:26Z</time>
      </trkpt>
      <trkpt lat="42.78968" lon="-0.26475">
        <ele>2714.5</ele>
        <time>2018-12-27T12:37:28Z</time>
      </trkpt>
      <trkpt lat="42.78969" lon="-0.26473">
        <ele>2714.7</ele>
        <time>2018-12-27T12:37:28Z</time>
      </trkpt>
      <trkpt lat="42.78971" lon="-0.26473">
        <ele>2714.7</ele>
        <time>2018-12-27T12:37:28Z</time>
      </trkpt>
      <trkpt lat="42.78977" lon="-0.26474">
        <ele>2714.1</ele>
        <time>2018-12-27T12:37:30Z</time>
      </trkpt>
      <trkpt lat="42.78985" lon="-0.26477">
        <ele>2712.9</ele>
        <time>2018-12-27T12:37:32Z</time>
      </trkpt>
      <trkpt lat="42.78995" lon="-0.26487">
        <ele>2709.8</ele>
        <time>2018-12-27T12:37:36Z</time>
      </trkpt>
      <trkpt lat="42.79004" lon="-0.26495">
        <ele>2707.2</ele>
        <time>2018-12-27T12:37:38Z</time>
      </trkpt>
      <trkpt lat="42.79008" lon="-0.26497">
        <ele>2706.3</ele>
        <time>2018-12-27T12:37:40Z</time>
      </trkpt>
      <trkpt lat="42.79011" lon="-0.26498">
        <ele>2705.9</ele>
        <time>2018-12-27T12:37:41Z</time>
      </trkpt>
      <trkpt lat="42.79021" lon="-0.26502">
        <ele>2704.1</ele>
        <time>2018-12-27T12:37:43Z</time>
      </trkpt>
      <trkpt lat="42.79031" lon="-0.26511">
        <ele>2701.1</ele>
        <time>2018-12-27T12:37:46Z</time>
      </trkpt>
      <trkpt lat="42.79032" lon="-0.26513">
        <ele>2700.6</ele>
        <time>2018-12-27T12:37:47Z</time>
      </trkpt>
      <trkpt lat="42.79038" lon="-0.26513">
        <ele>2700.2</ele>
        <time>2018-12-27T12:37:48Z</time>
      </trkpt>
      <trkpt lat="42.79041" lon="-0.26516">
        <ele>2699.3</ele>
        <time>2018-12-27T12:37:49Z</time>
      </trkpt>
      <trkpt lat="42.79043" lon="-0.26517">
        <ele>2699.3</ele>
        <time>2018-12-27T12:37:50Z</time>
      </trkpt>
      <trkpt lat="42.79051" lon="-0.2652">
        <ele>2700.5</ele>
        <time>2018-12-27T12:37:52Z</time>
      </trkpt>
      <trkpt lat="42.7906" lon="-0.26526">
        <ele>2701.1</ele>
        <time>2018-12-27T12:37:55Z</time>
      </trkpt>
      <trkpt lat="42.79068" lon="-0.2653">
        <ele>2701.9</ele>
        <time>2018-12-27T12:37:57Z</time>
      </trkpt>
      <trkpt lat="42.79074" lon="-0.26531">
        <ele>2703.2</ele>
        <time>2018-12-27T12:37:59Z</time>
      </trkpt>
      <trkpt lat="42.79079" lon="-0.26538">
        <ele>2701.9</ele>
        <time>2018-12-27T12:38:01Z</time>
      </trkpt>
      <trkpt lat="42.79086" lon="-0.26545">
        <ele>2701.7</ele>
        <time>2018-12-27T12:38:03Z</time>
      </trkpt>
      <trkpt lat="42.79087" lon="-0.26547">
        <ele>2701.6</ele>
        <time>2018-12-27T12:38:04Z</time>
      </trkpt>
      <trkpt lat="42.79092" lon="-0.26557">
        <ele>2701.2</ele>
        <time>2018-12-27T12:38:06Z</time>
      </trkpt>
      <trkpt lat="42.79101" lon="-0.26567">
        <ele>2701.6</ele>
        <time>2018-12-27T12:38:09Z</time>
      </trkpt>
      <trkpt lat="42.79107" lon="-0.26571">
        <ele>2702.2</ele>
        <time>2018-12-27T12:38:11Z</time>
      </trkpt>
      <trkpt lat="42.79107" lon="-0.26573">
        <ele>2702</ele>
        <time>2018-12-27T12:38:11Z</time>
      </trkpt>
      <trkpt lat="42.79111" lon="-0.26582">
        <ele>2701.3</ele>
        <time>2018-12-27T12:38:13Z</time>
      </trkpt>
      <trkpt lat="42.79116" lon="-0.26588">
        <ele>2701</ele>
        <time>2018-12-27T12:38:15Z</time>
      </trkpt>
      <trkpt lat="42.79117" lon="-0.2659">
        <ele>2701</ele>
        <time>2018-12-27T12:38:15Z</time>
      </trkpt>
      <trkpt lat="42.79121" lon="-0.26595">
        <ele>2700.8</ele>
        <time>2018-12-27T12:38:17Z</time>
      </trkpt>
      <trkpt lat="42.7913" lon="-0.26598">
        <ele>2703</ele>
        <time>2018-12-27T12:38:19Z</time>
      </trkpt>
      <trkpt lat="42.79138" lon="-0.266">
        <ele>2705.9</ele>
        <time>2018-12-27T12:38:21Z</time>
      </trkpt>
      <trkpt lat="42.79138" lon="-0.26601">
        <ele>2706.1</ele>
        <time>2018-12-27T12:38:22Z</time>
      </trkpt>
      <trkpt lat="42.79141" lon="-0.26608">
        <ele>2706.1</ele>
        <time>2018-12-27T12:38:23Z</time>
      </trkpt>
      <trkpt lat="42.79145" lon="-0.26616">
        <ele>2705.9</ele>
        <time>2018-12-27T12:38:25Z</time>
      </trkpt>
      <trkpt lat="42.79148" lon="-0.26627">
        <ele>2705.7</ele>
        <time>2018-12-27T12:38:27Z</time>
      </trkpt>
      <trkpt lat="42.79151" lon="-0.26635">
        <ele>2706.6</ele>
        <time>2018-12-27T12:38:29Z</time>
      </trkpt>
      <trkpt lat="42.79155" lon="-0.26644">
        <ele>2707.9</ele>
        <time>2018-12-27T12:38:31Z</time>
      </trkpt>
      <trkpt lat="42.79157" lon="-0.26648">
        <ele>2708.7</ele>
        <time>2018-12-27T12:38:32Z</time>
      </trkpt>
      <trkpt lat="42.79162" lon="-0.26654">
        <ele>2710.3</ele>
        <time>2018-12-27T12:38:34Z</time>
      </trkpt>
      <trkpt lat="42.79164" lon="-0.26658">
        <ele>2711.2</ele>
        <time>2018-12-27T12:38:35Z</time>
      </trkpt>
      <trkpt lat="42.79169" lon="-0.26661">
        <ele>2713.4</ele>
        <time>2018-12-27T12:38:36Z</time>
      </trkpt>
      <trkpt lat="42.79172" lon="-0.26662">
        <ele>2714.5</ele>
        <time>2018-12-27T12:38:37Z</time>
      </trkpt>
      <trkpt lat="42.79174" lon="-0.26662">
        <ele>2715.7</ele>
        <time>2018-12-27T12:38:38Z</time>
      </trkpt>
      <trkpt lat="42.79178" lon="-0.26663">
        <ele>2717.1</ele>
        <time>2018-12-27T12:38:39Z</time>
      </trkpt>
      <trkpt lat="42.79179" lon="-0.26667">
        <ele>2717.6</ele>
        <time>2018-12-27T12:38:40Z</time>
      </trkpt>
      <trkpt lat="42.79183" lon="-0.26668">
        <ele>2719.1</ele>
        <time>2018-12-27T12:38:40Z</time>
      </trkpt>
      <trkpt lat="42.79186" lon="-0.26673">
        <ele>2720.2</ele>
        <time>2018-12-27T12:38:42Z</time>
      </trkpt>
      <trkpt lat="42.79186" lon="-0.26677">
        <ele>2720.3</ele>
        <time>2018-12-27T12:38:42Z</time>
      </trkpt>
      <trkpt lat="42.7919" lon="-0.26677">
        <ele>2722.1</ele>
        <time>2018-12-27T12:38:44Z</time>
      </trkpt>
      <trkpt lat="42.79192" lon="-0.26677">
        <ele>2723.3</ele>
        <time>2018-12-27T12:38:44Z</time>
      </trkpt>
      <trkpt lat="42.79195" lon="-0.26677">
        <ele>2724.5</ele>
        <time>2018-12-27T12:38:45Z</time>
      </trkpt>
      <trkpt lat="42.79198" lon="-0.26679">
        <ele>2725.5</ele>
        <time>2018-12-27T12:38:46Z</time>
      </trkpt>
      <trkpt lat="42.79202" lon="-0.26679">
        <ele>2727.5</ele>
        <time>2018-12-27T12:38:47Z</time>
      </trkpt>
      <trkpt lat="42.79205" lon="-0.2668">
        <ele>2728.8</ele>
        <time>2018-12-27T12:38:48Z</time>
      </trkpt>
      <trkpt lat="42.79207" lon="-0.26681">
        <ele>2729.8</ele>
        <time>2018-12-27T12:38:48Z</time>
      </trkpt>
      <trkpt lat="42.79208" lon="-0.2668">
        <ele>2730.4</ele>
        <time>2018-12-27T12:38:49Z</time>
      </trkpt>
      <trkpt lat="42.79209" lon="-0.26677">
        <ele>2730.5</ele>
        <time>2018-12-27T12:38:49Z</time>
      </trkpt>
      <trkpt lat="42.79211" lon="-0.26673">
        <ele>2731</ele>
        <time>2018-12-27T12:38:50Z</time>
      </trkpt>
      <trkpt lat="42.79213" lon="-0.26671">
        <ele>2731.3</ele>
        <time>2018-12-27T12:38:51Z</time>
      </trkpt>
      <trkpt lat="42.79214" lon="-0.26668">
        <ele>2731.7</ele>
        <time>2018-12-27T12:38:52Z</time>
      </trkpt>
      <trkpt lat="42.79215" lon="-0.26665">
        <ele>2731.7</ele>
        <time>2018-12-27T12:38:52Z</time>
      </trkpt>
      <trkpt lat="42.7922" lon="-0.26665">
        <ele>2732.6</ele>
        <time>2018-12-27T12:38:54Z</time>
      </trkpt>
      <trkpt lat="42.79225" lon="-0.26664">
        <ele>2733.4</ele>
        <time>2018-12-27T12:38:55Z</time>
      </trkpt>
      <trkpt lat="42.79227" lon="-0.26663">
        <ele>2733.8</ele>
        <time>2018-12-27T12:38:56Z</time>
      </trkpt>
      <trkpt lat="42.79231" lon="-0.26658">
        <ele>2734.2</ele>
        <time>2018-12-27T12:38:57Z</time>
      </trkpt>
      <trkpt lat="42.79232" lon="-0.26657">
        <ele>2734.2</ele>
        <time>2018-12-27T12:38:57Z</time>
      </trkpt>
      <trkpt lat="42.79234" lon="-0.26656">
        <ele>2734.3</ele>
        <time>2018-12-27T12:38:58Z</time>
      </trkpt>
      <trkpt lat="42.79235" lon="-0.26653">
        <ele>2734.4</ele>
        <time>2018-12-27T12:38:59Z</time>
      </trkpt>
      <trkpt lat="42.79236" lon="-0.26653">
        <ele>2734.5</ele>
        <time>2018-12-27T12:38:59Z</time>
      </trkpt>
      <trkpt lat="42.79237" lon="-0.26651">
        <ele>2734.4</ele>
        <time>2018-12-27T12:38:59Z</time>
      </trkpt>
      <trkpt lat="42.7924" lon="-0.26649">
        <ele>2734.6</ele>
        <time>2018-12-27T12:39:00Z</time>
      </trkpt>
      <trkpt lat="42.79242" lon="-0.26649">
        <ele>2734.9</ele>
        <time>2018-12-27T12:39:01Z</time>
      </trkpt>
      <trkpt lat="42.79248" lon="-0.26645">
        <ele>2735.1</ele>
        <time>2018-12-27T12:39:02Z</time>
      </trkpt>
      <trkpt lat="42.79249" lon="-0.26644">
        <ele>2735.1</ele>
        <time>2018-12-27T12:39:03Z</time>
      </trkpt>
      <trkpt lat="42.7925" lon="-0.26643">
        <ele>2735</ele>
        <time>2018-12-27T12:39:03Z</time>
      </trkpt>
      <trkpt lat="42.79249" lon="-0.26644">
        <ele>2735.1</ele>
        <time>2018-12-27T12:39:04Z</time>
      </trkpt>
      <trkpt lat="42.79243" lon="-0.26646">
        <ele>2734.6</ele>
        <time>2018-12-27T12:39:05Z</time>
      </trkpt>
      <trkpt lat="42.7924" lon="-0.26644">
        <ele>2734.1</ele>
        <time>2018-12-27T12:39:06Z</time>
      </trkpt>
      <trkpt lat="42.79239" lon="-0.26643">
        <ele>2734</ele>
        <time>2018-12-27T12:39:07Z</time>
      </trkpt>
      <trkpt lat="42.79236" lon="-0.26643">
        <ele>2733.5</ele>
        <time>2018-12-27T12:39:07Z</time>
      </trkpt>
      <trkpt lat="42.79236" lon="-0.26639">
        <ele>2733.2</ele>
        <time>2018-12-27T12:39:08Z</time>
      </trkpt>
      <trkpt lat="42.79237" lon="-0.26637">
        <ele>2733.1</ele>
        <time>2018-12-27T12:39:08Z</time>
      </trkpt>
      <trkpt lat="42.79239" lon="-0.26636">
        <ele>2733.2</ele>
        <time>2018-12-27T12:39:09Z</time>
      </trkpt>
      <trkpt lat="42.79241" lon="-0.2663">
        <ele>2732.7</ele>
        <time>2018-12-27T12:39:10Z</time>
      </trkpt>
      <trkpt lat="42.79243" lon="-0.26621">
        <ele>2732.4</ele>
        <time>2018-12-27T12:39:12Z</time>
      </trkpt>
      <trkpt lat="42.79257" lon="-0.26614">
        <ele>2732.7</ele>
        <time>2018-12-27T12:39:16Z</time>
      </trkpt>
      <trkpt lat="42.79253" lon="-0.26621">
        <ele>2732.7</ele>
        <time>2018-12-27T12:39:18Z</time>
      </trkpt>
      <trkpt lat="42.79253" lon="-0.26623">
        <ele>2732.6</ele>
        <time>2018-12-27T12:39:18Z</time>
      </trkpt>
      <trkpt lat="42.79255" lon="-0.26627">
        <ele>2733.1</ele>
        <time>2018-12-27T12:39:19Z</time>
      </trkpt>
      <trkpt lat="42.79258" lon="-0.2663">
        <ele>2733.7</ele>
        <time>2018-12-27T12:39:20Z</time>
      </trkpt>
      <trkpt lat="42.79259" lon="-0.26631">
        <ele>2733.9</ele>
        <time>2018-12-27T12:39:20Z</time>
      </trkpt>
      <trkpt lat="42.7926" lon="-0.26633">
        <ele>2734.3</ele>
        <time>2018-12-27T12:39:21Z</time>
      </trkpt>
      <trkpt lat="42.79256" lon="-0.26634">
        <ele>2734.1</ele>
        <time>2018-12-27T12:39:22Z</time>
      </trkpt>
      <trkpt lat="42.79258" lon="-0.26635">
        <ele>2734.5</ele>
        <time>2018-12-27T12:39:23Z</time>
      </trkpt>
      <trkpt lat="42.7926" lon="-0.26635">
        <ele>2734.6</ele>
        <time>2018-12-27T12:39:23Z</time>
      </trkpt>
      <trkpt lat="42.79263" lon="-0.26636">
        <ele>2735.2</ele>
        <time>2018-12-27T12:39:24Z</time>
      </trkpt>
      <trkpt lat="42.79269" lon="-0.26641">
        <ele>2736.5</ele>
        <time>2018-12-27T12:39:26Z</time>
      </trkpt>
      <trkpt lat="42.79277" lon="-0.26645">
        <ele>2738.3</ele>
        <time>2018-12-27T12:39:28Z</time>
      </trkpt>
      <trkpt lat="42.7928" lon="-0.26647">
        <ele>2738.9</ele>
        <time>2018-12-27T12:39:29Z</time>
      </trkpt>
      <trkpt lat="42.79283" lon="-0.26647">
        <ele>2739.5</ele>
        <time>2018-12-27T12:39:30Z</time>
      </trkpt>
      <trkpt lat="42.7929" lon="-0.26649">
        <ele>2740.8</ele>
        <time>2018-12-27T12:39:32Z</time>
      </trkpt>
      <trkpt lat="42.79292" lon="-0.2665">
        <ele>2740.9</ele>
        <time>2018-12-27T12:39:32Z</time>
      </trkpt>
      <trkpt lat="42.79298" lon="-0.26652">
        <ele>2737.1</ele>
        <time>2018-12-27T12:39:34Z</time>
      </trkpt>
      <trkpt lat="42.79303" lon="-0.26657">
        <ele>2734</ele>
        <time>2018-12-27T12:39:35Z</time>
      </trkpt>
      <trkpt lat="42.79304" lon="-0.26657">
        <ele>2733.6</ele>
        <time>2018-12-27T12:39:36Z</time>
      </trkpt>
      <trkpt lat="42.79313" lon="-0.26659">
        <ele>2726.1</ele>
        <time>2018-12-27T12:39:38Z</time>
      </trkpt>
      <trkpt lat="42.79322" lon="-0.26663">
        <ele>2720.3</ele>
        <time>2018-12-27T12:39:41Z</time>
      </trkpt>
      <trkpt lat="42.79326" lon="-0.26661">
        <ele>2716.1</ele>
        <time>2018-12-27T12:39:42Z</time>
      </trkpt>
      <trkpt lat="42.79331" lon="-0.26664">
        <ele>2712.8</ele>
        <time>2018-12-27T12:39:44Z</time>
      </trkpt>
      <trkpt lat="42.79334" lon="-0.26668">
        <ele>2711.6</ele>
        <time>2018-12-27T12:39:45Z</time>
      </trkpt>
      <trkpt lat="42.7934" lon="-0.26674">
        <ele>2708.1</ele>
        <time>2018-12-27T12:39:47Z</time>
      </trkpt>
      <trkpt lat="42.79347" lon="-0.26678">
        <ele>2704</ele>
        <time>2018-12-27T12:39:49Z</time>
      </trkpt>
      <trkpt lat="42.79349" lon="-0.2668">
        <ele>2703</ele>
        <time>2018-12-27T12:39:49Z</time>
      </trkpt>
      <trkpt lat="42.79355" lon="-0.26686">
        <ele>2699.9</ele>
        <time>2018-12-27T12:39:51Z</time>
      </trkpt>
      <trkpt lat="42.79356" lon="-0.26688">
        <ele>2699.1</ele>
        <time>2018-12-27T12:39:52Z</time>
      </trkpt>
      <trkpt lat="42.79363" lon="-0.26699">
        <ele>2696.7</ele>
        <time>2018-12-27T12:39:54Z</time>
      </trkpt>
      <trkpt lat="42.79374" lon="-0.26706">
        <ele>2689.5</ele>
        <time>2018-12-27T12:39:58Z</time>
      </trkpt>
      <trkpt lat="42.79377" lon="-0.26709">
        <ele>2687.7</ele>
        <time>2018-12-27T12:39:59Z</time>
      </trkpt>
      <trkpt lat="42.79382" lon="-0.26715">
        <ele>2687.1</ele>
        <time>2018-12-27T12:40:01Z</time>
      </trkpt>
      <trkpt lat="42.79383" lon="-0.26718">
        <ele>2687.4</ele>
        <time>2018-12-27T12:40:01Z</time>
      </trkpt>
      <trkpt lat="42.79388" lon="-0.26724">
        <ele>2686.3</ele>
        <time>2018-12-27T12:40:03Z</time>
      </trkpt>
      <trkpt lat="42.7939" lon="-0.26726">
        <ele>2685.8</ele>
        <time>2018-12-27T12:40:04Z</time>
      </trkpt>
      <trkpt lat="42.79394" lon="-0.26732">
        <ele>2684.7</ele>
        <time>2018-12-27T12:40:05Z</time>
      </trkpt>
      <trkpt lat="42.79395" lon="-0.26733">
        <ele>2683.9</ele>
        <time>2018-12-27T12:40:05Z</time>
      </trkpt>
      <trkpt lat="42.79402" lon="-0.26739">
        <ele>2680.7</ele>
        <time>2018-12-27T12:40:08Z</time>
      </trkpt>
      <trkpt lat="42.79411" lon="-0.26747">
        <ele>2675.2</ele>
        <time>2018-12-27T12:40:11Z</time>
      </trkpt>
      <trkpt lat="42.79412" lon="-0.26749">
        <ele>2674.6</ele>
        <time>2018-12-27T12:40:11Z</time>
      </trkpt>
      <trkpt lat="42.7942" lon="-0.26761">
        <ele>2671.7</ele>
        <time>2018-12-27T12:40:14Z</time>
      </trkpt>
      <trkpt lat="42.79427" lon="-0.26772">
        <ele>2668.2</ele>
        <time>2018-12-27T12:40:17Z</time>
      </trkpt>
      <trkpt lat="42.79437" lon="-0.26782">
        <ele>2660.6</ele>
        <time>2018-12-27T12:40:20Z</time>
      </trkpt>
      <trkpt lat="42.79445" lon="-0.26793">
        <ele>2654</ele>
        <time>2018-12-27T12:40:23Z</time>
      </trkpt>
      <trkpt lat="42.79455" lon="-0.26804">
        <ele>2648.6</ele>
        <time>2018-12-27T12:40:27Z</time>
      </trkpt>
      <trkpt lat="42.79464" lon="-0.26813">
        <ele>2644.4</ele>
        <time>2018-12-27T12:40:30Z</time>
      </trkpt>
      <trkpt lat="42.79467" lon="-0.26816">
        <ele>2642.6</ele>
        <time>2018-12-27T12:40:31Z</time>
      </trkpt>
      <trkpt lat="42.7947" lon="-0.26819">
        <ele>2641.6</ele>
        <time>2018-12-27T12:40:32Z</time>
      </trkpt>
      <trkpt lat="42.79477" lon="-0.26827">
        <ele>2639</ele>
        <time>2018-12-27T12:40:34Z</time>
      </trkpt>
      <trkpt lat="42.79485" lon="-0.26836">
        <ele>2635.8</ele>
        <time>2018-12-27T12:40:37Z</time>
      </trkpt>
      <trkpt lat="42.79492" lon="-0.26841">
        <ele>2631.8</ele>
        <time>2018-12-27T12:40:39Z</time>
      </trkpt>
      <trkpt lat="42.79495" lon="-0.26842">
        <ele>2628.7</ele>
        <time>2018-12-27T12:40:40Z</time>
      </trkpt>
      <trkpt lat="42.795" lon="-0.26846">
        <ele>2625.6</ele>
        <time>2018-12-27T12:40:42Z</time>
      </trkpt>
      <trkpt lat="42.79503" lon="-0.26849">
        <ele>2623.9</ele>
        <time>2018-12-27T12:40:43Z</time>
      </trkpt>
      <trkpt lat="42.79512" lon="-0.26856">
        <ele>2618</ele>
        <time>2018-12-27T12:40:45Z</time>
      </trkpt>
      <trkpt lat="42.79516" lon="-0.26862">
        <ele>2615.7</ele>
        <time>2018-12-27T12:40:47Z</time>
      </trkpt>
      <trkpt lat="42.79517" lon="-0.26863">
        <ele>2614.7</ele>
        <time>2018-12-27T12:40:47Z</time>
      </trkpt>
      <trkpt lat="42.79522" lon="-0.26868">
        <ele>2611.2</ele>
        <time>2018-12-27T12:40:49Z</time>
      </trkpt>
      <trkpt lat="42.79523" lon="-0.2687">
        <ele>2610.7</ele>
        <time>2018-12-27T12:40:49Z</time>
      </trkpt>
      <trkpt lat="42.79528" lon="-0.26879">
        <ele>2607.5</ele>
        <time>2018-12-27T12:40:52Z</time>
      </trkpt>
      <trkpt lat="42.7953" lon="-0.26879">
        <ele>2606</ele>
        <time>2018-12-27T12:40:52Z</time>
      </trkpt>
      <trkpt lat="42.79536" lon="-0.26882">
        <ele>2600.3</ele>
        <time>2018-12-27T12:40:54Z</time>
      </trkpt>
      <trkpt lat="42.79543" lon="-0.26889">
        <ele>2595.5</ele>
        <time>2018-12-27T12:40:56Z</time>
      </trkpt>
      <trkpt lat="42.79552" lon="-0.26902">
        <ele>2592.8</ele>
        <time>2018-12-27T12:41:00Z</time>
      </trkpt>
      <trkpt lat="42.79557" lon="-0.26913">
        <ele>2591.9</ele>
        <time>2018-12-27T12:41:02Z</time>
      </trkpt>
      <trkpt lat="42.79564" lon="-0.26921">
        <ele>2588.8</ele>
        <time>2018-12-27T12:41:05Z</time>
      </trkpt>
      <trkpt lat="42.79572" lon="-0.2693">
        <ele>2585.5</ele>
        <time>2018-12-27T12:41:07Z</time>
      </trkpt>
      <trkpt lat="42.79579" lon="-0.26939">
        <ele>2581.9</ele>
        <time>2018-12-27T12:41:10Z</time>
      </trkpt>
      <trkpt lat="42.79581" lon="-0.2694">
        <ele>2580.9</ele>
        <time>2018-12-27T12:41:10Z</time>
      </trkpt>
      <trkpt lat="42.79583" lon="-0.26944">
        <ele>2580.3</ele>
        <time>2018-12-27T12:41:11Z</time>
      </trkpt>
      <trkpt lat="42.79584" lon="-0.26946">
        <ele>2579.9</ele>
        <time>2018-12-27T12:41:12Z</time>
      </trkpt>
      <trkpt lat="42.79585" lon="-0.26947">
        <ele>2579.2</ele>
        <time>2018-12-27T12:41:12Z</time>
      </trkpt>
      <trkpt lat="42.79587" lon="-0.2695">
        <ele>2578.2</ele>
        <time>2018-12-27T12:41:13Z</time>
      </trkpt>
      <trkpt lat="42.79588" lon="-0.2695">
        <ele>2577.6</ele>
        <time>2018-12-27T12:41:13Z</time>
      </trkpt>
      <trkpt lat="42.79592" lon="-0.26955">
        <ele>2575.3</ele>
        <time>2018-12-27T12:41:15Z</time>
      </trkpt>
      <trkpt lat="42.79597" lon="-0.26961">
        <ele>2571.9</ele>
        <time>2018-12-27T12:41:16Z</time>
      </trkpt>
      <trkpt lat="42.79605" lon="-0.26968">
        <ele>2566.9</ele>
        <time>2018-12-27T12:41:19Z</time>
      </trkpt>
      <trkpt lat="42.79606" lon="-0.26969">
        <ele>2566</ele>
        <time>2018-12-27T12:41:19Z</time>
      </trkpt>
      <trkpt lat="42.79608" lon="-0.26971">
        <ele>2564.7</ele>
        <time>2018-12-27T12:41:20Z</time>
      </trkpt>
      <trkpt lat="42.79613" lon="-0.26975">
        <ele>2561.4</ele>
        <time>2018-12-27T12:41:22Z</time>
      </trkpt>
      <trkpt lat="42.79618" lon="-0.26988">
        <ele>2559</ele>
        <time>2018-12-27T12:41:24Z</time>
      </trkpt>
      <trkpt lat="42.79618" lon="-0.26991">
        <ele>2558.5</ele>
        <time>2018-12-27T12:41:25Z</time>
      </trkpt>
      <trkpt lat="42.7962" lon="-0.27001">
        <ele>2558</ele>
        <time>2018-12-27T12:41:27Z</time>
      </trkpt>
      <trkpt lat="42.79622" lon="-0.27005">
        <ele>2557</ele>
        <time>2018-12-27T12:41:28Z</time>
      </trkpt>
      <trkpt lat="42.79628" lon="-0.27016">
        <ele>2553.6</ele>
        <time>2018-12-27T12:41:31Z</time>
      </trkpt>
      <trkpt lat="42.79636" lon="-0.27029">
        <ele>2549.7</ele>
        <time>2018-12-27T12:41:34Z</time>
      </trkpt>
      <trkpt lat="42.79639" lon="-0.27032">
        <ele>2547.7</ele>
        <time>2018-12-27T12:41:35Z</time>
      </trkpt>
      <trkpt lat="42.7964" lon="-0.27035">
        <ele>2547.3</ele>
        <time>2018-12-27T12:41:35Z</time>
      </trkpt>
      <trkpt lat="42.79642" lon="-0.27039">
        <ele>2545.9</ele>
        <time>2018-12-27T12:41:37Z</time>
      </trkpt>
      <trkpt lat="42.79646" lon="-0.27043">
        <ele>2543.6</ele>
        <time>2018-12-27T12:41:38Z</time>
      </trkpt>
      <trkpt lat="42.79652" lon="-0.27049">
        <ele>2538.8</ele>
        <time>2018-12-27T12:41:40Z</time>
      </trkpt>
      <trkpt lat="42.79655" lon="-0.27052">
        <ele>2536.3</ele>
        <time>2018-12-27T12:41:41Z</time>
      </trkpt>
      <trkpt lat="42.79658" lon="-0.27055">
        <ele>2534.1</ele>
        <time>2018-12-27T12:41:42Z</time>
      </trkpt>
      <trkpt lat="42.79659" lon="-0.27056">
        <ele>2533.1</ele>
        <time>2018-12-27T12:41:42Z</time>
      </trkpt>
      <trkpt lat="42.79664" lon="-0.27062">
        <ele>2529.3</ele>
        <time>2018-12-27T12:41:44Z</time>
      </trkpt>
      <trkpt lat="42.79665" lon="-0.27064">
        <ele>2528.6</ele>
        <time>2018-12-27T12:41:44Z</time>
      </trkpt>
      <trkpt lat="42.7967" lon="-0.2707">
        <ele>2524.3</ele>
        <time>2018-12-27T12:41:46Z</time>
      </trkpt>
      <trkpt lat="42.79671" lon="-0.27072">
        <ele>2523.4</ele>
        <time>2018-12-27T12:41:47Z</time>
      </trkpt>
      <trkpt lat="42.79676" lon="-0.27081">
        <ele>2519</ele>
        <time>2018-12-27T12:41:49Z</time>
      </trkpt>
      <trkpt lat="42.7968" lon="-0.27084">
        <ele>2516.4</ele>
        <time>2018-12-27T12:41:50Z</time>
      </trkpt>
      <trkpt lat="42.79682" lon="-0.27085">
        <ele>2515.3</ele>
        <time>2018-12-27T12:41:50Z</time>
      </trkpt>
      <trkpt lat="42.79686" lon="-0.27093">
        <ele>2511.2</ele>
        <time>2018-12-27T12:41:52Z</time>
      </trkpt>
      <trkpt lat="42.79688" lon="-0.27102">
        <ele>2508.9</ele>
        <time>2018-12-27T12:41:54Z</time>
      </trkpt>
      <trkpt lat="42.79695" lon="-0.27109">
        <ele>2504</ele>
        <time>2018-12-27T12:41:57Z</time>
      </trkpt>
      <trkpt lat="42.79697" lon="-0.27111">
        <ele>2502.7</ele>
        <time>2018-12-27T12:41:57Z</time>
      </trkpt>
      <trkpt lat="42.79706" lon="-0.27128">
        <ele>2495.1</ele>
        <time>2018-12-27T12:42:01Z</time>
      </trkpt>
      <trkpt lat="42.79712" lon="-0.27139">
        <ele>2490.9</ele>
        <time>2018-12-27T12:42:04Z</time>
      </trkpt>
      <trkpt lat="42.79714" lon="-0.27143">
        <ele>2490</ele>
        <time>2018-12-27T12:42:05Z</time>
      </trkpt>
      <trkpt lat="42.79716" lon="-0.27157">
        <ele>2487.3</ele>
        <time>2018-12-27T12:42:08Z</time>
      </trkpt>
      <trkpt lat="42.79719" lon="-0.27173">
        <ele>2484.1</ele>
        <time>2018-12-27T12:42:11Z</time>
      </trkpt>
      <trkpt lat="42.79721" lon="-0.2718">
        <ele>2482.6</ele>
        <time>2018-12-27T12:42:12Z</time>
      </trkpt>
      <trkpt lat="42.79726" lon="-0.27188">
        <ele>2480.2</ele>
        <time>2018-12-27T12:42:14Z</time>
      </trkpt>
      <trkpt lat="42.79728" lon="-0.27201">
        <ele>2477.6</ele>
        <time>2018-12-27T12:42:17Z</time>
      </trkpt>
      <trkpt lat="42.79727" lon="-0.27204">
        <ele>2477.5</ele>
        <time>2018-12-27T12:42:18Z</time>
      </trkpt>
      <trkpt lat="42.79727" lon="-0.27214">
        <ele>2476.1</ele>
        <time>2018-12-27T12:42:20Z</time>
      </trkpt>
      <trkpt lat="42.7973" lon="-0.27221">
        <ele>2474.2</ele>
        <time>2018-12-27T12:42:21Z</time>
      </trkpt>
      <trkpt lat="42.79735" lon="-0.27224">
        <ele>2472.5</ele>
        <time>2018-12-27T12:42:23Z</time>
      </trkpt>
      <trkpt lat="42.79741" lon="-0.27228">
        <ele>2470.1</ele>
        <time>2018-12-27T12:42:25Z</time>
      </trkpt>
      <trkpt lat="42.79743" lon="-0.27229">
        <ele>2469.6</ele>
        <time>2018-12-27T12:42:25Z</time>
      </trkpt>
      <trkpt lat="42.79744" lon="-0.2723">
        <ele>2469.2</ele>
        <time>2018-12-27T12:42:25Z</time>
      </trkpt>
      <trkpt lat="42.79745" lon="-0.27232">
        <ele>2468.2</ele>
        <time>2018-12-27T12:42:26Z</time>
      </trkpt>
      <trkpt lat="42.79747" lon="-0.27234">
        <ele>2467.7</ele>
        <time>2018-12-27T12:42:26Z</time>
      </trkpt>
      <trkpt lat="42.7975" lon="-0.27239">
        <ele>2465.8</ele>
        <time>2018-12-27T12:42:28Z</time>
      </trkpt>
      <trkpt lat="42.79753" lon="-0.27243">
        <ele>2464.7</ele>
        <time>2018-12-27T12:42:29Z</time>
      </trkpt>
      <trkpt lat="42.79755" lon="-0.27243">
        <ele>2464</ele>
        <time>2018-12-27T12:42:29Z</time>
      </trkpt>
      <trkpt lat="42.79762" lon="-0.27246">
        <ele>2461.4</ele>
        <time>2018-12-27T12:42:31Z</time>
      </trkpt>
      <trkpt lat="42.79763" lon="-0.27247">
        <ele>2460.8</ele>
        <time>2018-12-27T12:42:32Z</time>
      </trkpt>
      <trkpt lat="42.79765" lon="-0.27249">
        <ele>2460</ele>
        <time>2018-12-27T12:42:32Z</time>
      </trkpt>
      <trkpt lat="42.7977" lon="-0.27255">
        <ele>2457.8</ele>
        <time>2018-12-27T12:42:34Z</time>
      </trkpt>
      <trkpt lat="42.79772" lon="-0.27261">
        <ele>2456.3</ele>
        <time>2018-12-27T12:42:35Z</time>
      </trkpt>
      <trkpt lat="42.79774" lon="-0.27267">
        <ele>2454.7</ele>
        <time>2018-12-27T12:42:37Z</time>
      </trkpt>
      <trkpt lat="42.79777" lon="-0.2728">
        <ele>2451.5</ele>
        <time>2018-12-27T12:42:39Z</time>
      </trkpt>
      <trkpt lat="42.79777" lon="-0.27286">
        <ele>2450.4</ele>
        <time>2018-12-27T12:42:41Z</time>
      </trkpt>
      <trkpt lat="42.79776" lon="-0.27291">
        <ele>2450.3</ele>
        <time>2018-12-27T12:42:42Z</time>
      </trkpt>
      <trkpt lat="42.79777" lon="-0.27299">
        <ele>2449.9</ele>
        <time>2018-12-27T12:42:43Z</time>
      </trkpt>
      <trkpt lat="42.79776" lon="-0.27306">
        <ele>2450.8</ele>
        <time>2018-12-27T12:42:45Z</time>
      </trkpt>
      <trkpt lat="42.79775" lon="-0.27312">
        <ele>2451.7</ele>
        <time>2018-12-27T12:42:46Z</time>
      </trkpt>
      <trkpt lat="42.79777" lon="-0.27315">
        <ele>2451.1</ele>
        <time>2018-12-27T12:42:47Z</time>
      </trkpt>
      <trkpt lat="42.79778" lon="-0.27323">
        <ele>2451.3</ele>
        <time>2018-12-27T12:42:49Z</time>
      </trkpt>
      <trkpt lat="42.7978" lon="-0.27329">
        <ele>2451</ele>
        <time>2018-12-27T12:42:50Z</time>
      </trkpt>
      <trkpt lat="42.79784" lon="-0.27337">
        <ele>2450.6</ele>
        <time>2018-12-27T12:42:52Z</time>
      </trkpt>
      <trkpt lat="42.7979" lon="-0.27346">
        <ele>2449.6</ele>
        <time>2018-12-27T12:42:54Z</time>
      </trkpt>
      <trkpt lat="42.79796" lon="-0.27354">
        <ele>2449.3</ele>
        <time>2018-12-27T12:42:56Z</time>
      </trkpt>
      <trkpt lat="42.79805" lon="-0.27359">
        <ele>2449.5</ele>
        <time>2018-12-27T12:42:59Z</time>
      </trkpt>
      <trkpt lat="42.79812" lon="-0.27361">
        <ele>2449.5</ele>
        <time>2018-12-27T12:43:01Z</time>
      </trkpt>
      <trkpt lat="42.79822" lon="-0.27362">
        <ele>2449.2</ele>
        <time>2018-12-27T12:43:03Z</time>
      </trkpt>
      <trkpt lat="42.79837" lon="-0.27366">
        <ele>2449.2</ele>
        <time>2018-12-27T12:43:07Z</time>
      </trkpt>
      <trkpt lat="42.79848" lon="-0.27369">
        <ele>2449.3</ele>
        <time>2018-12-27T12:43:10Z</time>
      </trkpt>
      <trkpt lat="42.7986" lon="-0.27371">
        <ele>2449.6</ele>
        <time>2018-12-27T12:43:14Z</time>
      </trkpt>
      <trkpt lat="42.7987" lon="-0.27375">
        <ele>2450.2</ele>
        <time>2018-12-27T12:43:17Z</time>
      </trkpt>
      <trkpt lat="42.79882" lon="-0.27383">
        <ele>2450.4</ele>
        <time>2018-12-27T12:43:20Z</time>
      </trkpt>
      <trkpt lat="42.79886" lon="-0.27391">
        <ele>2451</ele>
        <time>2018-12-27T12:43:22Z</time>
      </trkpt>
      <trkpt lat="42.79889" lon="-0.27394">
        <ele>2451.3</ele>
        <time>2018-12-27T12:43:23Z</time>
      </trkpt>
      <trkpt lat="42.79897" lon="-0.27399">
        <ele>2451.2</ele>
        <time>2018-12-27T12:43:25Z</time>
      </trkpt>
      <trkpt lat="42.79909" lon="-0.27401">
        <ele>2450.4</ele>
        <time>2018-12-27T12:43:29Z</time>
      </trkpt>
      <trkpt lat="42.79922" lon="-0.274">
        <ele>2449.4</ele>
        <time>2018-12-27T12:43:32Z</time>
      </trkpt>
      <trkpt lat="42.79935" lon="-0.27401">
        <ele>2448.4</ele>
        <time>2018-12-27T12:43:36Z</time>
      </trkpt>
      <trkpt lat="42.79951" lon="-0.27402">
        <ele>2447.2</ele>
        <time>2018-12-27T12:43:40Z</time>
      </trkpt>
      <trkpt lat="42.79964" lon="-0.27406">
        <ele>2446.5</ele>
        <time>2018-12-27T12:43:43Z</time>
      </trkpt>
      <trkpt lat="42.79974" lon="-0.27407">
        <ele>2445.9</ele>
        <time>2018-12-27T12:43:46Z</time>
      </trkpt>
      <trkpt lat="42.79985" lon="-0.27408">
        <ele>2444.9</ele>
        <time>2018-12-27T12:43:49Z</time>
      </trkpt>
      <trkpt lat="42.79987" lon="-0.27409">
        <ele>2444.9</ele>
        <time>2018-12-27T12:43:50Z</time>
      </trkpt>
      <trkpt lat="42.79993" lon="-0.2741">
        <ele>2444.4</ele>
        <time>2018-12-27T12:43:51Z</time>
      </trkpt>
      <trkpt lat="42.80003" lon="-0.27409">
        <ele>2443.6</ele>
        <time>2018-12-27T12:43:54Z</time>
      </trkpt>
      <trkpt lat="42.80009" lon="-0.27408">
        <ele>2443.2</ele>
        <time>2018-12-27T12:43:55Z</time>
      </trkpt>
      <trkpt lat="42.80015" lon="-0.27406">
        <ele>2442.5</ele>
        <time>2018-12-27T12:43:57Z</time>
      </trkpt>
      <trkpt lat="42.80021" lon="-0.27406">
        <ele>2442.1</ele>
        <time>2018-12-27T12:43:59Z</time>
      </trkpt>
      <trkpt lat="42.80025" lon="-0.27407">
        <ele>2441.7</ele>
        <time>2018-12-27T12:44:00Z</time>
      </trkpt>
      <trkpt lat="42.80038" lon="-0.27411">
        <ele>2440.8</ele>
        <time>2018-12-27T12:44:03Z</time>
      </trkpt>
      <trkpt lat="42.80051" lon="-0.27413">
        <ele>2436.9</ele>
        <time>2018-12-27T12:44:07Z</time>
      </trkpt>
      <trkpt lat="42.80061" lon="-0.2741">
        <ele>2433.1</ele>
        <time>2018-12-27T12:44:10Z</time>
      </trkpt>
      <trkpt lat="42.80063" lon="-0.27409">
        <ele>2432.2</ele>
        <time>2018-12-27T12:44:10Z</time>
      </trkpt>
      <trkpt lat="42.80071" lon="-0.27406">
        <ele>2429.7</ele>
        <time>2018-12-27T12:44:12Z</time>
      </trkpt>
      <trkpt lat="42.80077" lon="-0.2741">
        <ele>2427</ele>
        <time>2018-12-27T12:44:14Z</time>
      </trkpt>
      <trkpt lat="42.8008" lon="-0.27411">
        <ele>2425.6</ele>
        <time>2018-12-27T12:44:15Z</time>
      </trkpt>
      <trkpt lat="42.80084" lon="-0.27414">
        <ele>2423.8</ele>
        <time>2018-12-27T12:44:16Z</time>
      </trkpt>
      <trkpt lat="42.80084" lon="-0.27417">
        <ele>2423.2</ele>
        <time>2018-12-27T12:44:17Z</time>
      </trkpt>
      <trkpt lat="42.80087" lon="-0.27424">
        <ele>2421.1</ele>
        <time>2018-12-27T12:44:18Z</time>
      </trkpt>
      <trkpt lat="42.80088" lon="-0.27426">
        <ele>2420.3</ele>
        <time>2018-12-27T12:44:19Z</time>
      </trkpt>
      <trkpt lat="42.8009" lon="-0.27432">
        <ele>2418.6</ele>
        <time>2018-12-27T12:44:20Z</time>
      </trkpt>
      <trkpt lat="42.80089" lon="-0.27436">
        <ele>2418.1</ele>
        <time>2018-12-27T12:44:21Z</time>
      </trkpt>
      <trkpt lat="42.80089" lon="-0.2745">
        <ele>2416</ele>
        <time>2018-12-27T12:44:23Z</time>
      </trkpt>
      <trkpt lat="42.80091" lon="-0.27466">
        <ele>2413.9</ele>
        <time>2018-12-27T12:44:27Z</time>
      </trkpt>
      <trkpt lat="42.80092" lon="-0.27479">
        <ele>2412.7</ele>
        <time>2018-12-27T12:44:29Z</time>
      </trkpt>
      <trkpt lat="42.80091" lon="-0.27489">
        <ele>2413.1</ele>
        <time>2018-12-27T12:44:31Z</time>
      </trkpt>
      <trkpt lat="42.80096" lon="-0.27497">
        <ele>2410.6</ele>
        <time>2018-12-27T12:44:33Z</time>
      </trkpt>
      <trkpt lat="42.80101" lon="-0.27505">
        <ele>2408</ele>
        <time>2018-12-27T12:44:35Z</time>
      </trkpt>
      <trkpt lat="42.80102" lon="-0.27507">
        <ele>2407.5</ele>
        <time>2018-12-27T12:44:36Z</time>
      </trkpt>
      <trkpt lat="42.80105" lon="-0.27513">
        <ele>2406.1</ele>
        <time>2018-12-27T12:44:37Z</time>
      </trkpt>
      <trkpt lat="42.80105" lon="-0.27516">
        <ele>2406.1</ele>
        <time>2018-12-27T12:44:38Z</time>
      </trkpt>
      <trkpt lat="42.80107" lon="-0.27522">
        <ele>2404.7</ele>
        <time>2018-12-27T12:44:39Z</time>
      </trkpt>
      <trkpt lat="42.8011" lon="-0.27528">
        <ele>2403.3</ele>
        <time>2018-12-27T12:44:40Z</time>
      </trkpt>
      <trkpt lat="42.80114" lon="-0.27536">
        <ele>2401.3</ele>
        <time>2018-12-27T12:44:42Z</time>
      </trkpt>
      <trkpt lat="42.8012" lon="-0.27549">
        <ele>2398.1</ele>
        <time>2018-12-27T12:44:45Z</time>
      </trkpt>
      <trkpt lat="42.80122" lon="-0.27552">
        <ele>2396.9</ele>
        <time>2018-12-27T12:44:46Z</time>
      </trkpt>
      <trkpt lat="42.80131" lon="-0.27563">
        <ele>2393</ele>
        <time>2018-12-27T12:44:49Z</time>
      </trkpt>
      <trkpt lat="42.80142" lon="-0.27579">
        <ele>2389.1</ele>
        <time>2018-12-27T12:44:54Z</time>
      </trkpt>
      <trkpt lat="42.80148" lon="-0.27585">
        <ele>2387.1</ele>
        <time>2018-12-27T12:44:56Z</time>
      </trkpt>
      <trkpt lat="42.80153" lon="-0.27587">
        <ele>2385.8</ele>
        <time>2018-12-27T12:44:57Z</time>
      </trkpt>
      <trkpt lat="42.80157" lon="-0.27589">
        <ele>2384.6</ele>
        <time>2018-12-27T12:44:58Z</time>
      </trkpt>
      <trkpt lat="42.80163" lon="-0.27592">
        <ele>2383</ele>
        <time>2018-12-27T12:45:00Z</time>
      </trkpt>
      <trkpt lat="42.80172" lon="-0.27594">
        <ele>2380.6</ele>
        <time>2018-12-27T12:45:02Z</time>
      </trkpt>
      <trkpt lat="42.8018" lon="-0.2759">
        <ele>2378.4</ele>
        <time>2018-12-27T12:45:05Z</time>
      </trkpt>
      <trkpt lat="42.80182" lon="-0.27589">
        <ele>2377.9</ele>
        <time>2018-12-27T12:45:05Z</time>
      </trkpt>
      <trkpt lat="42.80189" lon="-0.27584">
        <ele>2376</ele>
        <time>2018-12-27T12:45:07Z</time>
      </trkpt>
      <trkpt lat="42.80201" lon="-0.27584">
        <ele>2372.6</ele>
        <time>2018-12-27T12:45:10Z</time>
      </trkpt>
      <trkpt lat="42.80206" lon="-0.27584">
        <ele>2371.2</ele>
        <time>2018-12-27T12:45:12Z</time>
      </trkpt>
      <trkpt lat="42.80207" lon="-0.27586">
        <ele>2371</ele>
        <time>2018-12-27T12:45:12Z</time>
      </trkpt>
      <trkpt lat="42.80212" lon="-0.27588">
        <ele>2369.3</ele>
        <time>2018-12-27T12:45:14Z</time>
      </trkpt>
      <trkpt lat="42.8022" lon="-0.27586">
        <ele>2366.7</ele>
        <time>2018-12-27T12:45:16Z</time>
      </trkpt>
      <trkpt lat="42.80222" lon="-0.27575">
        <ele>2365.4</ele>
        <time>2018-12-27T12:45:18Z</time>
      </trkpt>
      <trkpt lat="42.80224" lon="-0.27565">
        <ele>2364</ele>
        <time>2018-12-27T12:45:20Z</time>
      </trkpt>
      <trkpt lat="42.80224" lon="-0.27552">
        <ele>2362.8</ele>
        <time>2018-12-27T12:45:23Z</time>
      </trkpt>
      <trkpt lat="42.8023" lon="-0.27543">
        <ele>2359.6</ele>
        <time>2018-12-27T12:45:25Z</time>
      </trkpt>
      <trkpt lat="42.80236" lon="-0.27541">
        <ele>2357.1</ele>
        <time>2018-12-27T12:45:27Z</time>
      </trkpt>
      <trkpt lat="42.80238" lon="-0.27541">
        <ele>2356.5</ele>
        <time>2018-12-27T12:45:27Z</time>
      </trkpt>
      <trkpt lat="42.80239" lon="-0.27534">
        <ele>2355.5</ele>
        <time>2018-12-27T12:45:29Z</time>
      </trkpt>
      <trkpt lat="42.80241" lon="-0.27523">
        <ele>2354.2</ele>
        <time>2018-12-27T12:45:31Z</time>
      </trkpt>
      <trkpt lat="42.80241" lon="-0.27517">
        <ele>2354</ele>
        <time>2018-12-27T12:45:32Z</time>
      </trkpt>
      <trkpt lat="42.80242" lon="-0.27512">
        <ele>2353</ele>
        <time>2018-12-27T12:45:33Z</time>
      </trkpt>
      <trkpt lat="42.80244" lon="-0.27502">
        <ele>2351.4</ele>
        <time>2018-12-27T12:45:35Z</time>
      </trkpt>
      <trkpt lat="42.80245" lon="-0.27497">
        <ele>2350.8</ele>
        <time>2018-12-27T12:45:36Z</time>
      </trkpt>
      <trkpt lat="42.80247" lon="-0.27495">
        <ele>2349.5</ele>
        <time>2018-12-27T12:45:36Z</time>
      </trkpt>
      <trkpt lat="42.8025" lon="-0.27503">
        <ele>2348.3</ele>
        <time>2018-12-27T12:45:38Z</time>
      </trkpt>
      <trkpt lat="42.80254" lon="-0.27505">
        <ele>2346.7</ele>
        <time>2018-12-27T12:45:39Z</time>
      </trkpt>
      <trkpt lat="42.80259" lon="-0.27513">
        <ele>2344.8</ele>
        <time>2018-12-27T12:45:41Z</time>
      </trkpt>
      <trkpt lat="42.80262" lon="-0.2751">
        <ele>2343</ele>
        <time>2018-12-27T12:45:42Z</time>
      </trkpt>
      <trkpt lat="42.80265" lon="-0.27507">
        <ele>2340.9</ele>
        <time>2018-12-27T12:45:43Z</time>
      </trkpt>
      <trkpt lat="42.80272" lon="-0.27513">
        <ele>2338.3</ele>
        <time>2018-12-27T12:45:45Z</time>
      </trkpt>
      <trkpt lat="42.80273" lon="-0.27515">
        <ele>2337.8</ele>
        <time>2018-12-27T12:45:46Z</time>
      </trkpt>
      <trkpt lat="42.80273" lon="-0.27516">
        <ele>2337.9</ele>
        <time>2018-12-27T12:45:46Z</time>
      </trkpt>
      <trkpt lat="42.80274" lon="-0.27518">
        <ele>2337.9</ele>
        <time>2018-12-27T12:45:47Z</time>
      </trkpt>
      <trkpt lat="42.80277" lon="-0.27521">
        <ele>2336.6</ele>
        <time>2018-12-27T12:45:48Z</time>
      </trkpt>
      <trkpt lat="42.80284" lon="-0.27523">
        <ele>2333.7</ele>
        <time>2018-12-27T12:45:49Z</time>
      </trkpt>
      <trkpt lat="42.80284" lon="-0.27522">
        <ele>2333.2</ele>
        <time>2018-12-27T12:45:50Z</time>
      </trkpt>
      <trkpt lat="42.80287" lon="-0.27512">
        <ele>2330.3</ele>
        <time>2018-12-27T12:45:52Z</time>
      </trkpt>
      <trkpt lat="42.80291" lon="-0.27503">
        <ele>2327.2</ele>
        <time>2018-12-27T12:45:54Z</time>
      </trkpt>
      <trkpt lat="42.80294" lon="-0.27496">
        <ele>2324.5</ele>
        <time>2018-12-27T12:45:55Z</time>
      </trkpt>
      <trkpt lat="42.80295" lon="-0.27496">
        <ele>2323.9</ele>
        <time>2018-12-27T12:45:56Z</time>
      </trkpt>
      <trkpt lat="42.80299" lon="-0.27491">
        <ele>2321.7</ele>
        <time>2018-12-27T12:45:57Z</time>
      </trkpt>
      <trkpt lat="42.80301" lon="-0.27484">
        <ele>2319.9</ele>
        <time>2018-12-27T12:45:58Z</time>
      </trkpt>
      <trkpt lat="42.80301" lon="-0.27484">
        <ele>2319.3</ele>
        <time>2018-12-27T12:45:59Z</time>
      </trkpt>
      <trkpt lat="42.80303" lon="-0.27484">
        <ele>2318.8</ele>
        <time>2018-12-27T12:45:59Z</time>
      </trkpt>
      <trkpt lat="42.80312" lon="-0.27487">
        <ele>2315.7</ele>
        <time>2018-12-27T12:46:02Z</time>
      </trkpt>
      <trkpt lat="42.80321" lon="-0.2748">
        <ele>2310.8</ele>
        <time>2018-12-27T12:46:04Z</time>
      </trkpt>
      <trkpt lat="42.80329" lon="-0.27478">
        <ele>2306.9</ele>
        <time>2018-12-27T12:46:07Z</time>
      </trkpt>
      <trkpt lat="42.8034" lon="-0.27474">
        <ele>2301.3</ele>
        <time>2018-12-27T12:46:10Z</time>
      </trkpt>
      <trkpt lat="42.8035" lon="-0.27471">
        <ele>2296.7</ele>
        <time>2018-12-27T12:46:12Z</time>
      </trkpt>
      <trkpt lat="42.80361" lon="-0.27473">
        <ele>2292.8</ele>
        <time>2018-12-27T12:46:15Z</time>
      </trkpt>
      <trkpt lat="42.80364" lon="-0.27472">
        <ele>2291.2</ele>
        <time>2018-12-27T12:46:16Z</time>
      </trkpt>
      <trkpt lat="42.80373" lon="-0.27468">
        <ele>2286.1</ele>
        <time>2018-12-27T12:46:19Z</time>
      </trkpt>
      <trkpt lat="42.80376" lon="-0.27467">
        <ele>2285.1</ele>
        <time>2018-12-27T12:46:19Z</time>
      </trkpt>
      <trkpt lat="42.80394" lon="-0.27464">
        <ele>2280.6</ele>
        <time>2018-12-27T12:46:24Z</time>
      </trkpt>
      <trkpt lat="42.80402" lon="-0.2746">
        <ele>2278</ele>
        <time>2018-12-27T12:46:26Z</time>
      </trkpt>
      <trkpt lat="42.80417" lon="-0.27456">
        <ele>2274</ele>
        <time>2018-12-27T12:46:31Z</time>
      </trkpt>
      <trkpt lat="42.80432" lon="-0.27451">
        <ele>2270.3</ele>
        <time>2018-12-27T12:46:35Z</time>
      </trkpt>
      <trkpt lat="42.80441" lon="-0.27451">
        <ele>2268.5</ele>
        <time>2018-12-27T12:46:37Z</time>
      </trkpt>
      <trkpt lat="42.80452" lon="-0.27452">
        <ele>2266.4</ele>
        <time>2018-12-27T12:46:40Z</time>
      </trkpt>
      <trkpt lat="42.80453" lon="-0.27454">
        <ele>2266.3</ele>
        <time>2018-12-27T12:46:41Z</time>
      </trkpt>
      <trkpt lat="42.80456" lon="-0.27455">
        <ele>2265.9</ele>
        <time>2018-12-27T12:46:41Z</time>
      </trkpt>
      <trkpt lat="42.8046" lon="-0.27457">
        <ele>2265.5</ele>
        <time>2018-12-27T12:46:42Z</time>
      </trkpt>
      <trkpt lat="42.80471" lon="-0.2746">
        <ele>2264.3</ele>
        <time>2018-12-27T12:46:45Z</time>
      </trkpt>
      <trkpt lat="42.8048" lon="-0.27458">
        <ele>2261.9</ele>
        <time>2018-12-27T12:46:48Z</time>
      </trkpt>
      <trkpt lat="42.80491" lon="-0.27455">
        <ele>2259.4</ele>
        <time>2018-12-27T12:46:51Z</time>
      </trkpt>
      <trkpt lat="42.80506" lon="-0.27451">
        <ele>2256.2</ele>
        <time>2018-12-27T12:46:55Z</time>
      </trkpt>
      <trkpt lat="42.80524" lon="-0.27446">
        <ele>2252.3</ele>
        <time>2018-12-27T12:47:00Z</time>
      </trkpt>
      <trkpt lat="42.80543" lon="-0.27441">
        <ele>2248.6</ele>
        <time>2018-12-27T12:47:05Z</time>
      </trkpt>
      <trkpt lat="42.8055" lon="-0.27432">
        <ele>2246.2</ele>
        <time>2018-12-27T12:47:08Z</time>
      </trkpt>
      <trkpt lat="42.80551" lon="-0.27432">
        <ele>2245.9</ele>
        <time>2018-12-27T12:47:08Z</time>
      </trkpt>
      <trkpt lat="42.80556" lon="-0.2743">
        <ele>2244.8</ele>
        <time>2018-12-27T12:47:09Z</time>
      </trkpt>
      <trkpt lat="42.80565" lon="-0.2743">
        <ele>2242.7</ele>
        <time>2018-12-27T12:47:12Z</time>
      </trkpt>
      <trkpt lat="42.8057" lon="-0.2743">
        <ele>2241.5</ele>
        <time>2018-12-27T12:47:13Z</time>
      </trkpt>
      <trkpt lat="42.80573" lon="-0.27427">
        <ele>2240.7</ele>
        <time>2018-12-27T12:47:14Z</time>
      </trkpt>
      <trkpt lat="42.80577" lon="-0.27427">
        <ele>2239.9</ele>
        <time>2018-12-27T12:47:15Z</time>
      </trkpt>
      <trkpt lat="42.8058" lon="-0.27428">
        <ele>2239.4</ele>
        <time>2018-12-27T12:47:16Z</time>
      </trkpt>
      <trkpt lat="42.80591" lon="-0.27429">
        <ele>2236.9</ele>
        <time>2018-12-27T12:47:19Z</time>
      </trkpt>
      <trkpt lat="42.80604" lon="-0.27426">
        <ele>2233.8</ele>
        <time>2018-12-27T12:47:22Z</time>
      </trkpt>
      <trkpt lat="42.8062" lon="-0.27428">
        <ele>2230.1</ele>
        <time>2018-12-27T12:47:27Z</time>
      </trkpt>
      <trkpt lat="42.80627" lon="-0.27436">
        <ele>2228.4</ele>
        <time>2018-12-27T12:47:29Z</time>
      </trkpt>
      <trkpt lat="42.8063" lon="-0.27444">
        <ele>2227.3</ele>
        <time>2018-12-27T12:47:31Z</time>
      </trkpt>
      <trkpt lat="42.80634" lon="-0.27449">
        <ele>2226</ele>
        <time>2018-12-27T12:47:32Z</time>
      </trkpt>
      <trkpt lat="42.80632" lon="-0.27454">
        <ele>2226.5</ele>
        <time>2018-12-27T12:47:34Z</time>
      </trkpt>
      <trkpt lat="42.80632" lon="-0.27454">
        <ele>2226.4</ele>
        <time>2018-12-27T12:47:34Z</time>
      </trkpt>
      <trkpt lat="42.80632" lon="-0.27455">
        <ele>2226.3</ele>
        <time>2018-12-27T12:47:34Z</time>
      </trkpt>
      <trkpt lat="42.80633" lon="-0.27456">
        <ele>2226.2</ele>
        <time>2018-12-27T12:47:34Z</time>
      </trkpt>
      <trkpt lat="42.80634" lon="-0.27459">
        <ele>2225.8</ele>
        <time>2018-12-27T12:47:35Z</time>
      </trkpt>
      <trkpt lat="42.80635" lon="-0.27459">
        <ele>2225.6</ele>
        <time>2018-12-27T12:47:35Z</time>
      </trkpt>
      <trkpt lat="42.8064" lon="-0.27456">
        <ele>2224.2</ele>
        <time>2018-12-27T12:47:37Z</time>
      </trkpt>
      <trkpt lat="42.80643" lon="-0.27461">
        <ele>2223.7</ele>
        <time>2018-12-27T12:47:38Z</time>
      </trkpt>
      <trkpt lat="42.80646" lon="-0.27463">
        <ele>2223.3</ele>
        <time>2018-12-27T12:47:39Z</time>
      </trkpt>
      <trkpt lat="42.80651" lon="-0.27461">
        <ele>2221.6</ele>
        <time>2018-12-27T12:47:40Z</time>
      </trkpt>
      <trkpt lat="42.80659" lon="-0.27461">
        <ele>2219.6</ele>
        <time>2018-12-27T12:47:42Z</time>
      </trkpt>
      <trkpt lat="42.80667" lon="-0.27457">
        <ele>2217.2</ele>
        <time>2018-12-27T12:47:45Z</time>
      </trkpt>
      <trkpt lat="42.80669" lon="-0.27456">
        <ele>2216.9</ele>
        <time>2018-12-27T12:47:45Z</time>
      </trkpt>
      <trkpt lat="42.8067" lon="-0.27456">
        <ele>2216.4</ele>
        <time>2018-12-27T12:47:45Z</time>
      </trkpt>
      <trkpt lat="42.80675" lon="-0.27459">
        <ele>2214.8</ele>
        <time>2018-12-27T12:47:47Z</time>
      </trkpt>
      <trkpt lat="42.80677" lon="-0.27471">
        <ele>2216.1</ele>
        <time>2018-12-27T12:47:49Z</time>
      </trkpt>
      <trkpt lat="42.80682" lon="-0.27479">
        <ele>2215.9</ele>
        <time>2018-12-27T12:47:51Z</time>
      </trkpt>
      <trkpt lat="42.80684" lon="-0.27481">
        <ele>2215.8</ele>
        <time>2018-12-27T12:47:52Z</time>
      </trkpt>
      <trkpt lat="42.80696" lon="-0.27494">
        <ele>2213.9</ele>
        <time>2018-12-27T12:47:56Z</time>
      </trkpt>
      <trkpt lat="42.8071" lon="-0.27511">
        <ele>2212.1</ele>
        <time>2018-12-27T12:48:01Z</time>
      </trkpt>
      <trkpt lat="42.80713" lon="-0.27524">
        <ele>2212.8</ele>
        <time>2018-12-27T12:48:04Z</time>
      </trkpt>
      <trkpt lat="42.80715" lon="-0.27538">
        <ele>2213.9</ele>
        <time>2018-12-27T12:48:07Z</time>
      </trkpt>
      <trkpt lat="42.80715" lon="-0.27546">
        <ele>2215.8</ele>
        <time>2018-12-27T12:48:08Z</time>
      </trkpt>
      <trkpt lat="42.80715" lon="-0.27553">
        <ele>2217.8</ele>
        <time>2018-12-27T12:48:10Z</time>
      </trkpt>
      <trkpt lat="42.80713" lon="-0.27556">
        <ele>2219.4</ele>
        <time>2018-12-27T12:48:10Z</time>
      </trkpt>
      <trkpt lat="42.80715" lon="-0.27558">
        <ele>2219.4</ele>
        <time>2018-12-27T12:48:11Z</time>
      </trkpt>
      <trkpt lat="42.80718" lon="-0.2756">
        <ele>2219</ele>
        <time>2018-12-27T12:48:12Z</time>
      </trkpt>
      <trkpt lat="42.80726" lon="-0.2757">
        <ele>2219.2</ele>
        <time>2018-12-27T12:48:15Z</time>
      </trkpt>
      <trkpt lat="42.80733" lon="-0.27579">
        <ele>2219.5</ele>
        <time>2018-12-27T12:48:18Z</time>
      </trkpt>
      <trkpt lat="42.80744" lon="-0.27587">
        <ele>2217.7</ele>
        <time>2018-12-27T12:48:21Z</time>
      </trkpt>
      <trkpt lat="42.80755" lon="-0.27597">
        <ele>2215.8</ele>
        <time>2018-12-27T12:48:24Z</time>
      </trkpt>
      <trkpt lat="42.80761" lon="-0.2761">
        <ele>2215.9</ele>
        <time>2018-12-27T12:48:27Z</time>
      </trkpt>
      <trkpt lat="42.80769" lon="-0.27626">
        <ele>2215.6</ele>
        <time>2018-12-27T12:48:31Z</time>
      </trkpt>
      <trkpt lat="42.80775" lon="-0.27636">
        <ele>2214.2</ele>
        <time>2018-12-27T12:48:34Z</time>
      </trkpt>
      <trkpt lat="42.80783" lon="-0.2765">
        <ele>2212.2</ele>
        <time>2018-12-27T12:48:37Z</time>
      </trkpt>
      <trkpt lat="42.80791" lon="-0.27662">
        <ele>2210.2</ele>
        <time>2018-12-27T12:48:40Z</time>
      </trkpt>
      <trkpt lat="42.80796" lon="-0.27669">
        <ele>2209.9</ele>
        <time>2018-12-27T12:48:42Z</time>
      </trkpt>
      <trkpt lat="42.80797" lon="-0.27673">
        <ele>2209.9</ele>
        <time>2018-12-27T12:48:43Z</time>
      </trkpt>
      <trkpt lat="42.80803" lon="-0.27685">
        <ele>2209.9</ele>
        <time>2018-12-27T12:48:46Z</time>
      </trkpt>
      <trkpt lat="42.80809" lon="-0.27694">
        <ele>2209.4</ele>
        <time>2018-12-27T12:48:48Z</time>
      </trkpt>
      <trkpt lat="42.80819" lon="-0.27706">
        <ele>2208</ele>
        <time>2018-12-27T12:48:52Z</time>
      </trkpt>
      <trkpt lat="42.80833" lon="-0.27719">
        <ele>2205.6</ele>
        <time>2018-12-27T12:48:56Z</time>
      </trkpt>
      <trkpt lat="42.80838" lon="-0.27731">
        <ele>2205.7</ele>
        <time>2018-12-27T12:48:59Z</time>
      </trkpt>
      <trkpt lat="42.80838" lon="-0.27749">
        <ele>2208.4</ele>
        <time>2018-12-27T12:49:03Z</time>
      </trkpt>
      <trkpt lat="42.80839" lon="-0.27759">
        <ele>2209.4</ele>
        <time>2018-12-27T12:49:04Z</time>
      </trkpt>
      <trkpt lat="42.80841" lon="-0.27761">
        <ele>2208.9</ele>
        <time>2018-12-27T12:49:05Z</time>
      </trkpt>
      <trkpt lat="42.8085" lon="-0.27776">
        <ele>2207.5</ele>
        <time>2018-12-27T12:49:09Z</time>
      </trkpt>
      <trkpt lat="42.80852" lon="-0.27782">
        <ele>2207.6</ele>
        <time>2018-12-27T12:49:10Z</time>
      </trkpt>
      <trkpt lat="42.80855" lon="-0.27786">
        <ele>2206.6</ele>
        <time>2018-12-27T12:49:11Z</time>
      </trkpt>
      <trkpt lat="42.80861" lon="-0.278">
        <ele>2206.3</ele>
        <time>2018-12-27T12:49:15Z</time>
      </trkpt>
      <trkpt lat="42.80862" lon="-0.27804">
        <ele>2206.5</ele>
        <time>2018-12-27T12:49:15Z</time>
      </trkpt>
      <trkpt lat="42.80865" lon="-0.27806">
        <ele>2205.8</ele>
        <time>2018-12-27T12:49:16Z</time>
      </trkpt>
      <trkpt lat="42.8087" lon="-0.27803">
        <ele>2203.1</ele>
        <time>2018-12-27T12:49:18Z</time>
      </trkpt>
      <trkpt lat="42.80873" lon="-0.27802">
        <ele>2202</ele>
        <time>2018-12-27T12:49:18Z</time>
      </trkpt>
      <trkpt lat="42.80874" lon="-0.27805">
        <ele>2201.7</ele>
        <time>2018-12-27T12:49:19Z</time>
      </trkpt>
      <trkpt lat="42.80876" lon="-0.27812">
        <ele>2202.1</ele>
        <time>2018-12-27T12:49:21Z</time>
      </trkpt>
      <trkpt lat="42.80882" lon="-0.27819">
        <ele>2200.6</ele>
        <time>2018-12-27T12:49:22Z</time>
      </trkpt>
      <trkpt lat="42.80886" lon="-0.27823">
        <ele>2199.1</ele>
        <time>2018-12-27T12:49:24Z</time>
      </trkpt>
      <trkpt lat="42.80888" lon="-0.27825">
        <ele>2198.4</ele>
        <time>2018-12-27T12:49:25Z</time>
      </trkpt>
      <trkpt lat="42.80896" lon="-0.27836">
        <ele>2196.1</ele>
        <time>2018-12-27T12:49:28Z</time>
      </trkpt>
      <trkpt lat="42.80898" lon="-0.27838">
        <ele>2195.3</ele>
        <time>2018-12-27T12:49:28Z</time>
      </trkpt>
      <trkpt lat="42.80905" lon="-0.27845">
        <ele>2192.1</ele>
        <time>2018-12-27T12:49:31Z</time>
      </trkpt>
      <trkpt lat="42.80912" lon="-0.27855">
        <ele>2189.7</ele>
        <time>2018-12-27T12:49:33Z</time>
      </trkpt>
      <trkpt lat="42.80921" lon="-0.27862">
        <ele>2185.3</ele>
        <time>2018-12-27T12:49:36Z</time>
      </trkpt>
      <trkpt lat="42.80934" lon="-0.27872">
        <ele>2178.8</ele>
        <time>2018-12-27T12:49:40Z</time>
      </trkpt>
      <trkpt lat="42.80943" lon="-0.27882">
        <ele>2173.7</ele>
        <time>2018-12-27T12:49:43Z</time>
      </trkpt>
      <trkpt lat="42.80947" lon="-0.2789">
        <ele>2171.7</ele>
        <time>2018-12-27T12:49:45Z</time>
      </trkpt>
      <trkpt lat="42.80952" lon="-0.27893">
        <ele>2169.4</ele>
        <time>2018-12-27T12:49:46Z</time>
      </trkpt>
      <trkpt lat="42.80966" lon="-0.27908">
        <ele>2164.4</ele>
        <time>2018-12-27T12:49:51Z</time>
      </trkpt>
      <trkpt lat="42.80977" lon="-0.27924">
        <ele>2162.5</ele>
        <time>2018-12-27T12:49:55Z</time>
      </trkpt>
      <trkpt lat="42.80984" lon="-0.27937">
        <ele>2161</ele>
        <time>2018-12-27T12:49:59Z</time>
      </trkpt>
      <trkpt lat="42.80993" lon="-0.27947">
        <ele>2158.4</ele>
        <time>2018-12-27T12:50:02Z</time>
      </trkpt>
      <trkpt lat="42.81001" lon="-0.27949">
        <ele>2156.1</ele>
        <time>2018-12-27T12:50:04Z</time>
      </trkpt>
      <trkpt lat="42.81003" lon="-0.27952">
        <ele>2155.4</ele>
        <time>2018-12-27T12:50:05Z</time>
      </trkpt>
      <trkpt lat="42.81013" lon="-0.27967">
        <ele>2152.5</ele>
        <time>2018-12-27T12:50:09Z</time>
      </trkpt>
      <trkpt lat="42.81017" lon="-0.27984">
        <ele>2151.8</ele>
        <time>2018-12-27T12:50:12Z</time>
      </trkpt>
      <trkpt lat="42.81022" lon="-0.28002">
        <ele>2150.7</ele>
        <time>2018-12-27T12:50:16Z</time>
      </trkpt>
      <trkpt lat="42.81028" lon="-0.28015">
        <ele>2149</ele>
        <time>2018-12-27T12:50:19Z</time>
      </trkpt>
      <trkpt lat="42.81036" lon="-0.28023">
        <ele>2146.4</ele>
        <time>2018-12-27T12:50:22Z</time>
      </trkpt>
      <trkpt lat="42.81046" lon="-0.2803">
        <ele>2143.9</ele>
        <time>2018-12-27T12:50:25Z</time>
      </trkpt>
      <trkpt lat="42.81049" lon="-0.28041">
        <ele>2143.5</ele>
        <time>2018-12-27T12:50:27Z</time>
      </trkpt>
      <trkpt lat="42.8105" lon="-0.28045">
        <ele>2143.3</ele>
        <time>2018-12-27T12:50:28Z</time>
      </trkpt>
      <trkpt lat="42.8105" lon="-0.28063">
        <ele>2143.6</ele>
        <time>2018-12-27T12:50:31Z</time>
      </trkpt>
      <trkpt lat="42.81051" lon="-0.28072">
        <ele>2143.6</ele>
        <time>2018-12-27T12:50:33Z</time>
      </trkpt>
      <trkpt lat="42.81051" lon="-0.28074">
        <ele>2143.6</ele>
        <time>2018-12-27T12:50:34Z</time>
      </trkpt>
      <trkpt lat="42.81056" lon="-0.2809">
        <ele>2142.7</ele>
        <time>2018-12-27T12:50:37Z</time>
      </trkpt>
      <trkpt lat="42.81057" lon="-0.28093">
        <ele>2142.6</ele>
        <time>2018-12-27T12:50:37Z</time>
      </trkpt>
      <trkpt lat="42.8106" lon="-0.28107">
        <ele>2142.3</ele>
        <time>2018-12-27T12:50:40Z</time>
      </trkpt>
      <trkpt lat="42.81064" lon="-0.2812">
        <ele>2141.2</ele>
        <time>2018-12-27T12:50:43Z</time>
      </trkpt>
      <trkpt lat="42.81073" lon="-0.28136">
        <ele>2139.4</ele>
        <time>2018-12-27T12:50:47Z</time>
      </trkpt>
      <trkpt lat="42.81083" lon="-0.28158">
        <ele>2137.1</ele>
        <time>2018-12-27T12:50:52Z</time>
      </trkpt>
      <trkpt lat="42.81091" lon="-0.28178">
        <ele>2135.8</ele>
        <time>2018-12-27T12:50:56Z</time>
      </trkpt>
      <trkpt lat="42.81099" lon="-0.28192">
        <ele>2134.2</ele>
        <time>2018-12-27T12:51:00Z</time>
      </trkpt>
      <trkpt lat="42.81104" lon="-0.28206">
        <ele>2133.6</ele>
        <time>2018-12-27T12:51:03Z</time>
      </trkpt>
      <trkpt lat="42.81109" lon="-0.28216">
        <ele>2132.3</ele>
        <time>2018-12-27T12:51:06Z</time>
      </trkpt>
      <trkpt lat="42.81112" lon="-0.28221">
        <ele>2131.6</ele>
        <time>2018-12-27T12:51:07Z</time>
      </trkpt>
      <trkpt lat="42.81116" lon="-0.2823">
        <ele>2130.1</ele>
        <time>2018-12-27T12:51:09Z</time>
      </trkpt>
      <trkpt lat="42.81119" lon="-0.28231">
        <ele>2129.6</ele>
        <time>2018-12-27T12:51:10Z</time>
      </trkpt>
      <trkpt lat="42.81129" lon="-0.28236">
        <ele>2127.4</ele>
        <time>2018-12-27T12:51:12Z</time>
      </trkpt>
      <trkpt lat="42.81139" lon="-0.28239">
        <ele>2125.7</ele>
        <time>2018-12-27T12:51:15Z</time>
      </trkpt>
      <trkpt lat="42.81141" lon="-0.2824">
        <ele>2125.2</ele>
        <time>2018-12-27T12:51:16Z</time>
      </trkpt>
      <trkpt lat="42.81147" lon="-0.28239">
        <ele>2124.1</ele>
        <time>2018-12-27T12:51:17Z</time>
      </trkpt>
      <trkpt lat="42.81152" lon="-0.28243">
        <ele>2123.2</ele>
        <time>2018-12-27T12:51:19Z</time>
      </trkpt>
      <trkpt lat="42.81158" lon="-0.2825">
        <ele>2121.7</ele>
        <time>2018-12-27T12:51:21Z</time>
      </trkpt>
      <trkpt lat="42.81166" lon="-0.28264">
        <ele>2119.8</ele>
        <time>2018-12-27T12:51:24Z</time>
      </trkpt>
      <trkpt lat="42.81176" lon="-0.28271">
        <ele>2117.7</ele>
        <time>2018-12-27T12:51:27Z</time>
      </trkpt>
      <trkpt lat="42.81177" lon="-0.28271">
        <ele>2117.5</ele>
        <time>2018-12-27T12:51:28Z</time>
      </trkpt>
      <trkpt lat="42.81177" lon="-0.28271">
        <ele>2117.6</ele>
        <time>2018-12-27T12:51:28Z</time>
      </trkpt>
      <trkpt lat="42.81179" lon="-0.28274">
        <ele>2117</ele>
        <time>2018-12-27T12:51:29Z</time>
      </trkpt>
      <trkpt lat="42.8118" lon="-0.28275">
        <ele>2116.8</ele>
        <time>2018-12-27T12:51:29Z</time>
      </trkpt>
      <trkpt lat="42.81184" lon="-0.28283">
        <ele>2115.8</ele>
        <time>2018-12-27T12:51:31Z</time>
      </trkpt>
      <trkpt lat="42.81187" lon="-0.28289">
        <ele>2115.1</ele>
        <time>2018-12-27T12:51:32Z</time>
      </trkpt>
      <trkpt lat="42.81193" lon="-0.28307">
        <ele>2113.4</ele>
        <time>2018-12-27T12:51:36Z</time>
      </trkpt>
      <trkpt lat="42.81194" lon="-0.2831">
        <ele>2113</ele>
        <time>2018-12-27T12:51:37Z</time>
      </trkpt>
      <trkpt lat="42.81198" lon="-0.2831">
        <ele>2112.4</ele>
        <time>2018-12-27T12:51:38Z</time>
      </trkpt>
      <trkpt lat="42.81202" lon="-0.28313">
        <ele>2111.7</ele>
        <time>2018-12-27T12:51:39Z</time>
      </trkpt>
      <trkpt lat="42.81201" lon="-0.28313">
        <ele>2111.7</ele>
        <time>2018-12-27T12:51:39Z</time>
      </trkpt>
      <trkpt lat="42.81199" lon="-0.28315">
        <ele>2112</ele>
        <time>2018-12-27T12:51:40Z</time>
      </trkpt>
      <trkpt lat="42.81199" lon="-0.28318">
        <ele>2111.9</ele>
        <time>2018-12-27T12:51:40Z</time>
      </trkpt>
      <trkpt lat="42.81201" lon="-0.28323">
        <ele>2111.4</ele>
        <time>2018-12-27T12:51:41Z</time>
      </trkpt>
      <trkpt lat="42.81207" lon="-0.28337">
        <ele>2110.1</ele>
        <time>2018-12-27T12:51:44Z</time>
      </trkpt>
      <trkpt lat="42.81208" lon="-0.28343">
        <ele>2109.9</ele>
        <time>2018-12-27T12:51:46Z</time>
      </trkpt>
      <trkpt lat="42.81207" lon="-0.28355">
        <ele>2109.6</ele>
        <time>2018-12-27T12:51:48Z</time>
      </trkpt>
      <trkpt lat="42.81205" lon="-0.28367">
        <ele>2109.7</ele>
        <time>2018-12-27T12:51:50Z</time>
      </trkpt>
      <trkpt lat="42.81207" lon="-0.28375">
        <ele>2109.3</ele>
        <time>2018-12-27T12:51:52Z</time>
      </trkpt>
      <trkpt lat="42.81206" lon="-0.28378">
        <ele>2109.4</ele>
        <time>2018-12-27T12:51:53Z</time>
      </trkpt>
      <trkpt lat="42.8121" lon="-0.28382">
        <ele>2109.7</ele>
        <time>2018-12-27T12:51:54Z</time>
      </trkpt>
      <trkpt lat="42.81211" lon="-0.28381">
        <ele>2109.9</ele>
        <time>2018-12-27T12:51:54Z</time>
      </trkpt>
      <trkpt lat="42.81214" lon="-0.28382">
        <ele>2111.1</ele>
        <time>2018-12-27T12:51:55Z</time>
      </trkpt>
      <trkpt lat="42.81217" lon="-0.28385">
        <ele>2111.7</ele>
        <time>2018-12-27T12:51:56Z</time>
      </trkpt>
      <trkpt lat="42.81217" lon="-0.28389">
        <ele>2112.1</ele>
        <time>2018-12-27T12:51:57Z</time>
      </trkpt>
      <trkpt lat="42.81218" lon="-0.28392">
        <ele>2112.4</ele>
        <time>2018-12-27T12:51:57Z</time>
      </trkpt>
      <trkpt lat="42.81222" lon="-0.28393">
        <ele>2113.6</ele>
        <time>2018-12-27T12:51:58Z</time>
      </trkpt>
      <trkpt lat="42.81222" lon="-0.28396">
        <ele>2113.7</ele>
        <time>2018-12-27T12:51:59Z</time>
      </trkpt>
      <trkpt lat="42.81221" lon="-0.284">
        <ele>2113.3</ele>
        <time>2018-12-27T12:52:00Z</time>
      </trkpt>
      <trkpt lat="42.8122" lon="-0.28404">
        <ele>2113.4</ele>
        <time>2018-12-27T12:52:01Z</time>
      </trkpt>
      <trkpt lat="42.81221" lon="-0.28405">
        <ele>2113.5</ele>
        <time>2018-12-27T12:52:01Z</time>
      </trkpt>
      <trkpt lat="42.81224" lon="-0.28406">
        <ele>2114.5</ele>
        <time>2018-12-27T12:52:02Z</time>
      </trkpt>
      <trkpt lat="42.81225" lon="-0.28406">
        <ele>2114.8</ele>
        <time>2018-12-27T12:52:02Z</time>
      </trkpt>
      <trkpt lat="42.81226" lon="-0.28408">
        <ele>2115.1</ele>
        <time>2018-12-27T12:52:03Z</time>
      </trkpt>
      <trkpt lat="42.81226" lon="-0.28409">
        <ele>2115.1</ele>
        <time>2018-12-27T12:52:03Z</time>
      </trkpt>
      <trkpt lat="42.81226" lon="-0.28409">
        <ele>2115.3</ele>
        <time>2018-12-27T12:52:03Z</time>
      </trkpt>
      <trkpt lat="42.81229" lon="-0.28414">
        <ele>2116.3</ele>
        <time>2018-12-27T12:52:04Z</time>
      </trkpt>
      <trkpt lat="42.8123" lon="-0.28418">
        <ele>2116.8</ele>
        <time>2018-12-27T12:52:05Z</time>
      </trkpt>
      <trkpt lat="42.81232" lon="-0.28421">
        <ele>2117.2</ele>
        <time>2018-12-27T12:52:05Z</time>
      </trkpt>
      <trkpt lat="42.81233" lon="-0.28422">
        <ele>2117.6</ele>
        <time>2018-12-27T12:52:06Z</time>
      </trkpt>
      <trkpt lat="42.81237" lon="-0.28419">
        <ele>2118.9</ele>
        <time>2018-12-27T12:52:07Z</time>
      </trkpt>
      <trkpt lat="42.81239" lon="-0.28418">
        <ele>2119.5</ele>
        <time>2018-12-27T12:52:08Z</time>
      </trkpt>
      <trkpt lat="42.81242" lon="-0.28416">
        <ele>2120.4</ele>
        <time>2018-12-27T12:52:09Z</time>
      </trkpt>
      <trkpt lat="42.81243" lon="-0.28415">
        <ele>2120.8</ele>
        <time>2018-12-27T12:52:09Z</time>
      </trkpt>
      <trkpt lat="42.81246" lon="-0.28413">
        <ele>2121.6</ele>
        <time>2018-12-27T12:52:10Z</time>
      </trkpt>
      <trkpt lat="42.81247" lon="-0.28412">
        <ele>2121.6</ele>
        <time>2018-12-27T12:52:10Z</time>
      </trkpt>
      <trkpt lat="42.8125" lon="-0.28408">
        <ele>2122.5</ele>
        <time>2018-12-27T12:52:11Z</time>
      </trkpt>
      <trkpt lat="42.81253" lon="-0.28408">
        <ele>2123.5</ele>
        <time>2018-12-27T12:52:12Z</time>
      </trkpt>
      <trkpt lat="42.81254" lon="-0.2841">
        <ele>2123.7</ele>
        <time>2018-12-27T12:52:13Z</time>
      </trkpt>
      <trkpt lat="42.81255" lon="-0.28407">
        <ele>2123.8</ele>
        <time>2018-12-27T12:52:13Z</time>
      </trkpt>
      <trkpt lat="42.81255" lon="-0.28406">
        <ele>2124</ele>
        <time>2018-12-27T12:52:13Z</time>
      </trkpt>
      <trkpt lat="42.81257" lon="-0.28403">
        <ele>2124.6</ele>
        <time>2018-12-27T12:52:14Z</time>
      </trkpt>
      <trkpt lat="42.8126" lon="-0.284">
        <ele>2125.2</ele>
        <time>2018-12-27T12:52:15Z</time>
      </trkpt>
      <trkpt lat="42.81265" lon="-0.28399">
        <ele>2126.8</ele>
        <time>2018-12-27T12:52:17Z</time>
      </trkpt>
      <trkpt lat="42.81268" lon="-0.28398">
        <ele>2127.7</ele>
        <time>2018-12-27T12:52:17Z</time>
      </trkpt>
      <trkpt lat="42.81271" lon="-0.28398">
        <ele>2128.7</ele>
        <time>2018-12-27T12:52:18Z</time>
      </trkpt>
      <trkpt lat="42.81279" lon="-0.28399">
        <ele>2131.1</ele>
        <time>2018-12-27T12:52:20Z</time>
      </trkpt>
      <trkpt lat="42.81284" lon="-0.28402">
        <ele>2132.5</ele>
        <time>2018-12-27T12:52:22Z</time>
      </trkpt>
      <trkpt lat="42.81287" lon="-0.28402">
        <ele>2133.8</ele>
        <time>2018-12-27T12:52:23Z</time>
      </trkpt>
      <trkpt lat="42.81299" lon="-0.28404">
        <ele>2135.2</ele>
        <time>2018-12-27T12:52:26Z</time>
      </trkpt>
      <trkpt lat="42.81305" lon="-0.2841">
        <ele>2135.5</ele>
        <time>2018-12-27T12:52:28Z</time>
      </trkpt>
      <trkpt lat="42.81306" lon="-0.28412">
        <ele>2135.6</ele>
        <time>2018-12-27T12:52:28Z</time>
      </trkpt>
      <trkpt lat="42.81313" lon="-0.28414">
        <ele>2135.7</ele>
        <time>2018-12-27T12:52:30Z</time>
      </trkpt>
      <trkpt lat="42.81315" lon="-0.28413">
        <ele>2135.7</ele>
        <time>2018-12-27T12:52:31Z</time>
      </trkpt>
      <trkpt lat="42.81322" lon="-0.28418">
        <ele>2135.9</ele>
        <time>2018-12-27T12:52:33Z</time>
      </trkpt>
      <trkpt lat="42.81327" lon="-0.28419">
        <ele>2136.1</ele>
        <time>2018-12-27T12:52:34Z</time>
      </trkpt>
      <trkpt lat="42.81333" lon="-0.28423">
        <ele>2136.1</ele>
        <time>2018-12-27T12:52:36Z</time>
      </trkpt>
      <trkpt lat="42.81335" lon="-0.28424">
        <ele>2136.2</ele>
        <time>2018-12-27T12:52:36Z</time>
      </trkpt>
      <trkpt lat="42.81338" lon="-0.28429">
        <ele>2136.3</ele>
        <time>2018-12-27T12:52:38Z</time>
      </trkpt>
      <trkpt lat="42.81341" lon="-0.28428">
        <ele>2136.3</ele>
        <time>2018-12-27T12:52:38Z</time>
      </trkpt>
      <trkpt lat="42.81345" lon="-0.28423">
        <ele>2136.3</ele>
        <time>2018-12-27T12:52:40Z</time>
      </trkpt>
      <trkpt lat="42.81349" lon="-0.28418">
        <ele>2136.3</ele>
        <time>2018-12-27T12:52:41Z</time>
      </trkpt>
      <trkpt lat="42.81363" lon="-0.28413">
        <ele>2136.5</ele>
        <time>2018-12-27T12:52:45Z</time>
      </trkpt>
      <trkpt lat="42.81372" lon="-0.28413">
        <ele>2136.6</ele>
        <time>2018-12-27T12:52:48Z</time>
      </trkpt>
      <trkpt lat="42.81384" lon="-0.28412">
        <ele>2134.7</ele>
        <time>2018-12-27T12:52:51Z</time>
      </trkpt>
      <trkpt lat="42.81396" lon="-0.28412">
        <ele>2132.4</ele>
        <time>2018-12-27T12:52:54Z</time>
      </trkpt>
      <trkpt lat="42.81397" lon="-0.28413">
        <ele>2132.2</ele>
        <time>2018-12-27T12:52:54Z</time>
      </trkpt>
      <trkpt lat="42.81404" lon="-0.28413">
        <ele>2130.8</ele>
        <time>2018-12-27T12:52:56Z</time>
      </trkpt>
      <trkpt lat="42.8141" lon="-0.28408">
        <ele>2129.8</ele>
        <time>2018-12-27T12:52:58Z</time>
      </trkpt>
      <trkpt lat="42.81411" lon="-0.28406">
        <ele>2129.6</ele>
        <time>2018-12-27T12:52:59Z</time>
      </trkpt>
      <trkpt lat="42.81411" lon="-0.28404">
        <ele>2129.8</ele>
        <time>2018-12-27T12:52:59Z</time>
      </trkpt>
      <trkpt lat="42.81411" lon="-0.28399">
        <ele>2130</ele>
        <time>2018-12-27T12:53:00Z</time>
      </trkpt>
      <trkpt lat="42.81411" lon="-0.28388">
        <ele>2130.4</ele>
        <time>2018-12-27T12:53:02Z</time>
      </trkpt>
      <trkpt lat="42.81416" lon="-0.28377">
        <ele>2130.1</ele>
        <time>2018-12-27T12:53:05Z</time>
      </trkpt>
      <trkpt lat="42.81424" lon="-0.28367">
        <ele>2129.2</ele>
        <time>2018-12-27T12:53:07Z</time>
      </trkpt>
      <trkpt lat="42.81424" lon="-0.28372">
        <ele>2129</ele>
        <time>2018-12-27T12:53:08Z</time>
      </trkpt>
      <trkpt lat="42.81426" lon="-0.28374">
        <ele>2128.6</ele>
        <time>2018-12-27T12:53:09Z</time>
      </trkpt>
      <trkpt lat="42.81429" lon="-0.28378">
        <ele>2127.9</ele>
        <time>2018-12-27T12:53:10Z</time>
      </trkpt>
      <trkpt lat="42.81435" lon="-0.28382">
        <ele>2126.5</ele>
        <time>2018-12-27T12:53:12Z</time>
      </trkpt>
      <trkpt lat="42.81439" lon="-0.28391">
        <ele>2125.3</ele>
        <time>2018-12-27T12:53:14Z</time>
      </trkpt>
      <trkpt lat="42.81442" lon="-0.28393">
        <ele>2124.6</ele>
        <time>2018-12-27T12:53:15Z</time>
      </trkpt>
      <trkpt lat="42.81449" lon="-0.28404">
        <ele>2122.4</ele>
        <time>2018-12-27T12:53:18Z</time>
      </trkpt>
      <trkpt lat="42.81454" lon="-0.28413">
        <ele>2120.8</ele>
        <time>2018-12-27T12:53:20Z</time>
      </trkpt>
      <trkpt lat="42.81455" lon="-0.28415">
        <ele>2120.5</ele>
        <time>2018-12-27T12:53:20Z</time>
      </trkpt>
      <trkpt lat="42.81459" lon="-0.28425">
        <ele>2118.9</ele>
        <time>2018-12-27T12:53:23Z</time>
      </trkpt>
      <trkpt lat="42.81462" lon="-0.28436">
        <ele>2118.2</ele>
        <time>2018-12-27T12:53:25Z</time>
      </trkpt>
      <trkpt lat="42.81464" lon="-0.28441">
        <ele>2118.2</ele>
        <time>2018-12-27T12:53:26Z</time>
      </trkpt>
      <trkpt lat="42.81467" lon="-0.28442">
        <ele>2118.4</ele>
        <time>2018-12-27T12:53:27Z</time>
      </trkpt>
      <trkpt lat="42.8147" lon="-0.28444">
        <ele>2118.6</ele>
        <time>2018-12-27T12:53:28Z</time>
      </trkpt>
      <trkpt lat="42.81473" lon="-0.28445">
        <ele>2118.7</ele>
        <time>2018-12-27T12:53:28Z</time>
      </trkpt>
      <trkpt lat="42.81475" lon="-0.28448">
        <ele>2118.7</ele>
        <time>2018-12-27T12:53:29Z</time>
      </trkpt>
      <trkpt lat="42.81476" lon="-0.28451">
        <ele>2118.5</ele>
        <time>2018-12-27T12:53:30Z</time>
      </trkpt>
      <trkpt lat="42.81478" lon="-0.2846">
        <ele>2117.9</ele>
        <time>2018-12-27T12:53:32Z</time>
      </trkpt>
      <trkpt lat="42.81482" lon="-0.28469">
        <ele>2116.9</ele>
        <time>2018-12-27T12:53:34Z</time>
      </trkpt>
      <trkpt lat="42.81484" lon="-0.28483">
        <ele>2115</ele>
        <time>2018-12-27T12:53:37Z</time>
      </trkpt>
      <trkpt lat="42.81485" lon="-0.28497">
        <ele>2113.1</ele>
        <time>2018-12-27T12:53:39Z</time>
      </trkpt>
      <trkpt lat="42.81484" lon="-0.28503">
        <ele>2112</ele>
        <time>2018-12-27T12:53:41Z</time>
      </trkpt>
      <trkpt lat="42.81482" lon="-0.28515">
        <ele>2109.8</ele>
        <time>2018-12-27T12:53:43Z</time>
      </trkpt>
      <trkpt lat="42.81484" lon="-0.28534">
        <ele>2107.2</ele>
        <time>2018-12-27T12:53:47Z</time>
      </trkpt>
      <trkpt lat="42.81486" lon="-0.28537">
        <ele>2107</ele>
        <time>2018-12-27T12:53:47Z</time>
      </trkpt>
      <trkpt lat="42.8149" lon="-0.28542">
        <ele>2106.7</ele>
        <time>2018-12-27T12:53:49Z</time>
      </trkpt>
      <trkpt lat="42.81494" lon="-0.28547">
        <ele>2106.2</ele>
        <time>2018-12-27T12:53:50Z</time>
      </trkpt>
      <trkpt lat="42.81496" lon="-0.28547">
        <ele>2106.4</ele>
        <time>2018-12-27T12:53:51Z</time>
      </trkpt>
      <trkpt lat="42.81501" lon="-0.28553">
        <ele>2105.6</ele>
        <time>2018-12-27T12:53:53Z</time>
      </trkpt>
      <trkpt lat="42.81502" lon="-0.28554">
        <ele>2105.6</ele>
        <time>2018-12-27T12:53:53Z</time>
      </trkpt>
      <trkpt lat="42.81505" lon="-0.28556">
        <ele>2105.2</ele>
        <time>2018-12-27T12:53:54Z</time>
      </trkpt>
      <trkpt lat="42.81505" lon="-0.28558">
        <ele>2104.9</ele>
        <time>2018-12-27T12:53:54Z</time>
      </trkpt>
      <trkpt lat="42.81505" lon="-0.28559">
        <ele>2104.6</ele>
        <time>2018-12-27T12:53:54Z</time>
      </trkpt>
      <trkpt lat="42.81507" lon="-0.28564">
        <ele>2103.5</ele>
        <time>2018-12-27T12:53:55Z</time>
      </trkpt>
      <trkpt lat="42.81508" lon="-0.28565">
        <ele>2103.3</ele>
        <time>2018-12-27T12:53:56Z</time>
      </trkpt>
      <trkpt lat="42.81511" lon="-0.28567">
        <ele>2103.2</ele>
        <time>2018-12-27T12:53:57Z</time>
      </trkpt>
      <trkpt lat="42.81513" lon="-0.28568">
        <ele>2103.2</ele>
        <time>2018-12-27T12:53:57Z</time>
      </trkpt>
      <trkpt lat="42.81513" lon="-0.2857">
        <ele>2102.5</ele>
        <time>2018-12-27T12:53:58Z</time>
      </trkpt>
      <trkpt lat="42.81516" lon="-0.28574">
        <ele>2101.9</ele>
        <time>2018-12-27T12:53:59Z</time>
      </trkpt>
      <trkpt lat="42.81518" lon="-0.28576">
        <ele>2101.8</ele>
        <time>2018-12-27T12:53:59Z</time>
      </trkpt>
      <trkpt lat="42.81519" lon="-0.28578">
        <ele>2101.2</ele>
        <time>2018-12-27T12:54:00Z</time>
      </trkpt>
      <trkpt lat="42.81522" lon="-0.28581">
        <ele>2100.8</ele>
        <time>2018-12-27T12:54:01Z</time>
      </trkpt>
      <trkpt lat="42.81523" lon="-0.28582">
        <ele>2100.7</ele>
        <time>2018-12-27T12:54:01Z</time>
      </trkpt>
      <trkpt lat="42.81523" lon="-0.28584">
        <ele>2100.3</ele>
        <time>2018-12-27T12:54:02Z</time>
      </trkpt>
      <trkpt lat="42.81525" lon="-0.28586">
        <ele>2100</ele>
        <time>2018-12-27T12:54:02Z</time>
      </trkpt>
      <trkpt lat="42.81528" lon="-0.28587">
        <ele>2100.2</ele>
        <time>2018-12-27T12:54:03Z</time>
      </trkpt>
      <trkpt lat="42.81529" lon="-0.28587">
        <ele>2100.2</ele>
        <time>2018-12-27T12:54:03Z</time>
      </trkpt>
      <trkpt lat="42.81533" lon="-0.28586">
        <ele>2101.1</ele>
        <time>2018-12-27T12:54:04Z</time>
      </trkpt>
      <trkpt lat="42.81534" lon="-0.28582">
        <ele>2102.3</ele>
        <time>2018-12-27T12:54:05Z</time>
      </trkpt>
      <trkpt lat="42.81535" lon="-0.2858">
        <ele>2102.9</ele>
        <time>2018-12-27T12:54:06Z</time>
      </trkpt>
      <trkpt lat="42.81538" lon="-0.2858">
        <ele>2103.5</ele>
        <time>2018-12-27T12:54:07Z</time>
      </trkpt>
      <trkpt lat="42.81541" lon="-0.28585">
        <ele>2102.4</ele>
        <time>2018-12-27T12:54:08Z</time>
      </trkpt>
      <trkpt lat="42.81543" lon="-0.28594">
        <ele>2100.7</ele>
        <time>2018-12-27T12:54:10Z</time>
      </trkpt>
      <trkpt lat="42.81544" lon="-0.28602">
        <ele>2098.5</ele>
        <time>2018-12-27T12:54:11Z</time>
      </trkpt>
      <trkpt lat="42.81544" lon="-0.28608">
        <ele>2096.9</ele>
        <time>2018-12-27T12:54:12Z</time>
      </trkpt>
      <trkpt lat="42.81542" lon="-0.28611">
        <ele>2095.5</ele>
        <time>2018-12-27T12:54:13Z</time>
      </trkpt>
      <trkpt lat="42.81542" lon="-0.28611">
        <ele>2095.3</ele>
        <time>2018-12-27T12:54:13Z</time>
      </trkpt>
      <trkpt lat="42.81543" lon="-0.28613">
        <ele>2095.1</ele>
        <time>2018-12-27T12:54:14Z</time>
      </trkpt>
      <trkpt lat="42.81547" lon="-0.28618">
        <ele>2095.4</ele>
        <time>2018-12-27T12:54:15Z</time>
      </trkpt>
      <trkpt lat="42.8155" lon="-0.28622">
        <ele>2095.4</ele>
        <time>2018-12-27T12:54:16Z</time>
      </trkpt>
      <trkpt lat="42.81553" lon="-0.28625">
        <ele>2095.7</ele>
        <time>2018-12-27T12:54:17Z</time>
      </trkpt>
      <trkpt lat="42.81554" lon="-0.28626">
        <ele>2095.8</ele>
        <time>2018-12-27T12:54:17Z</time>
      </trkpt>
      <trkpt lat="42.81556" lon="-0.28632">
        <ele>2095.6</ele>
        <time>2018-12-27T12:54:19Z</time>
      </trkpt>
      <trkpt lat="42.81561" lon="-0.28634">
        <ele>2097.2</ele>
        <time>2018-12-27T12:54:20Z</time>
      </trkpt>
      <trkpt lat="42.81564" lon="-0.28628">
        <ele>2099.6</ele>
        <time>2018-12-27T12:54:22Z</time>
      </trkpt>
      <trkpt lat="42.81569" lon="-0.28627">
        <ele>2101.7</ele>
        <time>2018-12-27T12:54:23Z</time>
      </trkpt>
      <trkpt lat="42.81572" lon="-0.28629">
        <ele>2102.7</ele>
        <time>2018-12-27T12:54:24Z</time>
      </trkpt>
      <trkpt lat="42.81577" lon="-0.28629">
        <ele>2104.8</ele>
        <time>2018-12-27T12:54:25Z</time>
      </trkpt>
      <trkpt lat="42.8158" lon="-0.2863">
        <ele>2105.8</ele>
        <time>2018-12-27T12:54:26Z</time>
      </trkpt>
      <trkpt lat="42.81587" lon="-0.28634">
        <ele>2108</ele>
        <time>2018-12-27T12:54:28Z</time>
      </trkpt>
      <trkpt lat="42.8159" lon="-0.28633">
        <ele>2109.2</ele>
        <time>2018-12-27T12:54:29Z</time>
      </trkpt>
      <trkpt lat="42.81591" lon="-0.28633">
        <ele>2109.4</ele>
        <time>2018-12-27T12:54:29Z</time>
      </trkpt>
      <trkpt lat="42.81595" lon="-0.28637">
        <ele>2110.3</ele>
        <time>2018-12-27T12:54:30Z</time>
      </trkpt>
      <trkpt lat="42.81595" lon="-0.28638">
        <ele>2110.2</ele>
        <time>2018-12-27T12:54:31Z</time>
      </trkpt>
      <trkpt lat="42.81593" lon="-0.28644">
        <ele>2108</ele>
        <time>2018-12-27T12:54:32Z</time>
      </trkpt>
      <trkpt lat="42.81594" lon="-0.28656">
        <ele>2105.8</ele>
        <time>2018-12-27T12:54:34Z</time>
      </trkpt>
      <trkpt lat="42.81598" lon="-0.28668">
        <ele>2105.3</ele>
        <time>2018-12-27T12:54:37Z</time>
      </trkpt>
      <trkpt lat="42.81608" lon="-0.28674">
        <ele>2107.7</ele>
        <time>2018-12-27T12:54:40Z</time>
      </trkpt>
      <trkpt lat="42.81612" lon="-0.28675">
        <ele>2109</ele>
        <time>2018-12-27T12:54:41Z</time>
      </trkpt>
      <trkpt lat="42.81616" lon="-0.2867">
        <ele>2111.5</ele>
        <time>2018-12-27T12:54:42Z</time>
      </trkpt>
      <trkpt lat="42.81617" lon="-0.28669">
        <ele>2111.7</ele>
        <time>2018-12-27T12:54:43Z</time>
      </trkpt>
      <trkpt lat="42.8162" lon="-0.28671">
        <ele>2112.5</ele>
        <time>2018-12-27T12:54:43Z</time>
      </trkpt>
      <trkpt lat="42.81624" lon="-0.28672">
        <ele>2114</ele>
        <time>2018-12-27T12:54:45Z</time>
      </trkpt>
      <trkpt lat="42.81627" lon="-0.28675">
        <ele>2114.5</ele>
        <time>2018-12-27T12:54:46Z</time>
      </trkpt>
      <trkpt lat="42.81629" lon="-0.28679">
        <ele>2114.2</ele>
        <time>2018-12-27T12:54:47Z</time>
      </trkpt>
      <trkpt lat="42.8163" lon="-0.2868">
        <ele>2114.4</ele>
        <time>2018-12-27T12:54:47Z</time>
      </trkpt>
      <trkpt lat="42.81634" lon="-0.28683">
        <ele>2115.1</ele>
        <time>2018-12-27T12:54:48Z</time>
      </trkpt>
      <trkpt lat="42.81637" lon="-0.2869">
        <ele>2115.1</ele>
        <time>2018-12-27T12:54:50Z</time>
      </trkpt>
      <trkpt lat="42.8164" lon="-0.28693">
        <ele>2115.7</ele>
        <time>2018-12-27T12:54:51Z</time>
      </trkpt>
      <trkpt lat="42.81641" lon="-0.28694">
        <ele>2115.4</ele>
        <time>2018-12-27T12:54:51Z</time>
      </trkpt>
      <trkpt lat="42.81643" lon="-0.28704">
        <ele>2114.3</ele>
        <time>2018-12-27T12:54:53Z</time>
      </trkpt>
      <trkpt lat="42.81645" lon="-0.28706">
        <ele>2114.5</ele>
        <time>2018-12-27T12:54:54Z</time>
      </trkpt>
      <trkpt lat="42.81647" lon="-0.28707">
        <ele>2115.2</ele>
        <time>2018-12-27T12:54:54Z</time>
      </trkpt>
      <trkpt lat="42.8165" lon="-0.28712">
        <ele>2115.8</ele>
        <time>2018-12-27T12:54:56Z</time>
      </trkpt>
      <trkpt lat="42.81655" lon="-0.28716">
        <ele>2117.6</ele>
        <time>2018-12-27T12:54:57Z</time>
      </trkpt>
      <trkpt lat="42.8166" lon="-0.28714">
        <ele>2119.6</ele>
        <time>2018-12-27T12:54:58Z</time>
      </trkpt>
      <trkpt lat="42.81666" lon="-0.28717">
        <ele>2121.9</ele>
        <time>2018-12-27T12:55:00Z</time>
      </trkpt>
      <trkpt lat="42.81668" lon="-0.28717">
        <ele>2122.8</ele>
        <time>2018-12-27T12:55:01Z</time>
      </trkpt>
      <trkpt lat="42.81679" lon="-0.28721">
        <ele>2126.4</ele>
        <time>2018-12-27T12:55:04Z</time>
      </trkpt>
      <trkpt lat="42.81684" lon="-0.28725">
        <ele>2127.8</ele>
        <time>2018-12-27T12:55:05Z</time>
      </trkpt>
      <trkpt lat="42.81685" lon="-0.28727">
        <ele>2128.3</ele>
        <time>2018-12-27T12:55:06Z</time>
      </trkpt>
      <trkpt lat="42.81687" lon="-0.2873">
        <ele>2128.8</ele>
        <time>2018-12-27T12:55:07Z</time>
      </trkpt>
      <trkpt lat="42.81688" lon="-0.28734">
        <ele>2128.5</ele>
        <time>2018-12-27T12:55:08Z</time>
      </trkpt>
      <trkpt lat="42.81691" lon="-0.28749">
        <ele>2127.5</ele>
        <time>2018-12-27T12:55:10Z</time>
      </trkpt>
      <trkpt lat="42.81691" lon="-0.28755">
        <ele>2126.7</ele>
        <time>2018-12-27T12:55:12Z</time>
      </trkpt>
      <trkpt lat="42.81691" lon="-0.28758">
        <ele>2126.5</ele>
        <time>2018-12-27T12:55:12Z</time>
      </trkpt>
      <trkpt lat="42.8169" lon="-0.2876">
        <ele>2125.6</ele>
        <time>2018-12-27T12:55:13Z</time>
      </trkpt>
      <trkpt lat="42.81689" lon="-0.28761">
        <ele>2125.3</ele>
        <time>2018-12-27T12:55:13Z</time>
      </trkpt>
      <trkpt lat="42.81689" lon="-0.28765">
        <ele>2124.6</ele>
        <time>2018-12-27T12:55:14Z</time>
      </trkpt>
      <trkpt lat="42.81684" lon="-0.28753">
        <ele>2124.4</ele>
        <time>2018-12-27T12:55:17Z</time>
      </trkpt>
      <trkpt lat="42.81685" lon="-0.28753">
        <ele>2125.1</ele>
        <time>2018-12-27T12:55:17Z</time>
      </trkpt>
      <trkpt lat="42.81689" lon="-0.28753">
        <ele>2126.4</ele>
        <time>2018-12-27T12:55:18Z</time>
      </trkpt>
      <trkpt lat="42.81692" lon="-0.28756">
        <ele>2126.8</ele>
        <time>2018-12-27T12:55:19Z</time>
      </trkpt>
      <trkpt lat="42.81696" lon="-0.28757">
        <ele>2128.1</ele>
        <time>2018-12-27T12:55:20Z</time>
      </trkpt>
      <trkpt lat="42.8169" lon="-0.28756">
        <ele>2126.3</ele>
        <time>2018-12-27T12:55:22Z</time>
      </trkpt>
      <trkpt lat="42.81689" lon="-0.28752">
        <ele>2126.5</ele>
        <time>2018-12-27T12:55:23Z</time>
      </trkpt>
      <trkpt lat="42.81689" lon="-0.28753">
        <ele>2126.2</ele>
        <time>2018-12-27T12:55:23Z</time>
      </trkpt>
      <trkpt lat="42.8169" lon="-0.28753">
        <ele>2126.7</ele>
        <time>2018-12-27T12:55:23Z</time>
      </trkpt>
      <trkpt lat="42.81695" lon="-0.2875">
        <ele>2128.9</ele>
        <time>2018-12-27T12:55:25Z</time>
      </trkpt>
      <trkpt lat="42.81691" lon="-0.28752">
        <ele>2127.3</ele>
        <time>2018-12-27T12:55:26Z</time>
      </trkpt>
      <trkpt lat="42.81688" lon="-0.28757">
        <ele>2125.2</ele>
        <time>2018-12-27T12:55:27Z</time>
      </trkpt>
      <trkpt lat="42.81698" lon="-0.28765">
        <ele>2127.5</ele>
        <time>2018-12-27T12:55:31Z</time>
      </trkpt>
      <trkpt lat="42.81696" lon="-0.28768">
        <ele>2126.6</ele>
        <time>2018-12-27T12:55:31Z</time>
      </trkpt>
      <trkpt lat="42.81688" lon="-0.28758">
        <ele>2125.3</ele>
        <time>2018-12-27T12:55:34Z</time>
      </trkpt>
      <trkpt lat="42.81687" lon="-0.28759">
        <ele>2124.9</ele>
        <time>2018-12-27T12:55:35Z</time>
      </trkpt>
      <trkpt lat="42.81683" lon="-0.28766">
        <ele>2122.7</ele>
        <time>2018-12-27T12:55:36Z</time>
      </trkpt>
      <trkpt lat="42.81686" lon="-0.2878">
        <ele>2121.7</ele>
        <time>2018-12-27T12:55:39Z</time>
      </trkpt>
      <trkpt lat="42.81686" lon="-0.28784">
        <ele>2121.1</ele>
        <time>2018-12-27T12:55:40Z</time>
      </trkpt>
      <trkpt lat="42.81684" lon="-0.2879">
        <ele>2120</ele>
        <time>2018-12-27T12:55:41Z</time>
      </trkpt>
      <trkpt lat="42.81684" lon="-0.2879">
        <ele>2120</ele>
        <time>2018-12-27T12:55:41Z</time>
      </trkpt>
      <trkpt lat="42.81684" lon="-0.28789">
        <ele>2120.1</ele>
        <time>2018-12-27T12:55:41Z</time>
      </trkpt>
      <trkpt lat="42.81686" lon="-0.28785">
        <ele>2121.1</ele>
        <time>2018-12-27T12:55:42Z</time>
      </trkpt>
      <trkpt lat="42.81692" lon="-0.28785">
        <ele>2123</ele>
        <time>2018-12-27T12:55:44Z</time>
      </trkpt>
      <trkpt lat="42.81694" lon="-0.28785">
        <ele>2123.7</ele>
        <time>2018-12-27T12:55:45Z</time>
      </trkpt>
      <trkpt lat="42.81703" lon="-0.28787">
        <ele>2126.2</ele>
        <time>2018-12-27T12:55:47Z</time>
      </trkpt>
      <trkpt lat="42.81704" lon="-0.28789">
        <ele>2125.9</ele>
        <time>2018-12-27T12:55:47Z</time>
      </trkpt>
      <trkpt lat="42.81706" lon="-0.28794">
        <ele>2125.7</ele>
        <time>2018-12-27T12:55:48Z</time>
      </trkpt>
      <trkpt lat="42.81711" lon="-0.28804">
        <ele>2124.9</ele>
        <time>2018-12-27T12:55:51Z</time>
      </trkpt>
      <trkpt lat="42.81719" lon="-0.28813">
        <ele>2125.5</ele>
        <time>2018-12-27T12:55:54Z</time>
      </trkpt>
      <trkpt lat="42.81729" lon="-0.28813">
        <ele>2129.3</ele>
        <time>2018-12-27T12:55:56Z</time>
      </trkpt>
      <trkpt lat="42.8174" lon="-0.28815">
        <ele>2132.9</ele>
        <time>2018-12-27T12:55:59Z</time>
      </trkpt>
      <trkpt lat="42.81745" lon="-0.28825">
        <ele>2132.8</ele>
        <time>2018-12-27T12:56:02Z</time>
      </trkpt>
      <trkpt lat="42.81746" lon="-0.28829">
        <ele>2132.6</ele>
        <time>2018-12-27T12:56:02Z</time>
      </trkpt>
      <trkpt lat="42.81746" lon="-0.28836">
        <ele>2131.5</ele>
        <time>2018-12-27T12:56:04Z</time>
      </trkpt>
      <trkpt lat="42.8175" lon="-0.28849">
        <ele>2130.5</ele>
        <time>2018-12-27T12:56:07Z</time>
      </trkpt>
      <trkpt lat="42.81756" lon="-0.28864">
        <ele>2130.5</ele>
        <time>2018-12-27T12:56:10Z</time>
      </trkpt>
      <trkpt lat="42.81761" lon="-0.28876">
        <ele>2131</ele>
        <time>2018-12-27T12:56:13Z</time>
      </trkpt>
      <trkpt lat="42.81764" lon="-0.2889">
        <ele>2131</ele>
        <time>2018-12-27T12:56:15Z</time>
      </trkpt>
      <trkpt lat="42.81768" lon="-0.28907">
        <ele>2131.3</ele>
        <time>2018-12-27T12:56:19Z</time>
      </trkpt>
      <trkpt lat="42.81769" lon="-0.28917">
        <ele>2131.1</ele>
        <time>2018-12-27T12:56:21Z</time>
      </trkpt>
      <trkpt lat="42.8177" lon="-0.28924">
        <ele>2130.6</ele>
        <time>2018-12-27T12:56:22Z</time>
      </trkpt>
      <trkpt lat="42.81771" lon="-0.28929">
        <ele>2130.8</ele>
        <time>2018-12-27T12:56:23Z</time>
      </trkpt>
      <trkpt lat="42.8177" lon="-0.28937">
        <ele>2129.4</ele>
        <time>2018-12-27T12:56:25Z</time>
      </trkpt>
      <trkpt lat="42.8177" lon="-0.28938">
        <ele>2129.4</ele>
        <time>2018-12-27T12:56:25Z</time>
      </trkpt>
      <trkpt lat="42.81769" lon="-0.28951">
        <ele>2127.9</ele>
        <time>2018-12-27T12:56:28Z</time>
      </trkpt>
      <trkpt lat="42.81769" lon="-0.28953">
        <ele>2127.6</ele>
        <time>2018-12-27T12:56:28Z</time>
      </trkpt>
      <trkpt lat="42.81768" lon="-0.28968">
        <ele>2125.3</ele>
        <time>2018-12-27T12:56:31Z</time>
      </trkpt>
      <trkpt lat="42.81767" lon="-0.28971">
        <ele>2124.8</ele>
        <time>2018-12-27T12:56:32Z</time>
      </trkpt>
      <trkpt lat="42.81767" lon="-0.28974">
        <ele>2124.3</ele>
        <time>2018-12-27T12:56:32Z</time>
      </trkpt>
      <trkpt lat="42.81767" lon="-0.28978">
        <ele>2124.2</ele>
        <time>2018-12-27T12:56:33Z</time>
      </trkpt>
      <trkpt lat="42.81769" lon="-0.28988">
        <ele>2124.4</ele>
        <time>2018-12-27T12:56:35Z</time>
      </trkpt>
      <trkpt lat="42.8177" lon="-0.28991">
        <ele>2124.6</ele>
        <time>2018-12-27T12:56:36Z</time>
      </trkpt>
      <trkpt lat="42.81772" lon="-0.29001">
        <ele>2125.6</ele>
        <time>2018-12-27T12:56:38Z</time>
      </trkpt>
      <trkpt lat="42.81773" lon="-0.29014">
        <ele>2124.8</ele>
        <time>2018-12-27T12:56:40Z</time>
      </trkpt>
      <trkpt lat="42.81773" lon="-0.29016">
        <ele>2125</ele>
        <time>2018-12-27T12:56:41Z</time>
      </trkpt>
      <trkpt lat="42.81773" lon="-0.29025">
        <ele>2124.3</ele>
        <time>2018-12-27T12:56:42Z</time>
      </trkpt>
      <trkpt lat="42.81775" lon="-0.29037">
        <ele>2124.8</ele>
        <time>2018-12-27T12:56:45Z</time>
      </trkpt>
      <trkpt lat="42.81774" lon="-0.29048">
        <ele>2124.5</ele>
        <time>2018-12-27T12:56:47Z</time>
      </trkpt>
      <trkpt lat="42.81773" lon="-0.29059">
        <ele>2123.9</ele>
        <time>2018-12-27T12:56:49Z</time>
      </trkpt>
      <trkpt lat="42.81771" lon="-0.29067">
        <ele>2122.7</ele>
        <time>2018-12-27T12:56:51Z</time>
      </trkpt>
      <trkpt lat="42.8177" lon="-0.29069">
        <ele>2121.9</ele>
        <time>2018-12-27T12:56:51Z</time>
      </trkpt>
      <trkpt lat="42.8177" lon="-0.29072">
        <ele>2122.6</ele>
        <time>2018-12-27T12:56:52Z</time>
      </trkpt>
      <trkpt lat="42.8177" lon="-0.29074">
        <ele>2122.7</ele>
        <time>2018-12-27T12:56:52Z</time>
      </trkpt>
      <trkpt lat="42.81771" lon="-0.29076">
        <ele>2123.1</ele>
        <time>2018-12-27T12:56:53Z</time>
      </trkpt>
      <trkpt lat="42.8177" lon="-0.29077">
        <ele>2122.8</ele>
        <time>2018-12-27T12:56:53Z</time>
      </trkpt>
      <trkpt lat="42.81769" lon="-0.29084">
        <ele>2122.3</ele>
        <time>2018-12-27T12:56:54Z</time>
      </trkpt>
      <trkpt lat="42.81767" lon="-0.2909">
        <ele>2120.6</ele>
        <time>2018-12-27T12:56:56Z</time>
      </trkpt>
      <trkpt lat="42.81767" lon="-0.29091">
        <ele>2120.5</ele>
        <time>2018-12-27T12:56:56Z</time>
      </trkpt>
      <trkpt lat="42.81767" lon="-0.29099">
        <ele>2120.7</ele>
        <time>2018-12-27T12:56:57Z</time>
      </trkpt>
      <trkpt lat="42.81766" lon="-0.29105">
        <ele>2120.6</ele>
        <time>2018-12-27T12:56:59Z</time>
      </trkpt>
      <trkpt lat="42.81766" lon="-0.2911">
        <ele>2120.6</ele>
        <time>2018-12-27T12:57:00Z</time>
      </trkpt>
      <trkpt lat="42.81767" lon="-0.2912">
        <ele>2121.8</ele>
        <time>2018-12-27T12:57:02Z</time>
      </trkpt>
      <trkpt lat="42.81768" lon="-0.29123">
        <ele>2122.8</ele>
        <time>2018-12-27T12:57:02Z</time>
      </trkpt>
      <trkpt lat="42.81771" lon="-0.29134">
        <ele>2125</ele>
        <time>2018-12-27T12:57:04Z</time>
      </trkpt>
      <trkpt lat="42.81774" lon="-0.29149">
        <ele>2126.9</ele>
        <time>2018-12-27T12:57:08Z</time>
      </trkpt>
      <trkpt lat="42.81775" lon="-0.29157">
        <ele>2127.6</ele>
        <time>2018-12-27T12:57:09Z</time>
      </trkpt>
      <trkpt lat="42.81776" lon="-0.29163">
        <ele>2128</ele>
        <time>2018-12-27T12:57:10Z</time>
      </trkpt>
      <trkpt lat="42.8178" lon="-0.29175">
        <ele>2131.1</ele>
        <time>2018-12-27T12:57:13Z</time>
      </trkpt>
      <trkpt lat="42.81778" lon="-0.29192">
        <ele>2128.7</ele>
        <time>2018-12-27T12:57:16Z</time>
      </trkpt>
      <trkpt lat="42.81778" lon="-0.29211">
        <ele>2128</ele>
        <time>2018-12-27T12:57:20Z</time>
      </trkpt>
      <trkpt lat="42.8178" lon="-0.29224">
        <ele>2131.3</ele>
        <time>2018-12-27T12:57:23Z</time>
      </trkpt>
      <trkpt lat="42.81785" lon="-0.29244">
        <ele>2136.6</ele>
        <time>2018-12-27T12:57:27Z</time>
      </trkpt>
      <trkpt lat="42.81785" lon="-0.29262">
        <ele>2138.3</ele>
        <time>2018-12-27T12:57:30Z</time>
      </trkpt>
      <trkpt lat="42.81784" lon="-0.29279">
        <ele>2139.2</ele>
        <time>2018-12-27T12:57:34Z</time>
      </trkpt>
      <trkpt lat="42.81782" lon="-0.29298">
        <ele>2139</ele>
        <time>2018-12-27T12:57:37Z</time>
      </trkpt>
      <trkpt lat="42.8178" lon="-0.29314">
        <ele>2138.8</ele>
        <time>2018-12-27T12:57:40Z</time>
      </trkpt>
      <trkpt lat="42.81777" lon="-0.29332">
        <ele>2138.2</ele>
        <time>2018-12-27T12:57:44Z</time>
      </trkpt>
      <trkpt lat="42.81773" lon="-0.29343">
        <ele>2136.2</ele>
        <time>2018-12-27T12:57:47Z</time>
      </trkpt>
      <trkpt lat="42.81772" lon="-0.29363">
        <ele>2137.4</ele>
        <time>2018-12-27T12:57:51Z</time>
      </trkpt>
      <trkpt lat="42.81772" lon="-0.29381">
        <ele>2138.9</ele>
        <time>2018-12-27T12:57:54Z</time>
      </trkpt>
      <trkpt lat="42.81774" lon="-0.29401">
        <ele>2139.9</ele>
        <time>2018-12-27T12:57:58Z</time>
      </trkpt>
      <trkpt lat="42.81771" lon="-0.29418">
        <ele>2138.3</ele>
        <time>2018-12-27T12:58:01Z</time>
      </trkpt>
      <trkpt lat="42.81767" lon="-0.29436">
        <ele>2136.2</ele>
        <time>2018-12-27T12:58:05Z</time>
      </trkpt>
      <trkpt lat="42.81766" lon="-0.2945">
        <ele>2135.7</ele>
        <time>2018-12-27T12:58:08Z</time>
      </trkpt>
      <trkpt lat="42.81764" lon="-0.29456">
        <ele>2134.8</ele>
        <time>2018-12-27T12:58:09Z</time>
      </trkpt>
      <trkpt lat="42.8176" lon="-0.2946">
        <ele>2133.4</ele>
        <time>2018-12-27T12:58:10Z</time>
      </trkpt>
      <trkpt lat="42.81755" lon="-0.29463">
        <ele>2131</ele>
        <time>2018-12-27T12:58:12Z</time>
      </trkpt>
      <trkpt lat="42.81756" lon="-0.29456">
        <ele>2131.1</ele>
        <time>2018-12-27T12:58:13Z</time>
      </trkpt>
      <trkpt lat="42.81756" lon="-0.29454">
        <ele>2131</ele>
        <time>2018-12-27T12:58:13Z</time>
      </trkpt>
      <trkpt lat="42.81757" lon="-0.29439">
        <ele>2131.2</ele>
        <time>2018-12-27T12:58:16Z</time>
      </trkpt>
      <trkpt lat="42.81759" lon="-0.29429">
        <ele>2131.7</ele>
        <time>2018-12-27T12:58:18Z</time>
      </trkpt>
      <trkpt lat="42.81759" lon="-0.29427">
        <ele>2131.4</ele>
        <time>2018-12-27T12:58:19Z</time>
      </trkpt>
      <trkpt lat="42.81757" lon="-0.2942">
        <ele>2130.3</ele>
        <time>2018-12-27T12:58:20Z</time>
      </trkpt>
      <trkpt lat="42.81756" lon="-0.29419">
        <ele>2129.7</ele>
        <time>2018-12-27T12:58:21Z</time>
      </trkpt>
      <trkpt lat="42.81756" lon="-0.29417">
        <ele>2129.3</ele>
        <time>2018-12-27T12:58:21Z</time>
      </trkpt>
      <trkpt lat="42.81751" lon="-0.29421">
        <ele>2126.7</ele>
        <time>2018-12-27T12:58:22Z</time>
      </trkpt>
      <trkpt lat="42.81747" lon="-0.29428">
        <ele>2125</ele>
        <time>2018-12-27T12:58:24Z</time>
      </trkpt>
      <trkpt lat="42.81746" lon="-0.29431">
        <ele>2124.6</ele>
        <time>2018-12-27T12:58:25Z</time>
      </trkpt>
      <trkpt lat="42.8174" lon="-0.29449">
        <ele>2123.1</ele>
        <time>2018-12-27T12:58:29Z</time>
      </trkpt>
      <trkpt lat="42.81738" lon="-0.29467">
        <ele>2123.3</ele>
        <time>2018-12-27T12:58:32Z</time>
      </trkpt>
      <trkpt lat="42.81735" lon="-0.29475">
        <ele>2122.3</ele>
        <time>2018-12-27T12:58:34Z</time>
      </trkpt>
      <trkpt lat="42.81733" lon="-0.29483">
        <ele>2122</ele>
        <time>2018-12-27T12:58:36Z</time>
      </trkpt>
      <trkpt lat="42.81735" lon="-0.29494">
        <ele>2123.4</ele>
        <time>2018-12-27T12:58:38Z</time>
      </trkpt>
      <trkpt lat="42.81734" lon="-0.29497">
        <ele>2123.7</ele>
        <time>2018-12-27T12:58:39Z</time>
      </trkpt>
      <trkpt lat="42.81733" lon="-0.29506">
        <ele>2123.7</ele>
        <time>2018-12-27T12:58:40Z</time>
      </trkpt>
      <trkpt lat="42.81726" lon="-0.29521">
        <ele>2122.5</ele>
        <time>2018-12-27T12:58:44Z</time>
      </trkpt>
      <trkpt lat="42.81723" lon="-0.29537">
        <ele>2123.2</ele>
        <time>2018-12-27T12:58:47Z</time>
      </trkpt>
      <trkpt lat="42.81721" lon="-0.29559">
        <ele>2120.5</ele>
        <time>2018-12-27T12:58:51Z</time>
      </trkpt>
      <trkpt lat="42.81714" lon="-0.29572">
        <ele>2117</ele>
        <time>2018-12-27T12:58:54Z</time>
      </trkpt>
      <trkpt lat="42.81704" lon="-0.29586">
        <ele>2111.7</ele>
        <time>2018-12-27T12:58:58Z</time>
      </trkpt>
      <trkpt lat="42.81696" lon="-0.29598">
        <ele>2106.8</ele>
        <time>2018-12-27T12:59:02Z</time>
      </trkpt>
      <trkpt lat="42.81685" lon="-0.29614">
        <ele>2101</ele>
        <time>2018-12-27T12:59:06Z</time>
      </trkpt>
      <trkpt lat="42.81675" lon="-0.29623">
        <ele>2096.6</ele>
        <time>2018-12-27T12:59:09Z</time>
      </trkpt>
      <trkpt lat="42.81667" lon="-0.29634">
        <ele>2092.5</ele>
        <time>2018-12-27T12:59:12Z</time>
      </trkpt>
      <trkpt lat="42.81665" lon="-0.29652">
        <ele>2089.7</ele>
        <time>2018-12-27T12:59:16Z</time>
      </trkpt>
      <trkpt lat="42.81665" lon="-0.29663">
        <ele>2088.7</ele>
        <time>2018-12-27T12:59:18Z</time>
      </trkpt>
      <trkpt lat="42.81666" lon="-0.29677">
        <ele>2087.1</ele>
        <time>2018-12-27T12:59:20Z</time>
      </trkpt>
      <trkpt lat="42.8167" lon="-0.29685">
        <ele>2087.4</ele>
        <time>2018-12-27T12:59:22Z</time>
      </trkpt>
      <trkpt lat="42.8167" lon="-0.2969">
        <ele>2086.6</ele>
        <time>2018-12-27T12:59:23Z</time>
      </trkpt>
      <trkpt lat="42.81671" lon="-0.29695">
        <ele>2086.4</ele>
        <time>2018-12-27T12:59:24Z</time>
      </trkpt>
      <trkpt lat="42.81674" lon="-0.29704">
        <ele>2085.9</ele>
        <time>2018-12-27T12:59:26Z</time>
      </trkpt>
      <trkpt lat="42.81674" lon="-0.29706">
        <ele>2085.6</ele>
        <time>2018-12-27T12:59:27Z</time>
      </trkpt>
      <trkpt lat="42.81675" lon="-0.29716">
        <ele>2084.3</ele>
        <time>2018-12-27T12:59:29Z</time>
      </trkpt>
      <trkpt lat="42.81673" lon="-0.29724">
        <ele>2082.8</ele>
        <time>2018-12-27T12:59:30Z</time>
      </trkpt>
      <trkpt lat="42.81671" lon="-0.29726">
        <ele>2082</ele>
        <time>2018-12-27T12:59:31Z</time>
      </trkpt>
      <trkpt lat="42.8167" lon="-0.29728">
        <ele>2081.7</ele>
        <time>2018-12-27T12:59:31Z</time>
      </trkpt>
      <trkpt lat="42.81669" lon="-0.29736">
        <ele>2080.3</ele>
        <time>2018-12-27T12:59:33Z</time>
      </trkpt>
      <trkpt lat="42.81669" lon="-0.29736">
        <ele>2080</ele>
        <time>2018-12-27T12:59:33Z</time>
      </trkpt>
      <trkpt lat="42.81666" lon="-0.29737">
        <ele>2079.4</ele>
        <time>2018-12-27T12:59:34Z</time>
      </trkpt>
      <trkpt lat="42.8167" lon="-0.29742">
        <ele>2079.3</ele>
        <time>2018-12-27T12:59:35Z</time>
      </trkpt>
      <trkpt lat="42.81671" lon="-0.29743">
        <ele>2079.5</ele>
        <time>2018-12-27T12:59:36Z</time>
      </trkpt>
      <trkpt lat="42.81672" lon="-0.29745">
        <ele>2079.4</ele>
        <time>2018-12-27T12:59:36Z</time>
      </trkpt>
      <trkpt lat="42.81673" lon="-0.29749">
        <ele>2078.9</ele>
        <time>2018-12-27T12:59:37Z</time>
      </trkpt>
      <trkpt lat="42.81671" lon="-0.29754">
        <ele>2077.9</ele>
        <time>2018-12-27T12:59:38Z</time>
      </trkpt>
      <trkpt lat="42.81671" lon="-0.29761">
        <ele>2076.8</ele>
        <time>2018-12-27T12:59:39Z</time>
      </trkpt>
      <trkpt lat="42.81672" lon="-0.2977">
        <ele>2075.5</ele>
        <time>2018-12-27T12:59:41Z</time>
      </trkpt>
      <trkpt lat="42.81666" lon="-0.29772">
        <ele>2074.6</ele>
        <time>2018-12-27T12:59:43Z</time>
      </trkpt>
      <trkpt lat="42.81664" lon="-0.29771">
        <ele>2074.6</ele>
        <time>2018-12-27T12:59:43Z</time>
      </trkpt>
      <trkpt lat="42.8166" lon="-0.29771">
        <ele>2074.3</ele>
        <time>2018-12-27T12:59:44Z</time>
      </trkpt>
      <trkpt lat="42.81656" lon="-0.29773">
        <ele>2073.7</ele>
        <time>2018-12-27T12:59:46Z</time>
      </trkpt>
      <trkpt lat="42.81655" lon="-0.29776">
        <ele>2073.2</ele>
        <time>2018-12-27T12:59:46Z</time>
      </trkpt>
      <trkpt lat="42.81655" lon="-0.29785">
        <ele>2072.2</ele>
        <time>2018-12-27T12:59:48Z</time>
      </trkpt>
      <trkpt lat="42.81654" lon="-0.29793">
        <ele>2071.4</ele>
        <time>2018-12-27T12:59:50Z</time>
      </trkpt>
      <trkpt lat="42.81655" lon="-0.29801">
        <ele>2071.6</ele>
        <time>2018-12-27T12:59:51Z</time>
      </trkpt>
      <trkpt lat="42.81657" lon="-0.29805">
        <ele>2071.5</ele>
        <time>2018-12-27T12:59:52Z</time>
      </trkpt>
      <trkpt lat="42.8166" lon="-0.29809">
        <ele>2071.5</ele>
        <time>2018-12-27T12:59:53Z</time>
      </trkpt>
      <trkpt lat="42.8166" lon="-0.29815">
        <ele>2071.4</ele>
        <time>2018-12-27T12:59:54Z</time>
      </trkpt>
      <trkpt lat="42.81659" lon="-0.29817">
        <ele>2071.4</ele>
        <time>2018-12-27T12:59:55Z</time>
      </trkpt>
      <trkpt lat="42.81661" lon="-0.29825">
        <ele>2071.3</ele>
        <time>2018-12-27T12:59:57Z</time>
      </trkpt>
      <trkpt lat="42.81662" lon="-0.29832">
        <ele>2071.1</ele>
        <time>2018-12-27T12:59:58Z</time>
      </trkpt>
      <trkpt lat="42.81661" lon="-0.29833">
        <ele>2071.1</ele>
        <time>2018-12-27T12:59:58Z</time>
      </trkpt>
      <trkpt lat="42.81661" lon="-0.29842">
        <ele>2070.9</ele>
        <time>2018-12-27T13:00:00Z</time>
      </trkpt>
      <trkpt lat="42.81662" lon="-0.29843">
        <ele>2070.9</ele>
        <time>2018-12-27T13:00:00Z</time>
      </trkpt>
      <trkpt lat="42.81663" lon="-0.29849">
        <ele>2070.6</ele>
        <time>2018-12-27T13:00:02Z</time>
      </trkpt>
      <trkpt lat="42.81663" lon="-0.29851">
        <ele>2070.5</ele>
        <time>2018-12-27T13:00:02Z</time>
      </trkpt>
      <trkpt lat="42.81664" lon="-0.29855">
        <ele>2070.2</ele>
        <time>2018-12-27T13:00:03Z</time>
      </trkpt>
      <trkpt lat="42.81668" lon="-0.2986">
        <ele>2069.4</ele>
        <time>2018-12-27T13:00:04Z</time>
      </trkpt>
      <trkpt lat="42.81669" lon="-0.29862">
        <ele>2069.2</ele>
        <time>2018-12-27T13:00:05Z</time>
      </trkpt>
      <trkpt lat="42.81667" lon="-0.29868">
        <ele>2069.2</ele>
        <time>2018-12-27T13:00:06Z</time>
      </trkpt>
      <trkpt lat="42.81667" lon="-0.29876">
        <ele>2069.1</ele>
        <time>2018-12-27T13:00:08Z</time>
      </trkpt>
      <trkpt lat="42.81668" lon="-0.29882">
        <ele>2068.9</ele>
        <time>2018-12-27T13:00:09Z</time>
      </trkpt>
      <trkpt lat="42.81671" lon="-0.29882">
        <ele>2068.3</ele>
        <time>2018-12-27T13:00:09Z</time>
      </trkpt>
      <trkpt lat="42.8167" lon="-0.29883">
        <ele>2068.5</ele>
        <time>2018-12-27T13:00:10Z</time>
      </trkpt>
      <trkpt lat="42.81666" lon="-0.29877">
        <ele>2069.4</ele>
        <time>2018-12-27T13:00:11Z</time>
      </trkpt>
      <trkpt lat="42.81658" lon="-0.29868">
        <ele>2071.2</ele>
        <time>2018-12-27T13:00:14Z</time>
      </trkpt>
      <trkpt lat="42.8165" lon="-0.2986">
        <ele>2072.6</ele>
        <time>2018-12-27T13:00:17Z</time>
      </trkpt>
      <trkpt lat="42.81649" lon="-0.29854">
        <ele>2072.8</ele>
        <time>2018-12-27T13:00:18Z</time>
      </trkpt>
      <trkpt lat="42.81645" lon="-0.29846">
        <ele>2073.2</ele>
        <time>2018-12-27T13:00:20Z</time>
      </trkpt>
      <trkpt lat="42.81642" lon="-0.29844">
        <ele>2073.6</ele>
        <time>2018-12-27T13:00:21Z</time>
      </trkpt>
      <trkpt lat="42.81629" lon="-0.2984">
        <ele>2074.8</ele>
        <time>2018-12-27T13:00:24Z</time>
      </trkpt>
      <trkpt lat="42.81628" lon="-0.29843">
        <ele>2075.2</ele>
        <time>2018-12-27T13:00:25Z</time>
      </trkpt>
      <trkpt lat="42.81625" lon="-0.29846">
        <ele>2075.9</ele>
        <time>2018-12-27T13:00:26Z</time>
      </trkpt>
      <trkpt lat="42.81622" lon="-0.29847">
        <ele>2076.9</ele>
        <time>2018-12-27T13:00:27Z</time>
      </trkpt>
      <trkpt lat="42.81622" lon="-0.29848">
        <ele>2077.1</ele>
        <time>2018-12-27T13:00:27Z</time>
      </trkpt>
      <trkpt lat="42.81621" lon="-0.2985">
        <ele>2077.4</ele>
        <time>2018-12-27T13:00:27Z</time>
      </trkpt>
      <trkpt lat="42.8162" lon="-0.29851">
        <ele>2077.9</ele>
        <time>2018-12-27T13:00:27Z</time>
      </trkpt>
      <trkpt lat="42.81615" lon="-0.29855">
        <ele>2079.7</ele>
        <time>2018-12-27T13:00:29Z</time>
      </trkpt>
      <trkpt lat="42.81611" lon="-0.29858">
        <ele>2081.2</ele>
        <time>2018-12-27T13:00:30Z</time>
      </trkpt>
      <trkpt lat="42.81607" lon="-0.29861">
        <ele>2082.7</ele>
        <time>2018-12-27T13:00:31Z</time>
      </trkpt>
      <trkpt lat="42.81605" lon="-0.29861">
        <ele>2082.9</ele>
        <time>2018-12-27T13:00:32Z</time>
      </trkpt>
      <trkpt lat="42.816" lon="-0.29857">
        <ele>2084.1</ele>
        <time>2018-12-27T13:00:33Z</time>
      </trkpt>
      <trkpt lat="42.81598" lon="-0.29854">
        <ele>2084.6</ele>
        <time>2018-12-27T13:00:34Z</time>
      </trkpt>
      <trkpt lat="42.81593" lon="-0.29849">
        <ele>2085.2</ele>
        <time>2018-12-27T13:00:36Z</time>
      </trkpt>
      <trkpt lat="42.81585" lon="-0.29843">
        <ele>2086.9</ele>
        <time>2018-12-27T13:00:38Z</time>
      </trkpt>
      <trkpt lat="42.8158" lon="-0.29841">
        <ele>2088.4</ele>
        <time>2018-12-27T13:00:40Z</time>
      </trkpt>
      <trkpt lat="42.81577" lon="-0.29839">
        <ele>2088.8</ele>
        <time>2018-12-27T13:00:41Z</time>
      </trkpt>
      <trkpt lat="42.81576" lon="-0.29838">
        <ele>2089.2</ele>
        <time>2018-12-27T13:00:41Z</time>
      </trkpt>
      <trkpt lat="42.81575" lon="-0.29838">
        <ele>2089.4</ele>
        <time>2018-12-27T13:00:41Z</time>
      </trkpt>
      <trkpt lat="42.81574" lon="-0.29837">
        <ele>2089.7</ele>
        <time>2018-12-27T13:00:42Z</time>
      </trkpt>
      <trkpt lat="42.81572" lon="-0.29827">
        <ele>2089.1</ele>
        <time>2018-12-27T13:00:44Z</time>
      </trkpt>
      <trkpt lat="42.81572" lon="-0.29822">
        <ele>2088.8</ele>
        <time>2018-12-27T13:00:45Z</time>
      </trkpt>
      <trkpt lat="42.81569" lon="-0.29813">
        <ele>2088.8</ele>
        <time>2018-12-27T13:00:47Z</time>
      </trkpt>
      <trkpt lat="42.81568" lon="-0.29813">
        <ele>2089.2</ele>
        <time>2018-12-27T13:00:47Z</time>
      </trkpt>
      <trkpt lat="42.81563" lon="-0.29814">
        <ele>2090.5</ele>
        <time>2018-12-27T13:00:48Z</time>
      </trkpt>
      <trkpt lat="42.81563" lon="-0.29815">
        <ele>2090.8</ele>
        <time>2018-12-27T13:00:49Z</time>
      </trkpt>
      <trkpt lat="42.8156" lon="-0.29824">
        <ele>2092.4</ele>
        <time>2018-12-27T13:00:50Z</time>
      </trkpt>
      <trkpt lat="42.8156" lon="-0.29826">
        <ele>2092.7</ele>
        <time>2018-12-27T13:00:51Z</time>
      </trkpt>
      <trkpt lat="42.81559" lon="-0.29837">
        <ele>2093.9</ele>
        <time>2018-12-27T13:00:53Z</time>
      </trkpt>
      <trkpt lat="42.81559" lon="-0.29838">
        <ele>2093.8</ele>
        <time>2018-12-27T13:00:53Z</time>
      </trkpt>
      <trkpt lat="42.81562" lon="-0.29844">
        <ele>2093.7</ele>
        <time>2018-12-27T13:00:54Z</time>
      </trkpt>
      <trkpt lat="42.81562" lon="-0.29848">
        <ele>2093.9</ele>
        <time>2018-12-27T13:00:55Z</time>
      </trkpt>
      <trkpt lat="42.81562" lon="-0.29854">
        <ele>2094.4</ele>
        <time>2018-12-27T13:00:56Z</time>
      </trkpt>
      <trkpt lat="42.81563" lon="-0.29857">
        <ele>2094.4</ele>
        <time>2018-12-27T13:00:57Z</time>
      </trkpt>
      <trkpt lat="42.81565" lon="-0.29859">
        <ele>2094</ele>
        <time>2018-12-27T13:00:58Z</time>
      </trkpt>
      <trkpt lat="42.81565" lon="-0.29861">
        <ele>2094.4</ele>
        <time>2018-12-27T13:00:58Z</time>
      </trkpt>
      <trkpt lat="42.8156" lon="-0.29867">
        <ele>2096.1</ele>
        <time>2018-12-27T13:01:00Z</time>
      </trkpt>
      <trkpt lat="42.8156" lon="-0.2987">
        <ele>2096.5</ele>
        <time>2018-12-27T13:01:00Z</time>
      </trkpt>
      <trkpt lat="42.8156" lon="-0.29871">
        <ele>2096.5</ele>
        <time>2018-12-27T13:01:01Z</time>
      </trkpt>
      <trkpt lat="42.81559" lon="-0.29872">
        <ele>2097</ele>
        <time>2018-12-27T13:01:01Z</time>
      </trkpt>
      <trkpt lat="42.81554" lon="-0.29874">
        <ele>2098.5</ele>
        <time>2018-12-27T13:01:02Z</time>
      </trkpt>
      <trkpt lat="42.81556" lon="-0.29877">
        <ele>2098.6</ele>
        <time>2018-12-27T13:01:03Z</time>
      </trkpt>
      <trkpt lat="42.81556" lon="-0.29878">
        <ele>2099.1</ele>
        <time>2018-12-27T13:01:03Z</time>
      </trkpt>
      <trkpt lat="42.81554" lon="-0.2988">
        <ele>2100</ele>
        <time>2018-12-27T13:01:04Z</time>
      </trkpt>
      <trkpt lat="42.81553" lon="-0.29881">
        <ele>2100.7</ele>
        <time>2018-12-27T13:01:04Z</time>
      </trkpt>
      <trkpt lat="42.81553" lon="-0.29883">
        <ele>2101.4</ele>
        <time>2018-12-27T13:01:05Z</time>
      </trkpt>
      <trkpt lat="42.81551" lon="-0.29883">
        <ele>2102</ele>
        <time>2018-12-27T13:01:05Z</time>
      </trkpt>
      <trkpt lat="42.8155" lon="-0.29882">
        <ele>2102.2</ele>
        <time>2018-12-27T13:01:06Z</time>
      </trkpt>
      <trkpt lat="42.81546" lon="-0.29881">
        <ele>2102.8</ele>
        <time>2018-12-27T13:01:06Z</time>
      </trkpt>
      <trkpt lat="42.81546" lon="-0.29881">
        <ele>2103.1</ele>
        <time>2018-12-27T13:01:07Z</time>
      </trkpt>
      <trkpt lat="42.81543" lon="-0.29882">
        <ele>2103.7</ele>
        <time>2018-12-27T13:01:07Z</time>
      </trkpt>
      <trkpt lat="42.8154" lon="-0.29878">
        <ele>2105</ele>
        <time>2018-12-27T13:01:08Z</time>
      </trkpt>
      <trkpt lat="42.8154" lon="-0.29869">
        <ele>2103.3</ele>
        <time>2018-12-27T13:01:10Z</time>
      </trkpt>
      <trkpt lat="42.8154" lon="-0.29868">
        <ele>2103.5</ele>
        <time>2018-12-27T13:01:10Z</time>
      </trkpt>
      <trkpt lat="42.81537" lon="-0.29863">
        <ele>2105.9</ele>
        <time>2018-12-27T13:01:12Z</time>
      </trkpt>
      <trkpt lat="42.81536" lon="-0.29861">
        <ele>2107.1</ele>
        <time>2018-12-27T13:01:12Z</time>
      </trkpt>
      <trkpt lat="42.81532" lon="-0.29854">
        <ele>2110.8</ele>
        <time>2018-12-27T13:01:14Z</time>
      </trkpt>
      <trkpt lat="42.81531" lon="-0.29852">
        <ele>2111.6</ele>
        <time>2018-12-27T13:01:14Z</time>
      </trkpt>
      <trkpt lat="42.81528" lon="-0.29846">
        <ele>2113.6</ele>
        <time>2018-12-27T13:01:16Z</time>
      </trkpt>
      <trkpt lat="42.81526" lon="-0.29845">
        <ele>2115.4</ele>
        <time>2018-12-27T13:01:16Z</time>
      </trkpt>
      <trkpt lat="42.81525" lon="-0.29849">
        <ele>2116.9</ele>
        <time>2018-12-27T13:01:17Z</time>
      </trkpt>
      <trkpt lat="42.81526" lon="-0.29856">
        <ele>2117.5</ele>
        <time>2018-12-27T13:01:19Z</time>
      </trkpt>
      <trkpt lat="42.81527" lon="-0.29861">
        <ele>2117.6</ele>
        <time>2018-12-27T13:01:20Z</time>
      </trkpt>
      <trkpt lat="42.81525" lon="-0.29868">
        <ele>2120.5</ele>
        <time>2018-12-27T13:01:21Z</time>
      </trkpt>
      <trkpt lat="42.81525" lon="-0.2987">
        <ele>2120.9</ele>
        <time>2018-12-27T13:01:21Z</time>
      </trkpt>
      <trkpt lat="42.81526" lon="-0.29873">
        <ele>2121</ele>
        <time>2018-12-27T13:01:22Z</time>
      </trkpt>
      <trkpt lat="42.81526" lon="-0.29877">
        <ele>2121.1</ele>
        <time>2018-12-27T13:01:23Z</time>
      </trkpt>
      <trkpt lat="42.81526" lon="-0.29878">
        <ele>2121.4</ele>
        <time>2018-12-27T13:01:23Z</time>
      </trkpt>
      <trkpt lat="42.81526" lon="-0.29882">
        <ele>2122.9</ele>
        <time>2018-12-27T13:01:24Z</time>
      </trkpt>
      <trkpt lat="42.81527" lon="-0.29884">
        <ele>2123.3</ele>
        <time>2018-12-27T13:01:24Z</time>
      </trkpt>
      <trkpt lat="42.81527" lon="-0.29886">
        <ele>2124</ele>
        <time>2018-12-27T13:01:25Z</time>
      </trkpt>
      <trkpt lat="42.81526" lon="-0.29897">
        <ele>2128.2</ele>
        <time>2018-12-27T13:01:27Z</time>
      </trkpt>
      <trkpt lat="42.81527" lon="-0.29899">
        <ele>2128.6</ele>
        <time>2018-12-27T13:01:27Z</time>
      </trkpt>
      <trkpt lat="42.81525" lon="-0.2991">
        <ele>2134.7</ele>
        <time>2018-12-27T13:01:29Z</time>
      </trkpt>
      <trkpt lat="42.81524" lon="-0.29912">
        <ele>2136.6</ele>
        <time>2018-12-27T13:01:30Z</time>
      </trkpt>
      <trkpt lat="42.81523" lon="-0.29911">
        <ele>2137.2</ele>
        <time>2018-12-27T13:01:30Z</time>
      </trkpt>
      <trkpt lat="42.81521" lon="-0.29903">
        <ele>2137</ele>
        <time>2018-12-27T13:01:32Z</time>
      </trkpt>
      <trkpt lat="42.81518" lon="-0.29894">
        <ele>2137</ele>
        <time>2018-12-27T13:01:34Z</time>
      </trkpt>
      <trkpt lat="42.81513" lon="-0.29887">
        <ele>2140.2</ele>
        <time>2018-12-27T13:01:35Z</time>
      </trkpt>
      <trkpt lat="42.8151" lon="-0.29884">
        <ele>2143.2</ele>
        <time>2018-12-27T13:01:37Z</time>
      </trkpt>
      <trkpt lat="42.8151" lon="-0.2988">
        <ele>2141.5</ele>
        <time>2018-12-27T13:01:37Z</time>
      </trkpt>
      <trkpt lat="42.81508" lon="-0.29875">
        <ele>2142.2</ele>
        <time>2018-12-27T13:01:38Z</time>
      </trkpt>
      <trkpt lat="42.81508" lon="-0.29873">
        <ele>2142</ele>
        <time>2018-12-27T13:01:39Z</time>
      </trkpt>
      <trkpt lat="42.81507" lon="-0.29872">
        <ele>2142.8</ele>
        <time>2018-12-27T13:01:39Z</time>
      </trkpt>
      <trkpt lat="42.81506" lon="-0.29869">
        <ele>2143</ele>
        <time>2018-12-27T13:01:40Z</time>
      </trkpt>
      <trkpt lat="42.81504" lon="-0.29861">
        <ele>2142.2</ele>
        <time>2018-12-27T13:01:41Z</time>
      </trkpt>
      <trkpt lat="42.81503" lon="-0.29854">
        <ele>2141.4</ele>
        <time>2018-12-27T13:01:43Z</time>
      </trkpt>
      <trkpt lat="42.81501" lon="-0.29851">
        <ele>2142.4</ele>
        <time>2018-12-27T13:01:44Z</time>
      </trkpt>
      <trkpt lat="42.81497" lon="-0.29844">
        <ele>2144</ele>
        <time>2018-12-27T13:01:45Z</time>
      </trkpt>
      <trkpt lat="42.81494" lon="-0.2984">
        <ele>2144.4</ele>
        <time>2018-12-27T13:01:46Z</time>
      </trkpt>
      <trkpt lat="42.81493" lon="-0.29837">
        <ele>2144.3</ele>
        <time>2018-12-27T13:01:47Z</time>
      </trkpt>
      <trkpt lat="42.81488" lon="-0.29833">
        <ele>2147.1</ele>
        <time>2018-12-27T13:01:49Z</time>
      </trkpt>
      <trkpt lat="42.81487" lon="-0.29832">
        <ele>2147.4</ele>
        <time>2018-12-27T13:01:49Z</time>
      </trkpt>
      <trkpt lat="42.81482" lon="-0.29827">
        <ele>2150.2</ele>
        <time>2018-12-27T13:01:51Z</time>
      </trkpt>
      <trkpt lat="42.8148" lon="-0.29827">
        <ele>2151.5</ele>
        <time>2018-12-27T13:01:51Z</time>
      </trkpt>
      <trkpt lat="42.81477" lon="-0.29828">
        <ele>2154.9</ele>
        <time>2018-12-27T13:01:52Z</time>
      </trkpt>
      <trkpt lat="42.81472" lon="-0.29825">
        <ele>2157.8</ele>
        <time>2018-12-27T13:01:54Z</time>
      </trkpt>
      <trkpt lat="42.81466" lon="-0.29828">
        <ele>2164.2</ele>
        <time>2018-12-27T13:01:55Z</time>
      </trkpt>
      <trkpt lat="42.81461" lon="-0.29828">
        <ele>2168.6</ele>
        <time>2018-12-27T13:01:56Z</time>
      </trkpt>
      <trkpt lat="42.8146" lon="-0.29828">
        <ele>2169.7</ele>
        <time>2018-12-27T13:01:57Z</time>
      </trkpt>
      <trkpt lat="42.81455" lon="-0.29827">
        <ele>2173.4</ele>
        <time>2018-12-27T13:01:58Z</time>
      </trkpt>
      <trkpt lat="42.8145" lon="-0.29826">
        <ele>2175.9</ele>
        <time>2018-12-27T13:01:59Z</time>
      </trkpt>
      <trkpt lat="42.81448" lon="-0.29825">
        <ele>2177.2</ele>
        <time>2018-12-27T13:02:00Z</time>
      </trkpt>
      <trkpt lat="42.81446" lon="-0.29825">
        <ele>2178.9</ele>
        <time>2018-12-27T13:02:01Z</time>
      </trkpt>
      <trkpt lat="42.8144" lon="-0.29819">
        <ele>2179.9</ele>
        <time>2018-12-27T13:02:02Z</time>
      </trkpt>
      <trkpt lat="42.81437" lon="-0.29815">
        <ele>2180.2</ele>
        <time>2018-12-27T13:02:04Z</time>
      </trkpt>
      <trkpt lat="42.81436" lon="-0.29814">
        <ele>2179.6</ele>
        <time>2018-12-27T13:02:04Z</time>
      </trkpt>
      <trkpt lat="42.81433" lon="-0.29803">
        <ele>2175.8</ele>
        <time>2018-12-27T13:02:06Z</time>
      </trkpt>
      <trkpt lat="42.81432" lon="-0.29785">
        <ele>2167.4</ele>
        <time>2018-12-27T13:02:10Z</time>
      </trkpt>
      <trkpt lat="42.81429" lon="-0.2977">
        <ele>2162.9</ele>
        <time>2018-12-27T13:02:13Z</time>
      </trkpt>
      <trkpt lat="42.81428" lon="-0.29754">
        <ele>2155.5</ele>
        <time>2018-12-27T13:02:16Z</time>
      </trkpt>
      <trkpt lat="42.81428" lon="-0.29743">
        <ele>2151.1</ele>
        <time>2018-12-27T13:02:18Z</time>
      </trkpt>
      <trkpt lat="42.81427" lon="-0.29741">
        <ele>2150.3</ele>
        <time>2018-12-27T13:02:19Z</time>
      </trkpt>
      <trkpt lat="42.81425" lon="-0.29733">
        <ele>2148.2</ele>
        <time>2018-12-27T13:02:20Z</time>
      </trkpt>
      <trkpt lat="42.81419" lon="-0.29725">
        <ele>2148.6</ele>
        <time>2018-12-27T13:02:23Z</time>
      </trkpt>
      <trkpt lat="42.81413" lon="-0.2972">
        <ele>2150.5</ele>
        <time>2018-12-27T13:02:24Z</time>
      </trkpt>
      <trkpt lat="42.81411" lon="-0.29719">
        <ele>2151.5</ele>
        <time>2018-12-27T13:02:25Z</time>
      </trkpt>
      <trkpt lat="42.81399" lon="-0.29721">
        <ele>2161</ele>
        <time>2018-12-27T13:02:28Z</time>
      </trkpt>
      <trkpt lat="42.8139" lon="-0.29723">
        <ele>2168.4</ele>
        <time>2018-12-27T13:02:31Z</time>
      </trkpt>
      <trkpt lat="42.81383" lon="-0.29725">
        <ele>2174.2</ele>
        <time>2018-12-27T13:02:32Z</time>
      </trkpt>
      <trkpt lat="42.81375" lon="-0.29728">
        <ele>2181.9</ele>
        <time>2018-12-27T13:02:35Z</time>
      </trkpt>
      <trkpt lat="42.81364" lon="-0.29723">
        <ele>2180.6</ele>
        <time>2018-12-27T13:02:38Z</time>
      </trkpt>
      <trkpt lat="42.81359" lon="-0.29719">
        <ele>2178.7</ele>
        <time>2018-12-27T13:02:39Z</time>
      </trkpt>
      <trkpt lat="42.81357" lon="-0.29714">
        <ele>2176.4</ele>
        <time>2018-12-27T13:02:40Z</time>
      </trkpt>
      <trkpt lat="42.81347" lon="-0.29706">
        <ele>2172.6</ele>
        <time>2018-12-27T13:02:44Z</time>
      </trkpt>
      <trkpt lat="42.81337" lon="-0.29706">
        <ele>2173.7</ele>
        <time>2018-12-27T13:02:46Z</time>
      </trkpt>
      <trkpt lat="42.81325" lon="-0.297">
        <ele>2172</ele>
        <time>2018-12-27T13:02:50Z</time>
      </trkpt>
      <trkpt lat="42.81314" lon="-0.29696">
        <ele>2171.5</ele>
        <time>2018-12-27T13:02:53Z</time>
      </trkpt>
      <trkpt lat="42.81304" lon="-0.29694">
        <ele>2171.8</ele>
        <time>2018-12-27T13:02:55Z</time>
      </trkpt>
      <trkpt lat="42.81295" lon="-0.29691">
        <ele>2171.8</ele>
        <time>2018-12-27T13:02:58Z</time>
      </trkpt>
      <trkpt lat="42.81287" lon="-0.29687">
        <ele>2172.4</ele>
        <time>2018-12-27T13:03:00Z</time>
      </trkpt>
      <trkpt lat="42.81285" lon="-0.29685">
        <ele>2171.6</ele>
        <time>2018-12-27T13:03:01Z</time>
      </trkpt>
      <trkpt lat="42.81275" lon="-0.29673">
        <ele>2168.7</ele>
        <time>2018-12-27T13:03:04Z</time>
      </trkpt>
      <trkpt lat="42.81266" lon="-0.29661">
        <ele>2166</ele>
        <time>2018-12-27T13:03:08Z</time>
      </trkpt>
      <trkpt lat="42.8126" lon="-0.29649">
        <ele>2162.7</ele>
        <time>2018-12-27T13:03:11Z</time>
      </trkpt>
      <trkpt lat="42.81253" lon="-0.29634">
        <ele>2157.7</ele>
        <time>2018-12-27T13:03:14Z</time>
      </trkpt>
      <trkpt lat="42.81249" lon="-0.29619">
        <ele>2153.2</ele>
        <time>2018-12-27T13:03:17Z</time>
      </trkpt>
      <trkpt lat="42.81246" lon="-0.29604">
        <ele>2149.5</ele>
        <time>2018-12-27T13:03:20Z</time>
      </trkpt>
      <trkpt lat="42.8124" lon="-0.29594">
        <ele>2148.1</ele>
        <time>2018-12-27T13:03:23Z</time>
      </trkpt>
      <trkpt lat="42.81234" lon="-0.29588">
        <ele>2148.3</ele>
        <time>2018-12-27T13:03:25Z</time>
      </trkpt>
      <trkpt lat="42.81225" lon="-0.29586">
        <ele>2151.6</ele>
        <time>2018-12-27T13:03:27Z</time>
      </trkpt>
      <trkpt lat="42.81217" lon="-0.29585">
        <ele>2154.4</ele>
        <time>2018-12-27T13:03:29Z</time>
      </trkpt>
      <trkpt lat="42.81216" lon="-0.29585">
        <ele>2155</ele>
        <time>2018-12-27T13:03:30Z</time>
      </trkpt>
      <trkpt lat="42.8121" lon="-0.29587">
        <ele>2158.3</ele>
        <time>2018-12-27T13:03:31Z</time>
      </trkpt>
      <trkpt lat="42.81203" lon="-0.29586">
        <ele>2161.2</ele>
        <time>2018-12-27T13:03:33Z</time>
      </trkpt>
      <trkpt lat="42.81195" lon="-0.29588">
        <ele>2165.4</ele>
        <time>2018-12-27T13:03:35Z</time>
      </trkpt>
      <trkpt lat="42.81192" lon="-0.29587">
        <ele>2166.4</ele>
        <time>2018-12-27T13:03:36Z</time>
      </trkpt>
      <trkpt lat="42.8119" lon="-0.29588">
        <ele>2167.8</ele>
        <time>2018-12-27T13:03:37Z</time>
      </trkpt>
      <trkpt lat="42.8119" lon="-0.29588">
        <ele>2167.7</ele>
        <time>2018-12-27T13:03:37Z</time>
      </trkpt>
      <trkpt lat="42.81192" lon="-0.29584">
        <ele>2165.4</ele>
        <time>2018-12-27T13:03:38Z</time>
      </trkpt>
      <trkpt lat="42.81191" lon="-0.29583">
        <ele>2165.4</ele>
        <time>2018-12-27T13:03:38Z</time>
      </trkpt>
      <trkpt lat="42.81189" lon="-0.29581">
        <ele>2166</ele>
        <time>2018-12-27T13:03:39Z</time>
      </trkpt>
      <trkpt lat="42.81181" lon="-0.29574">
        <ele>2167.3</ele>
        <time>2018-12-27T13:03:41Z</time>
      </trkpt>
      <trkpt lat="42.81173" lon="-0.2956">
        <ele>2167</ele>
        <time>2018-12-27T13:03:45Z</time>
      </trkpt>
      <trkpt lat="42.81165" lon="-0.2955">
        <ele>2168.2</ele>
        <time>2018-12-27T13:03:48Z</time>
      </trkpt>
      <trkpt lat="42.8116" lon="-0.29539">
        <ele>2168.6</ele>
        <time>2018-12-27T13:03:50Z</time>
      </trkpt>
      <trkpt lat="42.81156" lon="-0.29527">
        <ele>2168.1</ele>
        <time>2018-12-27T13:03:53Z</time>
      </trkpt>
      <trkpt lat="42.81153" lon="-0.29515">
        <ele>2167.3</ele>
        <time>2018-12-27T13:03:55Z</time>
      </trkpt>
      <trkpt lat="42.81149" lon="-0.29509">
        <ele>2168.5</ele>
        <time>2018-12-27T13:03:57Z</time>
      </trkpt>
      <trkpt lat="42.81147" lon="-0.29506">
        <ele>2169.6</ele>
        <time>2018-12-27T13:03:58Z</time>
      </trkpt>
      <trkpt lat="42.8114" lon="-0.295">
        <ele>2172.3</ele>
        <time>2018-12-27T13:04:00Z</time>
      </trkpt>
      <trkpt lat="42.81139" lon="-0.29499">
        <ele>2172.4</ele>
        <time>2018-12-27T13:04:00Z</time>
      </trkpt>
      <trkpt lat="42.81133" lon="-0.29491">
        <ele>2174.6</ele>
        <time>2018-12-27T13:04:02Z</time>
      </trkpt>
      <trkpt lat="42.81131" lon="-0.29488">
        <ele>2175.3</ele>
        <time>2018-12-27T13:04:03Z</time>
      </trkpt>
      <trkpt lat="42.81128" lon="-0.29482">
        <ele>2176.3</ele>
        <time>2018-12-27T13:04:05Z</time>
      </trkpt>
      <trkpt lat="42.81123" lon="-0.29479">
        <ele>2178.1</ele>
        <time>2018-12-27T13:04:06Z</time>
      </trkpt>
      <trkpt lat="42.81122" lon="-0.29478">
        <ele>2178.2</ele>
        <time>2018-12-27T13:04:06Z</time>
      </trkpt>
      <trkpt lat="42.81119" lon="-0.29474">
        <ele>2178.7</ele>
        <time>2018-12-27T13:04:08Z</time>
      </trkpt>
      <trkpt lat="42.81117" lon="-0.29474">
        <ele>2179.2</ele>
        <time>2018-12-27T13:04:08Z</time>
      </trkpt>
      <trkpt lat="42.81118" lon="-0.29475">
        <ele>2179.3</ele>
        <time>2018-12-27T13:04:08Z</time>
      </trkpt>
      <trkpt lat="42.8112" lon="-0.29482">
        <ele>2179.6</ele>
        <time>2018-12-27T13:04:10Z</time>
      </trkpt>
      <trkpt lat="42.81121" lon="-0.29484">
        <ele>2179.8</ele>
        <time>2018-12-27T13:04:10Z</time>
      </trkpt>
      <trkpt lat="42.81125" lon="-0.29494">
        <ele>2180.3</ele>
        <time>2018-12-27T13:04:12Z</time>
      </trkpt>
      <trkpt lat="42.81124" lon="-0.29495">
        <ele>2180.4</ele>
        <time>2018-12-27T13:04:13Z</time>
      </trkpt>
      <trkpt lat="42.8112" lon="-0.29489">
        <ele>2180.9</ele>
        <time>2018-12-27T13:04:14Z</time>
      </trkpt>
      <trkpt lat="42.81117" lon="-0.29487">
        <ele>2181.4</ele>
        <time>2018-12-27T13:04:15Z</time>
      </trkpt>
      <trkpt lat="42.81115" lon="-0.29484">
        <ele>2181.9</ele>
        <time>2018-12-27T13:04:16Z</time>
      </trkpt>
      <trkpt lat="42.8111" lon="-0.29476">
        <ele>2182.2</ele>
        <time>2018-12-27T13:04:18Z</time>
      </trkpt>
      <trkpt lat="42.81108" lon="-0.29465">
        <ele>2180.8</ele>
        <time>2018-12-27T13:04:20Z</time>
      </trkpt>
      <trkpt lat="42.81111" lon="-0.29451">
        <ele>2177.1</ele>
        <time>2018-12-27T13:04:23Z</time>
      </trkpt>
      <trkpt lat="42.81112" lon="-0.29443">
        <ele>2174.8</ele>
        <time>2018-12-27T13:04:25Z</time>
      </trkpt>
      <trkpt lat="42.81112" lon="-0.29439">
        <ele>2174</ele>
        <time>2018-12-27T13:04:25Z</time>
      </trkpt>
      <trkpt lat="42.81114" lon="-0.29427">
        <ele>2170.7</ele>
        <time>2018-12-27T13:04:28Z</time>
      </trkpt>
      <trkpt lat="42.81113" lon="-0.29405">
        <ele>2166.5</ele>
        <time>2018-12-27T13:04:32Z</time>
      </trkpt>
      <trkpt lat="42.81109" lon="-0.2939">
        <ele>2164.3</ele>
        <time>2018-12-27T13:04:35Z</time>
      </trkpt>
      <trkpt lat="42.81099" lon="-0.2938">
        <ele>2164.6</ele>
        <time>2018-12-27T13:04:39Z</time>
      </trkpt>
      <trkpt lat="42.81086" lon="-0.29378">
        <ele>2167.7</ele>
        <time>2018-12-27T13:04:42Z</time>
      </trkpt>
      <trkpt lat="42.81072" lon="-0.29376">
        <ele>2170.5</ele>
        <time>2018-12-27T13:04:46Z</time>
      </trkpt>
      <trkpt lat="42.81064" lon="-0.29373">
        <ele>2171.8</ele>
        <time>2018-12-27T13:04:48Z</time>
      </trkpt>
      <trkpt lat="42.8106" lon="-0.29372">
        <ele>2172.7</ele>
        <time>2018-12-27T13:04:49Z</time>
      </trkpt>
      <trkpt lat="42.81059" lon="-0.29373">
        <ele>2173</ele>
        <time>2018-12-27T13:04:49Z</time>
      </trkpt>
      <trkpt lat="42.81059" lon="-0.29373">
        <ele>2173.1</ele>
        <time>2018-12-27T13:04:49Z</time>
      </trkpt>
      <trkpt lat="42.81057" lon="-0.2937">
        <ele>2172.9</ele>
        <time>2018-12-27T13:04:50Z</time>
      </trkpt>
      <trkpt lat="42.81054" lon="-0.29372">
        <ele>2174.1</ele>
        <time>2018-12-27T13:04:51Z</time>
      </trkpt>
      <trkpt lat="42.81053" lon="-0.29375">
        <ele>2175.1</ele>
        <time>2018-12-27T13:04:52Z</time>
      </trkpt>
      <trkpt lat="42.81053" lon="-0.29381">
        <ele>2176.7</ele>
        <time>2018-12-27T13:04:53Z</time>
      </trkpt>
      <trkpt lat="42.8105" lon="-0.29389">
        <ele>2179.4</ele>
        <time>2018-12-27T13:04:55Z</time>
      </trkpt>
      <trkpt lat="42.81048" lon="-0.29392">
        <ele>2181</ele>
        <time>2018-12-27T13:04:55Z</time>
      </trkpt>
      <trkpt lat="42.81047" lon="-0.29399">
        <ele>2183.4</ele>
        <time>2018-12-27T13:04:57Z</time>
      </trkpt>
      <trkpt lat="42.81044" lon="-0.29402">
        <ele>2184.8</ele>
        <time>2018-12-27T13:04:58Z</time>
      </trkpt>
      <trkpt lat="42.81038" lon="-0.29405">
        <ele>2189.4</ele>
        <time>2018-12-27T13:04:59Z</time>
      </trkpt>
      <trkpt lat="42.81032" lon="-0.29409">
        <ele>2195.5</ele>
        <time>2018-12-27T13:05:01Z</time>
      </trkpt>
      <trkpt lat="42.8103" lon="-0.29412">
        <ele>2198.3</ele>
        <time>2018-12-27T13:05:02Z</time>
      </trkpt>
      <trkpt lat="42.81031" lon="-0.29416">
        <ele>2198.5</ele>
        <time>2018-12-27T13:05:03Z</time>
      </trkpt>
      <trkpt lat="42.81035" lon="-0.29421">
        <ele>2196.7</ele>
        <time>2018-12-27T13:05:04Z</time>
      </trkpt>
      <trkpt lat="42.81033" lon="-0.2943">
        <ele>2200.4</ele>
        <time>2018-12-27T13:05:06Z</time>
      </trkpt>
      <trkpt lat="42.81032" lon="-0.29434">
        <ele>2202.6</ele>
        <time>2018-12-27T13:05:07Z</time>
      </trkpt>
      <trkpt lat="42.81031" lon="-0.29437">
        <ele>2204.1</ele>
        <time>2018-12-27T13:05:08Z</time>
      </trkpt>
      <trkpt lat="42.8103" lon="-0.29438">
        <ele>2204.8</ele>
        <time>2018-12-27T13:05:08Z</time>
      </trkpt>
      <trkpt lat="42.81029" lon="-0.29443">
        <ele>2207.1</ele>
        <time>2018-12-27T13:05:09Z</time>
      </trkpt>
      <trkpt lat="42.81031" lon="-0.2945">
        <ele>2207.4</ele>
        <time>2018-12-27T13:05:10Z</time>
      </trkpt>
      <trkpt lat="42.81033" lon="-0.29459">
        <ele>2208.4</ele>
        <time>2018-12-27T13:05:12Z</time>
      </trkpt>
      <trkpt lat="42.81033" lon="-0.29465">
        <ele>2208.9</ele>
        <time>2018-12-27T13:05:13Z</time>
      </trkpt>
      <trkpt lat="42.81033" lon="-0.2947">
        <ele>2209.8</ele>
        <time>2018-12-27T13:05:14Z</time>
      </trkpt>
      <trkpt lat="42.81034" lon="-0.29477">
        <ele>2210.2</ele>
        <time>2018-12-27T13:05:16Z</time>
      </trkpt>
      <trkpt lat="42.81032" lon="-0.2948">
        <ele>2212.5</ele>
        <time>2018-12-27T13:05:16Z</time>
      </trkpt>
      <trkpt lat="42.81025" lon="-0.29482">
        <ele>2218</ele>
        <time>2018-12-27T13:05:18Z</time>
      </trkpt>
      <trkpt lat="42.81018" lon="-0.29482">
        <ele>2223.6</ele>
        <time>2018-12-27T13:05:20Z</time>
      </trkpt>
      <trkpt lat="42.81016" lon="-0.29482">
        <ele>2224.8</ele>
        <time>2018-12-27T13:05:21Z</time>
      </trkpt>
      <trkpt lat="42.81014" lon="-0.29484">
        <ele>2226.4</ele>
        <time>2018-12-27T13:05:21Z</time>
      </trkpt>
      <trkpt lat="42.81014" lon="-0.29485">
        <ele>2227</ele>
        <time>2018-12-27T13:05:22Z</time>
      </trkpt>
      <trkpt lat="42.81015" lon="-0.29487">
        <ele>2226.3</ele>
        <time>2018-12-27T13:05:22Z</time>
      </trkpt>
      <trkpt lat="42.81013" lon="-0.29491">
        <ele>2228.1</ele>
        <time>2018-12-27T13:05:23Z</time>
      </trkpt>
      <trkpt lat="42.81017" lon="-0.29497">
        <ele>2226.2</ele>
        <time>2018-12-27T13:05:25Z</time>
      </trkpt>
      <trkpt lat="42.81018" lon="-0.29499">
        <ele>2225.9</ele>
        <time>2018-12-27T13:05:25Z</time>
      </trkpt>
      <trkpt lat="42.8102" lon="-0.29504">
        <ele>2224.9</ele>
        <time>2018-12-27T13:05:26Z</time>
      </trkpt>
      <trkpt lat="42.81022" lon="-0.2951">
        <ele>2224.3</ele>
        <time>2018-12-27T13:05:27Z</time>
      </trkpt>
      <trkpt lat="42.81023" lon="-0.29514">
        <ele>2224.1</ele>
        <time>2018-12-27T13:05:28Z</time>
      </trkpt>
      <trkpt lat="42.81026" lon="-0.29525">
        <ele>2224.2</ele>
        <time>2018-12-27T13:05:31Z</time>
      </trkpt>
      <trkpt lat="42.81025" lon="-0.29533">
        <ele>2225.7</ele>
        <time>2018-12-27T13:05:32Z</time>
      </trkpt>
      <trkpt lat="42.81025" lon="-0.29535">
        <ele>2226.1</ele>
        <time>2018-12-27T13:05:33Z</time>
      </trkpt>
      <trkpt lat="42.81023" lon="-0.29547">
        <ele>2229.3</ele>
        <time>2018-12-27T13:05:35Z</time>
      </trkpt>
      <trkpt lat="42.81024" lon="-0.29557">
        <ele>2231</ele>
        <time>2018-12-27T13:05:37Z</time>
      </trkpt>
      <trkpt lat="42.81024" lon="-0.29565">
        <ele>2232.7</ele>
        <time>2018-12-27T13:05:38Z</time>
      </trkpt>
      <trkpt lat="42.81024" lon="-0.29566">
        <ele>2232.8</ele>
        <time>2018-12-27T13:05:39Z</time>
      </trkpt>
      <trkpt lat="42.81027" lon="-0.2958">
        <ele>2234</ele>
        <time>2018-12-27T13:05:41Z</time>
      </trkpt>
      <trkpt lat="42.81033" lon="-0.2959">
        <ele>2233</ele>
        <time>2018-12-27T13:05:44Z</time>
      </trkpt>
      <trkpt lat="42.8104" lon="-0.29595">
        <ele>2230.3</ele>
        <time>2018-12-27T13:05:46Z</time>
      </trkpt>
      <trkpt lat="42.81046" lon="-0.29601">
        <ele>2228.9</ele>
        <time>2018-12-27T13:05:48Z</time>
      </trkpt>
      <trkpt lat="42.81047" lon="-0.29605">
        <ele>2229.4</ele>
        <time>2018-12-27T13:05:49Z</time>
      </trkpt>
      <trkpt lat="42.81049" lon="-0.29611">
        <ele>2230.1</ele>
        <time>2018-12-27T13:05:50Z</time>
      </trkpt>
      <trkpt lat="42.81051" lon="-0.29612">
        <ele>2229.8</ele>
        <time>2018-12-27T13:05:51Z</time>
      </trkpt>
      <trkpt lat="42.81052" lon="-0.29612">
        <ele>2229.4</ele>
        <time>2018-12-27T13:05:51Z</time>
      </trkpt>
      <trkpt lat="42.81052" lon="-0.29613">
        <ele>2229.5</ele>
        <time>2018-12-27T13:05:51Z</time>
      </trkpt>
      <trkpt lat="42.81056" lon="-0.29622">
        <ele>2229.9</ele>
        <time>2018-12-27T13:05:53Z</time>
      </trkpt>
      <trkpt lat="42.81058" lon="-0.29626">
        <ele>2230</ele>
        <time>2018-12-27T13:05:54Z</time>
      </trkpt>
      <trkpt lat="42.81059" lon="-0.29631">
        <ele>2230.8</ele>
        <time>2018-12-27T13:05:55Z</time>
      </trkpt>
      <trkpt lat="42.8106" lon="-0.29642">
        <ele>2233.1</ele>
        <time>2018-12-27T13:05:57Z</time>
      </trkpt>
      <trkpt lat="42.81056" lon="-0.29648">
        <ele>2235.7</ele>
        <time>2018-12-27T13:05:59Z</time>
      </trkpt>
      <trkpt lat="42.81056" lon="-0.29651">
        <ele>2236.1</ele>
        <time>2018-12-27T13:05:59Z</time>
      </trkpt>
      <trkpt lat="42.81056" lon="-0.29658">
        <ele>2237.5</ele>
        <time>2018-12-27T13:06:01Z</time>
      </trkpt>
      <trkpt lat="42.81055" lon="-0.29666">
        <ele>2240</ele>
        <time>2018-12-27T13:06:03Z</time>
      </trkpt>
      <trkpt lat="42.81054" lon="-0.29668">
        <ele>2240.5</ele>
        <time>2018-12-27T13:06:03Z</time>
      </trkpt>
      <trkpt lat="42.81055" lon="-0.29672">
        <ele>2241.3</ele>
        <time>2018-12-27T13:06:04Z</time>
      </trkpt>
      <trkpt lat="42.81054" lon="-0.29678">
        <ele>2242.7</ele>
        <time>2018-12-27T13:06:05Z</time>
      </trkpt>
      <trkpt lat="42.81053" lon="-0.29688">
        <ele>2245.3</ele>
        <time>2018-12-27T13:06:07Z</time>
      </trkpt>
      <trkpt lat="42.81051" lon="-0.29702">
        <ele>2248.9</ele>
        <time>2018-12-27T13:06:10Z</time>
      </trkpt>
      <trkpt lat="42.81048" lon="-0.29715">
        <ele>2253.2</ele>
        <time>2018-12-27T13:06:12Z</time>
      </trkpt>
      <trkpt lat="42.81048" lon="-0.29718">
        <ele>2254.3</ele>
        <time>2018-12-27T13:06:13Z</time>
      </trkpt>
      <trkpt lat="42.81049" lon="-0.29723">
        <ele>2255.1</ele>
        <time>2018-12-27T13:06:14Z</time>
      </trkpt>
      <trkpt lat="42.81049" lon="-0.29725">
        <ele>2255.7</ele>
        <time>2018-12-27T13:06:14Z</time>
      </trkpt>
      <trkpt lat="42.8105" lon="-0.29731">
        <ele>2256.7</ele>
        <time>2018-12-27T13:06:15Z</time>
      </trkpt>
      <trkpt lat="42.8105" lon="-0.29731">
        <ele>2256.8</ele>
        <time>2018-12-27T13:06:16Z</time>
      </trkpt>
      <trkpt lat="42.8105" lon="-0.29732">
        <ele>2256.8</ele>
        <time>2018-12-27T13:06:16Z</time>
      </trkpt>
      <trkpt lat="42.8105" lon="-0.29739">
        <ele>2258.5</ele>
        <time>2018-12-27T13:06:17Z</time>
      </trkpt>
      <trkpt lat="42.81051" lon="-0.29745">
        <ele>2259.9</ele>
        <time>2018-12-27T13:06:18Z</time>
      </trkpt>
      <trkpt lat="42.81051" lon="-0.29746">
        <ele>2260.1</ele>
        <time>2018-12-27T13:06:18Z</time>
      </trkpt>
      <trkpt lat="42.81052" lon="-0.29756">
        <ele>2262.5</ele>
        <time>2018-12-27T13:06:20Z</time>
      </trkpt>
      <trkpt lat="42.81053" lon="-0.29765">
        <ele>2264.6</ele>
        <time>2018-12-27T13:06:22Z</time>
      </trkpt>
      <trkpt lat="42.81053" lon="-0.29768">
        <ele>2265.3</ele>
        <time>2018-12-27T13:06:23Z</time>
      </trkpt>
      <trkpt lat="42.81053" lon="-0.29772">
        <ele>2266.2</ele>
        <time>2018-12-27T13:06:24Z</time>
      </trkpt>
      <trkpt lat="42.81053" lon="-0.29773">
        <ele>2266.6</ele>
        <time>2018-12-27T13:06:24Z</time>
      </trkpt>
      <trkpt lat="42.81051" lon="-0.29773">
        <ele>2267.5</ele>
        <time>2018-12-27T13:06:24Z</time>
      </trkpt>
      <trkpt lat="42.81044" lon="-0.29769">
        <ele>2268.6</ele>
        <time>2018-12-27T13:06:26Z</time>
      </trkpt>
      <trkpt lat="42.81042" lon="-0.29768">
        <ele>2269.1</ele>
        <time>2018-12-27T13:06:27Z</time>
      </trkpt>
      <trkpt lat="42.81036" lon="-0.29765">
        <ele>2270.9</ele>
        <time>2018-12-27T13:06:29Z</time>
      </trkpt>
      <trkpt lat="42.81028" lon="-0.29763">
        <ele>2273.6</ele>
        <time>2018-12-27T13:06:31Z</time>
      </trkpt>
      <trkpt lat="42.81027" lon="-0.29762">
        <ele>2274.2</ele>
        <time>2018-12-27T13:06:31Z</time>
      </trkpt>
      <trkpt lat="42.81026" lon="-0.29764">
        <ele>2275.2</ele>
        <time>2018-12-27T13:06:32Z</time>
      </trkpt>
      <trkpt lat="42.81027" lon="-0.29768">
        <ele>2275.7</ele>
        <time>2018-12-27T13:06:32Z</time>
      </trkpt>
      <trkpt lat="42.81028" lon="-0.29773">
        <ele>2276.5</ele>
        <time>2018-12-27T13:06:33Z</time>
      </trkpt>
      <trkpt lat="42.81028" lon="-0.29778">
        <ele>2277.5</ele>
        <time>2018-12-27T13:06:34Z</time>
      </trkpt>
      <trkpt lat="42.81029" lon="-0.29782">
        <ele>2278</ele>
        <time>2018-12-27T13:06:35Z</time>
      </trkpt>
      <trkpt lat="42.81029" lon="-0.29783">
        <ele>2278.3</ele>
        <time>2018-12-27T13:06:35Z</time>
      </trkpt>
      <trkpt lat="42.81028" lon="-0.29787">
        <ele>2279.8</ele>
        <time>2018-12-27T13:06:36Z</time>
      </trkpt>
      <trkpt lat="42.81026" lon="-0.29787">
        <ele>2280.7</ele>
        <time>2018-12-27T13:06:37Z</time>
      </trkpt>
      <trkpt lat="42.81024" lon="-0.29791">
        <ele>2282.1</ele>
        <time>2018-12-27T13:06:38Z</time>
      </trkpt>
      <trkpt lat="42.81023" lon="-0.29801">
        <ele>2284.3</ele>
        <time>2018-12-27T13:06:40Z</time>
      </trkpt>
      <trkpt lat="42.81026" lon="-0.29813">
        <ele>2285.3</ele>
        <time>2018-12-27T13:06:42Z</time>
      </trkpt>
      <trkpt lat="42.8103" lon="-0.29821">
        <ele>2285.1</ele>
        <time>2018-12-27T13:06:44Z</time>
      </trkpt>
      <trkpt lat="42.81034" lon="-0.29826">
        <ele>2284.6</ele>
        <time>2018-12-27T13:06:45Z</time>
      </trkpt>
      <trkpt lat="42.81035" lon="-0.29829">
        <ele>2284.7</ele>
        <time>2018-12-27T13:06:46Z</time>
      </trkpt>
      <trkpt lat="42.81039" lon="-0.29834">
        <ele>2284.1</ele>
        <time>2018-12-27T13:06:47Z</time>
      </trkpt>
      <trkpt lat="42.81042" lon="-0.29836">
        <ele>2283.6</ele>
        <time>2018-12-27T13:06:48Z</time>
      </trkpt>
      <trkpt lat="42.8105" lon="-0.29843">
        <ele>2282.8</ele>
        <time>2018-12-27T13:06:51Z</time>
      </trkpt>
      <trkpt lat="42.81054" lon="-0.29849">
        <ele>2283</ele>
        <time>2018-12-27T13:06:52Z</time>
      </trkpt>
      <trkpt lat="42.81055" lon="-0.29851">
        <ele>2283.3</ele>
        <time>2018-12-27T13:06:53Z</time>
      </trkpt>
      <trkpt lat="42.8106" lon="-0.29861">
        <ele>2284.3</ele>
        <time>2018-12-27T13:06:55Z</time>
      </trkpt>
      <trkpt lat="42.81065" lon="-0.29868">
        <ele>2284.7</ele>
        <time>2018-12-27T13:06:57Z</time>
      </trkpt>
      <trkpt lat="42.81068" lon="-0.29877">
        <ele>2285.8</ele>
        <time>2018-12-27T13:06:59Z</time>
      </trkpt>
      <trkpt lat="42.81072" lon="-0.29887">
        <ele>2286.1</ele>
        <time>2018-12-27T13:07:01Z</time>
      </trkpt>
      <trkpt lat="42.81072" lon="-0.29891">
        <ele>2286.4</ele>
        <time>2018-12-27T13:07:02Z</time>
      </trkpt>
      <trkpt lat="42.81073" lon="-0.29894">
        <ele>2286.4</ele>
        <time>2018-12-27T13:07:03Z</time>
      </trkpt>
      <trkpt lat="42.81074" lon="-0.29896">
        <ele>2286.4</ele>
        <time>2018-12-27T13:07:03Z</time>
      </trkpt>
      <trkpt lat="42.81076" lon="-0.29898">
        <ele>2286.3</ele>
        <time>2018-12-27T13:07:04Z</time>
      </trkpt>
      <trkpt lat="42.81079" lon="-0.29902">
        <ele>2286.2</ele>
        <time>2018-12-27T13:07:05Z</time>
      </trkpt>
      <trkpt lat="42.81081" lon="-0.29906">
        <ele>2286.4</ele>
        <time>2018-12-27T13:07:06Z</time>
      </trkpt>
      <trkpt lat="42.81083" lon="-0.29912">
        <ele>2286.6</ele>
        <time>2018-12-27T13:07:07Z</time>
      </trkpt>
      <trkpt lat="42.81085" lon="-0.29915">
        <ele>2286.6</ele>
        <time>2018-12-27T13:07:08Z</time>
      </trkpt>
      <trkpt lat="42.81085" lon="-0.2992">
        <ele>2287.2</ele>
        <time>2018-12-27T13:07:09Z</time>
      </trkpt>
      <trkpt lat="42.81086" lon="-0.29926">
        <ele>2287.6</ele>
        <time>2018-12-27T13:07:10Z</time>
      </trkpt>
      <trkpt lat="42.81086" lon="-0.29931">
        <ele>2288.3</ele>
        <time>2018-12-27T13:07:11Z</time>
      </trkpt>
      <trkpt lat="42.81081" lon="-0.2994">
        <ele>2290</ele>
        <time>2018-12-27T13:07:13Z</time>
      </trkpt>
      <trkpt lat="42.81079" lon="-0.29948">
        <ele>2290.9</ele>
        <time>2018-12-27T13:07:15Z</time>
      </trkpt>
      <trkpt lat="42.81079" lon="-0.29958">
        <ele>2292</ele>
        <time>2018-12-27T13:07:17Z</time>
      </trkpt>
      <trkpt lat="42.81079" lon="-0.29963">
        <ele>2292.7</ele>
        <time>2018-12-27T13:07:18Z</time>
      </trkpt>
      <trkpt lat="42.81076" lon="-0.29966">
        <ele>2293.4</ele>
        <time>2018-12-27T13:07:19Z</time>
      </trkpt>
      <trkpt lat="42.81073" lon="-0.29973">
        <ele>2295</ele>
        <time>2018-12-27T13:07:21Z</time>
      </trkpt>
      <trkpt lat="42.81073" lon="-0.29973">
        <ele>2295</ele>
        <time>2018-12-27T13:07:21Z</time>
      </trkpt>
      <trkpt lat="42.81073" lon="-0.29975">
        <ele>2295.3</ele>
        <time>2018-12-27T13:07:21Z</time>
      </trkpt>
      <trkpt lat="42.81071" lon="-0.29982">
        <ele>2296.5</ele>
        <time>2018-12-27T13:07:23Z</time>
      </trkpt>
      <trkpt lat="42.81071" lon="-0.29983">
        <ele>2296.7</ele>
        <time>2018-12-27T13:07:23Z</time>
      </trkpt>
      <trkpt lat="42.81069" lon="-0.29988">
        <ele>2297.6</ele>
        <time>2018-12-27T13:07:24Z</time>
      </trkpt>
      <trkpt lat="42.81066" lon="-0.30002">
        <ele>2299.6</ele>
        <time>2018-12-27T13:07:27Z</time>
      </trkpt>
      <trkpt lat="42.81064" lon="-0.30014">
        <ele>2301.3</ele>
        <time>2018-12-27T13:07:29Z</time>
      </trkpt>
      <trkpt lat="42.81062" lon="-0.30026">
        <ele>2302.9</ele>
        <time>2018-12-27T13:07:32Z</time>
      </trkpt>
      <trkpt lat="42.8106" lon="-0.30037">
        <ele>2304.2</ele>
        <time>2018-12-27T13:07:34Z</time>
      </trkpt>
      <trkpt lat="42.8106" lon="-0.30038">
        <ele>2304.4</ele>
        <time>2018-12-27T13:07:34Z</time>
      </trkpt>
      <trkpt lat="42.81056" lon="-0.30041">
        <ele>2304.6</ele>
        <time>2018-12-27T13:07:35Z</time>
      </trkpt>
      <trkpt lat="42.81055" lon="-0.30041">
        <ele>2304.5</ele>
        <time>2018-12-27T13:07:35Z</time>
      </trkpt>
      <trkpt lat="42.81051" lon="-0.30044">
        <ele>2305.2</ele>
        <time>2018-12-27T13:07:37Z</time>
      </trkpt>
      <trkpt lat="42.81048" lon="-0.30047">
        <ele>2305.9</ele>
        <time>2018-12-27T13:07:38Z</time>
      </trkpt>
      <trkpt lat="42.81046" lon="-0.30049">
        <ele>2306.6</ele>
        <time>2018-12-27T13:07:38Z</time>
      </trkpt>
      <trkpt lat="42.81041" lon="-0.30058">
        <ele>2309.2</ele>
        <time>2018-12-27T13:07:40Z</time>
      </trkpt>
      <trkpt lat="42.81038" lon="-0.30068">
        <ele>2313.2</ele>
        <time>2018-12-27T13:07:43Z</time>
      </trkpt>
      <trkpt lat="42.81041" lon="-0.30078">
        <ele>2315.5</ele>
        <time>2018-12-27T13:07:45Z</time>
      </trkpt>
      <trkpt lat="42.81046" lon="-0.30079">
        <ele>2316</ele>
        <time>2018-12-27T13:07:46Z</time>
      </trkpt>
      <trkpt lat="42.81048" lon="-0.30078">
        <ele>2315.8</ele>
        <time>2018-12-27T13:07:47Z</time>
      </trkpt>
      <trkpt lat="42.81054" lon="-0.30075">
        <ele>2315</ele>
        <time>2018-12-27T13:07:49Z</time>
      </trkpt>
      <trkpt lat="42.81063" lon="-0.30072">
        <ele>2314.7</ele>
        <time>2018-12-27T13:07:51Z</time>
      </trkpt>
      <trkpt lat="42.81068" lon="-0.30075">
        <ele>2315.9</ele>
        <time>2018-12-27T13:07:52Z</time>
      </trkpt>
      <trkpt lat="42.81071" lon="-0.30077">
        <ele>2316.6</ele>
        <time>2018-12-27T13:07:53Z</time>
      </trkpt>
      <trkpt lat="42.81073" lon="-0.30079">
        <ele>2317.5</ele>
        <time>2018-12-27T13:07:54Z</time>
      </trkpt>
      <trkpt lat="42.81077" lon="-0.30084">
        <ele>2319.5</ele>
        <time>2018-12-27T13:07:55Z</time>
      </trkpt>
      <trkpt lat="42.81078" lon="-0.30087">
        <ele>2320.3</ele>
        <time>2018-12-27T13:07:56Z</time>
      </trkpt>
      <trkpt lat="42.81081" lon="-0.30092">
        <ele>2322.3</ele>
        <time>2018-12-27T13:07:57Z</time>
      </trkpt>
      <trkpt lat="42.81082" lon="-0.30092">
        <ele>2322.2</ele>
        <time>2018-12-27T13:07:58Z</time>
      </trkpt>
      <trkpt lat="42.81089" lon="-0.30089">
        <ele>2321.8</ele>
        <time>2018-12-27T13:07:59Z</time>
      </trkpt>
      <trkpt lat="42.81095" lon="-0.30082">
        <ele>2319.8</ele>
        <time>2018-12-27T13:08:02Z</time>
      </trkpt>
      <trkpt lat="42.81103" lon="-0.30078">
        <ele>2319</ele>
        <time>2018-12-27T13:08:04Z</time>
      </trkpt>
      <trkpt lat="42.81109" lon="-0.30078">
        <ele>2319.2</ele>
        <time>2018-12-27T13:08:06Z</time>
      </trkpt>
      <trkpt lat="42.81112" lon="-0.30076">
        <ele>2318.8</ele>
        <time>2018-12-27T13:08:06Z</time>
      </trkpt>
      <trkpt lat="42.81113" lon="-0.30076">
        <ele>2318.9</ele>
        <time>2018-12-27T13:08:07Z</time>
      </trkpt>
      <trkpt lat="42.81114" lon="-0.30077">
        <ele>2319.1</ele>
        <time>2018-12-27T13:08:07Z</time>
      </trkpt>
      <trkpt lat="42.81117" lon="-0.30077">
        <ele>2319.4</ele>
        <time>2018-12-27T13:08:08Z</time>
      </trkpt>
      <trkpt lat="42.8112" lon="-0.30076">
        <ele>2319.3</ele>
        <time>2018-12-27T13:08:09Z</time>
      </trkpt>
      <trkpt lat="42.81121" lon="-0.30076">
        <ele>2319.5</ele>
        <time>2018-12-27T13:08:09Z</time>
      </trkpt>
      <trkpt lat="42.81127" lon="-0.30079">
        <ele>2321.3</ele>
        <time>2018-12-27T13:08:11Z</time>
      </trkpt>
      <trkpt lat="42.81131" lon="-0.3008">
        <ele>2322.4</ele>
        <time>2018-12-27T13:08:11Z</time>
      </trkpt>
      <trkpt lat="42.81135" lon="-0.3008">
        <ele>2323.5</ele>
        <time>2018-12-27T13:08:13Z</time>
      </trkpt>
      <trkpt lat="42.8114" lon="-0.30079">
        <ele>2324.7</ele>
        <time>2018-12-27T13:08:14Z</time>
      </trkpt>
      <trkpt lat="42.81144" lon="-0.30079">
        <ele>2325.8</ele>
        <time>2018-12-27T13:08:15Z</time>
      </trkpt>
      <trkpt lat="42.81144" lon="-0.30081">
        <ele>2326.4</ele>
        <time>2018-12-27T13:08:16Z</time>
      </trkpt>
      <trkpt lat="42.81139" lon="-0.30091">
        <ele>2328.2</ele>
        <time>2018-12-27T13:08:18Z</time>
      </trkpt>
      <trkpt lat="42.81133" lon="-0.30098">
        <ele>2329.1</ele>
        <time>2018-12-27T13:08:20Z</time>
      </trkpt>
      <trkpt lat="42.81131" lon="-0.301">
        <ele>2329.1</ele>
        <time>2018-12-27T13:08:21Z</time>
      </trkpt>
      <trkpt lat="42.81126" lon="-0.30105">
        <ele>2329.6</ele>
        <time>2018-12-27T13:08:22Z</time>
      </trkpt>
      <trkpt lat="42.81123" lon="-0.30117">
        <ele>2333</ele>
        <time>2018-12-27T13:08:25Z</time>
      </trkpt>
      <trkpt lat="42.81121" lon="-0.30126">
        <ele>2335.9</ele>
        <time>2018-12-27T13:08:27Z</time>
      </trkpt>
      <trkpt lat="42.81117" lon="-0.30134">
        <ele>2337.5</ele>
        <time>2018-12-27T13:08:29Z</time>
      </trkpt>
      <trkpt lat="42.81115" lon="-0.30138">
        <ele>2338.3</ele>
        <time>2018-12-27T13:08:29Z</time>
      </trkpt>
      <trkpt lat="42.81113" lon="-0.30141">
        <ele>2338.9</ele>
        <time>2018-12-27T13:08:30Z</time>
      </trkpt>
      <trkpt lat="42.81114" lon="-0.30145">
        <ele>2339.9</ele>
        <time>2018-12-27T13:08:31Z</time>
      </trkpt>
      <trkpt lat="42.81116" lon="-0.30146">
        <ele>2340</ele>
        <time>2018-12-27T13:08:32Z</time>
      </trkpt>
      <trkpt lat="42.81118" lon="-0.30148">
        <ele>2340.6</ele>
        <time>2018-12-27T13:08:32Z</time>
      </trkpt>
      <trkpt lat="42.81123" lon="-0.30151">
        <ele>2341.7</ele>
        <time>2018-12-27T13:08:34Z</time>
      </trkpt>
      <trkpt lat="42.81125" lon="-0.30155">
        <ele>2342.7</ele>
        <time>2018-12-27T13:08:35Z</time>
      </trkpt>
      <trkpt lat="42.81124" lon="-0.30157">
        <ele>2342.9</ele>
        <time>2018-12-27T13:08:35Z</time>
      </trkpt>
      <trkpt lat="42.81121" lon="-0.30159">
        <ele>2343.2</ele>
        <time>2018-12-27T13:08:36Z</time>
      </trkpt>
      <trkpt lat="42.81118" lon="-0.30161">
        <ele>2343.7</ele>
        <time>2018-12-27T13:08:37Z</time>
      </trkpt>
      <trkpt lat="42.81118" lon="-0.30163">
        <ele>2343.9</ele>
        <time>2018-12-27T13:08:37Z</time>
      </trkpt>
      <trkpt lat="42.81119" lon="-0.30166">
        <ele>2344.7</ele>
        <time>2018-12-27T13:08:38Z</time>
      </trkpt>
      <trkpt lat="42.8112" lon="-0.30169">
        <ele>2345.5</ele>
        <time>2018-12-27T13:08:39Z</time>
      </trkpt>
      <trkpt lat="42.81124" lon="-0.30172">
        <ele>2346.2</ele>
        <time>2018-12-27T13:08:40Z</time>
      </trkpt>
      <trkpt lat="42.81127" lon="-0.30177">
        <ele>2347.4</ele>
        <time>2018-12-27T13:08:41Z</time>
      </trkpt>
      <trkpt lat="42.81125" lon="-0.30181">
        <ele>2348.1</ele>
        <time>2018-12-27T13:08:42Z</time>
      </trkpt>
      <trkpt lat="42.81117" lon="-0.30184">
        <ele>2348.8</ele>
        <time>2018-12-27T13:08:44Z</time>
      </trkpt>
      <trkpt lat="42.81107" lon="-0.30187">
        <ele>2349.5</ele>
        <time>2018-12-27T13:08:47Z</time>
      </trkpt>
      <trkpt lat="42.81102" lon="-0.30192">
        <ele>2350.6</ele>
        <time>2018-12-27T13:08:49Z</time>
      </trkpt>
      <trkpt lat="42.81101" lon="-0.30195">
        <ele>2351.2</ele>
        <time>2018-12-27T13:08:49Z</time>
      </trkpt>
      <trkpt lat="42.811" lon="-0.30198">
        <ele>2352.1</ele>
        <time>2018-12-27T13:08:50Z</time>
      </trkpt>
      <trkpt lat="42.81097" lon="-0.30204">
        <ele>2353.6</ele>
        <time>2018-12-27T13:08:51Z</time>
      </trkpt>
      <trkpt lat="42.81099" lon="-0.30215">
        <ele>2355.2</ele>
        <time>2018-12-27T13:08:54Z</time>
      </trkpt>
      <trkpt lat="42.81101" lon="-0.30227">
        <ele>2356.5</ele>
        <time>2018-12-27T13:08:56Z</time>
      </trkpt>
      <trkpt lat="42.81103" lon="-0.30233">
        <ele>2357</ele>
        <time>2018-12-27T13:08:57Z</time>
      </trkpt>
      <trkpt lat="42.81105" lon="-0.30238">
        <ele>2357.4</ele>
        <time>2018-12-27T13:08:59Z</time>
      </trkpt>
      <trkpt lat="42.81106" lon="-0.30242">
        <ele>2357.8</ele>
        <time>2018-12-27T13:08:59Z</time>
      </trkpt>
      <trkpt lat="42.81108" lon="-0.30247">
        <ele>2358.3</ele>
        <time>2018-12-27T13:09:01Z</time>
      </trkpt>
      <trkpt lat="42.81107" lon="-0.30259">
        <ele>2359.4</ele>
        <time>2018-12-27T13:09:03Z</time>
      </trkpt>
      <trkpt lat="42.81102" lon="-0.3027">
        <ele>2360.7</ele>
        <time>2018-12-27T13:09:05Z</time>
      </trkpt>
      <trkpt lat="42.81098" lon="-0.30282">
        <ele>2362.1</ele>
        <time>2018-12-27T13:09:08Z</time>
      </trkpt>
      <trkpt lat="42.81095" lon="-0.30292">
        <ele>2363.3</ele>
        <time>2018-12-27T13:09:10Z</time>
      </trkpt>
      <trkpt lat="42.81091" lon="-0.30307">
        <ele>2364.9</ele>
        <time>2018-12-27T13:09:13Z</time>
      </trkpt>
      <trkpt lat="42.81085" lon="-0.30322">
        <ele>2366.6</ele>
        <time>2018-12-27T13:09:16Z</time>
      </trkpt>
      <trkpt lat="42.81081" lon="-0.30334">
        <ele>2367.9</ele>
        <time>2018-12-27T13:09:19Z</time>
      </trkpt>
      <trkpt lat="42.81078" lon="-0.30348">
        <ele>2369.3</ele>
        <time>2018-12-27T13:09:22Z</time>
      </trkpt>
      <trkpt lat="42.81074" lon="-0.30357">
        <ele>2370.3</ele>
        <time>2018-12-27T13:09:24Z</time>
      </trkpt>
      <trkpt lat="42.81069" lon="-0.30369">
        <ele>2371.4</ele>
        <time>2018-12-27T13:09:27Z</time>
      </trkpt>
      <trkpt lat="42.81066" lon="-0.30376">
        <ele>2372.2</ele>
        <time>2018-12-27T13:09:28Z</time>
      </trkpt>
      <trkpt lat="42.81065" lon="-0.30379">
        <ele>2372.3</ele>
        <time>2018-12-27T13:09:29Z</time>
      </trkpt>
      <trkpt lat="42.81063" lon="-0.30386">
        <ele>2373</ele>
        <time>2018-12-27T13:09:30Z</time>
      </trkpt>
      <trkpt lat="42.81057" lon="-0.30395">
        <ele>2373.9</ele>
        <time>2018-12-27T13:09:33Z</time>
      </trkpt>
      <trkpt lat="42.8105" lon="-0.30406">
        <ele>2374.7</ele>
        <time>2018-12-27T13:09:36Z</time>
      </trkpt>
      <trkpt lat="42.81043" lon="-0.30415">
        <ele>2375.4</ele>
        <time>2018-12-27T13:09:38Z</time>
      </trkpt>
      <trkpt lat="42.81035" lon="-0.30423">
        <ele>2378.4</ele>
        <time>2018-12-27T13:09:41Z</time>
      </trkpt>
      <trkpt lat="42.81027" lon="-0.30429">
        <ele>2381.6</ele>
        <time>2018-12-27T13:09:43Z</time>
      </trkpt>
      <trkpt lat="42.81024" lon="-0.30437">
        <ele>2383.6</ele>
        <time>2018-12-27T13:09:45Z</time>
      </trkpt>
      <trkpt lat="42.81023" lon="-0.30439">
        <ele>2383.9</ele>
        <time>2018-12-27T13:09:45Z</time>
      </trkpt>
      <trkpt lat="42.8102" lon="-0.30445">
        <ele>2385.7</ele>
        <time>2018-12-27T13:09:47Z</time>
      </trkpt>
      <trkpt lat="42.8102" lon="-0.30447">
        <ele>2386</ele>
        <time>2018-12-27T13:09:47Z</time>
      </trkpt>
      <trkpt lat="42.8102" lon="-0.30448">
        <ele>2386.2</ele>
        <time>2018-12-27T13:09:48Z</time>
      </trkpt>
      <trkpt lat="42.81018" lon="-0.30452">
        <ele>2387.1</ele>
        <time>2018-12-27T13:09:48Z</time>
      </trkpt>
      <trkpt lat="42.81014" lon="-0.30463">
        <ele>2389.5</ele>
        <time>2018-12-27T13:09:51Z</time>
      </trkpt>
      <trkpt lat="42.8101" lon="-0.30474">
        <ele>2391.8</ele>
        <time>2018-12-27T13:09:53Z</time>
      </trkpt>
      <trkpt lat="42.81009" lon="-0.30476">
        <ele>2392.3</ele>
        <time>2018-12-27T13:09:54Z</time>
      </trkpt>
      <trkpt lat="42.81004" lon="-0.30485">
        <ele>2394.4</ele>
        <time>2018-12-27T13:09:56Z</time>
      </trkpt>
      <trkpt lat="42.80996" lon="-0.30491">
        <ele>2397.8</ele>
        <time>2018-12-27T13:09:58Z</time>
      </trkpt>
      <trkpt lat="42.80994" lon="-0.30493">
        <ele>2398.6</ele>
        <time>2018-12-27T13:09:59Z</time>
      </trkpt>
      <trkpt lat="42.80991" lon="-0.30493">
        <ele>2399.5</ele>
        <time>2018-12-27T13:10:00Z</time>
      </trkpt>
      <trkpt lat="42.80991" lon="-0.30493">
        <ele>2399.8</ele>
        <time>2018-12-27T13:10:00Z</time>
      </trkpt>
      <trkpt lat="42.80989" lon="-0.30493">
        <ele>2400.5</ele>
        <time>2018-12-27T13:10:00Z</time>
      </trkpt>
      <trkpt lat="42.80985" lon="-0.3049">
        <ele>2401.6</ele>
        <time>2018-12-27T13:10:01Z</time>
      </trkpt>
      <trkpt lat="42.80982" lon="-0.30492">
        <ele>2403.1</ele>
        <time>2018-12-27T13:10:02Z</time>
      </trkpt>
      <trkpt lat="42.80977" lon="-0.30492">
        <ele>2404.5</ele>
        <time>2018-12-27T13:10:04Z</time>
      </trkpt>
      <trkpt lat="42.80976" lon="-0.30486">
        <ele>2405</ele>
        <time>2018-12-27T13:10:05Z</time>
      </trkpt>
      <trkpt lat="42.80974" lon="-0.30486">
        <ele>2405.6</ele>
        <time>2018-12-27T13:10:05Z</time>
      </trkpt>
      <trkpt lat="42.80971" lon="-0.30486">
        <ele>2406.4</ele>
        <time>2018-12-27T13:10:06Z</time>
      </trkpt>
      <trkpt lat="42.80968" lon="-0.30486">
        <ele>2407.9</ele>
        <time>2018-12-27T13:10:07Z</time>
      </trkpt>
      <trkpt lat="42.80964" lon="-0.3049">
        <ele>2409.3</ele>
        <time>2018-12-27T13:10:08Z</time>
      </trkpt>
      <trkpt lat="42.80962" lon="-0.30489">
        <ele>2410.1</ele>
        <time>2018-12-27T13:10:09Z</time>
      </trkpt>
      <trkpt lat="42.8096" lon="-0.30486">
        <ele>2410.9</ele>
        <time>2018-12-27T13:10:10Z</time>
      </trkpt>
      <trkpt lat="42.80958" lon="-0.30484">
        <ele>2411.7</ele>
        <time>2018-12-27T13:10:10Z</time>
      </trkpt>
      <trkpt lat="42.80955" lon="-0.30481">
        <ele>2413.2</ele>
        <time>2018-12-27T13:10:11Z</time>
      </trkpt>
      <trkpt lat="42.80952" lon="-0.30481">
        <ele>2414.5</ele>
        <time>2018-12-27T13:10:12Z</time>
      </trkpt>
      <trkpt lat="42.80949" lon="-0.30475">
        <ele>2415.5</ele>
        <time>2018-12-27T13:10:13Z</time>
      </trkpt>
      <trkpt lat="42.80947" lon="-0.30472">
        <ele>2416.9</ele>
        <time>2018-12-27T13:10:14Z</time>
      </trkpt>
      <trkpt lat="42.80943" lon="-0.3047">
        <ele>2418.4</ele>
        <time>2018-12-27T13:10:15Z</time>
      </trkpt>
      <trkpt lat="42.80942" lon="-0.30472">
        <ele>2419.6</ele>
        <time>2018-12-27T13:10:16Z</time>
      </trkpt>
      <trkpt lat="42.80942" lon="-0.30478">
        <ele>2419.9</ele>
        <time>2018-12-27T13:10:17Z</time>
      </trkpt>
      <trkpt lat="42.80939" lon="-0.30479">
        <ele>2421.4</ele>
        <time>2018-12-27T13:10:18Z</time>
      </trkpt>
      <trkpt lat="42.80935" lon="-0.30478">
        <ele>2423.2</ele>
        <time>2018-12-27T13:10:19Z</time>
      </trkpt>
      <trkpt lat="42.80935" lon="-0.30482">
        <ele>2423.5</ele>
        <time>2018-12-27T13:10:19Z</time>
      </trkpt>
      <trkpt lat="42.80931" lon="-0.30486">
        <ele>2425.9</ele>
        <time>2018-12-27T13:10:21Z</time>
      </trkpt>
      <trkpt lat="42.8093" lon="-0.30486">
        <ele>2426.1</ele>
        <time>2018-12-27T13:10:21Z</time>
      </trkpt>
      <trkpt lat="42.80926" lon="-0.30488">
        <ele>2428.5</ele>
        <time>2018-12-27T13:10:22Z</time>
      </trkpt>
      <trkpt lat="42.80924" lon="-0.30494">
        <ele>2429.8</ele>
        <time>2018-12-27T13:10:23Z</time>
      </trkpt>
      <trkpt lat="42.80923" lon="-0.30498">
        <ele>2430.6</ele>
        <time>2018-12-27T13:10:24Z</time>
      </trkpt>
      <trkpt lat="42.80918" lon="-0.30503">
        <ele>2433.7</ele>
        <time>2018-12-27T13:10:26Z</time>
      </trkpt>
      <trkpt lat="42.80915" lon="-0.30503">
        <ele>2435.1</ele>
        <time>2018-12-27T13:10:27Z</time>
      </trkpt>
      <trkpt lat="42.80912" lon="-0.30504">
        <ele>2436.6</ele>
        <time>2018-12-27T13:10:28Z</time>
      </trkpt>
      <trkpt lat="42.80909" lon="-0.30507">
        <ele>2438.2</ele>
        <time>2018-12-27T13:10:29Z</time>
      </trkpt>
      <trkpt lat="42.80909" lon="-0.30507">
        <ele>2438.4</ele>
        <time>2018-12-27T13:10:29Z</time>
      </trkpt>
      <trkpt lat="42.80909" lon="-0.30508">
        <ele>2438.6</ele>
        <time>2018-12-27T13:10:29Z</time>
      </trkpt>
      <trkpt lat="42.80908" lon="-0.3051">
        <ele>2439.3</ele>
        <time>2018-12-27T13:10:29Z</time>
      </trkpt>
      <trkpt lat="42.80904" lon="-0.30515">
        <ele>2441.8</ele>
        <time>2018-12-27T13:10:31Z</time>
      </trkpt>
      <trkpt lat="42.80902" lon="-0.30524">
        <ele>2442.9</ele>
        <time>2018-12-27T13:10:33Z</time>
      </trkpt>
      <trkpt lat="42.80901" lon="-0.3053">
        <ele>2443.6</ele>
        <time>2018-12-27T13:10:34Z</time>
      </trkpt>
      <trkpt lat="42.80902" lon="-0.30531">
        <ele>2443.5</ele>
        <time>2018-12-27T13:10:34Z</time>
      </trkpt>
      <trkpt lat="42.80902" lon="-0.30539">
        <ele>2443.8</ele>
        <time>2018-12-27T13:10:36Z</time>
      </trkpt>
      <trkpt lat="42.80899" lon="-0.30542">
        <ele>2445.2</ele>
        <time>2018-12-27T13:10:36Z</time>
      </trkpt>
      <trkpt lat="42.80896" lon="-0.3054">
        <ele>2447</ele>
        <time>2018-12-27T13:10:37Z</time>
      </trkpt>
      <trkpt lat="42.80895" lon="-0.30542">
        <ele>2447.5</ele>
        <time>2018-12-27T13:10:38Z</time>
      </trkpt>
      <trkpt lat="42.80894" lon="-0.30547">
        <ele>2448.5</ele>
        <time>2018-12-27T13:10:39Z</time>
      </trkpt>
      <trkpt lat="42.80894" lon="-0.30551">
        <ele>2448.7</ele>
        <time>2018-12-27T13:10:40Z</time>
      </trkpt>
      <trkpt lat="42.80892" lon="-0.30562">
        <ele>2450.2</ele>
        <time>2018-12-27T13:10:42Z</time>
      </trkpt>
      <trkpt lat="42.80889" lon="-0.30563">
        <ele>2452.3</ele>
        <time>2018-12-27T13:10:43Z</time>
      </trkpt>
      <trkpt lat="42.80885" lon="-0.30559">
        <ele>2453.9</ele>
        <time>2018-12-27T13:10:44Z</time>
      </trkpt>
      <trkpt lat="42.80884" lon="-0.30559">
        <ele>2454.2</ele>
        <time>2018-12-27T13:10:44Z</time>
      </trkpt>
      <trkpt lat="42.80884" lon="-0.30559">
        <ele>2454.7</ele>
        <time>2018-12-27T13:10:45Z</time>
      </trkpt>
      <trkpt lat="42.80882" lon="-0.3056">
        <ele>2455.6</ele>
        <time>2018-12-27T13:10:45Z</time>
      </trkpt>
      <trkpt lat="42.80881" lon="-0.30561">
        <ele>2456.1</ele>
        <time>2018-12-27T13:10:45Z</time>
      </trkpt>
      <trkpt lat="42.80879" lon="-0.30558">
        <ele>2456.8</ele>
        <time>2018-12-27T13:10:46Z</time>
      </trkpt>
      <trkpt lat="42.80875" lon="-0.30559">
        <ele>2458.9</ele>
        <time>2018-12-27T13:10:47Z</time>
      </trkpt>
      <trkpt lat="42.80871" lon="-0.30563">
        <ele>2461</ele>
        <time>2018-12-27T13:10:48Z</time>
      </trkpt>
      <trkpt lat="42.80868" lon="-0.30565">
        <ele>2462.8</ele>
        <time>2018-12-27T13:10:50Z</time>
      </trkpt>
      <trkpt lat="42.80864" lon="-0.3057">
        <ele>2464.5</ele>
        <time>2018-12-27T13:10:51Z</time>
      </trkpt>
      <trkpt lat="42.80863" lon="-0.30575">
        <ele>2465.1</ele>
        <time>2018-12-27T13:10:52Z</time>
      </trkpt>
      <trkpt lat="42.80862" lon="-0.30577">
        <ele>2465.5</ele>
        <time>2018-12-27T13:10:52Z</time>
      </trkpt>
      <trkpt lat="42.8086" lon="-0.30584">
        <ele>2466.4</ele>
        <time>2018-12-27T13:10:54Z</time>
      </trkpt>
      <trkpt lat="42.80858" lon="-0.30587">
        <ele>2467.2</ele>
        <time>2018-12-27T13:10:55Z</time>
      </trkpt>
      <trkpt lat="42.80857" lon="-0.30594">
        <ele>2467.7</ele>
        <time>2018-12-27T13:10:56Z</time>
      </trkpt>
      <trkpt lat="42.80856" lon="-0.30601">
        <ele>2468.1</ele>
        <time>2018-12-27T13:10:58Z</time>
      </trkpt>
      <trkpt lat="42.80857" lon="-0.30613">
        <ele>2467.5</ele>
        <time>2018-12-27T13:11:00Z</time>
      </trkpt>
      <trkpt lat="42.80858" lon="-0.3062">
        <ele>2467.4</ele>
        <time>2018-12-27T13:11:01Z</time>
      </trkpt>
      <trkpt lat="42.80859" lon="-0.30625">
        <ele>2467.1</ele>
        <time>2018-12-27T13:11:02Z</time>
      </trkpt>
      <trkpt lat="42.80859" lon="-0.30626">
        <ele>2467.2</ele>
        <time>2018-12-27T13:11:03Z</time>
      </trkpt>
      <trkpt lat="42.80863" lon="-0.30637">
        <ele>2467.9</ele>
        <time>2018-12-27T13:11:05Z</time>
      </trkpt>
      <trkpt lat="42.80862" lon="-0.30638">
        <ele>2468.4</ele>
        <time>2018-12-27T13:11:05Z</time>
      </trkpt>
      <trkpt lat="42.80861" lon="-0.30646">
        <ele>2470</ele>
        <time>2018-12-27T13:11:07Z</time>
      </trkpt>
      <trkpt lat="42.80862" lon="-0.30647">
        <ele>2470</ele>
        <time>2018-12-27T13:11:07Z</time>
      </trkpt>
      <trkpt lat="42.80864" lon="-0.30652">
        <ele>2470.2</ele>
        <time>2018-12-27T13:11:08Z</time>
      </trkpt>
      <trkpt lat="42.80865" lon="-0.30653">
        <ele>2470</ele>
        <time>2018-12-27T13:11:08Z</time>
      </trkpt>
      <trkpt lat="42.80866" lon="-0.30654">
        <ele>2470.2</ele>
        <time>2018-12-27T13:11:09Z</time>
      </trkpt>
      <trkpt lat="42.80863" lon="-0.30659">
        <ele>2471.4</ele>
        <time>2018-12-27T13:11:10Z</time>
      </trkpt>
      <trkpt lat="42.80859" lon="-0.30664">
        <ele>2473.2</ele>
        <time>2018-12-27T13:11:11Z</time>
      </trkpt>
      <trkpt lat="42.80858" lon="-0.30666">
        <ele>2473.8</ele>
        <time>2018-12-27T13:11:12Z</time>
      </trkpt>
      <trkpt lat="42.80858" lon="-0.30667">
        <ele>2474.1</ele>
        <time>2018-12-27T13:11:12Z</time>
      </trkpt>
      <trkpt lat="42.80859" lon="-0.30672">
        <ele>2474.6</ele>
        <time>2018-12-27T13:11:13Z</time>
      </trkpt>
      <trkpt lat="42.80858" lon="-0.30679">
        <ele>2476.1</ele>
        <time>2018-12-27T13:11:14Z</time>
      </trkpt>
      <trkpt lat="42.80858" lon="-0.30682">
        <ele>2476.6</ele>
        <time>2018-12-27T13:11:15Z</time>
      </trkpt>
      <trkpt lat="42.80856" lon="-0.3069">
        <ele>2478.4</ele>
        <time>2018-12-27T13:11:17Z</time>
      </trkpt>
      <trkpt lat="42.80854" lon="-0.30692">
        <ele>2479</ele>
        <time>2018-12-27T13:11:17Z</time>
      </trkpt>
      <trkpt lat="42.8085" lon="-0.30693">
        <ele>2480.2</ele>
        <time>2018-12-27T13:11:18Z</time>
      </trkpt>
      <trkpt lat="42.80847" lon="-0.30694">
        <ele>2481.3</ele>
        <time>2018-12-27T13:11:19Z</time>
      </trkpt>
      <trkpt lat="42.80846" lon="-0.30699">
        <ele>2482.7</ele>
        <time>2018-12-27T13:11:20Z</time>
      </trkpt>
      <trkpt lat="42.80845" lon="-0.30708">
        <ele>2484.4</ele>
        <time>2018-12-27T13:11:22Z</time>
      </trkpt>
      <trkpt lat="42.80842" lon="-0.30713">
        <ele>2487</ele>
        <time>2018-12-27T13:11:23Z</time>
      </trkpt>
      <trkpt lat="42.80842" lon="-0.30715">
        <ele>2487.8</ele>
        <time>2018-12-27T13:11:23Z</time>
      </trkpt>
      <trkpt lat="42.80835" lon="-0.3072">
        <ele>2491.8</ele>
        <time>2018-12-27T13:11:25Z</time>
      </trkpt>
      <trkpt lat="42.80834" lon="-0.30721">
        <ele>2492.5</ele>
        <time>2018-12-27T13:11:26Z</time>
      </trkpt>
      <trkpt lat="42.80829" lon="-0.30721">
        <ele>2494</ele>
        <time>2018-12-27T13:11:27Z</time>
      </trkpt>
      <trkpt lat="42.80828" lon="-0.3072">
        <ele>2493.9</ele>
        <time>2018-12-27T13:11:27Z</time>
      </trkpt>
      <trkpt lat="42.80824" lon="-0.3072">
        <ele>2494.9</ele>
        <time>2018-12-27T13:11:29Z</time>
      </trkpt>
      <trkpt lat="42.80818" lon="-0.30722">
        <ele>2497.4</ele>
        <time>2018-12-27T13:11:30Z</time>
      </trkpt>
      <trkpt lat="42.80818" lon="-0.30724">
        <ele>2498.1</ele>
        <time>2018-12-27T13:11:31Z</time>
      </trkpt>
      <trkpt lat="42.80819" lon="-0.30725">
        <ele>2498.2</ele>
        <time>2018-12-27T13:11:31Z</time>
      </trkpt>
      <trkpt lat="42.80821" lon="-0.30729">
        <ele>2499.2</ele>
        <time>2018-12-27T13:11:32Z</time>
      </trkpt>
      <trkpt lat="42.80825" lon="-0.30735">
        <ele>2500.7</ele>
        <time>2018-12-27T13:11:34Z</time>
      </trkpt>
      <trkpt lat="42.80827" lon="-0.30741">
        <ele>2502.5</ele>
        <time>2018-12-27T13:11:35Z</time>
      </trkpt>
      <trkpt lat="42.80827" lon="-0.30742">
        <ele>2502.8</ele>
        <time>2018-12-27T13:11:35Z</time>
      </trkpt>
      <trkpt lat="42.80826" lon="-0.30745">
        <ele>2504.1</ele>
        <time>2018-12-27T13:11:36Z</time>
      </trkpt>
      <trkpt lat="42.80826" lon="-0.30746">
        <ele>2504.6</ele>
        <time>2018-12-27T13:11:36Z</time>
      </trkpt>
      <trkpt lat="42.80827" lon="-0.30748">
        <ele>2505.5</ele>
        <time>2018-12-27T13:11:36Z</time>
      </trkpt>
      <trkpt lat="42.80827" lon="-0.30754">
        <ele>2507.8</ele>
        <time>2018-12-27T13:11:38Z</time>
      </trkpt>
      <trkpt lat="42.80827" lon="-0.30761">
        <ele>2510.4</ele>
        <time>2018-12-27T13:11:39Z</time>
      </trkpt>
      <trkpt lat="42.80829" lon="-0.30766">
        <ele>2512.2</ele>
        <time>2018-12-27T13:11:40Z</time>
      </trkpt>
      <trkpt lat="42.80826" lon="-0.3077">
        <ele>2514.4</ele>
        <time>2018-12-27T13:11:41Z</time>
      </trkpt>
      <trkpt lat="42.8082" lon="-0.30772">
        <ele>2517</ele>
        <time>2018-12-27T13:11:43Z</time>
      </trkpt>
      <trkpt lat="42.80818" lon="-0.30774">
        <ele>2517.9</ele>
        <time>2018-12-27T13:11:43Z</time>
      </trkpt>
      <trkpt lat="42.80819" lon="-0.30777">
        <ele>2518.8</ele>
        <time>2018-12-27T13:11:44Z</time>
      </trkpt>
      <trkpt lat="42.8082" lon="-0.30779">
        <ele>2519.4</ele>
        <time>2018-12-27T13:11:45Z</time>
      </trkpt>
      <trkpt lat="42.80826" lon="-0.30783">
        <ele>2519.8</ele>
        <time>2018-12-27T13:11:46Z</time>
      </trkpt>
      <trkpt lat="42.80826" lon="-0.30784">
        <ele>2520.1</ele>
        <time>2018-12-27T13:11:47Z</time>
      </trkpt>
      <trkpt lat="42.80823" lon="-0.30785">
        <ele>2521.2</ele>
        <time>2018-12-27T13:11:47Z</time>
      </trkpt>
      <trkpt lat="42.80817" lon="-0.30787">
        <ele>2523.3</ele>
        <time>2018-12-27T13:11:49Z</time>
      </trkpt>
      <trkpt lat="42.80815" lon="-0.30789">
        <ele>2524.4</ele>
        <time>2018-12-27T13:11:50Z</time>
      </trkpt>
      <trkpt lat="42.80814" lon="-0.30791">
        <ele>2525.8</ele>
        <time>2018-12-27T13:11:50Z</time>
      </trkpt>
      <trkpt lat="42.8081" lon="-0.30795">
        <ele>2528.9</ele>
        <time>2018-12-27T13:11:52Z</time>
      </trkpt>
      <trkpt lat="42.80804" lon="-0.30803">
        <ele>2534.4</ele>
        <time>2018-12-27T13:11:54Z</time>
      </trkpt>
      <trkpt lat="42.80801" lon="-0.30806">
        <ele>2537.4</ele>
        <time>2018-12-27T13:11:55Z</time>
      </trkpt>
      <trkpt lat="42.80797" lon="-0.30809">
        <ele>2539.4</ele>
        <time>2018-12-27T13:11:56Z</time>
      </trkpt>
      <trkpt lat="42.80788" lon="-0.30813">
        <ele>2543.5</ele>
        <time>2018-12-27T13:11:59Z</time>
      </trkpt>
      <trkpt lat="42.80784" lon="-0.30815">
        <ele>2545.3</ele>
        <time>2018-12-27T13:12:00Z</time>
      </trkpt>
      <trkpt lat="42.80782" lon="-0.30816">
        <ele>2546</ele>
        <time>2018-12-27T13:12:00Z</time>
      </trkpt>
      <trkpt lat="42.80776" lon="-0.30818">
        <ele>2548.1</ele>
        <time>2018-12-27T13:12:02Z</time>
      </trkpt>
      <trkpt lat="42.80773" lon="-0.30818">
        <ele>2548.6</ele>
        <time>2018-12-27T13:12:03Z</time>
      </trkpt>
      <trkpt lat="42.80769" lon="-0.3082">
        <ele>2550.4</ele>
        <time>2018-12-27T13:12:04Z</time>
      </trkpt>
      <trkpt lat="42.80767" lon="-0.3082">
        <ele>2550.6</ele>
        <time>2018-12-27T13:12:04Z</time>
      </trkpt>
      <trkpt lat="42.80762" lon="-0.30821">
        <ele>2551.7</ele>
        <time>2018-12-27T13:12:06Z</time>
      </trkpt>
      <trkpt lat="42.80761" lon="-0.30821">
        <ele>2552.2</ele>
        <time>2018-12-27T13:12:06Z</time>
      </trkpt>
      <trkpt lat="42.80758" lon="-0.30821">
        <ele>2552.4</ele>
        <time>2018-12-27T13:12:07Z</time>
      </trkpt>
      <trkpt lat="42.80755" lon="-0.30821">
        <ele>2553.2</ele>
        <time>2018-12-27T13:12:08Z</time>
      </trkpt>
      <trkpt lat="42.80749" lon="-0.30822">
        <ele>2554.5</ele>
        <time>2018-12-27T13:12:09Z</time>
      </trkpt>
      <trkpt lat="42.80743" lon="-0.3082">
        <ele>2554.8</ele>
        <time>2018-12-27T13:12:11Z</time>
      </trkpt>
      <trkpt lat="42.80742" lon="-0.30821">
        <ele>2554.9</ele>
        <time>2018-12-27T13:12:11Z</time>
      </trkpt>
      <trkpt lat="42.8074" lon="-0.30821">
        <ele>2555.2</ele>
        <time>2018-12-27T13:12:12Z</time>
      </trkpt>
      <trkpt lat="42.80736" lon="-0.30819">
        <ele>2555.5</ele>
        <time>2018-12-27T13:12:13Z</time>
      </trkpt>
      <trkpt lat="42.80728" lon="-0.30817">
        <ele>2556.1</ele>
        <time>2018-12-27T13:12:15Z</time>
      </trkpt>
      <trkpt lat="42.80727" lon="-0.30817">
        <ele>2556.1</ele>
        <time>2018-12-27T13:12:15Z</time>
      </trkpt>
      <trkpt lat="42.80721" lon="-0.30812">
        <ele>2555.8</ele>
        <time>2018-12-27T13:12:17Z</time>
      </trkpt>
      <trkpt lat="42.80717" lon="-0.30808">
        <ele>2555.5</ele>
        <time>2018-12-27T13:12:18Z</time>
      </trkpt>
      <trkpt lat="42.80716" lon="-0.30808">
        <ele>2555.7</ele>
        <time>2018-12-27T13:12:19Z</time>
      </trkpt>
      <trkpt lat="42.8071" lon="-0.30803">
        <ele>2555.6</ele>
        <time>2018-12-27T13:12:20Z</time>
      </trkpt>
      <trkpt lat="42.8071" lon="-0.30806">
        <ele>2556.3</ele>
        <time>2018-12-27T13:12:21Z</time>
      </trkpt>
      <trkpt lat="42.8071" lon="-0.30809">
        <ele>2557</ele>
        <time>2018-12-27T13:12:22Z</time>
      </trkpt>
      <trkpt lat="42.80709" lon="-0.30809">
        <ele>2557.2</ele>
        <time>2018-12-27T13:12:22Z</time>
      </trkpt>
      <trkpt lat="42.80704" lon="-0.30808">
        <ele>2554.4</ele>
        <time>2018-12-27T13:12:23Z</time>
      </trkpt>
      <trkpt lat="42.80703" lon="-0.30808">
        <ele>2553.4</ele>
        <time>2018-12-27T13:12:23Z</time>
      </trkpt>
      <trkpt lat="42.807" lon="-0.30808">
        <ele>2551.7</ele>
        <time>2018-12-27T13:12:24Z</time>
      </trkpt>
      <trkpt lat="42.80698" lon="-0.30803">
        <ele>2549.3</ele>
        <time>2018-12-27T13:12:25Z</time>
      </trkpt>
      <trkpt lat="42.80693" lon="-0.30802">
        <ele>2545.7</ele>
        <time>2018-12-27T13:12:27Z</time>
      </trkpt>
      <trkpt lat="42.8069" lon="-0.308">
        <ele>2543.4</ele>
        <time>2018-12-27T13:12:28Z</time>
      </trkpt>
      <trkpt lat="42.80688" lon="-0.30801">
        <ele>2542.6</ele>
        <time>2018-12-27T13:12:28Z</time>
      </trkpt>
      <trkpt lat="42.80687" lon="-0.30799">
        <ele>2541.4</ele>
        <time>2018-12-27T13:12:29Z</time>
      </trkpt>
      <trkpt lat="42.80684" lon="-0.30795">
        <ele>2539.2</ele>
        <time>2018-12-27T13:12:30Z</time>
      </trkpt>
      <trkpt lat="42.80684" lon="-0.30792">
        <ele>2537.9</ele>
        <time>2018-12-27T13:12:30Z</time>
      </trkpt>
      <trkpt lat="42.80682" lon="-0.30788">
        <ele>2536.9</ele>
        <time>2018-12-27T13:12:31Z</time>
      </trkpt>
      <trkpt lat="42.80681" lon="-0.30787">
        <ele>2536.2</ele>
        <time>2018-12-27T13:12:32Z</time>
      </trkpt>
      <trkpt lat="42.8068" lon="-0.30778">
        <ele>2536.1</ele>
        <time>2018-12-27T13:12:33Z</time>
      </trkpt>
      <trkpt lat="42.80679" lon="-0.30773">
        <ele>2535.2</ele>
        <time>2018-12-27T13:12:34Z</time>
      </trkpt>
      <trkpt lat="42.80677" lon="-0.3077">
        <ele>2534.3</ele>
        <time>2018-12-27T13:12:35Z</time>
      </trkpt>
      <trkpt lat="42.80676" lon="-0.30772">
        <ele>2533.7</ele>
        <time>2018-12-27T13:12:36Z</time>
      </trkpt>
      <trkpt lat="42.80674" lon="-0.30774">
        <ele>2532.6</ele>
        <time>2018-12-27T13:12:36Z</time>
      </trkpt>
      <trkpt lat="42.80672" lon="-0.30774">
        <ele>2531.6</ele>
        <time>2018-12-27T13:12:37Z</time>
      </trkpt>
      <trkpt lat="42.80669" lon="-0.30771">
        <ele>2530.2</ele>
        <time>2018-12-27T13:12:38Z</time>
      </trkpt>
      <trkpt lat="42.80669" lon="-0.30773">
        <ele>2530.1</ele>
        <time>2018-12-27T13:12:38Z</time>
      </trkpt>
      <trkpt lat="42.8067" lon="-0.30777">
        <ele>2530.4</ele>
        <time>2018-12-27T13:12:39Z</time>
      </trkpt>
      <trkpt lat="42.80669" lon="-0.3078">
        <ele>2529.4</ele>
        <time>2018-12-27T13:12:39Z</time>
      </trkpt>
      <trkpt lat="42.80667" lon="-0.30784">
        <ele>2528.1</ele>
        <time>2018-12-27T13:12:40Z</time>
      </trkpt>
      <trkpt lat="42.80665" lon="-0.3078">
        <ele>2527.1</ele>
        <time>2018-12-27T13:12:41Z</time>
      </trkpt>
      <trkpt lat="42.80663" lon="-0.3078">
        <ele>2526.1</ele>
        <time>2018-12-27T13:12:42Z</time>
      </trkpt>
      <trkpt lat="42.80661" lon="-0.30783">
        <ele>2524.5</ele>
        <time>2018-12-27T13:12:43Z</time>
      </trkpt>
      <trkpt lat="42.80661" lon="-0.30788">
        <ele>2524.2</ele>
        <time>2018-12-27T13:12:44Z</time>
      </trkpt>
      <trkpt lat="42.80658" lon="-0.30787">
        <ele>2522.8</ele>
        <time>2018-12-27T13:12:44Z</time>
      </trkpt>
      <trkpt lat="42.80659" lon="-0.3079">
        <ele>2522.6</ele>
        <time>2018-12-27T13:12:45Z</time>
      </trkpt>
      <trkpt lat="42.80662" lon="-0.3079">
        <ele>2524.5</ele>
        <time>2018-12-27T13:12:46Z</time>
      </trkpt>
      <trkpt lat="42.80661" lon="-0.30798">
        <ele>2524.8</ele>
        <time>2018-12-27T13:12:47Z</time>
      </trkpt>
      <trkpt lat="42.8066" lon="-0.308">
        <ele>2524.9</ele>
        <time>2018-12-27T13:12:48Z</time>
      </trkpt>
      <trkpt lat="42.80659" lon="-0.30805">
        <ele>2524.9</ele>
        <time>2018-12-27T13:12:49Z</time>
      </trkpt>
      <trkpt lat="42.80658" lon="-0.30806">
        <ele>2524</ele>
        <time>2018-12-27T13:12:49Z</time>
      </trkpt>
      <trkpt lat="42.80653" lon="-0.30804">
        <ele>2521.1</ele>
        <time>2018-12-27T13:12:50Z</time>
      </trkpt>
      <trkpt lat="42.80652" lon="-0.30805">
        <ele>2520.3</ele>
        <time>2018-12-27T13:12:51Z</time>
      </trkpt>
      <trkpt lat="42.80651" lon="-0.30807">
        <ele>2520.2</ele>
        <time>2018-12-27T13:12:51Z</time>
      </trkpt>
      <trkpt lat="42.80653" lon="-0.3082">
        <ele>2522.8</ele>
        <time>2018-12-27T13:12:54Z</time>
      </trkpt>
      <trkpt lat="42.80653" lon="-0.30824">
        <ele>2523.6</ele>
        <time>2018-12-27T13:12:55Z</time>
      </trkpt>
      <trkpt lat="42.80654" lon="-0.30838">
        <ele>2526.1</ele>
        <time>2018-12-27T13:12:57Z</time>
      </trkpt>
      <trkpt lat="42.80653" lon="-0.30848">
        <ele>2526.9</ele>
        <time>2018-12-27T13:12:59Z</time>
      </trkpt>
      <trkpt lat="42.80652" lon="-0.30856">
        <ele>2527.6</ele>
        <time>2018-12-27T13:13:01Z</time>
      </trkpt>
      <trkpt lat="42.8065" lon="-0.30869">
        <ele>2527.9</ele>
        <time>2018-12-27T13:13:03Z</time>
      </trkpt>
      <trkpt lat="42.80643" lon="-0.30883">
        <ele>2524.8</ele>
        <time>2018-12-27T13:13:07Z</time>
      </trkpt>
      <trkpt lat="42.80637" lon="-0.30898">
        <ele>2521.9</ele>
        <time>2018-12-27T13:13:10Z</time>
      </trkpt>
      <trkpt lat="42.80632" lon="-0.30911">
        <ele>2519.5</ele>
        <time>2018-12-27T13:13:13Z</time>
      </trkpt>
      <trkpt lat="42.80625" lon="-0.30925">
        <ele>2516.4</ele>
        <time>2018-12-27T13:13:16Z</time>
      </trkpt>
      <trkpt lat="42.80615" lon="-0.30937">
        <ele>2511.1</ele>
        <time>2018-12-27T13:13:20Z</time>
      </trkpt>
      <trkpt lat="42.80602" lon="-0.30948">
        <ele>2502.5</ele>
        <time>2018-12-27T13:13:24Z</time>
      </trkpt>
      <trkpt lat="42.80593" lon="-0.30957">
        <ele>2497.3</ele>
        <time>2018-12-27T13:13:27Z</time>
      </trkpt>
      <trkpt lat="42.80592" lon="-0.30957">
        <ele>2496.7</ele>
        <time>2018-12-27T13:13:27Z</time>
      </trkpt>
      <trkpt lat="42.80595" lon="-0.30949">
        <ele>2497.9</ele>
        <time>2018-12-27T13:13:29Z</time>
      </trkpt>
      <trkpt lat="42.80599" lon="-0.30935">
        <ele>2499.8</ele>
        <time>2018-12-27T13:13:32Z</time>
      </trkpt>
      <trkpt lat="42.80602" lon="-0.30918">
        <ele>2500.4</ele>
        <time>2018-12-27T13:13:35Z</time>
      </trkpt>
      <trkpt lat="42.80605" lon="-0.30905">
        <ele>2500.7</ele>
        <time>2018-12-27T13:13:38Z</time>
      </trkpt>
      <trkpt lat="42.80607" lon="-0.30891">
        <ele>2500.5</ele>
        <time>2018-12-27T13:13:41Z</time>
      </trkpt>
      <trkpt lat="42.80606" lon="-0.30873">
        <ele>2498.2</ele>
        <time>2018-12-27T13:13:44Z</time>
      </trkpt>
      <trkpt lat="42.80604" lon="-0.30853">
        <ele>2496</ele>
        <time>2018-12-27T13:13:48Z</time>
      </trkpt>
      <trkpt lat="42.80602" lon="-0.30851">
        <ele>2494.6</ele>
        <time>2018-12-27T13:13:49Z</time>
      </trkpt>
      <trkpt lat="42.806" lon="-0.30857">
        <ele>2493.7</ele>
        <time>2018-12-27T13:13:50Z</time>
      </trkpt>
      <trkpt lat="42.80594" lon="-0.30871">
        <ele>2491.4</ele>
        <time>2018-12-27T13:13:53Z</time>
      </trkpt>
      <trkpt lat="42.80592" lon="-0.30873">
        <ele>2490.9</ele>
        <time>2018-12-27T13:13:54Z</time>
      </trkpt>
      <trkpt lat="42.80591" lon="-0.30876">
        <ele>2490.2</ele>
        <time>2018-12-27T13:13:55Z</time>
      </trkpt>
      <trkpt lat="42.8059" lon="-0.30874">
        <ele>2489.8</ele>
        <time>2018-12-27T13:13:55Z</time>
      </trkpt>
      <trkpt lat="42.8059" lon="-0.30864">
        <ele>2489.2</ele>
        <time>2018-12-27T13:13:57Z</time>
      </trkpt>
      <trkpt lat="42.8059" lon="-0.30861">
        <ele>2488.9</ele>
        <time>2018-12-27T13:13:58Z</time>
      </trkpt>
      <trkpt lat="42.80591" lon="-0.30845">
        <ele>2488.5</ele>
        <time>2018-12-27T13:14:01Z</time>
      </trkpt>
      <trkpt lat="42.80592" lon="-0.3084">
        <ele>2488.3</ele>
        <time>2018-12-27T13:14:02Z</time>
      </trkpt>
      <trkpt lat="42.80591" lon="-0.30835">
        <ele>2487.5</ele>
        <time>2018-12-27T13:14:03Z</time>
      </trkpt>
      <trkpt lat="42.80589" lon="-0.30826">
        <ele>2485.8</ele>
        <time>2018-12-27T13:14:05Z</time>
      </trkpt>
      <trkpt lat="42.80586" lon="-0.30831">
        <ele>2484.8</ele>
        <time>2018-12-27T13:14:06Z</time>
      </trkpt>
      <trkpt lat="42.80582" lon="-0.30841">
        <ele>2483.3</ele>
        <time>2018-12-27T13:14:08Z</time>
      </trkpt>
      <trkpt lat="42.80581" lon="-0.30843">
        <ele>2482.9</ele>
        <time>2018-12-27T13:14:08Z</time>
      </trkpt>
      <trkpt lat="42.80576" lon="-0.30849">
        <ele>2480.3</ele>
        <time>2018-12-27T13:14:10Z</time>
      </trkpt>
      <trkpt lat="42.80574" lon="-0.3085">
        <ele>2479.4</ele>
        <time>2018-12-27T13:14:11Z</time>
      </trkpt>
      <trkpt lat="42.80566" lon="-0.30864">
        <ele>2476.1</ele>
        <time>2018-12-27T13:14:14Z</time>
      </trkpt>
      <trkpt lat="42.80558" lon="-0.30875">
        <ele>2471.7</ele>
        <time>2018-12-27T13:14:17Z</time>
      </trkpt>
      <trkpt lat="42.80554" lon="-0.30878">
        <ele>2469.7</ele>
        <time>2018-12-27T13:14:18Z</time>
      </trkpt>
      <trkpt lat="42.80547" lon="-0.30885">
        <ele>2465.5</ele>
        <time>2018-12-27T13:14:21Z</time>
      </trkpt>
      <trkpt lat="42.80537" lon="-0.30892">
        <ele>2460.3</ele>
        <time>2018-12-27T13:14:24Z</time>
      </trkpt>
      <trkpt lat="42.80528" lon="-0.309">
        <ele>2456.3</ele>
        <time>2018-12-27T13:14:26Z</time>
      </trkpt>
      <trkpt lat="42.80515" lon="-0.30903">
        <ele>2450.5</ele>
        <time>2018-12-27T13:14:30Z</time>
      </trkpt>
      <trkpt lat="42.80507" lon="-0.30905">
        <ele>2446.6</ele>
        <time>2018-12-27T13:14:32Z</time>
      </trkpt>
      <trkpt lat="42.80495" lon="-0.30903">
        <ele>2442</ele>
        <time>2018-12-27T13:14:35Z</time>
      </trkpt>
      <trkpt lat="42.8049" lon="-0.30903">
        <ele>2439.4</ele>
        <time>2018-12-27T13:14:37Z</time>
      </trkpt>
      <trkpt lat="42.80486" lon="-0.30902">
        <ele>2437.9</ele>
        <time>2018-12-27T13:14:38Z</time>
      </trkpt>
      <trkpt lat="42.80473" lon="-0.30899">
        <ele>2432.6</ele>
        <time>2018-12-27T13:14:42Z</time>
      </trkpt>
      <trkpt lat="42.80465" lon="-0.30895">
        <ele>2430</ele>
        <time>2018-12-27T13:14:44Z</time>
      </trkpt>
      <trkpt lat="42.80464" lon="-0.30892">
        <ele>2429.9</ele>
        <time>2018-12-27T13:14:44Z</time>
      </trkpt>
      <trkpt lat="42.80459" lon="-0.30879">
        <ele>2429.6</ele>
        <time>2018-12-27T13:14:47Z</time>
      </trkpt>
      <trkpt lat="42.8045" lon="-0.30869">
        <ele>2426.7</ele>
        <time>2018-12-27T13:14:50Z</time>
      </trkpt>
      <trkpt lat="42.80439" lon="-0.30864">
        <ele>2421.9</ele>
        <time>2018-12-27T13:14:53Z</time>
      </trkpt>
      <trkpt lat="42.80438" lon="-0.30867">
        <ele>2421.2</ele>
        <time>2018-12-27T13:14:54Z</time>
      </trkpt>
      <trkpt lat="42.8044" lon="-0.30879">
        <ele>2420.9</ele>
        <time>2018-12-27T13:14:56Z</time>
      </trkpt>
      <trkpt lat="42.80444" lon="-0.30898">
        <ele>2420.4</ele>
        <time>2018-12-27T13:15:00Z</time>
      </trkpt>
      <trkpt lat="42.80448" lon="-0.30915">
        <ele>2419.8</ele>
        <time>2018-12-27T13:15:04Z</time>
      </trkpt>
      <trkpt lat="42.80447" lon="-0.30924">
        <ele>2418.4</ele>
        <time>2018-12-27T13:15:05Z</time>
      </trkpt>
      <trkpt lat="42.80446" lon="-0.30929">
        <ele>2416.8</ele>
        <time>2018-12-27T13:15:07Z</time>
      </trkpt>
      <trkpt lat="42.80439" lon="-0.30939">
        <ele>2412.8</ele>
        <time>2018-12-27T13:15:09Z</time>
      </trkpt>
      <trkpt lat="42.80437" lon="-0.30942">
        <ele>2411.5</ele>
        <time>2018-12-27T13:15:10Z</time>
      </trkpt>
      <trkpt lat="42.80438" lon="-0.30947">
        <ele>2411.4</ele>
        <time>2018-12-27T13:15:11Z</time>
      </trkpt>
      <trkpt lat="42.80442" lon="-0.30957">
        <ele>2411.5</ele>
        <time>2018-12-27T13:15:13Z</time>
      </trkpt>
      <trkpt lat="42.80445" lon="-0.30962">
        <ele>2412.8</ele>
        <time>2018-12-27T13:15:15Z</time>
      </trkpt>
      <trkpt lat="42.8045" lon="-0.30975">
        <ele>2415.2</ele>
        <time>2018-12-27T13:15:17Z</time>
      </trkpt>
      <trkpt lat="42.80445" lon="-0.30972">
        <ele>2413.1</ele>
        <time>2018-12-27T13:15:19Z</time>
      </trkpt>
      <trkpt lat="42.80436" lon="-0.3097">
        <ele>2409.6</ele>
        <time>2018-12-27T13:15:21Z</time>
      </trkpt>
      <trkpt lat="42.80434" lon="-0.30969">
        <ele>2408.7</ele>
        <time>2018-12-27T13:15:22Z</time>
      </trkpt>
      <trkpt lat="42.8043" lon="-0.3097">
        <ele>2407.1</ele>
        <time>2018-12-27T13:15:23Z</time>
      </trkpt>
      <trkpt lat="42.80426" lon="-0.30974">
        <ele>2405.2</ele>
        <time>2018-12-27T13:15:24Z</time>
      </trkpt>
      <trkpt lat="42.80414" lon="-0.3098">
        <ele>2400.3</ele>
        <time>2018-12-27T13:15:27Z</time>
      </trkpt>
      <trkpt lat="42.80411" lon="-0.30981">
        <ele>2399</ele>
        <time>2018-12-27T13:15:28Z</time>
      </trkpt>
      <trkpt lat="42.80401" lon="-0.30986">
        <ele>2394.8</ele>
        <time>2018-12-27T13:15:31Z</time>
      </trkpt>
      <trkpt lat="42.80394" lon="-0.30994">
        <ele>2391.1</ele>
        <time>2018-12-27T13:15:34Z</time>
      </trkpt>
      <trkpt lat="42.80393" lon="-0.30997">
        <ele>2390.6</ele>
        <time>2018-12-27T13:15:34Z</time>
      </trkpt>
      <trkpt lat="42.80388" lon="-0.31004">
        <ele>2388.3</ele>
        <time>2018-12-27T13:15:36Z</time>
      </trkpt>
      <trkpt lat="42.8038" lon="-0.31014">
        <ele>2384.2</ele>
        <time>2018-12-27T13:15:39Z</time>
      </trkpt>
      <trkpt lat="42.80379" lon="-0.31016">
        <ele>2383.3</ele>
        <time>2018-12-27T13:15:40Z</time>
      </trkpt>
      <trkpt lat="42.80375" lon="-0.3103">
        <ele>2380.9</ele>
        <time>2018-12-27T13:15:42Z</time>
      </trkpt>
      <trkpt lat="42.80375" lon="-0.31031">
        <ele>2380.7</ele>
        <time>2018-12-27T13:15:43Z</time>
      </trkpt>
      <trkpt lat="42.80372" lon="-0.31028">
        <ele>2378.9</ele>
        <time>2018-12-27T13:15:44Z</time>
      </trkpt>
      <trkpt lat="42.80363" lon="-0.3101">
        <ele>2373.4</ele>
        <time>2018-12-27T13:15:48Z</time>
      </trkpt>
      <trkpt lat="42.80361" lon="-0.3101">
        <ele>2371.9</ele>
        <time>2018-12-27T13:15:49Z</time>
      </trkpt>
      <trkpt lat="42.8036" lon="-0.31016">
        <ele>2370.4</ele>
        <time>2018-12-27T13:15:50Z</time>
      </trkpt>
      <trkpt lat="42.80361" lon="-0.31026">
        <ele>2370.4</ele>
        <time>2018-12-27T13:15:52Z</time>
      </trkpt>
      <trkpt lat="42.80361" lon="-0.31032">
        <ele>2370</ele>
        <time>2018-12-27T13:15:53Z</time>
      </trkpt>
      <trkpt lat="42.8036" lon="-0.3105">
        <ele>2369.8</ele>
        <time>2018-12-27T13:15:56Z</time>
      </trkpt>
      <trkpt lat="42.80359" lon="-0.31062">
        <ele>2371.5</ele>
        <time>2018-12-27T13:15:59Z</time>
      </trkpt>
      <trkpt lat="42.80358" lon="-0.31061">
        <ele>2370.7</ele>
        <time>2018-12-27T13:15:59Z</time>
      </trkpt>
      <trkpt lat="42.80355" lon="-0.31055">
        <ele>2367.3</ele>
        <time>2018-12-27T13:16:01Z</time>
      </trkpt>
      <trkpt lat="42.80348" lon="-0.31036">
        <ele>2359.8</ele>
        <time>2018-12-27T13:16:05Z</time>
      </trkpt>
      <trkpt lat="42.80345" lon="-0.31031">
        <ele>2357.7</ele>
        <time>2018-12-27T13:16:06Z</time>
      </trkpt>
      <trkpt lat="42.80343" lon="-0.31033">
        <ele>2356.6</ele>
        <time>2018-12-27T13:16:06Z</time>
      </trkpt>
      <trkpt lat="42.80343" lon="-0.31043">
        <ele>2355.7</ele>
        <time>2018-12-27T13:16:09Z</time>
      </trkpt>
      <trkpt lat="42.80342" lon="-0.31049">
        <ele>2356</ele>
        <time>2018-12-27T13:16:10Z</time>
      </trkpt>
      <trkpt lat="42.80342" lon="-0.3106">
        <ele>2358.4</ele>
        <time>2018-12-27T13:16:12Z</time>
      </trkpt>
      <trkpt lat="42.80341" lon="-0.31072">
        <ele>2360.2</ele>
        <time>2018-12-27T13:16:14Z</time>
      </trkpt>
      <trkpt lat="42.80341" lon="-0.31074">
        <ele>2360.1</ele>
        <time>2018-12-27T13:16:15Z</time>
      </trkpt>
      <trkpt lat="42.80339" lon="-0.31078">
        <ele>2359.8</ele>
        <time>2018-12-27T13:16:16Z</time>
      </trkpt>
      <trkpt lat="42.80338" lon="-0.31076">
        <ele>2358.4</ele>
        <time>2018-12-27T13:16:16Z</time>
      </trkpt>
      <trkpt lat="42.80336" lon="-0.31067">
        <ele>2354.9</ele>
        <time>2018-12-27T13:16:18Z</time>
      </trkpt>
      <trkpt lat="42.80333" lon="-0.31062">
        <ele>2352.2</ele>
        <time>2018-12-27T13:16:19Z</time>
      </trkpt>
      <trkpt lat="42.80332" lon="-0.31061">
        <ele>2350.8</ele>
        <time>2018-12-27T13:16:20Z</time>
      </trkpt>
      <trkpt lat="42.8033" lon="-0.31066">
        <ele>2350</ele>
        <time>2018-12-27T13:16:21Z</time>
      </trkpt>
      <trkpt lat="42.8033" lon="-0.31076">
        <ele>2352.1</ele>
        <time>2018-12-27T13:16:23Z</time>
      </trkpt>
      <trkpt lat="42.8033" lon="-0.31079">
        <ele>2352.6</ele>
        <time>2018-12-27T13:16:23Z</time>
      </trkpt>
      <trkpt lat="42.80327" lon="-0.31094">
        <ele>2353.4</ele>
        <time>2018-12-27T13:16:26Z</time>
      </trkpt>
      <trkpt lat="42.80324" lon="-0.31102">
        <ele>2352.5</ele>
        <time>2018-12-27T13:16:28Z</time>
      </trkpt>
      <trkpt lat="42.80322" lon="-0.31101">
        <ele>2350.9</ele>
        <time>2018-12-27T13:16:29Z</time>
      </trkpt>
      <trkpt lat="42.80318" lon="-0.3109">
        <ele>2345.6</ele>
        <time>2018-12-27T13:16:31Z</time>
      </trkpt>
      <trkpt lat="42.80315" lon="-0.31085">
        <ele>2342.1</ele>
        <time>2018-12-27T13:16:32Z</time>
      </trkpt>
      <trkpt lat="42.80315" lon="-0.3108">
        <ele>2341.2</ele>
        <time>2018-12-27T13:16:33Z</time>
      </trkpt>
      <trkpt lat="42.80313" lon="-0.31065">
        <ele>2337.2</ele>
        <time>2018-12-27T13:16:36Z</time>
      </trkpt>
      <trkpt lat="42.80313" lon="-0.31057">
        <ele>2335.2</ele>
        <time>2018-12-27T13:16:38Z</time>
      </trkpt>
      <trkpt lat="42.80311" lon="-0.31052">
        <ele>2333.2</ele>
        <time>2018-12-27T13:16:39Z</time>
      </trkpt>
      <trkpt lat="42.80306" lon="-0.3104">
        <ele>2327.7</ele>
        <time>2018-12-27T13:16:42Z</time>
      </trkpt>
      <trkpt lat="42.80306" lon="-0.31033">
        <ele>2328.3</ele>
        <time>2018-12-27T13:16:43Z</time>
      </trkpt>
      <trkpt lat="42.80303" lon="-0.31031">
        <ele>2327</ele>
        <time>2018-12-27T13:16:44Z</time>
      </trkpt>
      <trkpt lat="42.803" lon="-0.31025">
        <ele>2325.5</ele>
        <time>2018-12-27T13:16:45Z</time>
      </trkpt>
      <trkpt lat="42.80299" lon="-0.31024">
        <ele>2325</ele>
        <time>2018-12-27T13:16:46Z</time>
      </trkpt>
      <trkpt lat="42.80295" lon="-0.31024">
        <ele>2322.2</ele>
        <time>2018-12-27T13:16:47Z</time>
      </trkpt>
      <trkpt lat="42.80296" lon="-0.31027">
        <ele>2321.7</ele>
        <time>2018-12-27T13:16:47Z</time>
      </trkpt>
      <trkpt lat="42.80292" lon="-0.31027">
        <ele>2319.1</ele>
        <time>2018-12-27T13:16:48Z</time>
      </trkpt>
      <trkpt lat="42.80289" lon="-0.31032">
        <ele>2315.8</ele>
        <time>2018-12-27T13:16:49Z</time>
      </trkpt>
      <trkpt lat="42.80289" lon="-0.31036">
        <ele>2315.3</ele>
        <time>2018-12-27T13:16:50Z</time>
      </trkpt>
      <trkpt lat="42.80291" lon="-0.31048">
        <ele>2317</ele>
        <time>2018-12-27T13:16:53Z</time>
      </trkpt>
      <trkpt lat="42.80291" lon="-0.31064">
        <ele>2319.7</ele>
        <time>2018-12-27T13:16:56Z</time>
      </trkpt>
      <trkpt lat="42.80289" lon="-0.31074">
        <ele>2320.3</ele>
        <time>2018-12-27T13:16:58Z</time>
      </trkpt>
      <trkpt lat="42.80284" lon="-0.31088">
        <ele>2318.4</ele>
        <time>2018-12-27T13:17:01Z</time>
      </trkpt>
      <trkpt lat="42.8028" lon="-0.31098">
        <ele>2316.6</ele>
        <time>2018-12-27T13:17:03Z</time>
      </trkpt>
      <trkpt lat="42.80275" lon="-0.31109">
        <ele>2314.5</ele>
        <time>2018-12-27T13:17:06Z</time>
      </trkpt>
      <trkpt lat="42.80273" lon="-0.31116">
        <ele>2313.6</ele>
        <time>2018-12-27T13:17:07Z</time>
      </trkpt>
      <trkpt lat="42.80271" lon="-0.31118">
        <ele>2313.1</ele>
        <time>2018-12-27T13:17:08Z</time>
      </trkpt>
      <trkpt lat="42.80272" lon="-0.31112">
        <ele>2312.5</ele>
        <time>2018-12-27T13:17:09Z</time>
      </trkpt>
      <trkpt lat="42.80273" lon="-0.31097">
        <ele>2311.3</ele>
        <time>2018-12-27T13:17:12Z</time>
      </trkpt>
      <trkpt lat="42.80272" lon="-0.31094">
        <ele>2309.4</ele>
        <time>2018-12-27T13:17:13Z</time>
      </trkpt>
      <trkpt lat="42.8027" lon="-0.31096">
        <ele>2308.3</ele>
        <time>2018-12-27T13:17:13Z</time>
      </trkpt>
      <trkpt lat="42.80266" lon="-0.31107">
        <ele>2306.4</ele>
        <time>2018-12-27T13:17:16Z</time>
      </trkpt>
      <trkpt lat="42.80264" lon="-0.3111">
        <ele>2305.2</ele>
        <time>2018-12-27T13:17:16Z</time>
      </trkpt>
      <trkpt lat="42.80263" lon="-0.31109">
        <ele>2304.4</ele>
        <time>2018-12-27T13:17:17Z</time>
      </trkpt>
      <trkpt lat="42.80264" lon="-0.31106">
        <ele>2304.5</ele>
        <time>2018-12-27T13:17:17Z</time>
      </trkpt>
      <trkpt lat="42.80264" lon="-0.31098">
        <ele>2303.5</ele>
        <time>2018-12-27T13:17:19Z</time>
      </trkpt>
      <trkpt lat="42.80265" lon="-0.31092">
        <ele>2303.2</ele>
        <time>2018-12-27T13:17:20Z</time>
      </trkpt>
      <trkpt lat="42.80263" lon="-0.3109">
        <ele>2301.9</ele>
        <time>2018-12-27T13:17:20Z</time>
      </trkpt>
      <trkpt lat="42.80262" lon="-0.31093">
        <ele>2301</ele>
        <time>2018-12-27T13:17:21Z</time>
      </trkpt>
      <trkpt lat="42.80259" lon="-0.31101">
        <ele>2299.8</ele>
        <time>2018-12-27T13:17:23Z</time>
      </trkpt>
      <trkpt lat="42.80256" lon="-0.31103">
        <ele>2297.9</ele>
        <time>2018-12-27T13:17:24Z</time>
      </trkpt>
      <trkpt lat="42.80257" lon="-0.31094">
        <ele>2297.4</ele>
        <time>2018-12-27T13:17:26Z</time>
      </trkpt>
      <trkpt lat="42.80257" lon="-0.31084">
        <ele>2295.6</ele>
        <time>2018-12-27T13:17:28Z</time>
      </trkpt>
      <trkpt lat="42.80255" lon="-0.31086">
        <ele>2294.6</ele>
        <time>2018-12-27T13:17:28Z</time>
      </trkpt>
      <trkpt lat="42.8025" lon="-0.31097">
        <ele>2291.8</ele>
        <time>2018-12-27T13:17:31Z</time>
      </trkpt>
      <trkpt lat="42.80249" lon="-0.31097">
        <ele>2291.1</ele>
        <time>2018-12-27T13:17:31Z</time>
      </trkpt>
      <trkpt lat="42.80247" lon="-0.31096">
        <ele>2288.7</ele>
        <time>2018-12-27T13:17:32Z</time>
      </trkpt>
      <trkpt lat="42.80246" lon="-0.31089">
        <ele>2287.8</ele>
        <time>2018-12-27T13:17:33Z</time>
      </trkpt>
      <trkpt lat="42.80245" lon="-0.31087">
        <ele>2286.6</ele>
        <time>2018-12-27T13:17:34Z</time>
      </trkpt>
      <trkpt lat="42.80242" lon="-0.31093">
        <ele>2284.8</ele>
        <time>2018-12-27T13:17:35Z</time>
      </trkpt>
      <trkpt lat="42.80237" lon="-0.31108">
        <ele>2282</ele>
        <time>2018-12-27T13:17:38Z</time>
      </trkpt>
      <trkpt lat="42.80234" lon="-0.31104">
        <ele>2278.4</ele>
        <time>2018-12-27T13:17:39Z</time>
      </trkpt>
      <trkpt lat="42.80233" lon="-0.31095">
        <ele>2276.9</ele>
        <time>2018-12-27T13:17:41Z</time>
      </trkpt>
      <trkpt lat="42.80232" lon="-0.3109">
        <ele>2275.6</ele>
        <time>2018-12-27T13:17:42Z</time>
      </trkpt>
      <trkpt lat="42.8023" lon="-0.31084">
        <ele>2273.4</ele>
        <time>2018-12-27T13:17:44Z</time>
      </trkpt>
      <trkpt lat="42.80229" lon="-0.31085">
        <ele>2272.8</ele>
        <time>2018-12-27T13:17:44Z</time>
      </trkpt>
      <trkpt lat="42.80226" lon="-0.31098">
        <ele>2271.7</ele>
        <time>2018-12-27T13:17:46Z</time>
      </trkpt>
      <trkpt lat="42.80221" lon="-0.31113">
        <ele>2268</ele>
        <time>2018-12-27T13:17:50Z</time>
      </trkpt>
      <trkpt lat="42.8022" lon="-0.31113">
        <ele>2267.2</ele>
        <time>2018-12-27T13:17:50Z</time>
      </trkpt>
      <trkpt lat="42.8022" lon="-0.31108">
        <ele>2266.8</ele>
        <time>2018-12-27T13:17:51Z</time>
      </trkpt>
      <trkpt lat="42.80219" lon="-0.31092">
        <ele>2265.3</ele>
        <time>2018-12-27T13:17:54Z</time>
      </trkpt>
      <trkpt lat="42.80216" lon="-0.31086">
        <ele>2262.7</ele>
        <time>2018-12-27T13:17:55Z</time>
      </trkpt>
      <trkpt lat="42.80215" lon="-0.31088">
        <ele>2262</ele>
        <time>2018-12-27T13:17:56Z</time>
      </trkpt>
      <trkpt lat="42.80213" lon="-0.31099">
        <ele>2261</ele>
        <time>2018-12-27T13:17:58Z</time>
      </trkpt>
      <trkpt lat="42.8021" lon="-0.31116">
        <ele>2259.1</ele>
        <time>2018-12-27T13:18:02Z</time>
      </trkpt>
      <trkpt lat="42.80208" lon="-0.31127">
        <ele>2258.6</ele>
        <time>2018-12-27T13:18:04Z</time>
      </trkpt>
      <trkpt lat="42.80207" lon="-0.31129">
        <ele>2259.2</ele>
        <time>2018-12-27T13:18:04Z</time>
      </trkpt>
      <trkpt lat="42.80205" lon="-0.31136">
        <ele>2261.2</ele>
        <time>2018-12-27T13:18:06Z</time>
      </trkpt>
      <trkpt lat="42.80203" lon="-0.3114">
        <ele>2262.2</ele>
        <time>2018-12-27T13:18:07Z</time>
      </trkpt>
      <trkpt lat="42.802" lon="-0.31144">
        <ele>2262.8</ele>
        <time>2018-12-27T13:18:08Z</time>
      </trkpt>
      <trkpt lat="42.80195" lon="-0.3115">
        <ele>2263.1</ele>
        <time>2018-12-27T13:18:10Z</time>
      </trkpt>
      <trkpt lat="42.80186" lon="-0.31164">
        <ele>2264.6</ele>
        <time>2018-12-27T13:18:13Z</time>
      </trkpt>
      <trkpt lat="42.80182" lon="-0.31175">
        <ele>2266.1</ele>
        <time>2018-12-27T13:18:16Z</time>
      </trkpt>
      <trkpt lat="42.80179" lon="-0.31179">
        <ele>2266</ele>
        <time>2018-12-27T13:18:17Z</time>
      </trkpt>
      <trkpt lat="42.80174" lon="-0.31185">
        <ele>2265.2</ele>
        <time>2018-12-27T13:18:19Z</time>
      </trkpt>
      <trkpt lat="42.80169" lon="-0.31191">
        <ele>2264.4</ele>
        <time>2018-12-27T13:18:20Z</time>
      </trkpt>
      <trkpt lat="42.80166" lon="-0.31194">
        <ele>2263.3</ele>
        <time>2018-12-27T13:18:21Z</time>
      </trkpt>
      <trkpt lat="42.80155" lon="-0.31207">
        <ele>2259.8</ele>
        <time>2018-12-27T13:18:25Z</time>
      </trkpt>
      <trkpt lat="42.80147" lon="-0.3122">
        <ele>2257.1</ele>
        <time>2018-12-27T13:18:29Z</time>
      </trkpt>
      <trkpt lat="42.80138" lon="-0.31236">
        <ele>2252.1</ele>
        <time>2018-12-27T13:18:33Z</time>
      </trkpt>
      <trkpt lat="42.80135" lon="-0.31236">
        <ele>2250.1</ele>
        <time>2018-12-27T13:18:33Z</time>
      </trkpt>
      <trkpt lat="42.80128" lon="-0.31237">
        <ele>2245.2</ele>
        <time>2018-12-27T13:18:35Z</time>
      </trkpt>
      <trkpt lat="42.80124" lon="-0.31239">
        <ele>2242.7</ele>
        <time>2018-12-27T13:18:36Z</time>
      </trkpt>
      <trkpt lat="42.80113" lon="-0.31244">
        <ele>2235.9</ele>
        <time>2018-12-27T13:18:39Z</time>
      </trkpt>
      <trkpt lat="42.80104" lon="-0.31248">
        <ele>2230</ele>
        <time>2018-12-27T13:18:42Z</time>
      </trkpt>
      <trkpt lat="42.80095" lon="-0.31254">
        <ele>2224.3</ele>
        <time>2018-12-27T13:18:45Z</time>
      </trkpt>
      <trkpt lat="42.80092" lon="-0.31254">
        <ele>2222.5</ele>
        <time>2018-12-27T13:18:45Z</time>
      </trkpt>
      <trkpt lat="42.80082" lon="-0.31257">
        <ele>2216.1</ele>
        <time>2018-12-27T13:18:48Z</time>
      </trkpt>
      <trkpt lat="42.80077" lon="-0.3126">
        <ele>2212.2</ele>
        <time>2018-12-27T13:18:50Z</time>
      </trkpt>
      <trkpt lat="42.80072" lon="-0.31264">
        <ele>2209.3</ele>
        <time>2018-12-27T13:18:51Z</time>
      </trkpt>
      <trkpt lat="42.80069" lon="-0.31265">
        <ele>2207</ele>
        <time>2018-12-27T13:18:52Z</time>
      </trkpt>
      <trkpt lat="42.80068" lon="-0.31262">
        <ele>2206.6</ele>
        <time>2018-12-27T13:18:53Z</time>
      </trkpt>
      <trkpt lat="42.80064" lon="-0.31252">
        <ele>2204.5</ele>
        <time>2018-12-27T13:18:55Z</time>
      </trkpt>
      <trkpt lat="42.80062" lon="-0.31248">
        <ele>2203.4</ele>
        <time>2018-12-27T13:18:56Z</time>
      </trkpt>
      <trkpt lat="42.80058" lon="-0.31252">
        <ele>2200.6</ele>
        <time>2018-12-27T13:18:57Z</time>
      </trkpt>
      <trkpt lat="42.80052" lon="-0.31265">
        <ele>2196</ele>
        <time>2018-12-27T13:19:00Z</time>
      </trkpt>
      <trkpt lat="42.80048" lon="-0.31274">
        <ele>2192.7</ele>
        <time>2018-12-27T13:19:02Z</time>
      </trkpt>
      <trkpt lat="42.80046" lon="-0.31288">
        <ele>2190.5</ele>
        <time>2018-12-27T13:19:05Z</time>
      </trkpt>
      <trkpt lat="42.80048" lon="-0.31303">
        <ele>2191.9</ele>
        <time>2018-12-27T13:19:08Z</time>
      </trkpt>
      <trkpt lat="42.80046" lon="-0.31313">
        <ele>2191.4</ele>
        <time>2018-12-27T13:19:10Z</time>
      </trkpt>
      <trkpt lat="42.80045" lon="-0.3132">
        <ele>2191</ele>
        <time>2018-12-27T13:19:11Z</time>
      </trkpt>
      <trkpt lat="42.80044" lon="-0.31337">
        <ele>2191.1</ele>
        <time>2018-12-27T13:19:15Z</time>
      </trkpt>
      <trkpt lat="42.80044" lon="-0.31356">
        <ele>2192.1</ele>
        <time>2018-12-27T13:19:18Z</time>
      </trkpt>
      <trkpt lat="42.80044" lon="-0.31375">
        <ele>2192.9</ele>
        <time>2018-12-27T13:19:22Z</time>
      </trkpt>
      <trkpt lat="42.80043" lon="-0.31377">
        <ele>2192</ele>
        <time>2018-12-27T13:19:23Z</time>
      </trkpt>
      <trkpt lat="42.80041" lon="-0.31387">
        <ele>2192</ele>
        <time>2018-12-27T13:19:25Z</time>
      </trkpt>
      <trkpt lat="42.8004" lon="-0.31401">
        <ele>2193.6</ele>
        <time>2018-12-27T13:19:27Z</time>
      </trkpt>
      <trkpt lat="42.80035" lon="-0.31413">
        <ele>2191.8</ele>
        <time>2018-12-27T13:19:30Z</time>
      </trkpt>
      <trkpt lat="42.80034" lon="-0.31416">
        <ele>2191.1</ele>
        <time>2018-12-27T13:19:31Z</time>
      </trkpt>
      <trkpt lat="42.80031" lon="-0.31427">
        <ele>2190.5</ele>
        <time>2018-12-27T13:19:33Z</time>
      </trkpt>
      <trkpt lat="42.80029" lon="-0.31426">
        <ele>2189.1</ele>
        <time>2018-12-27T13:19:34Z</time>
      </trkpt>
      <trkpt lat="42.80029" lon="-0.31422">
        <ele>2188.9</ele>
        <time>2018-12-27T13:19:34Z</time>
      </trkpt>
      <trkpt lat="42.80029" lon="-0.31403">
        <ele>2186.6</ele>
        <time>2018-12-27T13:19:38Z</time>
      </trkpt>
      <trkpt lat="42.80027" lon="-0.31405">
        <ele>2185.3</ele>
        <time>2018-12-27T13:19:39Z</time>
      </trkpt>
      <trkpt lat="42.80023" lon="-0.3142">
        <ele>2184</ele>
        <time>2018-12-27T13:19:42Z</time>
      </trkpt>
      <trkpt lat="42.8002" lon="-0.31429">
        <ele>2182.9</ele>
        <time>2018-12-27T13:19:44Z</time>
      </trkpt>
      <trkpt lat="42.80018" lon="-0.31432">
        <ele>2182.1</ele>
        <time>2018-12-27T13:19:44Z</time>
      </trkpt>
      <trkpt lat="42.8002" lon="-0.31422">
        <ele>2182.1</ele>
        <time>2018-12-27T13:19:46Z</time>
      </trkpt>
      <trkpt lat="42.80019" lon="-0.31414">
        <ele>2180.8</ele>
        <time>2018-12-27T13:19:48Z</time>
      </trkpt>
      <trkpt lat="42.80018" lon="-0.31407">
        <ele>2179.4</ele>
        <time>2018-12-27T13:19:49Z</time>
      </trkpt>
      <trkpt lat="42.8002" lon="-0.31392">
        <ele>2179.1</ele>
        <time>2018-12-27T13:19:52Z</time>
      </trkpt>
      <trkpt lat="42.80015" lon="-0.31381">
        <ele>2175.1</ele>
        <time>2018-12-27T13:19:55Z</time>
      </trkpt>
      <trkpt lat="42.80013" lon="-0.31379">
        <ele>2173.8</ele>
        <time>2018-12-27T13:19:55Z</time>
      </trkpt>
      <trkpt lat="42.80011" lon="-0.31385">
        <ele>2172.7</ele>
        <time>2018-12-27T13:19:57Z</time>
      </trkpt>
      <trkpt lat="42.80009" lon="-0.31398">
        <ele>2172.8</ele>
        <time>2018-12-27T13:19:59Z</time>
      </trkpt>
      <trkpt lat="42.80003" lon="-0.31415">
        <ele>2170.1</ele>
        <time>2018-12-27T13:20:03Z</time>
      </trkpt>
      <trkpt lat="42.8" lon="-0.31424">
        <ele>2169</ele>
        <time>2018-12-27T13:20:05Z</time>
      </trkpt>
      <trkpt lat="42.79999" lon="-0.31427">
        <ele>2168.5</ele>
        <time>2018-12-27T13:20:05Z</time>
      </trkpt>
      <trkpt lat="42.79996" lon="-0.31433">
        <ele>2166.7</ele>
        <time>2018-12-27T13:20:07Z</time>
      </trkpt>
      <trkpt lat="42.79995" lon="-0.31421">
        <ele>2165.3</ele>
        <time>2018-12-27T13:20:09Z</time>
      </trkpt>
      <trkpt lat="42.79992" lon="-0.31407">
        <ele>2162.2</ele>
        <time>2018-12-27T13:20:12Z</time>
      </trkpt>
      <trkpt lat="42.79991" lon="-0.314">
        <ele>2161.1</ele>
        <time>2018-12-27T13:20:14Z</time>
      </trkpt>
      <trkpt lat="42.79988" lon="-0.31383">
        <ele>2158.3</ele>
        <time>2018-12-27T13:20:17Z</time>
      </trkpt>
      <trkpt lat="42.7999" lon="-0.31363">
        <ele>2158.4</ele>
        <time>2018-12-27T13:20:21Z</time>
      </trkpt>
      <trkpt lat="42.79988" lon="-0.31363">
        <ele>2157.3</ele>
        <time>2018-12-27T13:20:22Z</time>
      </trkpt>
      <trkpt lat="42.79983" lon="-0.31372">
        <ele>2154.5</ele>
        <time>2018-12-27T13:20:24Z</time>
      </trkpt>
      <trkpt lat="42.79978" lon="-0.31387">
        <ele>2151.9</ele>
        <time>2018-12-27T13:20:27Z</time>
      </trkpt>
      <trkpt lat="42.79973" lon="-0.31399">
        <ele>2149.5</ele>
        <time>2018-12-27T13:20:30Z</time>
      </trkpt>
      <trkpt lat="42.79972" lon="-0.3141">
        <ele>2149.2</ele>
        <time>2018-12-27T13:20:32Z</time>
      </trkpt>
      <trkpt lat="42.79971" lon="-0.3141">
        <ele>2148.6</ele>
        <time>2018-12-27T13:20:32Z</time>
      </trkpt>
      <trkpt lat="42.7997" lon="-0.31404">
        <ele>2147.5</ele>
        <time>2018-12-27T13:20:33Z</time>
      </trkpt>
      <trkpt lat="42.79964" lon="-0.31387">
        <ele>2143</ele>
        <time>2018-12-27T13:20:37Z</time>
      </trkpt>
      <trkpt lat="42.79962" lon="-0.31379">
        <ele>2141.5</ele>
        <time>2018-12-27T13:20:39Z</time>
      </trkpt>
      <trkpt lat="42.7996" lon="-0.31369">
        <ele>2140.2</ele>
        <time>2018-12-27T13:20:41Z</time>
      </trkpt>
      <trkpt lat="42.79959" lon="-0.31368">
        <ele>2139.1</ele>
        <time>2018-12-27T13:20:41Z</time>
      </trkpt>
      <trkpt lat="42.79954" lon="-0.31375">
        <ele>2136.6</ele>
        <time>2018-12-27T13:20:43Z</time>
      </trkpt>
      <trkpt lat="42.79949" lon="-0.3139">
        <ele>2134</ele>
        <time>2018-12-27T13:20:46Z</time>
      </trkpt>
      <trkpt lat="42.79948" lon="-0.31409">
        <ele>2134.2</ele>
        <time>2018-12-27T13:20:50Z</time>
      </trkpt>
      <trkpt lat="42.79948" lon="-0.31417">
        <ele>2134.5</ele>
        <time>2018-12-27T13:20:51Z</time>
      </trkpt>
      <trkpt lat="42.79947" lon="-0.31429">
        <ele>2133.8</ele>
        <time>2018-12-27T13:20:54Z</time>
      </trkpt>
      <trkpt lat="42.79944" lon="-0.31447">
        <ele>2132.4</ele>
        <time>2018-12-27T13:20:57Z</time>
      </trkpt>
      <trkpt lat="42.7994" lon="-0.31463">
        <ele>2130.3</ele>
        <time>2018-12-27T13:21:01Z</time>
      </trkpt>
      <trkpt lat="42.79941" lon="-0.31466">
        <ele>2130.2</ele>
        <time>2018-12-27T13:21:01Z</time>
      </trkpt>
      <trkpt lat="42.79939" lon="-0.31474">
        <ele>2127.8</ele>
        <time>2018-12-27T13:21:03Z</time>
      </trkpt>
      <trkpt lat="42.79934" lon="-0.31488">
        <ele>2123</ele>
        <time>2018-12-27T13:21:06Z</time>
      </trkpt>
      <trkpt lat="42.79933" lon="-0.31491">
        <ele>2122.1</ele>
        <time>2018-12-27T13:21:07Z</time>
      </trkpt>
      <trkpt lat="42.79931" lon="-0.31509">
        <ele>2118.3</ele>
        <time>2018-12-27T13:21:10Z</time>
      </trkpt>
      <trkpt lat="42.79926" lon="-0.31526">
        <ele>2113.5</ele>
        <time>2018-12-27T13:21:14Z</time>
      </trkpt>
      <trkpt lat="42.79922" lon="-0.31543">
        <ele>2108.8</ele>
        <time>2018-12-27T13:21:17Z</time>
      </trkpt>
      <trkpt lat="42.79917" lon="-0.31557">
        <ele>2103.9</ele>
        <time>2018-12-27T13:21:20Z</time>
      </trkpt>
      <trkpt lat="42.79918" lon="-0.31577">
        <ele>2100.8</ele>
        <time>2018-12-27T13:21:24Z</time>
      </trkpt>
      <trkpt lat="42.79918" lon="-0.31587">
        <ele>2099.2</ele>
        <time>2018-12-27T13:21:26Z</time>
      </trkpt>
      <trkpt lat="42.79916" lon="-0.31591">
        <ele>2097.9</ele>
        <time>2018-12-27T13:21:27Z</time>
      </trkpt>
      <trkpt lat="42.79912" lon="-0.31607">
        <ele>2093.3</ele>
        <time>2018-12-27T13:21:30Z</time>
      </trkpt>
      <trkpt lat="42.79906" lon="-0.31618">
        <ele>2088.3</ele>
        <time>2018-12-27T13:21:33Z</time>
      </trkpt>
      <trkpt lat="42.79898" lon="-0.31633">
        <ele>2081.4</ele>
        <time>2018-12-27T13:21:37Z</time>
      </trkpt>
      <trkpt lat="42.79892" lon="-0.3164">
        <ele>2076.6</ele>
        <time>2018-12-27T13:21:39Z</time>
      </trkpt>
      <trkpt lat="42.79891" lon="-0.31642">
        <ele>2075.4</ele>
        <time>2018-12-27T13:21:40Z</time>
      </trkpt>
      <trkpt lat="42.79893" lon="-0.31651">
        <ele>2074</ele>
        <time>2018-12-27T13:21:41Z</time>
      </trkpt>
      <trkpt lat="42.79893" lon="-0.31659">
        <ele>2072.4</ele>
        <time>2018-12-27T13:21:43Z</time>
      </trkpt>
      <trkpt lat="42.79895" lon="-0.31661">
        <ele>2072.5</ele>
        <time>2018-12-27T13:21:43Z</time>
      </trkpt>
      <trkpt lat="42.79895" lon="-0.31669">
        <ele>2070.7</ele>
        <time>2018-12-27T13:21:45Z</time>
      </trkpt>
      <trkpt lat="42.79894" lon="-0.31673">
        <ele>2069.2</ele>
        <time>2018-12-27T13:21:46Z</time>
      </trkpt>
      <trkpt lat="42.79895" lon="-0.31675">
        <ele>2068.9</ele>
        <time>2018-12-27T13:21:46Z</time>
      </trkpt>
      <trkpt lat="42.79896" lon="-0.3168">
        <ele>2067.9</ele>
        <time>2018-12-27T13:21:47Z</time>
      </trkpt>
      <trkpt lat="42.79898" lon="-0.31684">
        <ele>2067.6</ele>
        <time>2018-12-27T13:21:48Z</time>
      </trkpt>
      <trkpt lat="42.799" lon="-0.31687">
        <ele>2067.5</ele>
        <time>2018-12-27T13:21:49Z</time>
      </trkpt>
      <trkpt lat="42.799" lon="-0.3169">
        <ele>2066.6</ele>
        <time>2018-12-27T13:21:50Z</time>
      </trkpt>
      <trkpt lat="42.79898" lon="-0.3169">
        <ele>2066.1</ele>
        <time>2018-12-27T13:21:50Z</time>
      </trkpt>
      <trkpt lat="42.79898" lon="-0.31695">
        <ele>2064.6</ele>
        <time>2018-12-27T13:21:51Z</time>
      </trkpt>
      <trkpt lat="42.79904" lon="-0.31701">
        <ele>2064.7</ele>
        <time>2018-12-27T13:21:53Z</time>
      </trkpt>
      <trkpt lat="42.79904" lon="-0.31702">
        <ele>2064.4</ele>
        <time>2018-12-27T13:21:53Z</time>
      </trkpt>
      <trkpt lat="42.79903" lon="-0.31703">
        <ele>2063.9</ele>
        <time>2018-12-27T13:21:54Z</time>
      </trkpt>
      <trkpt lat="42.79894" lon="-0.317">
        <ele>2062.2</ele>
        <time>2018-12-27T13:21:56Z</time>
      </trkpt>
      <trkpt lat="42.79882" lon="-0.31698">
        <ele>2059.1</ele>
        <time>2018-12-27T13:21:59Z</time>
      </trkpt>
      <trkpt lat="42.79887" lon="-0.31707">
        <ele>2058.7</ele>
        <time>2018-12-27T13:22:01Z</time>
      </trkpt>
      <trkpt lat="42.79896" lon="-0.31717">
        <ele>2057.5</ele>
        <time>2018-12-27T13:22:04Z</time>
      </trkpt>
      <trkpt lat="42.79895" lon="-0.31719">
        <ele>2056.8</ele>
        <time>2018-12-27T13:22:05Z</time>
      </trkpt>
      <trkpt lat="42.79892" lon="-0.31722">
        <ele>2055.1</ele>
        <time>2018-12-27T13:22:06Z</time>
      </trkpt>
      <trkpt lat="42.79883" lon="-0.3172">
        <ele>2053.5</ele>
        <time>2018-12-27T13:22:08Z</time>
      </trkpt>
      <trkpt lat="42.79876" lon="-0.31717">
        <ele>2052.6</ele>
        <time>2018-12-27T13:22:10Z</time>
      </trkpt>
      <trkpt lat="42.79871" lon="-0.31714">
        <ele>2051.9</ele>
        <time>2018-12-27T13:22:12Z</time>
      </trkpt>
      <trkpt lat="42.79856" lon="-0.31705">
        <ele>2050</ele>
        <time>2018-12-27T13:22:16Z</time>
      </trkpt>
      <trkpt lat="42.79857" lon="-0.31716">
        <ele>2047.4</ele>
        <time>2018-12-27T13:22:18Z</time>
      </trkpt>
      <trkpt lat="42.79863" lon="-0.31733">
        <ele>2044.4</ele>
        <time>2018-12-27T13:22:22Z</time>
      </trkpt>
      <trkpt lat="42.79872" lon="-0.31748">
        <ele>2041.6</ele>
        <time>2018-12-27T13:22:26Z</time>
      </trkpt>
      <trkpt lat="42.79882" lon="-0.31761">
        <ele>2039.7</ele>
        <time>2018-12-27T13:22:30Z</time>
      </trkpt>
      <trkpt lat="42.79892" lon="-0.31768">
        <ele>2039.4</ele>
        <time>2018-12-27T13:22:32Z</time>
      </trkpt>
      <trkpt lat="42.79887" lon="-0.3177">
        <ele>2037.7</ele>
        <time>2018-12-27T13:22:34Z</time>
      </trkpt>
      <trkpt lat="42.79872" lon="-0.3177">
        <ele>2034.8</ele>
        <time>2018-12-27T13:22:38Z</time>
      </trkpt>
      <trkpt lat="42.79857" lon="-0.31771">
        <ele>2032</ele>
        <time>2018-12-27T13:22:42Z</time>
      </trkpt>
      <trkpt lat="42.79838" lon="-0.31767">
        <ele>2030.1</ele>
        <time>2018-12-27T13:22:47Z</time>
      </trkpt>
      <trkpt lat="42.79821" lon="-0.31762">
        <ele>2028.7</ele>
        <time>2018-12-27T13:22:51Z</time>
      </trkpt>
      <trkpt lat="42.79805" lon="-0.31754">
        <ele>2027</ele>
        <time>2018-12-27T13:22:56Z</time>
      </trkpt>
      <trkpt lat="42.79788" lon="-0.31758">
        <ele>2022.7</ele>
        <time>2018-12-27T13:23:01Z</time>
      </trkpt>
      <trkpt lat="42.79772" lon="-0.31765">
        <ele>2016.5</ele>
        <time>2018-12-27T13:23:05Z</time>
      </trkpt>
      <trkpt lat="42.79762" lon="-0.31776">
        <ele>2012.1</ele>
        <time>2018-12-27T13:23:09Z</time>
      </trkpt>
      <trkpt lat="42.79749" lon="-0.31791">
        <ele>2007.2</ele>
        <time>2018-12-27T13:23:13Z</time>
      </trkpt>
      <trkpt lat="42.79737" lon="-0.31804">
        <ele>2002.8</ele>
        <time>2018-12-27T13:23:17Z</time>
      </trkpt>
      <trkpt lat="42.79728" lon="-0.31814">
        <ele>1999.6</ele>
        <time>2018-12-27T13:23:20Z</time>
      </trkpt>
      <trkpt lat="42.79728" lon="-0.31817">
        <ele>1999.3</ele>
        <time>2018-12-27T13:23:21Z</time>
      </trkpt>
      <trkpt lat="42.79729" lon="-0.31823">
        <ele>1999.1</ele>
        <time>2018-12-27T13:23:22Z</time>
      </trkpt>
      <trkpt lat="42.79727" lon="-0.31827">
        <ele>1998.4</ele>
        <time>2018-12-27T13:23:23Z</time>
      </trkpt>
      <trkpt lat="42.79724" lon="-0.31818">
        <ele>1998</ele>
        <time>2018-12-27T13:23:25Z</time>
      </trkpt>
      <trkpt lat="42.7972" lon="-0.31804">
        <ele>1997.8</ele>
        <time>2018-12-27T13:23:28Z</time>
      </trkpt>
      <trkpt lat="42.79711" lon="-0.31797">
        <ele>1995.4</ele>
        <time>2018-12-27T13:23:31Z</time>
      </trkpt>
      <trkpt lat="42.79709" lon="-0.31794">
        <ele>1995</ele>
        <time>2018-12-27T13:23:32Z</time>
      </trkpt>
      <trkpt lat="42.79701" lon="-0.3178">
        <ele>1988.3</ele>
        <time>2018-12-27T13:23:35Z</time>
      </trkpt>
      <trkpt lat="42.79697" lon="-0.31759">
        <ele>1985.4</ele>
        <time>2018-12-27T13:23:39Z</time>
      </trkpt>
      <trkpt lat="42.79691" lon="-0.31735">
        <ele>1980.3</ele>
        <time>2018-12-27T13:23:44Z</time>
      </trkpt>
      <trkpt lat="42.79684" lon="-0.31725">
        <ele>1974.2</ele>
        <time>2018-12-27T13:23:47Z</time>
      </trkpt>
      <trkpt lat="42.7968" lon="-0.31715">
        <ele>1971.2</ele>
        <time>2018-12-27T13:23:49Z</time>
      </trkpt>
      <trkpt lat="42.79677" lon="-0.31698">
        <ele>1969.1</ele>
        <time>2018-12-27T13:23:53Z</time>
      </trkpt>
      <trkpt lat="42.79678" lon="-0.31683">
        <ele>1970.2</ele>
        <time>2018-12-27T13:23:56Z</time>
      </trkpt>
      <trkpt lat="42.79678" lon="-0.31675">
        <ele>1970.5</ele>
        <time>2018-12-27T13:23:57Z</time>
      </trkpt>
      <trkpt lat="42.79676" lon="-0.31668">
        <ele>1969.4</ele>
        <time>2018-12-27T13:23:59Z</time>
      </trkpt>
      <trkpt lat="42.79672" lon="-0.31663">
        <ele>1966.8</ele>
        <time>2018-12-27T13:24:00Z</time>
      </trkpt>
      <trkpt lat="42.79668" lon="-0.31655">
        <ele>1964.4</ele>
        <time>2018-12-27T13:24:02Z</time>
      </trkpt>
      <trkpt lat="42.79668" lon="-0.31642">
        <ele>1964.9</ele>
        <time>2018-12-27T13:24:05Z</time>
      </trkpt>
      <trkpt lat="42.7967" lon="-0.31624">
        <ele>1967.4</ele>
        <time>2018-12-27T13:24:08Z</time>
      </trkpt>
      <trkpt lat="42.79673" lon="-0.31609">
        <ele>1969.6</ele>
        <time>2018-12-27T13:24:11Z</time>
      </trkpt>
      <trkpt lat="42.79672" lon="-0.31606">
        <ele>1969.2</ele>
        <time>2018-12-27T13:24:12Z</time>
      </trkpt>
      <trkpt lat="42.79668" lon="-0.31599">
        <ele>1967.6</ele>
        <time>2018-12-27T13:24:13Z</time>
      </trkpt>
      <trkpt lat="42.79664" lon="-0.31586">
        <ele>1966.3</ele>
        <time>2018-12-27T13:24:16Z</time>
      </trkpt>
      <trkpt lat="42.79655" lon="-0.31569">
        <ele>1963.5</ele>
        <time>2018-12-27T13:24:20Z</time>
      </trkpt>
      <trkpt lat="42.79647" lon="-0.31557">
        <ele>1961.2</ele>
        <time>2018-12-27T13:24:24Z</time>
      </trkpt>
      <trkpt lat="42.79645" lon="-0.31542">
        <ele>1962.7</ele>
        <time>2018-12-27T13:24:27Z</time>
      </trkpt>
      <trkpt lat="42.79646" lon="-0.31522">
        <ele>1966.7</ele>
        <time>2018-12-27T13:24:30Z</time>
      </trkpt>
      <trkpt lat="42.79645" lon="-0.3151">
        <ele>1968.7</ele>
        <time>2018-12-27T13:24:33Z</time>
      </trkpt>
      <trkpt lat="42.79639" lon="-0.31514">
        <ele>1965.8</ele>
        <time>2018-12-27T13:24:35Z</time>
      </trkpt>
      <trkpt lat="42.79634" lon="-0.31509">
        <ele>1965.4</ele>
        <time>2018-12-27T13:24:36Z</time>
      </trkpt>
      <trkpt lat="42.79633" lon="-0.3151">
        <ele>1964.7</ele>
        <time>2018-12-27T13:24:37Z</time>
      </trkpt>
      <trkpt lat="42.79629" lon="-0.31511">
        <ele>1963.2</ele>
        <time>2018-12-27T13:24:38Z</time>
      </trkpt>
      <trkpt lat="42.79624" lon="-0.31515">
        <ele>1961.4</ele>
        <time>2018-12-27T13:24:39Z</time>
      </trkpt>
      <trkpt lat="42.79622" lon="-0.31516">
        <ele>1961.2</ele>
        <time>2018-12-27T13:24:40Z</time>
      </trkpt>
      <trkpt lat="42.79618" lon="-0.31524">
        <ele>1959.9</ele>
        <time>2018-12-27T13:24:42Z</time>
      </trkpt>
      <trkpt lat="42.79612" lon="-0.31527">
        <ele>1959.7</ele>
        <time>2018-12-27T13:24:43Z</time>
      </trkpt>
      <trkpt lat="42.7961" lon="-0.31529">
        <ele>1959.3</ele>
        <time>2018-12-27T13:24:44Z</time>
      </trkpt>
      <trkpt lat="42.79609" lon="-0.31532">
        <ele>1958.9</ele>
        <time>2018-12-27T13:24:45Z</time>
      </trkpt>
      <trkpt lat="42.79602" lon="-0.31544">
        <ele>1957</ele>
        <time>2018-12-27T13:24:48Z</time>
      </trkpt>
      <trkpt lat="42.79594" lon="-0.31541">
        <ele>1958.7</ele>
        <time>2018-12-27T13:24:50Z</time>
      </trkpt>
      <trkpt lat="42.79592" lon="-0.31541">
        <ele>1958.7</ele>
        <time>2018-12-27T13:24:50Z</time>
      </trkpt>
      <trkpt lat="42.79589" lon="-0.31546">
        <ele>1957.9</ele>
        <time>2018-12-27T13:24:52Z</time>
      </trkpt>
      <trkpt lat="42.79589" lon="-0.3155">
        <ele>1957.1</ele>
        <time>2018-12-27T13:24:52Z</time>
      </trkpt>
      <trkpt lat="42.79589" lon="-0.31551">
        <ele>1956.9</ele>
        <time>2018-12-27T13:24:53Z</time>
      </trkpt>
      <trkpt lat="42.79586" lon="-0.31549">
        <ele>1957.7</ele>
        <time>2018-12-27T13:24:54Z</time>
      </trkpt>
      <trkpt lat="42.79578" lon="-0.31545">
        <ele>1959.5</ele>
        <time>2018-12-27T13:24:56Z</time>
      </trkpt>
      <trkpt lat="42.79568" lon="-0.31552">
        <ele>1958.6</ele>
        <time>2018-12-27T13:24:59Z</time>
      </trkpt>
      <trkpt lat="42.79556" lon="-0.31558">
        <ele>1958.4</ele>
        <time>2018-12-27T13:25:02Z</time>
      </trkpt>
      <trkpt lat="42.79554" lon="-0.31567">
        <ele>1956.2</ele>
        <time>2018-12-27T13:25:04Z</time>
      </trkpt>
      <trkpt lat="42.79556" lon="-0.31572">
        <ele>1954.6</ele>
        <time>2018-12-27T13:25:05Z</time>
      </trkpt>
      <trkpt lat="42.79559" lon="-0.31578">
        <ele>1953</ele>
        <time>2018-12-27T13:25:07Z</time>
      </trkpt>
      <trkpt lat="42.79558" lon="-0.31593">
        <ele>1948.8</ele>
        <time>2018-12-27T13:25:10Z</time>
      </trkpt>
      <trkpt lat="42.79564" lon="-0.31599">
        <ele>1947.2</ele>
        <time>2018-12-27T13:25:11Z</time>
      </trkpt>
      <trkpt lat="42.79565" lon="-0.31601">
        <ele>1946.6</ele>
        <time>2018-12-27T13:25:12Z</time>
      </trkpt>
      <trkpt lat="42.79563" lon="-0.3161">
        <ele>1944.4</ele>
        <time>2018-12-27T13:25:14Z</time>
      </trkpt>
      <trkpt lat="42.79562" lon="-0.31613">
        <ele>1943.7</ele>
        <time>2018-12-27T13:25:14Z</time>
      </trkpt>
      <trkpt lat="42.7956" lon="-0.31622">
        <ele>1941.4</ele>
        <time>2018-12-27T13:25:16Z</time>
      </trkpt>
      <trkpt lat="42.79559" lon="-0.31627">
        <ele>1939.9</ele>
        <time>2018-12-27T13:25:17Z</time>
      </trkpt>
      <trkpt lat="42.79557" lon="-0.31634">
        <ele>1937.7</ele>
        <time>2018-12-27T13:25:19Z</time>
      </trkpt>
      <trkpt lat="42.79551" lon="-0.31642">
        <ele>1934.9</ele>
        <time>2018-12-27T13:25:21Z</time>
      </trkpt>
      <trkpt lat="42.79539" lon="-0.31653">
        <ele>1929.5</ele>
        <time>2018-12-27T13:25:25Z</time>
      </trkpt>
      <trkpt lat="42.79528" lon="-0.31666">
        <ele>1922.7</ele>
        <time>2018-12-27T13:25:29Z</time>
      </trkpt>
      <trkpt lat="42.7952" lon="-0.31686">
        <ele>1913.2</ele>
        <time>2018-12-27T13:25:33Z</time>
      </trkpt>
      <trkpt lat="42.79513" lon="-0.31708">
        <ele>1903.9</ele>
        <time>2018-12-27T13:25:38Z</time>
      </trkpt>
      <trkpt lat="42.79502" lon="-0.31723">
        <ele>1895.5</ele>
        <time>2018-12-27T13:25:42Z</time>
      </trkpt>
      <trkpt lat="42.79487" lon="-0.31726">
        <ele>1891.4</ele>
        <time>2018-12-27T13:25:46Z</time>
      </trkpt>
      <trkpt lat="42.79472" lon="-0.31723">
        <ele>1890.3</ele>
        <time>2018-12-27T13:25:50Z</time>
      </trkpt>
      <trkpt lat="42.79453" lon="-0.31723">
        <ele>1885.6</ele>
        <time>2018-12-27T13:25:55Z</time>
      </trkpt>
      <trkpt lat="42.79438" lon="-0.31724">
        <ele>1878.2</ele>
        <time>2018-12-27T13:25:59Z</time>
      </trkpt>
      <trkpt lat="42.7942" lon="-0.31721">
        <ele>1871.6</ele>
        <time>2018-12-27T13:26:04Z</time>
      </trkpt>
      <trkpt lat="42.79401" lon="-0.31715">
        <ele>1865.5</ele>
        <time>2018-12-27T13:26:09Z</time>
      </trkpt>
      <trkpt lat="42.79399" lon="-0.31714">
        <ele>1864.6</ele>
        <time>2018-12-27T13:26:10Z</time>
      </trkpt>
      <trkpt lat="42.79383" lon="-0.31707">
        <ele>1860.4</ele>
        <time>2018-12-27T13:26:14Z</time>
      </trkpt>
      <trkpt lat="42.79376" lon="-0.31694">
        <ele>1860.3</ele>
        <time>2018-12-27T13:26:17Z</time>
      </trkpt>
      <trkpt lat="42.79369" lon="-0.3167">
        <ele>1861</ele>
        <time>2018-12-27T13:26:22Z</time>
      </trkpt>
      <trkpt lat="42.79369" lon="-0.31667">
        <ele>1861.6</ele>
        <time>2018-12-27T13:26:23Z</time>
      </trkpt>
      <trkpt lat="42.79365" lon="-0.31646">
        <ele>1863.7</ele>
        <time>2018-12-27T13:26:27Z</time>
      </trkpt>
      <trkpt lat="42.79357" lon="-0.31621">
        <ele>1862.8</ele>
        <time>2018-12-27T13:26:32Z</time>
      </trkpt>
      <trkpt lat="42.79353" lon="-0.31601">
        <ele>1861.8</ele>
        <time>2018-12-27T13:26:37Z</time>
      </trkpt>
      <trkpt lat="42.79349" lon="-0.31584">
        <ele>1861.4</ele>
        <time>2018-12-27T13:26:40Z</time>
      </trkpt>
      <trkpt lat="42.79346" lon="-0.31558">
        <ele>1862.2</ele>
        <time>2018-12-27T13:26:45Z</time>
      </trkpt>
      <trkpt lat="42.79345" lon="-0.31536">
        <ele>1864.8</ele>
        <time>2018-12-27T13:26:49Z</time>
      </trkpt>
      <trkpt lat="42.79341" lon="-0.31512">
        <ele>1865.6</ele>
        <time>2018-12-27T13:26:54Z</time>
      </trkpt>
      <trkpt lat="42.79332" lon="-0.31494">
        <ele>1861.4</ele>
        <time>2018-12-27T13:26:59Z</time>
      </trkpt>
      <trkpt lat="42.79322" lon="-0.31476">
        <ele>1855.4</ele>
        <time>2018-12-27T13:27:03Z</time>
      </trkpt>
      <trkpt lat="42.79318" lon="-0.31456">
        <ele>1855.8</ele>
        <time>2018-12-27T13:27:07Z</time>
      </trkpt>
      <trkpt lat="42.79312" lon="-0.31436">
        <ele>1855.3</ele>
        <time>2018-12-27T13:27:11Z</time>
      </trkpt>
      <trkpt lat="42.79299" lon="-0.31416">
        <ele>1850.8</ele>
        <time>2018-12-27T13:27:17Z</time>
      </trkpt>
      <trkpt lat="42.7929" lon="-0.31393">
        <ele>1850.4</ele>
        <time>2018-12-27T13:27:22Z</time>
      </trkpt>
      <trkpt lat="42.79283" lon="-0.31374">
        <ele>1852.4</ele>
        <time>2018-12-27T13:27:26Z</time>
      </trkpt>
      <trkpt lat="42.79271" lon="-0.3136">
        <ele>1851.7</ele>
        <time>2018-12-27T13:27:30Z</time>
      </trkpt>
      <trkpt lat="42.79253" lon="-0.31351">
        <ele>1846.7</ele>
        <time>2018-12-27T13:27:35Z</time>
      </trkpt>
      <trkpt lat="42.79235" lon="-0.31339">
        <ele>1842.7</ele>
        <time>2018-12-27T13:27:40Z</time>
      </trkpt>
      <trkpt lat="42.79223" lon="-0.3132">
        <ele>1843.7</ele>
        <time>2018-12-27T13:27:45Z</time>
      </trkpt>
      <trkpt lat="42.79213" lon="-0.31299">
        <ele>1845.7</ele>
        <time>2018-12-27T13:27:50Z</time>
      </trkpt>
      <trkpt lat="42.7921" lon="-0.31292">
        <ele>1846.7</ele>
        <time>2018-12-27T13:27:52Z</time>
      </trkpt>
      <trkpt lat="42.79203" lon="-0.31278">
        <ele>1847.4</ele>
        <time>2018-12-27T13:27:55Z</time>
      </trkpt>
      <trkpt lat="42.79192" lon="-0.31259">
        <ele>1849</ele>
        <time>2018-12-27T13:28:00Z</time>
      </trkpt>
      <trkpt lat="42.79185" lon="-0.31252">
        <ele>1848.4</ele>
        <time>2018-12-27T13:28:02Z</time>
      </trkpt>
      <trkpt lat="42.79183" lon="-0.3125">
        <ele>1848.5</ele>
        <time>2018-12-27T13:28:03Z</time>
      </trkpt>
      <trkpt lat="42.79176" lon="-0.31244">
        <ele>1848</ele>
        <time>2018-12-27T13:28:05Z</time>
      </trkpt>
      <trkpt lat="42.79173" lon="-0.31242">
        <ele>1847.3</ele>
        <time>2018-12-27T13:28:06Z</time>
      </trkpt>
      <trkpt lat="42.79168" lon="-0.31241">
        <ele>1846.4</ele>
        <time>2018-12-27T13:28:07Z</time>
      </trkpt>
      <trkpt lat="42.79167" lon="-0.31241">
        <ele>1845.8</ele>
        <time>2018-12-27T13:28:08Z</time>
      </trkpt>
      <trkpt lat="42.7916" lon="-0.31243">
        <ele>1843.2</ele>
        <time>2018-12-27T13:28:10Z</time>
      </trkpt>
      <trkpt lat="42.7915" lon="-0.31245">
        <ele>1839.8</ele>
        <time>2018-12-27T13:28:12Z</time>
      </trkpt>
      <trkpt lat="42.79141" lon="-0.31247">
        <ele>1836.8</ele>
        <time>2018-12-27T13:28:15Z</time>
      </trkpt>
      <trkpt lat="42.79131" lon="-0.31255">
        <ele>1831.8</ele>
        <time>2018-12-27T13:28:18Z</time>
      </trkpt>
      <trkpt lat="42.79123" lon="-0.31257">
        <ele>1829</ele>
        <time>2018-12-27T13:28:20Z</time>
      </trkpt>
      <trkpt lat="42.79118" lon="-0.31264">
        <ele>1825.9</ele>
        <time>2018-12-27T13:28:22Z</time>
      </trkpt>
      <trkpt lat="42.79109" lon="-0.31266">
        <ele>1823.5</ele>
        <time>2018-12-27T13:28:24Z</time>
      </trkpt>
      <trkpt lat="42.79106" lon="-0.31268">
        <ele>1822.2</ele>
        <time>2018-12-27T13:28:25Z</time>
      </trkpt>
      <trkpt lat="42.79103" lon="-0.31271">
        <ele>1821.1</ele>
        <time>2018-12-27T13:28:26Z</time>
      </trkpt>
      <trkpt lat="42.79102" lon="-0.31274">
        <ele>1820.2</ele>
        <time>2018-12-27T13:28:27Z</time>
      </trkpt>
      <trkpt lat="42.79099" lon="-0.3128">
        <ele>1817.9</ele>
        <time>2018-12-27T13:28:28Z</time>
      </trkpt>
      <trkpt lat="42.79095" lon="-0.3129">
        <ele>1814.8</ele>
        <time>2018-12-27T13:28:30Z</time>
      </trkpt>
      <trkpt lat="42.79097" lon="-0.31302">
        <ele>1814</ele>
        <time>2018-12-27T13:28:33Z</time>
      </trkpt>
      <trkpt lat="42.79091" lon="-0.31317">
        <ele>1812.4</ele>
        <time>2018-12-27T13:28:36Z</time>
      </trkpt>
      <trkpt lat="42.79086" lon="-0.31323">
        <ele>1811.5</ele>
        <time>2018-12-27T13:28:38Z</time>
      </trkpt>
      <trkpt lat="42.79087" lon="-0.31327">
        <ele>1811.4</ele>
        <time>2018-12-27T13:28:39Z</time>
      </trkpt>
      <trkpt lat="42.79083" lon="-0.31332">
        <ele>1810.9</ele>
        <time>2018-12-27T13:28:40Z</time>
      </trkpt>
      <trkpt lat="42.7908" lon="-0.31338">
        <ele>1810.4</ele>
        <time>2018-12-27T13:28:41Z</time>
      </trkpt>
      <trkpt lat="42.7908" lon="-0.31344">
        <ele>1810.1</ele>
        <time>2018-12-27T13:28:43Z</time>
      </trkpt>
      <trkpt lat="42.79079" lon="-0.31357">
        <ele>1809.7</ele>
        <time>2018-12-27T13:28:45Z</time>
      </trkpt>
      <trkpt lat="42.79079" lon="-0.31371">
        <ele>1809.5</ele>
        <time>2018-12-27T13:28:48Z</time>
      </trkpt>
      <trkpt lat="42.79082" lon="-0.31374">
        <ele>1809.5</ele>
        <time>2018-12-27T13:28:49Z</time>
      </trkpt>
      <trkpt lat="42.79093" lon="-0.31382">
        <ele>1809.6</ele>
        <time>2018-12-27T13:28:52Z</time>
      </trkpt>
      <trkpt lat="42.79102" lon="-0.31388">
        <ele>1809.6</ele>
        <time>2018-12-27T13:28:55Z</time>
      </trkpt>
      <trkpt lat="42.79106" lon="-0.31393">
        <ele>1809.5</ele>
        <time>2018-12-27T13:28:57Z</time>
      </trkpt>
      <trkpt lat="42.79114" lon="-0.31408">
        <ele>1808.6</ele>
        <time>2018-12-27T13:29:00Z</time>
      </trkpt>
      <trkpt lat="42.79114" lon="-0.31411">
        <ele>1808.5</ele>
        <time>2018-12-27T13:29:01Z</time>
      </trkpt>
      <trkpt lat="42.79114" lon="-0.31421">
        <ele>1807.9</ele>
        <time>2018-12-27T13:29:03Z</time>
      </trkpt>
      <trkpt lat="42.79109" lon="-0.31436">
        <ele>1807.1</ele>
        <time>2018-12-27T13:29:06Z</time>
      </trkpt>
      <trkpt lat="42.79109" lon="-0.31442">
        <ele>1806.7</ele>
        <time>2018-12-27T13:29:07Z</time>
      </trkpt>
      <trkpt lat="42.79108" lon="-0.31451">
        <ele>1806.3</ele>
        <time>2018-12-27T13:29:09Z</time>
      </trkpt>
      <trkpt lat="42.79106" lon="-0.31475">
        <ele>1801.9</ele>
        <time>2018-12-27T13:29:14Z</time>
      </trkpt>
      <trkpt lat="42.79107" lon="-0.31493">
        <ele>1797.5</ele>
        <time>2018-12-27T13:29:17Z</time>
      </trkpt>
      <trkpt lat="42.79104" lon="-0.31517">
        <ele>1791.9</ele>
        <time>2018-12-27T13:29:22Z</time>
      </trkpt>
      <trkpt lat="42.79099" lon="-0.31533">
        <ele>1788.6</ele>
        <time>2018-12-27T13:29:25Z</time>
      </trkpt>
      <trkpt lat="42.79096" lon="-0.31534">
        <ele>1788.5</ele>
        <time>2018-12-27T13:29:26Z</time>
      </trkpt>
      <trkpt lat="42.7909" lon="-0.31542">
        <ele>1787.3</ele>
        <time>2018-12-27T13:29:28Z</time>
      </trkpt>
      <trkpt lat="42.79081" lon="-0.31556">
        <ele>1785.7</ele>
        <time>2018-12-27T13:29:32Z</time>
      </trkpt>
      <trkpt lat="42.79076" lon="-0.31565">
        <ele>1784.7</ele>
        <time>2018-12-27T13:29:34Z</time>
      </trkpt>
      <trkpt lat="42.79069" lon="-0.31574">
        <ele>1783.9</ele>
        <time>2018-12-27T13:29:37Z</time>
      </trkpt>
      <trkpt lat="42.79064" lon="-0.31579">
        <ele>1783.8</ele>
        <time>2018-12-27T13:29:38Z</time>
      </trkpt>
      <trkpt lat="42.79059" lon="-0.31582">
        <ele>1783.9</ele>
        <time>2018-12-27T13:29:40Z</time>
      </trkpt>
      <trkpt lat="42.79056" lon="-0.31587">
        <ele>1783.6</ele>
        <time>2018-12-27T13:29:41Z</time>
      </trkpt>
      <trkpt lat="42.7905" lon="-0.31592">
        <ele>1783.5</ele>
        <time>2018-12-27T13:29:43Z</time>
      </trkpt>
      <trkpt lat="42.7905" lon="-0.31595">
        <ele>1783.3</ele>
        <time>2018-12-27T13:29:43Z</time>
      </trkpt>
      <trkpt lat="42.79048" lon="-0.3161">
        <ele>1781.2</ele>
        <time>2018-12-27T13:29:46Z</time>
      </trkpt>
      <trkpt lat="42.79047" lon="-0.31613">
        <ele>1780.8</ele>
        <time>2018-12-27T13:29:47Z</time>
      </trkpt>
      <trkpt lat="42.79048" lon="-0.31617">
        <ele>1780.1</ele>
        <time>2018-12-27T13:29:48Z</time>
      </trkpt>
      <trkpt lat="42.79052" lon="-0.31623">
        <ele>1778.7</ele>
        <time>2018-12-27T13:29:49Z</time>
      </trkpt>
      <trkpt lat="42.79052" lon="-0.31631">
        <ele>1777.4</ele>
        <time>2018-12-27T13:29:51Z</time>
      </trkpt>
      <trkpt lat="42.79051" lon="-0.31634">
        <ele>1777.3</ele>
        <time>2018-12-27T13:29:52Z</time>
      </trkpt>
      <trkpt lat="42.79052" lon="-0.31646">
        <ele>1775.5</ele>
        <time>2018-12-27T13:29:54Z</time>
      </trkpt>
      <trkpt lat="42.79055" lon="-0.31647">
        <ele>1774.9</ele>
        <time>2018-12-27T13:29:55Z</time>
      </trkpt>
      <trkpt lat="42.79065" lon="-0.31652">
        <ele>1772.6</ele>
        <time>2018-12-27T13:29:58Z</time>
      </trkpt>
      <trkpt lat="42.79077" lon="-0.31663">
        <ele>1769.5</ele>
        <time>2018-12-27T13:30:02Z</time>
      </trkpt>
      <trkpt lat="42.79086" lon="-0.31675">
        <ele>1766.7</ele>
        <time>2018-12-27T13:30:05Z</time>
      </trkpt>
      <trkpt lat="42.79087" lon="-0.31679">
        <ele>1765.9</ele>
        <time>2018-12-27T13:30:06Z</time>
      </trkpt>
      <trkpt lat="42.7909" lon="-0.31681">
        <ele>1765.4</ele>
        <time>2018-12-27T13:30:07Z</time>
      </trkpt>
      <trkpt lat="42.79097" lon="-0.31694">
        <ele>1763.1</ele>
        <time>2018-12-27T13:30:10Z</time>
      </trkpt>
      <trkpt lat="42.791" lon="-0.317">
        <ele>1762.1</ele>
        <time>2018-12-27T13:30:11Z</time>
      </trkpt>
      <trkpt lat="42.79107" lon="-0.3171">
        <ele>1760.1</ele>
        <time>2018-12-27T13:30:14Z</time>
      </trkpt>
      <trkpt lat="42.79117" lon="-0.31716">
        <ele>1758</ele>
        <time>2018-12-27T13:30:17Z</time>
      </trkpt>
      <trkpt lat="42.79123" lon="-0.31722">
        <ele>1756.4</ele>
        <time>2018-12-27T13:30:19Z</time>
      </trkpt>
      <trkpt lat="42.79124" lon="-0.31724">
        <ele>1756.2</ele>
        <time>2018-12-27T13:30:19Z</time>
      </trkpt>
      <trkpt lat="42.79128" lon="-0.31728">
        <ele>1755.4</ele>
        <time>2018-12-27T13:30:20Z</time>
      </trkpt>
      <trkpt lat="42.79129" lon="-0.31728">
        <ele>1755.4</ele>
        <time>2018-12-27T13:30:21Z</time>
      </trkpt>
      <trkpt lat="42.79142" lon="-0.31731">
        <ele>1755</ele>
        <time>2018-12-27T13:30:24Z</time>
      </trkpt>
      <trkpt lat="42.79145" lon="-0.31738">
        <ele>1754</ele>
        <time>2018-12-27T13:30:26Z</time>
      </trkpt>
      <trkpt lat="42.79143" lon="-0.31752">
        <ele>1752.1</ele>
        <time>2018-12-27T13:30:29Z</time>
      </trkpt>
      <trkpt lat="42.7914" lon="-0.3176">
        <ele>1751.1</ele>
        <time>2018-12-27T13:30:31Z</time>
      </trkpt>
      <trkpt lat="42.79136" lon="-0.31773">
        <ele>1749.4</ele>
        <time>2018-12-27T13:30:33Z</time>
      </trkpt>
      <trkpt lat="42.79133" lon="-0.31785">
        <ele>1747.8</ele>
        <time>2018-12-27T13:30:36Z</time>
      </trkpt>
      <trkpt lat="42.79139" lon="-0.31794">
        <ele>1746.1</ele>
        <time>2018-12-27T13:30:38Z</time>
      </trkpt>
      <trkpt lat="42.79139" lon="-0.31809">
        <ele>1741.7</ele>
        <time>2018-12-27T13:30:41Z</time>
      </trkpt>
      <trkpt lat="42.7914" lon="-0.31824">
        <ele>1737.2</ele>
        <time>2018-12-27T13:30:44Z</time>
      </trkpt>
      <trkpt lat="42.79141" lon="-0.31828">
        <ele>1735.9</ele>
        <time>2018-12-27T13:30:45Z</time>
      </trkpt>
      <trkpt lat="42.79141" lon="-0.3184">
        <ele>1732.5</ele>
        <time>2018-12-27T13:30:47Z</time>
      </trkpt>
      <trkpt lat="42.79143" lon="-0.31843">
        <ele>1731.6</ele>
        <time>2018-12-27T13:30:48Z</time>
      </trkpt>
      <trkpt lat="42.79148" lon="-0.31854">
        <ele>1728.6</ele>
        <time>2018-12-27T13:30:51Z</time>
      </trkpt>
      <trkpt lat="42.79151" lon="-0.31862">
        <ele>1726.4</ele>
        <time>2018-12-27T13:30:53Z</time>
      </trkpt>
      <trkpt lat="42.79152" lon="-0.31866">
        <ele>1725.3</ele>
        <time>2018-12-27T13:30:53Z</time>
      </trkpt>
      <trkpt lat="42.79152" lon="-0.31881">
        <ele>1720.8</ele>
        <time>2018-12-27T13:30:56Z</time>
      </trkpt>
      <trkpt lat="42.79152" lon="-0.3189">
        <ele>1717.7</ele>
        <time>2018-12-27T13:30:58Z</time>
      </trkpt>
      <trkpt lat="42.79149" lon="-0.31898">
        <ele>1715</ele>
        <time>2018-12-27T13:31:00Z</time>
      </trkpt>
      <trkpt lat="42.79146" lon="-0.31903">
        <ele>1713</ele>
        <time>2018-12-27T13:31:01Z</time>
      </trkpt>
      <trkpt lat="42.79145" lon="-0.31906">
        <ele>1712.1</ele>
        <time>2018-12-27T13:31:02Z</time>
      </trkpt>
      <trkpt lat="42.79145" lon="-0.3191">
        <ele>1710.6</ele>
        <time>2018-12-27T13:31:03Z</time>
      </trkpt>
      <trkpt lat="42.79141" lon="-0.31915">
        <ele>1708.8</ele>
        <time>2018-12-27T13:31:04Z</time>
      </trkpt>
      <trkpt lat="42.79139" lon="-0.31919">
        <ele>1706.7</ele>
        <time>2018-12-27T13:31:05Z</time>
      </trkpt>
      <trkpt lat="42.79131" lon="-0.31923">
        <ele>1704.6</ele>
        <time>2018-12-27T13:31:07Z</time>
      </trkpt>
      <trkpt lat="42.79129" lon="-0.31932">
        <ele>1701.1</ele>
        <time>2018-12-27T13:31:09Z</time>
      </trkpt>
      <trkpt lat="42.79127" lon="-0.31937">
        <ele>1698.9</ele>
        <time>2018-12-27T13:31:10Z</time>
      </trkpt>
      <trkpt lat="42.79125" lon="-0.31937">
        <ele>1698.7</ele>
        <time>2018-12-27T13:31:11Z</time>
      </trkpt>
      <trkpt lat="42.79124" lon="-0.3194">
        <ele>1697.7</ele>
        <time>2018-12-27T13:31:11Z</time>
      </trkpt>
      <trkpt lat="42.79124" lon="-0.31948">
        <ele>1694.6</ele>
        <time>2018-12-27T13:31:13Z</time>
      </trkpt>
      <trkpt lat="42.79121" lon="-0.31961">
        <ele>1689.7</ele>
        <time>2018-12-27T13:31:16Z</time>
      </trkpt>
      <trkpt lat="42.7912" lon="-0.31966">
        <ele>1688.2</ele>
        <time>2018-12-27T13:31:16Z</time>
      </trkpt>
      <trkpt lat="42.79113" lon="-0.31975">
        <ele>1684.4</ele>
        <time>2018-12-27T13:31:19Z</time>
      </trkpt>
      <trkpt lat="42.79102" lon="-0.31975">
        <ele>1683.7</ele>
        <time>2018-12-27T13:31:22Z</time>
      </trkpt>
      <trkpt lat="42.79092" lon="-0.31975">
        <ele>1683</ele>
        <time>2018-12-27T13:31:25Z</time>
      </trkpt>
      <trkpt lat="42.79085" lon="-0.31982">
        <ele>1680.2</ele>
        <time>2018-12-27T13:31:27Z</time>
      </trkpt>
      <trkpt lat="42.79079" lon="-0.31988">
        <ele>1677.6</ele>
        <time>2018-12-27T13:31:29Z</time>
      </trkpt>
      <trkpt lat="42.79077" lon="-0.31989">
        <ele>1677.1</ele>
        <time>2018-12-27T13:31:30Z</time>
      </trkpt>
      <trkpt lat="42.79065" lon="-0.31996">
        <ele>1673.8</ele>
        <time>2018-12-27T13:31:33Z</time>
      </trkpt>
      <trkpt lat="42.79053" lon="-0.31999">
        <ele>1672</ele>
        <time>2018-12-27T13:31:36Z</time>
      </trkpt>
      <trkpt lat="42.79038" lon="-0.32004">
        <ele>1669.6</ele>
        <time>2018-12-27T13:31:40Z</time>
      </trkpt>
      <trkpt lat="42.79023" lon="-0.32012">
        <ele>1667.2</ele>
        <time>2018-12-27T13:31:45Z</time>
      </trkpt>
      <trkpt lat="42.79019" lon="-0.32015">
        <ele>1666.5</ele>
        <time>2018-12-27T13:31:46Z</time>
      </trkpt>
      <trkpt lat="42.79012" lon="-0.32017">
        <ele>1666.2</ele>
        <time>2018-12-27T13:31:48Z</time>
      </trkpt>
      <trkpt lat="42.79005" lon="-0.32029">
        <ele>1662.4</ele>
        <time>2018-12-27T13:31:51Z</time>
      </trkpt>
      <trkpt lat="42.78996" lon="-0.32039">
        <ele>1659.9</ele>
        <time>2018-12-27T13:31:54Z</time>
      </trkpt>
      <trkpt lat="42.78989" lon="-0.32049">
        <ele>1657.8</ele>
        <time>2018-12-27T13:31:57Z</time>
      </trkpt>
      <trkpt lat="42.78993" lon="-0.3206">
        <ele>1655.2</ele>
        <time>2018-12-27T13:31:59Z</time>
      </trkpt>
      <trkpt lat="42.78994" lon="-0.32065">
        <ele>1654.2</ele>
        <time>2018-12-27T13:32:00Z</time>
      </trkpt>
      <trkpt lat="42.78991" lon="-0.32071">
        <ele>1653.1</ele>
        <time>2018-12-27T13:32:01Z</time>
      </trkpt>
      <trkpt lat="42.78983" lon="-0.32079">
        <ele>1652</ele>
        <time>2018-12-27T13:32:04Z</time>
      </trkpt>
      <trkpt lat="42.7898" lon="-0.32082">
        <ele>1651.5</ele>
        <time>2018-12-27T13:32:05Z</time>
      </trkpt>
      <trkpt lat="42.78965" lon="-0.32089">
        <ele>1650.9</ele>
        <time>2018-12-27T13:32:09Z</time>
      </trkpt>
      <trkpt lat="42.78948" lon="-0.32096">
        <ele>1648.1</ele>
        <time>2018-12-27T13:32:14Z</time>
      </trkpt>
      <trkpt lat="42.78936" lon="-0.32106">
        <ele>1644.2</ele>
        <time>2018-12-27T13:32:18Z</time>
      </trkpt>
      <trkpt lat="42.78936" lon="-0.32109">
        <ele>1643.7</ele>
        <time>2018-12-27T13:32:18Z</time>
      </trkpt>
      <trkpt lat="42.78933" lon="-0.32117">
        <ele>1641.6</ele>
        <time>2018-12-27T13:32:20Z</time>
      </trkpt>
      <trkpt lat="42.78937" lon="-0.32129">
        <ele>1639.6</ele>
        <time>2018-12-27T13:32:23Z</time>
      </trkpt>
      <trkpt lat="42.78939" lon="-0.32131">
        <ele>1639.8</ele>
        <time>2018-12-27T13:32:23Z</time>
      </trkpt>
      <trkpt lat="42.78946" lon="-0.32138">
        <ele>1639.1</ele>
        <time>2018-12-27T13:32:26Z</time>
      </trkpt>
      <trkpt lat="42.78947" lon="-0.32138">
        <ele>1639.3</ele>
        <time>2018-12-27T13:32:26Z</time>
      </trkpt>
      <trkpt lat="42.78953" lon="-0.32135">
        <ele>1640.9</ele>
        <time>2018-12-27T13:32:28Z</time>
      </trkpt>
      <trkpt lat="42.78958" lon="-0.32146">
        <ele>1639.2</ele>
        <time>2018-12-27T13:32:30Z</time>
      </trkpt>
      <trkpt lat="42.78966" lon="-0.32151">
        <ele>1637.7</ele>
        <time>2018-12-27T13:32:33Z</time>
      </trkpt>
      <trkpt lat="42.7897" lon="-0.32149">
        <ele>1637.8</ele>
        <time>2018-12-27T13:32:34Z</time>
      </trkpt>
      <trkpt lat="42.78971" lon="-0.32161">
        <ele>1635.1</ele>
        <time>2018-12-27T13:32:36Z</time>
      </trkpt>
      <trkpt lat="42.78964" lon="-0.3217">
        <ele>1633.5</ele>
        <time>2018-12-27T13:32:38Z</time>
      </trkpt>
      <trkpt lat="42.78961" lon="-0.32174">
        <ele>1632.7</ele>
        <time>2018-12-27T13:32:39Z</time>
      </trkpt>
      <trkpt lat="42.78952" lon="-0.32179">
        <ele>1630.6</ele>
        <time>2018-12-27T13:32:42Z</time>
      </trkpt>
      <trkpt lat="42.78941" lon="-0.32185">
        <ele>1627.5</ele>
        <time>2018-12-27T13:32:45Z</time>
      </trkpt>
      <trkpt lat="42.78942" lon="-0.32191">
        <ele>1626.1</ele>
        <time>2018-12-27T13:32:47Z</time>
      </trkpt>
      <trkpt lat="42.78944" lon="-0.32192">
        <ele>1626.3</ele>
        <time>2018-12-27T13:32:47Z</time>
      </trkpt>
      <trkpt lat="42.78954" lon="-0.32204">
        <ele>1625.4</ele>
        <time>2018-12-27T13:32:51Z</time>
      </trkpt>
      <trkpt lat="42.78948" lon="-0.32219">
        <ele>1619</ele>
        <time>2018-12-27T13:32:54Z</time>
      </trkpt>
      <trkpt lat="42.78935" lon="-0.32232">
        <ele>1611.9</ele>
        <time>2018-12-27T13:32:58Z</time>
      </trkpt>
      <trkpt lat="42.78929" lon="-0.32234">
        <ele>1610.1</ele>
        <time>2018-12-27T13:33:00Z</time>
      </trkpt>
      <trkpt lat="42.78924" lon="-0.32238">
        <ele>1607.4</ele>
        <time>2018-12-27T13:33:02Z</time>
      </trkpt>
      <trkpt lat="42.78914" lon="-0.32249">
        <ele>1601.9</ele>
        <time>2018-12-27T13:33:05Z</time>
      </trkpt>
      <trkpt lat="42.78906" lon="-0.3226">
        <ele>1596.9</ele>
        <time>2018-12-27T13:33:08Z</time>
      </trkpt>
      <trkpt lat="42.78905" lon="-0.3227">
        <ele>1593.2</ele>
        <time>2018-12-27T13:33:10Z</time>
      </trkpt>
      <trkpt lat="42.78909" lon="-0.32271">
        <ele>1593.2</ele>
        <time>2018-12-27T13:33:11Z</time>
      </trkpt>
      <trkpt lat="42.78923" lon="-0.32277">
        <ele>1592.9</ele>
        <time>2018-12-27T13:33:15Z</time>
      </trkpt>
      <trkpt lat="42.78923" lon="-0.32279">
        <ele>1592.2</ele>
        <time>2018-12-27T13:33:15Z</time>
      </trkpt>
      <trkpt lat="42.7892" lon="-0.32283">
        <ele>1590.2</ele>
        <time>2018-12-27T13:33:17Z</time>
      </trkpt>
      <trkpt lat="42.78911" lon="-0.3229">
        <ele>1586.4</ele>
        <time>2018-12-27T13:33:19Z</time>
      </trkpt>
      <trkpt lat="42.78909" lon="-0.32292">
        <ele>1585.7</ele>
        <time>2018-12-27T13:33:20Z</time>
      </trkpt>
      <trkpt lat="42.78906" lon="-0.32295">
        <ele>1584.3</ele>
        <time>2018-12-27T13:33:21Z</time>
      </trkpt>
      <trkpt lat="42.78901" lon="-0.32296">
        <ele>1583.4</ele>
        <time>2018-12-27T13:33:22Z</time>
      </trkpt>
      <trkpt lat="42.78899" lon="-0.32298">
        <ele>1582.4</ele>
        <time>2018-12-27T13:33:23Z</time>
      </trkpt>
      <trkpt lat="42.78893" lon="-0.323">
        <ele>1581.3</ele>
        <time>2018-12-27T13:33:25Z</time>
      </trkpt>
      <trkpt lat="42.7889" lon="-0.323">
        <ele>1581</ele>
        <time>2018-12-27T13:33:26Z</time>
      </trkpt>
      <trkpt lat="42.78879" lon="-0.32306">
        <ele>1577.8</ele>
        <time>2018-12-27T13:33:29Z</time>
      </trkpt>
      <trkpt lat="42.78873" lon="-0.32307">
        <ele>1576.7</ele>
        <time>2018-12-27T13:33:30Z</time>
      </trkpt>
      <trkpt lat="42.78865" lon="-0.32307">
        <ele>1574.9</ele>
        <time>2018-12-27T13:33:32Z</time>
      </trkpt>
      <trkpt lat="42.78853" lon="-0.32309">
        <ele>1571</ele>
        <time>2018-12-27T13:33:35Z</time>
      </trkpt>
      <trkpt lat="42.78837" lon="-0.32314">
        <ele>1565.6</ele>
        <time>2018-12-27T13:33:40Z</time>
      </trkpt>
      <trkpt lat="42.78823" lon="-0.32324">
        <ele>1559.3</ele>
        <time>2018-12-27T13:33:44Z</time>
      </trkpt>
      <trkpt lat="42.78816" lon="-0.3233">
        <ele>1555.6</ele>
        <time>2018-12-27T13:33:47Z</time>
      </trkpt>
      <trkpt lat="42.78814" lon="-0.32331">
        <ele>1555.2</ele>
        <time>2018-12-27T13:33:47Z</time>
      </trkpt>
      <trkpt lat="42.78807" lon="-0.32332">
        <ele>1553</ele>
        <time>2018-12-27T13:33:49Z</time>
      </trkpt>
      <trkpt lat="42.78805" lon="-0.32333">
        <ele>1552.2</ele>
        <time>2018-12-27T13:33:49Z</time>
      </trkpt>
      <trkpt lat="42.78798" lon="-0.32335">
        <ele>1550.1</ele>
        <time>2018-12-27T13:33:51Z</time>
      </trkpt>
      <trkpt lat="42.78794" lon="-0.3233">
        <ele>1550.5</ele>
        <time>2018-12-27T13:33:53Z</time>
      </trkpt>
      <trkpt lat="42.78785" lon="-0.32332">
        <ele>1547.2</ele>
        <time>2018-12-27T13:33:55Z</time>
      </trkpt>
      <trkpt lat="42.78777" lon="-0.32337">
        <ele>1543.8</ele>
        <time>2018-12-27T13:33:57Z</time>
      </trkpt>
      <trkpt lat="42.78767" lon="-0.32338">
        <ele>1540.2</ele>
        <time>2018-12-27T13:34:00Z</time>
      </trkpt>
      <trkpt lat="42.78757" lon="-0.32337">
        <ele>1537.5</ele>
        <time>2018-12-27T13:34:03Z</time>
      </trkpt>
      <trkpt lat="42.78754" lon="-0.32337">
        <ele>1536.7</ele>
        <time>2018-12-27T13:34:04Z</time>
      </trkpt>
      <trkpt lat="42.78746" lon="-0.32334">
        <ele>1534.6</ele>
        <time>2018-12-27T13:34:06Z</time>
      </trkpt>
      <trkpt lat="42.78744" lon="-0.32334">
        <ele>1534.2</ele>
        <time>2018-12-27T13:34:06Z</time>
      </trkpt>
      <trkpt lat="42.78736" lon="-0.32336">
        <ele>1531.2</ele>
        <time>2018-12-27T13:34:08Z</time>
      </trkpt>
      <trkpt lat="42.78734" lon="-0.32335">
        <ele>1530.7</ele>
        <time>2018-12-27T13:34:09Z</time>
      </trkpt>
      <trkpt lat="42.78732" lon="-0.32333">
        <ele>1530.5</ele>
        <time>2018-12-27T13:34:10Z</time>
      </trkpt>
      <trkpt lat="42.7872" lon="-0.32328">
        <ele>1527.7</ele>
        <time>2018-12-27T13:34:13Z</time>
      </trkpt>
      <trkpt lat="42.7871" lon="-0.32329">
        <ele>1524.5</ele>
        <time>2018-12-27T13:34:16Z</time>
      </trkpt>
      <trkpt lat="42.78698" lon="-0.3232">
        <ele>1522.1</ele>
        <time>2018-12-27T13:34:19Z</time>
      </trkpt>
      <trkpt lat="42.7869" lon="-0.3232">
        <ele>1519.6</ele>
        <time>2018-12-27T13:34:22Z</time>
      </trkpt>
      <trkpt lat="42.78688" lon="-0.32323">
        <ele>1518.6</ele>
        <time>2018-12-27T13:34:22Z</time>
      </trkpt>
      <trkpt lat="42.78683" lon="-0.32331">
        <ele>1515.4</ele>
        <time>2018-12-27T13:34:24Z</time>
      </trkpt>
      <trkpt lat="42.78681" lon="-0.32339">
        <ele>1513.7</ele>
        <time>2018-12-27T13:34:26Z</time>
      </trkpt>
      <trkpt lat="42.78681" lon="-0.32343">
        <ele>1513</ele>
        <time>2018-12-27T13:34:27Z</time>
      </trkpt>
      <trkpt lat="42.78676" lon="-0.32355">
        <ele>1509.7</ele>
        <time>2018-12-27T13:34:30Z</time>
      </trkpt>
      <trkpt lat="42.78671" lon="-0.3235">
        <ele>1509</ele>
        <time>2018-12-27T13:34:31Z</time>
      </trkpt>
      <trkpt lat="42.78668" lon="-0.32343">
        <ele>1509</ele>
        <time>2018-12-27T13:34:33Z</time>
      </trkpt>
      <trkpt lat="42.78667" lon="-0.32332">
        <ele>1510.2</ele>
        <time>2018-12-27T13:34:35Z</time>
      </trkpt>
      <trkpt lat="42.78661" lon="-0.32321">
        <ele>1510</ele>
        <time>2018-12-27T13:34:38Z</time>
      </trkpt>
      <trkpt lat="42.78657" lon="-0.32321">
        <ele>1508.6</ele>
        <time>2018-12-27T13:34:39Z</time>
      </trkpt>
      <trkpt lat="42.78654" lon="-0.32324">
        <ele>1507.3</ele>
        <time>2018-12-27T13:34:40Z</time>
      </trkpt>
      <trkpt lat="42.7865" lon="-0.32335">
        <ele>1504.5</ele>
        <time>2018-12-27T13:34:42Z</time>
      </trkpt>
      <trkpt lat="42.78647" lon="-0.32341">
        <ele>1502.9</ele>
        <time>2018-12-27T13:34:44Z</time>
      </trkpt>
      <trkpt lat="42.78646" lon="-0.32357">
        <ele>1500.8</ele>
        <time>2018-12-27T13:34:47Z</time>
      </trkpt>
      <trkpt lat="42.78645" lon="-0.32359">
        <ele>1500.1</ele>
        <time>2018-12-27T13:34:47Z</time>
      </trkpt>
      <trkpt lat="42.78642" lon="-0.32358">
        <ele>1499.4</ele>
        <time>2018-12-27T13:34:48Z</time>
      </trkpt>
      <trkpt lat="42.7864" lon="-0.32356">
        <ele>1499</ele>
        <time>2018-12-27T13:34:49Z</time>
      </trkpt>
      <trkpt lat="42.78632" lon="-0.32348">
        <ele>1497.6</ele>
        <time>2018-12-27T13:34:52Z</time>
      </trkpt>
      <trkpt lat="42.78627" lon="-0.32341">
        <ele>1496.8</ele>
        <time>2018-12-27T13:34:53Z</time>
      </trkpt>
      <trkpt lat="42.78622" lon="-0.32328">
        <ele>1496.9</ele>
        <time>2018-12-27T13:34:56Z</time>
      </trkpt>
      <trkpt lat="42.78615" lon="-0.32313">
        <ele>1496.9</ele>
        <time>2018-12-27T13:35:00Z</time>
      </trkpt>
      <trkpt lat="42.78608" lon="-0.323">
        <ele>1496.6</ele>
        <time>2018-12-27T13:35:03Z</time>
      </trkpt>
      <trkpt lat="42.78598" lon="-0.32285">
        <ele>1495.7</ele>
        <time>2018-12-27T13:35:07Z</time>
      </trkpt>
      <trkpt lat="42.78592" lon="-0.32271">
        <ele>1495.4</ele>
        <time>2018-12-27T13:35:10Z</time>
      </trkpt>
      <trkpt lat="42.78585" lon="-0.32278">
        <ele>1493.4</ele>
        <time>2018-12-27T13:35:12Z</time>
      </trkpt>
      <trkpt lat="42.78583" lon="-0.32292">
        <ele>1491.9</ele>
        <time>2018-12-27T13:35:15Z</time>
      </trkpt>
      <trkpt lat="42.78582" lon="-0.323">
        <ele>1491.1</ele>
        <time>2018-12-27T13:35:17Z</time>
      </trkpt>
      <trkpt lat="42.78579" lon="-0.32322">
        <ele>1488.5</ele>
        <time>2018-12-27T13:35:21Z</time>
      </trkpt>
      <trkpt lat="42.78577" lon="-0.32341">
        <ele>1486.3</ele>
        <time>2018-12-27T13:35:25Z</time>
      </trkpt>
      <trkpt lat="42.78582" lon="-0.32357">
        <ele>1485.9</ele>
        <time>2018-12-27T13:35:28Z</time>
      </trkpt>
      <trkpt lat="42.78589" lon="-0.32374">
        <ele>1485.7</ele>
        <time>2018-12-27T13:35:32Z</time>
      </trkpt>
      <trkpt lat="42.78584" lon="-0.32382">
        <ele>1483</ele>
        <time>2018-12-27T13:35:34Z</time>
      </trkpt>
      <trkpt lat="42.7858" lon="-0.32381">
        <ele>1482.6</ele>
        <time>2018-12-27T13:35:35Z</time>
      </trkpt>
      <trkpt lat="42.78571" lon="-0.32376">
        <ele>1481.7</ele>
        <time>2018-12-27T13:35:38Z</time>
      </trkpt>
      <trkpt lat="42.78569" lon="-0.32378">
        <ele>1481</ele>
        <time>2018-12-27T13:35:38Z</time>
      </trkpt>
      <trkpt lat="42.78566" lon="-0.32378">
        <ele>1480.4</ele>
        <time>2018-12-27T13:35:39Z</time>
      </trkpt>
      <trkpt lat="42.78555" lon="-0.32379">
        <ele>1478.1</ele>
        <time>2018-12-27T13:35:42Z</time>
      </trkpt>
      <trkpt lat="42.7855" lon="-0.32376">
        <ele>1477.6</ele>
        <time>2018-12-27T13:35:44Z</time>
      </trkpt>
      <trkpt lat="42.78544" lon="-0.32375">
        <ele>1476.6</ele>
        <time>2018-12-27T13:35:45Z</time>
      </trkpt>
      <trkpt lat="42.78533" lon="-0.3237">
        <ele>1474.9</ele>
        <time>2018-12-27T13:35:48Z</time>
      </trkpt>
      <trkpt lat="42.78533" lon="-0.32372">
        <ele>1474.7</ele>
        <time>2018-12-27T13:35:49Z</time>
      </trkpt>
      <trkpt lat="42.78527" lon="-0.32376">
        <ele>1473.3</ele>
        <time>2018-12-27T13:35:50Z</time>
      </trkpt>
      <trkpt lat="42.78526" lon="-0.32377">
        <ele>1472.8</ele>
        <time>2018-12-27T13:35:51Z</time>
      </trkpt>
      <trkpt lat="42.78515" lon="-0.32372">
        <ele>1471.3</ele>
        <time>2018-12-27T13:35:54Z</time>
      </trkpt>
      <trkpt lat="42.78496" lon="-0.32366">
        <ele>1468.1</ele>
        <time>2018-12-27T13:35:59Z</time>
      </trkpt>
      <trkpt lat="42.78494" lon="-0.32364">
        <ele>1467.9</ele>
        <time>2018-12-27T13:36:00Z</time>
      </trkpt>
      <trkpt lat="42.78485" lon="-0.32362">
        <ele>1466.2</ele>
        <time>2018-12-27T13:36:02Z</time>
      </trkpt>
      <trkpt lat="42.78482" lon="-0.32373">
        <ele>1465.4</ele>
        <time>2018-12-27T13:36:04Z</time>
      </trkpt>
      <trkpt lat="42.78481" lon="-0.32378">
        <ele>1464.4</ele>
        <time>2018-12-27T13:36:06Z</time>
      </trkpt>
      <trkpt lat="42.78478" lon="-0.32398">
        <ele>1459.7</ele>
        <time>2018-12-27T13:36:09Z</time>
      </trkpt>
      <trkpt lat="42.78473" lon="-0.32421">
        <ele>1453.4</ele>
        <time>2018-12-27T13:36:14Z</time>
      </trkpt>
      <trkpt lat="42.7848" lon="-0.32434">
        <ele>1452.1</ele>
        <time>2018-12-27T13:36:17Z</time>
      </trkpt>
      <trkpt lat="42.78493" lon="-0.32441">
        <ele>1453.1</ele>
        <time>2018-12-27T13:36:21Z</time>
      </trkpt>
      <trkpt lat="42.78508" lon="-0.32455">
        <ele>1453.5</ele>
        <time>2018-12-27T13:36:26Z</time>
      </trkpt>
      <trkpt lat="42.78517" lon="-0.32468">
        <ele>1452.3</ele>
        <time>2018-12-27T13:36:29Z</time>
      </trkpt>
      <trkpt lat="42.7853" lon="-0.32486">
        <ele>1450.9</ele>
        <time>2018-12-27T13:36:34Z</time>
      </trkpt>
      <trkpt lat="42.78543" lon="-0.32498">
        <ele>1451</ele>
        <time>2018-12-27T13:36:39Z</time>
      </trkpt>
      <trkpt lat="42.78559" lon="-0.32503">
        <ele>1451.4</ele>
        <time>2018-12-27T13:36:43Z</time>
      </trkpt>
      <trkpt lat="42.78575" lon="-0.32504">
        <ele>1452.9</ele>
        <time>2018-12-27T13:36:47Z</time>
      </trkpt>
      <trkpt lat="42.78594" lon="-0.32501">
        <ele>1455.3</ele>
        <time>2018-12-27T13:36:53Z</time>
      </trkpt>
      <trkpt lat="42.78611" lon="-0.32502">
        <ele>1456.7</ele>
        <time>2018-12-27T13:36:57Z</time>
      </trkpt>
      <trkpt lat="42.78626" lon="-0.3251">
        <ele>1456.1</ele>
        <time>2018-12-27T13:37:01Z</time>
      </trkpt>
      <trkpt lat="42.7864" lon="-0.32518">
        <ele>1454.5</ele>
        <time>2018-12-27T13:37:05Z</time>
      </trkpt>
      <trkpt lat="42.78653" lon="-0.32528">
        <ele>1451.9</ele>
        <time>2018-12-27T13:37:09Z</time>
      </trkpt>
      <trkpt lat="42.78668" lon="-0.32535">
        <ele>1449.9</ele>
        <time>2018-12-27T13:37:13Z</time>
      </trkpt>
      <trkpt lat="42.78685" lon="-0.32546">
        <ele>1446.5</ele>
        <time>2018-12-27T13:37:19Z</time>
      </trkpt>
      <trkpt lat="42.78701" lon="-0.32553">
        <ele>1444.6</ele>
        <time>2018-12-27T13:37:23Z</time>
      </trkpt>
      <trkpt lat="42.78722" lon="-0.32559">
        <ele>1443.7</ele>
        <time>2018-12-27T13:37:29Z</time>
      </trkpt>
      <trkpt lat="42.78735" lon="-0.32561">
        <ele>1444</ele>
        <time>2018-12-27T13:37:32Z</time>
      </trkpt>
      <trkpt lat="42.7875" lon="-0.32567">
        <ele>1443.4</ele>
        <time>2018-12-27T13:37:36Z</time>
      </trkpt>
      <trkpt lat="42.78768" lon="-0.32574">
        <ele>1442.5</ele>
        <time>2018-12-27T13:37:41Z</time>
      </trkpt>
      <trkpt lat="42.78781" lon="-0.32588">
        <ele>1439.2</ele>
        <time>2018-12-27T13:37:46Z</time>
      </trkpt>
      <trkpt lat="42.78796" lon="-0.32607">
        <ele>1434.4</ele>
        <time>2018-12-27T13:37:51Z</time>
      </trkpt>
      <trkpt lat="42.78812" lon="-0.32612">
        <ele>1433.2</ele>
        <time>2018-12-27T13:37:56Z</time>
      </trkpt>
      <trkpt lat="42.7883" lon="-0.32612">
        <ele>1433.8</ele>
        <time>2018-12-27T13:38:00Z</time>
      </trkpt>
      <trkpt lat="42.78849" lon="-0.32614">
        <ele>1433.3</ele>
        <time>2018-12-27T13:38:05Z</time>
      </trkpt>
      <trkpt lat="42.78865" lon="-0.32621">
        <ele>1431.4</ele>
        <time>2018-12-27T13:38:10Z</time>
      </trkpt>
      <trkpt lat="42.78883" lon="-0.32631">
        <ele>1433</ele>
        <time>2018-12-27T13:38:15Z</time>
      </trkpt>
      <trkpt lat="42.78897" lon="-0.32641">
        <ele>1437.5</ele>
        <time>2018-12-27T13:38:19Z</time>
      </trkpt>
      <trkpt lat="42.78913" lon="-0.3265">
        <ele>1441.7</ele>
        <time>2018-12-27T13:38:24Z</time>
      </trkpt>
      <trkpt lat="42.78925" lon="-0.32658">
        <ele>1444.9</ele>
        <time>2018-12-27T13:38:27Z</time>
      </trkpt>
      <trkpt lat="42.78926" lon="-0.32661">
        <ele>1445.9</ele>
        <time>2018-12-27T13:38:28Z</time>
      </trkpt>
      <trkpt lat="42.78927" lon="-0.32672">
        <ele>1448.5</ele>
        <time>2018-12-27T13:38:30Z</time>
      </trkpt>
      <trkpt lat="42.78927" lon="-0.3268">
        <ele>1450.5</ele>
        <time>2018-12-27T13:38:32Z</time>
      </trkpt>
      <trkpt lat="42.78925" lon="-0.32701">
        <ele>1455.1</ele>
        <time>2018-12-27T13:38:36Z</time>
      </trkpt>
      <trkpt lat="42.7892" lon="-0.32724">
        <ele>1464.9</ele>
        <time>2018-12-27T13:38:41Z</time>
      </trkpt>
      <trkpt lat="42.78909" lon="-0.3273">
        <ele>1468</ele>
        <time>2018-12-27T13:38:44Z</time>
      </trkpt>
      <trkpt lat="42.78892" lon="-0.32726">
        <ele>1465.1</ele>
        <time>2018-12-27T13:38:48Z</time>
      </trkpt>
      <trkpt lat="42.78875" lon="-0.32724">
        <ele>1463.7</ele>
        <time>2018-12-27T13:38:53Z</time>
      </trkpt>
      <trkpt lat="42.7888" lon="-0.32728">
        <ele>1466</ele>
        <time>2018-12-27T13:38:54Z</time>
      </trkpt>
      <trkpt lat="42.78893" lon="-0.32732">
        <ele>1468.7</ele>
        <time>2018-12-27T13:38:58Z</time>
      </trkpt>
      <trkpt lat="42.78903" lon="-0.32732">
        <ele>1468.7</ele>
        <time>2018-12-27T13:39:01Z</time>
      </trkpt>
      <trkpt lat="42.78908" lon="-0.32733">
        <ele>1469.6</ele>
        <time>2018-12-27T13:39:02Z</time>
      </trkpt>
      <trkpt lat="42.78923" lon="-0.32739">
        <ele>1473.4</ele>
        <time>2018-12-27T13:39:06Z</time>
      </trkpt>
      <trkpt lat="42.78933" lon="-0.32748">
        <ele>1477.7</ele>
        <time>2018-12-27T13:39:09Z</time>
      </trkpt>
      <trkpt lat="42.78946" lon="-0.32755">
        <ele>1481.3</ele>
        <time>2018-12-27T13:39:13Z</time>
      </trkpt>
      <trkpt lat="42.78955" lon="-0.32757">
        <ele>1482.4</ele>
        <time>2018-12-27T13:39:16Z</time>
      </trkpt>
      <trkpt lat="42.78957" lon="-0.32758">
        <ele>1482.9</ele>
        <time>2018-12-27T13:39:16Z</time>
      </trkpt>
      <trkpt lat="42.78961" lon="-0.3277">
        <ele>1487.9</ele>
        <time>2018-12-27T13:39:19Z</time>
      </trkpt>
      <trkpt lat="42.78959" lon="-0.3277">
        <ele>1488.4</ele>
        <time>2018-12-27T13:39:19Z</time>
      </trkpt>
      <trkpt lat="42.78963" lon="-0.3277">
        <ele>1487.2</ele>
        <time>2018-12-27T13:39:21Z</time>
      </trkpt>
      <trkpt lat="42.78966" lon="-0.32775">
        <ele>1489</ele>
        <time>2018-12-27T13:39:22Z</time>
      </trkpt>
      <trkpt lat="42.78969" lon="-0.32782">
        <ele>1490.9</ele>
        <time>2018-12-27T13:39:23Z</time>
      </trkpt>
      <trkpt lat="42.78976" lon="-0.32786">
        <ele>1490.8</ele>
        <time>2018-12-27T13:39:25Z</time>
      </trkpt>
      <trkpt lat="42.7898" lon="-0.32782">
        <ele>1487.7</ele>
        <time>2018-12-27T13:39:27Z</time>
      </trkpt>
      <trkpt lat="42.78982" lon="-0.32779">
        <ele>1485.9</ele>
        <time>2018-12-27T13:39:27Z</time>
      </trkpt>
      <trkpt lat="42.78994" lon="-0.32774">
        <ele>1480</ele>
        <time>2018-12-27T13:39:31Z</time>
      </trkpt>
      <trkpt lat="42.79006" lon="-0.32774">
        <ele>1476.6</ele>
        <time>2018-12-27T13:39:34Z</time>
      </trkpt>
      <trkpt lat="42.79015" lon="-0.32779">
        <ele>1475.8</ele>
        <time>2018-12-27T13:39:37Z</time>
      </trkpt>
      <trkpt lat="42.79016" lon="-0.3278">
        <ele>1476.1</ele>
        <time>2018-12-27T13:39:37Z</time>
      </trkpt>
      <trkpt lat="42.79027" lon="-0.3279">
        <ele>1476.1</ele>
        <time>2018-12-27T13:39:40Z</time>
      </trkpt>
      <trkpt lat="42.79029" lon="-0.32793">
        <ele>1476.8</ele>
        <time>2018-12-27T13:39:41Z</time>
      </trkpt>
      <trkpt lat="42.79032" lon="-0.328">
        <ele>1479</ele>
        <time>2018-12-27T13:39:43Z</time>
      </trkpt>
      <trkpt lat="42.79035" lon="-0.32808">
        <ele>1481.8</ele>
        <time>2018-12-27T13:39:45Z</time>
      </trkpt>
      <trkpt lat="42.79035" lon="-0.3281">
        <ele>1482.5</ele>
        <time>2018-12-27T13:39:45Z</time>
      </trkpt>
      <trkpt lat="42.79039" lon="-0.32816">
        <ele>1483.9</ele>
        <time>2018-12-27T13:39:46Z</time>
      </trkpt>
      <trkpt lat="42.79044" lon="-0.32822">
        <ele>1485.9</ele>
        <time>2018-12-27T13:39:48Z</time>
      </trkpt>
      <trkpt lat="42.7905" lon="-0.32829">
        <ele>1487.9</ele>
        <time>2018-12-27T13:39:50Z</time>
      </trkpt>
      <trkpt lat="42.79062" lon="-0.32837">
        <ele>1489.5</ele>
        <time>2018-12-27T13:39:54Z</time>
      </trkpt>
      <trkpt lat="42.79074" lon="-0.32849">
        <ele>1492.3</ele>
        <time>2018-12-27T13:39:58Z</time>
      </trkpt>
      <trkpt lat="42.79083" lon="-0.32855">
        <ele>1493.4</ele>
        <time>2018-12-27T13:40:01Z</time>
      </trkpt>
      <trkpt lat="42.7909" lon="-0.32863">
        <ele>1495.3</ele>
        <time>2018-12-27T13:40:03Z</time>
      </trkpt>
      <trkpt lat="42.791" lon="-0.32873">
        <ele>1497.7</ele>
        <time>2018-12-27T13:40:06Z</time>
      </trkpt>
      <trkpt lat="42.79109" lon="-0.32883">
        <ele>1499.9</ele>
        <time>2018-12-27T13:40:09Z</time>
      </trkpt>
      <trkpt lat="42.79123" lon="-0.32895">
        <ele>1502.8</ele>
        <time>2018-12-27T13:40:14Z</time>
      </trkpt>
      <trkpt lat="42.79133" lon="-0.32903">
        <ele>1503.2</ele>
        <time>2018-12-27T13:40:17Z</time>
      </trkpt>
      <trkpt lat="42.79142" lon="-0.329">
        <ele>1498.3</ele>
        <time>2018-12-27T13:40:19Z</time>
      </trkpt>
      <trkpt lat="42.79151" lon="-0.32899">
        <ele>1494.1</ele>
        <time>2018-12-27T13:40:22Z</time>
      </trkpt>
      <trkpt lat="42.79162" lon="-0.32904">
        <ele>1492.5</ele>
        <time>2018-12-27T13:40:25Z</time>
      </trkpt>
      <trkpt lat="42.79163" lon="-0.32904">
        <ele>1492.4</ele>
        <time>2018-12-27T13:40:25Z</time>
      </trkpt>
      <trkpt lat="42.79175" lon="-0.32903">
        <ele>1487</ele>
        <time>2018-12-27T13:40:29Z</time>
      </trkpt>
      <trkpt lat="42.79184" lon="-0.32909">
        <ele>1486.4</ele>
        <time>2018-12-27T13:40:31Z</time>
      </trkpt>
      <trkpt lat="42.79196" lon="-0.32914">
        <ele>1484.2</ele>
        <time>2018-12-27T13:40:35Z</time>
      </trkpt>
      <trkpt lat="42.79203" lon="-0.32921">
        <ele>1484.4</ele>
        <time>2018-12-27T13:40:37Z</time>
      </trkpt>
      <trkpt lat="42.79206" lon="-0.32922">
        <ele>1484.2</ele>
        <time>2018-12-27T13:40:38Z</time>
      </trkpt>
      <trkpt lat="42.79209" lon="-0.32927">
        <ele>1485</ele>
        <time>2018-12-27T13:40:39Z</time>
      </trkpt>
      <trkpt lat="42.79212" lon="-0.32933">
        <ele>1486.8</ele>
        <time>2018-12-27T13:40:40Z</time>
      </trkpt>
      <trkpt lat="42.79223" lon="-0.32942">
        <ele>1487.4</ele>
        <time>2018-12-27T13:40:44Z</time>
      </trkpt>
      <trkpt lat="42.79226" lon="-0.32943">
        <ele>1487.3</ele>
        <time>2018-12-27T13:40:44Z</time>
      </trkpt>
      <trkpt lat="42.79231" lon="-0.32951">
        <ele>1488.6</ele>
        <time>2018-12-27T13:40:47Z</time>
      </trkpt>
      <trkpt lat="42.79234" lon="-0.32952">
        <ele>1488.3</ele>
        <time>2018-12-27T13:40:47Z</time>
      </trkpt>
      <trkpt lat="42.79246" lon="-0.32958">
        <ele>1486.9</ele>
        <time>2018-12-27T13:40:51Z</time>
      </trkpt>
      <trkpt lat="42.7925" lon="-0.32959">
        <ele>1485.5</ele>
        <time>2018-12-27T13:40:52Z</time>
      </trkpt>
      <trkpt lat="42.79256" lon="-0.3296">
        <ele>1484.6</ele>
        <time>2018-12-27T13:40:53Z</time>
      </trkpt>
      <trkpt lat="42.79263" lon="-0.32967">
        <ele>1486.4</ele>
        <time>2018-12-27T13:40:56Z</time>
      </trkpt>
      <trkpt lat="42.79274" lon="-0.32974">
        <ele>1487.3</ele>
        <time>2018-12-27T13:40:59Z</time>
      </trkpt>
      <trkpt lat="42.79276" lon="-0.32973">
        <ele>1486.6</ele>
        <time>2018-12-27T13:40:59Z</time>
      </trkpt>
      <trkpt lat="42.79282" lon="-0.32974">
        <ele>1485.4</ele>
        <time>2018-12-27T13:41:01Z</time>
      </trkpt>
      <trkpt lat="42.79284" lon="-0.32976">
        <ele>1485.4</ele>
        <time>2018-12-27T13:41:02Z</time>
      </trkpt>
      <trkpt lat="42.79291" lon="-0.3298">
        <ele>1486.2</ele>
        <time>2018-12-27T13:41:04Z</time>
      </trkpt>
      <trkpt lat="42.79293" lon="-0.32983">
        <ele>1487.4</ele>
        <time>2018-12-27T13:41:05Z</time>
      </trkpt>
      <trkpt lat="42.79298" lon="-0.32989">
        <ele>1489.5</ele>
        <time>2018-12-27T13:41:06Z</time>
      </trkpt>
      <trkpt lat="42.793" lon="-0.32993">
        <ele>1491.2</ele>
        <time>2018-12-27T13:41:07Z</time>
      </trkpt>
      <trkpt lat="42.79304" lon="-0.32996">
        <ele>1492.2</ele>
        <time>2018-12-27T13:41:09Z</time>
      </trkpt>
      <trkpt lat="42.79306" lon="-0.32999">
        <ele>1493.3</ele>
        <time>2018-12-27T13:41:09Z</time>
      </trkpt>
      <trkpt lat="42.79314" lon="-0.33003">
        <ele>1493.1</ele>
        <time>2018-12-27T13:41:11Z</time>
      </trkpt>
      <trkpt lat="42.79317" lon="-0.33009">
        <ele>1495.6</ele>
        <time>2018-12-27T13:41:13Z</time>
      </trkpt>
      <trkpt lat="42.79326" lon="-0.33015">
        <ele>1495.7</ele>
        <time>2018-12-27T13:41:16Z</time>
      </trkpt>
      <trkpt lat="42.79339" lon="-0.33022">
        <ele>1495</ele>
        <time>2018-12-27T13:41:19Z</time>
      </trkpt>
      <trkpt lat="42.79349" lon="-0.33025">
        <ele>1493</ele>
        <time>2018-12-27T13:41:22Z</time>
      </trkpt>
      <trkpt lat="42.79351" lon="-0.33026">
        <ele>1492.3</ele>
        <time>2018-12-27T13:41:23Z</time>
      </trkpt>
      <trkpt lat="42.79362" lon="-0.33038">
        <ele>1494.2</ele>
        <time>2018-12-27T13:41:26Z</time>
      </trkpt>
      <trkpt lat="42.79368" lon="-0.33046">
        <ele>1495.3</ele>
        <time>2018-12-27T13:41:29Z</time>
      </trkpt>
      <trkpt lat="42.79369" lon="-0.3305">
        <ele>1496.6</ele>
        <time>2018-12-27T13:41:29Z</time>
      </trkpt>
      <trkpt lat="42.7938" lon="-0.3306">
        <ele>1497.6</ele>
        <time>2018-12-27T13:41:33Z</time>
      </trkpt>
      <trkpt lat="42.79385" lon="-0.33067">
        <ele>1499.3</ele>
        <time>2018-12-27T13:41:35Z</time>
      </trkpt>
      <trkpt lat="42.79387" lon="-0.33075">
        <ele>1502.5</ele>
        <time>2018-12-27T13:41:37Z</time>
      </trkpt>
      <trkpt lat="42.79395" lon="-0.33083">
        <ele>1503.1</ele>
        <time>2018-12-27T13:41:39Z</time>
      </trkpt>
      <trkpt lat="42.79404" lon="-0.33092">
        <ele>1503.5</ele>
        <time>2018-12-27T13:41:42Z</time>
      </trkpt>
      <trkpt lat="42.7942" lon="-0.33097">
        <ele>1498.5</ele>
        <time>2018-12-27T13:41:47Z</time>
      </trkpt>
      <trkpt lat="42.79433" lon="-0.33106">
        <ele>1496.2</ele>
        <time>2018-12-27T13:41:50Z</time>
      </trkpt>
      <trkpt lat="42.79445" lon="-0.33115">
        <ele>1493.8</ele>
        <time>2018-12-27T13:41:54Z</time>
      </trkpt>
      <trkpt lat="42.79457" lon="-0.33126">
        <ele>1492.3</ele>
        <time>2018-12-27T13:41:58Z</time>
      </trkpt>
      <trkpt lat="42.79467" lon="-0.33136">
        <ele>1494.8</ele>
        <time>2018-12-27T13:42:01Z</time>
      </trkpt>
      <trkpt lat="42.79479" lon="-0.33139">
        <ele>1493</ele>
        <time>2018-12-27T13:42:04Z</time>
      </trkpt>
      <trkpt lat="42.79487" lon="-0.33144">
        <ele>1493.6</ele>
        <time>2018-12-27T13:42:07Z</time>
      </trkpt>
      <trkpt lat="42.79495" lon="-0.33152">
        <ele>1494.9</ele>
        <time>2018-12-27T13:42:09Z</time>
      </trkpt>
      <trkpt lat="42.7951" lon="-0.33163">
        <ele>1496.1</ele>
        <time>2018-12-27T13:42:14Z</time>
      </trkpt>
      <trkpt lat="42.79515" lon="-0.33165">
        <ele>1495.8</ele>
        <time>2018-12-27T13:42:15Z</time>
      </trkpt>
      <trkpt lat="42.79517" lon="-0.33167">
        <ele>1495.9</ele>
        <time>2018-12-27T13:42:16Z</time>
      </trkpt>
      <trkpt lat="42.79532" lon="-0.3318">
        <ele>1497.3</ele>
        <time>2018-12-27T13:42:21Z</time>
      </trkpt>
      <trkpt lat="42.79545" lon="-0.3319">
        <ele>1496.5</ele>
        <time>2018-12-27T13:42:25Z</time>
      </trkpt>
      <trkpt lat="42.79561" lon="-0.332">
        <ele>1494</ele>
        <time>2018-12-27T13:42:29Z</time>
      </trkpt>
      <trkpt lat="42.79577" lon="-0.33213">
        <ele>1491.9</ele>
        <time>2018-12-27T13:42:34Z</time>
      </trkpt>
      <trkpt lat="42.79591" lon="-0.33218">
        <ele>1487.6</ele>
        <time>2018-12-27T13:42:38Z</time>
      </trkpt>
      <trkpt lat="42.79604" lon="-0.33231">
        <ele>1487.6</ele>
        <time>2018-12-27T13:42:43Z</time>
      </trkpt>
      <trkpt lat="42.79619" lon="-0.33237">
        <ele>1482.4</ele>
        <time>2018-12-27T13:42:47Z</time>
      </trkpt>
      <trkpt lat="42.79627" lon="-0.33228">
        <ele>1474.3</ele>
        <time>2018-12-27T13:42:50Z</time>
      </trkpt>
      <trkpt lat="42.79644" lon="-0.33217">
        <ele>1465</ele>
        <time>2018-12-27T13:42:55Z</time>
      </trkpt>
      <trkpt lat="42.79653" lon="-0.33217">
        <ele>1462.6</ele>
        <time>2018-12-27T13:42:57Z</time>
      </trkpt>
      <trkpt lat="42.7966" lon="-0.33223">
        <ele>1462.9</ele>
        <time>2018-12-27T13:42:59Z</time>
      </trkpt>
      <trkpt lat="42.79663" lon="-0.33226">
        <ele>1463</ele>
        <time>2018-12-27T13:43:00Z</time>
      </trkpt>
      <trkpt lat="42.79676" lon="-0.33232">
        <ele>1461</ele>
        <time>2018-12-27T13:43:04Z</time>
      </trkpt>
      <trkpt lat="42.79684" lon="-0.33244">
        <ele>1462.3</ele>
        <time>2018-12-27T13:43:07Z</time>
      </trkpt>
      <trkpt lat="42.79694" lon="-0.33258">
        <ele>1463.1</ele>
        <time>2018-12-27T13:43:11Z</time>
      </trkpt>
      <trkpt lat="42.79701" lon="-0.33269">
        <ele>1463</ele>
        <time>2018-12-27T13:43:14Z</time>
      </trkpt>
      <trkpt lat="42.79714" lon="-0.33283">
        <ele>1462.9</ele>
        <time>2018-12-27T13:43:18Z</time>
      </trkpt>
      <trkpt lat="42.79723" lon="-0.33296">
        <ele>1464.6</ele>
        <time>2018-12-27T13:43:22Z</time>
      </trkpt>
      <trkpt lat="42.79732" lon="-0.33305">
        <ele>1466.1</ele>
        <time>2018-12-27T13:43:25Z</time>
      </trkpt>
      <trkpt lat="42.79742" lon="-0.33316">
        <ele>1468</ele>
        <time>2018-12-27T13:43:28Z</time>
      </trkpt>
      <trkpt lat="42.79751" lon="-0.33323">
        <ele>1467.9</ele>
        <time>2018-12-27T13:43:31Z</time>
      </trkpt>
      <trkpt lat="42.79762" lon="-0.33328">
        <ele>1466.4</ele>
        <time>2018-12-27T13:43:34Z</time>
      </trkpt>
      <trkpt lat="42.79774" lon="-0.33336">
        <ele>1464.9</ele>
        <time>2018-12-27T13:43:37Z</time>
      </trkpt>
      <trkpt lat="42.79778" lon="-0.33339">
        <ele>1464.5</ele>
        <time>2018-12-27T13:43:39Z</time>
      </trkpt>
      <trkpt lat="42.79786" lon="-0.33346">
        <ele>1463.6</ele>
        <time>2018-12-27T13:43:41Z</time>
      </trkpt>
      <trkpt lat="42.79801" lon="-0.33354">
        <ele>1464.1</ele>
        <time>2018-12-27T13:43:46Z</time>
      </trkpt>
      <trkpt lat="42.79814" lon="-0.33351">
        <ele>1464</ele>
        <time>2018-12-27T13:43:49Z</time>
      </trkpt>
      <trkpt lat="42.79823" lon="-0.33353">
        <ele>1464.9</ele>
        <time>2018-12-27T13:43:51Z</time>
      </trkpt>
      <trkpt lat="42.79837" lon="-0.33356">
        <ele>1466.2</ele>
        <time>2018-12-27T13:43:55Z</time>
      </trkpt>
      <trkpt lat="42.79852" lon="-0.33354">
        <ele>1466.4</ele>
        <time>2018-12-27T13:43:59Z</time>
      </trkpt>
      <trkpt lat="42.79863" lon="-0.33355">
        <ele>1467.1</ele>
        <time>2018-12-27T13:44:02Z</time>
      </trkpt>
      <trkpt lat="42.79866" lon="-0.33356">
        <ele>1467.3</ele>
        <time>2018-12-27T13:44:03Z</time>
      </trkpt>
      <trkpt lat="42.79868" lon="-0.33355">
        <ele>1467.3</ele>
        <time>2018-12-27T13:44:04Z</time>
      </trkpt>
      <trkpt lat="42.79872" lon="-0.33357">
        <ele>1467.9</ele>
        <time>2018-12-27T13:44:04Z</time>
      </trkpt>
      <trkpt lat="42.79875" lon="-0.33357">
        <ele>1468.1</ele>
        <time>2018-12-27T13:44:05Z</time>
      </trkpt>
      <trkpt lat="42.7988" lon="-0.33361">
        <ele>1468.8</ele>
        <time>2018-12-27T13:44:07Z</time>
      </trkpt>
      <trkpt lat="42.79883" lon="-0.33365">
        <ele>1469.6</ele>
        <time>2018-12-27T13:44:08Z</time>
      </trkpt>
      <trkpt lat="42.7989" lon="-0.33379">
        <ele>1472.8</ele>
        <time>2018-12-27T13:44:11Z</time>
      </trkpt>
      <trkpt lat="42.79895" lon="-0.3339">
        <ele>1476.1</ele>
        <time>2018-12-27T13:44:14Z</time>
      </trkpt>
      <trkpt lat="42.79901" lon="-0.33394">
        <ele>1476.9</ele>
        <time>2018-12-27T13:44:16Z</time>
      </trkpt>
      <trkpt lat="42.79905" lon="-0.334">
        <ele>1478.9</ele>
        <time>2018-12-27T13:44:17Z</time>
      </trkpt>
      <trkpt lat="42.79914" lon="-0.33406">
        <ele>1479.8</ele>
        <time>2018-12-27T13:44:20Z</time>
      </trkpt>
      <trkpt lat="42.79917" lon="-0.33409">
        <ele>1480.2</ele>
        <time>2018-12-27T13:44:21Z</time>
      </trkpt>
      <trkpt lat="42.79924" lon="-0.33418">
        <ele>1482.4</ele>
        <time>2018-12-27T13:44:24Z</time>
      </trkpt>
      <trkpt lat="42.7993" lon="-0.33428">
        <ele>1484.8</ele>
        <time>2018-12-27T13:44:26Z</time>
      </trkpt>
      <trkpt lat="42.79941" lon="-0.33439">
        <ele>1486.8</ele>
        <time>2018-12-27T13:44:30Z</time>
      </trkpt>
      <trkpt lat="42.79953" lon="-0.33446">
        <ele>1487.1</ele>
        <time>2018-12-27T13:44:33Z</time>
      </trkpt>
      <trkpt lat="42.79963" lon="-0.33453">
        <ele>1487.3</ele>
        <time>2018-12-27T13:44:36Z</time>
      </trkpt>
      <trkpt lat="42.79964" lon="-0.33452">
        <ele>1486.8</ele>
        <time>2018-12-27T13:44:36Z</time>
      </trkpt>
      <trkpt lat="42.7997" lon="-0.33457">
        <ele>1486.9</ele>
        <time>2018-12-27T13:44:38Z</time>
      </trkpt>
      <trkpt lat="42.79979" lon="-0.33461">
        <ele>1486.9</ele>
        <time>2018-12-27T13:44:41Z</time>
      </trkpt>
      <trkpt lat="42.79982" lon="-0.33463">
        <ele>1487.3</ele>
        <time>2018-12-27T13:44:42Z</time>
      </trkpt>
      <trkpt lat="42.79987" lon="-0.33469">
        <ele>1489.3</ele>
        <time>2018-12-27T13:44:43Z</time>
      </trkpt>
      <trkpt lat="42.79991" lon="-0.33473">
        <ele>1490.6</ele>
        <time>2018-12-27T13:44:45Z</time>
      </trkpt>
      <trkpt lat="42.79992" lon="-0.33474">
        <ele>1490.9</ele>
        <time>2018-12-27T13:44:45Z</time>
      </trkpt>
      <trkpt lat="42.79996" lon="-0.33479">
        <ele>1492.6</ele>
        <time>2018-12-27T13:44:47Z</time>
      </trkpt>
      <trkpt lat="42.79997" lon="-0.33482">
        <ele>1494.3</ele>
        <time>2018-12-27T13:44:47Z</time>
      </trkpt>
      <trkpt lat="42.79997" lon="-0.33488">
        <ele>1497.4</ele>
        <time>2018-12-27T13:44:48Z</time>
      </trkpt>
      <trkpt lat="42.79998" lon="-0.33494">
        <ele>1500.8</ele>
        <time>2018-12-27T13:44:50Z</time>
      </trkpt>
      <trkpt lat="42.79999" lon="-0.33498">
        <ele>1502.5</ele>
        <time>2018-12-27T13:44:50Z</time>
      </trkpt>
      <trkpt lat="42.80005" lon="-0.33504">
        <ele>1505.2</ele>
        <time>2018-12-27T13:44:52Z</time>
      </trkpt>
      <trkpt lat="42.80012" lon="-0.33509">
        <ele>1506.4</ele>
        <time>2018-12-27T13:44:54Z</time>
      </trkpt>
      <trkpt lat="42.80018" lon="-0.33516">
        <ele>1509.4</ele>
        <time>2018-12-27T13:44:57Z</time>
      </trkpt>
      <trkpt lat="42.80021" lon="-0.33518">
        <ele>1510.1</ele>
        <time>2018-12-27T13:44:58Z</time>
      </trkpt>
      <trkpt lat="42.80027" lon="-0.33523">
        <ele>1511.8</ele>
        <time>2018-12-27T13:44:59Z</time>
      </trkpt>
      <trkpt lat="42.80038" lon="-0.33525">
        <ele>1511.7</ele>
        <time>2018-12-27T13:45:02Z</time>
      </trkpt>
      <trkpt lat="42.8005" lon="-0.33531">
        <ele>1512.5</ele>
        <time>2018-12-27T13:45:06Z</time>
      </trkpt>
      <trkpt lat="42.80065" lon="-0.33538">
        <ele>1511.8</ele>
        <time>2018-12-27T13:45:10Z</time>
      </trkpt>
      <trkpt lat="42.80076" lon="-0.33539">
        <ele>1509.1</ele>
        <time>2018-12-27T13:45:13Z</time>
      </trkpt>
      <trkpt lat="42.80081" lon="-0.33545">
        <ele>1510</ele>
        <time>2018-12-27T13:45:15Z</time>
      </trkpt>
      <trkpt lat="42.80084" lon="-0.33549">
        <ele>1511.1</ele>
        <time>2018-12-27T13:45:16Z</time>
      </trkpt>
      <trkpt lat="42.80091" lon="-0.33556">
        <ele>1512.3</ele>
        <time>2018-12-27T13:45:18Z</time>
      </trkpt>
      <trkpt lat="42.80095" lon="-0.33555">
        <ele>1510.8</ele>
        <time>2018-12-27T13:45:19Z</time>
      </trkpt>
      <trkpt lat="42.80099" lon="-0.33555">
        <ele>1509.3</ele>
        <time>2018-12-27T13:45:20Z</time>
      </trkpt>
      <trkpt lat="42.80102" lon="-0.33553">
        <ele>1507.6</ele>
        <time>2018-12-27T13:45:21Z</time>
      </trkpt>
      <trkpt lat="42.80109" lon="-0.33549">
        <ele>1503.4</ele>
        <time>2018-12-27T13:45:23Z</time>
      </trkpt>
      <trkpt lat="42.80112" lon="-0.33548">
        <ele>1501.9</ele>
        <time>2018-12-27T13:45:24Z</time>
      </trkpt>
      <trkpt lat="42.80122" lon="-0.33541">
        <ele>1495.4</ele>
        <time>2018-12-27T13:45:27Z</time>
      </trkpt>
      <trkpt lat="42.80133" lon="-0.33532">
        <ele>1491.1</ele>
        <time>2018-12-27T13:45:30Z</time>
      </trkpt>
      <trkpt lat="42.80147" lon="-0.33525">
        <ele>1488.4</ele>
        <time>2018-12-27T13:45:34Z</time>
      </trkpt>
      <trkpt lat="42.80149" lon="-0.33521">
        <ele>1487.1</ele>
        <time>2018-12-27T13:45:35Z</time>
      </trkpt>
      <trkpt lat="42.80149" lon="-0.33515">
        <ele>1484.9</ele>
        <time>2018-12-27T13:45:36Z</time>
      </trkpt>
      <trkpt lat="42.80153" lon="-0.335">
        <ele>1479.2</ele>
        <time>2018-12-27T13:45:40Z</time>
      </trkpt>
      <trkpt lat="42.80163" lon="-0.33501">
        <ele>1480.2</ele>
        <time>2018-12-27T13:45:42Z</time>
      </trkpt>
      <trkpt lat="42.80173" lon="-0.33508">
        <ele>1483.3</ele>
        <time>2018-12-27T13:45:45Z</time>
      </trkpt>
      <trkpt lat="42.80187" lon="-0.33519">
        <ele>1487.6</ele>
        <time>2018-12-27T13:45:50Z</time>
      </trkpt>
      <trkpt lat="42.802" lon="-0.33532">
        <ele>1492.1</ele>
        <time>2018-12-27T13:45:54Z</time>
      </trkpt>
      <trkpt lat="42.80211" lon="-0.33545">
        <ele>1495.9</ele>
        <time>2018-12-27T13:45:58Z</time>
      </trkpt>
      <trkpt lat="42.80221" lon="-0.33552">
        <ele>1496.7</ele>
        <time>2018-12-27T13:46:01Z</time>
      </trkpt>
      <trkpt lat="42.80231" lon="-0.33557">
        <ele>1496.5</ele>
        <time>2018-12-27T13:46:03Z</time>
      </trkpt>
      <trkpt lat="42.80248" lon="-0.33567">
        <ele>1496.5</ele>
        <time>2018-12-27T13:46:09Z</time>
      </trkpt>
      <trkpt lat="42.80257" lon="-0.33578">
        <ele>1498.4</ele>
        <time>2018-12-27T13:46:12Z</time>
      </trkpt>
      <trkpt lat="42.80269" lon="-0.33587">
        <ele>1498.9</ele>
        <time>2018-12-27T13:46:15Z</time>
      </trkpt>
      <trkpt lat="42.80275" lon="-0.33589">
        <ele>1498</ele>
        <time>2018-12-27T13:46:17Z</time>
      </trkpt>
      <trkpt lat="42.8028" lon="-0.33595">
        <ele>1498.7</ele>
        <time>2018-12-27T13:46:19Z</time>
      </trkpt>
      <trkpt lat="42.80285" lon="-0.33604">
        <ele>1501.3</ele>
        <time>2018-12-27T13:46:21Z</time>
      </trkpt>
      <trkpt lat="42.80286" lon="-0.33607">
        <ele>1501.8</ele>
        <time>2018-12-27T13:46:22Z</time>
      </trkpt>
      <trkpt lat="42.8029" lon="-0.33613">
        <ele>1503.1</ele>
        <time>2018-12-27T13:46:23Z</time>
      </trkpt>
      <trkpt lat="42.80291" lon="-0.33613">
        <ele>1502.8</ele>
        <time>2018-12-27T13:46:23Z</time>
      </trkpt>
      <trkpt lat="42.80296" lon="-0.33617">
        <ele>1503.2</ele>
        <time>2018-12-27T13:46:25Z</time>
      </trkpt>
      <trkpt lat="42.80307" lon="-0.33621">
        <ele>1502.1</ele>
        <time>2018-12-27T13:46:28Z</time>
      </trkpt>
      <trkpt lat="42.80324" lon="-0.33627">
        <ele>1500.5</ele>
        <time>2018-12-27T13:46:33Z</time>
      </trkpt>
      <trkpt lat="42.80337" lon="-0.33626">
        <ele>1497</ele>
        <time>2018-12-27T13:46:36Z</time>
      </trkpt>
      <trkpt lat="42.80348" lon="-0.33626">
        <ele>1494.7</ele>
        <time>2018-12-27T13:46:39Z</time>
      </trkpt>
      <trkpt lat="42.80362" lon="-0.33623">
        <ele>1490.3</ele>
        <time>2018-12-27T13:46:43Z</time>
      </trkpt>
      <trkpt lat="42.8038" lon="-0.33622">
        <ele>1487.8</ele>
        <time>2018-12-27T13:46:48Z</time>
      </trkpt>
      <trkpt lat="42.80394" lon="-0.33623">
        <ele>1488.8</ele>
        <time>2018-12-27T13:46:52Z</time>
      </trkpt>
      <trkpt lat="42.80408" lon="-0.33625">
        <ele>1490.1</ele>
        <time>2018-12-27T13:46:55Z</time>
      </trkpt>
      <trkpt lat="42.80419" lon="-0.3363">
        <ele>1493.5</ele>
        <time>2018-12-27T13:46:59Z</time>
      </trkpt>
      <trkpt lat="42.8042" lon="-0.3363">
        <ele>1493.5</ele>
        <time>2018-12-27T13:46:59Z</time>
      </trkpt>
      <trkpt lat="42.80424" lon="-0.33633">
        <ele>1495.1</ele>
        <time>2018-12-27T13:47:00Z</time>
      </trkpt>
      <trkpt lat="42.80426" lon="-0.33634">
        <ele>1496.1</ele>
        <time>2018-12-27T13:47:01Z</time>
      </trkpt>
      <trkpt lat="42.80431" lon="-0.33635">
        <ele>1496.7</ele>
        <time>2018-12-27T13:47:02Z</time>
      </trkpt>
      <trkpt lat="42.80436" lon="-0.33636">
        <ele>1497.9</ele>
        <time>2018-12-27T13:47:03Z</time>
      </trkpt>
      <trkpt lat="42.80438" lon="-0.3364">
        <ele>1500.1</ele>
        <time>2018-12-27T13:47:04Z</time>
      </trkpt>
      <trkpt lat="42.80442" lon="-0.33639">
        <ele>1500.2</ele>
        <time>2018-12-27T13:47:05Z</time>
      </trkpt>
      <trkpt lat="42.80444" lon="-0.33639">
        <ele>1500.3</ele>
        <time>2018-12-27T13:47:06Z</time>
      </trkpt>
      <trkpt lat="42.80447" lon="-0.33638">
        <ele>1500</ele>
        <time>2018-12-27T13:47:06Z</time>
      </trkpt>
      <trkpt lat="42.80454" lon="-0.33637">
        <ele>1500.2</ele>
        <time>2018-12-27T13:47:08Z</time>
      </trkpt>
      <trkpt lat="42.80457" lon="-0.33637">
        <ele>1500.1</ele>
        <time>2018-12-27T13:47:09Z</time>
      </trkpt>
      <trkpt lat="42.80459" lon="-0.33638">
        <ele>1501.1</ele>
        <time>2018-12-27T13:47:10Z</time>
      </trkpt>
      <trkpt lat="42.80461" lon="-0.33639">
        <ele>1501.3</ele>
        <time>2018-12-27T13:47:10Z</time>
      </trkpt>
      <trkpt lat="42.80463" lon="-0.3364">
        <ele>1501.1</ele>
        <time>2018-12-27T13:47:11Z</time>
      </trkpt>
      <trkpt lat="42.80464" lon="-0.3364">
        <ele>1501.2</ele>
        <time>2018-12-27T13:47:11Z</time>
      </trkpt>
      <trkpt lat="42.80467" lon="-0.33645">
        <ele>1503.1</ele>
        <time>2018-12-27T13:47:12Z</time>
      </trkpt>
      <trkpt lat="42.80479" lon="-0.33658">
        <ele>1507.5</ele>
        <time>2018-12-27T13:47:17Z</time>
      </trkpt>
      <trkpt lat="42.80484" lon="-0.33671">
        <ele>1512.6</ele>
        <time>2018-12-27T13:47:19Z</time>
      </trkpt>
      <trkpt lat="42.80495" lon="-0.33682">
        <ele>1514.2</ele>
        <time>2018-12-27T13:47:23Z</time>
      </trkpt>
      <trkpt lat="42.80503" lon="-0.33692">
        <ele>1515.2</ele>
        <time>2018-12-27T13:47:26Z</time>
      </trkpt>
      <trkpt lat="42.80514" lon="-0.33702">
        <ele>1514.8</ele>
        <time>2018-12-27T13:47:29Z</time>
      </trkpt>
      <trkpt lat="42.80518" lon="-0.33708">
        <ele>1515.1</ele>
        <time>2018-12-27T13:47:31Z</time>
      </trkpt>
      <trkpt lat="42.80527" lon="-0.33716">
        <ele>1514.4</ele>
        <time>2018-12-27T13:47:34Z</time>
      </trkpt>
      <trkpt lat="42.80533" lon="-0.33723">
        <ele>1514.2</ele>
        <time>2018-12-27T13:47:36Z</time>
      </trkpt>
      <trkpt lat="42.8054" lon="-0.3373">
        <ele>1514.1</ele>
        <time>2018-12-27T13:47:38Z</time>
      </trkpt>
      <trkpt lat="42.80543" lon="-0.33732">
        <ele>1513.8</ele>
        <time>2018-12-27T13:47:39Z</time>
      </trkpt>
      <trkpt lat="42.80551" lon="-0.33736">
        <ele>1513</ele>
        <time>2018-12-27T13:47:41Z</time>
      </trkpt>
      <trkpt lat="42.80559" lon="-0.33742">
        <ele>1512.6</ele>
        <time>2018-12-27T13:47:44Z</time>
      </trkpt>
      <trkpt lat="42.80571" lon="-0.33748">
        <ele>1511.2</ele>
        <time>2018-12-27T13:47:47Z</time>
      </trkpt>
      <trkpt lat="42.80573" lon="-0.33751">
        <ele>1511.4</ele>
        <time>2018-12-27T13:47:48Z</time>
      </trkpt>
      <trkpt lat="42.80577" lon="-0.33754">
        <ele>1511.2</ele>
        <time>2018-12-27T13:47:49Z</time>
      </trkpt>
      <trkpt lat="42.80582" lon="-0.33761">
        <ele>1511.7</ele>
        <time>2018-12-27T13:47:51Z</time>
      </trkpt>
      <trkpt lat="42.80584" lon="-0.33765">
        <ele>1512.7</ele>
        <time>2018-12-27T13:47:52Z</time>
      </trkpt>
      <trkpt lat="42.80584" lon="-0.33766">
        <ele>1513.2</ele>
        <time>2018-12-27T13:47:52Z</time>
      </trkpt>
      <trkpt lat="42.80586" lon="-0.33773">
        <ele>1514.5</ele>
        <time>2018-12-27T13:47:54Z</time>
      </trkpt>
      <trkpt lat="42.80587" lon="-0.33774">
        <ele>1514.6</ele>
        <time>2018-12-27T13:47:54Z</time>
      </trkpt>
      <trkpt lat="42.8059" lon="-0.33777">
        <ele>1514.5</ele>
        <time>2018-12-27T13:47:55Z</time>
      </trkpt>
      <trkpt lat="42.80591" lon="-0.33779">
        <ele>1514.5</ele>
        <time>2018-12-27T13:47:56Z</time>
      </trkpt>
      <trkpt lat="42.80592" lon="-0.33779">
        <ele>1514.1</ele>
        <time>2018-12-27T13:47:56Z</time>
      </trkpt>
      <trkpt lat="42.80595" lon="-0.33781">
        <ele>1514.1</ele>
        <time>2018-12-27T13:47:57Z</time>
      </trkpt>
      <trkpt lat="42.80597" lon="-0.33782">
        <ele>1513.2</ele>
        <time>2018-12-27T13:47:57Z</time>
      </trkpt>
      <trkpt lat="42.80599" lon="-0.33782">
        <ele>1512.4</ele>
        <time>2018-12-27T13:47:58Z</time>
      </trkpt>
      <trkpt lat="42.80601" lon="-0.33783">
        <ele>1512.2</ele>
        <time>2018-12-27T13:47:58Z</time>
      </trkpt>
      <trkpt lat="42.80604" lon="-0.33789">
        <ele>1512.4</ele>
        <time>2018-12-27T13:48:00Z</time>
      </trkpt>
      <trkpt lat="42.80605" lon="-0.33789">
        <ele>1512.1</ele>
        <time>2018-12-27T13:48:00Z</time>
      </trkpt>
      <trkpt lat="42.80607" lon="-0.33792">
        <ele>1512.5</ele>
        <time>2018-12-27T13:48:01Z</time>
      </trkpt>
      <trkpt lat="42.80607" lon="-0.33793">
        <ele>1512.6</ele>
        <time>2018-12-27T13:48:01Z</time>
      </trkpt>
      <trkpt lat="42.8061" lon="-0.33795">
        <ele>1512.3</ele>
        <time>2018-12-27T13:48:02Z</time>
      </trkpt>
      <trkpt lat="42.8061" lon="-0.33796">
        <ele>1512.6</ele>
        <time>2018-12-27T13:48:02Z</time>
      </trkpt>
      <trkpt lat="42.80614" lon="-0.33799">
        <ele>1511.7</ele>
        <time>2018-12-27T13:48:03Z</time>
      </trkpt>
      <trkpt lat="42.80613" lon="-0.33801">
        <ele>1512.3</ele>
        <time>2018-12-27T13:48:03Z</time>
      </trkpt>
      <trkpt lat="42.80612" lon="-0.33805">
        <ele>1514</ele>
        <time>2018-12-27T13:48:04Z</time>
      </trkpt>
      <trkpt lat="42.8061" lon="-0.33817">
        <ele>1517.8</ele>
        <time>2018-12-27T13:48:07Z</time>
      </trkpt>
      <trkpt lat="42.8061" lon="-0.33819">
        <ele>1518.4</ele>
        <time>2018-12-27T13:48:07Z</time>
      </trkpt>
      <trkpt lat="42.80606" lon="-0.33824">
        <ele>1521.7</ele>
        <time>2018-12-27T13:48:09Z</time>
      </trkpt>
      <trkpt lat="42.80598" lon="-0.3383">
        <ele>1526.9</ele>
        <time>2018-12-27T13:48:11Z</time>
      </trkpt>
      <trkpt lat="42.80596" lon="-0.3383">
        <ele>1527.7</ele>
        <time>2018-12-27T13:48:12Z</time>
      </trkpt>
      <trkpt lat="42.80587" lon="-0.33837">
        <ele>1534.1</ele>
        <time>2018-12-27T13:48:14Z</time>
      </trkpt>
      <trkpt lat="42.80583" lon="-0.33845">
        <ele>1538.1</ele>
        <time>2018-12-27T13:48:16Z</time>
      </trkpt>
      <trkpt lat="42.80579" lon="-0.33846">
        <ele>1540.3</ele>
        <time>2018-12-27T13:48:17Z</time>
      </trkpt>
      <trkpt lat="42.80577" lon="-0.33845">
        <ele>1541.2</ele>
        <time>2018-12-27T13:48:18Z</time>
      </trkpt>
      <trkpt lat="42.80575" lon="-0.33846">
        <ele>1542.2</ele>
        <time>2018-12-27T13:48:18Z</time>
      </trkpt>
      <trkpt lat="42.80574" lon="-0.33846">
        <ele>1542.9</ele>
        <time>2018-12-27T13:48:19Z</time>
      </trkpt>
      <trkpt lat="42.80572" lon="-0.33846">
        <ele>1544</ele>
        <time>2018-12-27T13:48:19Z</time>
      </trkpt>
      <trkpt lat="42.80571" lon="-0.33851">
        <ele>1546</ele>
        <time>2018-12-27T13:48:20Z</time>
      </trkpt>
      <trkpt lat="42.80571" lon="-0.33857">
        <ele>1547.7</ele>
        <time>2018-12-27T13:48:22Z</time>
      </trkpt>
      <trkpt lat="42.80574" lon="-0.33859">
        <ele>1546.9</ele>
        <time>2018-12-27T13:48:22Z</time>
      </trkpt>
      <trkpt lat="42.80575" lon="-0.33861">
        <ele>1546.9</ele>
        <time>2018-12-27T13:48:23Z</time>
      </trkpt>
      <trkpt lat="42.80575" lon="-0.33861">
        <ele>1547.2</ele>
        <time>2018-12-27T13:48:23Z</time>
      </trkpt>
      <trkpt lat="42.80577" lon="-0.33867">
        <ele>1547.8</ele>
        <time>2018-12-27T13:48:24Z</time>
      </trkpt>
      <trkpt lat="42.80579" lon="-0.33868">
        <ele>1547.5</ele>
        <time>2018-12-27T13:48:25Z</time>
      </trkpt>
      <trkpt lat="42.8058" lon="-0.33872">
        <ele>1547.8</ele>
        <time>2018-12-27T13:48:25Z</time>
      </trkpt>
      <trkpt lat="42.80581" lon="-0.33875">
        <ele>1548.1</ele>
        <time>2018-12-27T13:48:26Z</time>
      </trkpt>
      <trkpt lat="42.80582" lon="-0.33879">
        <ele>1549.3</ele>
        <time>2018-12-27T13:48:27Z</time>
      </trkpt>
      <trkpt lat="42.80576" lon="-0.33879">
        <ele>1552.6</ele>
        <time>2018-12-27T13:48:28Z</time>
      </trkpt>
      <trkpt lat="42.80571" lon="-0.33877">
        <ele>1554.4</ele>
        <time>2018-12-27T13:48:30Z</time>
      </trkpt>
      <trkpt lat="42.8057" lon="-0.33877">
        <ele>1554.9</ele>
        <time>2018-12-27T13:48:30Z</time>
      </trkpt>
      <trkpt lat="42.80567" lon="-0.33879">
        <ele>1556.7</ele>
        <time>2018-12-27T13:48:31Z</time>
      </trkpt>
      <trkpt lat="42.80566" lon="-0.33883">
        <ele>1558.7</ele>
        <time>2018-12-27T13:48:32Z</time>
      </trkpt>
      <trkpt lat="42.80565" lon="-0.33886">
        <ele>1560.6</ele>
        <time>2018-12-27T13:48:32Z</time>
      </trkpt>
      <trkpt lat="42.80557" lon="-0.33883">
        <ele>1563.7</ele>
        <time>2018-12-27T13:48:34Z</time>
      </trkpt>
      <trkpt lat="42.80552" lon="-0.33882">
        <ele>1565.9</ele>
        <time>2018-12-27T13:48:36Z</time>
      </trkpt>
      <trkpt lat="42.80549" lon="-0.33884">
        <ele>1567.9</ele>
        <time>2018-12-27T13:48:37Z</time>
      </trkpt>
      <trkpt lat="42.80547" lon="-0.33882">
        <ele>1568.5</ele>
        <time>2018-12-27T13:48:37Z</time>
      </trkpt>
      <trkpt lat="42.80545" lon="-0.33885">
        <ele>1570.6</ele>
        <time>2018-12-27T13:48:38Z</time>
      </trkpt>
      <trkpt lat="42.80542" lon="-0.33886">
        <ele>1572.8</ele>
        <time>2018-12-27T13:48:39Z</time>
      </trkpt>
      <trkpt lat="42.80539" lon="-0.33888">
        <ele>1574.7</ele>
        <time>2018-12-27T13:48:40Z</time>
      </trkpt>
      <trkpt lat="42.80538" lon="-0.33894">
        <ele>1577.4</ele>
        <time>2018-12-27T13:48:41Z</time>
      </trkpt>
      <trkpt lat="42.80539" lon="-0.33902">
        <ele>1580.3</ele>
        <time>2018-12-27T13:48:42Z</time>
      </trkpt>
      <trkpt lat="42.80542" lon="-0.33904">
        <ele>1580.7</ele>
        <time>2018-12-27T13:48:43Z</time>
      </trkpt>
      <trkpt lat="42.80545" lon="-0.33906">
        <ele>1579.6</ele>
        <time>2018-12-27T13:48:44Z</time>
      </trkpt>
      <trkpt lat="42.80548" lon="-0.33911">
        <ele>1579.9</ele>
        <time>2018-12-27T13:48:45Z</time>
      </trkpt>
      <trkpt lat="42.8055" lon="-0.33917">
        <ele>1581.7</ele>
        <time>2018-12-27T13:48:47Z</time>
      </trkpt>
      <trkpt lat="42.80548" lon="-0.33916">
        <ele>1582.6</ele>
        <time>2018-12-27T13:48:48Z</time>
      </trkpt>
      <trkpt lat="42.80546" lon="-0.33916">
        <ele>1583.8</ele>
        <time>2018-12-27T13:48:48Z</time>
      </trkpt>
      <trkpt lat="42.80544" lon="-0.33916">
        <ele>1584.6</ele>
        <time>2018-12-27T13:48:49Z</time>
      </trkpt>
      <trkpt lat="42.80541" lon="-0.33917">
        <ele>1586.4</ele>
        <time>2018-12-27T13:48:49Z</time>
      </trkpt>
      <trkpt lat="42.80539" lon="-0.3392">
        <ele>1588</ele>
        <time>2018-12-27T13:48:50Z</time>
      </trkpt>
      <trkpt lat="42.80536" lon="-0.33922">
        <ele>1589.9</ele>
        <time>2018-12-27T13:48:51Z</time>
      </trkpt>
      <trkpt lat="42.80533" lon="-0.33926">
        <ele>1592</ele>
        <time>2018-12-27T13:48:52Z</time>
      </trkpt>
      <trkpt lat="42.80529" lon="-0.33928">
        <ele>1593.6</ele>
        <time>2018-12-27T13:48:53Z</time>
      </trkpt>
      <trkpt lat="42.80525" lon="-0.3393">
        <ele>1595.5</ele>
        <time>2018-12-27T13:48:54Z</time>
      </trkpt>
      <trkpt lat="42.8052" lon="-0.33932">
        <ele>1597</ele>
        <time>2018-12-27T13:48:56Z</time>
      </trkpt>
      <trkpt lat="42.80516" lon="-0.33932">
        <ele>1597.9</ele>
        <time>2018-12-27T13:48:57Z</time>
      </trkpt>
      <trkpt lat="42.80512" lon="-0.3393">
        <ele>1598.3</ele>
        <time>2018-12-27T13:48:58Z</time>
      </trkpt>
      <trkpt lat="42.80509" lon="-0.33929">
        <ele>1598.2</ele>
        <time>2018-12-27T13:48:59Z</time>
      </trkpt>
      <trkpt lat="42.80506" lon="-0.33925">
        <ele>1597.9</ele>
        <time>2018-12-27T13:49:00Z</time>
      </trkpt>
      <trkpt lat="42.80504" lon="-0.33926">
        <ele>1598.4</ele>
        <time>2018-12-27T13:49:00Z</time>
      </trkpt>
      <trkpt lat="42.80501" lon="-0.33923">
        <ele>1598.1</ele>
        <time>2018-12-27T13:49:01Z</time>
      </trkpt>
      <trkpt lat="42.80496" lon="-0.3392">
        <ele>1598.3</ele>
        <time>2018-12-27T13:49:03Z</time>
      </trkpt>
      <trkpt lat="42.80494" lon="-0.33912">
        <ele>1596.4</ele>
        <time>2018-12-27T13:49:05Z</time>
      </trkpt>
      <trkpt lat="42.80493" lon="-0.33901">
        <ele>1593.2</ele>
        <time>2018-12-27T13:49:07Z</time>
      </trkpt>
      <trkpt lat="42.80489" lon="-0.33898">
        <ele>1593.3</ele>
        <time>2018-12-27T13:49:08Z</time>
      </trkpt>
      <trkpt lat="42.80488" lon="-0.339">
        <ele>1594.3</ele>
        <time>2018-12-27T13:49:08Z</time>
      </trkpt>
      <trkpt lat="42.80487" lon="-0.33899">
        <ele>1594.4</ele>
        <time>2018-12-27T13:49:09Z</time>
      </trkpt>
      <trkpt lat="42.80484" lon="-0.33895">
        <ele>1593.8</ele>
        <time>2018-12-27T13:49:10Z</time>
      </trkpt>
      <trkpt lat="42.80481" lon="-0.33891">
        <ele>1593.7</ele>
        <time>2018-12-27T13:49:11Z</time>
      </trkpt>
      <trkpt lat="42.8048" lon="-0.33888">
        <ele>1593.1</ele>
        <time>2018-12-27T13:49:12Z</time>
      </trkpt>
      <trkpt lat="42.80477" lon="-0.33886">
        <ele>1593.7</ele>
        <time>2018-12-27T13:49:13Z</time>
      </trkpt>
      <trkpt lat="42.80474" lon="-0.33884">
        <ele>1594</ele>
        <time>2018-12-27T13:49:14Z</time>
      </trkpt>
      <trkpt lat="42.80472" lon="-0.33877">
        <ele>1593</ele>
        <time>2018-12-27T13:49:15Z</time>
      </trkpt>
      <trkpt lat="42.80472" lon="-0.33876">
        <ele>1592.5</ele>
        <time>2018-12-27T13:49:15Z</time>
      </trkpt>
      <trkpt lat="42.80471" lon="-0.33874">
        <ele>1592.3</ele>
        <time>2018-12-27T13:49:16Z</time>
      </trkpt>
      <trkpt lat="42.80469" lon="-0.33874">
        <ele>1593</ele>
        <time>2018-12-27T13:49:16Z</time>
      </trkpt>
      <trkpt lat="42.80465" lon="-0.33873">
        <ele>1594</ele>
        <time>2018-12-27T13:49:17Z</time>
      </trkpt>
      <trkpt lat="42.80459" lon="-0.33873">
        <ele>1596.3</ele>
        <time>2018-12-27T13:49:19Z</time>
      </trkpt>
      <trkpt lat="42.80457" lon="-0.33873">
        <ele>1596.4</ele>
        <time>2018-12-27T13:49:19Z</time>
      </trkpt>
      <trkpt lat="42.80454" lon="-0.33876">
        <ele>1596.7</ele>
        <time>2018-12-27T13:49:20Z</time>
      </trkpt>
      <trkpt lat="42.8045" lon="-0.33876">
        <ele>1596.6</ele>
        <time>2018-12-27T13:49:21Z</time>
      </trkpt>
      <trkpt lat="42.80449" lon="-0.33877">
        <ele>1596.5</ele>
        <time>2018-12-27T13:49:22Z</time>
      </trkpt>
      <trkpt lat="42.80448" lon="-0.33882">
        <ele>1597.7</ele>
        <time>2018-12-27T13:49:23Z</time>
      </trkpt>
      <trkpt lat="42.80446" lon="-0.33883">
        <ele>1597.7</ele>
        <time>2018-12-27T13:49:23Z</time>
      </trkpt>
      <trkpt lat="42.80444" lon="-0.33887">
        <ele>1598.4</ele>
        <time>2018-12-27T13:49:24Z</time>
      </trkpt>
      <trkpt lat="42.80443" lon="-0.3389">
        <ele>1599.1</ele>
        <time>2018-12-27T13:49:25Z</time>
      </trkpt>
      <trkpt lat="42.80443" lon="-0.33895">
        <ele>1600.3</ele>
        <time>2018-12-27T13:49:26Z</time>
      </trkpt>
      <trkpt lat="42.80441" lon="-0.33901">
        <ele>1601.5</ele>
        <time>2018-12-27T13:49:27Z</time>
      </trkpt>
      <trkpt lat="42.80439" lon="-0.33905">
        <ele>1602.4</ele>
        <time>2018-12-27T13:49:28Z</time>
      </trkpt>
      <trkpt lat="42.80437" lon="-0.33908">
        <ele>1603.1</ele>
        <time>2018-12-27T13:49:29Z</time>
      </trkpt>
      <trkpt lat="42.8043" lon="-0.33909">
        <ele>1602.8</ele>
        <time>2018-12-27T13:49:31Z</time>
      </trkpt>
      <trkpt lat="42.80424" lon="-0.33911">
        <ele>1602.9</ele>
        <time>2018-12-27T13:49:33Z</time>
      </trkpt>
      <trkpt lat="42.80418" lon="-0.3391">
        <ele>1602.2</ele>
        <time>2018-12-27T13:49:34Z</time>
      </trkpt>
      <trkpt lat="42.80416" lon="-0.33909">
        <ele>1601.7</ele>
        <time>2018-12-27T13:49:35Z</time>
      </trkpt>
      <trkpt lat="42.80409" lon="-0.33906">
        <ele>1600.6</ele>
        <time>2018-12-27T13:49:37Z</time>
      </trkpt>
      <trkpt lat="42.804" lon="-0.339">
        <ele>1598.1</ele>
        <time>2018-12-27T13:49:40Z</time>
      </trkpt>
      <trkpt lat="42.80399" lon="-0.33901">
        <ele>1598.3</ele>
        <time>2018-12-27T13:49:40Z</time>
      </trkpt>
      <trkpt lat="42.80395" lon="-0.33903">
        <ele>1598.7</ele>
        <time>2018-12-27T13:49:41Z</time>
      </trkpt>
      <trkpt lat="42.80392" lon="-0.3391">
        <ele>1600.4</ele>
        <time>2018-12-27T13:49:43Z</time>
      </trkpt>
      <trkpt lat="42.80393" lon="-0.33911">
        <ele>1600.5</ele>
        <time>2018-12-27T13:49:43Z</time>
      </trkpt>
      <trkpt lat="42.80393" lon="-0.33914">
        <ele>1601.5</ele>
        <time>2018-12-27T13:49:43Z</time>
      </trkpt>
      <trkpt lat="42.80394" lon="-0.33918">
        <ele>1602.7</ele>
        <time>2018-12-27T13:49:44Z</time>
      </trkpt>
      <trkpt lat="42.80395" lon="-0.33921">
        <ele>1603.4</ele>
        <time>2018-12-27T13:49:45Z</time>
      </trkpt>
      <trkpt lat="42.80397" lon="-0.33924">
        <ele>1604.4</ele>
        <time>2018-12-27T13:49:46Z</time>
      </trkpt>
      <trkpt lat="42.80397" lon="-0.33925">
        <ele>1604.7</ele>
        <time>2018-12-27T13:49:46Z</time>
      </trkpt>
      <trkpt lat="42.80398" lon="-0.33931">
        <ele>1606.3</ele>
        <time>2018-12-27T13:49:47Z</time>
      </trkpt>
      <trkpt lat="42.80399" lon="-0.33933">
        <ele>1607.1</ele>
        <time>2018-12-27T13:49:48Z</time>
      </trkpt>
      <trkpt lat="42.80399" lon="-0.33934">
        <ele>1607.4</ele>
        <time>2018-12-27T13:49:48Z</time>
      </trkpt>
      <trkpt lat="42.80399" lon="-0.33939">
        <ele>1608.6</ele>
        <time>2018-12-27T13:49:49Z</time>
      </trkpt>
      <trkpt lat="42.80398" lon="-0.33954">
        <ele>1612.7</ele>
        <time>2018-12-27T13:49:52Z</time>
      </trkpt>
      <trkpt lat="42.80397" lon="-0.33968">
        <ele>1616.8</ele>
        <time>2018-12-27T13:49:54Z</time>
      </trkpt>
      <trkpt lat="42.80394" lon="-0.33977">
        <ele>1619.7</ele>
        <time>2018-12-27T13:49:56Z</time>
      </trkpt>
      <trkpt lat="42.80391" lon="-0.33978">
        <ele>1620</ele>
        <time>2018-12-27T13:49:57Z</time>
      </trkpt>
      <trkpt lat="42.80385" lon="-0.33988">
        <ele>1623.1</ele>
        <time>2018-12-27T13:50:00Z</time>
      </trkpt>
      <trkpt lat="42.80385" lon="-0.3399">
        <ele>1623.4</ele>
        <time>2018-12-27T13:50:00Z</time>
      </trkpt>
      <trkpt lat="42.80383" lon="-0.33991">
        <ele>1623.8</ele>
        <time>2018-12-27T13:50:01Z</time>
      </trkpt>
      <trkpt lat="42.8038" lon="-0.33996">
        <ele>1625.3</ele>
        <time>2018-12-27T13:50:02Z</time>
      </trkpt>
      <trkpt lat="42.80378" lon="-0.33998">
        <ele>1626.1</ele>
        <time>2018-12-27T13:50:03Z</time>
      </trkpt>
      <trkpt lat="42.80376" lon="-0.34002">
        <ele>1627.1</ele>
        <time>2018-12-27T13:50:03Z</time>
      </trkpt>
      <trkpt lat="42.80371" lon="-0.34007">
        <ele>1628.7</ele>
        <time>2018-12-27T13:50:05Z</time>
      </trkpt>
      <trkpt lat="42.80368" lon="-0.34008">
        <ele>1629.1</ele>
        <time>2018-12-27T13:50:06Z</time>
      </trkpt>
      <trkpt lat="42.80367" lon="-0.34007">
        <ele>1628.8</ele>
        <time>2018-12-27T13:50:06Z</time>
      </trkpt>
      <trkpt lat="42.80365" lon="-0.34008">
        <ele>1629.2</ele>
        <time>2018-12-27T13:50:07Z</time>
      </trkpt>
      <trkpt lat="42.80352" lon="-0.34009">
        <ele>1629.2</ele>
        <time>2018-12-27T13:50:10Z</time>
      </trkpt>
      <trkpt lat="42.80345" lon="-0.34011">
        <ele>1629.8</ele>
        <time>2018-12-27T13:50:12Z</time>
      </trkpt>
      <trkpt lat="42.8034" lon="-0.34014">
        <ele>1630.9</ele>
        <time>2018-12-27T13:50:14Z</time>
      </trkpt>
      <trkpt lat="42.80335" lon="-0.34017">
        <ele>1631.5</ele>
        <time>2018-12-27T13:50:15Z</time>
      </trkpt>
      <trkpt lat="42.80331" lon="-0.34022">
        <ele>1633.1</ele>
        <time>2018-12-27T13:50:16Z</time>
      </trkpt>
      <trkpt lat="42.80329" lon="-0.34022">
        <ele>1633.1</ele>
        <time>2018-12-27T13:50:17Z</time>
      </trkpt>
      <trkpt lat="42.8033" lon="-0.34026">
        <ele>1634.2</ele>
        <time>2018-12-27T13:50:18Z</time>
      </trkpt>
      <trkpt lat="42.80327" lon="-0.34029">
        <ele>1635.1</ele>
        <time>2018-12-27T13:50:19Z</time>
      </trkpt>
      <trkpt lat="42.80324" lon="-0.34034">
        <ele>1636.5</ele>
        <time>2018-12-27T13:50:20Z</time>
      </trkpt>
      <trkpt lat="42.80318" lon="-0.3404">
        <ele>1638.2</ele>
        <time>2018-12-27T13:50:22Z</time>
      </trkpt>
      <trkpt lat="42.80318" lon="-0.34043">
        <ele>1639.1</ele>
        <time>2018-12-27T13:50:23Z</time>
      </trkpt>
      <trkpt lat="42.80318" lon="-0.34047">
        <ele>1640.4</ele>
        <time>2018-12-27T13:50:23Z</time>
      </trkpt>
      <trkpt lat="42.80315" lon="-0.34047">
        <ele>1640.3</ele>
        <time>2018-12-27T13:50:24Z</time>
      </trkpt>
      <trkpt lat="42.80312" lon="-0.34048">
        <ele>1640.5</ele>
        <time>2018-12-27T13:50:25Z</time>
      </trkpt>
      <trkpt lat="42.80307" lon="-0.34049">
        <ele>1640.8</ele>
        <time>2018-12-27T13:50:26Z</time>
      </trkpt>
      <trkpt lat="42.80305" lon="-0.34049">
        <ele>1640.6</ele>
        <time>2018-12-27T13:50:27Z</time>
      </trkpt>
      <trkpt lat="42.80296" lon="-0.34049">
        <ele>1640.2</ele>
        <time>2018-12-27T13:50:29Z</time>
      </trkpt>
      <trkpt lat="42.80287" lon="-0.34045">
        <ele>1639</ele>
        <time>2018-12-27T13:50:32Z</time>
      </trkpt>
      <trkpt lat="42.80286" lon="-0.34044">
        <ele>1638.8</ele>
        <time>2018-12-27T13:50:32Z</time>
      </trkpt>
      <trkpt lat="42.80281" lon="-0.3404">
        <ele>1637.6</ele>
        <time>2018-12-27T13:50:33Z</time>
      </trkpt>
      <trkpt lat="42.80273" lon="-0.34034">
        <ele>1636</ele>
        <time>2018-12-27T13:50:36Z</time>
      </trkpt>
      <trkpt lat="42.8027" lon="-0.34031">
        <ele>1634.8</ele>
        <time>2018-12-27T13:50:37Z</time>
      </trkpt>
      <trkpt lat="42.80269" lon="-0.34028">
        <ele>1634</ele>
        <time>2018-12-27T13:50:38Z</time>
      </trkpt>
      <trkpt lat="42.80267" lon="-0.34025">
        <ele>1633.5</ele>
        <time>2018-12-27T13:50:38Z</time>
      </trkpt>
      <trkpt lat="42.80265" lon="-0.34024">
        <ele>1633.2</ele>
        <time>2018-12-27T13:50:39Z</time>
      </trkpt>
      <trkpt lat="42.80262" lon="-0.34027">
        <ele>1634</ele>
        <time>2018-12-27T13:50:40Z</time>
      </trkpt>
      <trkpt lat="42.80259" lon="-0.34034">
        <ele>1635.8</ele>
        <time>2018-12-27T13:50:41Z</time>
      </trkpt>
      <trkpt lat="42.8026" lon="-0.34035">
        <ele>1636</ele>
        <time>2018-12-27T13:50:42Z</time>
      </trkpt>
      <trkpt lat="42.8026" lon="-0.3404">
        <ele>1637.5</ele>
        <time>2018-12-27T13:50:43Z</time>
      </trkpt>
      <trkpt lat="42.8026" lon="-0.34041">
        <ele>1637.9</ele>
        <time>2018-12-27T13:50:43Z</time>
      </trkpt>
      <trkpt lat="42.8026" lon="-0.34049">
        <ele>1640</ele>
        <time>2018-12-27T13:50:44Z</time>
      </trkpt>
      <trkpt lat="42.80261" lon="-0.34051">
        <ele>1640.6</ele>
        <time>2018-12-27T13:50:45Z</time>
      </trkpt>
      <trkpt lat="42.80262" lon="-0.34053">
        <ele>1641.1</ele>
        <time>2018-12-27T13:50:45Z</time>
      </trkpt>
      <trkpt lat="42.80262" lon="-0.34054">
        <ele>1641.4</ele>
        <time>2018-12-27T13:50:45Z</time>
      </trkpt>
      <trkpt lat="42.80264" lon="-0.34057">
        <ele>1642.4</ele>
        <time>2018-12-27T13:50:46Z</time>
      </trkpt>
      <trkpt lat="42.80264" lon="-0.34058">
        <ele>1642.7</ele>
        <time>2018-12-27T13:50:46Z</time>
      </trkpt>
      <trkpt lat="42.80264" lon="-0.34059">
        <ele>1642.9</ele>
        <time>2018-12-27T13:50:47Z</time>
      </trkpt>
      <trkpt lat="42.80267" lon="-0.34073">
        <ele>1647.1</ele>
        <time>2018-12-27T13:50:50Z</time>
      </trkpt>
      <trkpt lat="42.80268" lon="-0.34085">
        <ele>1650.4</ele>
        <time>2018-12-27T13:50:52Z</time>
      </trkpt>
      <trkpt lat="42.80267" lon="-0.34085">
        <ele>1650.4</ele>
        <time>2018-12-27T13:50:52Z</time>
      </trkpt>
      <trkpt lat="42.80266" lon="-0.34089">
        <ele>1651.6</ele>
        <time>2018-12-27T13:50:53Z</time>
      </trkpt>
      <trkpt lat="42.80262" lon="-0.34094">
        <ele>1652.9</ele>
        <time>2018-12-27T13:50:54Z</time>
      </trkpt>
      <trkpt lat="42.80261" lon="-0.34096">
        <ele>1653.4</ele>
        <time>2018-12-27T13:50:55Z</time>
      </trkpt>
      <trkpt lat="42.80258" lon="-0.34098">
        <ele>1653.8</ele>
        <time>2018-12-27T13:50:56Z</time>
      </trkpt>
      <trkpt lat="42.80256" lon="-0.34099">
        <ele>1654.1</ele>
        <time>2018-12-27T13:50:56Z</time>
      </trkpt>
      <trkpt lat="42.80255" lon="-0.341">
        <ele>1654.4</ele>
        <time>2018-12-27T13:50:56Z</time>
      </trkpt>
      <trkpt lat="42.80253" lon="-0.34104">
        <ele>1655.2</ele>
        <time>2018-12-27T13:50:57Z</time>
      </trkpt>
      <trkpt lat="42.80253" lon="-0.34104">
        <ele>1655.4</ele>
        <time>2018-12-27T13:50:58Z</time>
      </trkpt>
      <trkpt lat="42.80251" lon="-0.34104">
        <ele>1655.1</ele>
        <time>2018-12-27T13:50:58Z</time>
      </trkpt>
      <trkpt lat="42.80249" lon="-0.34109">
        <ele>1656.5</ele>
        <time>2018-12-27T13:50:59Z</time>
      </trkpt>
      <trkpt lat="42.8025" lon="-0.34111">
        <ele>1657.1</ele>
        <time>2018-12-27T13:51:00Z</time>
      </trkpt>
      <trkpt lat="42.80253" lon="-0.34116">
        <ele>1658.7</ele>
        <time>2018-12-27T13:51:01Z</time>
      </trkpt>
      <trkpt lat="42.80251" lon="-0.34123">
        <ele>1660.4</ele>
        <time>2018-12-27T13:51:02Z</time>
      </trkpt>
      <trkpt lat="42.80247" lon="-0.34127">
        <ele>1661.6</ele>
        <time>2018-12-27T13:51:04Z</time>
      </trkpt>
      <trkpt lat="42.80246" lon="-0.34131">
        <ele>1662.6</ele>
        <time>2018-12-27T13:51:05Z</time>
      </trkpt>
      <trkpt lat="42.80245" lon="-0.34133">
        <ele>1663.2</ele>
        <time>2018-12-27T13:51:05Z</time>
      </trkpt>
      <trkpt lat="42.80242" lon="-0.3414">
        <ele>1665</ele>
        <time>2018-12-27T13:51:06Z</time>
      </trkpt>
      <trkpt lat="42.80242" lon="-0.34142">
        <ele>1665.6</ele>
        <time>2018-12-27T13:51:07Z</time>
      </trkpt>
      <trkpt lat="42.80239" lon="-0.34144">
        <ele>1666.1</ele>
        <time>2018-12-27T13:51:08Z</time>
      </trkpt>
      <trkpt lat="42.80238" lon="-0.34144">
        <ele>1666.2</ele>
        <time>2018-12-27T13:51:08Z</time>
      </trkpt>
      <trkpt lat="42.80238" lon="-0.34145">
        <ele>1666.3</ele>
        <time>2018-12-27T13:51:08Z</time>
      </trkpt>
      <trkpt lat="42.80234" lon="-0.34149">
        <ele>1667.4</ele>
        <time>2018-12-27T13:51:10Z</time>
      </trkpt>
      <trkpt lat="42.80232" lon="-0.3415">
        <ele>1667.6</ele>
        <time>2018-12-27T13:51:10Z</time>
      </trkpt>
      <trkpt lat="42.80231" lon="-0.34153">
        <ele>1668.4</ele>
        <time>2018-12-27T13:51:11Z</time>
      </trkpt>
      <trkpt lat="42.80231" lon="-0.34153">
        <ele>1668.4</ele>
        <time>2018-12-27T13:51:11Z</time>
      </trkpt>
      <trkpt lat="42.80231" lon="-0.34157">
        <ele>1669.5</ele>
        <time>2018-12-27T13:51:11Z</time>
      </trkpt>
      <trkpt lat="42.80228" lon="-0.34166">
        <ele>1672.1</ele>
        <time>2018-12-27T13:51:13Z</time>
      </trkpt>
      <trkpt lat="42.80227" lon="-0.34172">
        <ele>1673.6</ele>
        <time>2018-12-27T13:51:14Z</time>
      </trkpt>
      <trkpt lat="42.80227" lon="-0.34175">
        <ele>1674.5</ele>
        <time>2018-12-27T13:51:15Z</time>
      </trkpt>
      <trkpt lat="42.80226" lon="-0.34175">
        <ele>1674.6</ele>
        <time>2018-12-27T13:51:15Z</time>
      </trkpt>
      <trkpt lat="42.80226" lon="-0.3418">
        <ele>1676</ele>
        <time>2018-12-27T13:51:16Z</time>
      </trkpt>
      <trkpt lat="42.80226" lon="-0.34181">
        <ele>1676.2</ele>
        <time>2018-12-27T13:51:16Z</time>
      </trkpt>
      <trkpt lat="42.80224" lon="-0.34186">
        <ele>1677.8</ele>
        <time>2018-12-27T13:51:17Z</time>
      </trkpt>
      <trkpt lat="42.80223" lon="-0.34189">
        <ele>1678.5</ele>
        <time>2018-12-27T13:51:18Z</time>
      </trkpt>
      <trkpt lat="42.80222" lon="-0.34191">
        <ele>1679.1</ele>
        <time>2018-12-27T13:51:19Z</time>
      </trkpt>
      <trkpt lat="42.80221" lon="-0.34195">
        <ele>1680.1</ele>
        <time>2018-12-27T13:51:19Z</time>
      </trkpt>
      <trkpt lat="42.80221" lon="-0.34198">
        <ele>1680.9</ele>
        <time>2018-12-27T13:51:20Z</time>
      </trkpt>
      <trkpt lat="42.80223" lon="-0.34205">
        <ele>1683</ele>
        <time>2018-12-27T13:51:21Z</time>
      </trkpt>
      <trkpt lat="42.80222" lon="-0.34213">
        <ele>1685.5</ele>
        <time>2018-12-27T13:51:23Z</time>
      </trkpt>
      <trkpt lat="42.80224" lon="-0.34218">
        <ele>1687.5</ele>
        <time>2018-12-27T13:51:24Z</time>
      </trkpt>
      <trkpt lat="42.80222" lon="-0.34227">
        <ele>1690.3</ele>
        <time>2018-12-27T13:51:26Z</time>
      </trkpt>
      <trkpt lat="42.8022" lon="-0.34231">
        <ele>1691.7</ele>
        <time>2018-12-27T13:51:27Z</time>
      </trkpt>
      <trkpt lat="42.80221" lon="-0.34237">
        <ele>1694</ele>
        <time>2018-12-27T13:51:28Z</time>
      </trkpt>
      <trkpt lat="42.80221" lon="-0.34242">
        <ele>1695.6</ele>
        <time>2018-12-27T13:51:29Z</time>
      </trkpt>
      <trkpt lat="42.8022" lon="-0.34247">
        <ele>1697</ele>
        <time>2018-12-27T13:51:30Z</time>
      </trkpt>
      <trkpt lat="42.80215" lon="-0.34251">
        <ele>1698.3</ele>
        <time>2018-12-27T13:51:31Z</time>
      </trkpt>
      <trkpt lat="42.80214" lon="-0.34254">
        <ele>1699.7</ele>
        <time>2018-12-27T13:51:32Z</time>
      </trkpt>
      <trkpt lat="42.80215" lon="-0.34256">
        <ele>1700.3</ele>
        <time>2018-12-27T13:51:33Z</time>
      </trkpt>
      <trkpt lat="42.80215" lon="-0.34256">
        <ele>1700.4</ele>
        <time>2018-12-27T13:51:33Z</time>
      </trkpt>
      <trkpt lat="42.80215" lon="-0.3426">
        <ele>1701.6</ele>
        <time>2018-12-27T13:51:33Z</time>
      </trkpt>
      <trkpt lat="42.80214" lon="-0.34261">
        <ele>1702.1</ele>
        <time>2018-12-27T13:51:34Z</time>
      </trkpt>
      <trkpt lat="42.80216" lon="-0.34263">
        <ele>1702.8</ele>
        <time>2018-12-27T13:51:34Z</time>
      </trkpt>
      <trkpt lat="42.80217" lon="-0.34265">
        <ele>1703.2</ele>
        <time>2018-12-27T13:51:35Z</time>
      </trkpt>
      <trkpt lat="42.80218" lon="-0.3427">
        <ele>1705.3</ele>
        <time>2018-12-27T13:51:36Z</time>
      </trkpt>
      <trkpt lat="42.80219" lon="-0.34272">
        <ele>1706</ele>
        <time>2018-12-27T13:51:36Z</time>
      </trkpt>
      <trkpt lat="42.80221" lon="-0.34279">
        <ele>1708.3</ele>
        <time>2018-12-27T13:51:38Z</time>
      </trkpt>
      <trkpt lat="42.80223" lon="-0.34284">
        <ele>1710</ele>
        <time>2018-12-27T13:51:39Z</time>
      </trkpt>
      <trkpt lat="42.80225" lon="-0.34287">
        <ele>1711</ele>
        <time>2018-12-27T13:51:40Z</time>
      </trkpt>
      <trkpt lat="42.80229" lon="-0.34288">
        <ele>1711.1</ele>
        <time>2018-12-27T13:51:41Z</time>
      </trkpt>
      <trkpt lat="42.80232" lon="-0.34288">
        <ele>1710.8</ele>
        <time>2018-12-27T13:51:41Z</time>
      </trkpt>
      <trkpt lat="42.80235" lon="-0.34287">
        <ele>1710.4</ele>
        <time>2018-12-27T13:51:42Z</time>
      </trkpt>
      <trkpt lat="42.80239" lon="-0.34284">
        <ele>1709.5</ele>
        <time>2018-12-27T13:51:44Z</time>
      </trkpt>
      <trkpt lat="42.80244" lon="-0.34289">
        <ele>1711</ele>
        <time>2018-12-27T13:51:45Z</time>
      </trkpt>
      <trkpt lat="42.80246" lon="-0.3429">
        <ele>1711.3</ele>
        <time>2018-12-27T13:51:46Z</time>
      </trkpt>
      <trkpt lat="42.80247" lon="-0.34291">
        <ele>1711.5</ele>
        <time>2018-12-27T13:51:46Z</time>
      </trkpt>
      <trkpt lat="42.80248" lon="-0.34292">
        <ele>1711.7</ele>
        <time>2018-12-27T13:51:46Z</time>
      </trkpt>
      <trkpt lat="42.8025" lon="-0.3429">
        <ele>1711.2</ele>
        <time>2018-12-27T13:51:47Z</time>
      </trkpt>
      <trkpt lat="42.80251" lon="-0.34291">
        <ele>1711.1</ele>
        <time>2018-12-27T13:51:47Z</time>
      </trkpt>
      <trkpt lat="42.80256" lon="-0.34296">
        <ele>1712.5</ele>
        <time>2018-12-27T13:51:49Z</time>
      </trkpt>
      <trkpt lat="42.80261" lon="-0.34301">
        <ele>1713.7</ele>
        <time>2018-12-27T13:51:51Z</time>
      </trkpt>
      <trkpt lat="42.80266" lon="-0.34305">
        <ele>1714.7</ele>
        <time>2018-12-27T13:51:52Z</time>
      </trkpt>
      <trkpt lat="42.80267" lon="-0.34305">
        <ele>1714.7</ele>
        <time>2018-12-27T13:51:52Z</time>
      </trkpt>
      <trkpt lat="42.80267" lon="-0.34306">
        <ele>1714.9</ele>
        <time>2018-12-27T13:51:53Z</time>
      </trkpt>
      <trkpt lat="42.80271" lon="-0.34308">
        <ele>1715.5</ele>
        <time>2018-12-27T13:51:54Z</time>
      </trkpt>
      <trkpt lat="42.80272" lon="-0.34309">
        <ele>1715.7</ele>
        <time>2018-12-27T13:51:54Z</time>
      </trkpt>
      <trkpt lat="42.80275" lon="-0.34311">
        <ele>1716.2</ele>
        <time>2018-12-27T13:51:55Z</time>
      </trkpt>
      <trkpt lat="42.8028" lon="-0.34315">
        <ele>1717.1</ele>
        <time>2018-12-27T13:51:56Z</time>
      </trkpt>
      <trkpt lat="42.80279" lon="-0.34314">
        <ele>1716.5</ele>
        <time>2018-12-27T13:51:57Z</time>
      </trkpt>
      <trkpt lat="42.80277" lon="-0.34313">
        <ele>1716.4</ele>
        <time>2018-12-27T13:51:57Z</time>
      </trkpt>
      <trkpt lat="42.80273" lon="-0.34313">
        <ele>1716.7</ele>
        <time>2018-12-27T13:51:58Z</time>
      </trkpt>
      <trkpt lat="42.80271" lon="-0.34315">
        <ele>1717.4</ele>
        <time>2018-12-27T13:51:59Z</time>
      </trkpt>
      <trkpt lat="42.8027" lon="-0.34316">
        <ele>1717.6</ele>
        <time>2018-12-27T13:51:59Z</time>
      </trkpt>
      <trkpt lat="42.8027" lon="-0.34317">
        <ele>1717.8</ele>
        <time>2018-12-27T13:51:59Z</time>
      </trkpt>
      <trkpt lat="42.80268" lon="-0.34321">
        <ele>1719.1</ele>
        <time>2018-12-27T13:52:00Z</time>
      </trkpt>
      <trkpt lat="42.80268" lon="-0.34324">
        <ele>1720</ele>
        <time>2018-12-27T13:52:01Z</time>
      </trkpt>
      <trkpt lat="42.80269" lon="-0.34331">
        <ele>1721.9</ele>
        <time>2018-12-27T13:52:03Z</time>
      </trkpt>
      <trkpt lat="42.80269" lon="-0.34336">
        <ele>1723.1</ele>
        <time>2018-12-27T13:52:03Z</time>
      </trkpt>
      <trkpt lat="42.80268" lon="-0.3434">
        <ele>1724.4</ele>
        <time>2018-12-27T13:52:04Z</time>
      </trkpt>
      <trkpt lat="42.80269" lon="-0.34344">
        <ele>1725.4</ele>
        <time>2018-12-27T13:52:05Z</time>
      </trkpt>
      <trkpt lat="42.80263" lon="-0.34345">
        <ele>1726</ele>
        <time>2018-12-27T13:52:07Z</time>
      </trkpt>
      <trkpt lat="42.80258" lon="-0.34348">
        <ele>1727.1</ele>
        <time>2018-12-27T13:52:08Z</time>
      </trkpt>
      <trkpt lat="42.80259" lon="-0.34349">
        <ele>1727.5</ele>
        <time>2018-12-27T13:52:08Z</time>
      </trkpt>
      <trkpt lat="42.80261" lon="-0.34352">
        <ele>1728.1</ele>
        <time>2018-12-27T13:52:09Z</time>
      </trkpt>
      <trkpt lat="42.80263" lon="-0.34359">
        <ele>1729.8</ele>
        <time>2018-12-27T13:52:10Z</time>
      </trkpt>
      <trkpt lat="42.80261" lon="-0.34363">
        <ele>1731.2</ele>
        <time>2018-12-27T13:52:12Z</time>
      </trkpt>
      <trkpt lat="42.8026" lon="-0.34367">
        <ele>1732.3</ele>
        <time>2018-12-27T13:52:12Z</time>
      </trkpt>
      <trkpt lat="42.80265" lon="-0.34371">
        <ele>1733.1</ele>
        <time>2018-12-27T13:52:14Z</time>
      </trkpt>
      <trkpt lat="42.80268" lon="-0.34376">
        <ele>1734.3</ele>
        <time>2018-12-27T13:52:15Z</time>
      </trkpt>
      <trkpt lat="42.8027" lon="-0.34377">
        <ele>1734.9</ele>
        <time>2018-12-27T13:52:15Z</time>
      </trkpt>
      <trkpt lat="42.80269" lon="-0.34378">
        <ele>1735.4</ele>
        <time>2018-12-27T13:52:16Z</time>
      </trkpt>
      <trkpt lat="42.80267" lon="-0.3438">
        <ele>1735.9</ele>
        <time>2018-12-27T13:52:16Z</time>
      </trkpt>
      <trkpt lat="42.80265" lon="-0.34382">
        <ele>1736.7</ele>
        <time>2018-12-27T13:52:17Z</time>
      </trkpt>
      <trkpt lat="42.80265" lon="-0.34384">
        <ele>1737.5</ele>
        <time>2018-12-27T13:52:18Z</time>
      </trkpt>
      <trkpt lat="42.80264" lon="-0.34388">
        <ele>1739</ele>
        <time>2018-12-27T13:52:18Z</time>
      </trkpt>
      <trkpt lat="42.80263" lon="-0.34393">
        <ele>1740.7</ele>
        <time>2018-12-27T13:52:19Z</time>
      </trkpt>
      <trkpt lat="42.80263" lon="-0.34396">
        <ele>1741.7</ele>
        <time>2018-12-27T13:52:20Z</time>
      </trkpt>
      <trkpt lat="42.80265" lon="-0.34398">
        <ele>1742.4</ele>
        <time>2018-12-27T13:52:21Z</time>
      </trkpt>
      <trkpt lat="42.80265" lon="-0.34398">
        <ele>1742.3</ele>
        <time>2018-12-27T13:52:21Z</time>
      </trkpt>
      <trkpt lat="42.80265" lon="-0.34403">
        <ele>1744.1</ele>
        <time>2018-12-27T13:52:22Z</time>
      </trkpt>
      <trkpt lat="42.80266" lon="-0.34407">
        <ele>1745.4</ele>
        <time>2018-12-27T13:52:22Z</time>
      </trkpt>
      <trkpt lat="42.80267" lon="-0.3441">
        <ele>1746.5</ele>
        <time>2018-12-27T13:52:23Z</time>
      </trkpt>
      <trkpt lat="42.80269" lon="-0.34416">
        <ele>1748.5</ele>
        <time>2018-12-27T13:52:24Z</time>
      </trkpt>
      <trkpt lat="42.80267" lon="-0.3442">
        <ele>1749.9</ele>
        <time>2018-12-27T13:52:25Z</time>
      </trkpt>
      <trkpt lat="42.80268" lon="-0.34426">
        <ele>1752.1</ele>
        <time>2018-12-27T13:52:27Z</time>
      </trkpt>
      <trkpt lat="42.8027" lon="-0.3443">
        <ele>1753.4</ele>
        <time>2018-12-27T13:52:27Z</time>
      </trkpt>
      <trkpt lat="42.80271" lon="-0.34435">
        <ele>1755</ele>
        <time>2018-12-27T13:52:28Z</time>
      </trkpt>
      <trkpt lat="42.80272" lon="-0.34442">
        <ele>1757.4</ele>
        <time>2018-12-27T13:52:30Z</time>
      </trkpt>
      <trkpt lat="42.80276" lon="-0.34451">
        <ele>1760.1</ele>
        <time>2018-12-27T13:52:32Z</time>
      </trkpt>
      <trkpt lat="42.80275" lon="-0.34452">
        <ele>1760.4</ele>
        <time>2018-12-27T13:52:32Z</time>
      </trkpt>
      <trkpt lat="42.80275" lon="-0.34458">
        <ele>1762.4</ele>
        <time>2018-12-27T13:52:33Z</time>
      </trkpt>
      <trkpt lat="42.80278" lon="-0.34466">
        <ele>1765</ele>
        <time>2018-12-27T13:52:35Z</time>
      </trkpt>
      <trkpt lat="42.80278" lon="-0.34467">
        <ele>1765.2</ele>
        <time>2018-12-27T13:52:35Z</time>
      </trkpt>
      <trkpt lat="42.8028" lon="-0.34473">
        <ele>1767.3</ele>
        <time>2018-12-27T13:52:36Z</time>
      </trkpt>
      <trkpt lat="42.8028" lon="-0.34474">
        <ele>1767.4</ele>
        <time>2018-12-27T13:52:37Z</time>
      </trkpt>
      <trkpt lat="42.8028" lon="-0.34477">
        <ele>1768.5</ele>
        <time>2018-12-27T13:52:37Z</time>
      </trkpt>
      <trkpt lat="42.8028" lon="-0.34477">
        <ele>1768.5</ele>
        <time>2018-12-27T13:52:37Z</time>
      </trkpt>
      <trkpt lat="42.80281" lon="-0.3448">
        <ele>1769.2</ele>
        <time>2018-12-27T13:52:38Z</time>
      </trkpt>
      <trkpt lat="42.80282" lon="-0.34486">
        <ele>1771.3</ele>
        <time>2018-12-27T13:52:39Z</time>
      </trkpt>
      <trkpt lat="42.80283" lon="-0.3449">
        <ele>1772.7</ele>
        <time>2018-12-27T13:52:40Z</time>
      </trkpt>
      <trkpt lat="42.80285" lon="-0.345">
        <ele>1775.6</ele>
        <time>2018-12-27T13:52:42Z</time>
      </trkpt>
      <trkpt lat="42.80288" lon="-0.34506">
        <ele>1777.5</ele>
        <time>2018-12-27T13:52:43Z</time>
      </trkpt>
      <trkpt lat="42.80289" lon="-0.34509">
        <ele>1778.4</ele>
        <time>2018-12-27T13:52:44Z</time>
      </trkpt>
      <trkpt lat="42.80289" lon="-0.34514">
        <ele>1779.9</ele>
        <time>2018-12-27T13:52:45Z</time>
      </trkpt>
      <trkpt lat="42.8029" lon="-0.3452">
        <ele>1781.8</ele>
        <time>2018-12-27T13:52:46Z</time>
      </trkpt>
      <trkpt lat="42.8029" lon="-0.34522">
        <ele>1782.7</ele>
        <time>2018-12-27T13:52:47Z</time>
      </trkpt>
      <trkpt lat="42.80289" lon="-0.34524">
        <ele>1783.2</ele>
        <time>2018-12-27T13:52:47Z</time>
      </trkpt>
      <trkpt lat="42.80291" lon="-0.34529">
        <ele>1784.8</ele>
        <time>2018-12-27T13:52:48Z</time>
      </trkpt>
      <trkpt lat="42.80292" lon="-0.34534">
        <ele>1786.5</ele>
        <time>2018-12-27T13:52:49Z</time>
      </trkpt>
      <trkpt lat="42.80291" lon="-0.34534">
        <ele>1786.8</ele>
        <time>2018-12-27T13:52:50Z</time>
      </trkpt>
      <trkpt lat="42.80292" lon="-0.34537">
        <ele>1787.4</ele>
        <time>2018-12-27T13:52:50Z</time>
      </trkpt>
      <trkpt lat="42.80293" lon="-0.34539">
        <ele>1788.4</ele>
        <time>2018-12-27T13:52:51Z</time>
      </trkpt>
      <trkpt lat="42.80292" lon="-0.34542">
        <ele>1789.1</ele>
        <time>2018-12-27T13:52:51Z</time>
      </trkpt>
      <trkpt lat="42.80293" lon="-0.34544">
        <ele>1789.9</ele>
        <time>2018-12-27T13:52:52Z</time>
      </trkpt>
      <trkpt lat="42.80294" lon="-0.34547">
        <ele>1791</ele>
        <time>2018-12-27T13:52:52Z</time>
      </trkpt>
      <trkpt lat="42.80295" lon="-0.3455">
        <ele>1792.2</ele>
        <time>2018-12-27T13:52:53Z</time>
      </trkpt>
      <trkpt lat="42.80293" lon="-0.34552">
        <ele>1792.7</ele>
        <time>2018-12-27T13:52:54Z</time>
      </trkpt>
      <trkpt lat="42.80292" lon="-0.34553">
        <ele>1793.2</ele>
        <time>2018-12-27T13:52:54Z</time>
      </trkpt>
      <trkpt lat="42.80291" lon="-0.34556">
        <ele>1794.3</ele>
        <time>2018-12-27T13:52:55Z</time>
      </trkpt>
      <trkpt lat="42.80293" lon="-0.3456">
        <ele>1795.6</ele>
        <time>2018-12-27T13:52:55Z</time>
      </trkpt>
      <trkpt lat="42.80293" lon="-0.34563">
        <ele>1796.7</ele>
        <time>2018-12-27T13:52:56Z</time>
      </trkpt>
      <trkpt lat="42.80295" lon="-0.34567">
        <ele>1798.3</ele>
        <time>2018-12-27T13:52:57Z</time>
      </trkpt>
      <trkpt lat="42.80294" lon="-0.3457">
        <ele>1799.4</ele>
        <time>2018-12-27T13:52:58Z</time>
      </trkpt>
      <trkpt lat="42.80293" lon="-0.34572">
        <ele>1800.1</ele>
        <time>2018-12-27T13:52:58Z</time>
      </trkpt>
      <trkpt lat="42.80293" lon="-0.34574">
        <ele>1800.9</ele>
        <time>2018-12-27T13:52:58Z</time>
      </trkpt>
      <trkpt lat="42.80292" lon="-0.34579">
        <ele>1802.4</ele>
        <time>2018-12-27T13:52:59Z</time>
      </trkpt>
      <trkpt lat="42.80294" lon="-0.34581">
        <ele>1803.3</ele>
        <time>2018-12-27T13:53:00Z</time>
      </trkpt>
      <trkpt lat="42.80296" lon="-0.34585">
        <ele>1804.7</ele>
        <time>2018-12-27T13:53:01Z</time>
      </trkpt>
      <trkpt lat="42.80295" lon="-0.34587">
        <ele>1805.5</ele>
        <time>2018-12-27T13:53:01Z</time>
      </trkpt>
      <trkpt lat="42.80294" lon="-0.34589">
        <ele>1806.2</ele>
        <time>2018-12-27T13:53:02Z</time>
      </trkpt>
      <trkpt lat="42.80294" lon="-0.34591">
        <ele>1807</ele>
        <time>2018-12-27T13:53:02Z</time>
      </trkpt>
      <trkpt lat="42.80295" lon="-0.34594">
        <ele>1808</ele>
        <time>2018-12-27T13:53:03Z</time>
      </trkpt>
      <trkpt lat="42.80297" lon="-0.34597">
        <ele>1809</ele>
        <time>2018-12-27T13:53:04Z</time>
      </trkpt>
      <trkpt lat="42.80295" lon="-0.346">
        <ele>1810.1</ele>
        <time>2018-12-27T13:53:04Z</time>
      </trkpt>
      <trkpt lat="42.80294" lon="-0.34602">
        <ele>1810.9</ele>
        <time>2018-12-27T13:53:05Z</time>
      </trkpt>
      <trkpt lat="42.80295" lon="-0.34605">
        <ele>1812</ele>
        <time>2018-12-27T13:53:05Z</time>
      </trkpt>
      <trkpt lat="42.80295" lon="-0.3461">
        <ele>1813.6</ele>
        <time>2018-12-27T13:53:06Z</time>
      </trkpt>
      <trkpt lat="42.80296" lon="-0.34615">
        <ele>1815.7</ele>
        <time>2018-12-27T13:53:07Z</time>
      </trkpt>
      <trkpt lat="42.80295" lon="-0.34619">
        <ele>1817.1</ele>
        <time>2018-12-27T13:53:08Z</time>
      </trkpt>
      <trkpt lat="42.80295" lon="-0.3462">
        <ele>1817.4</ele>
        <time>2018-12-27T13:53:08Z</time>
      </trkpt>
      <trkpt lat="42.80295" lon="-0.34625">
        <ele>1819.3</ele>
        <time>2018-12-27T13:53:09Z</time>
      </trkpt>
      <trkpt lat="42.80295" lon="-0.3463">
        <ele>1820.2</ele>
        <time>2018-12-27T13:53:10Z</time>
      </trkpt>
      <trkpt lat="42.80296" lon="-0.34634">
        <ele>1821</ele>
        <time>2018-12-27T13:53:11Z</time>
      </trkpt>
      <trkpt lat="42.80296" lon="-0.34639">
        <ele>1822.1</ele>
        <time>2018-12-27T13:53:12Z</time>
      </trkpt>
      <trkpt lat="42.80296" lon="-0.34643">
        <ele>1823</ele>
        <time>2018-12-27T13:53:13Z</time>
      </trkpt>
      <trkpt lat="42.80299" lon="-0.34647">
        <ele>1824</ele>
        <time>2018-12-27T13:53:14Z</time>
      </trkpt>
      <trkpt lat="42.80301" lon="-0.34653">
        <ele>1825.3</ele>
        <time>2018-12-27T13:53:15Z</time>
      </trkpt>
      <trkpt lat="42.80302" lon="-0.34659">
        <ele>1826.6</ele>
        <time>2018-12-27T13:53:16Z</time>
      </trkpt>
      <trkpt lat="42.80304" lon="-0.34663">
        <ele>1827.5</ele>
        <time>2018-12-27T13:53:17Z</time>
      </trkpt>
      <trkpt lat="42.80306" lon="-0.34668">
        <ele>1828.5</ele>
        <time>2018-12-27T13:53:18Z</time>
      </trkpt>
      <trkpt lat="42.80307" lon="-0.34671">
        <ele>1829.3</ele>
        <time>2018-12-27T13:53:19Z</time>
      </trkpt>
      <trkpt lat="42.80306" lon="-0.34676">
        <ele>1830.3</ele>
        <time>2018-12-27T13:53:20Z</time>
      </trkpt>
      <trkpt lat="42.80307" lon="-0.34682">
        <ele>1831.6</ele>
        <time>2018-12-27T13:53:22Z</time>
      </trkpt>
      <trkpt lat="42.8031" lon="-0.34687">
        <ele>1832.9</ele>
        <time>2018-12-27T13:53:23Z</time>
      </trkpt>
      <trkpt lat="42.80311" lon="-0.34691">
        <ele>1833.7</ele>
        <time>2018-12-27T13:53:24Z</time>
      </trkpt>
      <trkpt lat="42.80313" lon="-0.34695">
        <ele>1834.8</ele>
        <time>2018-12-27T13:53:24Z</time>
      </trkpt>
      <trkpt lat="42.80311" lon="-0.34699">
        <ele>1835.3</ele>
        <time>2018-12-27T13:53:25Z</time>
      </trkpt>
      <trkpt lat="42.80311" lon="-0.34704">
        <ele>1836.6</ele>
        <time>2018-12-27T13:53:26Z</time>
      </trkpt>
      <trkpt lat="42.80313" lon="-0.34707">
        <ele>1837.1</ele>
        <time>2018-12-27T13:53:27Z</time>
      </trkpt>
      <trkpt lat="42.80314" lon="-0.34712">
        <ele>1837.8</ele>
        <time>2018-12-27T13:53:28Z</time>
      </trkpt>
      <trkpt lat="42.80316" lon="-0.34719">
        <ele>1838.2</ele>
        <time>2018-12-27T13:53:30Z</time>
      </trkpt>
      <trkpt lat="42.80318" lon="-0.34725">
        <ele>1838.7</ele>
        <time>2018-12-27T13:53:31Z</time>
      </trkpt>
      <trkpt lat="42.80317" lon="-0.3473">
        <ele>1838.7</ele>
        <time>2018-12-27T13:53:32Z</time>
      </trkpt>
      <trkpt lat="42.80317" lon="-0.34737">
        <ele>1839</ele>
        <time>2018-12-27T13:53:33Z</time>
      </trkpt>
      <trkpt lat="42.80316" lon="-0.34746">
        <ele>1839.3</ele>
        <time>2018-12-27T13:53:35Z</time>
      </trkpt>
      <trkpt lat="42.80315" lon="-0.3475">
        <ele>1839.4</ele>
        <time>2018-12-27T13:53:36Z</time>
      </trkpt>
      <trkpt lat="42.80314" lon="-0.34753">
        <ele>1839.4</ele>
        <time>2018-12-27T13:53:37Z</time>
      </trkpt>
      <trkpt lat="42.80314" lon="-0.34757">
        <ele>1839.5</ele>
        <time>2018-12-27T13:53:37Z</time>
      </trkpt>
      <trkpt lat="42.80314" lon="-0.34761">
        <ele>1839.6</ele>
        <time>2018-12-27T13:53:38Z</time>
      </trkpt>
      <trkpt lat="42.80314" lon="-0.34763">
        <ele>1839.8</ele>
        <time>2018-12-27T13:53:39Z</time>
      </trkpt>
      <trkpt lat="42.80316" lon="-0.34775">
        <ele>1840.4</ele>
        <time>2018-12-27T13:53:41Z</time>
      </trkpt>
      <trkpt lat="42.80316" lon="-0.34786">
        <ele>1840.9</ele>
        <time>2018-12-27T13:53:43Z</time>
      </trkpt>
      <trkpt lat="42.80313" lon="-0.34797">
        <ele>1841.1</ele>
        <time>2018-12-27T13:53:46Z</time>
      </trkpt>
      <trkpt lat="42.8031" lon="-0.34811">
        <ele>1841.4</ele>
        <time>2018-12-27T13:53:48Z</time>
      </trkpt>
      <trkpt lat="42.80308" lon="-0.34822">
        <ele>1841.7</ele>
        <time>2018-12-27T13:53:51Z</time>
      </trkpt>
      <trkpt lat="42.80307" lon="-0.34838">
        <ele>1842.2</ele>
        <time>2018-12-27T13:53:54Z</time>
      </trkpt>
      <trkpt lat="42.80304" lon="-0.34856">
        <ele>1842.7</ele>
        <time>2018-12-27T13:53:57Z</time>
      </trkpt>
      <trkpt lat="42.80301" lon="-0.34875">
        <ele>1843.2</ele>
        <time>2018-12-27T13:54:01Z</time>
      </trkpt>
      <trkpt lat="42.80299" lon="-0.34892">
        <ele>1843.2</ele>
        <time>2018-12-27T13:54:04Z</time>
      </trkpt>
      <trkpt lat="42.80296" lon="-0.34907">
        <ele>1843.1</ele>
        <time>2018-12-27T13:54:07Z</time>
      </trkpt>
      <trkpt lat="42.80293" lon="-0.34925">
        <ele>1842.9</ele>
        <time>2018-12-27T13:54:11Z</time>
      </trkpt>
      <trkpt lat="42.80292" lon="-0.34943">
        <ele>1842.8</ele>
        <time>2018-12-27T13:54:15Z</time>
      </trkpt>
      <trkpt lat="42.80289" lon="-0.34962">
        <ele>1843.8</ele>
        <time>2018-12-27T13:54:18Z</time>
      </trkpt>
      <trkpt lat="42.80286" lon="-0.34979">
        <ele>1844.4</ele>
        <time>2018-12-27T13:54:22Z</time>
      </trkpt>
      <trkpt lat="42.80284" lon="-0.34996">
        <ele>1845.2</ele>
        <time>2018-12-27T13:54:25Z</time>
      </trkpt>
      <trkpt lat="42.80282" lon="-0.35013">
        <ele>1845.7</ele>
        <time>2018-12-27T13:54:29Z</time>
      </trkpt>
      <trkpt lat="42.80279" lon="-0.3503">
        <ele>1846.7</ele>
        <time>2018-12-27T13:54:32Z</time>
      </trkpt>
      <trkpt lat="42.80276" lon="-0.35041">
        <ele>1847.4</ele>
        <time>2018-12-27T13:54:34Z</time>
      </trkpt>
      <trkpt lat="42.80276" lon="-0.35044">
        <ele>1847.6</ele>
        <time>2018-12-27T13:54:35Z</time>
      </trkpt>
      <trkpt lat="42.80272" lon="-0.35055">
        <ele>1848.6</ele>
        <time>2018-12-27T13:54:37Z</time>
      </trkpt>
      <trkpt lat="42.80266" lon="-0.35066">
        <ele>1850.1</ele>
        <time>2018-12-27T13:54:40Z</time>
      </trkpt>
      <trkpt lat="42.80263" lon="-0.35084">
        <ele>1850.9</ele>
        <time>2018-12-27T13:54:44Z</time>
      </trkpt>
      <trkpt lat="42.8026" lon="-0.35093">
        <ele>1851.6</ele>
        <time>2018-12-27T13:54:46Z</time>
      </trkpt>
      <trkpt lat="42.80254" lon="-0.35105">
        <ele>1852.5</ele>
        <time>2018-12-27T13:54:48Z</time>
      </trkpt>
      <trkpt lat="42.80246" lon="-0.35124">
        <ele>1853.5</ele>
        <time>2018-12-27T13:54:53Z</time>
      </trkpt>
      <trkpt lat="42.8024" lon="-0.35141">
        <ele>1854.4</ele>
        <time>2018-12-27T13:54:56Z</time>
      </trkpt>
      <trkpt lat="42.80236" lon="-0.35155">
        <ele>1854.9</ele>
        <time>2018-12-27T13:54:59Z</time>
      </trkpt>
      <trkpt lat="42.80234" lon="-0.35172">
        <ele>1855</ele>
        <time>2018-12-27T13:55:03Z</time>
      </trkpt>
      <trkpt lat="42.80233" lon="-0.35187">
        <ele>1855.1</ele>
        <time>2018-12-27T13:55:06Z</time>
      </trkpt>
      <trkpt lat="42.80229" lon="-0.35205">
        <ele>1855.3</ele>
        <time>2018-12-27T13:55:09Z</time>
      </trkpt>
      <trkpt lat="42.80228" lon="-0.35219">
        <ele>1855</ele>
        <time>2018-12-27T13:55:12Z</time>
      </trkpt>
      <trkpt lat="42.80227" lon="-0.35232">
        <ele>1854.8</ele>
        <time>2018-12-27T13:55:15Z</time>
      </trkpt>
      <trkpt lat="42.80224" lon="-0.35243">
        <ele>1854.6</ele>
        <time>2018-12-27T13:55:17Z</time>
      </trkpt>
      <trkpt lat="42.80223" lon="-0.35256">
        <ele>1854.3</ele>
        <time>2018-12-27T13:55:20Z</time>
      </trkpt>
      <trkpt lat="42.8022" lon="-0.35272">
        <ele>1853.8</ele>
        <time>2018-12-27T13:55:23Z</time>
      </trkpt>
      <trkpt lat="42.80219" lon="-0.35284">
        <ele>1853.4</ele>
        <time>2018-12-27T13:55:25Z</time>
      </trkpt>
      <trkpt lat="42.80218" lon="-0.35293">
        <ele>1853.3</ele>
        <time>2018-12-27T13:55:27Z</time>
      </trkpt>
      <trkpt lat="42.80218" lon="-0.35297">
        <ele>1853.3</ele>
        <time>2018-12-27T13:55:28Z</time>
      </trkpt>
      <trkpt lat="42.80217" lon="-0.35298">
        <ele>1853.4</ele>
        <time>2018-12-27T13:55:28Z</time>
      </trkpt>
      <trkpt lat="42.80215" lon="-0.35306">
        <ele>1853.6</ele>
        <time>2018-12-27T13:55:30Z</time>
      </trkpt>
      <trkpt lat="42.80215" lon="-0.35308">
        <ele>1853.7</ele>
        <time>2018-12-27T13:55:30Z</time>
      </trkpt>
      <trkpt lat="42.80211" lon="-0.35319">
        <ele>1854</ele>
        <time>2018-12-27T13:55:32Z</time>
      </trkpt>
      <trkpt lat="42.80207" lon="-0.35332">
        <ele>1854.7</ele>
        <time>2018-12-27T13:55:35Z</time>
      </trkpt>
      <trkpt lat="42.80205" lon="-0.35343">
        <ele>1855.5</ele>
        <time>2018-12-27T13:55:37Z</time>
      </trkpt>
      <trkpt lat="42.802" lon="-0.35358">
        <ele>1856.6</ele>
        <time>2018-12-27T13:55:40Z</time>
      </trkpt>
      <trkpt lat="42.80197" lon="-0.3537">
        <ele>1857.5</ele>
        <time>2018-12-27T13:55:43Z</time>
      </trkpt>
      <trkpt lat="42.8019" lon="-0.35382">
        <ele>1858.6</ele>
        <time>2018-12-27T13:55:46Z</time>
      </trkpt>
      <trkpt lat="42.80181" lon="-0.35394">
        <ele>1859.9</ele>
        <time>2018-12-27T13:55:49Z</time>
      </trkpt>
      <trkpt lat="42.80176" lon="-0.3541">
        <ele>1860.9</ele>
        <time>2018-12-27T13:55:53Z</time>
      </trkpt>
      <trkpt lat="42.80178" lon="-0.35419">
        <ele>1860.9</ele>
        <time>2018-12-27T13:55:54Z</time>
      </trkpt>
      <trkpt lat="42.80179" lon="-0.35434">
        <ele>1860.9</ele>
        <time>2018-12-27T13:55:57Z</time>
      </trkpt>
      <trkpt lat="42.80179" lon="-0.35441">
        <ele>1860.9</ele>
        <time>2018-12-27T13:55:59Z</time>
      </trkpt>
      <trkpt lat="42.80179" lon="-0.35444">
        <ele>1860.9</ele>
        <time>2018-12-27T13:55:59Z</time>
      </trkpt>
      <trkpt lat="42.8018" lon="-0.35456">
        <ele>1861.1</ele>
        <time>2018-12-27T13:56:02Z</time>
      </trkpt>
      <trkpt lat="42.80178" lon="-0.35468">
        <ele>1862.6</ele>
        <time>2018-12-27T13:56:04Z</time>
      </trkpt>
      <trkpt lat="42.80178" lon="-0.35484">
        <ele>1864.4</ele>
        <time>2018-12-27T13:56:07Z</time>
      </trkpt>
      <trkpt lat="42.80177" lon="-0.355">
        <ele>1866.5</ele>
        <time>2018-12-27T13:56:10Z</time>
      </trkpt>
      <trkpt lat="42.80177" lon="-0.35507">
        <ele>1867.3</ele>
        <time>2018-12-27T13:56:12Z</time>
      </trkpt>
      <trkpt lat="42.80176" lon="-0.35511">
        <ele>1867.8</ele>
        <time>2018-12-27T13:56:13Z</time>
      </trkpt>
      <trkpt lat="42.80175" lon="-0.35522">
        <ele>1869.5</ele>
        <time>2018-12-27T13:56:15Z</time>
      </trkpt>
      <trkpt lat="42.80174" lon="-0.35535">
        <ele>1871.1</ele>
        <time>2018-12-27T13:56:17Z</time>
      </trkpt>
      <trkpt lat="42.80176" lon="-0.35547">
        <ele>1873.1</ele>
        <time>2018-12-27T13:56:20Z</time>
      </trkpt>
      <trkpt lat="42.80174" lon="-0.35551">
        <ele>1874.4</ele>
        <time>2018-12-27T13:56:21Z</time>
      </trkpt>
      <trkpt lat="42.80171" lon="-0.35556">
        <ele>1876.5</ele>
        <time>2018-12-27T13:56:22Z</time>
      </trkpt>
      <trkpt lat="42.8017" lon="-0.35565">
        <ele>1879.4</ele>
        <time>2018-12-27T13:56:24Z</time>
      </trkpt>
      <trkpt lat="42.80171" lon="-0.35567">
        <ele>1879.8</ele>
        <time>2018-12-27T13:56:24Z</time>
      </trkpt>
      <trkpt lat="42.80171" lon="-0.35571">
        <ele>1881</ele>
        <time>2018-12-27T13:56:25Z</time>
      </trkpt>
      <trkpt lat="42.80167" lon="-0.35578">
        <ele>1884</ele>
        <time>2018-12-27T13:56:27Z</time>
      </trkpt>
      <trkpt lat="42.80163" lon="-0.35579">
        <ele>1885</ele>
        <time>2018-12-27T13:56:28Z</time>
      </trkpt>
      <trkpt lat="42.80163" lon="-0.35581">
        <ele>1885.5</ele>
        <time>2018-12-27T13:56:28Z</time>
      </trkpt>
      <trkpt lat="42.80163" lon="-0.35584">
        <ele>1886.4</ele>
        <time>2018-12-27T13:56:29Z</time>
      </trkpt>
      <trkpt lat="42.80163" lon="-0.35585">
        <ele>1886.7</ele>
        <time>2018-12-27T13:56:29Z</time>
      </trkpt>
      <trkpt lat="42.80162" lon="-0.35594">
        <ele>1889.7</ele>
        <time>2018-12-27T13:56:31Z</time>
      </trkpt>
      <trkpt lat="42.80163" lon="-0.35601">
        <ele>1891.6</ele>
        <time>2018-12-27T13:56:32Z</time>
      </trkpt>
      <trkpt lat="42.80161" lon="-0.35605">
        <ele>1893.4</ele>
        <time>2018-12-27T13:56:33Z</time>
      </trkpt>
      <trkpt lat="42.8016" lon="-0.35609">
        <ele>1894.8</ele>
        <time>2018-12-27T13:56:34Z</time>
      </trkpt>
      <trkpt lat="42.80159" lon="-0.35612">
        <ele>1895.8</ele>
        <time>2018-12-27T13:56:35Z</time>
      </trkpt>
      <trkpt lat="42.80158" lon="-0.35617">
        <ele>1897.7</ele>
        <time>2018-12-27T13:56:36Z</time>
      </trkpt>
      <trkpt lat="42.8016" lon="-0.35623">
        <ele>1899.2</ele>
        <time>2018-12-27T13:56:37Z</time>
      </trkpt>
      <trkpt lat="42.80161" lon="-0.35628">
        <ele>1900.6</ele>
        <time>2018-12-27T13:56:38Z</time>
      </trkpt>
      <trkpt lat="42.80163" lon="-0.35632">
        <ele>1901.4</ele>
        <time>2018-12-27T13:56:39Z</time>
      </trkpt>
      <trkpt lat="42.80163" lon="-0.35639">
        <ele>1903.6</ele>
        <time>2018-12-27T13:56:40Z</time>
      </trkpt>
      <trkpt lat="42.80161" lon="-0.35643">
        <ele>1905.8</ele>
        <time>2018-12-27T13:56:41Z</time>
      </trkpt>
      <trkpt lat="42.80162" lon="-0.35648">
        <ele>1906.8</ele>
        <time>2018-12-27T13:56:42Z</time>
      </trkpt>
      <trkpt lat="42.80163" lon="-0.35651">
        <ele>1907.6</ele>
        <time>2018-12-27T13:56:43Z</time>
      </trkpt>
      <trkpt lat="42.80163" lon="-0.35654">
        <ele>1908.8</ele>
        <time>2018-12-27T13:56:43Z</time>
      </trkpt>
      <trkpt lat="42.80163" lon="-0.3566">
        <ele>1910.5</ele>
        <time>2018-12-27T13:56:45Z</time>
      </trkpt>
      <trkpt lat="42.80165" lon="-0.35663">
        <ele>1911.2</ele>
        <time>2018-12-27T13:56:45Z</time>
      </trkpt>
      <trkpt lat="42.80162" lon="-0.35667">
        <ele>1913.3</ele>
        <time>2018-12-27T13:56:46Z</time>
      </trkpt>
      <trkpt lat="42.80163" lon="-0.35672">
        <ele>1914.9</ele>
        <time>2018-12-27T13:56:47Z</time>
      </trkpt>
      <trkpt lat="42.80165" lon="-0.35674">
        <ele>1915</ele>
        <time>2018-12-27T13:56:48Z</time>
      </trkpt>
      <trkpt lat="42.80166" lon="-0.35678">
        <ele>1915.9</ele>
        <time>2018-12-27T13:56:49Z</time>
      </trkpt>
      <trkpt lat="42.80165" lon="-0.35685">
        <ele>1918.9</ele>
        <time>2018-12-27T13:56:50Z</time>
      </trkpt>
      <trkpt lat="42.80163" lon="-0.3569">
        <ele>1921.2</ele>
        <time>2018-12-27T13:56:51Z</time>
      </trkpt>
      <trkpt lat="42.80164" lon="-0.35691">
        <ele>1921</ele>
        <time>2018-12-27T13:56:52Z</time>
      </trkpt>
      <trkpt lat="42.80163" lon="-0.35697">
        <ele>1923.2</ele>
        <time>2018-12-27T13:56:53Z</time>
      </trkpt>
      <trkpt lat="42.80162" lon="-0.357">
        <ele>1924.5</ele>
        <time>2018-12-27T13:56:53Z</time>
      </trkpt>
      <trkpt lat="42.80161" lon="-0.35702">
        <ele>1925.8</ele>
        <time>2018-12-27T13:56:54Z</time>
      </trkpt>
      <trkpt lat="42.8016" lon="-0.35705">
        <ele>1927.1</ele>
        <time>2018-12-27T13:56:55Z</time>
      </trkpt>
      <trkpt lat="42.80157" lon="-0.35713">
        <ele>1930.8</ele>
        <time>2018-12-27T13:56:56Z</time>
      </trkpt>
      <trkpt lat="42.80156" lon="-0.35717">
        <ele>1932.5</ele>
        <time>2018-12-27T13:56:57Z</time>
      </trkpt>
      <trkpt lat="42.80156" lon="-0.3572">
        <ele>1933.3</ele>
        <time>2018-12-27T13:56:58Z</time>
      </trkpt>
      <trkpt lat="42.80158" lon="-0.35724">
        <ele>1933.8</ele>
        <time>2018-12-27T13:56:59Z</time>
      </trkpt>
      <trkpt lat="42.80154" lon="-0.35727">
        <ele>1936.2</ele>
        <time>2018-12-27T13:57:00Z</time>
      </trkpt>
      <trkpt lat="42.80152" lon="-0.35734">
        <ele>1939.4</ele>
        <time>2018-12-27T13:57:01Z</time>
      </trkpt>
      <trkpt lat="42.80152" lon="-0.35736">
        <ele>1939.8</ele>
        <time>2018-12-27T13:57:02Z</time>
      </trkpt>
      <trkpt lat="42.80154" lon="-0.35739">
        <ele>1939.4</ele>
        <time>2018-12-27T13:57:03Z</time>
      </trkpt>
      <trkpt lat="42.80156" lon="-0.35741">
        <ele>1939</ele>
        <time>2018-12-27T13:57:03Z</time>
      </trkpt>
      <trkpt lat="42.80156" lon="-0.35743">
        <ele>1939.6</ele>
        <time>2018-12-27T13:57:04Z</time>
      </trkpt>
      <trkpt lat="42.80156" lon="-0.35745">
        <ele>1939.9</ele>
        <time>2018-12-27T13:57:04Z</time>
      </trkpt>
      <trkpt lat="42.80158" lon="-0.35747">
        <ele>1939.9</ele>
        <time>2018-12-27T13:57:05Z</time>
      </trkpt>
      <trkpt lat="42.80157" lon="-0.35748">
        <ele>1940.5</ele>
        <time>2018-12-27T13:57:05Z</time>
      </trkpt>
      <trkpt lat="42.80155" lon="-0.3575">
        <ele>1942</ele>
        <time>2018-12-27T13:57:06Z</time>
      </trkpt>
      <trkpt lat="42.80154" lon="-0.35752">
        <ele>1943.3</ele>
        <time>2018-12-27T13:57:06Z</time>
      </trkpt>
      <trkpt lat="42.80152" lon="-0.35756">
        <ele>1945.1</ele>
        <time>2018-12-27T13:57:07Z</time>
      </trkpt>
      <trkpt lat="42.80152" lon="-0.35758">
        <ele>1945.7</ele>
        <time>2018-12-27T13:57:07Z</time>
      </trkpt>
      <trkpt lat="42.80152" lon="-0.35761">
        <ele>1946.7</ele>
        <time>2018-12-27T13:57:08Z</time>
      </trkpt>
      <trkpt lat="42.8015" lon="-0.3576">
        <ele>1947.3</ele>
        <time>2018-12-27T13:57:08Z</time>
      </trkpt>
      <trkpt lat="42.80148" lon="-0.35764">
        <ele>1949.6</ele>
        <time>2018-12-27T13:57:09Z</time>
      </trkpt>
      <trkpt lat="42.80149" lon="-0.35768">
        <ele>1950.4</ele>
        <time>2018-12-27T13:57:10Z</time>
      </trkpt>
      <trkpt lat="42.80148" lon="-0.35771">
        <ele>1951.5</ele>
        <time>2018-12-27T13:57:11Z</time>
      </trkpt>
      <trkpt lat="42.80148" lon="-0.35774">
        <ele>1952.6</ele>
        <time>2018-12-27T13:57:11Z</time>
      </trkpt>
      <trkpt lat="42.80148" lon="-0.35779">
        <ele>1954.3</ele>
        <time>2018-12-27T13:57:12Z</time>
      </trkpt>
      <trkpt lat="42.80147" lon="-0.35784">
        <ele>1956.1</ele>
        <time>2018-12-27T13:57:13Z</time>
      </trkpt>
      <trkpt lat="42.80146" lon="-0.35786">
        <ele>1956.9</ele>
        <time>2018-12-27T13:57:14Z</time>
      </trkpt>
      <trkpt lat="42.80141" lon="-0.35789">
        <ele>1960.7</ele>
        <time>2018-12-27T13:57:15Z</time>
      </trkpt>
      <trkpt lat="42.8014" lon="-0.35792">
        <ele>1962.4</ele>
        <time>2018-12-27T13:57:16Z</time>
      </trkpt>
      <trkpt lat="42.8014" lon="-0.35795">
        <ele>1963.9</ele>
        <time>2018-12-27T13:57:16Z</time>
      </trkpt>
      <trkpt lat="42.8014" lon="-0.35798">
        <ele>1965.9</ele>
        <time>2018-12-27T13:57:17Z</time>
      </trkpt>
      <trkpt lat="42.8014" lon="-0.35798">
        <ele>1966.8</ele>
        <time>2018-12-27T13:57:17Z</time>
      </trkpt>
      <trkpt lat="42.80137" lon="-0.35803">
        <ele>1971.5</ele>
        <time>2018-12-27T13:57:18Z</time>
      </trkpt>
      <trkpt lat="42.80132" lon="-0.35808">
        <ele>1977.9</ele>
        <time>2018-12-27T13:57:20Z</time>
      </trkpt>
      <trkpt lat="42.80131" lon="-0.35813">
        <ele>1980.8</ele>
        <time>2018-12-27T13:57:21Z</time>
      </trkpt>
      <trkpt lat="42.80136" lon="-0.35811">
        <ele>1976.7</ele>
        <time>2018-12-27T13:57:22Z</time>
      </trkpt>
      <trkpt lat="42.80145" lon="-0.35811">
        <ele>1971.9</ele>
        <time>2018-12-27T13:57:25Z</time>
      </trkpt>
      <trkpt lat="42.80147" lon="-0.35813">
        <ele>1971.1</ele>
        <time>2018-12-27T13:57:25Z</time>
      </trkpt>
      <trkpt lat="42.80146" lon="-0.35814">
        <ele>1972.8</ele>
        <time>2018-12-27T13:57:26Z</time>
      </trkpt>
      <trkpt lat="42.80145" lon="-0.35815">
        <ele>1974</ele>
        <time>2018-12-27T13:57:26Z</time>
      </trkpt>
      <trkpt lat="42.80144" lon="-0.35817">
        <ele>1976.5</ele>
        <time>2018-12-27T13:57:27Z</time>
      </trkpt>
      <trkpt lat="42.8014" lon="-0.35819">
        <ele>1979.7</ele>
        <time>2018-12-27T13:57:28Z</time>
      </trkpt>
      <trkpt lat="42.80132" lon="-0.35828">
        <ele>1990.2</ele>
        <time>2018-12-27T13:57:31Z</time>
      </trkpt>
      <trkpt lat="42.80125" lon="-0.35831">
        <ele>1995.8</ele>
        <time>2018-12-27T13:57:33Z</time>
      </trkpt>
      <trkpt lat="42.80118" lon="-0.35837">
        <ele>2001.9</ele>
        <time>2018-12-27T13:57:35Z</time>
      </trkpt>
      <trkpt lat="42.80114" lon="-0.3584">
        <ele>2004.2</ele>
        <time>2018-12-27T13:57:36Z</time>
      </trkpt>
      <trkpt lat="42.80115" lon="-0.3584">
        <ele>2003.9</ele>
        <time>2018-12-27T13:57:36Z</time>
      </trkpt>
      <trkpt lat="42.80114" lon="-0.35839">
        <ele>2003.6</ele>
        <time>2018-12-27T13:57:37Z</time>
      </trkpt>
      <trkpt lat="42.80113" lon="-0.35841">
        <ele>2005.2</ele>
        <time>2018-12-27T13:57:37Z</time>
      </trkpt>
      <trkpt lat="42.80111" lon="-0.35845">
        <ele>2007.8</ele>
        <time>2018-12-27T13:57:38Z</time>
      </trkpt>
      <trkpt lat="42.80108" lon="-0.35844">
        <ele>2008</ele>
        <time>2018-12-27T13:57:39Z</time>
      </trkpt>
      <trkpt lat="42.80107" lon="-0.35845">
        <ele>2008.4</ele>
        <time>2018-12-27T13:57:39Z</time>
      </trkpt>
      <trkpt lat="42.801" lon="-0.35851">
        <ele>2012.9</ele>
        <time>2018-12-27T13:57:41Z</time>
      </trkpt>
      <trkpt lat="42.80096" lon="-0.35856">
        <ele>2015.6</ele>
        <time>2018-12-27T13:57:43Z</time>
      </trkpt>
      <trkpt lat="42.80093" lon="-0.35855">
        <ele>2015.7</ele>
        <time>2018-12-27T13:57:44Z</time>
      </trkpt>
      <trkpt lat="42.8009" lon="-0.35852">
        <ele>2014.7</ele>
        <time>2018-12-27T13:57:45Z</time>
      </trkpt>
      <trkpt lat="42.80088" lon="-0.35848">
        <ele>2013.5</ele>
        <time>2018-12-27T13:57:46Z</time>
      </trkpt>
      <trkpt lat="42.80086" lon="-0.35843">
        <ele>2011.6</ele>
        <time>2018-12-27T13:57:47Z</time>
      </trkpt>
      <trkpt lat="42.80085" lon="-0.35836">
        <ele>2009.4</ele>
        <time>2018-12-27T13:57:48Z</time>
      </trkpt>
      <trkpt lat="42.80083" lon="-0.35833">
        <ele>2008.6</ele>
        <time>2018-12-27T13:57:49Z</time>
      </trkpt>
      <trkpt lat="42.80079" lon="-0.35832">
        <ele>2009.6</ele>
        <time>2018-12-27T13:57:50Z</time>
      </trkpt>
      <trkpt lat="42.80079" lon="-0.35835">
        <ele>2010.4</ele>
        <time>2018-12-27T13:57:51Z</time>
      </trkpt>
      <trkpt lat="42.80076" lon="-0.35839">
        <ele>2012.7</ele>
        <time>2018-12-27T13:57:52Z</time>
      </trkpt>
      <trkpt lat="42.80074" lon="-0.35842">
        <ele>2013.9</ele>
        <time>2018-12-27T13:57:53Z</time>
      </trkpt>
      <trkpt lat="42.80072" lon="-0.35843">
        <ele>2014.9</ele>
        <time>2018-12-27T13:57:53Z</time>
      </trkpt>
      <trkpt lat="42.8007" lon="-0.35844">
        <ele>2015.5</ele>
        <time>2018-12-27T13:57:54Z</time>
      </trkpt>
      <trkpt lat="42.80067" lon="-0.35841">
        <ele>2015.3</ele>
        <time>2018-12-27T13:57:55Z</time>
      </trkpt>
      <trkpt lat="42.80063" lon="-0.35837">
        <ele>2015</ele>
        <time>2018-12-27T13:57:56Z</time>
      </trkpt>
      <trkpt lat="42.80059" lon="-0.35836">
        <ele>2016.1</ele>
        <time>2018-12-27T13:57:57Z</time>
      </trkpt>
      <trkpt lat="42.80058" lon="-0.35838">
        <ele>2016.8</ele>
        <time>2018-12-27T13:57:58Z</time>
      </trkpt>
      <trkpt lat="42.80054" lon="-0.35839">
        <ele>2017.8</ele>
        <time>2018-12-27T13:57:59Z</time>
      </trkpt>
      <trkpt lat="42.80051" lon="-0.35837">
        <ele>2018.3</ele>
        <time>2018-12-27T13:58:00Z</time>
      </trkpt>
      <trkpt lat="42.80044" lon="-0.35836">
        <ele>2019.7</ele>
        <time>2018-12-27T13:58:01Z</time>
      </trkpt>
      <trkpt lat="42.80041" lon="-0.35833">
        <ele>2020</ele>
        <time>2018-12-27T13:58:02Z</time>
      </trkpt>
      <trkpt lat="42.80039" lon="-0.35832">
        <ele>2020.3</ele>
        <time>2018-12-27T13:58:03Z</time>
      </trkpt>
      <trkpt lat="42.80036" lon="-0.3583">
        <ele>2020.5</ele>
        <time>2018-12-27T13:58:04Z</time>
      </trkpt>
      <trkpt lat="42.80031" lon="-0.35827">
        <ele>2020.9</ele>
        <time>2018-12-27T13:58:05Z</time>
      </trkpt>
      <trkpt lat="42.80027" lon="-0.35827">
        <ele>2021.6</ele>
        <time>2018-12-27T13:58:07Z</time>
      </trkpt>
      <trkpt lat="42.80022" lon="-0.35827">
        <ele>2022.4</ele>
        <time>2018-12-27T13:58:08Z</time>
      </trkpt>
      <trkpt lat="42.80018" lon="-0.35828">
        <ele>2023.2</ele>
        <time>2018-12-27T13:58:09Z</time>
      </trkpt>
      <trkpt lat="42.80015" lon="-0.35827">
        <ele>2023.5</ele>
        <time>2018-12-27T13:58:10Z</time>
      </trkpt>
      <trkpt lat="42.80014" lon="-0.35828">
        <ele>2023.7</ele>
        <time>2018-12-27T13:58:10Z</time>
      </trkpt>
      <trkpt lat="42.80012" lon="-0.35827">
        <ele>2024.1</ele>
        <time>2018-12-27T13:58:11Z</time>
      </trkpt>
      <trkpt lat="42.8001" lon="-0.35827">
        <ele>2024.5</ele>
        <time>2018-12-27T13:58:11Z</time>
      </trkpt>
      <trkpt lat="42.80007" lon="-0.35828">
        <ele>2024.8</ele>
        <time>2018-12-27T13:58:12Z</time>
      </trkpt>
      <trkpt lat="42.80005" lon="-0.35827">
        <ele>2025.1</ele>
        <time>2018-12-27T13:58:13Z</time>
      </trkpt>
      <trkpt lat="42.80004" lon="-0.35828">
        <ele>2025.3</ele>
        <time>2018-12-27T13:58:13Z</time>
      </trkpt>
      <trkpt lat="42.80001" lon="-0.35828">
        <ele>2025.7</ele>
        <time>2018-12-27T13:58:14Z</time>
      </trkpt>
      <trkpt lat="42.79998" lon="-0.35826">
        <ele>2026.1</ele>
        <time>2018-12-27T13:58:15Z</time>
      </trkpt>
      <trkpt lat="42.79996" lon="-0.35827">
        <ele>2026.5</ele>
        <time>2018-12-27T13:58:15Z</time>
      </trkpt>
      <trkpt lat="42.79994" lon="-0.3583">
        <ele>2026.9</ele>
        <time>2018-12-27T13:58:16Z</time>
      </trkpt>
      <trkpt lat="42.79991" lon="-0.3583">
        <ele>2027.3</ele>
        <time>2018-12-27T13:58:17Z</time>
      </trkpt>
      <trkpt lat="42.79987" lon="-0.35828">
        <ele>2028</ele>
        <time>2018-12-27T13:58:18Z</time>
      </trkpt>
      <trkpt lat="42.79985" lon="-0.3583">
        <ele>2028.1</ele>
        <time>2018-12-27T13:58:19Z</time>
      </trkpt>
      <trkpt lat="42.79982" lon="-0.35829">
        <ele>2028.7</ele>
        <time>2018-12-27T13:58:20Z</time>
      </trkpt>
      <trkpt lat="42.79979" lon="-0.35827">
        <ele>2029.2</ele>
        <time>2018-12-27T13:58:20Z</time>
      </trkpt>
      <trkpt lat="42.79977" lon="-0.3583">
        <ele>2029.4</ele>
        <time>2018-12-27T13:58:21Z</time>
      </trkpt>
      <trkpt lat="42.79975" lon="-0.35831">
        <ele>2029.4</ele>
        <time>2018-12-27T13:58:22Z</time>
      </trkpt>
      <trkpt lat="42.79973" lon="-0.35828">
        <ele>2030.1</ele>
        <time>2018-12-27T13:58:23Z</time>
      </trkpt>
      <trkpt lat="42.7997" lon="-0.35831">
        <ele>2030.2</ele>
        <time>2018-12-27T13:58:23Z</time>
      </trkpt>
      <trkpt lat="42.79969" lon="-0.35836">
        <ele>2029.7</ele>
        <time>2018-12-27T13:58:24Z</time>
      </trkpt>
      <trkpt lat="42.79968" lon="-0.35837">
        <ele>2029.8</ele>
        <time>2018-12-27T13:58:25Z</time>
      </trkpt>
      <trkpt lat="42.79967" lon="-0.35836">
        <ele>2029.9</ele>
        <time>2018-12-27T13:58:25Z</time>
      </trkpt>
      <trkpt lat="42.79966" lon="-0.35834">
        <ele>2030.5</ele>
        <time>2018-12-27T13:58:26Z</time>
      </trkpt>
      <trkpt lat="42.79964" lon="-0.3583">
        <ele>2031.2</ele>
        <time>2018-12-27T13:58:27Z</time>
      </trkpt>
      <trkpt lat="42.79962" lon="-0.35833">
        <ele>2031.2</ele>
        <time>2018-12-27T13:58:27Z</time>
      </trkpt>
      <trkpt lat="42.79959" lon="-0.3583">
        <ele>2032</ele>
        <time>2018-12-27T13:58:28Z</time>
      </trkpt>
      <trkpt lat="42.79957" lon="-0.35825">
        <ele>2032.7</ele>
        <time>2018-12-27T13:58:29Z</time>
      </trkpt>
      <trkpt lat="42.79952" lon="-0.35824">
        <ele>2032.2</ele>
        <time>2018-12-27T13:58:31Z</time>
      </trkpt>
      <trkpt lat="42.79949" lon="-0.35818">
        <ele>2032.7</ele>
        <time>2018-12-27T13:58:32Z</time>
      </trkpt>
      <trkpt lat="42.79946" lon="-0.35814">
        <ele>2033.1</ele>
        <time>2018-12-27T13:58:33Z</time>
      </trkpt>
      <trkpt lat="42.79943" lon="-0.35811">
        <ele>2033.2</ele>
        <time>2018-12-27T13:58:34Z</time>
      </trkpt>
      <trkpt lat="42.79939" lon="-0.3581">
        <ele>2033.1</ele>
        <time>2018-12-27T13:58:35Z</time>
      </trkpt>
      <trkpt lat="42.79933" lon="-0.35808">
        <ele>2032.7</ele>
        <time>2018-12-27T13:58:37Z</time>
      </trkpt>
      <trkpt lat="42.7993" lon="-0.35807">
        <ele>2032.7</ele>
        <time>2018-12-27T13:58:38Z</time>
      </trkpt>
      <trkpt lat="42.79924" lon="-0.35806">
        <ele>2032.3</ele>
        <time>2018-12-27T13:58:39Z</time>
      </trkpt>
      <trkpt lat="42.79922" lon="-0.35806">
        <ele>2031.9</ele>
        <time>2018-12-27T13:58:40Z</time>
      </trkpt>
      <trkpt lat="42.7992" lon="-0.35806">
        <ele>2031.7</ele>
        <time>2018-12-27T13:58:40Z</time>
      </trkpt>
      <trkpt lat="42.79913" lon="-0.35804">
        <ele>2031.5</ele>
        <time>2018-12-27T13:58:42Z</time>
      </trkpt>
      <trkpt lat="42.79911" lon="-0.35803">
        <ele>2031.4</ele>
        <time>2018-12-27T13:58:43Z</time>
      </trkpt>
      <trkpt lat="42.79908" lon="-0.35805">
        <ele>2030.6</ele>
        <time>2018-12-27T13:58:44Z</time>
      </trkpt>
      <trkpt lat="42.79908" lon="-0.35807">
        <ele>2030.3</ele>
        <time>2018-12-27T13:58:44Z</time>
      </trkpt>
      <trkpt lat="42.79906" lon="-0.35811">
        <ele>2029.3</ele>
        <time>2018-12-27T13:58:45Z</time>
      </trkpt>
      <trkpt lat="42.79904" lon="-0.35811">
        <ele>2029</ele>
        <time>2018-12-27T13:58:45Z</time>
      </trkpt>
      <trkpt lat="42.79901" lon="-0.35812">
        <ele>2028.6</ele>
        <time>2018-12-27T13:58:46Z</time>
      </trkpt>
      <trkpt lat="42.79897" lon="-0.35811">
        <ele>2028.4</ele>
        <time>2018-12-27T13:58:47Z</time>
      </trkpt>
      <trkpt lat="42.79889" lon="-0.35814">
        <ele>2026.8</ele>
        <time>2018-12-27T13:58:50Z</time>
      </trkpt>
      <trkpt lat="42.79885" lon="-0.3582">
        <ele>2025.2</ele>
        <time>2018-12-27T13:58:51Z</time>
      </trkpt>
      <trkpt lat="42.79884" lon="-0.3582">
        <ele>2024.8</ele>
        <time>2018-12-27T13:58:52Z</time>
      </trkpt>
      <trkpt lat="42.79879" lon="-0.35824">
        <ele>2023.6</ele>
        <time>2018-12-27T13:58:53Z</time>
      </trkpt>
      <trkpt lat="42.79874" lon="-0.35824">
        <ele>2023.3</ele>
        <time>2018-12-27T13:58:54Z</time>
      </trkpt>
      <trkpt lat="42.7987" lon="-0.3583">
        <ele>2023.2</ele>
        <time>2018-12-27T13:58:56Z</time>
      </trkpt>
      <trkpt lat="42.7987" lon="-0.35837">
        <ele>2021.8</ele>
        <time>2018-12-27T13:58:57Z</time>
      </trkpt>
      <trkpt lat="42.79866" lon="-0.35847">
        <ele>2021</ele>
        <time>2018-12-27T13:58:59Z</time>
      </trkpt>
      <trkpt lat="42.79865" lon="-0.35856">
        <ele>2019.4</ele>
        <time>2018-12-27T13:59:01Z</time>
      </trkpt>
      <trkpt lat="42.79865" lon="-0.3586">
        <ele>2018.6</ele>
        <time>2018-12-27T13:59:02Z</time>
      </trkpt>
      <trkpt lat="42.79863" lon="-0.35869">
        <ele>2017.3</ele>
        <time>2018-12-27T13:59:04Z</time>
      </trkpt>
      <trkpt lat="42.79862" lon="-0.35885">
        <ele>2015.8</ele>
        <time>2018-12-27T13:59:07Z</time>
      </trkpt>
      <trkpt lat="42.79857" lon="-0.35895">
        <ele>2016.5</ele>
        <time>2018-12-27T13:59:09Z</time>
      </trkpt>
      <trkpt lat="42.79848" lon="-0.35903">
        <ele>2018.6</ele>
        <time>2018-12-27T13:59:12Z</time>
      </trkpt>
      <trkpt lat="42.79839" lon="-0.3591">
        <ele>2020.6</ele>
        <time>2018-12-27T13:59:15Z</time>
      </trkpt>
      <trkpt lat="42.79833" lon="-0.35922">
        <ele>2021.1</ele>
        <time>2018-12-27T13:59:18Z</time>
      </trkpt>
      <trkpt lat="42.79831" lon="-0.35928">
        <ele>2020.9</ele>
        <time>2018-12-27T13:59:19Z</time>
      </trkpt>
      <trkpt lat="42.79829" lon="-0.35932">
        <ele>2021</ele>
        <time>2018-12-27T13:59:20Z</time>
      </trkpt>
      <trkpt lat="42.79827" lon="-0.35939">
        <ele>2020.8</ele>
        <time>2018-12-27T13:59:22Z</time>
      </trkpt>
      <trkpt lat="42.79824" lon="-0.35945">
        <ele>2020.7</ele>
        <time>2018-12-27T13:59:23Z</time>
      </trkpt>
      <trkpt lat="42.79821" lon="-0.35949">
        <ele>2021</ele>
        <time>2018-12-27T13:59:24Z</time>
      </trkpt>
      <trkpt lat="42.79818" lon="-0.35955">
        <ele>2020.8</ele>
        <time>2018-12-27T13:59:26Z</time>
      </trkpt>
      <trkpt lat="42.79818" lon="-0.35958">
        <ele>2020.4</ele>
        <time>2018-12-27T13:59:26Z</time>
      </trkpt>
      <trkpt lat="42.79818" lon="-0.35965">
        <ele>2019.4</ele>
        <time>2018-12-27T13:59:28Z</time>
      </trkpt>
      <trkpt lat="42.79817" lon="-0.35967">
        <ele>2019.3</ele>
        <time>2018-12-27T13:59:28Z</time>
      </trkpt>
      <trkpt lat="42.79815" lon="-0.35975">
        <ele>2018.6</ele>
        <time>2018-12-27T13:59:30Z</time>
      </trkpt>
      <trkpt lat="42.79811" lon="-0.35989">
        <ele>2016.8</ele>
        <time>2018-12-27T13:59:33Z</time>
      </trkpt>
      <trkpt lat="42.79811" lon="-0.36008">
        <ele>2014.1</ele>
        <time>2018-12-27T13:59:36Z</time>
      </trkpt>
      <trkpt lat="42.79808" lon="-0.36013">
        <ele>2013.6</ele>
        <time>2018-12-27T13:59:37Z</time>
      </trkpt>
      <trkpt lat="42.79807" lon="-0.36013">
        <ele>2013.6</ele>
        <time>2018-12-27T13:59:38Z</time>
      </trkpt>
      <trkpt lat="42.79799" lon="-0.36018">
        <ele>2013.9</ele>
        <time>2018-12-27T13:59:40Z</time>
      </trkpt>
      <trkpt lat="42.79797" lon="-0.36019">
        <ele>2013.7</ele>
        <time>2018-12-27T13:59:41Z</time>
      </trkpt>
      <trkpt lat="42.79792" lon="-0.36024">
        <ele>2013.4</ele>
        <time>2018-12-27T13:59:43Z</time>
      </trkpt>
      <trkpt lat="42.79781" lon="-0.36031">
        <ele>2015.6</ele>
        <time>2018-12-27T13:59:46Z</time>
      </trkpt>
      <trkpt lat="42.79773" lon="-0.36035">
        <ele>2018.1</ele>
        <time>2018-12-27T13:59:48Z</time>
      </trkpt>
      <trkpt lat="42.79766" lon="-0.36039">
        <ele>2019.8</ele>
        <time>2018-12-27T13:59:50Z</time>
      </trkpt>
      <trkpt lat="42.79758" lon="-0.36039">
        <ele>2022.7</ele>
        <time>2018-12-27T13:59:52Z</time>
      </trkpt>
      <trkpt lat="42.7975" lon="-0.3604">
        <ele>2025.7</ele>
        <time>2018-12-27T13:59:54Z</time>
      </trkpt>
      <trkpt lat="42.79745" lon="-0.3604">
        <ele>2027.6</ele>
        <time>2018-12-27T13:59:56Z</time>
      </trkpt>
      <trkpt lat="42.79742" lon="-0.3604">
        <ele>2028.7</ele>
        <time>2018-12-27T13:59:56Z</time>
      </trkpt>
      <trkpt lat="42.79741" lon="-0.3604">
        <ele>2029.1</ele>
        <time>2018-12-27T13:59:57Z</time>
      </trkpt>
      <trkpt lat="42.79737" lon="-0.36036">
        <ele>2030.6</ele>
        <time>2018-12-27T13:59:58Z</time>
      </trkpt>
      <trkpt lat="42.79729" lon="-0.36036">
        <ele>2033.3</ele>
        <time>2018-12-27T14:00:00Z</time>
      </trkpt>
      <trkpt lat="42.79723" lon="-0.36033">
        <ele>2035.6</ele>
        <time>2018-12-27T14:00:02Z</time>
      </trkpt>
      <trkpt lat="42.79722" lon="-0.36032">
        <ele>2035.9</ele>
        <time>2018-12-27T14:00:02Z</time>
      </trkpt>
      <trkpt lat="42.79715" lon="-0.36027">
        <ele>2038</ele>
        <time>2018-12-27T14:00:04Z</time>
      </trkpt>
      <trkpt lat="42.79714" lon="-0.36026">
        <ele>2038.3</ele>
        <time>2018-12-27T14:00:05Z</time>
      </trkpt>
      <trkpt lat="42.79712" lon="-0.36024">
        <ele>2039</ele>
        <time>2018-12-27T14:00:05Z</time>
      </trkpt>
      <trkpt lat="42.79708" lon="-0.36021">
        <ele>2040.2</ele>
        <time>2018-12-27T14:00:07Z</time>
      </trkpt>
      <trkpt lat="42.797" lon="-0.36015">
        <ele>2042.5</ele>
        <time>2018-12-27T14:00:09Z</time>
      </trkpt>
      <trkpt lat="42.79692" lon="-0.36006">
        <ele>2044.2</ele>
        <time>2018-12-27T14:00:12Z</time>
      </trkpt>
      <trkpt lat="42.79684" lon="-0.35997">
        <ele>2046.1</ele>
        <time>2018-12-27T14:00:15Z</time>
      </trkpt>
      <trkpt lat="42.79678" lon="-0.35986">
        <ele>2046.9</ele>
        <time>2018-12-27T14:00:17Z</time>
      </trkpt>
      <trkpt lat="42.79675" lon="-0.35981">
        <ele>2047.2</ele>
        <time>2018-12-27T14:00:19Z</time>
      </trkpt>
      <trkpt lat="42.7967" lon="-0.35978">
        <ele>2048.3</ele>
        <time>2018-12-27T14:00:20Z</time>
      </trkpt>
      <trkpt lat="42.79666" lon="-0.35972">
        <ele>2048.9</ele>
        <time>2018-12-27T14:00:21Z</time>
      </trkpt>
      <trkpt lat="42.79664" lon="-0.35969">
        <ele>2049.1</ele>
        <time>2018-12-27T14:00:22Z</time>
      </trkpt>
      <trkpt lat="42.7966" lon="-0.35963">
        <ele>2049.8</ele>
        <time>2018-12-27T14:00:24Z</time>
      </trkpt>
      <trkpt lat="42.79652" lon="-0.35958">
        <ele>2051.2</ele>
        <time>2018-12-27T14:00:26Z</time>
      </trkpt>
      <trkpt lat="42.7965" lon="-0.35956">
        <ele>2051.6</ele>
        <time>2018-12-27T14:00:27Z</time>
      </trkpt>
      <trkpt lat="42.79645" lon="-0.35951">
        <ele>2051.9</ele>
        <time>2018-12-27T14:00:29Z</time>
      </trkpt>
      <trkpt lat="42.79638" lon="-0.35945">
        <ele>2052.6</ele>
        <time>2018-12-27T14:00:31Z</time>
      </trkpt>
      <trkpt lat="42.79629" lon="-0.35942">
        <ele>2053.7</ele>
        <time>2018-12-27T14:00:33Z</time>
      </trkpt>
      <trkpt lat="42.79618" lon="-0.35936">
        <ele>2053</ele>
        <time>2018-12-27T14:00:36Z</time>
      </trkpt>
      <trkpt lat="42.79615" lon="-0.35934">
        <ele>2052.6</ele>
        <time>2018-12-27T14:00:37Z</time>
      </trkpt>
      <trkpt lat="42.7961" lon="-0.35929">
        <ele>2051.2</ele>
        <time>2018-12-27T14:00:39Z</time>
      </trkpt>
      <trkpt lat="42.796" lon="-0.35922">
        <ele>2048.9</ele>
        <time>2018-12-27T14:00:42Z</time>
      </trkpt>
      <trkpt lat="42.79592" lon="-0.35913">
        <ele>2045.9</ele>
        <time>2018-12-27T14:00:45Z</time>
      </trkpt>
      <trkpt lat="42.79585" lon="-0.35905">
        <ele>2043.2</ele>
        <time>2018-12-27T14:00:47Z</time>
      </trkpt>
      <trkpt lat="42.79579" lon="-0.35901">
        <ele>2041.5</ele>
        <time>2018-12-27T14:00:49Z</time>
      </trkpt>
      <trkpt lat="42.7958" lon="-0.35901">
        <ele>2041.7</ele>
        <time>2018-12-27T14:00:49Z</time>
      </trkpt>
      <trkpt lat="42.79581" lon="-0.359">
        <ele>2041.4</ele>
        <time>2018-12-27T14:00:49Z</time>
      </trkpt>
      <trkpt lat="42.79579" lon="-0.35902">
        <ele>2042</ele>
        <time>2018-12-27T14:00:50Z</time>
      </trkpt>
      <trkpt lat="42.79579" lon="-0.35903">
        <ele>2042.1</ele>
        <time>2018-12-27T14:00:50Z</time>
      </trkpt>
      <trkpt lat="42.79576" lon="-0.35902">
        <ele>2041.8</ele>
        <time>2018-12-27T14:00:51Z</time>
      </trkpt>
      <trkpt lat="42.79578" lon="-0.35903">
        <ele>2042</ele>
        <time>2018-12-27T14:00:51Z</time>
      </trkpt>
      <trkpt lat="42.79572" lon="-0.35901">
        <ele>2040.8</ele>
        <time>2018-12-27T14:00:53Z</time>
      </trkpt>
      <trkpt lat="42.79565" lon="-0.35899">
        <ele>2039.8</ele>
        <time>2018-12-27T14:00:55Z</time>
      </trkpt>
      <trkpt lat="42.7956" lon="-0.35899">
        <ele>2039.4</ele>
        <time>2018-12-27T14:00:56Z</time>
      </trkpt>
      <trkpt lat="42.79553" lon="-0.35895">
        <ele>2037.3</ele>
        <time>2018-12-27T14:00:58Z</time>
      </trkpt>
      <trkpt lat="42.79551" lon="-0.35884">
        <ele>2033.3</ele>
        <time>2018-12-27T14:01:00Z</time>
      </trkpt>
      <trkpt lat="42.7954" lon="-0.35875">
        <ele>2028.5</ele>
        <time>2018-12-27T14:01:04Z</time>
      </trkpt>
      <trkpt lat="42.79535" lon="-0.35875">
        <ele>2026.6</ele>
        <time>2018-12-27T14:01:05Z</time>
      </trkpt>
      <trkpt lat="42.79527" lon="-0.35874">
        <ele>2023.6</ele>
        <time>2018-12-27T14:01:07Z</time>
      </trkpt>
      <trkpt lat="42.79514" lon="-0.3587">
        <ele>2018.6</ele>
        <time>2018-12-27T14:01:11Z</time>
      </trkpt>
      <trkpt lat="42.79501" lon="-0.35865">
        <ele>2013.8</ele>
        <time>2018-12-27T14:01:14Z</time>
      </trkpt>
      <trkpt lat="42.79488" lon="-0.35858">
        <ele>2008.6</ele>
        <time>2018-12-27T14:01:18Z</time>
      </trkpt>
      <trkpt lat="42.7948" lon="-0.35853">
        <ele>2005.5</ele>
        <time>2018-12-27T14:01:21Z</time>
      </trkpt>
      <trkpt lat="42.79476" lon="-0.35851">
        <ele>2004.1</ele>
        <time>2018-12-27T14:01:22Z</time>
      </trkpt>
      <trkpt lat="42.79472" lon="-0.35851">
        <ele>2002.8</ele>
        <time>2018-12-27T14:01:23Z</time>
      </trkpt>
      <trkpt lat="42.79466" lon="-0.35847">
        <ele>2000.3</ele>
        <time>2018-12-27T14:01:24Z</time>
      </trkpt>
      <trkpt lat="42.7946" lon="-0.35844">
        <ele>1998.2</ele>
        <time>2018-12-27T14:01:26Z</time>
      </trkpt>
      <trkpt lat="42.79448" lon="-0.3584">
        <ele>1994</ele>
        <time>2018-12-27T14:01:30Z</time>
      </trkpt>
      <trkpt lat="42.79437" lon="-0.35841">
        <ele>1990.4</ele>
        <time>2018-12-27T14:01:32Z</time>
      </trkpt>
      <trkpt lat="42.79427" lon="-0.35846">
        <ele>1987</ele>
        <time>2018-12-27T14:01:35Z</time>
      </trkpt>
      <trkpt lat="42.79418" lon="-0.3585">
        <ele>1984.3</ele>
        <time>2018-12-27T14:01:38Z</time>
      </trkpt>
      <trkpt lat="42.79409" lon="-0.35856">
        <ele>1980.7</ele>
        <time>2018-12-27T14:01:41Z</time>
      </trkpt>
      <trkpt lat="42.79399" lon="-0.35854">
        <ele>1977.6</ele>
        <time>2018-12-27T14:01:43Z</time>
      </trkpt>
      <trkpt lat="42.79386" lon="-0.35852">
        <ele>1973.1</ele>
        <time>2018-12-27T14:01:47Z</time>
      </trkpt>
      <trkpt lat="42.79382" lon="-0.35861">
        <ele>1970.8</ele>
        <time>2018-12-27T14:01:49Z</time>
      </trkpt>
      <trkpt lat="42.79376" lon="-0.35866">
        <ele>1968.4</ele>
        <time>2018-12-27T14:01:50Z</time>
      </trkpt>
      <trkpt lat="42.7937" lon="-0.35869">
        <ele>1966.2</ele>
        <time>2018-12-27T14:01:52Z</time>
      </trkpt>
      <trkpt lat="42.79361" lon="-0.35874">
        <ele>1963.4</ele>
        <time>2018-12-27T14:01:55Z</time>
      </trkpt>
      <trkpt lat="42.79346" lon="-0.3588">
        <ele>1959.7</ele>
        <time>2018-12-27T14:01:59Z</time>
      </trkpt>
      <trkpt lat="42.79334" lon="-0.35886">
        <ele>1956.4</ele>
        <time>2018-12-27T14:02:02Z</time>
      </trkpt>
      <trkpt lat="42.79325" lon="-0.35885">
        <ele>1954</ele>
        <time>2018-12-27T14:02:05Z</time>
      </trkpt>
      <trkpt lat="42.79316" lon="-0.35893">
        <ele>1951.1</ele>
        <time>2018-12-27T14:02:08Z</time>
      </trkpt>
      <trkpt lat="42.79306" lon="-0.35895">
        <ele>1948.1</ele>
        <time>2018-12-27T14:02:10Z</time>
      </trkpt>
      <trkpt lat="42.79302" lon="-0.35895">
        <ele>1946.9</ele>
        <time>2018-12-27T14:02:12Z</time>
      </trkpt>
      <trkpt lat="42.79297" lon="-0.35891">
        <ele>1945.7</ele>
        <time>2018-12-27T14:02:13Z</time>
      </trkpt>
      <trkpt lat="42.79288" lon="-0.35883">
        <ele>1944</ele>
        <time>2018-12-27T14:02:16Z</time>
      </trkpt>
      <trkpt lat="42.79278" lon="-0.35871">
        <ele>1943.1</ele>
        <time>2018-12-27T14:02:19Z</time>
      </trkpt>
      <trkpt lat="42.79277" lon="-0.35869">
        <ele>1943.1</ele>
        <time>2018-12-27T14:02:20Z</time>
      </trkpt>
      <trkpt lat="42.79272" lon="-0.35866">
        <ele>1942.6</ele>
        <time>2018-12-27T14:02:21Z</time>
      </trkpt>
      <trkpt lat="42.79264" lon="-0.3586">
        <ele>1941.8</ele>
        <time>2018-12-27T14:02:24Z</time>
      </trkpt>
      <trkpt lat="42.79259" lon="-0.35856">
        <ele>1941.3</ele>
        <time>2018-12-27T14:02:25Z</time>
      </trkpt>
      <trkpt lat="42.79246" lon="-0.35852">
        <ele>1939.4</ele>
        <time>2018-12-27T14:02:29Z</time>
      </trkpt>
      <trkpt lat="42.79242" lon="-0.35849">
        <ele>1938.9</ele>
        <time>2018-12-27T14:02:30Z</time>
      </trkpt>
      <trkpt lat="42.79238" lon="-0.35847">
        <ele>1938.6</ele>
        <time>2018-12-27T14:02:31Z</time>
      </trkpt>
      <trkpt lat="42.79232" lon="-0.35841">
        <ele>1938.1</ele>
        <time>2018-12-27T14:02:33Z</time>
      </trkpt>
      <trkpt lat="42.79228" lon="-0.35839">
        <ele>1937.7</ele>
        <time>2018-12-27T14:02:34Z</time>
      </trkpt>
      <trkpt lat="42.79222" lon="-0.35835">
        <ele>1937.1</ele>
        <time>2018-12-27T14:02:36Z</time>
      </trkpt>
      <trkpt lat="42.79218" lon="-0.35836">
        <ele>1936.4</ele>
        <time>2018-12-27T14:02:37Z</time>
      </trkpt>
      <trkpt lat="42.79214" lon="-0.35836">
        <ele>1935.8</ele>
        <time>2018-12-27T14:02:38Z</time>
      </trkpt>
      <trkpt lat="42.79208" lon="-0.35837">
        <ele>1934.6</ele>
        <time>2018-12-27T14:02:40Z</time>
      </trkpt>
      <trkpt lat="42.79206" lon="-0.35836">
        <ele>1934.2</ele>
        <time>2018-12-27T14:02:40Z</time>
      </trkpt>
      <trkpt lat="42.79198" lon="-0.35833">
        <ele>1932.6</ele>
        <time>2018-12-27T14:02:43Z</time>
      </trkpt>
      <trkpt lat="42.79195" lon="-0.35832">
        <ele>1932.1</ele>
        <time>2018-12-27T14:02:43Z</time>
      </trkpt>
      <trkpt lat="42.7919" lon="-0.35831">
        <ele>1930.7</ele>
        <time>2018-12-27T14:02:45Z</time>
      </trkpt>
      <trkpt lat="42.79188" lon="-0.35831">
        <ele>1930.3</ele>
        <time>2018-12-27T14:02:45Z</time>
      </trkpt>
      <trkpt lat="42.79181" lon="-0.3583">
        <ele>1928.9</ele>
        <time>2018-12-27T14:02:47Z</time>
      </trkpt>
      <trkpt lat="42.79179" lon="-0.3583">
        <ele>1928.3</ele>
        <time>2018-12-27T14:02:48Z</time>
      </trkpt>
      <trkpt lat="42.79174" lon="-0.35825">
        <ele>1927.1</ele>
        <time>2018-12-27T14:02:49Z</time>
      </trkpt>
      <trkpt lat="42.79164" lon="-0.35824">
        <ele>1924.8</ele>
        <time>2018-12-27T14:02:52Z</time>
      </trkpt>
      <trkpt lat="42.79154" lon="-0.3582">
        <ele>1922.5</ele>
        <time>2018-12-27T14:02:55Z</time>
      </trkpt>
      <trkpt lat="42.79146" lon="-0.35814">
        <ele>1920.6</ele>
        <time>2018-12-27T14:02:57Z</time>
      </trkpt>
      <trkpt lat="42.7914" lon="-0.35822">
        <ele>1918.8</ele>
        <time>2018-12-27T14:02:59Z</time>
      </trkpt>
      <trkpt lat="42.79137" lon="-0.35824">
        <ele>1918.1</ele>
        <time>2018-12-27T14:03:00Z</time>
      </trkpt>
      <trkpt lat="42.79133" lon="-0.35825">
        <ele>1917</ele>
        <time>2018-12-27T14:03:01Z</time>
      </trkpt>
      <trkpt lat="42.7913" lon="-0.35827">
        <ele>1916.3</ele>
        <time>2018-12-27T14:03:02Z</time>
      </trkpt>
      <trkpt lat="42.79126" lon="-0.35829">
        <ele>1915.2</ele>
        <time>2018-12-27T14:03:03Z</time>
      </trkpt>
      <trkpt lat="42.79125" lon="-0.35826">
        <ele>1915.1</ele>
        <time>2018-12-27T14:03:04Z</time>
      </trkpt>
      <trkpt lat="42.79124" lon="-0.35822">
        <ele>1914.5</ele>
        <time>2018-12-27T14:03:05Z</time>
      </trkpt>
      <trkpt lat="42.79122" lon="-0.35825">
        <ele>1914.1</ele>
        <time>2018-12-27T14:03:06Z</time>
      </trkpt>
      <trkpt lat="42.79116" lon="-0.35828">
        <ele>1912.3</ele>
        <time>2018-12-27T14:03:07Z</time>
      </trkpt>
      <trkpt lat="42.7911" lon="-0.35827">
        <ele>1910.2</ele>
        <time>2018-12-27T14:03:09Z</time>
      </trkpt>
      <trkpt lat="42.79106" lon="-0.35827">
        <ele>1909</ele>
        <time>2018-12-27T14:03:10Z</time>
      </trkpt>
      <trkpt lat="42.79103" lon="-0.35827">
        <ele>1908</ele>
        <time>2018-12-27T14:03:11Z</time>
      </trkpt>
      <trkpt lat="42.791" lon="-0.35829">
        <ele>1907</ele>
        <time>2018-12-27T14:03:12Z</time>
      </trkpt>
      <trkpt lat="42.79097" lon="-0.35832">
        <ele>1906.3</ele>
        <time>2018-12-27T14:03:13Z</time>
      </trkpt>
      <trkpt lat="42.79095" lon="-0.35833">
        <ele>1905.3</ele>
        <time>2018-12-27T14:03:13Z</time>
      </trkpt>
      <trkpt lat="42.79091" lon="-0.35832">
        <ele>1904.3</ele>
        <time>2018-12-27T14:03:14Z</time>
      </trkpt>
      <trkpt lat="42.79087" lon="-0.35826">
        <ele>1902.9</ele>
        <time>2018-12-27T14:03:16Z</time>
      </trkpt>
      <trkpt lat="42.7908" lon="-0.35827">
        <ele>1900.7</ele>
        <time>2018-12-27T14:03:18Z</time>
      </trkpt>
      <trkpt lat="42.79073" lon="-0.35828">
        <ele>1898.5</ele>
        <time>2018-12-27T14:03:20Z</time>
      </trkpt>
      <trkpt lat="42.79071" lon="-0.35829">
        <ele>1897.9</ele>
        <time>2018-12-27T14:03:20Z</time>
      </trkpt>
      <trkpt lat="42.79068" lon="-0.3583">
        <ele>1897.2</ele>
        <time>2018-12-27T14:03:21Z</time>
      </trkpt>
      <trkpt lat="42.79057" lon="-0.35833">
        <ele>1893.3</ele>
        <time>2018-12-27T14:03:24Z</time>
      </trkpt>
      <trkpt lat="42.79046" lon="-0.35837">
        <ele>1889.7</ele>
        <time>2018-12-27T14:03:27Z</time>
      </trkpt>
      <trkpt lat="42.79036" lon="-0.35841">
        <ele>1886.5</ele>
        <time>2018-12-27T14:03:30Z</time>
      </trkpt>
      <trkpt lat="42.79026" lon="-0.35845">
        <ele>1883.5</ele>
        <time>2018-12-27T14:03:33Z</time>
      </trkpt>
      <trkpt lat="42.79017" lon="-0.35851">
        <ele>1880.6</ele>
        <time>2018-12-27T14:03:36Z</time>
      </trkpt>
      <trkpt lat="42.79008" lon="-0.35848">
        <ele>1878.1</ele>
        <time>2018-12-27T14:03:38Z</time>
      </trkpt>
      <trkpt lat="42.78997" lon="-0.35844">
        <ele>1875.1</ele>
        <time>2018-12-27T14:03:41Z</time>
      </trkpt>
      <trkpt lat="42.78993" lon="-0.35837">
        <ele>1874.6</ele>
        <time>2018-12-27T14:03:43Z</time>
      </trkpt>
      <trkpt lat="42.78993" lon="-0.35834">
        <ele>1874.7</ele>
        <time>2018-12-27T14:03:43Z</time>
      </trkpt>
      <trkpt lat="42.78991" lon="-0.35829">
        <ele>1874.6</ele>
        <time>2018-12-27T14:03:44Z</time>
      </trkpt>
      <trkpt lat="42.78989" lon="-0.35828">
        <ele>1874.1</ele>
        <time>2018-12-27T14:03:45Z</time>
      </trkpt>
      <trkpt lat="42.78984" lon="-0.3582">
        <ele>1873.3</ele>
        <time>2018-12-27T14:03:47Z</time>
      </trkpt>
      <trkpt lat="42.78981" lon="-0.35817">
        <ele>1872.5</ele>
        <time>2018-12-27T14:03:48Z</time>
      </trkpt>
      <trkpt lat="42.78977" lon="-0.35818">
        <ele>1871.6</ele>
        <time>2018-12-27T14:03:49Z</time>
      </trkpt>
      <trkpt lat="42.78963" lon="-0.3582">
        <ele>1867.7</ele>
        <time>2018-12-27T14:03:53Z</time>
      </trkpt>
      <trkpt lat="42.7895" lon="-0.35825">
        <ele>1864.4</ele>
        <time>2018-12-27T14:03:56Z</time>
      </trkpt>
      <trkpt lat="42.78943" lon="-0.35826">
        <ele>1862.6</ele>
        <time>2018-12-27T14:03:58Z</time>
      </trkpt>
      <trkpt lat="42.78941" lon="-0.35827">
        <ele>1862.2</ele>
        <time>2018-12-27T14:03:59Z</time>
      </trkpt>
      <trkpt lat="42.78935" lon="-0.35832">
        <ele>1860.5</ele>
        <time>2018-12-27T14:04:01Z</time>
      </trkpt>
      <trkpt lat="42.78936" lon="-0.35837">
        <ele>1860.3</ele>
        <time>2018-12-27T14:04:02Z</time>
      </trkpt>
      <trkpt lat="42.78938" lon="-0.35841">
        <ele>1860.2</ele>
        <time>2018-12-27T14:04:03Z</time>
      </trkpt>
      <trkpt lat="42.78937" lon="-0.35843">
        <ele>1859.8</ele>
        <time>2018-12-27T14:04:03Z</time>
      </trkpt>
      <trkpt lat="42.78934" lon="-0.35846">
        <ele>1859</ele>
        <time>2018-12-27T14:04:04Z</time>
      </trkpt>
      <trkpt lat="42.78929" lon="-0.35858">
        <ele>1856.7</ele>
        <time>2018-12-27T14:04:07Z</time>
      </trkpt>
      <trkpt lat="42.78922" lon="-0.35867">
        <ele>1854.5</ele>
        <time>2018-12-27T14:04:09Z</time>
      </trkpt>
      <trkpt lat="42.78921" lon="-0.35869">
        <ele>1854.1</ele>
        <time>2018-12-27T14:04:10Z</time>
      </trkpt>
      <trkpt lat="42.78914" lon="-0.35878">
        <ele>1851.9</ele>
        <time>2018-12-27T14:04:12Z</time>
      </trkpt>
      <trkpt lat="42.78908" lon="-0.35893">
        <ele>1851</ele>
        <time>2018-12-27T14:04:16Z</time>
      </trkpt>
      <trkpt lat="42.78907" lon="-0.35896">
        <ele>1850.9</ele>
        <time>2018-12-27T14:04:16Z</time>
      </trkpt>
      <trkpt lat="42.78898" lon="-0.35905">
        <ele>1849.3</ele>
        <time>2018-12-27T14:04:19Z</time>
      </trkpt>
      <trkpt lat="42.78897" lon="-0.35908">
        <ele>1849</ele>
        <time>2018-12-27T14:04:20Z</time>
      </trkpt>
      <trkpt lat="42.78894" lon="-0.35916">
        <ele>1848.5</ele>
        <time>2018-12-27T14:04:22Z</time>
      </trkpt>
      <trkpt lat="42.78889" lon="-0.35936">
        <ele>1847.8</ele>
        <time>2018-12-27T14:04:26Z</time>
      </trkpt>
      <trkpt lat="42.7888" lon="-0.3595">
        <ele>1846.1</ele>
        <time>2018-12-27T14:04:29Z</time>
      </trkpt>
      <trkpt lat="42.78875" lon="-0.35955">
        <ele>1845</ele>
        <time>2018-12-27T14:04:31Z</time>
      </trkpt>
      <trkpt lat="42.78871" lon="-0.35958">
        <ele>1844.4</ele>
        <time>2018-12-27T14:04:32Z</time>
      </trkpt>
      <trkpt lat="42.78863" lon="-0.35963">
        <ele>1843.5</ele>
        <time>2018-12-27T14:04:35Z</time>
      </trkpt>
      <trkpt lat="42.78859" lon="-0.35963">
        <ele>1842.6</ele>
        <time>2018-12-27T14:04:36Z</time>
      </trkpt>
      <trkpt lat="42.78853" lon="-0.35966">
        <ele>1842</ele>
        <time>2018-12-27T14:04:38Z</time>
      </trkpt>
      <trkpt lat="42.78848" lon="-0.35975">
        <ele>1841.8</ele>
        <time>2018-12-27T14:04:40Z</time>
      </trkpt>
      <trkpt lat="42.78838" lon="-0.35981">
        <ele>1840.4</ele>
        <time>2018-12-27T14:04:43Z</time>
      </trkpt>
      <trkpt lat="42.78836" lon="-0.35981">
        <ele>1840</ele>
        <time>2018-12-27T14:04:43Z</time>
      </trkpt>
      <trkpt lat="42.78834" lon="-0.35979">
        <ele>1839.5</ele>
        <time>2018-12-27T14:04:44Z</time>
      </trkpt>
      <trkpt lat="42.78822" lon="-0.3597">
        <ele>1836.6</ele>
        <time>2018-12-27T14:04:47Z</time>
      </trkpt>
      <trkpt lat="42.78809" lon="-0.35964">
        <ele>1834.1</ele>
        <time>2018-12-27T14:04:51Z</time>
      </trkpt>
      <trkpt lat="42.78798" lon="-0.35954">
        <ele>1832.3</ele>
        <time>2018-12-27T14:04:55Z</time>
      </trkpt>
      <trkpt lat="42.78796" lon="-0.35954">
        <ele>1831.8</ele>
        <time>2018-12-27T14:04:55Z</time>
      </trkpt>
      <trkpt lat="42.7879" lon="-0.35952">
        <ele>1830.8</ele>
        <time>2018-12-27T14:04:57Z</time>
      </trkpt>
      <trkpt lat="42.78781" lon="-0.35946">
        <ele>1829.3</ele>
        <time>2018-12-27T14:04:59Z</time>
      </trkpt>
      <trkpt lat="42.78774" lon="-0.35939">
        <ele>1828</ele>
        <time>2018-12-27T14:05:02Z</time>
      </trkpt>
      <trkpt lat="42.78764" lon="-0.35932">
        <ele>1826</ele>
        <time>2018-12-27T14:05:05Z</time>
      </trkpt>
      <trkpt lat="42.78756" lon="-0.35931">
        <ele>1824.4</ele>
        <time>2018-12-27T14:05:07Z</time>
      </trkpt>
      <trkpt lat="42.78754" lon="-0.35929">
        <ele>1824.1</ele>
        <time>2018-12-27T14:05:08Z</time>
      </trkpt>
      <trkpt lat="42.78743" lon="-0.35925">
        <ele>1822</ele>
        <time>2018-12-27T14:05:10Z</time>
      </trkpt>
      <trkpt lat="42.78741" lon="-0.35925">
        <ele>1821.3</ele>
        <time>2018-12-27T14:05:11Z</time>
      </trkpt>
      <trkpt lat="42.7873" lon="-0.35919">
        <ele>1819.1</ele>
        <time>2018-12-27T14:05:14Z</time>
      </trkpt>
      <trkpt lat="42.78715" lon="-0.35915">
        <ele>1816</ele>
        <time>2018-12-27T14:05:18Z</time>
      </trkpt>
      <trkpt lat="42.78702" lon="-0.35908">
        <ele>1813.7</ele>
        <time>2018-12-27T14:05:22Z</time>
      </trkpt>
      <trkpt lat="42.7869" lon="-0.35898">
        <ele>1812.1</ele>
        <time>2018-12-27T14:05:26Z</time>
      </trkpt>
      <trkpt lat="42.78688" lon="-0.35886">
        <ele>1811.7</ele>
        <time>2018-12-27T14:05:28Z</time>
      </trkpt>
      <trkpt lat="42.78688" lon="-0.35883">
        <ele>1811.8</ele>
        <time>2018-12-27T14:05:29Z</time>
      </trkpt>
      <trkpt lat="42.78689" lon="-0.35872">
        <ele>1812.4</ele>
        <time>2018-12-27T14:05:31Z</time>
      </trkpt>
      <trkpt lat="42.78684" lon="-0.35861">
        <ele>1812.8</ele>
        <time>2018-12-27T14:05:34Z</time>
      </trkpt>
      <trkpt lat="42.78678" lon="-0.35854">
        <ele>1812.2</ele>
        <time>2018-12-27T14:05:36Z</time>
      </trkpt>
      <trkpt lat="42.78674" lon="-0.35851">
        <ele>1811.6</ele>
        <time>2018-12-27T14:05:37Z</time>
      </trkpt>
      <trkpt lat="42.78664" lon="-0.35845">
        <ele>1809.7</ele>
        <time>2018-12-27T14:05:40Z</time>
      </trkpt>
      <trkpt lat="42.78652" lon="-0.35841">
        <ele>1807</ele>
        <time>2018-12-27T14:05:43Z</time>
      </trkpt>
      <trkpt lat="42.78639" lon="-0.35831">
        <ele>1803.8</ele>
        <time>2018-12-27T14:05:47Z</time>
      </trkpt>
      <trkpt lat="42.78629" lon="-0.35822">
        <ele>1800.5</ele>
        <time>2018-12-27T14:05:50Z</time>
      </trkpt>
      <trkpt lat="42.78616" lon="-0.35816">
        <ele>1796.3</ele>
        <time>2018-12-27T14:05:54Z</time>
      </trkpt>
      <trkpt lat="42.78603" lon="-0.3582">
        <ele>1792.1</ele>
        <time>2018-12-27T14:05:57Z</time>
      </trkpt>
      <trkpt lat="42.78589" lon="-0.35817">
        <ele>1787.2</ele>
        <time>2018-12-27T14:06:01Z</time>
      </trkpt>
      <trkpt lat="42.78586" lon="-0.35818">
        <ele>1786.6</ele>
        <time>2018-12-27T14:06:02Z</time>
      </trkpt>
      <trkpt lat="42.78579" lon="-0.35819">
        <ele>1784.1</ele>
        <time>2018-12-27T14:06:04Z</time>
      </trkpt>
      <trkpt lat="42.78572" lon="-0.35815">
        <ele>1781.5</ele>
        <time>2018-12-27T14:06:06Z</time>
      </trkpt>
      <trkpt lat="42.78566" lon="-0.35821">
        <ele>1780.3</ele>
        <time>2018-12-27T14:06:08Z</time>
      </trkpt>
      <trkpt lat="42.78562" lon="-0.35826">
        <ele>1779.2</ele>
        <time>2018-12-27T14:06:09Z</time>
      </trkpt>
      <trkpt lat="42.7856" lon="-0.35826">
        <ele>1778.6</ele>
        <time>2018-12-27T14:06:10Z</time>
      </trkpt>
      <trkpt lat="42.78558" lon="-0.35827">
        <ele>1778.3</ele>
        <time>2018-12-27T14:06:10Z</time>
      </trkpt>
      <trkpt lat="42.78552" lon="-0.35828">
        <ele>1776.2</ele>
        <time>2018-12-27T14:06:12Z</time>
      </trkpt>
      <trkpt lat="42.78545" lon="-0.35829">
        <ele>1774.1</ele>
        <time>2018-12-27T14:06:14Z</time>
      </trkpt>
      <trkpt lat="42.78543" lon="-0.3583">
        <ele>1773.7</ele>
        <time>2018-12-27T14:06:14Z</time>
      </trkpt>
      <trkpt lat="42.78539" lon="-0.35833">
        <ele>1772.2</ele>
        <time>2018-12-27T14:06:16Z</time>
      </trkpt>
      <trkpt lat="42.78533" lon="-0.35833">
        <ele>1769.7</ele>
        <time>2018-12-27T14:06:17Z</time>
      </trkpt>
      <trkpt lat="42.78529" lon="-0.35829">
        <ele>1767.9</ele>
        <time>2018-12-27T14:06:18Z</time>
      </trkpt>
      <trkpt lat="42.78525" lon="-0.3583">
        <ele>1766.2</ele>
        <time>2018-12-27T14:06:19Z</time>
      </trkpt>
      <trkpt lat="42.7852" lon="-0.35831">
        <ele>1763.9</ele>
        <time>2018-12-27T14:06:21Z</time>
      </trkpt>
      <trkpt lat="42.78519" lon="-0.35831">
        <ele>1763.4</ele>
        <time>2018-12-27T14:06:21Z</time>
      </trkpt>
      <trkpt lat="42.78514" lon="-0.3583">
        <ele>1761.4</ele>
        <time>2018-12-27T14:06:23Z</time>
      </trkpt>
      <trkpt lat="42.78512" lon="-0.35828">
        <ele>1760.2</ele>
        <time>2018-12-27T14:06:23Z</time>
      </trkpt>
      <trkpt lat="42.78509" lon="-0.35827">
        <ele>1758.8</ele>
        <time>2018-12-27T14:06:24Z</time>
      </trkpt>
      <trkpt lat="42.78508" lon="-0.35826">
        <ele>1758.4</ele>
        <time>2018-12-27T14:06:24Z</time>
      </trkpt>
      <trkpt lat="42.78511" lon="-0.35821">
        <ele>1759</ele>
        <time>2018-12-27T14:06:26Z</time>
      </trkpt>
      <trkpt lat="42.78509" lon="-0.35817">
        <ele>1757.6</ele>
        <time>2018-12-27T14:06:27Z</time>
      </trkpt>
      <trkpt lat="42.78507" lon="-0.35811">
        <ele>1756</ele>
        <time>2018-12-27T14:06:28Z</time>
      </trkpt>
      <trkpt lat="42.78503" lon="-0.35805">
        <ele>1753.7</ele>
        <time>2018-12-27T14:06:30Z</time>
      </trkpt>
      <trkpt lat="42.78497" lon="-0.35806">
        <ele>1751.6</ele>
        <time>2018-12-27T14:06:31Z</time>
      </trkpt>
      <trkpt lat="42.78495" lon="-0.35804">
        <ele>1750.3</ele>
        <time>2018-12-27T14:06:32Z</time>
      </trkpt>
      <trkpt lat="42.78494" lon="-0.35802">
        <ele>1749.9</ele>
        <time>2018-12-27T14:06:32Z</time>
      </trkpt>
      <trkpt lat="42.78492" lon="-0.358">
        <ele>1748.7</ele>
        <time>2018-12-27T14:06:33Z</time>
      </trkpt>
      <trkpt lat="42.78489" lon="-0.35795">
        <ele>1746.8</ele>
        <time>2018-12-27T14:06:34Z</time>
      </trkpt>
      <trkpt lat="42.78487" lon="-0.35795">
        <ele>1746</ele>
        <time>2018-12-27T14:06:35Z</time>
      </trkpt>
      <trkpt lat="42.78482" lon="-0.35792">
        <ele>1743.1</ele>
        <time>2018-12-27T14:06:36Z</time>
      </trkpt>
      <trkpt lat="42.78481" lon="-0.3579">
        <ele>1742.5</ele>
        <time>2018-12-27T14:06:37Z</time>
      </trkpt>
      <trkpt lat="42.78482" lon="-0.35783">
        <ele>1741.8</ele>
        <time>2018-12-27T14:06:38Z</time>
      </trkpt>
      <trkpt lat="42.78482" lon="-0.35781">
        <ele>1741.5</ele>
        <time>2018-12-27T14:06:38Z</time>
      </trkpt>
      <trkpt lat="42.78477" lon="-0.3578">
        <ele>1739.2</ele>
        <time>2018-12-27T14:06:40Z</time>
      </trkpt>
      <trkpt lat="42.78476" lon="-0.3578">
        <ele>1738.5</ele>
        <time>2018-12-27T14:06:40Z</time>
      </trkpt>
      <trkpt lat="42.78472" lon="-0.35782">
        <ele>1737.4</ele>
        <time>2018-12-27T14:06:41Z</time>
      </trkpt>
      <trkpt lat="42.7847" lon="-0.35786">
        <ele>1737.2</ele>
        <time>2018-12-27T14:06:42Z</time>
      </trkpt>
      <trkpt lat="42.78465" lon="-0.35786">
        <ele>1734.9</ele>
        <time>2018-12-27T14:06:44Z</time>
      </trkpt>
      <trkpt lat="42.78459" lon="-0.35784">
        <ele>1732.2</ele>
        <time>2018-12-27T14:06:45Z</time>
      </trkpt>
      <trkpt lat="42.78456" lon="-0.35784">
        <ele>1730.9</ele>
        <time>2018-12-27T14:06:46Z</time>
      </trkpt>
      <trkpt lat="42.78455" lon="-0.35785">
        <ele>1730.4</ele>
        <time>2018-12-27T14:06:46Z</time>
      </trkpt>
      <trkpt lat="42.78451" lon="-0.35786">
        <ele>1729</ele>
        <time>2018-12-27T14:06:47Z</time>
      </trkpt>
      <trkpt lat="42.7845" lon="-0.35785">
        <ele>1728.6</ele>
        <time>2018-12-27T14:06:48Z</time>
      </trkpt>
      <trkpt lat="42.78449" lon="-0.35782">
        <ele>1727.7</ele>
        <time>2018-12-27T14:06:48Z</time>
      </trkpt>
      <trkpt lat="42.78446" lon="-0.35778">
        <ele>1725.9</ele>
        <time>2018-12-27T14:06:49Z</time>
      </trkpt>
      <trkpt lat="42.78442" lon="-0.35775">
        <ele>1723.6</ele>
        <time>2018-12-27T14:06:51Z</time>
      </trkpt>
      <trkpt lat="42.78438" lon="-0.35771">
        <ele>1721.5</ele>
        <time>2018-12-27T14:06:52Z</time>
      </trkpt>
      <trkpt lat="42.78431" lon="-0.3577">
        <ele>1718.8</ele>
        <time>2018-12-27T14:06:54Z</time>
      </trkpt>
      <trkpt lat="42.78428" lon="-0.35768">
        <ele>1717</ele>
        <time>2018-12-27T14:06:55Z</time>
      </trkpt>
      <trkpt lat="42.78426" lon="-0.35769">
        <ele>1716.4</ele>
        <time>2018-12-27T14:06:55Z</time>
      </trkpt>
      <trkpt lat="42.78425" lon="-0.35768">
        <ele>1715.7</ele>
        <time>2018-12-27T14:06:56Z</time>
      </trkpt>
      <trkpt lat="42.78423" lon="-0.35764">
        <ele>1714.5</ele>
        <time>2018-12-27T14:06:57Z</time>
      </trkpt>
      <trkpt lat="42.78423" lon="-0.35757">
        <ele>1713.9</ele>
        <time>2018-12-27T14:06:58Z</time>
      </trkpt>
      <trkpt lat="42.7842" lon="-0.35752">
        <ele>1712.1</ele>
        <time>2018-12-27T14:06:59Z</time>
      </trkpt>
      <trkpt lat="42.78412" lon="-0.35743">
        <ele>1708.2</ele>
        <time>2018-12-27T14:07:02Z</time>
      </trkpt>
      <trkpt lat="42.78411" lon="-0.3574">
        <ele>1707.7</ele>
        <time>2018-12-27T14:07:03Z</time>
      </trkpt>
      <trkpt lat="42.7841" lon="-0.35737">
        <ele>1707</ele>
        <time>2018-12-27T14:07:03Z</time>
      </trkpt>
      <trkpt lat="42.78408" lon="-0.35732">
        <ele>1705.8</ele>
        <time>2018-12-27T14:07:04Z</time>
      </trkpt>
      <trkpt lat="42.78402" lon="-0.35726">
        <ele>1703.3</ele>
        <time>2018-12-27T14:07:06Z</time>
      </trkpt>
      <trkpt lat="42.78397" lon="-0.35721">
        <ele>1701.1</ele>
        <time>2018-12-27T14:07:08Z</time>
      </trkpt>
      <trkpt lat="42.78395" lon="-0.3572">
        <ele>1700.3</ele>
        <time>2018-12-27T14:07:09Z</time>
      </trkpt>
      <trkpt lat="42.78384" lon="-0.35717">
        <ele>1696.7</ele>
        <time>2018-12-27T14:07:11Z</time>
      </trkpt>
      <trkpt lat="42.78377" lon="-0.35713">
        <ele>1693.7</ele>
        <time>2018-12-27T14:07:14Z</time>
      </trkpt>
      <trkpt lat="42.78375" lon="-0.35712">
        <ele>1693.1</ele>
        <time>2018-12-27T14:07:14Z</time>
      </trkpt>
      <trkpt lat="42.78373" lon="-0.3571">
        <ele>1692.5</ele>
        <time>2018-12-27T14:07:15Z</time>
      </trkpt>
      <trkpt lat="42.78366" lon="-0.35711">
        <ele>1691.1</ele>
        <time>2018-12-27T14:07:17Z</time>
      </trkpt>
      <trkpt lat="42.78358" lon="-0.35723">
        <ele>1689.9</ele>
        <time>2018-12-27T14:07:20Z</time>
      </trkpt>
      <trkpt lat="42.78357" lon="-0.35741">
        <ele>1690.3</ele>
        <time>2018-12-27T14:07:23Z</time>
      </trkpt>
      <trkpt lat="42.78353" lon="-0.35763">
        <ele>1690.5</ele>
        <time>2018-12-27T14:07:28Z</time>
      </trkpt>
      <trkpt lat="42.78351" lon="-0.35777">
        <ele>1690.7</ele>
        <time>2018-12-27T14:07:31Z</time>
      </trkpt>
      <trkpt lat="42.7835" lon="-0.35787">
        <ele>1691</ele>
        <time>2018-12-27T14:07:33Z</time>
      </trkpt>
      <trkpt lat="42.78349" lon="-0.35794">
        <ele>1690.9</ele>
        <time>2018-12-27T14:07:34Z</time>
      </trkpt>
      <trkpt lat="42.78342" lon="-0.35801">
        <ele>1689.9</ele>
        <time>2018-12-27T14:07:36Z</time>
      </trkpt>
      <trkpt lat="42.7834" lon="-0.35801">
        <ele>1689.3</ele>
        <time>2018-12-27T14:07:37Z</time>
      </trkpt>
      <trkpt lat="42.78332" lon="-0.35806">
        <ele>1687.9</ele>
        <time>2018-12-27T14:07:39Z</time>
      </trkpt>
      <trkpt lat="42.7833" lon="-0.35807">
        <ele>1687.6</ele>
        <time>2018-12-27T14:07:40Z</time>
      </trkpt>
      <trkpt lat="42.78323" lon="-0.35811">
        <ele>1686.1</ele>
        <time>2018-12-27T14:07:42Z</time>
      </trkpt>
      <trkpt lat="42.78319" lon="-0.35815">
        <ele>1685.4</ele>
        <time>2018-12-27T14:07:43Z</time>
      </trkpt>
      <trkpt lat="42.78313" lon="-0.3582">
        <ele>1684.4</ele>
        <time>2018-12-27T14:07:45Z</time>
      </trkpt>
      <trkpt lat="42.78302" lon="-0.35829">
        <ele>1682.4</ele>
        <time>2018-12-27T14:07:48Z</time>
      </trkpt>
      <trkpt lat="42.78301" lon="-0.35829">
        <ele>1682</ele>
        <time>2018-12-27T14:07:49Z</time>
      </trkpt>
      <trkpt lat="42.78296" lon="-0.35823">
        <ele>1680.3</ele>
        <time>2018-12-27T14:07:50Z</time>
      </trkpt>
      <trkpt lat="42.78285" lon="-0.35822">
        <ele>1677.8</ele>
        <time>2018-12-27T14:07:53Z</time>
      </trkpt>
      <trkpt lat="42.78274" lon="-0.35827">
        <ele>1675.8</ele>
        <time>2018-12-27T14:07:56Z</time>
      </trkpt>
      <trkpt lat="42.7826" lon="-0.35836">
        <ele>1673.3</ele>
        <time>2018-12-27T14:08:01Z</time>
      </trkpt>
      <trkpt lat="42.78249" lon="-0.35844">
        <ele>1671.3</ele>
        <time>2018-12-27T14:08:04Z</time>
      </trkpt>
      <trkpt lat="42.78237" lon="-0.35852">
        <ele>1669</ele>
        <time>2018-12-27T14:08:07Z</time>
      </trkpt>
      <trkpt lat="42.78224" lon="-0.35861">
        <ele>1666.3</ele>
        <time>2018-12-27T14:08:11Z</time>
      </trkpt>
      <trkpt lat="42.78212" lon="-0.35856">
        <ele>1663.5</ele>
        <time>2018-12-27T14:08:15Z</time>
      </trkpt>
      <trkpt lat="42.78199" lon="-0.35849">
        <ele>1660.3</ele>
        <time>2018-12-27T14:08:18Z</time>
      </trkpt>
      <trkpt lat="42.78186" lon="-0.35844">
        <ele>1657</ele>
        <time>2018-12-27T14:08:22Z</time>
      </trkpt>
      <trkpt lat="42.78171" lon="-0.35837">
        <ele>1653.6</ele>
        <time>2018-12-27T14:08:26Z</time>
      </trkpt>
      <trkpt lat="42.78159" lon="-0.35834">
        <ele>1651</ele>
        <time>2018-12-27T14:08:30Z</time>
      </trkpt>
      <trkpt lat="42.78143" lon="-0.35836">
        <ele>1647.6</ele>
        <time>2018-12-27T14:08:34Z</time>
      </trkpt>
      <trkpt lat="42.78129" lon="-0.35837">
        <ele>1644.3</ele>
        <time>2018-12-27T14:08:37Z</time>
      </trkpt>
      <trkpt lat="42.78114" lon="-0.35842">
        <ele>1641</ele>
        <time>2018-12-27T14:08:42Z</time>
      </trkpt>
      <trkpt lat="42.78101" lon="-0.35846">
        <ele>1638.1</ele>
        <time>2018-12-27T14:08:45Z</time>
      </trkpt>
      <trkpt lat="42.78091" lon="-0.3584">
        <ele>1636.1</ele>
        <time>2018-12-27T14:08:48Z</time>
      </trkpt>
      <trkpt lat="42.78085" lon="-0.35832">
        <ele>1635.2</ele>
        <time>2018-12-27T14:08:50Z</time>
      </trkpt>
      <trkpt lat="42.78085" lon="-0.35829">
        <ele>1635.3</ele>
        <time>2018-12-27T14:08:51Z</time>
      </trkpt>
      <trkpt lat="42.78086" lon="-0.35819">
        <ele>1635.7</ele>
        <time>2018-12-27T14:08:53Z</time>
      </trkpt>
      <trkpt lat="42.78086" lon="-0.35801">
        <ele>1636.4</ele>
        <time>2018-12-27T14:08:57Z</time>
      </trkpt>
      <trkpt lat="42.77383" lon="-0.36801">
        <ele>1495.6</ele>
        <time>2018-12-27T15:16:17Z</time>
      </trkpt>
      <trkpt lat="42.77383" lon="-0.36801">
        <ele>1495.5</ele>
        <time>2018-12-27T15:16:17Z</time>
      </trkpt>
      <trkpt lat="42.77383" lon="-0.36801">
        <ele>1493.6</ele>
        <time>2018-12-27T15:16:17Z</time>
      </trkpt>
      <trkpt lat="42.77383" lon="-0.36801">
        <ele>1498.3</ele>
        <time>2018-12-27T15:16:17Z</time>
      </trkpt>
      <trkpt lat="42.77383" lon="-0.36801">
        <ele>1496.1</ele>
        <time>2018-12-27T15:16:17Z</time>
      </trkpt>
      <trkpt lat="42.77382" lon="-0.368">
        <ele>1496.5</ele>
        <time>2018-12-27T15:16:17Z</time>
      </trkpt>
      <trkpt lat="42.77382" lon="-0.368">
        <ele>1496.5</ele>
        <time>2018-12-27T15:16:17Z</time>
      </trkpt>
      <trkpt lat="42.77383" lon="-0.36798">
        <ele>1497.5</ele>
        <time>2018-12-27T15:16:17Z</time>
      </trkpt>
      <trkpt lat="42.77383" lon="-0.36797">
        <ele>1496.5</ele>
        <time>2018-12-27T15:16:18Z</time>
      </trkpt>
      <trkpt lat="42.77385" lon="-0.36797">
        <ele>1497</ele>
        <time>2018-12-27T15:16:18Z</time>
      </trkpt>
      <trkpt lat="42.77384" lon="-0.36798">
        <ele>1496.4</ele>
        <time>2018-12-27T15:16:18Z</time>
      </trkpt>
      <trkpt lat="42.77387" lon="-0.36797">
        <ele>1496.5</ele>
        <time>2018-12-27T15:16:19Z</time>
      </trkpt>
      <trkpt lat="42.77388" lon="-0.368">
        <ele>1496.4</ele>
        <time>2018-12-27T15:16:20Z</time>
      </trkpt>
      <trkpt lat="42.7739" lon="-0.36803">
        <ele>1496.9</ele>
        <time>2018-12-27T15:16:20Z</time>
      </trkpt>
      <trkpt lat="42.77393" lon="-0.36805">
        <ele>1495.5</ele>
        <time>2018-12-27T15:16:22Z</time>
      </trkpt>
      <trkpt lat="42.77393" lon="-0.36804">
        <ele>1496.1</ele>
        <time>2018-12-27T15:16:22Z</time>
      </trkpt>
      <trkpt lat="42.77391" lon="-0.36802">
        <ele>1497.4</ele>
        <time>2018-12-27T15:16:22Z</time>
      </trkpt>
      <trkpt lat="42.77395" lon="-0.36812">
        <ele>1496.9</ele>
        <time>2018-12-27T15:16:25Z</time>
      </trkpt>
      <trkpt lat="42.77405" lon="-0.3682">
        <ele>1496.4</ele>
        <time>2018-12-27T15:16:28Z</time>
      </trkpt>
      <trkpt lat="42.77415" lon="-0.36829">
        <ele>1496.5</ele>
        <time>2018-12-27T15:16:31Z</time>
      </trkpt>
      <trkpt lat="42.77422" lon="-0.36833">
        <ele>1497</ele>
        <time>2018-12-27T15:16:33Z</time>
      </trkpt>
      <trkpt lat="42.77431" lon="-0.3684">
        <ele>1497</ele>
        <time>2018-12-27T15:16:36Z</time>
      </trkpt>
      <trkpt lat="42.77435" lon="-0.36846">
        <ele>1496.4</ele>
        <time>2018-12-27T15:16:37Z</time>
      </trkpt>
      <trkpt lat="42.77443" lon="-0.36855">
        <ele>1497</ele>
        <time>2018-12-27T15:16:40Z</time>
      </trkpt>
      <trkpt lat="42.77452" lon="-0.36863">
        <ele>1496.9</ele>
        <time>2018-12-27T15:16:43Z</time>
      </trkpt>
      <trkpt lat="42.7746" lon="-0.36872">
        <ele>1496.4</ele>
        <time>2018-12-27T15:16:46Z</time>
      </trkpt>
      <trkpt lat="42.7746" lon="-0.36872">
        <ele>1496.5</ele>
        <time>2018-12-27T15:16:46Z</time>
      </trkpt>
      <trkpt lat="42.77465" lon="-0.36878">
        <ele>1497</ele>
        <time>2018-12-27T15:16:47Z</time>
      </trkpt>
      <trkpt lat="42.7747" lon="-0.36898">
        <ele>1496.1</ele>
        <time>2018-12-27T15:16:51Z</time>
      </trkpt>
      <trkpt lat="42.77469" lon="-0.36914">
        <ele>1495.6</ele>
        <time>2018-12-27T15:16:55Z</time>
      </trkpt>
      <trkpt lat="42.77466" lon="-0.3693">
        <ele>1496.1</ele>
        <time>2018-12-27T15:16:58Z</time>
      </trkpt>
      <trkpt lat="42.77466" lon="-0.36948">
        <ele>1496.5</ele>
        <time>2018-12-27T15:17:01Z</time>
      </trkpt>
      <trkpt lat="42.77467" lon="-0.36966">
        <ele>1497</ele>
        <time>2018-12-27T15:17:05Z</time>
      </trkpt>
      <trkpt lat="42.77468" lon="-0.36988">
        <ele>1498</ele>
        <time>2018-12-27T15:17:09Z</time>
      </trkpt>
      <trkpt lat="42.77469" lon="-0.3701">
        <ele>1498.4</ele>
        <time>2018-12-27T15:17:14Z</time>
      </trkpt>
      <trkpt lat="42.7747" lon="-0.37024">
        <ele>1498.3</ele>
        <time>2018-12-27T15:17:16Z</time>
      </trkpt>
      <trkpt lat="42.77469" lon="-0.37043">
        <ele>1499.3</ele>
        <time>2018-12-27T15:17:20Z</time>
      </trkpt>
      <trkpt lat="42.77467" lon="-0.37063">
        <ele>1499.3</ele>
        <time>2018-12-27T15:17:24Z</time>
      </trkpt>
      <trkpt lat="42.77463" lon="-0.3708">
        <ele>1499.3</ele>
        <time>2018-12-27T15:17:28Z</time>
      </trkpt>
      <trkpt lat="42.7746" lon="-0.37099">
        <ele>1500.8</ele>
        <time>2018-12-27T15:17:31Z</time>
      </trkpt>
      <trkpt lat="42.77457" lon="-0.37115">
        <ele>1500.3</ele>
        <time>2018-12-27T15:17:35Z</time>
      </trkpt>
      <trkpt lat="42.77456" lon="-0.3713">
        <ele>1500.9</ele>
        <time>2018-12-27T15:17:38Z</time>
      </trkpt>
      <trkpt lat="42.77454" lon="-0.37149">
        <ele>1501.2</ele>
        <time>2018-12-27T15:17:41Z</time>
      </trkpt>
      <trkpt lat="42.77454" lon="-0.37159">
        <ele>1500.8</ele>
        <time>2018-12-27T15:17:43Z</time>
      </trkpt>
      <trkpt lat="42.77453" lon="-0.37175">
        <ele>1501.3</ele>
        <time>2018-12-27T15:17:46Z</time>
      </trkpt>
      <trkpt lat="42.77453" lon="-0.37188">
        <ele>1500.8</ele>
        <time>2018-12-27T15:17:49Z</time>
      </trkpt>
      <trkpt lat="42.77445" lon="-0.37196">
        <ele>1500.8</ele>
        <time>2018-12-27T15:17:52Z</time>
      </trkpt>
      <trkpt lat="42.77437" lon="-0.37199">
        <ele>1501.7</ele>
        <time>2018-12-27T15:17:54Z</time>
      </trkpt>
      <trkpt lat="42.77424" lon="-0.37204">
        <ele>1502.2</ele>
        <time>2018-12-27T15:17:58Z</time>
      </trkpt>
      <trkpt lat="42.77412" lon="-0.37211">
        <ele>1501.2</ele>
        <time>2018-12-27T15:18:01Z</time>
      </trkpt>
      <trkpt lat="42.7741" lon="-0.37212">
        <ele>1501.3</ele>
        <time>2018-12-27T15:18:02Z</time>
      </trkpt>
      <trkpt lat="42.77406" lon="-0.37211">
        <ele>1501.2</ele>
        <time>2018-12-27T15:18:03Z</time>
      </trkpt>
      <trkpt lat="42.77398" lon="-0.37206">
        <ele>1500.9</ele>
        <time>2018-12-27T15:18:05Z</time>
      </trkpt>
      <trkpt lat="42.77394" lon="-0.37194">
        <ele>1502.8</ele>
        <time>2018-12-27T15:18:08Z</time>
      </trkpt>
      <trkpt lat="42.77391" lon="-0.37185">
        <ele>1501.2</ele>
        <time>2018-12-27T15:18:10Z</time>
      </trkpt>
      <trkpt lat="42.77389" lon="-0.37179">
        <ele>1502.8</ele>
        <time>2018-12-27T15:18:11Z</time>
      </trkpt>
      <trkpt lat="42.77379" lon="-0.37162">
        <ele>1503.3</ele>
        <time>2018-12-27T15:18:15Z</time>
      </trkpt>
      <trkpt lat="42.77368" lon="-0.37153">
        <ele>1503.6</ele>
        <time>2018-12-27T15:18:19Z</time>
      </trkpt>
      <trkpt lat="42.77357" lon="-0.37149">
        <ele>1505.6</ele>
        <time>2018-12-27T15:18:22Z</time>
      </trkpt>
      <trkpt lat="42.77355" lon="-0.37147">
        <ele>1505.1</ele>
        <time>2018-12-27T15:18:22Z</time>
      </trkpt>
      <trkpt lat="42.77347" lon="-0.37142">
        <ele>1506.6</ele>
        <time>2018-12-27T15:18:25Z</time>
      </trkpt>
      <trkpt lat="42.77344" lon="-0.37139">
        <ele>1507.6</ele>
        <time>2018-12-27T15:18:26Z</time>
      </trkpt>
      <trkpt lat="42.7734" lon="-0.37137">
        <ele>1507.6</ele>
        <time>2018-12-27T15:18:27Z</time>
      </trkpt>
      <trkpt lat="42.77328" lon="-0.37134">
        <ele>1508.6</ele>
        <time>2018-12-27T15:18:30Z</time>
      </trkpt>
      <trkpt lat="42.77319" lon="-0.37132">
        <ele>1511</ele>
        <time>2018-12-27T15:18:33Z</time>
      </trkpt>
      <trkpt lat="42.77314" lon="-0.37131">
        <ele>1511.4</ele>
        <time>2018-12-27T15:18:34Z</time>
      </trkpt>
      <trkpt lat="42.77305" lon="-0.3713">
        <ele>1511.9</ele>
        <time>2018-12-27T15:18:36Z</time>
      </trkpt>
      <trkpt lat="42.77295" lon="-0.37129">
        <ele>1512.9</ele>
        <time>2018-12-27T15:18:39Z</time>
      </trkpt>
      <trkpt lat="42.77285" lon="-0.37129">
        <ele>1513.2</ele>
        <time>2018-12-27T15:18:42Z</time>
      </trkpt>
      <trkpt lat="42.77273" lon="-0.3713">
        <ele>1515.2</ele>
        <time>2018-12-27T15:18:45Z</time>
      </trkpt>
      <trkpt lat="42.77265" lon="-0.37128">
        <ele>1515.7</ele>
        <time>2018-12-27T15:18:47Z</time>
      </trkpt>
      <trkpt lat="42.77255" lon="-0.37126">
        <ele>1517.2</ele>
        <time>2018-12-27T15:18:50Z</time>
      </trkpt>
      <trkpt lat="42.77244" lon="-0.37124">
        <ele>1519.1</ele>
        <time>2018-12-27T15:18:53Z</time>
      </trkpt>
      <trkpt lat="42.77236" lon="-0.37122">
        <ele>1520</ele>
        <time>2018-12-27T15:18:55Z</time>
      </trkpt>
      <trkpt lat="42.77223" lon="-0.37118">
        <ele>1522</ele>
        <time>2018-12-27T15:18:58Z</time>
      </trkpt>
      <trkpt lat="42.77215" lon="-0.37115">
        <ele>1523.5</ele>
        <time>2018-12-27T15:19:01Z</time>
      </trkpt>
      <trkpt lat="42.77207" lon="-0.37114">
        <ele>1525.3</ele>
        <time>2018-12-27T15:19:03Z</time>
      </trkpt>
      <trkpt lat="42.77201" lon="-0.37113">
        <ele>1527.2</ele>
        <time>2018-12-27T15:19:04Z</time>
      </trkpt>
      <trkpt lat="42.77193" lon="-0.37112">
        <ele>1528.6</ele>
        <time>2018-12-27T15:19:06Z</time>
      </trkpt>
      <trkpt lat="42.77188" lon="-0.37112">
        <ele>1530.1</ele>
        <time>2018-12-27T15:19:08Z</time>
      </trkpt>
      <trkpt lat="42.77182" lon="-0.37114">
        <ele>1532</ele>
        <time>2018-12-27T15:19:10Z</time>
      </trkpt>
      <trkpt lat="42.77175" lon="-0.37115">
        <ele>1533.4</ele>
        <time>2018-12-27T15:19:11Z</time>
      </trkpt>
      <trkpt lat="42.77173" lon="-0.37116">
        <ele>1534</ele>
        <time>2018-12-27T15:19:12Z</time>
      </trkpt>
      <trkpt lat="42.77165" lon="-0.37121">
        <ele>1534</ele>
        <time>2018-12-27T15:19:14Z</time>
      </trkpt>
      <trkpt lat="42.7716" lon="-0.37126">
        <ele>1535</ele>
        <time>2018-12-27T15:19:16Z</time>
      </trkpt>
      <trkpt lat="42.77156" lon="-0.37129">
        <ele>1535.8</ele>
        <time>2018-12-27T15:19:17Z</time>
      </trkpt>
      <trkpt lat="42.77154" lon="-0.37131">
        <ele>1535.8</ele>
        <time>2018-12-27T15:19:18Z</time>
      </trkpt>
      <trkpt lat="42.77153" lon="-0.37131">
        <ele>1534.5</ele>
        <time>2018-12-27T15:19:18Z</time>
      </trkpt>
      <trkpt lat="42.77148" lon="-0.37136">
        <ele>1530.7</ele>
        <time>2018-12-27T15:19:20Z</time>
      </trkpt>
      <trkpt lat="42.77147" lon="-0.37136">
        <ele>1541.6</ele>
        <time>2018-12-27T15:19:20Z</time>
      </trkpt>
      <trkpt lat="42.77146" lon="-0.37137">
        <ele>1537.3</ele>
        <time>2018-12-27T15:19:20Z</time>
      </trkpt>
      <trkpt lat="42.77139" lon="-0.37145">
        <ele>1536.8</ele>
        <time>2018-12-27T15:19:23Z</time>
      </trkpt>
      <trkpt lat="42.77138" lon="-0.37146">
        <ele>1537.4</ele>
        <time>2018-12-27T15:19:23Z</time>
      </trkpt>
      <trkpt lat="42.77131" lon="-0.37152">
        <ele>1537.8</ele>
        <time>2018-12-27T15:19:25Z</time>
      </trkpt>
      <trkpt lat="42.7713" lon="-0.37153">
        <ele>1537.4</ele>
        <time>2018-12-27T15:19:26Z</time>
      </trkpt>
      <trkpt lat="42.77122" lon="-0.37151">
        <ele>1538.4</ele>
        <time>2018-12-27T15:19:28Z</time>
      </trkpt>
      <trkpt lat="42.77121" lon="-0.37149">
        <ele>1539.3</ele>
        <time>2018-12-27T15:19:28Z</time>
      </trkpt>
      <trkpt lat="42.77121" lon="-0.3714">
        <ele>1540.6</ele>
        <time>2018-12-27T15:19:30Z</time>
      </trkpt>
      <trkpt lat="42.7712" lon="-0.37134">
        <ele>1540.7</ele>
        <time>2018-12-27T15:19:31Z</time>
      </trkpt>
      <trkpt lat="42.77123" lon="-0.37119">
        <ele>1542.6</ele>
        <time>2018-12-27T15:19:34Z</time>
      </trkpt>
      <trkpt lat="42.77123" lon="-0.37106">
        <ele>1544</ele>
        <time>2018-12-27T15:19:37Z</time>
      </trkpt>
      <trkpt lat="42.77123" lon="-0.37102">
        <ele>1543.5</ele>
        <time>2018-12-27T15:19:37Z</time>
      </trkpt>
      <trkpt lat="42.77123" lon="-0.37099">
        <ele>1544</ele>
        <time>2018-12-27T15:19:38Z</time>
      </trkpt>
      <trkpt lat="42.77123" lon="-0.37093">
        <ele>1545</ele>
        <time>2018-12-27T15:19:39Z</time>
      </trkpt>
      <trkpt lat="42.77116" lon="-0.3708">
        <ele>1545.6</ele>
        <time>2018-12-27T15:19:42Z</time>
      </trkpt>
      <trkpt lat="42.77108" lon="-0.37072">
        <ele>1546.4</ele>
        <time>2018-12-27T15:19:45Z</time>
      </trkpt>
      <trkpt lat="42.77098" lon="-0.37066">
        <ele>1547.4</ele>
        <time>2018-12-27T15:19:48Z</time>
      </trkpt>
      <trkpt lat="42.77089" lon="-0.3706">
        <ele>1548.5</ele>
        <time>2018-12-27T15:19:51Z</time>
      </trkpt>
      <trkpt lat="42.7708" lon="-0.3706">
        <ele>1548.8</ele>
        <time>2018-12-27T15:19:53Z</time>
      </trkpt>
      <trkpt lat="42.7707" lon="-0.37064">
        <ele>1549.9</ele>
        <time>2018-12-27T15:19:56Z</time>
      </trkpt>
      <trkpt lat="42.77064" lon="-0.37077">
        <ele>1551.3</ele>
        <time>2018-12-27T15:19:59Z</time>
      </trkpt>
      <trkpt lat="42.77061" lon="-0.37084">
        <ele>1551.7</ele>
        <time>2018-12-27T15:20:00Z</time>
      </trkpt>
      <trkpt lat="42.77059" lon="-0.37099">
        <ele>1553.1</ele>
        <time>2018-12-27T15:20:03Z</time>
      </trkpt>
      <trkpt lat="42.77056" lon="-0.37111">
        <ele>1554.1</ele>
        <time>2018-12-27T15:20:06Z</time>
      </trkpt>
      <trkpt lat="42.77054" lon="-0.37125">
        <ele>1555.1</ele>
        <time>2018-12-27T15:20:09Z</time>
      </trkpt>
      <trkpt lat="42.77053" lon="-0.37128">
        <ele>1555.2</ele>
        <time>2018-12-27T15:20:09Z</time>
      </trkpt>
      <trkpt lat="42.77051" lon="-0.37132">
        <ele>1555.2</ele>
        <time>2018-12-27T15:20:10Z</time>
      </trkpt>
      <trkpt lat="42.77049" lon="-0.37145">
        <ele>1556.1</ele>
        <time>2018-12-27T15:20:13Z</time>
      </trkpt>
      <trkpt lat="42.77041" lon="-0.37156">
        <ele>1557.1</ele>
        <time>2018-12-27T15:20:16Z</time>
      </trkpt>
      <trkpt lat="42.77033" lon="-0.37163">
        <ele>1558.1</ele>
        <time>2018-12-27T15:20:18Z</time>
      </trkpt>
      <trkpt lat="42.77032" lon="-0.37164">
        <ele>1557.5</ele>
        <time>2018-12-27T15:20:19Z</time>
      </trkpt>
      <trkpt lat="42.77022" lon="-0.37168">
        <ele>1558.1</ele>
        <time>2018-12-27T15:20:21Z</time>
      </trkpt>
      <trkpt lat="42.77014" lon="-0.3717">
        <ele>1559.4</ele>
        <time>2018-12-27T15:20:24Z</time>
      </trkpt>
      <trkpt lat="42.7701" lon="-0.37169">
        <ele>1559.9</ele>
        <time>2018-12-27T15:20:25Z</time>
      </trkpt>
      <trkpt lat="42.77002" lon="-0.37162">
        <ele>1561.3</ele>
        <time>2018-12-27T15:20:27Z</time>
      </trkpt>
      <trkpt lat="42.76999" lon="-0.37155">
        <ele>1561.9</ele>
        <time>2018-12-27T15:20:29Z</time>
      </trkpt>
      <trkpt lat="42.76996" lon="-0.37143">
        <ele>1561.9</ele>
        <time>2018-12-27T15:20:31Z</time>
      </trkpt>
      <trkpt lat="42.76994" lon="-0.3713">
        <ele>1563.3</ele>
        <time>2018-12-27T15:20:34Z</time>
      </trkpt>
      <trkpt lat="42.76996" lon="-0.37117">
        <ele>1563.8</ele>
        <time>2018-12-27T15:20:36Z</time>
      </trkpt>
      <trkpt lat="42.76995" lon="-0.37106">
        <ele>1564.3</ele>
        <time>2018-12-27T15:20:39Z</time>
      </trkpt>
      <trkpt lat="42.76993" lon="-0.37094">
        <ele>1565.7</ele>
        <time>2018-12-27T15:20:41Z</time>
      </trkpt>
      <trkpt lat="42.76992" lon="-0.37091">
        <ele>1566.2</ele>
        <time>2018-12-27T15:20:42Z</time>
      </trkpt>
      <trkpt lat="42.76989" lon="-0.37076">
        <ele>1566.7</ele>
        <time>2018-12-27T15:20:45Z</time>
      </trkpt>
      <trkpt lat="42.76987" lon="-0.37067">
        <ele>1566.6</ele>
        <time>2018-12-27T15:20:46Z</time>
      </trkpt>
      <trkpt lat="42.76982" lon="-0.37052">
        <ele>1569</ele>
        <time>2018-12-27T15:20:50Z</time>
      </trkpt>
      <trkpt lat="42.76977" lon="-0.37042">
        <ele>1569.5</ele>
        <time>2018-12-27T15:20:52Z</time>
      </trkpt>
      <trkpt lat="42.76971" lon="-0.37039">
        <ele>1570.1</ele>
        <time>2018-12-27T15:20:54Z</time>
      </trkpt>
      <trkpt lat="42.76963" lon="-0.37043">
        <ele>1570.1</ele>
        <time>2018-12-27T15:20:56Z</time>
      </trkpt>
      <trkpt lat="42.76959" lon="-0.37056">
        <ele>1570.5</ele>
        <time>2018-12-27T15:20:59Z</time>
      </trkpt>
      <trkpt lat="42.76958" lon="-0.37069">
        <ele>1572</ele>
        <time>2018-12-27T15:21:01Z</time>
      </trkpt>
      <trkpt lat="42.76959" lon="-0.3708">
        <ele>1572.5</ele>
        <time>2018-12-27T15:21:04Z</time>
      </trkpt>
      <trkpt lat="42.76959" lon="-0.37083">
        <ele>1572.9</ele>
        <time>2018-12-27T15:21:04Z</time>
      </trkpt>
      <trkpt lat="42.76957" lon="-0.37095">
        <ele>1573.9</ele>
        <time>2018-12-27T15:21:07Z</time>
      </trkpt>
      <trkpt lat="42.76957" lon="-0.37103">
        <ele>1574.8</ele>
        <time>2018-12-27T15:21:08Z</time>
      </trkpt>
      <trkpt lat="42.76956" lon="-0.37101">
        <ele>1574.3</ele>
        <time>2018-12-27T15:21:09Z</time>
      </trkpt>
      <trkpt lat="42.76955" lon="-0.37103">
        <ele>1573.3</ele>
        <time>2018-12-27T15:21:09Z</time>
      </trkpt>
      <trkpt lat="42.76953" lon="-0.37108">
        <ele>1574.3</ele>
        <time>2018-12-27T15:21:10Z</time>
      </trkpt>
      <trkpt lat="42.76948" lon="-0.3712">
        <ele>1575.8</ele>
        <time>2018-12-27T15:21:13Z</time>
      </trkpt>
      <trkpt lat="42.76944" lon="-0.37131">
        <ele>1575.3</ele>
        <time>2018-12-27T15:21:15Z</time>
      </trkpt>
      <trkpt lat="42.7694" lon="-0.37138">
        <ele>1577.3</ele>
        <time>2018-12-27T15:21:17Z</time>
      </trkpt>
      <trkpt lat="42.76935" lon="-0.37149">
        <ele>1577.7</ele>
        <time>2018-12-27T15:21:20Z</time>
      </trkpt>
      <trkpt lat="42.76929" lon="-0.37164">
        <ele>1577.6</ele>
        <time>2018-12-27T15:21:23Z</time>
      </trkpt>
      <trkpt lat="42.76918" lon="-0.37178">
        <ele>1579.7</ele>
        <time>2018-12-27T15:21:27Z</time>
      </trkpt>
      <trkpt lat="42.76909" lon="-0.37185">
        <ele>1580.5</ele>
        <time>2018-12-27T15:21:30Z</time>
      </trkpt>
      <trkpt lat="42.76903" lon="-0.37189">
        <ele>1582.5</ele>
        <time>2018-12-27T15:21:32Z</time>
      </trkpt>
      <trkpt lat="42.76902" lon="-0.37189">
        <ele>1582.1</ele>
        <time>2018-12-27T15:21:32Z</time>
      </trkpt>
      <trkpt lat="42.7689" lon="-0.3719">
        <ele>1583.9</ele>
        <time>2018-12-27T15:21:35Z</time>
      </trkpt>
      <trkpt lat="42.76879" lon="-0.37193">
        <ele>1585.4</ele>
        <time>2018-12-27T15:21:38Z</time>
      </trkpt>
      <trkpt lat="42.76867" lon="-0.37195">
        <ele>1585.8</ele>
        <time>2018-12-27T15:21:41Z</time>
      </trkpt>
      <trkpt lat="42.76857" lon="-0.37198">
        <ele>1587.3</ele>
        <time>2018-12-27T15:21:44Z</time>
      </trkpt>
      <trkpt lat="42.7685" lon="-0.37201">
        <ele>1588.3</ele>
        <time>2018-12-27T15:21:46Z</time>
      </trkpt>
      <trkpt lat="42.76843" lon="-0.37206">
        <ele>1588.3</ele>
        <time>2018-12-27T15:21:48Z</time>
      </trkpt>
      <trkpt lat="42.7683" lon="-0.37201">
        <ele>1590.7</ele>
        <time>2018-12-27T15:21:52Z</time>
      </trkpt>
      <trkpt lat="42.76823" lon="-0.37192">
        <ele>1591.6</ele>
        <time>2018-12-27T15:21:54Z</time>
      </trkpt>
      <trkpt lat="42.76822" lon="-0.3719">
        <ele>1593.1</ele>
        <time>2018-12-27T15:21:55Z</time>
      </trkpt>
      <trkpt lat="42.76817" lon="-0.37174">
        <ele>1592.5</ele>
        <time>2018-12-27T15:21:58Z</time>
      </trkpt>
      <trkpt lat="42.76813" lon="-0.37159">
        <ele>1593.6</ele>
        <time>2018-12-27T15:22:01Z</time>
      </trkpt>
      <trkpt lat="42.76807" lon="-0.37139">
        <ele>1594</ele>
        <time>2018-12-27T15:22:05Z</time>
      </trkpt>
      <trkpt lat="42.76803" lon="-0.37125">
        <ele>1595.9</ele>
        <time>2018-12-27T15:22:08Z</time>
      </trkpt>
      <trkpt lat="42.76799" lon="-0.37112">
        <ele>1596.5</ele>
        <time>2018-12-27T15:22:11Z</time>
      </trkpt>
      <trkpt lat="42.76793" lon="-0.37097">
        <ele>1598</ele>
        <time>2018-12-27T15:22:14Z</time>
      </trkpt>
      <trkpt lat="42.76785" lon="-0.37085">
        <ele>1599.3</ele>
        <time>2018-12-27T15:22:18Z</time>
      </trkpt>
      <trkpt lat="42.76787" lon="-0.37083">
        <ele>1597.9</ele>
        <time>2018-12-27T15:22:18Z</time>
      </trkpt>
      <trkpt lat="42.76789" lon="-0.37081">
        <ele>1598.4</ele>
        <time>2018-12-27T15:22:19Z</time>
      </trkpt>
      <trkpt lat="42.7679" lon="-0.37081">
        <ele>1598.4</ele>
        <time>2018-12-27T15:22:19Z</time>
      </trkpt>
      <trkpt lat="42.7679" lon="-0.37082">
        <ele>1595.4</ele>
        <time>2018-12-27T15:22:20Z</time>
      </trkpt>
      <trkpt lat="42.7679" lon="-0.37082">
        <ele>1599.8</ele>
        <time>2018-12-27T15:22:20Z</time>
      </trkpt>
      <trkpt lat="42.76788" lon="-0.3708">
        <ele>1599.3</ele>
        <time>2018-12-27T15:22:20Z</time>
      </trkpt>
      <trkpt lat="42.76785" lon="-0.37076">
        <ele>1599.8</ele>
        <time>2018-12-27T15:22:21Z</time>
      </trkpt>
      <trkpt lat="42.76784" lon="-0.37077">
        <ele>1599.8</ele>
        <time>2018-12-27T15:22:21Z</time>
      </trkpt>
      <trkpt lat="42.76782" lon="-0.37078">
        <ele>1599.8</ele>
        <time>2018-12-27T15:22:22Z</time>
      </trkpt>
      <trkpt lat="42.76772" lon="-0.37075">
        <ele>1601.8</ele>
        <time>2018-12-27T15:22:25Z</time>
      </trkpt>
      <trkpt lat="42.76763" lon="-0.37068">
        <ele>1600.4</ele>
        <time>2018-12-27T15:22:28Z</time>
      </trkpt>
      <trkpt lat="42.76762" lon="-0.37067">
        <ele>1600.7</ele>
        <time>2018-12-27T15:22:28Z</time>
      </trkpt>
      <trkpt lat="42.7675" lon="-0.37062">
        <ele>1601.8</ele>
        <time>2018-12-27T15:22:31Z</time>
      </trkpt>
      <trkpt lat="42.76742" lon="-0.37059">
        <ele>1602.7</ele>
        <time>2018-12-27T15:22:34Z</time>
      </trkpt>
      <trkpt lat="42.76733" lon="-0.37053">
        <ele>1603.6</ele>
        <time>2018-12-27T15:22:36Z</time>
      </trkpt>
      <trkpt lat="42.76726" lon="-0.37048">
        <ele>1604.7</ele>
        <time>2018-12-27T15:22:38Z</time>
      </trkpt>
      <trkpt lat="42.76723" lon="-0.37046">
        <ele>1605.1</ele>
        <time>2018-12-27T15:22:39Z</time>
      </trkpt>
      <trkpt lat="42.76711" lon="-0.37039">
        <ele>1606.5</ele>
        <time>2018-12-27T15:22:43Z</time>
      </trkpt>
      <trkpt lat="42.76701" lon="-0.37037">
        <ele>1607.9</ele>
        <time>2018-12-27T15:22:45Z</time>
      </trkpt>
      <trkpt lat="42.7669" lon="-0.37037">
        <ele>1609</ele>
        <time>2018-12-27T15:22:48Z</time>
      </trkpt>
      <trkpt lat="42.76684" lon="-0.37039">
        <ele>1608.9</ele>
        <time>2018-12-27T15:22:50Z</time>
      </trkpt>
      <trkpt lat="42.76674" lon="-0.37045">
        <ele>1609.9</ele>
        <time>2018-12-27T15:22:53Z</time>
      </trkpt>
      <trkpt lat="42.76671" lon="-0.37047">
        <ele>1610.4</ele>
        <time>2018-12-27T15:22:54Z</time>
      </trkpt>
      <trkpt lat="42.76667" lon="-0.37057">
        <ele>1611.3</ele>
        <time>2018-12-27T15:22:56Z</time>
      </trkpt>
      <trkpt lat="42.76664" lon="-0.3707">
        <ele>1611.9</ele>
        <time>2018-12-27T15:22:59Z</time>
      </trkpt>
      <trkpt lat="42.76661" lon="-0.37083">
        <ele>1612.4</ele>
        <time>2018-12-27T15:23:01Z</time>
      </trkpt>
      <trkpt lat="42.76658" lon="-0.37097">
        <ele>1613.3</ele>
        <time>2018-12-27T15:23:04Z</time>
      </trkpt>
      <trkpt lat="42.76656" lon="-0.3711">
        <ele>1614.7</ele>
        <time>2018-12-27T15:23:07Z</time>
      </trkpt>
      <trkpt lat="42.76655" lon="-0.37113">
        <ele>1614.7</ele>
        <time>2018-12-27T15:23:07Z</time>
      </trkpt>
      <trkpt lat="42.76653" lon="-0.37125">
        <ele>1616.1</ele>
        <time>2018-12-27T15:23:10Z</time>
      </trkpt>
      <trkpt lat="42.7665" lon="-0.37138">
        <ele>1616.7</ele>
        <time>2018-12-27T15:23:13Z</time>
      </trkpt>
      <trkpt lat="42.76648" lon="-0.37149">
        <ele>1617.1</ele>
        <time>2018-12-27T15:23:15Z</time>
      </trkpt>
      <trkpt lat="42.76645" lon="-0.37161">
        <ele>1617.7</ele>
        <time>2018-12-27T15:23:17Z</time>
      </trkpt>
      <trkpt lat="42.76643" lon="-0.37164">
        <ele>1618.6</ele>
        <time>2018-12-27T15:23:18Z</time>
      </trkpt>
      <trkpt lat="42.76634" lon="-0.37168">
        <ele>1619</ele>
        <time>2018-12-27T15:23:20Z</time>
      </trkpt>
      <trkpt lat="42.76631" lon="-0.37168">
        <ele>1620.5</ele>
        <time>2018-12-27T15:23:21Z</time>
      </trkpt>
      <trkpt lat="42.76628" lon="-0.37167">
        <ele>1620.5</ele>
        <time>2018-12-27T15:23:22Z</time>
      </trkpt>
      <trkpt lat="42.76622" lon="-0.37157">
        <ele>1621.5</ele>
        <time>2018-12-27T15:23:25Z</time>
      </trkpt>
      <trkpt lat="42.76621" lon="-0.37156">
        <ele>1622.4</ele>
        <time>2018-12-27T15:23:25Z</time>
      </trkpt>
      <trkpt lat="42.76621" lon="-0.37153">
        <ele>1621.4</ele>
        <time>2018-12-27T15:23:25Z</time>
      </trkpt>
      <trkpt lat="42.7662" lon="-0.3715">
        <ele>1622.8</ele>
        <time>2018-12-27T15:23:26Z</time>
      </trkpt>
      <trkpt lat="42.76618" lon="-0.37135">
        <ele>1623.8</ele>
        <time>2018-12-27T15:23:29Z</time>
      </trkpt>
      <trkpt lat="42.76617" lon="-0.37121">
        <ele>1623.8</ele>
        <time>2018-12-27T15:23:32Z</time>
      </trkpt>
      <trkpt lat="42.76617" lon="-0.37118">
        <ele>1624.3</ele>
        <time>2018-12-27T15:23:32Z</time>
      </trkpt>
      <trkpt lat="42.76615" lon="-0.37116">
        <ele>1625.4</ele>
        <time>2018-12-27T15:23:33Z</time>
      </trkpt>
      <trkpt lat="42.76615" lon="-0.37114">
        <ele>1625.3</ele>
        <time>2018-12-27T15:23:33Z</time>
      </trkpt>
      <trkpt lat="42.76609" lon="-0.37109">
        <ele>1625.8</ele>
        <time>2018-12-27T15:23:35Z</time>
      </trkpt>
      <trkpt lat="42.76607" lon="-0.37108">
        <ele>1625.7</ele>
        <time>2018-12-27T15:23:36Z</time>
      </trkpt>
      <trkpt lat="42.76608" lon="-0.37108">
        <ele>1625.3</ele>
        <time>2018-12-27T15:23:36Z</time>
      </trkpt>
      <trkpt lat="42.76607" lon="-0.37108">
        <ele>1626.3</ele>
        <time>2018-12-27T15:23:36Z</time>
      </trkpt>
      <trkpt lat="42.76604" lon="-0.37107">
        <ele>1626.7</ele>
        <time>2018-12-27T15:23:37Z</time>
      </trkpt>
      <trkpt lat="42.76599" lon="-0.37108">
        <ele>1627.2</ele>
        <time>2018-12-27T15:23:38Z</time>
      </trkpt>
      <trkpt lat="42.76596" lon="-0.37109">
        <ele>1627.3</ele>
        <time>2018-12-27T15:23:39Z</time>
      </trkpt>
      <trkpt lat="42.76594" lon="-0.3711">
        <ele>1626.7</ele>
        <time>2018-12-27T15:23:40Z</time>
      </trkpt>
      <trkpt lat="42.76587" lon="-0.37117">
        <ele>1627.2</ele>
        <time>2018-12-27T15:23:42Z</time>
      </trkpt>
      <trkpt lat="42.76582" lon="-0.3713">
        <ele>1628.6</ele>
        <time>2018-12-27T15:23:45Z</time>
      </trkpt>
      <trkpt lat="42.76578" lon="-0.37145">
        <ele>1629.2</ele>
        <time>2018-12-27T15:23:48Z</time>
      </trkpt>
      <trkpt lat="42.76574" lon="-0.37159">
        <ele>1630.1</ele>
        <time>2018-12-27T15:23:51Z</time>
      </trkpt>
      <trkpt lat="42.76571" lon="-0.37172">
        <ele>1630.5</ele>
        <time>2018-12-27T15:23:54Z</time>
      </trkpt>
      <trkpt lat="42.76569" lon="-0.37186">
        <ele>1631.5</ele>
        <time>2018-12-27T15:23:56Z</time>
      </trkpt>
      <trkpt lat="42.76566" lon="-0.37202">
        <ele>1632</ele>
        <time>2018-12-27T15:24:00Z</time>
      </trkpt>
      <trkpt lat="42.76562" lon="-0.37219">
        <ele>1632.4</ele>
        <time>2018-12-27T15:24:03Z</time>
      </trkpt>
      <trkpt lat="42.76555" lon="-0.37228">
        <ele>1632.9</ele>
        <time>2018-12-27T15:24:06Z</time>
      </trkpt>
      <trkpt lat="42.76546" lon="-0.37228">
        <ele>1633.4</ele>
        <time>2018-12-27T15:24:08Z</time>
      </trkpt>
      <trkpt lat="42.76543" lon="-0.37226">
        <ele>1633.9</ele>
        <time>2018-12-27T15:24:09Z</time>
      </trkpt>
      <trkpt lat="42.76535" lon="-0.37217">
        <ele>1635.4</ele>
        <time>2018-12-27T15:24:12Z</time>
      </trkpt>
      <trkpt lat="42.76533" lon="-0.37215">
        <ele>1634.9</ele>
        <time>2018-12-27T15:24:13Z</time>
      </trkpt>
      <trkpt lat="42.76532" lon="-0.37212">
        <ele>1634.5</ele>
        <time>2018-12-27T15:24:13Z</time>
      </trkpt>
      <trkpt lat="42.76531" lon="-0.3721">
        <ele>1635</ele>
        <time>2018-12-27T15:24:14Z</time>
      </trkpt>
      <trkpt lat="42.76527" lon="-0.37196">
        <ele>1636.4</ele>
        <time>2018-12-27T15:24:17Z</time>
      </trkpt>
      <trkpt lat="42.76527" lon="-0.37195">
        <ele>1636.8</ele>
        <time>2018-12-27T15:24:17Z</time>
      </trkpt>
      <trkpt lat="42.76522" lon="-0.37182">
        <ele>1637.9</ele>
        <time>2018-12-27T15:24:20Z</time>
      </trkpt>
      <trkpt lat="42.76517" lon="-0.37171">
        <ele>1638.7</ele>
        <time>2018-12-27T15:24:22Z</time>
      </trkpt>
      <trkpt lat="42.76512" lon="-0.3716">
        <ele>1641.1</ele>
        <time>2018-12-27T15:24:25Z</time>
      </trkpt>
      <trkpt lat="42.76508" lon="-0.37149">
        <ele>1640.7</ele>
        <time>2018-12-27T15:24:27Z</time>
      </trkpt>
      <trkpt lat="42.76501" lon="-0.37137">
        <ele>1641.6</ele>
        <time>2018-12-27T15:24:30Z</time>
      </trkpt>
      <trkpt lat="42.76493" lon="-0.37126">
        <ele>1644</ele>
        <time>2018-12-27T15:24:33Z</time>
      </trkpt>
      <trkpt lat="42.76483" lon="-0.37126">
        <ele>1645</ele>
        <time>2018-12-27T15:24:36Z</time>
      </trkpt>
      <trkpt lat="42.76476" lon="-0.37137">
        <ele>1646</ele>
        <time>2018-12-27T15:24:39Z</time>
      </trkpt>
      <trkpt lat="42.76474" lon="-0.37149">
        <ele>1649.4</ele>
        <time>2018-12-27T15:24:41Z</time>
      </trkpt>
      <trkpt lat="42.76472" lon="-0.37164">
        <ele>1651.3</ele>
        <time>2018-12-27T15:24:44Z</time>
      </trkpt>
      <trkpt lat="42.76473" lon="-0.37178">
        <ele>1653.1</ele>
        <time>2018-12-27T15:24:47Z</time>
      </trkpt>
      <trkpt lat="42.76474" lon="-0.3719">
        <ele>1652.7</ele>
        <time>2018-12-27T15:24:49Z</time>
      </trkpt>
      <trkpt lat="42.76475" lon="-0.372">
        <ele>1656.5</ele>
        <time>2018-12-27T15:24:51Z</time>
      </trkpt>
      <trkpt lat="42.76477" lon="-0.37216">
        <ele>1657.4</ele>
        <time>2018-12-27T15:24:54Z</time>
      </trkpt>
      <trkpt lat="42.7648" lon="-0.37231">
        <ele>1658.5</ele>
        <time>2018-12-27T15:24:58Z</time>
      </trkpt>
      <trkpt lat="42.76481" lon="-0.3724">
        <ele>1658.5</ele>
        <time>2018-12-27T15:24:59Z</time>
      </trkpt>
      <trkpt lat="42.76481" lon="-0.37255">
        <ele>1659.4</ele>
        <time>2018-12-27T15:25:02Z</time>
      </trkpt>
      <trkpt lat="42.76473" lon="-0.37262">
        <ele>1660.9</ele>
        <time>2018-12-27T15:25:05Z</time>
      </trkpt>
      <trkpt lat="42.76462" lon="-0.37255">
        <ele>1660.8</ele>
        <time>2018-12-27T15:25:08Z</time>
      </trkpt>
      <trkpt lat="42.7645" lon="-0.37244">
        <ele>1662.3</ele>
        <time>2018-12-27T15:25:12Z</time>
      </trkpt>
      <trkpt lat="42.76435" lon="-0.37238">
        <ele>1664.7</ele>
        <time>2018-12-27T15:25:16Z</time>
      </trkpt>
      <trkpt lat="42.76422" lon="-0.3724">
        <ele>1664.3</ele>
        <time>2018-12-27T15:25:20Z</time>
      </trkpt>
      <trkpt lat="42.7641" lon="-0.37247">
        <ele>1666.7</ele>
        <time>2018-12-27T15:25:23Z</time>
      </trkpt>
      <trkpt lat="42.76405" lon="-0.37252">
        <ele>1666.1</ele>
        <time>2018-12-27T15:25:25Z</time>
      </trkpt>
      <trkpt lat="42.76402" lon="-0.37258">
        <ele>1669</ele>
        <time>2018-12-27T15:25:26Z</time>
      </trkpt>
      <trkpt lat="42.76399" lon="-0.37269">
        <ele>1667.6</ele>
        <time>2018-12-27T15:25:28Z</time>
      </trkpt>
      <trkpt lat="42.76398" lon="-0.37272">
        <ele>1669.9</ele>
        <time>2018-12-27T15:25:29Z</time>
      </trkpt>
      <trkpt lat="42.76393" lon="-0.37288">
        <ele>1669.9</ele>
        <time>2018-12-27T15:25:32Z</time>
      </trkpt>
      <trkpt lat="42.76387" lon="-0.37297">
        <ele>1670.4</ele>
        <time>2018-12-27T15:25:35Z</time>
      </trkpt>
      <trkpt lat="42.7638" lon="-0.37305">
        <ele>1673.4</ele>
        <time>2018-12-27T15:25:37Z</time>
      </trkpt>
      <trkpt lat="42.76378" lon="-0.37311">
        <ele>1674.9</ele>
        <time>2018-12-27T15:25:39Z</time>
      </trkpt>
      <trkpt lat="42.76376" lon="-0.37311">
        <ele>1674.9</ele>
        <time>2018-12-27T15:25:39Z</time>
      </trkpt>
      <trkpt lat="42.76372" lon="-0.37318">
        <ele>1674.8</ele>
        <time>2018-12-27T15:25:41Z</time>
      </trkpt>
      <trkpt lat="42.76368" lon="-0.37327">
        <ele>1678.7</ele>
        <time>2018-12-27T15:25:43Z</time>
      </trkpt>
      <trkpt lat="42.76368" lon="-0.37328">
        <ele>1675.7</ele>
        <time>2018-12-27T15:25:43Z</time>
      </trkpt>
      <trkpt lat="42.76364" lon="-0.37338">
        <ele>1679.1</ele>
        <time>2018-12-27T15:25:45Z</time>
      </trkpt>
      <trkpt lat="42.76357" lon="-0.37344">
        <ele>1678.2</ele>
        <time>2018-12-27T15:25:48Z</time>
      </trkpt>
      <trkpt lat="42.76354" lon="-0.37348">
        <ele>1681.5</ele>
        <time>2018-12-27T15:25:49Z</time>
      </trkpt>
      <trkpt lat="42.76353" lon="-0.37349">
        <ele>1678.2</ele>
        <time>2018-12-27T15:25:49Z</time>
      </trkpt>
      <trkpt lat="42.76351" lon="-0.37351">
        <ele>1682.5</ele>
        <time>2018-12-27T15:25:49Z</time>
      </trkpt>
      <trkpt lat="42.76351" lon="-0.37352">
        <ele>1682.5</ele>
        <time>2018-12-27T15:25:50Z</time>
      </trkpt>
      <trkpt lat="42.7635" lon="-0.37353">
        <ele>1678.6</ele>
        <time>2018-12-27T15:25:50Z</time>
      </trkpt>
      <trkpt lat="42.76349" lon="-0.37354">
        <ele>1679.6</ele>
        <time>2018-12-27T15:25:50Z</time>
      </trkpt>
      <trkpt lat="42.76343" lon="-0.37363">
        <ele>1681.5</ele>
        <time>2018-12-27T15:25:53Z</time>
      </trkpt>
      <trkpt lat="42.7634" lon="-0.37367">
        <ele>1683.5</ele>
        <time>2018-12-27T15:25:54Z</time>
      </trkpt>
      <trkpt lat="42.76339" lon="-0.37368">
        <ele>1681.5</ele>
        <time>2018-12-27T15:25:54Z</time>
      </trkpt>
      <trkpt lat="42.76342" lon="-0.37371">
        <ele>1682.4</ele>
        <time>2018-12-27T15:25:55Z</time>
      </trkpt>
      <trkpt lat="42.76341" lon="-0.37374">
        <ele>1683</ele>
        <time>2018-12-27T15:25:56Z</time>
      </trkpt>
      <trkpt lat="42.76337" lon="-0.37378">
        <ele>1683</ele>
        <time>2018-12-27T15:25:57Z</time>
      </trkpt>
      <trkpt lat="42.76338" lon="-0.37379">
        <ele>1686.9</ele>
        <time>2018-12-27T15:25:58Z</time>
      </trkpt>
      <trkpt lat="42.76338" lon="-0.37379">
        <ele>1683.4</ele>
        <time>2018-12-27T15:25:58Z</time>
      </trkpt>
      <trkpt lat="42.76336" lon="-0.37379">
        <ele>1683.5</ele>
        <time>2018-12-27T15:25:58Z</time>
      </trkpt>
      <trkpt lat="42.76336" lon="-0.3738">
        <ele>1683.9</ele>
        <time>2018-12-27T15:25:58Z</time>
      </trkpt>
      <trkpt lat="42.7634" lon="-0.37381">
        <ele>1684.4</ele>
        <time>2018-12-27T15:25:59Z</time>
      </trkpt>
      <trkpt lat="42.76342" lon="-0.37381">
        <ele>1684.8</ele>
        <time>2018-12-27T15:26:00Z</time>
      </trkpt>
      <trkpt lat="42.76344" lon="-0.37384">
        <ele>1684.9</ele>
        <time>2018-12-27T15:26:01Z</time>
      </trkpt>
      <trkpt lat="42.76343" lon="-0.37384">
        <ele>1685.3</ele>
        <time>2018-12-27T15:26:01Z</time>
      </trkpt>
      <trkpt lat="42.76347" lon="-0.3739">
        <ele>1686.3</ele>
        <time>2018-12-27T15:26:03Z</time>
      </trkpt>
      <trkpt lat="42.7634" lon="-0.37383">
        <ele>1684.4</ele>
        <time>2018-12-27T15:26:05Z</time>
      </trkpt>
      <trkpt lat="42.76336" lon="-0.37378">
        <ele>1684.8</ele>
        <time>2018-12-27T15:26:06Z</time>
      </trkpt>
      <trkpt lat="42.76332" lon="-0.37383">
        <ele>1683.5</ele>
        <time>2018-12-27T15:26:08Z</time>
      </trkpt>
      <trkpt lat="42.76331" lon="-0.37384">
        <ele>1684.8</ele>
        <time>2018-12-27T15:26:08Z</time>
      </trkpt>
      <trkpt lat="42.76331" lon="-0.37387">
        <ele>1685.9</ele>
        <time>2018-12-27T15:26:09Z</time>
      </trkpt>
      <trkpt lat="42.76329" lon="-0.37395">
        <ele>1686.4</ele>
        <time>2018-12-27T15:26:11Z</time>
      </trkpt>
      <trkpt lat="42.76328" lon="-0.37401">
        <ele>1685.9</ele>
        <time>2018-12-27T15:26:12Z</time>
      </trkpt>
      <trkpt lat="42.76328" lon="-0.37412">
        <ele>1687.3</ele>
        <time>2018-12-27T15:26:14Z</time>
      </trkpt>
      <trkpt lat="42.76328" lon="-0.37417">
        <ele>1688.8</ele>
        <time>2018-12-27T15:26:15Z</time>
      </trkpt>
      <trkpt lat="42.76328" lon="-0.37415">
        <ele>1688.7</ele>
        <time>2018-12-27T15:26:15Z</time>
      </trkpt>
      <trkpt lat="42.76327" lon="-0.37416">
        <ele>1688.2</ele>
        <time>2018-12-27T15:26:15Z</time>
      </trkpt>
      <trkpt lat="42.7633" lon="-0.37424">
        <ele>1690.1</ele>
        <time>2018-12-27T15:26:17Z</time>
      </trkpt>
      <trkpt lat="42.76332" lon="-0.37428">
        <ele>1691.2</ele>
        <time>2018-12-27T15:26:18Z</time>
      </trkpt>
      <trkpt lat="42.76337" lon="-0.37437">
        <ele>1692.1</ele>
        <time>2018-12-27T15:26:20Z</time>
      </trkpt>
      <trkpt lat="42.7634" lon="-0.37448">
        <ele>1692.2</ele>
        <time>2018-12-27T15:26:23Z</time>
      </trkpt>
      <trkpt lat="42.76337" lon="-0.37457">
        <ele>1692.6</ele>
        <time>2018-12-27T15:26:25Z</time>
      </trkpt>
      <trkpt lat="42.76334" lon="-0.37477">
        <ele>1694.1</ele>
        <time>2018-12-27T15:26:28Z</time>
      </trkpt>
      <trkpt lat="42.76329" lon="-0.37493">
        <ele>1696.5</ele>
        <time>2018-12-27T15:26:32Z</time>
      </trkpt>
      <trkpt lat="42.76326" lon="-0.37501">
        <ele>1698.4</ele>
        <time>2018-12-27T15:26:34Z</time>
      </trkpt>
      <trkpt lat="42.76324" lon="-0.37506">
        <ele>1698.8</ele>
        <time>2018-12-27T15:26:35Z</time>
      </trkpt>
      <trkpt lat="42.76321" lon="-0.37514">
        <ele>1699.7</ele>
        <time>2018-12-27T15:26:36Z</time>
      </trkpt>
      <trkpt lat="42.76319" lon="-0.3752">
        <ele>1700.7</ele>
        <time>2018-12-27T15:26:38Z</time>
      </trkpt>
      <trkpt lat="42.76316" lon="-0.3753">
        <ele>1703.7</ele>
        <time>2018-12-27T15:26:40Z</time>
      </trkpt>
      <trkpt lat="42.76314" lon="-0.37536">
        <ele>1704.1</ele>
        <time>2018-12-27T15:26:41Z</time>
      </trkpt>
      <trkpt lat="42.76313" lon="-0.3754">
        <ele>1703.6</ele>
        <time>2018-12-27T15:26:42Z</time>
      </trkpt>
      <trkpt lat="42.76309" lon="-0.37549">
        <ele>1704.7</ele>
        <time>2018-12-27T15:26:44Z</time>
      </trkpt>
      <trkpt lat="42.76305" lon="-0.37558">
        <ele>1706</ele>
        <time>2018-12-27T15:26:46Z</time>
      </trkpt>
      <trkpt lat="42.76301" lon="-0.37565">
        <ele>1707.1</ele>
        <time>2018-12-27T15:26:48Z</time>
      </trkpt>
      <trkpt lat="42.76299" lon="-0.3757">
        <ele>1707.1</ele>
        <time>2018-12-27T15:26:49Z</time>
      </trkpt>
      <trkpt lat="42.76296" lon="-0.37578">
        <ele>1708.5</ele>
        <time>2018-12-27T15:26:51Z</time>
      </trkpt>
      <trkpt lat="42.76294" lon="-0.37583">
        <ele>1709.4</ele>
        <time>2018-12-27T15:26:52Z</time>
      </trkpt>
      <trkpt lat="42.76289" lon="-0.37595">
        <ele>1709.8</ele>
        <time>2018-12-27T15:26:55Z</time>
      </trkpt>
      <trkpt lat="42.7629" lon="-0.37602">
        <ele>1710.8</ele>
        <time>2018-12-27T15:26:56Z</time>
      </trkpt>
      <trkpt lat="42.76292" lon="-0.37601">
        <ele>1711.9</ele>
        <time>2018-12-27T15:26:57Z</time>
      </trkpt>
      <trkpt lat="42.76292" lon="-0.37598">
        <ele>1710.9</ele>
        <time>2018-12-27T15:26:57Z</time>
      </trkpt>
      <trkpt lat="42.76289" lon="-0.37596">
        <ele>1711.4</ele>
        <time>2018-12-27T15:26:58Z</time>
      </trkpt>
      <trkpt lat="42.76287" lon="-0.37596">
        <ele>1711.8</ele>
        <time>2018-12-27T15:26:59Z</time>
      </trkpt>
      <trkpt lat="42.76288" lon="-0.37601">
        <ele>1711.9</ele>
        <time>2018-12-27T15:27:00Z</time>
      </trkpt>
      <trkpt lat="42.76292" lon="-0.37612">
        <ele>1712.3</ele>
        <time>2018-12-27T15:27:02Z</time>
      </trkpt>
      <trkpt lat="42.76292" lon="-0.37614">
        <ele>1712.2</ele>
        <time>2018-12-27T15:27:03Z</time>
      </trkpt>
      <trkpt lat="42.76294" lon="-0.37616">
        <ele>1712.3</ele>
        <time>2018-12-27T15:27:03Z</time>
      </trkpt>
      <trkpt lat="42.76299" lon="-0.37627">
        <ele>1712.8</ele>
        <time>2018-12-27T15:27:06Z</time>
      </trkpt>
      <trkpt lat="42.76302" lon="-0.37637">
        <ele>1714.2</ele>
        <time>2018-12-27T15:27:08Z</time>
      </trkpt>
      <trkpt lat="42.76304" lon="-0.37643">
        <ele>1714.7</ele>
        <time>2018-12-27T15:27:09Z</time>
      </trkpt>
      <trkpt lat="42.76306" lon="-0.37647">
        <ele>1714.8</ele>
        <time>2018-12-27T15:27:10Z</time>
      </trkpt>
      <trkpt lat="42.76308" lon="-0.3766">
        <ele>1715.7</ele>
        <time>2018-12-27T15:27:13Z</time>
      </trkpt>
      <trkpt lat="42.76308" lon="-0.37669">
        <ele>1716.7</ele>
        <time>2018-12-27T15:27:14Z</time>
      </trkpt>
      <trkpt lat="42.7631" lon="-0.37678">
        <ele>1717.5</ele>
        <time>2018-12-27T15:27:16Z</time>
      </trkpt>
      <trkpt lat="42.76312" lon="-0.37693">
        <ele>1719</ele>
        <time>2018-12-27T15:27:19Z</time>
      </trkpt>
      <trkpt lat="42.76314" lon="-0.37707">
        <ele>1719.5</ele>
        <time>2018-12-27T15:27:22Z</time>
      </trkpt>
      <trkpt lat="42.76316" lon="-0.37719">
        <ele>1722.3</ele>
        <time>2018-12-27T15:27:25Z</time>
      </trkpt>
      <trkpt lat="42.76317" lon="-0.3773">
        <ele>1722.4</ele>
        <time>2018-12-27T15:27:27Z</time>
      </trkpt>
      <trkpt lat="42.76317" lon="-0.3774">
        <ele>1723.9</ele>
        <time>2018-12-27T15:27:29Z</time>
      </trkpt>
      <trkpt lat="42.76317" lon="-0.37748">
        <ele>1724.3</ele>
        <time>2018-12-27T15:27:30Z</time>
      </trkpt>
      <trkpt lat="42.76318" lon="-0.3775">
        <ele>1724.7</ele>
        <time>2018-12-27T15:27:31Z</time>
      </trkpt>
      <trkpt lat="42.76326" lon="-0.3776">
        <ele>1725.2</ele>
        <time>2018-12-27T15:27:34Z</time>
      </trkpt>
      <trkpt lat="42.76337" lon="-0.37762">
        <ele>1725.2</ele>
        <time>2018-12-27T15:27:36Z</time>
      </trkpt>
      <trkpt lat="42.76339" lon="-0.37761">
        <ele>1725.3</ele>
        <time>2018-12-27T15:27:37Z</time>
      </trkpt>
      <trkpt lat="42.76342" lon="-0.37758">
        <ele>1725.8</ele>
        <time>2018-12-27T15:27:38Z</time>
      </trkpt>
      <trkpt lat="42.76353" lon="-0.37753">
        <ele>1725.8</ele>
        <time>2018-12-27T15:27:41Z</time>
      </trkpt>
      <trkpt lat="42.76367" lon="-0.37748">
        <ele>1726.2</ele>
        <time>2018-12-27T15:27:45Z</time>
      </trkpt>
      <trkpt lat="42.76381" lon="-0.37739">
        <ele>1726.7</ele>
        <time>2018-12-27T15:27:49Z</time>
      </trkpt>
      <trkpt lat="42.76394" lon="-0.37732">
        <ele>1728.2</ele>
        <time>2018-12-27T15:27:53Z</time>
      </trkpt>
      <trkpt lat="42.76406" lon="-0.37729">
        <ele>1728.6</ele>
        <time>2018-12-27T15:27:56Z</time>
      </trkpt>
      <trkpt lat="42.76416" lon="-0.37729">
        <ele>1730.5</ele>
        <time>2018-12-27T15:27:59Z</time>
      </trkpt>
      <trkpt lat="42.7642" lon="-0.37729">
        <ele>1731</ele>
        <time>2018-12-27T15:28:00Z</time>
      </trkpt>
      <trkpt lat="42.76428" lon="-0.37731">
        <ele>1732.1</ele>
        <time>2018-12-27T15:28:02Z</time>
      </trkpt>
      <trkpt lat="42.76428" lon="-0.37741">
        <ele>1732.9</ele>
        <time>2018-12-27T15:28:04Z</time>
      </trkpt>
      <trkpt lat="42.76426" lon="-0.37743">
        <ele>1733.9</ele>
        <time>2018-12-27T15:28:04Z</time>
      </trkpt>
      <trkpt lat="42.76424" lon="-0.37745">
        <ele>1733.5</ele>
        <time>2018-12-27T15:28:05Z</time>
      </trkpt>
      <trkpt lat="42.76421" lon="-0.37746">
        <ele>1733.9</ele>
        <time>2018-12-27T15:28:06Z</time>
      </trkpt>
      <trkpt lat="42.76415" lon="-0.37751">
        <ele>1735.8</ele>
        <time>2018-12-27T15:28:08Z</time>
      </trkpt>
      <trkpt lat="42.7641" lon="-0.37756">
        <ele>1735.9</ele>
        <time>2018-12-27T15:28:09Z</time>
      </trkpt>
      <trkpt lat="42.76404" lon="-0.37762">
        <ele>1736.9</ele>
        <time>2018-12-27T15:28:11Z</time>
      </trkpt>
      <trkpt lat="42.76399" lon="-0.37768">
        <ele>1740.6</ele>
        <time>2018-12-27T15:28:13Z</time>
      </trkpt>
      <trkpt lat="42.76392" lon="-0.37777">
        <ele>1741.1</ele>
        <time>2018-12-27T15:28:16Z</time>
      </trkpt>
      <trkpt lat="42.76387" lon="-0.37784">
        <ele>1742.1</ele>
        <time>2018-12-27T15:28:18Z</time>
      </trkpt>
      <trkpt lat="42.76386" lon="-0.37786">
        <ele>1743.1</ele>
        <time>2018-12-27T15:28:18Z</time>
      </trkpt>
      <trkpt lat="42.76382" lon="-0.37796">
        <ele>1744.5</ele>
        <time>2018-12-27T15:28:20Z</time>
      </trkpt>
      <trkpt lat="42.7638" lon="-0.378">
        <ele>1745.5</ele>
        <time>2018-12-27T15:28:21Z</time>
      </trkpt>
      <trkpt lat="42.76375" lon="-0.37809">
        <ele>1746</ele>
        <time>2018-12-27T15:28:24Z</time>
      </trkpt>
      <trkpt lat="42.76374" lon="-0.37811">
        <ele>1747.4</ele>
        <time>2018-12-27T15:28:24Z</time>
      </trkpt>
      <trkpt lat="42.76373" lon="-0.3782">
        <ele>1749.3</ele>
        <time>2018-12-27T15:28:26Z</time>
      </trkpt>
      <trkpt lat="42.76371" lon="-0.37824">
        <ele>1749.8</ele>
        <time>2018-12-27T15:28:27Z</time>
      </trkpt>
      <trkpt lat="42.76367" lon="-0.37832">
        <ele>1750.8</ele>
        <time>2018-12-27T15:28:29Z</time>
      </trkpt>
      <trkpt lat="42.76365" lon="-0.37836">
        <ele>1752.7</ele>
        <time>2018-12-27T15:28:30Z</time>
      </trkpt>
      <trkpt lat="42.76361" lon="-0.37843">
        <ele>1753.1</ele>
        <time>2018-12-27T15:28:31Z</time>
      </trkpt>
      <trkpt lat="42.76359" lon="-0.37848">
        <ele>1754.6</ele>
        <time>2018-12-27T15:28:33Z</time>
      </trkpt>
      <trkpt lat="42.76353" lon="-0.37859">
        <ele>1757.9</ele>
        <time>2018-12-27T15:28:35Z</time>
      </trkpt>
      <trkpt lat="42.76349" lon="-0.37867">
        <ele>1759.3</ele>
        <time>2018-12-27T15:28:37Z</time>
      </trkpt>
      <trkpt lat="42.76346" lon="-0.37872">
        <ele>1759.9</ele>
        <time>2018-12-27T15:28:38Z</time>
      </trkpt>
      <trkpt lat="42.76345" lon="-0.37877">
        <ele>1760.4</ele>
        <time>2018-12-27T15:28:39Z</time>
      </trkpt>
      <trkpt lat="42.76342" lon="-0.37887">
        <ele>1760.4</ele>
        <time>2018-12-27T15:28:41Z</time>
      </trkpt>
      <trkpt lat="42.76341" lon="-0.37896">
        <ele>1762.2</ele>
        <time>2018-12-27T15:28:43Z</time>
      </trkpt>
      <trkpt lat="42.76339" lon="-0.37906">
        <ele>1763.8</ele>
        <time>2018-12-27T15:28:45Z</time>
      </trkpt>
      <trkpt lat="42.76336" lon="-0.37914">
        <ele>1764.6</ele>
        <time>2018-12-27T15:28:47Z</time>
      </trkpt>
      <trkpt lat="42.76336" lon="-0.37917">
        <ele>1767.1</ele>
        <time>2018-12-27T15:28:48Z</time>
      </trkpt>
      <trkpt lat="42.76336" lon="-0.37924">
        <ele>1768</ele>
        <time>2018-12-27T15:28:49Z</time>
      </trkpt>
      <trkpt lat="42.76332" lon="-0.37931">
        <ele>1769</ele>
        <time>2018-12-27T15:28:51Z</time>
      </trkpt>
      <trkpt lat="42.76333" lon="-0.3794">
        <ele>1770.9</ele>
        <time>2018-12-27T15:28:52Z</time>
      </trkpt>
      <trkpt lat="42.76333" lon="-0.37943">
        <ele>1770</ele>
        <time>2018-12-27T15:28:53Z</time>
      </trkpt>
      <trkpt lat="42.76332" lon="-0.37949">
        <ele>1771.4</ele>
        <time>2018-12-27T15:28:54Z</time>
      </trkpt>
      <trkpt lat="42.76332" lon="-0.37953">
        <ele>1771.9</ele>
        <time>2018-12-27T15:28:55Z</time>
      </trkpt>
      <trkpt lat="42.76331" lon="-0.37953">
        <ele>1770.9</ele>
        <time>2018-12-27T15:28:55Z</time>
      </trkpt>
      <trkpt lat="42.76332" lon="-0.37953">
        <ele>1771.5</ele>
        <time>2018-12-27T15:28:55Z</time>
      </trkpt>
      <trkpt lat="42.76332" lon="-0.37955">
        <ele>1771.9</ele>
        <time>2018-12-27T15:28:56Z</time>
      </trkpt>
      <trkpt lat="42.76332" lon="-0.37954">
        <ele>1772</ele>
        <time>2018-12-27T15:28:56Z</time>
      </trkpt>
      <trkpt lat="42.76332" lon="-0.37955">
        <ele>1770.9</ele>
        <time>2018-12-27T15:28:56Z</time>
      </trkpt>
      <trkpt lat="42.76332" lon="-0.37955">
        <ele>1771.9</ele>
        <time>2018-12-27T15:28:56Z</time>
      </trkpt>
      <trkpt lat="42.76332" lon="-0.37953">
        <ele>1771.9</ele>
        <time>2018-12-27T15:28:57Z</time>
      </trkpt>
      <trkpt lat="42.76332" lon="-0.37954">
        <ele>1772.4</ele>
        <time>2018-12-27T15:28:57Z</time>
      </trkpt>
      <trkpt lat="42.76331" lon="-0.37951">
        <ele>1772.3</ele>
        <time>2018-12-27T15:28:58Z</time>
      </trkpt>
      <trkpt lat="42.76331" lon="-0.37953">
        <ele>1772.3</ele>
        <time>2018-12-27T15:28:58Z</time>
      </trkpt>
      <trkpt lat="42.76332" lon="-0.37953">
        <ele>1772.4</ele>
        <time>2018-12-27T15:28:58Z</time>
      </trkpt>
      <trkpt lat="42.76332" lon="-0.37953">
        <ele>1772.8</ele>
        <time>2018-12-27T15:28:58Z</time>
      </trkpt>
      <trkpt lat="42.76332" lon="-0.37954">
        <ele>1772.3</ele>
        <time>2018-12-27T15:28:58Z</time>
      </trkpt>
      <trkpt lat="42.76332" lon="-0.37953">
        <ele>1772.8</ele>
        <time>2018-12-27T15:28:59Z</time>
      </trkpt>
      <trkpt lat="42.76331" lon="-0.37952">
        <ele>1773.3</ele>
        <time>2018-12-27T15:28:59Z</time>
      </trkpt>
      <trkpt lat="42.76332" lon="-0.37952">
        <ele>1772.9</ele>
        <time>2018-12-27T15:28:59Z</time>
      </trkpt>
      <trkpt lat="42.76332" lon="-0.37951">
        <ele>1773.3</ele>
        <time>2018-12-27T15:28:59Z</time>
      </trkpt>
      <trkpt lat="42.76332" lon="-0.37952">
        <ele>1773.3</ele>
        <time>2018-12-27T15:28:59Z</time>
      </trkpt>
      <trkpt lat="42.76333" lon="-0.37952">
        <ele>1772.8</ele>
        <time>2018-12-27T15:29:00Z</time>
      </trkpt>
      <trkpt lat="42.76334" lon="-0.37953">
        <ele>1772.9</ele>
        <time>2018-12-27T15:29:00Z</time>
      </trkpt>
      <trkpt lat="42.76336" lon="-0.37952">
        <ele>1772.3</ele>
        <time>2018-12-27T15:29:00Z</time>
      </trkpt>
      <trkpt lat="42.76336" lon="-0.37952">
        <ele>1772.8</ele>
        <time>2018-12-27T15:29:00Z</time>
      </trkpt>
      <trkpt lat="42.76336" lon="-0.37951">
        <ele>1773.4</ele>
        <time>2018-12-27T15:29:01Z</time>
      </trkpt>
      <trkpt lat="42.76337" lon="-0.37952">
        <ele>1773.4</ele>
        <time>2018-12-27T15:29:01Z</time>
      </trkpt>
      <trkpt lat="42.76338" lon="-0.37952">
        <ele>1773.3</ele>
        <time>2018-12-27T15:29:01Z</time>
      </trkpt>
      <trkpt lat="42.76337" lon="-0.37952">
        <ele>1773.9</ele>
        <time>2018-12-27T15:29:02Z</time>
      </trkpt>
      <trkpt lat="42.76333" lon="-0.37953">
        <ele>1773.3</ele>
        <time>2018-12-27T15:29:02Z</time>
      </trkpt>
      <trkpt lat="42.76332" lon="-0.37953">
        <ele>1773.3</ele>
        <time>2018-12-27T15:29:03Z</time>
      </trkpt>
      <trkpt lat="42.76331" lon="-0.37953">
        <ele>1773.8</ele>
        <time>2018-12-27T15:29:03Z</time>
      </trkpt>
      <trkpt lat="42.76332" lon="-0.37954">
        <ele>1774.3</ele>
        <time>2018-12-27T15:29:03Z</time>
      </trkpt>
      <trkpt lat="42.76333" lon="-0.37953">
        <ele>1773.8</ele>
        <time>2018-12-27T15:29:04Z</time>
      </trkpt>
      <trkpt lat="42.76334" lon="-0.37954">
        <ele>1774.2</ele>
        <time>2018-12-27T15:29:04Z</time>
      </trkpt>
      <trkpt lat="42.76334" lon="-0.37954">
        <ele>1774.8</ele>
        <time>2018-12-27T15:29:04Z</time>
      </trkpt>
      <trkpt lat="42.76332" lon="-0.37953">
        <ele>1774.8</ele>
        <time>2018-12-27T15:29:04Z</time>
      </trkpt>
      <trkpt lat="42.76332" lon="-0.37952">
        <ele>1774.3</ele>
        <time>2018-12-27T15:29:05Z</time>
      </trkpt>
      <trkpt lat="42.76332" lon="-0.37953">
        <ele>1774.3</ele>
        <time>2018-12-27T15:29:05Z</time>
      </trkpt>
      <trkpt lat="42.76333" lon="-0.37953">
        <ele>1774.8</ele>
        <time>2018-12-27T15:29:05Z</time>
      </trkpt>
      <trkpt lat="42.76333" lon="-0.37953">
        <ele>1775.8</ele>
        <time>2018-12-27T15:29:05Z</time>
      </trkpt>
      <trkpt lat="42.76333" lon="-0.37953">
        <ele>1774.7</ele>
        <time>2018-12-27T15:29:05Z</time>
      </trkpt>
      <trkpt lat="42.76333" lon="-0.37951">
        <ele>1774.2</ele>
        <time>2018-12-27T15:29:05Z</time>
      </trkpt>
      <trkpt lat="42.76333" lon="-0.3795">
        <ele>1772.9</ele>
        <time>2018-12-27T15:29:06Z</time>
      </trkpt>
      <trkpt lat="42.76332" lon="-0.3795">
        <ele>1779.2</ele>
        <time>2018-12-27T15:29:06Z</time>
      </trkpt>
      <trkpt lat="42.76332" lon="-0.37951">
        <ele>1775.3</ele>
        <time>2018-12-27T15:29:06Z</time>
      </trkpt>
      <trkpt lat="42.76332" lon="-0.37951">
        <ele>1769.1</ele>
        <time>2018-12-27T15:29:06Z</time>
      </trkpt>
      <trkpt lat="42.76332" lon="-0.37951">
        <ele>1777.2</ele>
        <time>2018-12-27T15:29:06Z</time>
      </trkpt>
      <trkpt lat="42.76332" lon="-0.37951">
        <ele>1773.4</ele>
        <time>2018-12-27T15:29:06Z</time>
      </trkpt>
      <trkpt lat="42.76331" lon="-0.37952">
        <ele>1777.1</ele>
        <time>2018-12-27T15:29:06Z</time>
      </trkpt>
      <trkpt lat="42.76332" lon="-0.37952">
        <ele>1773.9</ele>
        <time>2018-12-27T15:29:06Z</time>
      </trkpt>
      <trkpt lat="42.76331" lon="-0.37952">
        <ele>1778.6</ele>
        <time>2018-12-27T15:29:06Z</time>
      </trkpt>
      <trkpt lat="42.76331" lon="-0.37952">
        <ele>1776.2</ele>
        <time>2018-12-27T15:29:06Z</time>
      </trkpt>
      <trkpt lat="42.76331" lon="-0.37953">
        <ele>1779.5</ele>
        <time>2018-12-27T15:29:06Z</time>
      </trkpt>
      <trkpt lat="42.76331" lon="-0.37953">
        <ele>1772.3</ele>
        <time>2018-12-27T15:29:07Z</time>
      </trkpt>
      <trkpt lat="42.76331" lon="-0.37953">
        <ele>1772.4</ele>
        <time>2018-12-27T15:29:07Z</time>
      </trkpt>
      <trkpt lat="42.7633" lon="-0.37953">
        <ele>1776.3</ele>
        <time>2018-12-27T15:29:07Z</time>
      </trkpt>
      <trkpt lat="42.76329" lon="-0.37954">
        <ele>1775.8</ele>
        <time>2018-12-27T15:29:07Z</time>
      </trkpt>
      <trkpt lat="42.76328" lon="-0.37955">
        <ele>1774.7</ele>
        <time>2018-12-27T15:29:08Z</time>
      </trkpt>
      <trkpt lat="42.76325" lon="-0.37957">
        <ele>1782.1</ele>
        <time>2018-12-27T15:29:08Z</time>
      </trkpt>
      <trkpt lat="42.76324" lon="-0.37957">
        <ele>1777.7</ele>
        <time>2018-12-27T15:29:09Z</time>
      </trkpt>
      <trkpt lat="42.76314" lon="-0.37966">
        <ele>1777.2</ele>
        <time>2018-12-27T15:29:12Z</time>
      </trkpt>
      <trkpt lat="42.76305" lon="-0.37974">
        <ele>1779.2</ele>
        <time>2018-12-27T15:29:15Z</time>
      </trkpt>
      <trkpt lat="42.76295" lon="-0.37981">
        <ele>1780.5</ele>
        <time>2018-12-27T15:29:18Z</time>
      </trkpt>
      <trkpt lat="42.76294" lon="-0.37982">
        <ele>1780</ele>
        <time>2018-12-27T15:29:18Z</time>
      </trkpt>
      <trkpt lat="42.7629" lon="-0.37986">
        <ele>1781.1</ele>
        <time>2018-12-27T15:29:19Z</time>
      </trkpt>
      <trkpt lat="42.7628" lon="-0.37994">
        <ele>1781.6</ele>
        <time>2018-12-27T15:29:22Z</time>
      </trkpt>
      <trkpt lat="42.76271" lon="-0.37998">
        <ele>1782.9</ele>
        <time>2018-12-27T15:29:25Z</time>
      </trkpt>
      <trkpt lat="42.7626" lon="-0.38002">
        <ele>1784</ele>
        <time>2018-12-27T15:29:28Z</time>
      </trkpt>
      <trkpt lat="42.76249" lon="-0.38005">
        <ele>1785.4</ele>
        <time>2018-12-27T15:29:31Z</time>
      </trkpt>
      <trkpt lat="42.7624" lon="-0.38005">
        <ele>1787.3</ele>
        <time>2018-12-27T15:29:33Z</time>
      </trkpt>
      <trkpt lat="42.76234" lon="-0.38011">
        <ele>1787.3</ele>
        <time>2018-12-27T15:29:35Z</time>
      </trkpt>
      <trkpt lat="42.76234" lon="-0.38013">
        <ele>1789.7</ele>
        <time>2018-12-27T15:29:36Z</time>
      </trkpt>
      <trkpt lat="42.76232" lon="-0.38027">
        <ele>1789.6</ele>
        <time>2018-12-27T15:29:39Z</time>
      </trkpt>
      <trkpt lat="42.7623" lon="-0.3804">
        <ele>1791.1</ele>
        <time>2018-12-27T15:29:41Z</time>
      </trkpt>
      <trkpt lat="42.76225" lon="-0.38049">
        <ele>1790.6</ele>
        <time>2018-12-27T15:29:43Z</time>
      </trkpt>
      <trkpt lat="42.76225" lon="-0.38057">
        <ele>1792</ele>
        <time>2018-12-27T15:29:45Z</time>
      </trkpt>
      <trkpt lat="42.7622" lon="-0.38066">
        <ele>1793</ele>
        <time>2018-12-27T15:29:47Z</time>
      </trkpt>
      <trkpt lat="42.76217" lon="-0.38076">
        <ele>1794.9</ele>
        <time>2018-12-27T15:29:49Z</time>
      </trkpt>
      <trkpt lat="42.76214" lon="-0.38084">
        <ele>1797.4</ele>
        <time>2018-12-27T15:29:51Z</time>
      </trkpt>
      <trkpt lat="42.76211" lon="-0.38091">
        <ele>1800.2</ele>
        <time>2018-12-27T15:29:52Z</time>
      </trkpt>
      <trkpt lat="42.76209" lon="-0.38098">
        <ele>1800.3</ele>
        <time>2018-12-27T15:29:54Z</time>
      </trkpt>
      <trkpt lat="42.76208" lon="-0.38099">
        <ele>1801.6</ele>
        <time>2018-12-27T15:29:54Z</time>
      </trkpt>
      <trkpt lat="42.76206" lon="-0.38105">
        <ele>1803.6</ele>
        <time>2018-12-27T15:29:56Z</time>
      </trkpt>
      <trkpt lat="42.76203" lon="-0.38108">
        <ele>1804.6</ele>
        <time>2018-12-27T15:29:57Z</time>
      </trkpt>
      <trkpt lat="42.76201" lon="-0.38112">
        <ele>1805.5</ele>
        <time>2018-12-27T15:29:58Z</time>
      </trkpt>
      <trkpt lat="42.76197" lon="-0.38117">
        <ele>1807.4</ele>
        <time>2018-12-27T15:29:59Z</time>
      </trkpt>
      <trkpt lat="42.76197" lon="-0.3812">
        <ele>1808</ele>
        <time>2018-12-27T15:29:59Z</time>
      </trkpt>
      <trkpt lat="42.76201" lon="-0.38126">
        <ele>1809.9</ele>
        <time>2018-12-27T15:30:01Z</time>
      </trkpt>
      <trkpt lat="42.76201" lon="-0.38128">
        <ele>1811.7</ele>
        <time>2018-12-27T15:30:01Z</time>
      </trkpt>
      <trkpt lat="42.76203" lon="-0.38134">
        <ele>1810.9</ele>
        <time>2018-12-27T15:30:03Z</time>
      </trkpt>
      <trkpt lat="42.76204" lon="-0.38137">
        <ele>1811.7</ele>
        <time>2018-12-27T15:30:03Z</time>
      </trkpt>
      <trkpt lat="42.76206" lon="-0.38142">
        <ele>1812.3</ele>
        <time>2018-12-27T15:30:04Z</time>
      </trkpt>
      <trkpt lat="42.76207" lon="-0.38146">
        <ele>1813.7</ele>
        <time>2018-12-27T15:30:05Z</time>
      </trkpt>
      <trkpt lat="42.76206" lon="-0.3815">
        <ele>1814.6</ele>
        <time>2018-12-27T15:30:06Z</time>
      </trkpt>
      <trkpt lat="42.76204" lon="-0.38155">
        <ele>1816.1</ele>
        <time>2018-12-27T15:30:07Z</time>
      </trkpt>
      <trkpt lat="42.76202" lon="-0.38162">
        <ele>1817</ele>
        <time>2018-12-27T15:30:09Z</time>
      </trkpt>
      <trkpt lat="42.76199" lon="-0.38169">
        <ele>1818.5</ele>
        <time>2018-12-27T15:30:10Z</time>
      </trkpt>
      <trkpt lat="42.76198" lon="-0.38172">
        <ele>1819.1</ele>
        <time>2018-12-27T15:30:11Z</time>
      </trkpt>
      <trkpt lat="42.76198" lon="-0.38173">
        <ele>1819</ele>
        <time>2018-12-27T15:30:11Z</time>
      </trkpt>
      <trkpt lat="42.76198" lon="-0.38182">
        <ele>1821</ele>
        <time>2018-12-27T15:30:13Z</time>
      </trkpt>
      <trkpt lat="42.76204" lon="-0.38189">
        <ele>1821.9</ele>
        <time>2018-12-27T15:30:15Z</time>
      </trkpt>
      <trkpt lat="42.76209" lon="-0.38193">
        <ele>1823.4</ele>
        <time>2018-12-27T15:30:16Z</time>
      </trkpt>
      <trkpt lat="42.76215" lon="-0.38198">
        <ele>1824.7</ele>
        <time>2018-12-27T15:30:18Z</time>
      </trkpt>
      <trkpt lat="42.7622" lon="-0.382">
        <ele>1826.7</ele>
        <time>2018-12-27T15:30:20Z</time>
      </trkpt>
      <trkpt lat="42.76228" lon="-0.38201">
        <ele>1827.6</ele>
        <time>2018-12-27T15:30:22Z</time>
      </trkpt>
      <trkpt lat="42.76233" lon="-0.38203">
        <ele>1829.6</ele>
        <time>2018-12-27T15:30:23Z</time>
      </trkpt>
      <trkpt lat="42.76238" lon="-0.38206">
        <ele>1831.5</ele>
        <time>2018-12-27T15:30:25Z</time>
      </trkpt>
      <trkpt lat="42.76246" lon="-0.38205">
        <ele>1832.9</ele>
        <time>2018-12-27T15:30:27Z</time>
      </trkpt>
      <trkpt lat="42.76252" lon="-0.38207">
        <ele>1833.9</ele>
        <time>2018-12-27T15:30:28Z</time>
      </trkpt>
      <trkpt lat="42.76261" lon="-0.38209">
        <ele>1835.8</ele>
        <time>2018-12-27T15:30:31Z</time>
      </trkpt>
      <trkpt lat="42.76269" lon="-0.38211">
        <ele>1837.3</ele>
        <time>2018-12-27T15:30:33Z</time>
      </trkpt>
      <trkpt lat="42.76274" lon="-0.38207">
        <ele>1837.3</ele>
        <time>2018-12-27T15:30:34Z</time>
      </trkpt>
      <trkpt lat="42.76276" lon="-0.38207">
        <ele>1837.8</ele>
        <time>2018-12-27T15:30:35Z</time>
      </trkpt>
      <trkpt lat="42.76282" lon="-0.38209">
        <ele>1840.1</ele>
        <time>2018-12-27T15:30:37Z</time>
      </trkpt>
      <trkpt lat="42.76287" lon="-0.38214">
        <ele>1841.1</ele>
        <time>2018-12-27T15:30:38Z</time>
      </trkpt>
      <trkpt lat="42.76293" lon="-0.38222">
        <ele>1843</ele>
        <time>2018-12-27T15:30:40Z</time>
      </trkpt>
      <trkpt lat="42.76297" lon="-0.38228">
        <ele>1845.5</ele>
        <time>2018-12-27T15:30:42Z</time>
      </trkpt>
      <trkpt lat="42.76299" lon="-0.38228">
        <ele>1845.4</ele>
        <time>2018-12-27T15:30:43Z</time>
      </trkpt>
      <trkpt lat="42.76299" lon="-0.38229">
        <ele>1844.9</ele>
        <time>2018-12-27T15:30:43Z</time>
      </trkpt>
      <trkpt lat="42.76301" lon="-0.38233">
        <ele>1845.5</ele>
        <time>2018-12-27T15:30:44Z</time>
      </trkpt>
      <trkpt lat="42.76301" lon="-0.38238">
        <ele>1846.5</ele>
        <time>2018-12-27T15:30:45Z</time>
      </trkpt>
      <trkpt lat="42.76303" lon="-0.3825">
        <ele>1846.8</ele>
        <time>2018-12-27T15:30:47Z</time>
      </trkpt>
      <trkpt lat="42.76305" lon="-0.38262">
        <ele>1848.8</ele>
        <time>2018-12-27T15:30:49Z</time>
      </trkpt>
      <trkpt lat="42.7631" lon="-0.38274">
        <ele>1848.8</ele>
        <time>2018-12-27T15:30:52Z</time>
      </trkpt>
      <trkpt lat="42.76313" lon="-0.38282">
        <ele>1848.8</ele>
        <time>2018-12-27T15:30:54Z</time>
      </trkpt>
      <trkpt lat="42.76313" lon="-0.38287">
        <ele>1849.3</ele>
        <time>2018-12-27T15:30:55Z</time>
      </trkpt>
      <trkpt lat="42.76316" lon="-0.383">
        <ele>1849.8</ele>
        <time>2018-12-27T15:30:58Z</time>
      </trkpt>
      <trkpt lat="42.76319" lon="-0.38309">
        <ele>1851.7</ele>
        <time>2018-12-27T15:30:59Z</time>
      </trkpt>
      <trkpt lat="42.76319" lon="-0.38312">
        <ele>1852.6</ele>
        <time>2018-12-27T15:31:00Z</time>
      </trkpt>
      <trkpt lat="42.76321" lon="-0.3832">
        <ele>1852.1</ele>
        <time>2018-12-27T15:31:02Z</time>
      </trkpt>
      <trkpt lat="42.76323" lon="-0.3833">
        <ele>1852.7</ele>
        <time>2018-12-27T15:31:04Z</time>
      </trkpt>
      <trkpt lat="42.76324" lon="-0.38333">
        <ele>1848.9</ele>
        <time>2018-12-27T15:31:04Z</time>
      </trkpt>
      <trkpt lat="42.76324" lon="-0.38334">
        <ele>1854.1</ele>
        <time>2018-12-27T15:31:05Z</time>
      </trkpt>
      <trkpt lat="42.76324" lon="-0.38335">
        <ele>1850.8</ele>
        <time>2018-12-27T15:31:05Z</time>
      </trkpt>
      <trkpt lat="42.76325" lon="-0.38336">
        <ele>1854.5</ele>
        <time>2018-12-27T15:31:05Z</time>
      </trkpt>
      <trkpt lat="42.76325" lon="-0.38339">
        <ele>1852.1</ele>
        <time>2018-12-27T15:31:06Z</time>
      </trkpt>
      <trkpt lat="42.76328" lon="-0.38352">
        <ele>1852.7</ele>
        <time>2018-12-27T15:31:08Z</time>
      </trkpt>
      <trkpt lat="42.76331" lon="-0.38366">
        <ele>1856</ele>
        <time>2018-12-27T15:31:11Z</time>
      </trkpt>
      <trkpt lat="42.76334" lon="-0.3838">
        <ele>1853.5</ele>
        <time>2018-12-27T15:31:14Z</time>
      </trkpt>
      <trkpt lat="42.76336" lon="-0.38395">
        <ele>1856.4</ele>
        <time>2018-12-27T15:31:17Z</time>
      </trkpt>
      <trkpt lat="42.76338" lon="-0.3841">
        <ele>1856</ele>
        <time>2018-12-27T15:31:20Z</time>
      </trkpt>
      <trkpt lat="42.7634" lon="-0.38432">
        <ele>1857.4</ele>
        <time>2018-12-27T15:31:24Z</time>
      </trkpt>
      <trkpt lat="42.76338" lon="-0.38447">
        <ele>1859.8</ele>
        <time>2018-12-27T15:31:27Z</time>
      </trkpt>
      <trkpt lat="42.76335" lon="-0.38454">
        <ele>1859.8</ele>
        <time>2018-12-27T15:31:29Z</time>
      </trkpt>
      <trkpt lat="42.76335" lon="-0.38452">
        <ele>1856.9</ele>
        <time>2018-12-27T15:31:29Z</time>
      </trkpt>
      <trkpt lat="42.76335" lon="-0.38452">
        <ele>1862.3</ele>
        <time>2018-12-27T15:31:29Z</time>
      </trkpt>
      <trkpt lat="42.76334" lon="-0.38452">
        <ele>1858.9</ele>
        <time>2018-12-27T15:31:30Z</time>
      </trkpt>
      <trkpt lat="42.76335" lon="-0.38455">
        <ele>1859.8</ele>
        <time>2018-12-27T15:31:30Z</time>
      </trkpt>
      <trkpt lat="42.76334" lon="-0.38458">
        <ele>1861.8</ele>
        <time>2018-12-27T15:31:31Z</time>
      </trkpt>
      <trkpt lat="42.76329" lon="-0.38463">
        <ele>1860.8</ele>
        <time>2018-12-27T15:31:33Z</time>
      </trkpt>
      <trkpt lat="42.76321" lon="-0.38469">
        <ele>1863.6</ele>
        <time>2018-12-27T15:31:35Z</time>
      </trkpt>
      <trkpt lat="42.7632" lon="-0.38471">
        <ele>1864.1</ele>
        <time>2018-12-27T15:31:36Z</time>
      </trkpt>
      <trkpt lat="42.76317" lon="-0.38473">
        <ele>1866.1</ele>
        <time>2018-12-27T15:31:37Z</time>
      </trkpt>
      <trkpt lat="42.76316" lon="-0.38473">
        <ele>1864.7</ele>
        <time>2018-12-27T15:31:37Z</time>
      </trkpt>
      <trkpt lat="42.76312" lon="-0.38476">
        <ele>1866.5</ele>
        <time>2018-12-27T15:31:38Z</time>
      </trkpt>
      <trkpt lat="42.7631" lon="-0.38477">
        <ele>1865.1</ele>
        <time>2018-12-27T15:31:38Z</time>
      </trkpt>
      <trkpt lat="42.76308" lon="-0.38478">
        <ele>1868.6</ele>
        <time>2018-12-27T15:31:39Z</time>
      </trkpt>
      <trkpt lat="42.76304" lon="-0.38481">
        <ele>1865.6</ele>
        <time>2018-12-27T15:31:40Z</time>
      </trkpt>
      <trkpt lat="42.76303" lon="-0.38481">
        <ele>1868.9</ele>
        <time>2018-12-27T15:31:41Z</time>
      </trkpt>
      <trkpt lat="42.76302" lon="-0.38481">
        <ele>1867.6</ele>
        <time>2018-12-27T15:31:41Z</time>
      </trkpt>
      <trkpt lat="42.76296" lon="-0.38486">
        <ele>1868.5</ele>
        <time>2018-12-27T15:31:43Z</time>
      </trkpt>
      <trkpt lat="42.76295" lon="-0.38486">
        <ele>1868.9</ele>
        <time>2018-12-27T15:31:43Z</time>
      </trkpt>
      <trkpt lat="42.76288" lon="-0.38487">
        <ele>1870.4</ele>
        <time>2018-12-27T15:31:45Z</time>
      </trkpt>
      <trkpt lat="42.76282" lon="-0.38485">
        <ele>1870</ele>
        <time>2018-12-27T15:31:46Z</time>
      </trkpt>
      <trkpt lat="42.76276" lon="-0.38479">
        <ele>1871.5</ele>
        <time>2018-12-27T15:31:49Z</time>
      </trkpt>
      <trkpt lat="42.76269" lon="-0.38471">
        <ele>1871.4</ele>
        <time>2018-12-27T15:31:51Z</time>
      </trkpt>
      <trkpt lat="42.76263" lon="-0.38462">
        <ele>1872.3</ele>
        <time>2018-12-27T15:31:53Z</time>
      </trkpt>
      <trkpt lat="42.76261" lon="-0.3846">
        <ele>1872.8</ele>
        <time>2018-12-27T15:31:54Z</time>
      </trkpt>
      <trkpt lat="42.76256" lon="-0.38456">
        <ele>1872.4</ele>
        <time>2018-12-27T15:31:56Z</time>
      </trkpt>
      <trkpt lat="42.76253" lon="-0.38454">
        <ele>1872.8</ele>
        <time>2018-12-27T15:31:56Z</time>
      </trkpt>
      <trkpt lat="42.76253" lon="-0.38447">
        <ele>1872.8</ele>
        <time>2018-12-27T15:31:58Z</time>
      </trkpt>
      <trkpt lat="42.76256" lon="-0.38428">
        <ele>1872.3</ele>
        <time>2018-12-27T15:32:02Z</time>
      </trkpt>
      <trkpt lat="42.76254" lon="-0.38424">
        <ele>1873.8</ele>
        <time>2018-12-27T15:32:03Z</time>
      </trkpt>
      <trkpt lat="42.76253" lon="-0.38425">
        <ele>1873.8</ele>
        <time>2018-12-27T15:32:03Z</time>
      </trkpt>
      <trkpt lat="42.76253" lon="-0.3843">
        <ele>1873.8</ele>
        <time>2018-12-27T15:32:04Z</time>
      </trkpt>
      <trkpt lat="42.76251" lon="-0.38445">
        <ele>1872.9</ele>
        <time>2018-12-27T15:32:07Z</time>
      </trkpt>
      <trkpt lat="42.76245" lon="-0.38454">
        <ele>1873.3</ele>
        <time>2018-12-27T15:32:09Z</time>
      </trkpt>
      <trkpt lat="42.76242" lon="-0.3846">
        <ele>1874.3</ele>
        <time>2018-12-27T15:32:11Z</time>
      </trkpt>
      <trkpt lat="42.76237" lon="-0.38467">
        <ele>1875.8</ele>
        <time>2018-12-27T15:32:13Z</time>
      </trkpt>
      <trkpt lat="42.76227" lon="-0.38463">
        <ele>1875.3</ele>
        <time>2018-12-27T15:32:15Z</time>
      </trkpt>
      <trkpt lat="42.7622" lon="-0.38466">
        <ele>1876.2</ele>
        <time>2018-12-27T15:32:17Z</time>
      </trkpt>
      <trkpt lat="42.76219" lon="-0.38466">
        <ele>1875.8</ele>
        <time>2018-12-27T15:32:17Z</time>
      </trkpt>
      <trkpt lat="42.7621" lon="-0.38466">
        <ele>1875.7</ele>
        <time>2018-12-27T15:32:20Z</time>
      </trkpt>
      <trkpt lat="42.76199" lon="-0.38468">
        <ele>1875.7</ele>
        <time>2018-12-27T15:32:23Z</time>
      </trkpt>
      <trkpt lat="42.7619" lon="-0.38472">
        <ele>1876.6</ele>
        <time>2018-12-27T15:32:25Z</time>
      </trkpt>
      <trkpt lat="42.76184" lon="-0.38475">
        <ele>1877.7</ele>
        <time>2018-12-27T15:32:27Z</time>
      </trkpt>
      <trkpt lat="42.76183" lon="-0.38475">
        <ele>1877.7</ele>
        <time>2018-12-27T15:32:27Z</time>
      </trkpt>
      <trkpt lat="42.76181" lon="-0.38473">
        <ele>1878.5</ele>
        <time>2018-12-27T15:32:28Z</time>
      </trkpt>
      <trkpt lat="42.76179" lon="-0.38474">
        <ele>1877.7</ele>
        <time>2018-12-27T15:32:28Z</time>
      </trkpt>
      <trkpt lat="42.7617" lon="-0.3848">
        <ele>1877.6</ele>
        <time>2018-12-27T15:32:31Z</time>
      </trkpt>
      <trkpt lat="42.76158" lon="-0.38488">
        <ele>1877.7</ele>
        <time>2018-12-27T15:32:35Z</time>
      </trkpt>
      <trkpt lat="42.76145" lon="-0.38498">
        <ele>1878.6</ele>
        <time>2018-12-27T15:32:39Z</time>
      </trkpt>
      <trkpt lat="42.76137" lon="-0.38507">
        <ele>1880</ele>
        <time>2018-12-27T15:32:41Z</time>
      </trkpt>
      <trkpt lat="42.76133" lon="-0.3852">
        <ele>1880.5</ele>
        <time>2018-12-27T15:32:44Z</time>
      </trkpt>
      <trkpt lat="42.7613" lon="-0.38531">
        <ele>1881</ele>
        <time>2018-12-27T15:32:46Z</time>
      </trkpt>
      <trkpt lat="42.76123" lon="-0.3854">
        <ele>1881.9</ele>
        <time>2018-12-27T15:32:49Z</time>
      </trkpt>
      <trkpt lat="42.76119" lon="-0.38552">
        <ele>1880.5</ele>
        <time>2018-12-27T15:32:52Z</time>
      </trkpt>
      <trkpt lat="42.76114" lon="-0.38562">
        <ele>1882.5</ele>
        <time>2018-12-27T15:32:54Z</time>
      </trkpt>
      <trkpt lat="42.76113" lon="-0.3857">
        <ele>1882.5</ele>
        <time>2018-12-27T15:32:56Z</time>
      </trkpt>
      <trkpt lat="42.76112" lon="-0.38577">
        <ele>1882.4</ele>
        <time>2018-12-27T15:32:57Z</time>
      </trkpt>
      <trkpt lat="42.76112" lon="-0.38576">
        <ele>1882.9</ele>
        <time>2018-12-27T15:32:57Z</time>
      </trkpt>
      <trkpt lat="42.76113" lon="-0.38577">
        <ele>1882.4</ele>
        <time>2018-12-27T15:32:58Z</time>
      </trkpt>
      <trkpt lat="42.76113" lon="-0.3858">
        <ele>1882.4</ele>
        <time>2018-12-27T15:32:58Z</time>
      </trkpt>
      <trkpt lat="42.76112" lon="-0.38581">
        <ele>1883</ele>
        <time>2018-12-27T15:32:59Z</time>
      </trkpt>
      <trkpt lat="42.76112" lon="-0.38577">
        <ele>1883.4</ele>
        <time>2018-12-27T15:32:59Z</time>
      </trkpt>
      <trkpt lat="42.76112" lon="-0.38579">
        <ele>1884.3</ele>
        <time>2018-12-27T15:33:00Z</time>
      </trkpt>
      <trkpt lat="42.76109" lon="-0.38588">
        <ele>1884.8</ele>
        <time>2018-12-27T15:33:02Z</time>
      </trkpt>
      <trkpt lat="42.76103" lon="-0.38593">
        <ele>1883.9</ele>
        <time>2018-12-27T15:33:03Z</time>
      </trkpt>
      <trkpt lat="42.76099" lon="-0.38598">
        <ele>1884.8</ele>
        <time>2018-12-27T15:33:05Z</time>
      </trkpt>
      <trkpt lat="42.76096" lon="-0.38604">
        <ele>1883.9</ele>
        <time>2018-12-27T15:33:06Z</time>
      </trkpt>
      <trkpt lat="42.76093" lon="-0.3861">
        <ele>1883.9</ele>
        <time>2018-12-27T15:33:08Z</time>
      </trkpt>
      <trkpt lat="42.76092" lon="-0.38615">
        <ele>1882.4</ele>
        <time>2018-12-27T15:33:09Z</time>
      </trkpt>
      <trkpt lat="42.76091" lon="-0.38616">
        <ele>1883.8</ele>
        <time>2018-12-27T15:33:09Z</time>
      </trkpt>
      <trkpt lat="42.76089" lon="-0.38624">
        <ele>1880.6</ele>
        <time>2018-12-27T15:33:11Z</time>
      </trkpt>
      <trkpt lat="42.76089" lon="-0.38625">
        <ele>1884.3</ele>
        <time>2018-12-27T15:33:11Z</time>
      </trkpt>
      <trkpt lat="42.76088" lon="-0.38626">
        <ele>1883.8</ele>
        <time>2018-12-27T15:33:11Z</time>
      </trkpt>
      <trkpt lat="42.76087" lon="-0.38633">
        <ele>1882.4</ele>
        <time>2018-12-27T15:33:13Z</time>
      </trkpt>
      <trkpt lat="42.76088" lon="-0.38642">
        <ele>1881.4</ele>
        <time>2018-12-27T15:33:14Z</time>
      </trkpt>
      <trkpt lat="42.76089" lon="-0.38645">
        <ele>1881</ele>
        <time>2018-12-27T15:33:15Z</time>
      </trkpt>
      <trkpt lat="42.76089" lon="-0.38646">
        <ele>1881</ele>
        <time>2018-12-27T15:33:15Z</time>
      </trkpt>
      <trkpt lat="42.7609" lon="-0.38658">
        <ele>1879.5</ele>
        <time>2018-12-27T15:33:17Z</time>
      </trkpt>
      <trkpt lat="42.76092" lon="-0.38661">
        <ele>1878.6</ele>
        <time>2018-12-27T15:33:18Z</time>
      </trkpt>
      <trkpt lat="42.76093" lon="-0.38674">
        <ele>1876.2</ele>
        <time>2018-12-27T15:33:21Z</time>
      </trkpt>
      <trkpt lat="42.76095" lon="-0.38684">
        <ele>1875.8</ele>
        <time>2018-12-27T15:33:23Z</time>
      </trkpt>
      <trkpt lat="42.76096" lon="-0.38695">
        <ele>1874.2</ele>
        <time>2018-12-27T15:33:25Z</time>
      </trkpt>
      <trkpt lat="42.76097" lon="-0.38708">
        <ele>1871.8</ele>
        <time>2018-12-27T15:33:28Z</time>
      </trkpt>
      <trkpt lat="42.76097" lon="-0.38718">
        <ele>1870.9</ele>
        <time>2018-12-27T15:33:30Z</time>
      </trkpt>
      <trkpt lat="42.76098" lon="-0.38726">
        <ele>1869.9</ele>
        <time>2018-12-27T15:33:31Z</time>
      </trkpt>
      <trkpt lat="42.76098" lon="-0.38735">
        <ele>1868.9</ele>
        <time>2018-12-27T15:33:33Z</time>
      </trkpt>
      <trkpt lat="42.76101" lon="-0.38753">
        <ele>1868</ele>
        <time>2018-12-27T15:33:37Z</time>
      </trkpt>
      <trkpt lat="42.76103" lon="-0.38767">
        <ele>1867.6</ele>
        <time>2018-12-27T15:33:39Z</time>
      </trkpt>
      <trkpt lat="42.76105" lon="-0.38781">
        <ele>1866.5</ele>
        <time>2018-12-27T15:33:42Z</time>
      </trkpt>
      <trkpt lat="42.76105" lon="-0.38782">
        <ele>1866.5</ele>
        <time>2018-12-27T15:33:42Z</time>
      </trkpt>
      <trkpt lat="42.76106" lon="-0.38798">
        <ele>1865.1</ele>
        <time>2018-12-27T15:33:46Z</time>
      </trkpt>
      <trkpt lat="42.76105" lon="-0.38799">
        <ele>1865.1</ele>
        <time>2018-12-27T15:33:46Z</time>
      </trkpt>
      <trkpt lat="42.76103" lon="-0.38809">
        <ele>1864.7</ele>
        <time>2018-12-27T15:33:48Z</time>
      </trkpt>
      <trkpt lat="42.761" lon="-0.38827">
        <ele>1863.7</ele>
        <time>2018-12-27T15:33:51Z</time>
      </trkpt>
      <trkpt lat="42.76098" lon="-0.38837">
        <ele>1862.3</ele>
        <time>2018-12-27T15:33:53Z</time>
      </trkpt>
      <trkpt lat="42.76097" lon="-0.38841">
        <ele>1862.7</ele>
        <time>2018-12-27T15:33:54Z</time>
      </trkpt>
      <trkpt lat="42.76091" lon="-0.38857">
        <ele>1861.3</ele>
        <time>2018-12-27T15:33:58Z</time>
      </trkpt>
      <trkpt lat="42.76089" lon="-0.38866">
        <ele>1860.9</ele>
        <time>2018-12-27T15:34:00Z</time>
      </trkpt>
      <trkpt lat="42.76086" lon="-0.38878">
        <ele>1859.3</ele>
        <time>2018-12-27T15:34:02Z</time>
      </trkpt>
      <trkpt lat="42.76085" lon="-0.38883">
        <ele>1859.9</ele>
        <time>2018-12-27T15:34:03Z</time>
      </trkpt>
      <trkpt lat="42.76083" lon="-0.38896">
        <ele>1857.9</ele>
        <time>2018-12-27T15:34:06Z</time>
      </trkpt>
      <trkpt lat="42.76079" lon="-0.38908">
        <ele>1858</ele>
        <time>2018-12-27T15:34:08Z</time>
      </trkpt>
      <trkpt lat="42.76076" lon="-0.38921">
        <ele>1859.4</ele>
        <time>2018-12-27T15:34:11Z</time>
      </trkpt>
      <trkpt lat="42.76074" lon="-0.38929">
        <ele>1860.4</ele>
        <time>2018-12-27T15:34:13Z</time>
      </trkpt>
      <trkpt lat="42.76069" lon="-0.38938">
        <ele>1862.2</ele>
        <time>2018-12-27T15:34:15Z</time>
      </trkpt>
      <trkpt lat="42.76064" lon="-0.38949">
        <ele>1863.2</ele>
        <time>2018-12-27T15:34:17Z</time>
      </trkpt>
      <trkpt lat="42.76057" lon="-0.38959">
        <ele>1863.2</ele>
        <time>2018-12-27T15:34:20Z</time>
      </trkpt>
      <trkpt lat="42.76053" lon="-0.3897">
        <ele>1863.6</ele>
        <time>2018-12-27T15:34:23Z</time>
      </trkpt>
      <trkpt lat="42.76048" lon="-0.38979">
        <ele>1863.6</ele>
        <time>2018-12-27T15:34:25Z</time>
      </trkpt>
      <trkpt lat="42.76041" lon="-0.38994">
        <ele>1865.7</ele>
        <time>2018-12-27T15:34:28Z</time>
      </trkpt>
      <trkpt lat="42.7604" lon="-0.38998">
        <ele>1865.7</ele>
        <time>2018-12-27T15:34:29Z</time>
      </trkpt>
      <trkpt lat="42.76036" lon="-0.39007">
        <ele>1865.6</ele>
        <time>2018-12-27T15:34:31Z</time>
      </trkpt>
      <trkpt lat="42.76029" lon="-0.39018">
        <ele>1865.1</ele>
        <time>2018-12-27T15:34:34Z</time>
      </trkpt>
      <trkpt lat="42.76019" lon="-0.3903">
        <ele>1865.1</ele>
        <time>2018-12-27T15:34:38Z</time>
      </trkpt>
      <trkpt lat="42.76014" lon="-0.39041">
        <ele>1864.6</ele>
        <time>2018-12-27T15:34:40Z</time>
      </trkpt>
      <trkpt lat="42.76015" lon="-0.39042">
        <ele>1865.2</ele>
        <time>2018-12-27T15:34:40Z</time>
      </trkpt>
      <trkpt lat="42.76015" lon="-0.39045">
        <ele>1865.1</ele>
        <time>2018-12-27T15:34:41Z</time>
      </trkpt>
      <trkpt lat="42.76012" lon="-0.39044">
        <ele>1864.1</ele>
        <time>2018-12-27T15:34:42Z</time>
      </trkpt>
      <trkpt lat="42.76011" lon="-0.39046">
        <ele>1864.1</ele>
        <time>2018-12-27T15:34:42Z</time>
      </trkpt>
      <trkpt lat="42.76006" lon="-0.39054">
        <ele>1865.1</ele>
        <time>2018-12-27T15:34:44Z</time>
      </trkpt>
      <trkpt lat="42.76004" lon="-0.39057">
        <ele>1863.2</ele>
        <time>2018-12-27T15:34:45Z</time>
      </trkpt>
      <trkpt lat="42.75998" lon="-0.39063">
        <ele>1865.7</ele>
        <time>2018-12-27T15:34:47Z</time>
      </trkpt>
      <trkpt lat="42.75997" lon="-0.39064">
        <ele>1864.6</ele>
        <time>2018-12-27T15:34:47Z</time>
      </trkpt>
      <trkpt lat="42.75988" lon="-0.39075">
        <ele>1863.6</ele>
        <time>2018-12-27T15:34:50Z</time>
      </trkpt>
      <trkpt lat="42.75988" lon="-0.39076">
        <ele>1867</ele>
        <time>2018-12-27T15:34:51Z</time>
      </trkpt>
      <trkpt lat="42.7598" lon="-0.3909">
        <ele>1865.6</ele>
        <time>2018-12-27T15:34:54Z</time>
      </trkpt>
      <trkpt lat="42.75972" lon="-0.39104">
        <ele>1864.2</ele>
        <time>2018-12-27T15:34:57Z</time>
      </trkpt>
      <trkpt lat="42.75971" lon="-0.39105">
        <ele>1869.4</ele>
        <time>2018-12-27T15:34:58Z</time>
      </trkpt>
      <trkpt lat="42.75967" lon="-0.39116">
        <ele>1867.5</ele>
        <time>2018-12-27T15:35:00Z</time>
      </trkpt>
      <trkpt lat="42.7596" lon="-0.39123">
        <ele>1867.5</ele>
        <time>2018-12-27T15:35:02Z</time>
      </trkpt>
      <trkpt lat="42.75957" lon="-0.39126">
        <ele>1868.5</ele>
        <time>2018-12-27T15:35:03Z</time>
      </trkpt>
      <trkpt lat="42.75951" lon="-0.39133">
        <ele>1868.6</ele>
        <time>2018-12-27T15:35:05Z</time>
      </trkpt>
      <trkpt lat="42.75952" lon="-0.39136">
        <ele>1868.9</ele>
        <time>2018-12-27T15:35:06Z</time>
      </trkpt>
      <trkpt lat="42.75952" lon="-0.39142">
        <ele>1870</ele>
        <time>2018-12-27T15:35:07Z</time>
      </trkpt>
      <trkpt lat="42.75952" lon="-0.39145">
        <ele>1868.5</ele>
        <time>2018-12-27T15:35:08Z</time>
      </trkpt>
      <trkpt lat="42.75949" lon="-0.3915">
        <ele>1870</ele>
        <time>2018-12-27T15:35:09Z</time>
      </trkpt>
      <trkpt lat="42.75948" lon="-0.39153">
        <ele>1869</ele>
        <time>2018-12-27T15:35:10Z</time>
      </trkpt>
      <trkpt lat="42.75945" lon="-0.39159">
        <ele>1869.5</ele>
        <time>2018-12-27T15:35:11Z</time>
      </trkpt>
      <trkpt lat="42.75939" lon="-0.39167">
        <ele>1871</ele>
        <time>2018-12-27T15:35:13Z</time>
      </trkpt>
      <trkpt lat="42.75934" lon="-0.39172">
        <ele>1870.9</ele>
        <time>2018-12-27T15:35:15Z</time>
      </trkpt>
      <trkpt lat="42.75927" lon="-0.39184">
        <ele>1871.8</ele>
        <time>2018-12-27T15:35:18Z</time>
      </trkpt>
      <trkpt lat="42.75921" lon="-0.39191">
        <ele>1872.9</ele>
        <time>2018-12-27T15:35:20Z</time>
      </trkpt>
      <trkpt lat="42.75914" lon="-0.39194">
        <ele>1873.3</ele>
        <time>2018-12-27T15:35:22Z</time>
      </trkpt>
      <trkpt lat="42.75906" lon="-0.39205">
        <ele>1874.3</ele>
        <time>2018-12-27T15:35:25Z</time>
      </trkpt>
      <trkpt lat="42.759" lon="-0.39214">
        <ele>1875.8</ele>
        <time>2018-12-27T15:35:28Z</time>
      </trkpt>
      <trkpt lat="42.75895" lon="-0.39221">
        <ele>1875.2</ele>
        <time>2018-12-27T15:35:29Z</time>
      </trkpt>
      <trkpt lat="42.75894" lon="-0.39223">
        <ele>1875.3</ele>
        <time>2018-12-27T15:35:30Z</time>
      </trkpt>
      <trkpt lat="42.75893" lon="-0.39231">
        <ele>1875.7</ele>
        <time>2018-12-27T15:35:32Z</time>
      </trkpt>
      <trkpt lat="42.7589" lon="-0.39242">
        <ele>1878.5</ele>
        <time>2018-12-27T15:35:34Z</time>
      </trkpt>
      <trkpt lat="42.75889" lon="-0.39244">
        <ele>1875.3</ele>
        <time>2018-12-27T15:35:34Z</time>
      </trkpt>
      <trkpt lat="42.75888" lon="-0.39248">
        <ele>1878.5</ele>
        <time>2018-12-27T15:35:35Z</time>
      </trkpt>
      <trkpt lat="42.75888" lon="-0.39259">
        <ele>1878.5</ele>
        <time>2018-12-27T15:35:37Z</time>
      </trkpt>
      <trkpt lat="42.7589" lon="-0.39268">
        <ele>1877.1</ele>
        <time>2018-12-27T15:35:39Z</time>
      </trkpt>
      <trkpt lat="42.7589" lon="-0.39271">
        <ele>1881</ele>
        <time>2018-12-27T15:35:40Z</time>
      </trkpt>
      <trkpt lat="42.7589" lon="-0.39273">
        <ele>1880.6</ele>
        <time>2018-12-27T15:35:40Z</time>
      </trkpt>
      <trkpt lat="42.75893" lon="-0.39289">
        <ele>1879.5</ele>
        <time>2018-12-27T15:35:43Z</time>
      </trkpt>
      <trkpt lat="42.75894" lon="-0.39297">
        <ele>1879.1</ele>
        <time>2018-12-27T15:35:45Z</time>
      </trkpt>
      <trkpt lat="42.75892" lon="-0.39308">
        <ele>1879.5</ele>
        <time>2018-12-27T15:35:47Z</time>
      </trkpt>
      <trkpt lat="42.75893" lon="-0.39315">
        <ele>1879.6</ele>
        <time>2018-12-27T15:35:48Z</time>
      </trkpt>
      <trkpt lat="42.7589" lon="-0.3933">
        <ele>1881.4</ele>
        <time>2018-12-27T15:35:51Z</time>
      </trkpt>
      <trkpt lat="42.75889" lon="-0.39342">
        <ele>1884.4</ele>
        <time>2018-12-27T15:35:54Z</time>
      </trkpt>
      <trkpt lat="42.75888" lon="-0.39343">
        <ele>1884.8</ele>
        <time>2018-12-27T15:35:54Z</time>
      </trkpt>
      <trkpt lat="42.75887" lon="-0.39347">
        <ele>1881.4</ele>
        <time>2018-12-27T15:35:55Z</time>
      </trkpt>
      <trkpt lat="42.75885" lon="-0.39351">
        <ele>1882.9</ele>
        <time>2018-12-27T15:35:56Z</time>
      </trkpt>
      <trkpt lat="42.75878" lon="-0.39368">
        <ele>1883</ele>
        <time>2018-12-27T15:36:00Z</time>
      </trkpt>
      <trkpt lat="42.75876" lon="-0.39378">
        <ele>1884.9</ele>
        <time>2018-12-27T15:36:02Z</time>
      </trkpt>
      <trkpt lat="42.75874" lon="-0.39389">
        <ele>1883.8</ele>
        <time>2018-12-27T15:36:04Z</time>
      </trkpt>
      <trkpt lat="42.75878" lon="-0.39406">
        <ele>1885.4</ele>
        <time>2018-12-27T15:36:07Z</time>
      </trkpt>
      <trkpt lat="42.7588" lon="-0.39409">
        <ele>1884.4</ele>
        <time>2018-12-27T15:36:08Z</time>
      </trkpt>
      <trkpt lat="42.75888" lon="-0.39422">
        <ele>1885.9</ele>
        <time>2018-12-27T15:36:11Z</time>
      </trkpt>
      <trkpt lat="42.75895" lon="-0.39432">
        <ele>1889.7</ele>
        <time>2018-12-27T15:36:14Z</time>
      </trkpt>
      <trkpt lat="42.75895" lon="-0.39433">
        <ele>1888.7</ele>
        <time>2018-12-27T15:36:14Z</time>
      </trkpt>
      <trkpt lat="42.75894" lon="-0.39436">
        <ele>1887.2</ele>
        <time>2018-12-27T15:36:15Z</time>
      </trkpt>
      <trkpt lat="42.75895" lon="-0.39437">
        <ele>1886.7</ele>
        <time>2018-12-27T15:36:15Z</time>
      </trkpt>
      <trkpt lat="42.75894" lon="-0.39444">
        <ele>1887.7</ele>
        <time>2018-12-27T15:36:17Z</time>
      </trkpt>
      <trkpt lat="42.75893" lon="-0.39446">
        <ele>1886.8</ele>
        <time>2018-12-27T15:36:17Z</time>
      </trkpt>
      <trkpt lat="42.75889" lon="-0.39453">
        <ele>1886.3</ele>
        <time>2018-12-27T15:36:19Z</time>
      </trkpt>
      <trkpt lat="42.75875" lon="-0.39464">
        <ele>1885.4</ele>
        <time>2018-12-27T15:36:24Z</time>
      </trkpt>
      <trkpt lat="42.75865" lon="-0.39478">
        <ele>1884.8</ele>
        <time>2018-12-27T15:36:27Z</time>
      </trkpt>
      <trkpt lat="42.75859" lon="-0.39489">
        <ele>1886.4</ele>
        <time>2018-12-27T15:36:30Z</time>
      </trkpt>
      <trkpt lat="42.75858" lon="-0.39497">
        <ele>1886.7</ele>
        <time>2018-12-27T15:36:32Z</time>
      </trkpt>
      <trkpt lat="42.75858" lon="-0.39517">
        <ele>1887.7</ele>
        <time>2018-12-27T15:36:35Z</time>
      </trkpt>
      <trkpt lat="42.75854" lon="-0.39536">
        <ele>1887.8</ele>
        <time>2018-12-27T15:36:39Z</time>
      </trkpt>
      <trkpt lat="42.75852" lon="-0.39558">
        <ele>1887.7</ele>
        <time>2018-12-27T15:36:44Z</time>
      </trkpt>
      <trkpt lat="42.75849" lon="-0.39575">
        <ele>1886.7</ele>
        <time>2018-12-27T15:36:47Z</time>
      </trkpt>
      <trkpt lat="42.75846" lon="-0.39592">
        <ele>1886.3</ele>
        <time>2018-12-27T15:36:51Z</time>
      </trkpt>
      <trkpt lat="42.75844" lon="-0.39609">
        <ele>1887.7</ele>
        <time>2018-12-27T15:36:54Z</time>
      </trkpt>
      <trkpt lat="42.75843" lon="-0.39624">
        <ele>1888.3</ele>
        <time>2018-12-27T15:36:57Z</time>
      </trkpt>
      <trkpt lat="42.75845" lon="-0.39638">
        <ele>1888.8</ele>
        <time>2018-12-27T15:37:00Z</time>
      </trkpt>
      <trkpt lat="42.75847" lon="-0.39652">
        <ele>1890.6</ele>
        <time>2018-12-27T15:37:02Z</time>
      </trkpt>
      <trkpt lat="42.75847" lon="-0.39665">
        <ele>1891.5</ele>
        <time>2018-12-27T15:37:05Z</time>
      </trkpt>
      <trkpt lat="42.75848" lon="-0.39669">
        <ele>1892.5</ele>
        <time>2018-12-27T15:37:06Z</time>
      </trkpt>
      <trkpt lat="42.75849" lon="-0.39672">
        <ele>1892</ele>
        <time>2018-12-27T15:37:06Z</time>
      </trkpt>
      <trkpt lat="42.75849" lon="-0.39685">
        <ele>1893.9</ele>
        <time>2018-12-27T15:37:09Z</time>
      </trkpt>
      <trkpt lat="42.7585" lon="-0.3969">
        <ele>1894.9</ele>
        <time>2018-12-27T15:37:10Z</time>
      </trkpt>
      <trkpt lat="42.75849" lon="-0.39705">
        <ele>1893.4</ele>
        <time>2018-12-27T15:37:13Z</time>
      </trkpt>
      <trkpt lat="42.7585" lon="-0.3971">
        <ele>1893.9</ele>
        <time>2018-12-27T15:37:14Z</time>
      </trkpt>
      <trkpt lat="42.7585" lon="-0.39731">
        <ele>1892</ele>
        <time>2018-12-27T15:37:18Z</time>
      </trkpt>
      <trkpt lat="42.75847" lon="-0.39747">
        <ele>1890.7</ele>
        <time>2018-12-27T15:37:21Z</time>
      </trkpt>
      <trkpt lat="42.75846" lon="-0.39753">
        <ele>1890.6</ele>
        <time>2018-12-27T15:37:22Z</time>
      </trkpt>
      <trkpt lat="42.75841" lon="-0.39772">
        <ele>1890.6</ele>
        <time>2018-12-27T15:37:26Z</time>
      </trkpt>
      <trkpt lat="42.75834" lon="-0.39789">
        <ele>1891.1</ele>
        <time>2018-12-27T15:37:30Z</time>
      </trkpt>
      <trkpt lat="42.75831" lon="-0.39807">
        <ele>1891.6</ele>
        <time>2018-12-27T15:37:34Z</time>
      </trkpt>
      <trkpt lat="42.75824" lon="-0.39825">
        <ele>1891.5</ele>
        <time>2018-12-27T15:37:38Z</time>
      </trkpt>
      <trkpt lat="42.75817" lon="-0.3984">
        <ele>1892.5</ele>
        <time>2018-12-27T15:37:41Z</time>
      </trkpt>
      <trkpt lat="42.75815" lon="-0.39845">
        <ele>1893.4</ele>
        <time>2018-12-27T15:37:42Z</time>
      </trkpt>
      <trkpt lat="42.75808" lon="-0.3986">
        <ele>1893.4</ele>
        <time>2018-12-27T15:37:46Z</time>
      </trkpt>
      <trkpt lat="42.75804" lon="-0.39864">
        <ele>1894.5</ele>
        <time>2018-12-27T15:37:47Z</time>
      </trkpt>
      <trkpt lat="42.75805" lon="-0.3987">
        <ele>1894.4</ele>
        <time>2018-12-27T15:37:48Z</time>
      </trkpt>
      <trkpt lat="42.75801" lon="-0.39882">
        <ele>1895.4</ele>
        <time>2018-12-27T15:37:51Z</time>
      </trkpt>
      <trkpt lat="42.75798" lon="-0.39897">
        <ele>1895.4</ele>
        <time>2018-12-27T15:37:54Z</time>
      </trkpt>
      <trkpt lat="42.75795" lon="-0.39913">
        <ele>1895.5</ele>
        <time>2018-12-27T15:37:57Z</time>
      </trkpt>
      <trkpt lat="42.7579" lon="-0.39924">
        <ele>1896.3</ele>
        <time>2018-12-27T15:38:00Z</time>
      </trkpt>
      <trkpt lat="42.7579" lon="-0.39926">
        <ele>1896</ele>
        <time>2018-12-27T15:38:00Z</time>
      </trkpt>
      <trkpt lat="42.75784" lon="-0.39945">
        <ele>1896</ele>
        <time>2018-12-27T15:38:04Z</time>
      </trkpt>
      <trkpt lat="42.75777" lon="-0.39958">
        <ele>1895.4</ele>
        <time>2018-12-27T15:38:07Z</time>
      </trkpt>
      <trkpt lat="42.75769" lon="-0.39967">
        <ele>1896.8</ele>
        <time>2018-12-27T15:38:10Z</time>
      </trkpt>
      <trkpt lat="42.75757" lon="-0.39969">
        <ele>1896.3</ele>
        <time>2018-12-27T15:38:13Z</time>
      </trkpt>
      <trkpt lat="42.7575" lon="-0.39974">
        <ele>1897.8</ele>
        <time>2018-12-27T15:38:15Z</time>
      </trkpt>
      <trkpt lat="42.75743" lon="-0.3998">
        <ele>1897.8</ele>
        <time>2018-12-27T15:38:18Z</time>
      </trkpt>
      <trkpt lat="42.75741" lon="-0.39982">
        <ele>1897.9</ele>
        <time>2018-12-27T15:38:18Z</time>
      </trkpt>
      <trkpt lat="42.75739" lon="-0.39983">
        <ele>1894.4</ele>
        <time>2018-12-27T15:38:19Z</time>
      </trkpt>
      <trkpt lat="42.75738" lon="-0.39983">
        <ele>1902.1</ele>
        <time>2018-12-27T15:38:19Z</time>
      </trkpt>
      <trkpt lat="42.75738" lon="-0.39983">
        <ele>1899.2</ele>
        <time>2018-12-27T15:38:19Z</time>
      </trkpt>
      <trkpt lat="42.75737" lon="-0.39985">
        <ele>1898.3</ele>
        <time>2018-12-27T15:38:20Z</time>
      </trkpt>
      <trkpt lat="42.75735" lon="-0.39984">
        <ele>1894.5</ele>
        <time>2018-12-27T15:38:20Z</time>
      </trkpt>
      <trkpt lat="42.75736" lon="-0.39984">
        <ele>1902.6</ele>
        <time>2018-12-27T15:38:20Z</time>
      </trkpt>
      <trkpt lat="42.75736" lon="-0.39984">
        <ele>1898.8</ele>
        <time>2018-12-27T15:38:20Z</time>
      </trkpt>
      <trkpt lat="42.75736" lon="-0.39986">
        <ele>1899.2</ele>
        <time>2018-12-27T15:38:21Z</time>
      </trkpt>
      <trkpt lat="42.75735" lon="-0.39988">
        <ele>1898.9</ele>
        <time>2018-12-27T15:38:21Z</time>
      </trkpt>
      <trkpt lat="42.75731" lon="-0.39993">
        <ele>1895</ele>
        <time>2018-12-27T15:38:22Z</time>
      </trkpt>
      <trkpt lat="42.7573" lon="-0.39994">
        <ele>1904.5</ele>
        <time>2018-12-27T15:38:23Z</time>
      </trkpt>
      <trkpt lat="42.7573" lon="-0.39995">
        <ele>1901.2</ele>
        <time>2018-12-27T15:38:23Z</time>
      </trkpt>
      <trkpt lat="42.75729" lon="-0.39997">
        <ele>1889.7</ele>
        <time>2018-12-27T15:38:23Z</time>
      </trkpt>
      <trkpt lat="42.75728" lon="-0.39999">
        <ele>1908.5</ele>
        <time>2018-12-27T15:38:24Z</time>
      </trkpt>
      <trkpt lat="42.75727" lon="-0.4">
        <ele>1901.7</ele>
        <time>2018-12-27T15:38:24Z</time>
      </trkpt>
      <trkpt lat="42.75725" lon="-0.40002">
        <ele>1900.2</ele>
        <time>2018-12-27T15:38:25Z</time>
      </trkpt>
      <trkpt lat="42.75722" lon="-0.40006">
        <ele>1896.3</ele>
        <time>2018-12-27T15:38:26Z</time>
      </trkpt>
      <trkpt lat="42.75722" lon="-0.40007">
        <ele>1904.5</ele>
        <time>2018-12-27T15:38:26Z</time>
      </trkpt>
      <trkpt lat="42.7572" lon="-0.40012">
        <ele>1901.1</ele>
        <time>2018-12-27T15:38:27Z</time>
      </trkpt>
      <trkpt lat="42.75716" lon="-0.40019">
        <ele>1902.2</ele>
        <time>2018-12-27T15:38:29Z</time>
      </trkpt>
      <trkpt lat="42.75713" lon="-0.40027">
        <ele>1903.2</ele>
        <time>2018-12-27T15:38:31Z</time>
      </trkpt>
      <trkpt lat="42.75712" lon="-0.40029">
        <ele>1903.5</ele>
        <time>2018-12-27T15:38:31Z</time>
      </trkpt>
      <trkpt lat="42.75708" lon="-0.40038">
        <ele>1905.5</ele>
        <time>2018-12-27T15:38:33Z</time>
      </trkpt>
      <trkpt lat="42.75707" lon="-0.40044">
        <ele>1906</ele>
        <time>2018-12-27T15:38:34Z</time>
      </trkpt>
      <trkpt lat="42.75704" lon="-0.40059">
        <ele>1906.9</ele>
        <time>2018-12-27T15:38:37Z</time>
      </trkpt>
      <trkpt lat="42.75703" lon="-0.40066">
        <ele>1907.4</ele>
        <time>2018-12-27T15:38:39Z</time>
      </trkpt>
      <trkpt lat="42.75702" lon="-0.40073">
        <ele>1908</ele>
        <time>2018-12-27T15:38:40Z</time>
      </trkpt>
      <trkpt lat="42.75707" lon="-0.40097">
        <ele>1910.3</ele>
        <time>2018-12-27T15:38:45Z</time>
      </trkpt>
      <trkpt lat="42.75709" lon="-0.40105">
        <ele>1906.4</ele>
        <time>2018-12-27T15:38:47Z</time>
      </trkpt>
      <trkpt lat="42.75709" lon="-0.40107">
        <ele>1910.3</ele>
        <time>2018-12-27T15:38:47Z</time>
      </trkpt>
      <trkpt lat="42.75709" lon="-0.40111">
        <ele>1908.8</ele>
        <time>2018-12-27T15:38:48Z</time>
      </trkpt>
      <trkpt lat="42.75711" lon="-0.40124">
        <ele>1908.4</ele>
        <time>2018-12-27T15:38:50Z</time>
      </trkpt>
      <trkpt lat="42.75713" lon="-0.40139">
        <ele>1909.3</ele>
        <time>2018-12-27T15:38:54Z</time>
      </trkpt>
      <trkpt lat="42.75713" lon="-0.4014">
        <ele>1905.9</ele>
        <time>2018-12-27T15:38:54Z</time>
      </trkpt>
      <trkpt lat="42.75713" lon="-0.40141">
        <ele>1910.8</ele>
        <time>2018-12-27T15:38:54Z</time>
      </trkpt>
      <trkpt lat="42.75714" lon="-0.40146">
        <ele>1908.8</ele>
        <time>2018-12-27T15:38:55Z</time>
      </trkpt>
      <trkpt lat="42.75714" lon="-0.40149">
        <ele>1909.3</ele>
        <time>2018-12-27T15:38:56Z</time>
      </trkpt>
      <trkpt lat="42.75715" lon="-0.40158">
        <ele>1909.3</ele>
        <time>2018-12-27T15:38:57Z</time>
      </trkpt>
      <trkpt lat="42.75717" lon="-0.40173">
        <ele>1909.4</ele>
        <time>2018-12-27T15:39:00Z</time>
      </trkpt>
      <trkpt lat="42.75719" lon="-0.40185">
        <ele>1909.8</ele>
        <time>2018-12-27T15:39:03Z</time>
      </trkpt>
      <trkpt lat="42.75725" lon="-0.40194">
        <ele>1910.3</ele>
        <time>2018-12-27T15:39:05Z</time>
      </trkpt>
      <trkpt lat="42.75729" lon="-0.402">
        <ele>1909.8</ele>
        <time>2018-12-27T15:39:07Z</time>
      </trkpt>
      <trkpt lat="42.75729" lon="-0.40207">
        <ele>1911.7</ele>
        <time>2018-12-27T15:39:08Z</time>
      </trkpt>
      <trkpt lat="42.75731" lon="-0.40214">
        <ele>1912.3</ele>
        <time>2018-12-27T15:39:10Z</time>
      </trkpt>
      <trkpt lat="42.75731" lon="-0.40226">
        <ele>1912.8</ele>
        <time>2018-12-27T15:39:12Z</time>
      </trkpt>
      <trkpt lat="42.75732" lon="-0.40239">
        <ele>1913.3</ele>
        <time>2018-12-27T15:39:15Z</time>
      </trkpt>
      <trkpt lat="42.75732" lon="-0.4025">
        <ele>1913.7</ele>
        <time>2018-12-27T15:39:17Z</time>
      </trkpt>
      <trkpt lat="42.75728" lon="-0.4025">
        <ele>1913.3</ele>
        <time>2018-12-27T15:39:18Z</time>
      </trkpt>
      <trkpt lat="42.75727" lon="-0.40254">
        <ele>1914.1</ele>
        <time>2018-12-27T15:39:18Z</time>
      </trkpt>
      <trkpt lat="42.75727" lon="-0.40255">
        <ele>1914.1</ele>
        <time>2018-12-27T15:39:19Z</time>
      </trkpt>
      <trkpt lat="42.75725" lon="-0.40268">
        <ele>1914.1</ele>
        <time>2018-12-27T15:39:21Z</time>
      </trkpt>
      <trkpt lat="42.75724" lon="-0.40272">
        <ele>1914.1</ele>
        <time>2018-12-27T15:39:22Z</time>
      </trkpt>
      <trkpt lat="42.75725" lon="-0.40274">
        <ele>1914.7</ele>
        <time>2018-12-27T15:39:23Z</time>
      </trkpt>
      <trkpt lat="42.75723" lon="-0.40278">
        <ele>1914.7</ele>
        <time>2018-12-27T15:39:23Z</time>
      </trkpt>
      <trkpt lat="42.75724" lon="-0.40286">
        <ele>1915.1</ele>
        <time>2018-12-27T15:39:25Z</time>
      </trkpt>
      <trkpt lat="42.75726" lon="-0.40295">
        <ele>1915.2</ele>
        <time>2018-12-27T15:39:27Z</time>
      </trkpt>
      <trkpt lat="42.7573" lon="-0.40307">
        <ele>1916.5</ele>
        <time>2018-12-27T15:39:29Z</time>
      </trkpt>
      <trkpt lat="42.75731" lon="-0.4032">
        <ele>1917.6</ele>
        <time>2018-12-27T15:39:32Z</time>
      </trkpt>
      <trkpt lat="42.75733" lon="-0.40327">
        <ele>1917.1</ele>
        <time>2018-12-27T15:39:33Z</time>
      </trkpt>
      <trkpt lat="42.75732" lon="-0.4033">
        <ele>1918.4</ele>
        <time>2018-12-27T15:39:34Z</time>
      </trkpt>
      <trkpt lat="42.75728" lon="-0.40336">
        <ele>1919.4</ele>
        <time>2018-12-27T15:39:36Z</time>
      </trkpt>
      <trkpt lat="42.75726" lon="-0.40345">
        <ele>1921.3</ele>
        <time>2018-12-27T15:39:38Z</time>
      </trkpt>
      <trkpt lat="42.75727" lon="-0.4035">
        <ele>1922.8</ele>
        <time>2018-12-27T15:39:39Z</time>
      </trkpt>
      <trkpt lat="42.75724" lon="-0.40352">
        <ele>1924.7</ele>
        <time>2018-12-27T15:39:40Z</time>
      </trkpt>
      <trkpt lat="42.75726" lon="-0.40356">
        <ele>1925.3</ele>
        <time>2018-12-27T15:39:41Z</time>
      </trkpt>
      <trkpt lat="42.75727" lon="-0.40365">
        <ele>1926.3</ele>
        <time>2018-12-27T15:39:42Z</time>
      </trkpt>
      <trkpt lat="42.75726" lon="-0.40369">
        <ele>1926.6</ele>
        <time>2018-12-27T15:39:43Z</time>
      </trkpt>
      <trkpt lat="42.75726" lon="-0.40382">
        <ele>1928.6</ele>
        <time>2018-12-27T15:39:46Z</time>
      </trkpt>
      <trkpt lat="42.75727" lon="-0.40387">
        <ele>1929.6</ele>
        <time>2018-12-27T15:39:47Z</time>
      </trkpt>
      <trkpt lat="42.75727" lon="-0.40395">
        <ele>1930.9</ele>
        <time>2018-12-27T15:39:48Z</time>
      </trkpt>
      <trkpt lat="42.75728" lon="-0.40406">
        <ele>1932</ele>
        <time>2018-12-27T15:39:50Z</time>
      </trkpt>
      <trkpt lat="42.75732" lon="-0.40415">
        <ele>1932.4</ele>
        <time>2018-12-27T15:39:52Z</time>
      </trkpt>
      <trkpt lat="42.7573" lon="-0.40426">
        <ele>1931.9</ele>
        <time>2018-12-27T15:39:55Z</time>
      </trkpt>
      <trkpt lat="42.7573" lon="-0.40434">
        <ele>1933.3</ele>
        <time>2018-12-27T15:39:56Z</time>
      </trkpt>
      <trkpt lat="42.75729" lon="-0.40443">
        <ele>1934.3</ele>
        <time>2018-12-27T15:39:58Z</time>
      </trkpt>
      <trkpt lat="42.75726" lon="-0.4045">
        <ele>1935.3</ele>
        <time>2018-12-27T15:39:59Z</time>
      </trkpt>
      <trkpt lat="42.75727" lon="-0.40459">
        <ele>1935.3</ele>
        <time>2018-12-27T15:40:01Z</time>
      </trkpt>
      <trkpt lat="42.75723" lon="-0.40466">
        <ele>1938.3</ele>
        <time>2018-12-27T15:40:03Z</time>
      </trkpt>
      <trkpt lat="42.7572" lon="-0.40469">
        <ele>1939.2</ele>
        <time>2018-12-27T15:40:04Z</time>
      </trkpt>
      <trkpt lat="42.75715" lon="-0.40481">
        <ele>1939.7</ele>
        <time>2018-12-27T15:40:07Z</time>
      </trkpt>
      <trkpt lat="42.75715" lon="-0.4049">
        <ele>1940.1</ele>
        <time>2018-12-27T15:40:08Z</time>
      </trkpt>
      <trkpt lat="42.75716" lon="-0.405">
        <ele>1941.1</ele>
        <time>2018-12-27T15:40:10Z</time>
      </trkpt>
      <trkpt lat="42.75716" lon="-0.40508">
        <ele>1942</ele>
        <time>2018-12-27T15:40:12Z</time>
      </trkpt>
      <trkpt lat="42.75715" lon="-0.40515">
        <ele>1942.9</ele>
        <time>2018-12-27T15:40:13Z</time>
      </trkpt>
      <trkpt lat="42.75709" lon="-0.40521">
        <ele>1943.4</ele>
        <time>2018-12-27T15:40:15Z</time>
      </trkpt>
      <trkpt lat="42.75704" lon="-0.40527">
        <ele>1944</ele>
        <time>2018-12-27T15:40:17Z</time>
      </trkpt>
      <trkpt lat="42.75702" lon="-0.40539">
        <ele>1944.5</ele>
        <time>2018-12-27T15:40:19Z</time>
      </trkpt>
      <trkpt lat="42.75699" lon="-0.40549">
        <ele>1945</ele>
        <time>2018-12-27T15:40:22Z</time>
      </trkpt>
      <trkpt lat="42.75696" lon="-0.4056">
        <ele>1945.8</ele>
        <time>2018-12-27T15:40:24Z</time>
      </trkpt>
      <trkpt lat="42.7569" lon="-0.40567">
        <ele>1947.4</ele>
        <time>2018-12-27T15:40:26Z</time>
      </trkpt>
      <trkpt lat="42.75684" lon="-0.40571">
        <ele>1948.4</ele>
        <time>2018-12-27T15:40:28Z</time>
      </trkpt>
      <trkpt lat="42.7568" lon="-0.40573">
        <ele>1947.8</ele>
        <time>2018-12-27T15:40:29Z</time>
      </trkpt>
      <trkpt lat="42.75677" lon="-0.40576">
        <ele>1947.4</ele>
        <time>2018-12-27T15:40:30Z</time>
      </trkpt>
      <trkpt lat="42.75675" lon="-0.4058">
        <ele>1945.9</ele>
        <time>2018-12-27T15:40:31Z</time>
      </trkpt>
      <trkpt lat="42.75675" lon="-0.40581">
        <ele>1946.3</ele>
        <time>2018-12-27T15:40:31Z</time>
      </trkpt>
      <trkpt lat="42.75673" lon="-0.40592">
        <ele>1946.8</ele>
        <time>2018-12-27T15:40:33Z</time>
      </trkpt>
      <trkpt lat="42.75672" lon="-0.40603">
        <ele>1948.7</ele>
        <time>2018-12-27T15:40:36Z</time>
      </trkpt>
      <trkpt lat="42.75672" lon="-0.40612">
        <ele>1948.3</ele>
        <time>2018-12-27T15:40:37Z</time>
      </trkpt>
      <trkpt lat="42.75673" lon="-0.40614">
        <ele>1948.8</ele>
        <time>2018-12-27T15:40:38Z</time>
      </trkpt>
      <trkpt lat="42.75674" lon="-0.40618">
        <ele>1947.8</ele>
        <time>2018-12-27T15:40:39Z</time>
      </trkpt>
      <trkpt lat="42.75679" lon="-0.40624">
        <ele>1949.7</ele>
        <time>2018-12-27T15:40:40Z</time>
      </trkpt>
      <trkpt lat="42.75681" lon="-0.40627">
        <ele>1949.7</ele>
        <time>2018-12-27T15:40:41Z</time>
      </trkpt>
      <trkpt lat="42.75684" lon="-0.40632">
        <ele>1950.8</ele>
        <time>2018-12-27T15:40:42Z</time>
      </trkpt>
      <trkpt lat="42.75683" lon="-0.40636">
        <ele>1950.3</ele>
        <time>2018-12-27T15:40:43Z</time>
      </trkpt>
      <trkpt lat="42.75686" lon="-0.40639">
        <ele>1950.7</ele>
        <time>2018-12-27T15:40:44Z</time>
      </trkpt>
      <trkpt lat="42.75686" lon="-0.40639">
        <ele>1952.1</ele>
        <time>2018-12-27T15:40:44Z</time>
      </trkpt>
      <trkpt lat="42.75686" lon="-0.40639">
        <ele>1950.7</ele>
        <time>2018-12-27T15:40:44Z</time>
      </trkpt>
      <trkpt lat="42.75683" lon="-0.40641">
        <ele>1950.8</ele>
        <time>2018-12-27T15:40:45Z</time>
      </trkpt>
      <trkpt lat="42.75684" lon="-0.40644">
        <ele>1951.2</ele>
        <time>2018-12-27T15:40:46Z</time>
      </trkpt>
      <trkpt lat="42.75684" lon="-0.40643">
        <ele>1950.7</ele>
        <time>2018-12-27T15:40:46Z</time>
      </trkpt>
      <trkpt lat="42.75685" lon="-0.40643">
        <ele>1950.3</ele>
        <time>2018-12-27T15:40:46Z</time>
      </trkpt>
      <trkpt lat="42.75687" lon="-0.40643">
        <ele>1950.3</ele>
        <time>2018-12-27T15:40:47Z</time>
      </trkpt>
      <trkpt lat="42.75686" lon="-0.40646">
        <ele>1950.2</ele>
        <time>2018-12-27T15:40:47Z</time>
      </trkpt>
      <trkpt lat="42.75686" lon="-0.40644">
        <ele>1950.8</ele>
        <time>2018-12-27T15:40:48Z</time>
      </trkpt>
      <trkpt lat="42.75685" lon="-0.40643">
        <ele>1950.7</ele>
        <time>2018-12-27T15:40:48Z</time>
      </trkpt>
      <trkpt lat="42.75685" lon="-0.40642">
        <ele>1951.2</ele>
        <time>2018-12-27T15:40:48Z</time>
      </trkpt>
      <trkpt lat="42.75684" lon="-0.40643">
        <ele>1950.7</ele>
        <time>2018-12-27T15:40:48Z</time>
      </trkpt>
      <trkpt lat="42.75685" lon="-0.40644">
        <ele>1950.7</ele>
        <time>2018-12-27T15:40:49Z</time>
      </trkpt>
      <trkpt lat="42.75685" lon="-0.40646">
        <ele>1950.8</ele>
        <time>2018-12-27T15:40:49Z</time>
      </trkpt>
      <trkpt lat="42.75685" lon="-0.40646">
        <ele>1951.1</ele>
        <time>2018-12-27T15:40:49Z</time>
      </trkpt>
      <trkpt lat="42.75685" lon="-0.40646">
        <ele>1951.2</ele>
        <time>2018-12-27T15:40:49Z</time>
      </trkpt>
      <trkpt lat="42.75684" lon="-0.40646">
        <ele>1951.1</ele>
        <time>2018-12-27T15:40:49Z</time>
      </trkpt>
      <trkpt lat="42.75683" lon="-0.40647">
        <ele>1950.8</ele>
        <time>2018-12-27T15:40:50Z</time>
      </trkpt>
      <trkpt lat="42.75683" lon="-0.40646">
        <ele>1950.8</ele>
        <time>2018-12-27T15:40:50Z</time>
      </trkpt>
      <trkpt lat="42.75683" lon="-0.40645">
        <ele>1950.7</ele>
        <time>2018-12-27T15:40:50Z</time>
      </trkpt>
      <trkpt lat="42.75683" lon="-0.40645">
        <ele>1950.7</ele>
        <time>2018-12-27T15:40:50Z</time>
      </trkpt>
      <trkpt lat="42.75683" lon="-0.40644">
        <ele>1950.8</ele>
        <time>2018-12-27T15:40:50Z</time>
      </trkpt>
      <trkpt lat="42.75684" lon="-0.40646">
        <ele>1951.1</ele>
        <time>2018-12-27T15:40:51Z</time>
      </trkpt>
      <trkpt lat="42.75682" lon="-0.40646">
        <ele>1951.1</ele>
        <time>2018-12-27T15:40:51Z</time>
      </trkpt>
      <trkpt lat="42.75683" lon="-0.40646">
        <ele>1951.2</ele>
        <time>2018-12-27T15:40:51Z</time>
      </trkpt>
      <trkpt lat="42.75683" lon="-0.40646">
        <ele>1951.7</ele>
        <time>2018-12-27T15:40:51Z</time>
      </trkpt>
      <trkpt lat="42.75683" lon="-0.40646">
        <ele>1951.2</ele>
        <time>2018-12-27T15:40:51Z</time>
      </trkpt>
      <trkpt lat="42.75682" lon="-0.40646">
        <ele>1952.1</ele>
        <time>2018-12-27T15:40:52Z</time>
      </trkpt>
      <trkpt lat="42.75682" lon="-0.40645">
        <ele>1952.7</ele>
        <time>2018-12-27T15:40:52Z</time>
      </trkpt>
      <trkpt lat="42.75681" lon="-0.40644">
        <ele>1953.1</ele>
        <time>2018-12-27T15:40:52Z</time>
      </trkpt>
      <trkpt lat="42.75682" lon="-0.40648">
        <ele>1952.6</ele>
        <time>2018-12-27T15:40:53Z</time>
      </trkpt>
      <trkpt lat="42.75682" lon="-0.40648">
        <ele>1953.2</ele>
        <time>2018-12-27T15:40:53Z</time>
      </trkpt>
      <trkpt lat="42.75686" lon="-0.40651">
        <ele>1953.7</ele>
        <time>2018-12-27T15:40:54Z</time>
      </trkpt>
      <trkpt lat="42.75685" lon="-0.40656">
        <ele>1954.5</ele>
        <time>2018-12-27T15:40:55Z</time>
      </trkpt>
      <trkpt lat="42.75682" lon="-0.40666">
        <ele>1955</ele>
        <time>2018-12-27T15:40:57Z</time>
      </trkpt>
      <trkpt lat="42.7568" lon="-0.40675">
        <ele>1956.4</ele>
        <time>2018-12-27T15:40:59Z</time>
      </trkpt>
      <trkpt lat="42.75676" lon="-0.40684">
        <ele>1957.5</ele>
        <time>2018-12-27T15:41:01Z</time>
      </trkpt>
      <trkpt lat="42.75674" lon="-0.40693">
        <ele>1958.9</ele>
        <time>2018-12-27T15:41:03Z</time>
      </trkpt>
      <trkpt lat="42.75672" lon="-0.40702">
        <ele>1959.9</ele>
        <time>2018-12-27T15:41:05Z</time>
      </trkpt>
      <trkpt lat="42.7567" lon="-0.40711">
        <ele>1962.3</ele>
        <time>2018-12-27T15:41:07Z</time>
      </trkpt>
      <trkpt lat="42.75667" lon="-0.40723">
        <ele>1962.8</ele>
        <time>2018-12-27T15:41:09Z</time>
      </trkpt>
      <trkpt lat="42.75663" lon="-0.40733">
        <ele>1962.3</ele>
        <time>2018-12-27T15:41:11Z</time>
      </trkpt>
      <trkpt lat="42.75662" lon="-0.40741">
        <ele>1963.7</ele>
        <time>2018-12-27T15:41:13Z</time>
      </trkpt>
      <trkpt lat="42.7566" lon="-0.40746">
        <ele>1964.1</ele>
        <time>2018-12-27T15:41:14Z</time>
      </trkpt>
      <trkpt lat="42.75659" lon="-0.40751">
        <ele>1965.1</ele>
        <time>2018-12-27T15:41:15Z</time>
      </trkpt>
      <trkpt lat="42.75656" lon="-0.40763">
        <ele>1966</ele>
        <time>2018-12-27T15:41:18Z</time>
      </trkpt>
      <trkpt lat="42.7566" lon="-0.40764">
        <ele>1966.6</ele>
        <time>2018-12-27T15:41:19Z</time>
      </trkpt>
      <trkpt lat="42.75663" lon="-0.40771">
        <ele>1967.1</ele>
        <time>2018-12-27T15:41:20Z</time>
      </trkpt>
      <trkpt lat="42.75667" lon="-0.40779">
        <ele>1968.5</ele>
        <time>2018-12-27T15:41:22Z</time>
      </trkpt>
      <trkpt lat="42.7567" lon="-0.40789">
        <ele>1970</ele>
        <time>2018-12-27T15:41:24Z</time>
      </trkpt>
      <trkpt lat="42.75672" lon="-0.40795">
        <ele>1971.4</ele>
        <time>2018-12-27T15:41:26Z</time>
      </trkpt>
      <trkpt lat="42.75675" lon="-0.40802">
        <ele>1972.8</ele>
        <time>2018-12-27T15:41:27Z</time>
      </trkpt>
      <trkpt lat="42.75676" lon="-0.40808">
        <ele>1972.9</ele>
        <time>2018-12-27T15:41:28Z</time>
      </trkpt>
      <trkpt lat="42.75678" lon="-0.40819">
        <ele>1975.2</ele>
        <time>2018-12-27T15:41:31Z</time>
      </trkpt>
      <trkpt lat="42.75678" lon="-0.40829">
        <ele>1976.7</ele>
        <time>2018-12-27T15:41:32Z</time>
      </trkpt>
      <trkpt lat="42.75678" lon="-0.4083">
        <ele>1977.1</ele>
        <time>2018-12-27T15:41:33Z</time>
      </trkpt>
      <trkpt lat="42.75678" lon="-0.40838">
        <ele>1978.1</ele>
        <time>2018-12-27T15:41:34Z</time>
      </trkpt>
      <trkpt lat="42.75673" lon="-0.40843">
        <ele>1978.5</ele>
        <time>2018-12-27T15:41:36Z</time>
      </trkpt>
      <trkpt lat="42.75672" lon="-0.40846">
        <ele>1979.1</ele>
        <time>2018-12-27T15:41:36Z</time>
      </trkpt>
      <trkpt lat="42.75673" lon="-0.4085">
        <ele>1979</ele>
        <time>2018-12-27T15:41:37Z</time>
      </trkpt>
      <trkpt lat="42.75676" lon="-0.40855">
        <ele>1980</ele>
        <time>2018-12-27T15:41:38Z</time>
      </trkpt>
      <trkpt lat="42.75679" lon="-0.40861">
        <ele>1981.4</ele>
        <time>2018-12-27T15:41:40Z</time>
      </trkpt>
      <trkpt lat="42.7568" lon="-0.40864">
        <ele>1982.5</ele>
        <time>2018-12-27T15:41:40Z</time>
      </trkpt>
      <trkpt lat="42.75684" lon="-0.40868">
        <ele>1983.9</ele>
        <time>2018-12-27T15:41:42Z</time>
      </trkpt>
      <trkpt lat="42.75688" lon="-0.40875">
        <ele>1984.8</ele>
        <time>2018-12-27T15:41:44Z</time>
      </trkpt>
      <trkpt lat="42.7569" lon="-0.40883">
        <ele>1986.8</ele>
        <time>2018-12-27T15:41:45Z</time>
      </trkpt>
      <trkpt lat="42.75693" lon="-0.4089">
        <ele>1987.7</ele>
        <time>2018-12-27T15:41:47Z</time>
      </trkpt>
      <trkpt lat="42.75695" lon="-0.40893">
        <ele>1988.1</ele>
        <time>2018-12-27T15:41:48Z</time>
      </trkpt>
      <trkpt lat="42.757" lon="-0.40897">
        <ele>1989.1</ele>
        <time>2018-12-27T15:41:49Z</time>
      </trkpt>
      <trkpt lat="42.75705" lon="-0.40903">
        <ele>1989.6</ele>
        <time>2018-12-27T15:41:51Z</time>
      </trkpt>
      <trkpt lat="42.75706" lon="-0.40906">
        <ele>1990.2</ele>
        <time>2018-12-27T15:41:52Z</time>
      </trkpt>
      <trkpt lat="42.75709" lon="-0.40911">
        <ele>1991.1</ele>
        <time>2018-12-27T15:41:53Z</time>
      </trkpt>
      <trkpt lat="42.75712" lon="-0.40915">
        <ele>1992.1</ele>
        <time>2018-12-27T15:41:54Z</time>
      </trkpt>
      <trkpt lat="42.75716" lon="-0.4092">
        <ele>1993</ele>
        <time>2018-12-27T15:41:55Z</time>
      </trkpt>
      <trkpt lat="42.75717" lon="-0.40927">
        <ele>1994.5</ele>
        <time>2018-12-27T15:41:57Z</time>
      </trkpt>
      <trkpt lat="42.75718" lon="-0.40928">
        <ele>1994.9</ele>
        <time>2018-12-27T15:41:57Z</time>
      </trkpt>
      <trkpt lat="42.7572" lon="-0.40934">
        <ele>1995.4</ele>
        <time>2018-12-27T15:41:58Z</time>
      </trkpt>
      <trkpt lat="42.75721" lon="-0.40936">
        <ele>1996.3</ele>
        <time>2018-12-27T15:41:59Z</time>
      </trkpt>
      <trkpt lat="42.75722" lon="-0.40938">
        <ele>1998.7</ele>
        <time>2018-12-27T15:41:59Z</time>
      </trkpt>
      <trkpt lat="42.75723" lon="-0.40945">
        <ele>1999.3</ele>
        <time>2018-12-27T15:42:01Z</time>
      </trkpt>
      <trkpt lat="42.75725" lon="-0.40954">
        <ele>2001.2</ele>
        <time>2018-12-27T15:42:03Z</time>
      </trkpt>
      <trkpt lat="42.75727" lon="-0.4096">
        <ele>2003.2</ele>
        <time>2018-12-27T15:42:04Z</time>
      </trkpt>
      <trkpt lat="42.7573" lon="-0.40966">
        <ele>2004.5</ele>
        <time>2018-12-27T15:42:05Z</time>
      </trkpt>
      <trkpt lat="42.75679" lon="-0.40902">
        <ele>1994</ele>
        <time>2018-12-27T16:16:43Z</time>
      </trkpt>
      <trkpt lat="42.75697" lon="-0.40901">
        <ele>1996</ele>
        <time>2018-12-27T16:16:47Z</time>
      </trkpt>
      <trkpt lat="42.75707" lon="-0.40902">
        <ele>1996</ele>
        <time>2018-12-27T16:16:50Z</time>
      </trkpt>
      <trkpt lat="42.75752" lon="-0.40921">
        <ele>1996</ele>
        <time>2018-12-27T16:17:03Z</time>
      </trkpt>
      <trkpt lat="42.75768" lon="-0.40921">
        <ele>1995</ele>
        <time>2018-12-27T16:17:07Z</time>
      </trkpt>
      <trkpt lat="42.75783" lon="-0.40925">
        <ele>1996</ele>
        <time>2018-12-27T16:17:11Z</time>
      </trkpt>
      <trkpt lat="42.75802" lon="-0.40939">
        <ele>1999</ele>
        <time>2018-12-27T16:17:17Z</time>
      </trkpt>
      <trkpt lat="42.75837" lon="-0.40954">
        <ele>2003</ele>
        <time>2018-12-27T16:17:26Z</time>
      </trkpt>
      <trkpt lat="42.75853" lon="-0.40951">
        <ele>2008</ele>
        <time>2018-12-27T16:17:31Z</time>
      </trkpt>
      <trkpt lat="42.75857" lon="-0.40949">
        <ele>2009</ele>
        <time>2018-12-27T16:17:32Z</time>
      </trkpt>
      <trkpt lat="42.75892" lon="-0.40924">
        <ele>2018</ele>
        <time>2018-12-27T16:17:42Z</time>
      </trkpt>
      <trkpt lat="42.75909" lon="-0.40915">
        <ele>2024</ele>
        <time>2018-12-27T16:17:47Z</time>
      </trkpt>
      <trkpt lat="42.75937" lon="-0.40912">
        <ele>2039</ele>
        <time>2018-12-27T16:17:55Z</time>
      </trkpt>
      <trkpt lat="42.75953" lon="-0.40895">
        <ele>2042</ele>
        <time>2018-12-27T16:18:00Z</time>
      </trkpt>
      <trkpt lat="42.75962" lon="-0.40878">
        <ele>2040</ele>
        <time>2018-12-27T16:18:04Z</time>
      </trkpt>
      <trkpt lat="42.75976" lon="-0.40862">
        <ele>2041</ele>
        <time>2018-12-27T16:18:09Z</time>
      </trkpt>
      <trkpt lat="42.75987" lon="-0.40845">
        <ele>2042</ele>
        <time>2018-12-27T16:18:14Z</time>
      </trkpt>
      <trkpt lat="42.75992" lon="-0.40839">
        <ele>2044</ele>
        <time>2018-12-27T16:18:15Z</time>
      </trkpt>
      <trkpt lat="42.76006" lon="-0.40812">
        <ele>2046</ele>
        <time>2018-12-27T16:18:22Z</time>
      </trkpt>
      <trkpt lat="42.76032" lon="-0.4075">
        <ele>2049</ele>
        <time>2018-12-27T16:18:36Z</time>
      </trkpt>
      <trkpt lat="42.7605" lon="-0.40713">
        <ele>2054</ele>
        <time>2018-12-27T16:18:45Z</time>
      </trkpt>
      <trkpt lat="42.76078" lon="-0.40669">
        <ele>2055</ele>
        <time>2018-12-27T16:18:56Z</time>
      </trkpt>
      <trkpt lat="42.76088" lon="-0.40656">
        <ele>2053</ele>
        <time>2018-12-27T16:19:00Z</time>
      </trkpt>
      <trkpt lat="42.76101" lon="-0.40645">
        <ele>2051</ele>
        <time>2018-12-27T16:19:04Z</time>
      </trkpt>
      <trkpt lat="42.76106" lon="-0.40643">
        <ele>2052</ele>
        <time>2018-12-27T16:19:05Z</time>
      </trkpt>
      <trkpt lat="42.76115" lon="-0.40636">
        <ele>2054</ele>
        <time>2018-12-27T16:19:08Z</time>
      </trkpt>
      <trkpt lat="42.7614" lon="-0.40626">
        <ele>2067</ele>
        <time>2018-12-27T16:19:15Z</time>
      </trkpt>
      <trkpt lat="42.7615" lon="-0.40624">
        <ele>2070</ele>
        <time>2018-12-27T16:19:18Z</time>
      </trkpt>
      <trkpt lat="42.76164" lon="-0.40637">
        <ele>2076</ele>
        <time>2018-12-27T16:19:22Z</time>
      </trkpt>
      <trkpt lat="42.7617" lon="-0.40649">
        <ele>2079</ele>
        <time>2018-12-27T16:19:25Z</time>
      </trkpt>
      <trkpt lat="42.76162" lon="-0.40667">
        <ele>2078</ele>
        <time>2018-12-27T16:19:29Z</time>
      </trkpt>
      <trkpt lat="42.76162" lon="-0.40678">
        <ele>2081</ele>
        <time>2018-12-27T16:19:31Z</time>
      </trkpt>
      <trkpt lat="42.76158" lon="-0.40692">
        <ele>2084</ele>
        <time>2018-12-27T16:19:34Z</time>
      </trkpt>
      <trkpt lat="42.76166" lon="-0.40711">
        <ele>2089</ele>
        <time>2018-12-27T16:19:39Z</time>
      </trkpt>
      <trkpt lat="42.76163" lon="-0.40722">
        <ele>2090</ele>
        <time>2018-12-27T16:19:41Z</time>
      </trkpt>
      <trkpt lat="42.76152" lon="-0.40733">
        <ele>2092</ele>
        <time>2018-12-27T16:19:45Z</time>
      </trkpt>
      <trkpt lat="42.76145" lon="-0.40743">
        <ele>2094</ele>
        <time>2018-12-27T16:19:47Z</time>
      </trkpt>
      <trkpt lat="42.76145" lon="-0.40756">
        <ele>2099</ele>
        <time>2018-12-27T16:19:50Z</time>
      </trkpt>
      <trkpt lat="42.7615" lon="-0.40781">
        <ele>2109</ele>
        <time>2018-12-27T16:19:55Z</time>
      </trkpt>
      <trkpt lat="42.76156" lon="-0.40797">
        <ele>2111</ele>
        <time>2018-12-27T16:19:58Z</time>
      </trkpt>
      <trkpt lat="42.76177" lon="-0.40825">
        <ele>2114</ele>
        <time>2018-12-27T16:20:06Z</time>
      </trkpt>
      <trkpt lat="42.76196" lon="-0.40816">
        <ele>2114</ele>
        <time>2018-12-27T16:20:12Z</time>
      </trkpt>
      <trkpt lat="42.76215" lon="-0.40798">
        <ele>2112</ele>
        <time>2018-12-27T16:20:18Z</time>
      </trkpt>
      <trkpt lat="42.76248" lon="-0.4075">
        <ele>2113</ele>
        <time>2018-12-27T16:20:31Z</time>
      </trkpt>
      <trkpt lat="42.76262" lon="-0.40731">
        <ele>2115</ele>
        <time>2018-12-27T16:20:36Z</time>
      </trkpt>
      <trkpt lat="42.76293" lon="-0.40699">
        <ele>2123</ele>
        <time>2018-12-27T16:20:46Z</time>
      </trkpt>
      <trkpt lat="42.76303" lon="-0.40682">
        <ele>2127</ele>
        <time>2018-12-27T16:20:50Z</time>
      </trkpt>
      <trkpt lat="42.7631" lon="-0.40679">
        <ele>2129</ele>
        <time>2018-12-27T16:20:53Z</time>
      </trkpt>
      <trkpt lat="42.76341" lon="-0.40707">
        <ele>2128</ele>
        <time>2018-12-27T16:21:02Z</time>
      </trkpt>
      <trkpt lat="42.76345" lon="-0.40722">
        <ele>2125</ele>
        <time>2018-12-27T16:21:06Z</time>
      </trkpt>
      <trkpt lat="42.76358" lon="-0.40733">
        <ele>2123</ele>
        <time>2018-12-27T16:21:10Z</time>
      </trkpt>
      <trkpt lat="42.76365" lon="-0.40737">
        <ele>2122</ele>
        <time>2018-12-27T16:21:12Z</time>
      </trkpt>
      <trkpt lat="42.76374" lon="-0.40736">
        <ele>2120</ele>
        <time>2018-12-27T16:21:14Z</time>
      </trkpt>
      <trkpt lat="42.76393" lon="-0.40745">
        <ele>2117</ele>
        <time>2018-12-27T16:21:19Z</time>
      </trkpt>
      <trkpt lat="42.76459" lon="-0.40729">
        <ele>2103</ele>
        <time>2018-12-27T16:21:37Z</time>
      </trkpt>
      <trkpt lat="42.76491" lon="-0.4073">
        <ele>2096</ele>
        <time>2018-12-27T16:21:46Z</time>
      </trkpt>
      <trkpt lat="42.76506" lon="-0.40733">
        <ele>2093</ele>
        <time>2018-12-27T16:21:50Z</time>
      </trkpt>
      <trkpt lat="42.76527" lon="-0.40743">
        <ele>2087</ele>
        <time>2018-12-27T16:21:56Z</time>
      </trkpt>
      <trkpt lat="42.76539" lon="-0.40751">
        <ele>2084</ele>
        <time>2018-12-27T16:21:59Z</time>
      </trkpt>
      <trkpt lat="42.76554" lon="-0.40766">
        <ele>2082</ele>
        <time>2018-12-27T16:22:04Z</time>
      </trkpt>
      <trkpt lat="42.76566" lon="-0.40788">
        <ele>2080</ele>
        <time>2018-12-27T16:22:10Z</time>
      </trkpt>
      <trkpt lat="42.76567" lon="-0.40799">
        <ele>2079</ele>
        <time>2018-12-27T16:22:12Z</time>
      </trkpt>
      <trkpt lat="42.76585" lon="-0.4082">
        <ele>2076</ele>
        <time>2018-12-27T16:22:18Z</time>
      </trkpt>
      <trkpt lat="42.76607" lon="-0.40836">
        <ele>2074</ele>
        <time>2018-12-27T16:22:25Z</time>
      </trkpt>
      <trkpt lat="42.76614" lon="-0.40847">
        <ele>2073</ele>
        <time>2018-12-27T16:22:28Z</time>
      </trkpt>
      <trkpt lat="42.76626" lon="-0.4087">
        <ele>2072</ele>
        <time>2018-12-27T16:22:33Z</time>
      </trkpt>
      <trkpt lat="42.76638" lon="-0.40914">
        <ele>2066</ele>
        <time>2018-12-27T16:22:42Z</time>
      </trkpt>
      <trkpt lat="42.76642" lon="-0.4094">
        <ele>2063</ele>
        <time>2018-12-27T16:22:48Z</time>
      </trkpt>
      <trkpt lat="42.76649" lon="-0.40968">
        <ele>2060</ele>
        <time>2018-12-27T16:22:53Z</time>
      </trkpt>
      <trkpt lat="42.76655" lon="-0.41022">
        <ele>2061</ele>
        <time>2018-12-27T16:23:04Z</time>
      </trkpt>
      <trkpt lat="42.76665" lon="-0.4106">
        <ele>2058</ele>
        <time>2018-12-27T16:23:12Z</time>
      </trkpt>
      <trkpt lat="42.76675" lon="-0.41087">
        <ele>2054</ele>
        <time>2018-12-27T16:23:18Z</time>
      </trkpt>
      <trkpt lat="42.76726" lon="-0.41185">
        <ele>2038</ele>
        <time>2018-12-27T16:23:42Z</time>
      </trkpt>
      <trkpt lat="42.76743" lon="-0.41205">
        <ele>2034</ele>
        <time>2018-12-27T16:23:47Z</time>
      </trkpt>
      <trkpt lat="42.76754" lon="-0.41212">
        <ele>2031</ele>
        <time>2018-12-27T16:23:51Z</time>
      </trkpt>
      <trkpt lat="42.76777" lon="-0.41219">
        <ele>2024</ele>
        <time>2018-12-27T16:23:57Z</time>
      </trkpt>
      <trkpt lat="42.76784" lon="-0.41226">
        <ele>2021</ele>
        <time>2018-12-27T16:23:59Z</time>
      </trkpt>
      <trkpt lat="42.76792" lon="-0.41245">
        <ele>2017</ele>
        <time>2018-12-27T16:24:04Z</time>
      </trkpt>
      <trkpt lat="42.76778" lon="-0.41264">
        <ele>2018</ele>
        <time>2018-12-27T16:24:09Z</time>
      </trkpt>
      <trkpt lat="42.76783" lon="-0.41288">
        <ele>2016</ele>
        <time>2018-12-27T16:24:14Z</time>
      </trkpt>
      <trkpt lat="42.76784" lon="-0.41306">
        <ele>2014</ele>
        <time>2018-12-27T16:24:17Z</time>
      </trkpt>
      <trkpt lat="42.76797" lon="-0.41346">
        <ele>2008</ele>
        <time>2018-12-27T16:24:26Z</time>
      </trkpt>
      <trkpt lat="42.76808" lon="-0.41351">
        <ele>2007</ele>
        <time>2018-12-27T16:24:29Z</time>
      </trkpt>
      <trkpt lat="42.76819" lon="-0.41352">
        <ele>2005</ele>
        <time>2018-12-27T16:24:32Z</time>
      </trkpt>
      <trkpt lat="42.76833" lon="-0.41361">
        <ele>2003</ele>
        <time>2018-12-27T16:24:36Z</time>
      </trkpt>
      <trkpt lat="42.76848" lon="-0.41361">
        <ele>1999</ele>
        <time>2018-12-27T16:24:40Z</time>
      </trkpt>
      <trkpt lat="42.76862" lon="-0.41352">
        <ele>1996</ele>
        <time>2018-12-27T16:24:44Z</time>
      </trkpt>
      <trkpt lat="42.76875" lon="-0.41353">
        <ele>1992</ele>
        <time>2018-12-27T16:24:48Z</time>
      </trkpt>
      <trkpt lat="42.76886" lon="-0.41352">
        <ele>1988</ele>
        <time>2018-12-27T16:24:51Z</time>
      </trkpt>
      <trkpt lat="42.76892" lon="-0.41353">
        <ele>1985</ele>
        <time>2018-12-27T16:24:52Z</time>
      </trkpt>
      <trkpt lat="42.7691" lon="-0.41371">
        <ele>1976</ele>
        <time>2018-12-27T16:24:58Z</time>
      </trkpt>
      <trkpt lat="42.76927" lon="-0.41382">
        <ele>1971</ele>
        <time>2018-12-27T16:25:03Z</time>
      </trkpt>
      <trkpt lat="42.76935" lon="-0.41383">
        <ele>1971</ele>
        <time>2018-12-27T16:25:05Z</time>
      </trkpt>
      <trkpt lat="42.76943" lon="-0.41388">
        <ele>1970</ele>
        <time>2018-12-27T16:25:08Z</time>
      </trkpt>
      <trkpt lat="42.76954" lon="-0.41397">
        <ele>1968</ele>
        <time>2018-12-27T16:25:11Z</time>
      </trkpt>
      <trkpt lat="42.76968" lon="-0.41416">
        <ele>1965</ele>
        <time>2018-12-27T16:25:16Z</time>
      </trkpt>
      <trkpt lat="42.76986" lon="-0.41432">
        <ele>1960</ele>
        <time>2018-12-27T16:25:22Z</time>
      </trkpt>
      <trkpt lat="42.77004" lon="-0.41439">
        <ele>1955</ele>
        <time>2018-12-27T16:25:27Z</time>
      </trkpt>
      <trkpt lat="42.77006" lon="-0.41446">
        <ele>1954</ele>
        <time>2018-12-27T16:25:28Z</time>
      </trkpt>
      <trkpt lat="42.77018" lon="-0.41444">
        <ele>1952</ele>
        <time>2018-12-27T16:25:32Z</time>
      </trkpt>
      <trkpt lat="42.77022" lon="-0.41453">
        <ele>1951</ele>
        <time>2018-12-27T16:25:34Z</time>
      </trkpt>
      <trkpt lat="42.77023" lon="-0.4149">
        <ele>1949</ele>
        <time>2018-12-27T16:25:41Z</time>
      </trkpt>
      <trkpt lat="42.77029" lon="-0.4149">
        <ele>1948</ele>
        <time>2018-12-27T16:25:43Z</time>
      </trkpt>
      <trkpt lat="42.7704" lon="-0.41489">
        <ele>1945</ele>
        <time>2018-12-27T16:25:45Z</time>
      </trkpt>
      <trkpt lat="42.77051" lon="-0.41478">
        <ele>1942</ele>
        <time>2018-12-27T16:25:49Z</time>
      </trkpt>
      <trkpt lat="42.77059" lon="-0.41473">
        <ele>1940</ele>
        <time>2018-12-27T16:25:52Z</time>
      </trkpt>
      <trkpt lat="42.77072" lon="-0.41482">
        <ele>1936</ele>
        <time>2018-12-27T16:25:55Z</time>
      </trkpt>
      <trkpt lat="42.77079" lon="-0.41489">
        <ele>1933</ele>
        <time>2018-12-27T16:25:58Z</time>
      </trkpt>
      <trkpt lat="42.77085" lon="-0.41491">
        <ele>1931</ele>
        <time>2018-12-27T16:26:00Z</time>
      </trkpt>
      <trkpt lat="42.77095" lon="-0.41498">
        <ele>1926</ele>
        <time>2018-12-27T16:26:02Z</time>
      </trkpt>
      <trkpt lat="42.77098" lon="-0.41515">
        <ele>1921</ele>
        <time>2018-12-27T16:26:06Z</time>
      </trkpt>
      <trkpt lat="42.77099" lon="-0.41529">
        <ele>1919</ele>
        <time>2018-12-27T16:26:09Z</time>
      </trkpt>
      <trkpt lat="42.77108" lon="-0.41546">
        <ele>1912</ele>
        <time>2018-12-27T16:26:13Z</time>
      </trkpt>
      <trkpt lat="42.77118" lon="-0.41585">
        <ele>1901</ele>
        <time>2018-12-27T16:26:21Z</time>
      </trkpt>
      <trkpt lat="42.77119" lon="-0.41597">
        <ele>1898</ele>
        <time>2018-12-27T16:26:23Z</time>
      </trkpt>
      <trkpt lat="42.77124" lon="-0.41606">
        <ele>1895</ele>
        <time>2018-12-27T16:26:25Z</time>
      </trkpt>
      <trkpt lat="42.77132" lon="-0.41634">
        <ele>1888</ele>
        <time>2018-12-27T16:26:31Z</time>
      </trkpt>
      <trkpt lat="42.7714" lon="-0.41673">
        <ele>1881</ele>
        <time>2018-12-27T16:26:39Z</time>
      </trkpt>
      <trkpt lat="42.7714" lon="-0.4168">
        <ele>1880</ele>
        <time>2018-12-27T16:26:41Z</time>
      </trkpt>
      <trkpt lat="42.77146" lon="-0.41684">
        <ele>1878</ele>
        <time>2018-12-27T16:26:42Z</time>
      </trkpt>
      <trkpt lat="42.77166" lon="-0.41685">
        <ele>1873</ele>
        <time>2018-12-27T16:26:48Z</time>
      </trkpt>
      <trkpt lat="42.77183" lon="-0.41691">
        <ele>1868</ele>
        <time>2018-12-27T16:26:52Z</time>
      </trkpt>
      <trkpt lat="42.77189" lon="-0.41697">
        <ele>1865</ele>
        <time>2018-12-27T16:26:54Z</time>
      </trkpt>
      <trkpt lat="42.77192" lon="-0.41703">
        <ele>1863</ele>
        <time>2018-12-27T16:26:56Z</time>
      </trkpt>
      <trkpt lat="42.77195" lon="-0.41727">
        <ele>1858</ele>
        <time>2018-12-27T16:27:01Z</time>
      </trkpt>
      <trkpt lat="42.772" lon="-0.41739">
        <ele>1855</ele>
        <time>2018-12-27T16:27:03Z</time>
      </trkpt>
      <trkpt lat="42.77197" lon="-0.41746">
        <ele>1854</ele>
        <time>2018-12-27T16:27:05Z</time>
      </trkpt>
      <trkpt lat="42.77198" lon="-0.41752">
        <ele>1853</ele>
        <time>2018-12-27T16:27:06Z</time>
      </trkpt>
      <trkpt lat="42.77204" lon="-0.4176">
        <ele>1851</ele>
        <time>2018-12-27T16:27:08Z</time>
      </trkpt>
      <trkpt lat="42.77209" lon="-0.4177">
        <ele>1849</ele>
        <time>2018-12-27T16:27:11Z</time>
      </trkpt>
      <trkpt lat="42.77216" lon="-0.41779">
        <ele>1847</ele>
        <time>2018-12-27T16:27:13Z</time>
      </trkpt>
      <trkpt lat="42.77222" lon="-0.41785">
        <ele>1845</ele>
        <time>2018-12-27T16:27:15Z</time>
      </trkpt>
      <trkpt lat="42.77226" lon="-0.41797">
        <ele>1843</ele>
        <time>2018-12-27T16:27:18Z</time>
      </trkpt>
      <trkpt lat="42.77226" lon="-0.41812">
        <ele>1842</ele>
        <time>2018-12-27T16:27:21Z</time>
      </trkpt>
      <trkpt lat="42.77229" lon="-0.41838">
        <ele>1839</ele>
        <time>2018-12-27T16:27:26Z</time>
      </trkpt>
      <trkpt lat="42.7724" lon="-0.41865">
        <ele>1833</ele>
        <time>2018-12-27T16:27:32Z</time>
      </trkpt>
      <trkpt lat="42.77242" lon="-0.41875">
        <ele>1832</ele>
        <time>2018-12-27T16:27:34Z</time>
      </trkpt>
      <trkpt lat="42.77238" lon="-0.41878">
        <ele>1834</ele>
        <time>2018-12-27T16:27:35Z</time>
      </trkpt>
      <trkpt lat="42.77239" lon="-0.41889">
        <ele>1833</ele>
        <time>2018-12-27T16:27:37Z</time>
      </trkpt>
      <trkpt lat="42.77242" lon="-0.41899">
        <ele>1834</ele>
        <time>2018-12-27T16:27:40Z</time>
      </trkpt>
      <trkpt lat="42.77266" lon="-0.41942">
        <ele>1834</ele>
        <time>2018-12-27T16:27:50Z</time>
      </trkpt>
      <trkpt lat="42.77275" lon="-0.41954">
        <ele>1832</ele>
        <time>2018-12-27T16:27:54Z</time>
      </trkpt>
      <trkpt lat="42.77287" lon="-0.41977">
        <ele>1833</ele>
        <time>2018-12-27T16:27:59Z</time>
      </trkpt>
      <trkpt lat="42.77292" lon="-0.4198">
        <ele>1833</ele>
        <time>2018-12-27T16:28:01Z</time>
      </trkpt>
      <trkpt lat="42.77298" lon="-0.41991">
        <ele>1836</ele>
        <time>2018-12-27T16:28:03Z</time>
      </trkpt>
      <trkpt lat="42.77309" lon="-0.42002">
        <ele>1838</ele>
        <time>2018-12-27T16:28:07Z</time>
      </trkpt>
      <trkpt lat="42.77312" lon="-0.42007">
        <ele>1840</ele>
        <time>2018-12-27T16:28:08Z</time>
      </trkpt>
      <trkpt lat="42.77324" lon="-0.42018">
        <ele>1845</ele>
        <time>2018-12-27T16:28:12Z</time>
      </trkpt>
      <trkpt lat="42.77326" lon="-0.42034">
        <ele>1848</ele>
        <time>2018-12-27T16:28:15Z</time>
      </trkpt>
      <trkpt lat="42.77331" lon="-0.42112">
        <ele>1860</ele>
        <time>2018-12-27T16:28:31Z</time>
      </trkpt>
      <trkpt lat="42.77341" lon="-0.42149">
        <ele>1870</ele>
        <time>2018-12-27T16:28:38Z</time>
      </trkpt>
      <trkpt lat="42.77348" lon="-0.42167">
        <ele>1878</ele>
        <time>2018-12-27T16:28:42Z</time>
      </trkpt>
      <trkpt lat="42.77362" lon="-0.42194">
        <ele>1889</ele>
        <time>2018-12-27T16:28:49Z</time>
      </trkpt>
      <trkpt lat="42.77364" lon="-0.42215">
        <ele>1895</ele>
        <time>2018-12-27T16:28:53Z</time>
      </trkpt>
      <trkpt lat="42.77363" lon="-0.42241">
        <ele>1900</ele>
        <time>2018-12-27T16:28:58Z</time>
      </trkpt>
      <trkpt lat="42.77359" lon="-0.42261">
        <ele>1899</ele>
        <time>2018-12-27T16:29:02Z</time>
      </trkpt>
      <trkpt lat="42.77359" lon="-0.4227">
        <ele>1898</ele>
        <time>2018-12-27T16:29:04Z</time>
      </trkpt>
      <trkpt lat="42.77349" lon="-0.42309">
        <ele>1897</ele>
        <time>2018-12-27T16:29:12Z</time>
      </trkpt>
      <trkpt lat="42.77349" lon="-0.42349">
        <ele>1896</ele>
        <time>2018-12-27T16:29:20Z</time>
      </trkpt>
      <trkpt lat="42.77355" lon="-0.42396">
        <ele>1897</ele>
        <time>2018-12-27T16:29:29Z</time>
      </trkpt>
      <trkpt lat="42.77348" lon="-0.42407">
        <ele>1898</ele>
        <time>2018-12-27T16:29:32Z</time>
      </trkpt>
      <trkpt lat="42.77337" lon="-0.42416">
        <ele>1898</ele>
        <time>2018-12-27T16:29:35Z</time>
      </trkpt>
      <trkpt lat="42.77332" lon="-0.42426">
        <ele>1899</ele>
        <time>2018-12-27T16:29:38Z</time>
      </trkpt>
      <trkpt lat="42.77335" lon="-0.4245">
        <ele>1899</ele>
        <time>2018-12-27T16:29:43Z</time>
      </trkpt>
      <trkpt lat="42.77347" lon="-0.42477">
        <ele>1900</ele>
        <time>2018-12-27T16:29:49Z</time>
      </trkpt>
      <trkpt lat="42.77357" lon="-0.42489">
        <ele>1900</ele>
        <time>2018-12-27T16:29:52Z</time>
      </trkpt>
      <trkpt lat="42.77371" lon="-0.42558">
        <ele>1903</ele>
        <time>2018-12-27T16:30:06Z</time>
      </trkpt>
      <trkpt lat="42.77368" lon="-0.42594">
        <ele>1908</ele>
        <time>2018-12-27T16:30:14Z</time>
      </trkpt>
      <trkpt lat="42.77369" lon="-0.42647">
        <ele>1916</ele>
        <time>2018-12-27T16:30:24Z</time>
      </trkpt>
      <trkpt lat="42.77374" lon="-0.42667">
        <ele>1922</ele>
        <time>2018-12-27T16:30:28Z</time>
      </trkpt>
      <trkpt lat="42.77374" lon="-0.42684">
        <ele>1925</ele>
        <time>2018-12-27T16:30:31Z</time>
      </trkpt>
      <trkpt lat="42.77377" lon="-0.42693">
        <ele>1927</ele>
        <time>2018-12-27T16:30:33Z</time>
      </trkpt>
      <trkpt lat="42.77383" lon="-0.42699">
        <ele>1930</ele>
        <time>2018-12-27T16:30:35Z</time>
      </trkpt>
      <trkpt lat="42.77388" lon="-0.42724">
        <ele>1932</ele>
        <time>2018-12-27T16:30:40Z</time>
      </trkpt>
      <trkpt lat="42.77388" lon="-0.42742">
        <ele>1932</ele>
        <time>2018-12-27T16:30:44Z</time>
      </trkpt>
      <trkpt lat="42.77395" lon="-0.42753">
        <ele>1936</ele>
        <time>2018-12-27T16:30:47Z</time>
      </trkpt>
      <trkpt lat="42.77401" lon="-0.42786">
        <ele>1942</ele>
        <time>2018-12-27T16:30:53Z</time>
      </trkpt>
      <trkpt lat="42.77409" lon="-0.42811">
        <ele>1950</ele>
        <time>2018-12-27T16:30:59Z</time>
      </trkpt>
      <trkpt lat="42.7742" lon="-0.42824">
        <ele>1959</ele>
        <time>2018-12-27T16:31:03Z</time>
      </trkpt>
      <trkpt lat="42.77431" lon="-0.42863">
        <ele>1965</ele>
        <time>2018-12-27T16:31:11Z</time>
      </trkpt>
      <trkpt lat="42.77435" lon="-0.42871">
        <ele>1968</ele>
        <time>2018-12-27T16:31:13Z</time>
      </trkpt>
      <trkpt lat="42.77446" lon="-0.42884">
        <ele>1973</ele>
        <time>2018-12-27T16:31:16Z</time>
      </trkpt>
      <trkpt lat="42.77457" lon="-0.42915">
        <ele>1977</ele>
        <time>2018-12-27T16:31:23Z</time>
      </trkpt>
      <trkpt lat="42.77468" lon="-0.42985">
        <ele>1979</ele>
        <time>2018-12-27T16:31:37Z</time>
      </trkpt>
      <trkpt lat="42.77468" lon="-0.43012">
        <ele>1984</ele>
        <time>2018-12-27T16:31:43Z</time>
      </trkpt>
      <trkpt lat="42.7747" lon="-0.43027">
        <ele>1987</ele>
        <time>2018-12-27T16:31:46Z</time>
      </trkpt>
      <trkpt lat="42.77478" lon="-0.43055">
        <ele>1991</ele>
        <time>2018-12-27T16:31:51Z</time>
      </trkpt>
      <trkpt lat="42.77485" lon="-0.43067">
        <ele>1994</ele>
        <time>2018-12-27T16:31:54Z</time>
      </trkpt>
      <trkpt lat="42.77486" lon="-0.43074">
        <ele>1995</ele>
        <time>2018-12-27T16:31:56Z</time>
      </trkpt>
      <trkpt lat="42.77491" lon="-0.43079">
        <ele>1996</ele>
        <time>2018-12-27T16:31:58Z</time>
      </trkpt>
      <trkpt lat="42.77503" lon="-0.43094">
        <ele>1997</ele>
        <time>2018-12-27T16:32:02Z</time>
      </trkpt>
      <trkpt lat="42.77501" lon="-0.43117">
        <ele>1997</ele>
        <time>2018-12-27T16:32:06Z</time>
      </trkpt>
      <trkpt lat="42.77498" lon="-0.43127">
        <ele>1997</ele>
        <time>2018-12-27T16:32:08Z</time>
      </trkpt>
      <trkpt lat="42.775" lon="-0.4316">
        <ele>1999</ele>
        <time>2018-12-27T16:32:15Z</time>
      </trkpt>
      <trkpt lat="42.77504" lon="-0.4317">
        <ele>2000</ele>
        <time>2018-12-27T16:32:17Z</time>
      </trkpt>
      <trkpt lat="42.77502" lon="-0.43179">
        <ele>2001</ele>
        <time>2018-12-27T16:32:19Z</time>
      </trkpt>
      <trkpt lat="42.77501" lon="-0.43213">
        <ele>2006</ele>
        <time>2018-12-27T16:32:26Z</time>
      </trkpt>
      <trkpt lat="42.77493" lon="-0.43245">
        <ele>2015</ele>
        <time>2018-12-27T16:32:32Z</time>
      </trkpt>
      <trkpt lat="42.77494" lon="-0.43264">
        <ele>2022</ele>
        <time>2018-12-27T16:32:36Z</time>
      </trkpt>
      <trkpt lat="42.77488" lon="-0.43296">
        <ele>2031</ele>
        <time>2018-12-27T16:32:43Z</time>
      </trkpt>
      <trkpt lat="42.77482" lon="-0.43305">
        <ele>2033</ele>
        <time>2018-12-27T16:32:45Z</time>
      </trkpt>
      <trkpt lat="42.77479" lon="-0.43315">
        <ele>2035</ele>
        <time>2018-12-27T16:32:47Z</time>
      </trkpt>
      <trkpt lat="42.77474" lon="-0.43336">
        <ele>2040</ele>
        <time>2018-12-27T16:32:51Z</time>
      </trkpt>
      <trkpt lat="42.77473" lon="-0.4335">
        <ele>2042</ele>
        <time>2018-12-27T16:32:54Z</time>
      </trkpt>
      <trkpt lat="42.77479" lon="-0.43387">
        <ele>2045</ele>
        <time>2018-12-27T16:33:02Z</time>
      </trkpt>
      <trkpt lat="42.77479" lon="-0.43403">
        <ele>2046</ele>
        <time>2018-12-27T16:33:05Z</time>
      </trkpt>
      <trkpt lat="42.77474" lon="-0.43412">
        <ele>2048</ele>
        <time>2018-12-27T16:33:07Z</time>
      </trkpt>
      <trkpt lat="42.77472" lon="-0.43434">
        <ele>2049</ele>
        <time>2018-12-27T16:33:11Z</time>
      </trkpt>
      <trkpt lat="42.77465" lon="-0.43474">
        <ele>2055</ele>
        <time>2018-12-27T16:33:19Z</time>
      </trkpt>
      <trkpt lat="42.77474" lon="-0.43486">
        <ele>2055</ele>
        <time>2018-12-27T16:33:23Z</time>
      </trkpt>
      <trkpt lat="42.77474" lon="-0.43493">
        <ele>2056</ele>
        <time>2018-12-27T16:33:24Z</time>
      </trkpt>
      <trkpt lat="42.77481" lon="-0.435">
        <ele>2057</ele>
        <time>2018-12-27T16:33:26Z</time>
      </trkpt>
      <trkpt lat="42.7748" lon="-0.43511">
        <ele>2061</ele>
        <time>2018-12-27T16:33:28Z</time>
      </trkpt>
      <trkpt lat="42.77476" lon="-0.43531">
        <ele>2068</ele>
        <time>2018-12-27T16:33:33Z</time>
      </trkpt>
      <trkpt lat="42.77479" lon="-0.43548">
        <ele>2074</ele>
        <time>2018-12-27T16:33:36Z</time>
      </trkpt>
      <trkpt lat="42.77484" lon="-0.43557">
        <ele>2078</ele>
        <time>2018-12-27T16:33:38Z</time>
      </trkpt>
      <trkpt lat="42.77471" lon="-0.43587">
        <ele>2084</ele>
        <time>2018-12-27T16:33:45Z</time>
      </trkpt>
      <trkpt lat="42.77463" lon="-0.43617">
        <ele>2091</ele>
        <time>2018-12-27T16:33:51Z</time>
      </trkpt>
      <trkpt lat="42.77463" lon="-0.4364">
        <ele>2096</ele>
        <time>2018-12-27T16:33:56Z</time>
      </trkpt>
      <trkpt lat="42.77464" lon="-0.4365">
        <ele>2099</ele>
        <time>2018-12-27T16:33:58Z</time>
      </trkpt>
      <trkpt lat="42.77467" lon="-0.4366">
        <ele>2102</ele>
        <time>2018-12-27T16:34:00Z</time>
      </trkpt>
      <trkpt lat="42.77465" lon="-0.43671">
        <ele>2105</ele>
        <time>2018-12-27T16:34:02Z</time>
      </trkpt>
      <trkpt lat="42.77475" lon="-0.43687">
        <ele>2113</ele>
        <time>2018-12-27T16:34:06Z</time>
      </trkpt>
      <trkpt lat="42.77473" lon="-0.43713">
        <ele>2119</ele>
        <time>2018-12-27T16:34:12Z</time>
      </trkpt>
      <trkpt lat="42.77474" lon="-0.4374">
        <ele>2123</ele>
        <time>2018-12-27T16:34:17Z</time>
      </trkpt>
      <trkpt lat="42.77476" lon="-0.4375">
        <ele>2124</ele>
        <time>2018-12-27T16:34:19Z</time>
      </trkpt>
      <trkpt lat="42.77481" lon="-0.43757">
        <ele>2126</ele>
        <time>2018-12-27T16:34:21Z</time>
      </trkpt>
      <trkpt lat="42.7749" lon="-0.43764">
        <ele>2128</ele>
        <time>2018-12-27T16:34:23Z</time>
      </trkpt>
      <trkpt lat="42.77494" lon="-0.43782">
        <ele>2130</ele>
        <time>2018-12-27T16:34:27Z</time>
      </trkpt>
      <trkpt lat="42.77499" lon="-0.43795">
        <ele>2132</ele>
        <time>2018-12-27T16:34:30Z</time>
      </trkpt>
      <trkpt lat="42.7751" lon="-0.43795">
        <ele>2136</ele>
        <time>2018-12-27T16:34:33Z</time>
      </trkpt>
      <trkpt lat="42.77518" lon="-0.43799">
        <ele>2140</ele>
        <time>2018-12-27T16:34:35Z</time>
      </trkpt>
      <trkpt lat="42.77526" lon="-0.43799">
        <ele>2143</ele>
        <time>2018-12-27T16:34:37Z</time>
      </trkpt>
      <trkpt lat="42.77541" lon="-0.43814">
        <ele>2151</ele>
        <time>2018-12-27T16:34:42Z</time>
      </trkpt>
      <trkpt lat="42.7755" lon="-0.43866">
        <ele>2162</ele>
        <time>2018-12-27T16:34:53Z</time>
      </trkpt>
      <trkpt lat="42.77556" lon="-0.4388">
        <ele>2166</ele>
        <time>2018-12-27T16:34:56Z</time>
      </trkpt>
      <trkpt lat="42.77569" lon="-0.43904">
        <ele>2180</ele>
        <time>2018-12-27T16:35:02Z</time>
      </trkpt>
      <trkpt lat="42.77575" lon="-0.43905">
        <ele>2184</ele>
        <time>2018-12-27T16:35:04Z</time>
      </trkpt>
      <trkpt lat="42.77581" lon="-0.43911">
        <ele>2188</ele>
        <time>2018-12-27T16:35:05Z</time>
      </trkpt>
      <trkpt lat="42.77582" lon="-0.43926">
        <ele>2190</ele>
        <time>2018-12-27T16:35:08Z</time>
      </trkpt>
      <trkpt lat="42.77591" lon="-0.43938">
        <ele>2198</ele>
        <time>2018-12-27T16:35:12Z</time>
      </trkpt>
      <trkpt lat="42.77591" lon="-0.43954">
        <ele>2200</ele>
        <time>2018-12-27T16:35:15Z</time>
      </trkpt>
      <trkpt lat="42.77593" lon="-0.43961">
        <ele>2202</ele>
        <time>2018-12-27T16:35:16Z</time>
      </trkpt>
      <trkpt lat="42.7759" lon="-0.43971">
        <ele>2202</ele>
        <time>2018-12-27T16:35:18Z</time>
      </trkpt>
      <trkpt lat="42.77591" lon="-0.43977">
        <ele>2204</ele>
        <time>2018-12-27T16:35:20Z</time>
      </trkpt>
      <trkpt lat="42.77598" lon="-0.43985">
        <ele>2208</ele>
        <time>2018-12-27T16:35:22Z</time>
      </trkpt>
      <trkpt lat="42.77595" lon="-0.43997">
        <ele>2210</ele>
        <time>2018-12-27T16:35:25Z</time>
      </trkpt>
      <trkpt lat="42.77587" lon="-0.44004">
        <ele>2208</ele>
        <time>2018-12-27T16:35:27Z</time>
      </trkpt>
      <trkpt lat="42.77584" lon="-0.44014">
        <ele>2209</ele>
        <time>2018-12-27T16:35:29Z</time>
      </trkpt>
      <trkpt lat="42.77577" lon="-0.44024">
        <ele>2209</ele>
        <time>2018-12-27T16:35:32Z</time>
      </trkpt>
      <trkpt lat="42.77571" lon="-0.44041">
        <ele>2212</ele>
        <time>2018-12-27T16:35:36Z</time>
      </trkpt>
      <trkpt lat="42.77568" lon="-0.44062">
        <ele>2216</ele>
        <time>2018-12-27T16:35:40Z</time>
      </trkpt>
      <trkpt lat="42.77568" lon="-0.44103">
        <ele>2221</ele>
        <time>2018-12-27T16:35:48Z</time>
      </trkpt>
      <trkpt lat="42.77573" lon="-0.44121">
        <ele>2223</ele>
        <time>2018-12-27T16:35:52Z</time>
      </trkpt>
      <trkpt lat="42.77577" lon="-0.4413">
        <ele>2225</ele>
        <time>2018-12-27T16:35:54Z</time>
      </trkpt>
      <trkpt lat="42.77594" lon="-0.44145">
        <ele>2227</ele>
        <time>2018-12-27T16:35:59Z</time>
      </trkpt>
      <trkpt lat="42.77612" lon="-0.4417">
        <ele>2230</ele>
        <time>2018-12-27T16:36:06Z</time>
      </trkpt>
      <trkpt lat="42.77623" lon="-0.44189">
        <ele>2232</ele>
        <time>2018-12-27T16:36:11Z</time>
      </trkpt>
      <trkpt lat="42.77632" lon="-0.44221">
        <ele>2234</ele>
        <time>2018-12-27T16:36:18Z</time>
      </trkpt>
      <trkpt lat="42.77635" lon="-0.44239">
        <ele>2234</ele>
        <time>2018-12-27T16:36:21Z</time>
      </trkpt>
      <trkpt lat="42.77636" lon="-0.44285">
        <ele>2232</ele>
        <time>2018-12-27T16:36:30Z</time>
      </trkpt>
      <trkpt lat="42.77638" lon="-0.44295">
        <ele>2231</ele>
        <time>2018-12-27T16:36:32Z</time>
      </trkpt>
      <trkpt lat="42.77647" lon="-0.44322">
        <ele>2229</ele>
        <time>2018-12-27T16:36:38Z</time>
      </trkpt>
      <trkpt lat="42.77654" lon="-0.44332">
        <ele>2228</ele>
        <time>2018-12-27T16:36:41Z</time>
      </trkpt>
      <trkpt lat="42.77663" lon="-0.4436">
        <ele>2230</ele>
        <time>2018-12-27T16:36:47Z</time>
      </trkpt>
      <trkpt lat="42.77667" lon="-0.44388">
        <ele>2230</ele>
        <time>2018-12-27T16:36:52Z</time>
      </trkpt>
      <trkpt lat="42.77672" lon="-0.44401">
        <ele>2231</ele>
        <time>2018-12-27T16:36:55Z</time>
      </trkpt>
      <trkpt lat="42.77672" lon="-0.44416">
        <ele>2231</ele>
        <time>2018-12-27T16:36:58Z</time>
      </trkpt>
      <trkpt lat="42.7767" lon="-0.44427">
        <ele>2232</ele>
        <time>2018-12-27T16:37:01Z</time>
      </trkpt>
      <trkpt lat="42.77666" lon="-0.44481">
        <ele>2233</ele>
        <time>2018-12-27T16:37:11Z</time>
      </trkpt>
      <trkpt lat="42.77666" lon="-0.44498">
        <ele>2233</ele>
        <time>2018-12-27T16:37:14Z</time>
      </trkpt>
      <trkpt lat="42.7766" lon="-0.44533">
        <ele>2233</ele>
        <time>2018-12-27T16:37:22Z</time>
      </trkpt>
      <trkpt lat="42.7767" lon="-0.44554">
        <ele>2232</ele>
        <time>2018-12-27T16:37:26Z</time>
      </trkpt>
      <trkpt lat="42.77669" lon="-0.44574">
        <ele>2234</ele>
        <time>2018-12-27T16:37:30Z</time>
      </trkpt>
      <trkpt lat="42.77672" lon="-0.44583">
        <ele>2234</ele>
        <time>2018-12-27T16:37:32Z</time>
      </trkpt>
      <trkpt lat="42.77667" lon="-0.44616">
        <ele>2237</ele>
        <time>2018-12-27T16:37:39Z</time>
      </trkpt>
      <trkpt lat="42.77669" lon="-0.44627">
        <ele>2237</ele>
        <time>2018-12-27T16:37:41Z</time>
      </trkpt>
      <trkpt lat="42.77664" lon="-0.44638">
        <ele>2238</ele>
        <time>2018-12-27T16:37:43Z</time>
      </trkpt>
      <trkpt lat="42.77665" lon="-0.44672">
        <ele>2239</ele>
        <time>2018-12-27T16:37:50Z</time>
      </trkpt>
      <trkpt lat="42.77669" lon="-0.44681">
        <ele>2238</ele>
        <time>2018-12-27T16:37:52Z</time>
      </trkpt>
      <trkpt lat="42.77679" lon="-0.4474">
        <ele>2240</ele>
        <time>2018-12-27T16:38:04Z</time>
      </trkpt>
      <trkpt lat="42.77683" lon="-0.44778">
        <ele>2242</ele>
        <time>2018-12-27T16:38:11Z</time>
      </trkpt>
      <trkpt lat="42.77688" lon="-0.44789">
        <ele>2243</ele>
        <time>2018-12-27T16:38:14Z</time>
      </trkpt>
      <trkpt lat="42.77692" lon="-0.44827">
        <ele>2245</ele>
        <time>2018-12-27T16:38:22Z</time>
      </trkpt>
      <trkpt lat="42.77688" lon="-0.44851">
        <ele>2247</ele>
        <time>2018-12-27T16:38:26Z</time>
      </trkpt>
      <trkpt lat="42.77676" lon="-0.44901">
        <ele>2251</ele>
        <time>2018-12-27T16:38:37Z</time>
      </trkpt>
      <trkpt lat="42.77699" lon="-0.44957">
        <ele>2257</ele>
        <time>2018-12-27T16:38:49Z</time>
      </trkpt>
      <trkpt lat="42.77702" lon="-0.44974">
        <ele>2259</ele>
        <time>2018-12-27T16:38:53Z</time>
      </trkpt>
      <trkpt lat="42.77716" lon="-0.45014">
        <ele>2266</ele>
        <time>2018-12-27T16:39:01Z</time>
      </trkpt>
      <trkpt lat="42.77716" lon="-0.45025">
        <ele>2266</ele>
        <time>2018-12-27T16:39:03Z</time>
      </trkpt>
      <trkpt lat="42.77726" lon="-0.45038">
        <ele>2270</ele>
        <time>2018-12-27T16:39:07Z</time>
      </trkpt>
      <trkpt lat="42.7773" lon="-0.45086">
        <ele>2279</ele>
        <time>2018-12-27T16:39:17Z</time>
      </trkpt>
      <trkpt lat="42.7773" lon="-0.45095">
        <ele>2280</ele>
        <time>2018-12-27T16:39:18Z</time>
      </trkpt>
      <trkpt lat="42.77732" lon="-0.45123">
        <ele>2285</ele>
        <time>2018-12-27T16:39:24Z</time>
      </trkpt>
      <trkpt lat="42.77735" lon="-0.45128">
        <ele>2286</ele>
        <time>2018-12-27T16:39:25Z</time>
      </trkpt>
      <trkpt lat="42.7774" lon="-0.45131">
        <ele>2286</ele>
        <time>2018-12-27T16:39:26Z</time>
      </trkpt>
      <trkpt lat="42.77752" lon="-0.45135">
        <ele>2286</ele>
        <time>2018-12-27T16:39:30Z</time>
      </trkpt>
      <trkpt lat="42.77767" lon="-0.45143">
        <ele>2287</ele>
        <time>2018-12-27T16:39:34Z</time>
      </trkpt>
      <trkpt lat="42.77773" lon="-0.45154">
        <ele>2288</ele>
        <time>2018-12-27T16:39:37Z</time>
      </trkpt>
      <trkpt lat="42.77772" lon="-0.45165">
        <ele>2289</ele>
        <time>2018-12-27T16:39:39Z</time>
      </trkpt>
      <trkpt lat="42.77774" lon="-0.45191">
        <ele>2292</ele>
        <time>2018-12-27T16:39:44Z</time>
      </trkpt>
      <trkpt lat="42.7777" lon="-0.45208">
        <ele>2293</ele>
        <time>2018-12-27T16:39:47Z</time>
      </trkpt>
      <trkpt lat="42.77772" lon="-0.45229">
        <ele>2295</ele>
        <time>2018-12-27T16:39:52Z</time>
      </trkpt>
      <trkpt lat="42.77771" lon="-0.45242">
        <ele>2295</ele>
        <time>2018-12-27T16:39:54Z</time>
      </trkpt>
      <trkpt lat="42.77774" lon="-0.45272">
        <ele>2297</ele>
        <time>2018-12-27T16:40:00Z</time>
      </trkpt>
      <trkpt lat="42.77779" lon="-0.45298">
        <ele>2298</ele>
        <time>2018-12-27T16:40:06Z</time>
      </trkpt>
      <trkpt lat="42.77776" lon="-0.45326">
        <ele>2303</ele>
        <time>2018-12-27T16:40:11Z</time>
      </trkpt>
      <trkpt lat="42.77779" lon="-0.45347">
        <ele>2307</ele>
        <time>2018-12-27T16:40:15Z</time>
      </trkpt>
      <trkpt lat="42.77793" lon="-0.45364">
        <ele>2307</ele>
        <time>2018-12-27T16:40:20Z</time>
      </trkpt>
      <trkpt lat="42.77803" lon="-0.45381">
        <ele>2306</ele>
        <time>2018-12-27T16:40:25Z</time>
      </trkpt>
      <trkpt lat="42.77812" lon="-0.45386">
        <ele>2305</ele>
        <time>2018-12-27T16:40:27Z</time>
      </trkpt>
      <trkpt lat="42.77826" lon="-0.45404">
        <ele>2305</ele>
        <time>2018-12-27T16:40:32Z</time>
      </trkpt>
      <trkpt lat="42.77847" lon="-0.45473">
        <ele>2319</ele>
        <time>2018-12-27T16:40:47Z</time>
      </trkpt>
      <trkpt lat="42.77848" lon="-0.45481">
        <ele>2319</ele>
        <time>2018-12-27T16:40:48Z</time>
      </trkpt>
      <trkpt lat="42.77846" lon="-0.45519">
        <ele>2323</ele>
        <time>2018-12-27T16:40:56Z</time>
      </trkpt>
      <trkpt lat="42.77839" lon="-0.45535">
        <ele>2326</ele>
        <time>2018-12-27T16:40:59Z</time>
      </trkpt>
      <trkpt lat="42.77839" lon="-0.45557">
        <ele>2328</ele>
        <time>2018-12-27T16:41:04Z</time>
      </trkpt>
      <trkpt lat="42.77841" lon="-0.45586">
        <ele>2332</ele>
        <time>2018-12-27T16:41:10Z</time>
      </trkpt>
      <trkpt lat="42.7783" lon="-0.45605">
        <ele>2336</ele>
        <time>2018-12-27T16:41:14Z</time>
      </trkpt>
      <trkpt lat="42.77823" lon="-0.45615">
        <ele>2339</ele>
        <time>2018-12-27T16:41:17Z</time>
      </trkpt>
      <trkpt lat="42.77817" lon="-0.4565">
        <ele>2343</ele>
        <time>2018-12-27T16:41:24Z</time>
      </trkpt>
      <trkpt lat="42.77825" lon="-0.45676">
        <ele>2347</ele>
        <time>2018-12-27T16:41:30Z</time>
      </trkpt>
      <trkpt lat="42.77841" lon="-0.45698">
        <ele>2357</ele>
        <time>2018-12-27T16:41:36Z</time>
      </trkpt>
      <trkpt lat="42.77847" lon="-0.45704">
        <ele>2360</ele>
        <time>2018-12-27T16:41:38Z</time>
      </trkpt>
      <trkpt lat="42.77859" lon="-0.45703">
        <ele>2364</ele>
        <time>2018-12-27T16:41:41Z</time>
      </trkpt>
      <trkpt lat="42.7787" lon="-0.45714">
        <ele>2372</ele>
        <time>2018-12-27T16:41:44Z</time>
      </trkpt>
      <trkpt lat="42.77879" lon="-0.45717">
        <ele>2379</ele>
        <time>2018-12-27T16:41:47Z</time>
      </trkpt>
      <trkpt lat="42.77892" lon="-0.45715">
        <ele>2384</ele>
        <time>2018-12-27T16:41:50Z</time>
      </trkpt>
      <trkpt lat="42.77899" lon="-0.45724">
        <ele>2392</ele>
        <time>2018-12-27T16:41:53Z</time>
      </trkpt>
      <trkpt lat="42.77899" lon="-0.45732">
        <ele>2397</ele>
        <time>2018-12-27T16:41:55Z</time>
      </trkpt>
      <trkpt lat="42.77914" lon="-0.45733">
        <ele>2402</ele>
        <time>2018-12-27T16:41:59Z</time>
      </trkpt>
      <trkpt lat="42.77913" lon="-0.45739">
        <ele>2404</ele>
        <time>2018-12-27T16:42:00Z</time>
      </trkpt>
      <trkpt lat="42.77907" lon="-0.45747">
        <ele>2406</ele>
        <time>2018-12-27T16:42:02Z</time>
      </trkpt>
      <trkpt lat="42.77904" lon="-0.45764">
        <ele>2410</ele>
        <time>2018-12-27T16:42:06Z</time>
      </trkpt>
      <trkpt lat="42.77908" lon="-0.45768">
        <ele>2411</ele>
        <time>2018-12-27T16:42:07Z</time>
      </trkpt>
      <trkpt lat="42.77909" lon="-0.45774">
        <ele>2412</ele>
        <time>2018-12-27T16:42:08Z</time>
      </trkpt>
      <trkpt lat="42.77917" lon="-0.45774">
        <ele>2413</ele>
        <time>2018-12-27T16:42:10Z</time>
      </trkpt>
      <trkpt lat="42.77916" lon="-0.45786">
        <ele>2413</ele>
        <time>2018-12-27T16:42:13Z</time>
      </trkpt>
      <trkpt lat="42.77921" lon="-0.45784">
        <ele>2412</ele>
        <time>2018-12-27T16:42:14Z</time>
      </trkpt>
      <trkpt lat="42.77927" lon="-0.45789">
        <ele>2411</ele>
        <time>2018-12-27T16:42:16Z</time>
      </trkpt>
      <trkpt lat="42.77929" lon="-0.45794">
        <ele>2410</ele>
        <time>2018-12-27T16:42:17Z</time>
      </trkpt>
      <trkpt lat="42.7792" lon="-0.45803">
        <ele>2412</ele>
        <time>2018-12-27T16:42:20Z</time>
      </trkpt>
      <trkpt lat="42.77909" lon="-0.45818">
        <ele>2411</ele>
        <time>2018-12-27T16:42:24Z</time>
      </trkpt>
      <trkpt lat="42.77904" lon="-0.45822">
        <ele>2411</ele>
        <time>2018-12-27T16:42:26Z</time>
      </trkpt>
      <trkpt lat="42.77896" lon="-0.45822">
        <ele>2411</ele>
        <time>2018-12-27T16:42:28Z</time>
      </trkpt>
      <trkpt lat="42.77885" lon="-0.45815">
        <ele>2410</ele>
        <time>2018-12-27T16:42:31Z</time>
      </trkpt>
      <trkpt lat="42.77851" lon="-0.45815">
        <ele>2406</ele>
        <time>2018-12-27T16:42:40Z</time>
      </trkpt>
      <trkpt lat="42.77836" lon="-0.45818">
        <ele>2405</ele>
        <time>2018-12-27T16:42:44Z</time>
      </trkpt>
      <trkpt lat="42.77819" lon="-0.45819">
        <ele>2408</ele>
        <time>2018-12-27T16:42:48Z</time>
      </trkpt>
      <trkpt lat="42.77803" lon="-0.45822">
        <ele>2412</ele>
        <time>2018-12-27T16:42:53Z</time>
      </trkpt>
      <trkpt lat="42.77786" lon="-0.45827">
        <ele>2417</ele>
        <time>2018-12-27T16:42:57Z</time>
      </trkpt>
      <trkpt lat="42.77774" lon="-0.45833">
        <ele>2421</ele>
        <time>2018-12-27T16:43:01Z</time>
      </trkpt>
      <trkpt lat="42.77758" lon="-0.45851">
        <ele>2427</ele>
        <time>2018-12-27T16:43:06Z</time>
      </trkpt>
      <trkpt lat="42.77733" lon="-0.45872">
        <ele>2435</ele>
        <time>2018-12-27T16:43:14Z</time>
      </trkpt>
      <trkpt lat="42.77717" lon="-0.4589">
        <ele>2440</ele>
        <time>2018-12-27T16:43:20Z</time>
      </trkpt>
      <trkpt lat="42.77703" lon="-0.45902">
        <ele>2442</ele>
        <time>2018-12-27T16:43:24Z</time>
      </trkpt>
      <trkpt lat="42.77696" lon="-0.45911">
        <ele>2443</ele>
        <time>2018-12-27T16:43:27Z</time>
      </trkpt>
      <trkpt lat="42.7769" lon="-0.45915">
        <ele>2445</ele>
        <time>2018-12-27T16:43:29Z</time>
      </trkpt>
      <trkpt lat="42.77686" lon="-0.45908">
        <ele>2446</ele>
        <time>2018-12-27T16:43:30Z</time>
      </trkpt>
      <trkpt lat="42.77682" lon="-0.45911">
        <ele>2447</ele>
        <time>2018-12-27T16:43:32Z</time>
      </trkpt>
      <trkpt lat="42.77667" lon="-0.45933">
        <ele>2455</ele>
        <time>2018-12-27T16:43:38Z</time>
      </trkpt>
      <trkpt lat="42.77653" lon="-0.45952">
        <ele>2459</ele>
        <time>2018-12-27T16:43:43Z</time>
      </trkpt>
      <trkpt lat="42.77647" lon="-0.45958">
        <ele>2461</ele>
        <time>2018-12-27T16:43:45Z</time>
      </trkpt>
      <trkpt lat="42.77644" lon="-0.45965">
        <ele>2462</ele>
        <time>2018-12-27T16:43:46Z</time>
      </trkpt>
      <trkpt lat="42.77638" lon="-0.45972">
        <ele>2465</ele>
        <time>2018-12-27T16:43:49Z</time>
      </trkpt>
      <trkpt lat="42.77635" lon="-0.45966">
        <ele>2466</ele>
        <time>2018-12-27T16:43:50Z</time>
      </trkpt>
      <trkpt lat="42.7763" lon="-0.45963">
        <ele>2466</ele>
        <time>2018-12-27T16:43:51Z</time>
      </trkpt>
      <trkpt lat="42.77606" lon="-0.45979">
        <ele>2475</ele>
        <time>2018-12-27T16:43:58Z</time>
      </trkpt>
      <trkpt lat="42.77594" lon="-0.45994">
        <ele>2482</ele>
        <time>2018-12-27T16:44:03Z</time>
      </trkpt>
      <trkpt lat="42.77588" lon="-0.46005">
        <ele>2487</ele>
        <time>2018-12-27T16:44:05Z</time>
      </trkpt>
      <trkpt lat="42.77562" lon="-0.46034">
        <ele>2514</ele>
        <time>2018-12-27T16:44:14Z</time>
      </trkpt>
      <trkpt lat="42.7755" lon="-0.46043">
        <ele>2523</ele>
        <time>2018-12-27T16:44:18Z</time>
      </trkpt>
      <trkpt lat="42.77545" lon="-0.46049">
        <ele>2526</ele>
        <time>2018-12-27T16:44:20Z</time>
      </trkpt>
      <trkpt lat="42.7754" lon="-0.46049">
        <ele>2528</ele>
        <time>2018-12-27T16:44:21Z</time>
      </trkpt>
      <trkpt lat="42.77539" lon="-0.46042">
        <ele>2526</ele>
        <time>2018-12-27T16:44:22Z</time>
      </trkpt>
      <trkpt lat="42.77514" lon="-0.4606">
        <ele>2532</ele>
        <time>2018-12-27T16:44:30Z</time>
      </trkpt>
      <trkpt lat="42.77508" lon="-0.46066">
        <ele>2532</ele>
        <time>2018-12-27T16:44:32Z</time>
      </trkpt>
      <trkpt lat="42.77497" lon="-0.46085">
        <ele>2536</ele>
        <time>2018-12-27T16:44:37Z</time>
      </trkpt>
      <trkpt lat="42.77486" lon="-0.46131">
        <ele>2529</ele>
        <time>2018-12-27T16:44:46Z</time>
      </trkpt>
      <trkpt lat="42.77482" lon="-0.46135">
        <ele>2529</ele>
        <time>2018-12-27T16:44:47Z</time>
      </trkpt>
      <trkpt lat="42.77482" lon="-0.46144">
        <ele>2527</ele>
        <time>2018-12-27T16:44:49Z</time>
      </trkpt>
      <trkpt lat="42.77486" lon="-0.46149">
        <ele>2526</ele>
        <time>2018-12-27T16:44:51Z</time>
      </trkpt>
      <trkpt lat="42.77486" lon="-0.46155">
        <ele>2524</ele>
        <time>2018-12-27T16:44:52Z</time>
      </trkpt>
      <trkpt lat="42.77483" lon="-0.46165">
        <ele>2522</ele>
        <time>2018-12-27T16:44:54Z</time>
      </trkpt>
      <trkpt lat="42.77486" lon="-0.46178">
        <ele>2521</ele>
        <time>2018-12-27T16:44:57Z</time>
      </trkpt>
      <trkpt lat="42.77483" lon="-0.46189">
        <ele>2520</ele>
        <time>2018-12-27T16:44:59Z</time>
      </trkpt>
      <trkpt lat="42.77482" lon="-0.46217">
        <ele>2507</ele>
        <time>2018-12-27T16:45:05Z</time>
      </trkpt>
      <trkpt lat="42.77477" lon="-0.46238">
        <ele>2503</ele>
        <time>2018-12-27T16:45:09Z</time>
      </trkpt>
      <trkpt lat="42.77466" lon="-0.46266">
        <ele>2494</ele>
        <time>2018-12-27T16:45:15Z</time>
      </trkpt>
      <trkpt lat="42.7746" lon="-0.46295">
        <ele>2485</ele>
        <time>2018-12-27T16:45:21Z</time>
      </trkpt>
      <trkpt lat="42.77453" lon="-0.46304">
        <ele>2484</ele>
        <time>2018-12-27T16:45:24Z</time>
      </trkpt>
      <trkpt lat="42.77442" lon="-0.46312">
        <ele>2483</ele>
        <time>2018-12-27T16:45:27Z</time>
      </trkpt>
      <trkpt lat="42.7743" lon="-0.46317">
        <ele>2482</ele>
        <time>2018-12-27T16:45:30Z</time>
      </trkpt>
      <trkpt lat="42.77427" lon="-0.46322">
        <ele>2481</ele>
        <time>2018-12-27T16:45:32Z</time>
      </trkpt>
      <trkpt lat="42.77433" lon="-0.46346">
        <ele>2476</ele>
        <time>2018-12-27T16:45:37Z</time>
      </trkpt>
      <trkpt lat="42.77437" lon="-0.46356">
        <ele>2473</ele>
        <time>2018-12-27T16:45:39Z</time>
      </trkpt>
      <trkpt lat="42.77436" lon="-0.46364">
        <ele>2471</ele>
        <time>2018-12-27T16:45:40Z</time>
      </trkpt>
      <trkpt lat="42.77426" lon="-0.46372">
        <ele>2469</ele>
        <time>2018-12-27T16:45:43Z</time>
      </trkpt>
      <trkpt lat="42.77421" lon="-0.46384">
        <ele>2464</ele>
        <time>2018-12-27T16:45:46Z</time>
      </trkpt>
      <trkpt lat="42.77409" lon="-0.46414">
        <ele>2450</ele>
        <time>2018-12-27T16:45:53Z</time>
      </trkpt>
      <trkpt lat="42.77402" lon="-0.46443">
        <ele>2438</ele>
        <time>2018-12-27T16:45:59Z</time>
      </trkpt>
      <trkpt lat="42.77395" lon="-0.46455">
        <ele>2435</ele>
        <time>2018-12-27T16:46:02Z</time>
      </trkpt>
      <trkpt lat="42.77388" lon="-0.46456">
        <ele>2435</ele>
        <time>2018-12-27T16:46:04Z</time>
      </trkpt>
      <trkpt lat="42.77384" lon="-0.46461">
        <ele>2433</ele>
        <time>2018-12-27T16:46:05Z</time>
      </trkpt>
      <trkpt lat="42.77384" lon="-0.46469">
        <ele>2430</ele>
        <time>2018-12-27T16:46:07Z</time>
      </trkpt>
      <trkpt lat="42.7738" lon="-0.46476">
        <ele>2428</ele>
        <time>2018-12-27T16:46:09Z</time>
      </trkpt>
      <trkpt lat="42.77375" lon="-0.4648">
        <ele>2427</ele>
        <time>2018-12-27T16:46:10Z</time>
      </trkpt>
      <trkpt lat="42.77376" lon="-0.46487">
        <ele>2426</ele>
        <time>2018-12-27T16:46:11Z</time>
      </trkpt>
      <trkpt lat="42.77385" lon="-0.46512">
        <ele>2422</ele>
        <time>2018-12-27T16:46:17Z</time>
      </trkpt>
      <trkpt lat="42.77388" lon="-0.46531">
        <ele>2420</ele>
        <time>2018-12-27T16:46:21Z</time>
      </trkpt>
      <trkpt lat="42.77394" lon="-0.46551">
        <ele>2416</ele>
        <time>2018-12-27T16:46:25Z</time>
      </trkpt>
      <trkpt lat="42.77387" lon="-0.46579">
        <ele>2412</ele>
        <time>2018-12-27T16:46:31Z</time>
      </trkpt>
      <trkpt lat="42.77391" lon="-0.46598">
        <ele>2406</ele>
        <time>2018-12-27T16:46:35Z</time>
      </trkpt>
      <trkpt lat="42.77391" lon="-0.46607">
        <ele>2403</ele>
        <time>2018-12-27T16:46:36Z</time>
      </trkpt>
      <trkpt lat="42.77394" lon="-0.46622">
        <ele>2399</ele>
        <time>2018-12-27T16:46:39Z</time>
      </trkpt>
      <trkpt lat="42.77403" lon="-0.46638">
        <ele>2395</ele>
        <time>2018-12-27T16:46:43Z</time>
      </trkpt>
      <trkpt lat="42.77402" lon="-0.46657">
        <ele>2388</ele>
        <time>2018-12-27T16:46:47Z</time>
      </trkpt>
      <trkpt lat="42.77404" lon="-0.46668">
        <ele>2384</ele>
        <time>2018-12-27T16:46:49Z</time>
      </trkpt>
      <trkpt lat="42.77404" lon="-0.46681">
        <ele>2380</ele>
        <time>2018-12-27T16:46:52Z</time>
      </trkpt>
      <trkpt lat="42.77401" lon="-0.4669">
        <ele>2378</ele>
        <time>2018-12-27T16:46:54Z</time>
      </trkpt>
      <trkpt lat="42.77394" lon="-0.46725">
        <ele>2371</ele>
        <time>2018-12-27T16:47:01Z</time>
      </trkpt>
      <trkpt lat="42.77384" lon="-0.46766">
        <ele>2369</ele>
        <time>2018-12-27T16:47:09Z</time>
      </trkpt>
      <trkpt lat="42.77381" lon="-0.46803">
        <ele>2375</ele>
        <time>2018-12-27T16:47:16Z</time>
      </trkpt>
      <trkpt lat="42.77379" lon="-0.46809">
        <ele>2376</ele>
        <time>2018-12-27T16:47:18Z</time>
      </trkpt>
      <trkpt lat="42.77375" lon="-0.46849">
        <ele>2377</ele>
        <time>2018-12-27T16:47:26Z</time>
      </trkpt>
      <trkpt lat="42.77377" lon="-0.46858">
        <ele>2377</ele>
        <time>2018-12-27T16:47:28Z</time>
      </trkpt>
      <trkpt lat="42.77378" lon="-0.46883">
        <ele>2377</ele>
        <time>2018-12-27T16:47:32Z</time>
      </trkpt>
      <trkpt lat="42.77373" lon="-0.46898">
        <ele>2378</ele>
        <time>2018-12-27T16:47:36Z</time>
      </trkpt>
      <trkpt lat="42.77373" lon="-0.46906">
        <ele>2378</ele>
        <time>2018-12-27T16:47:37Z</time>
      </trkpt>
      <trkpt lat="42.77378" lon="-0.46918">
        <ele>2379</ele>
        <time>2018-12-27T16:47:40Z</time>
      </trkpt>
      <trkpt lat="42.77387" lon="-0.4692">
        <ele>2379</ele>
        <time>2018-12-27T16:47:42Z</time>
      </trkpt>
      <trkpt lat="42.77392" lon="-0.46923">
        <ele>2378</ele>
        <time>2018-12-27T16:47:44Z</time>
      </trkpt>
      <trkpt lat="42.77395" lon="-0.46929">
        <ele>2378</ele>
        <time>2018-12-27T16:47:45Z</time>
      </trkpt>
      <trkpt lat="42.77404" lon="-0.46933">
        <ele>2375</ele>
        <time>2018-12-27T16:47:48Z</time>
      </trkpt>
      <trkpt lat="42.77409" lon="-0.46929">
        <ele>2372</ele>
        <time>2018-12-27T16:47:49Z</time>
      </trkpt>
      <trkpt lat="42.77412" lon="-0.46924">
        <ele>2370</ele>
        <time>2018-12-27T16:47:51Z</time>
      </trkpt>
      <trkpt lat="42.77438" lon="-0.4691">
        <ele>2345</ele>
        <time>2018-12-27T16:47:58Z</time>
      </trkpt>
      <trkpt lat="42.77464" lon="-0.4691">
        <ele>2333</ele>
        <time>2018-12-27T16:48:05Z</time>
      </trkpt>
      <trkpt lat="42.77475" lon="-0.46903">
        <ele>2329</ele>
        <time>2018-12-27T16:48:08Z</time>
      </trkpt>
      <trkpt lat="42.77474" lon="-0.46895">
        <ele>2329</ele>
        <time>2018-12-27T16:48:10Z</time>
      </trkpt>
      <trkpt lat="42.77484" lon="-0.46897">
        <ele>2325</ele>
        <time>2018-12-27T16:48:12Z</time>
      </trkpt>
      <trkpt lat="42.77493" lon="-0.46884">
        <ele>2321</ele>
        <time>2018-12-27T16:48:16Z</time>
      </trkpt>
      <trkpt lat="42.77508" lon="-0.46878">
        <ele>2312</ele>
        <time>2018-12-27T16:48:20Z</time>
      </trkpt>
      <trkpt lat="42.77514" lon="-0.46877">
        <ele>2308</ele>
        <time>2018-12-27T16:48:22Z</time>
      </trkpt>
      <trkpt lat="42.77532" lon="-0.4689">
        <ele>2298</ele>
        <time>2018-12-27T16:48:27Z</time>
      </trkpt>
      <trkpt lat="42.77552" lon="-0.469">
        <ele>2293</ele>
        <time>2018-12-27T16:48:33Z</time>
      </trkpt>
      <trkpt lat="42.77557" lon="-0.469">
        <ele>2292</ele>
        <time>2018-12-27T16:48:34Z</time>
      </trkpt>
      <trkpt lat="42.77562" lon="-0.46897">
        <ele>2290</ele>
        <time>2018-12-27T16:48:36Z</time>
      </trkpt>
      <trkpt lat="42.7757" lon="-0.46899">
        <ele>2288</ele>
        <time>2018-12-27T16:48:38Z</time>
      </trkpt>
      <trkpt lat="42.77582" lon="-0.46897">
        <ele>2284</ele>
        <time>2018-12-27T16:48:41Z</time>
      </trkpt>
      <trkpt lat="42.77584" lon="-0.46887">
        <ele>2281</ele>
        <time>2018-12-27T16:48:43Z</time>
      </trkpt>
      <trkpt lat="42.77586" lon="-0.46881">
        <ele>2279</ele>
        <time>2018-12-27T16:48:44Z</time>
      </trkpt>
      <trkpt lat="42.77593" lon="-0.46877">
        <ele>2277</ele>
        <time>2018-12-27T16:48:46Z</time>
      </trkpt>
      <trkpt lat="42.77602" lon="-0.46875">
        <ele>2275</ele>
        <time>2018-12-27T16:48:49Z</time>
      </trkpt>
      <trkpt lat="42.77606" lon="-0.46879">
        <ele>2275</ele>
        <time>2018-12-27T16:48:50Z</time>
      </trkpt>
      <trkpt lat="42.77615" lon="-0.46884">
        <ele>2274</ele>
        <time>2018-12-27T16:48:53Z</time>
      </trkpt>
      <trkpt lat="42.77648" lon="-0.46885">
        <ele>2266</ele>
        <time>2018-12-27T16:49:01Z</time>
      </trkpt>
      <trkpt lat="42.7767" lon="-0.46896">
        <ele>2264</ele>
        <time>2018-12-27T16:49:08Z</time>
      </trkpt>
      <trkpt lat="42.77695" lon="-0.46897">
        <ele>2254</ele>
        <time>2018-12-27T16:49:14Z</time>
      </trkpt>
      <trkpt lat="42.77702" lon="-0.46903">
        <ele>2252</ele>
        <time>2018-12-27T16:49:16Z</time>
      </trkpt>
      <trkpt lat="42.77716" lon="-0.4693">
        <ele>2250</ele>
        <time>2018-12-27T16:49:23Z</time>
      </trkpt>
      <trkpt lat="42.77737" lon="-0.46953">
        <ele>2240</ele>
        <time>2018-12-27T16:49:30Z</time>
      </trkpt>
      <trkpt lat="42.77747" lon="-0.46952">
        <ele>2233</ele>
        <time>2018-12-27T16:49:33Z</time>
      </trkpt>
      <trkpt lat="42.77752" lon="-0.46959">
        <ele>2230</ele>
        <time>2018-12-27T16:49:35Z</time>
      </trkpt>
      <trkpt lat="42.77762" lon="-0.46964">
        <ele>2227</ele>
        <time>2018-12-27T16:49:38Z</time>
      </trkpt>
      <trkpt lat="42.77771" lon="-0.46966">
        <ele>2224</ele>
        <time>2018-12-27T16:49:40Z</time>
      </trkpt>
      <trkpt lat="42.77783" lon="-0.46972">
        <ele>2220</ele>
        <time>2018-12-27T16:49:43Z</time>
      </trkpt>
      <trkpt lat="42.77787" lon="-0.46979">
        <ele>2220</ele>
        <time>2018-12-27T16:49:45Z</time>
      </trkpt>
      <trkpt lat="42.77792" lon="-0.47012">
        <ele>2221</ele>
        <time>2018-12-27T16:49:52Z</time>
      </trkpt>
      <trkpt lat="42.77802" lon="-0.47029">
        <ele>2219</ele>
        <time>2018-12-27T16:49:56Z</time>
      </trkpt>
      <trkpt lat="42.77821" lon="-0.47073">
        <ele>2213</ele>
        <time>2018-12-27T16:50:06Z</time>
      </trkpt>
      <trkpt lat="42.77824" lon="-0.47109">
        <ele>2206</ele>
        <time>2018-12-27T16:50:13Z</time>
      </trkpt>
      <trkpt lat="42.77827" lon="-0.47124">
        <ele>2205</ele>
        <time>2018-12-27T16:50:16Z</time>
      </trkpt>
      <trkpt lat="42.77826" lon="-0.47152">
        <ele>2204</ele>
        <time>2018-12-27T16:50:21Z</time>
      </trkpt>
      <trkpt lat="42.77832" lon="-0.47173">
        <ele>2198</ele>
        <time>2018-12-27T16:50:26Z</time>
      </trkpt>
      <trkpt lat="42.77835" lon="-0.47197">
        <ele>2193</ele>
        <time>2018-12-27T16:50:31Z</time>
      </trkpt>
      <trkpt lat="42.77833" lon="-0.47214">
        <ele>2192</ele>
        <time>2018-12-27T16:50:34Z</time>
      </trkpt>
      <trkpt lat="42.77839" lon="-0.47228">
        <ele>2189</ele>
        <time>2018-12-27T16:50:37Z</time>
      </trkpt>
      <trkpt lat="42.77841" lon="-0.47277">
        <ele>2184</ele>
        <time>2018-12-27T16:50:47Z</time>
      </trkpt>
      <trkpt lat="42.77837" lon="-0.47317">
        <ele>2179</ele>
        <time>2018-12-27T16:50:55Z</time>
      </trkpt>
      <trkpt lat="42.77835" lon="-0.4733">
        <ele>2177</ele>
        <time>2018-12-27T16:50:57Z</time>
      </trkpt>
      <trkpt lat="42.77822" lon="-0.47375">
        <ele>2171</ele>
        <time>2018-12-27T16:51:07Z</time>
      </trkpt>
      <trkpt lat="42.77819" lon="-0.47389">
        <ele>2169</ele>
        <time>2018-12-27T16:51:10Z</time>
      </trkpt>
      <trkpt lat="42.7782" lon="-0.47402">
        <ele>2166</ele>
        <time>2018-12-27T16:51:12Z</time>
      </trkpt>
      <trkpt lat="42.7782" lon="-0.47415">
        <ele>2163</ele>
        <time>2018-12-27T16:51:15Z</time>
      </trkpt>
      <trkpt lat="42.77822" lon="-0.47446">
        <ele>2158</ele>
        <time>2018-12-27T16:51:21Z</time>
      </trkpt>
      <trkpt lat="42.77821" lon="-0.47459">
        <ele>2157</ele>
        <time>2018-12-27T16:51:24Z</time>
      </trkpt>
      <trkpt lat="42.77819" lon="-0.4747">
        <ele>2156</ele>
        <time>2018-12-27T16:51:26Z</time>
      </trkpt>
      <trkpt lat="42.77819" lon="-0.47522">
        <ele>2150</ele>
        <time>2018-12-27T16:51:36Z</time>
      </trkpt>
      <trkpt lat="42.77816" lon="-0.47547">
        <ele>2149</ele>
        <time>2018-12-27T16:51:41Z</time>
      </trkpt>
      <trkpt lat="42.77815" lon="-0.47604">
        <ele>2148</ele>
        <time>2018-12-27T16:51:52Z</time>
      </trkpt>
      <trkpt lat="42.77821" lon="-0.47623">
        <ele>2143</ele>
        <time>2018-12-27T16:51:56Z</time>
      </trkpt>
      <trkpt lat="42.77826" lon="-0.47631">
        <ele>2139</ele>
        <time>2018-12-27T16:51:58Z</time>
      </trkpt>
      <trkpt lat="42.77826" lon="-0.4764">
        <ele>2138</ele>
        <time>2018-12-27T16:52:00Z</time>
      </trkpt>
      <trkpt lat="42.77836" lon="-0.47659">
        <ele>2133</ele>
        <time>2018-12-27T16:52:05Z</time>
      </trkpt>
      <trkpt lat="42.77846" lon="-0.47687">
        <ele>2130</ele>
        <time>2018-12-27T16:52:11Z</time>
      </trkpt>
      <trkpt lat="42.77843" lon="-0.47698">
        <ele>2131</ele>
        <time>2018-12-27T16:52:13Z</time>
      </trkpt>
      <trkpt lat="42.77844" lon="-0.47706">
        <ele>2132</ele>
        <time>2018-12-27T16:52:15Z</time>
      </trkpt>
      <trkpt lat="42.77846" lon="-0.47712">
        <ele>2132</ele>
        <time>2018-12-27T16:52:16Z</time>
      </trkpt>
      <trkpt lat="42.77853" lon="-0.47721">
        <ele>2130</ele>
        <time>2018-12-27T16:52:18Z</time>
      </trkpt>
      <trkpt lat="42.77856" lon="-0.47731">
        <ele>2129</ele>
        <time>2018-12-27T16:52:21Z</time>
      </trkpt>
      <trkpt lat="42.77859" lon="-0.47758">
        <ele>2127</ele>
        <time>2018-12-27T16:52:26Z</time>
      </trkpt>
      <trkpt lat="42.77866" lon="-0.47777">
        <ele>2125</ele>
        <time>2018-12-27T16:52:30Z</time>
      </trkpt>
      <trkpt lat="42.77869" lon="-0.47788">
        <ele>2121</ele>
        <time>2018-12-27T16:52:32Z</time>
      </trkpt>
      <trkpt lat="42.77864" lon="-0.478">
        <ele>2120</ele>
        <time>2018-12-27T16:52:35Z</time>
      </trkpt>
      <trkpt lat="42.77866" lon="-0.4782">
        <ele>2114</ele>
        <time>2018-12-27T16:52:39Z</time>
      </trkpt>
      <trkpt lat="42.77861" lon="-0.47833">
        <ele>2112</ele>
        <time>2018-12-27T16:52:42Z</time>
      </trkpt>
      <trkpt lat="42.77861" lon="-0.47844">
        <ele>2110</ele>
        <time>2018-12-27T16:52:44Z</time>
      </trkpt>
      <trkpt lat="42.77865" lon="-0.47856">
        <ele>2106</ele>
        <time>2018-12-27T16:52:47Z</time>
      </trkpt>
      <trkpt lat="42.77864" lon="-0.47874">
        <ele>2103</ele>
        <time>2018-12-27T16:52:50Z</time>
      </trkpt>
      <trkpt lat="42.77865" lon="-0.47882">
        <ele>2101</ele>
        <time>2018-12-27T16:52:52Z</time>
      </trkpt>
      <trkpt lat="42.77875" lon="-0.47904">
        <ele>2093</ele>
        <time>2018-12-27T16:52:57Z</time>
      </trkpt>
      <trkpt lat="42.77874" lon="-0.47942">
        <ele>2087</ele>
        <time>2018-12-27T16:53:04Z</time>
      </trkpt>
      <trkpt lat="42.7788" lon="-0.47965">
        <ele>2082</ele>
        <time>2018-12-27T16:53:09Z</time>
      </trkpt>
      <trkpt lat="42.77882" lon="-0.47991">
        <ele>2078</ele>
        <time>2018-12-27T16:53:14Z</time>
      </trkpt>
      <trkpt lat="42.77886" lon="-0.48">
        <ele>2075</ele>
        <time>2018-12-27T16:53:16Z</time>
      </trkpt>
      <trkpt lat="42.77891" lon="-0.4802">
        <ele>2069</ele>
        <time>2018-12-27T16:53:20Z</time>
      </trkpt>
      <trkpt lat="42.77892" lon="-0.48031">
        <ele>2066</ele>
        <time>2018-12-27T16:53:22Z</time>
      </trkpt>
      <trkpt lat="42.77893" lon="-0.48063">
        <ele>2059</ele>
        <time>2018-12-27T16:53:29Z</time>
      </trkpt>
      <trkpt lat="42.77887" lon="-0.48083">
        <ele>2060</ele>
        <time>2018-12-27T16:53:33Z</time>
      </trkpt>
      <trkpt lat="42.77885" lon="-0.48099">
        <ele>2059</ele>
        <time>2018-12-27T16:53:36Z</time>
      </trkpt>
      <trkpt lat="42.7788" lon="-0.48125">
        <ele>2061</ele>
        <time>2018-12-27T16:53:41Z</time>
      </trkpt>
      <trkpt lat="42.77883" lon="-0.48152">
        <ele>2061</ele>
        <time>2018-12-27T16:53:47Z</time>
      </trkpt>
      <trkpt lat="42.77886" lon="-0.48166">
        <ele>2062</ele>
        <time>2018-12-27T16:53:50Z</time>
      </trkpt>
      <trkpt lat="42.77886" lon="-0.48182">
        <ele>2062</ele>
        <time>2018-12-27T16:53:53Z</time>
      </trkpt>
      <trkpt lat="42.77897" lon="-0.48206">
        <ele>2056</ele>
        <time>2018-12-27T16:53:58Z</time>
      </trkpt>
      <trkpt lat="42.77902" lon="-0.4821">
        <ele>2054</ele>
        <time>2018-12-27T16:54:00Z</time>
      </trkpt>
      <trkpt lat="42.77925" lon="-0.48243">
        <ele>2046</ele>
        <time>2018-12-27T16:54:09Z</time>
      </trkpt>
      <trkpt lat="42.77931" lon="-0.48246">
        <ele>2044</ele>
        <time>2018-12-27T16:54:10Z</time>
      </trkpt>
      <trkpt lat="42.77937" lon="-0.48255">
        <ele>2043</ele>
        <time>2018-12-27T16:54:13Z</time>
      </trkpt>
      <trkpt lat="42.77952" lon="-0.48269">
        <ele>2039</ele>
        <time>2018-12-27T16:54:18Z</time>
      </trkpt>
      <trkpt lat="42.77963" lon="-0.48288">
        <ele>2034</ele>
        <time>2018-12-27T16:54:22Z</time>
      </trkpt>
      <trkpt lat="42.7797" lon="-0.48328">
        <ele>2029</ele>
        <time>2018-12-27T16:54:30Z</time>
      </trkpt>
      <trkpt lat="42.77973" lon="-0.48339">
        <ele>2027</ele>
        <time>2018-12-27T16:54:33Z</time>
      </trkpt>
      <trkpt lat="42.77981" lon="-0.48348">
        <ele>2025</ele>
        <time>2018-12-27T16:54:36Z</time>
      </trkpt>
      <trkpt lat="42.77993" lon="-0.48349">
        <ele>2022</ele>
        <time>2018-12-27T16:54:39Z</time>
      </trkpt>
      <trkpt lat="42.78003" lon="-0.48357">
        <ele>2020</ele>
        <time>2018-12-27T16:54:42Z</time>
      </trkpt>
      <trkpt lat="42.78017" lon="-0.48379">
        <ele>2014</ele>
        <time>2018-12-27T16:54:47Z</time>
      </trkpt>
      <trkpt lat="42.78049" lon="-0.48414">
        <ele>2003</ele>
        <time>2018-12-27T16:54:58Z</time>
      </trkpt>
      <trkpt lat="42.78053" lon="-0.48425">
        <ele>2001</ele>
        <time>2018-12-27T16:55:01Z</time>
      </trkpt>
      <trkpt lat="42.78067" lon="-0.4844">
        <ele>1997</ele>
        <time>2018-12-27T16:55:06Z</time>
      </trkpt>
      <trkpt lat="42.78079" lon="-0.48457">
        <ele>1992</ele>
        <time>2018-12-27T16:55:10Z</time>
      </trkpt>
      <trkpt lat="42.78084" lon="-0.48458">
        <ele>1991</ele>
        <time>2018-12-27T16:55:11Z</time>
      </trkpt>
      <trkpt lat="42.78087" lon="-0.48465">
        <ele>1988</ele>
        <time>2018-12-27T16:55:13Z</time>
      </trkpt>
      <trkpt lat="42.78084" lon="-0.48474">
        <ele>1987</ele>
        <time>2018-12-27T16:55:15Z</time>
      </trkpt>
      <trkpt lat="42.78084" lon="-0.48486">
        <ele>1986</ele>
        <time>2018-12-27T16:55:17Z</time>
      </trkpt>
      <trkpt lat="42.78088" lon="-0.48489">
        <ele>1982</ele>
        <time>2018-12-27T16:55:19Z</time>
      </trkpt>
      <trkpt lat="42.78092" lon="-0.4848">
        <ele>1981</ele>
        <time>2018-12-27T16:55:21Z</time>
      </trkpt>
      <trkpt lat="42.78129" lon="-0.48457">
        <ele>1972</ele>
        <time>2018-12-27T16:55:31Z</time>
      </trkpt>
      <trkpt lat="42.78144" lon="-0.48456">
        <ele>1967</ele>
        <time>2018-12-27T16:55:35Z</time>
      </trkpt>
      <trkpt lat="42.78158" lon="-0.48451">
        <ele>1961</ele>
        <time>2018-12-27T16:55:39Z</time>
      </trkpt>
      <trkpt lat="42.78182" lon="-0.48426">
        <ele>1952</ele>
        <time>2018-12-27T16:55:47Z</time>
      </trkpt>
      <trkpt lat="42.78185" lon="-0.48411">
        <ele>1950</ele>
        <time>2018-12-27T16:55:51Z</time>
      </trkpt>
      <trkpt lat="42.78188" lon="-0.48359">
        <ele>1943</ele>
        <time>2018-12-27T16:56:01Z</time>
      </trkpt>
      <trkpt lat="42.78187" lon="-0.48336">
        <ele>1944</ele>
        <time>2018-12-27T16:56:05Z</time>
      </trkpt>
      <trkpt lat="42.78198" lon="-0.48328">
        <ele>1937</ele>
        <time>2018-12-27T16:56:09Z</time>
      </trkpt>
      <trkpt lat="42.7821" lon="-0.48324">
        <ele>1934</ele>
        <time>2018-12-27T16:56:12Z</time>
      </trkpt>
      <trkpt lat="42.78229" lon="-0.48323">
        <ele>1929</ele>
        <time>2018-12-27T16:56:17Z</time>
      </trkpt>
      <trkpt lat="42.78238" lon="-0.48331">
        <ele>1924</ele>
        <time>2018-12-27T16:56:20Z</time>
      </trkpt>
      <trkpt lat="42.78245" lon="-0.48334">
        <ele>1921</ele>
        <time>2018-12-27T16:56:22Z</time>
      </trkpt>
      <trkpt lat="42.78251" lon="-0.48341">
        <ele>1919</ele>
        <time>2018-12-27T16:56:24Z</time>
      </trkpt>
      <trkpt lat="42.78263" lon="-0.48369">
        <ele>1913</ele>
        <time>2018-12-27T16:56:30Z</time>
      </trkpt>
      <trkpt lat="42.78271" lon="-0.48379">
        <ele>1908</ele>
        <time>2018-12-27T16:56:33Z</time>
      </trkpt>
      <trkpt lat="42.78282" lon="-0.4842">
        <ele>1894</ele>
        <time>2018-12-27T16:56:42Z</time>
      </trkpt>
      <trkpt lat="42.78301" lon="-0.48422">
        <ele>1886</ele>
        <time>2018-12-27T16:56:47Z</time>
      </trkpt>
      <trkpt lat="42.78317" lon="-0.48427">
        <ele>1880</ele>
        <time>2018-12-27T16:56:51Z</time>
      </trkpt>
      <trkpt lat="42.78326" lon="-0.48445">
        <ele>1871</ele>
        <time>2018-12-27T16:56:56Z</time>
      </trkpt>
      <trkpt lat="42.78333" lon="-0.48446">
        <ele>1868</ele>
        <time>2018-12-27T16:56:57Z</time>
      </trkpt>
      <trkpt lat="42.78338" lon="-0.48438">
        <ele>1869</ele>
        <time>2018-12-27T16:57:00Z</time>
      </trkpt>
      <trkpt lat="42.78347" lon="-0.4844">
        <ele>1867</ele>
        <time>2018-12-27T16:57:02Z</time>
      </trkpt>
      <trkpt lat="42.78351" lon="-0.48446">
        <ele>1865</ele>
        <time>2018-12-27T16:57:03Z</time>
      </trkpt>
      <trkpt lat="42.78354" lon="-0.48476">
        <ele>1850</ele>
        <time>2018-12-27T16:57:09Z</time>
      </trkpt>
      <trkpt lat="42.78345" lon="-0.48503">
        <ele>1845</ele>
        <time>2018-12-27T16:57:15Z</time>
      </trkpt>
      <trkpt lat="42.78327" lon="-0.48534">
        <ele>1843</ele>
        <time>2018-12-27T16:57:23Z</time>
      </trkpt>
      <trkpt lat="42.78326" lon="-0.48545">
        <ele>1838</ele>
        <time>2018-12-27T16:57:25Z</time>
      </trkpt>
      <trkpt lat="42.78328" lon="-0.48556">
        <ele>1832</ele>
        <time>2018-12-27T16:57:27Z</time>
      </trkpt>
      <trkpt lat="42.78334" lon="-0.48561">
        <ele>1828</ele>
        <time>2018-12-27T16:57:29Z</time>
      </trkpt>
      <trkpt lat="42.78333" lon="-0.48569">
        <ele>1827</ele>
        <time>2018-12-27T16:57:31Z</time>
      </trkpt>
      <trkpt lat="42.78326" lon="-0.4858">
        <ele>1827</ele>
        <time>2018-12-27T16:57:34Z</time>
      </trkpt>
      <trkpt lat="42.78323" lon="-0.4859">
        <ele>1826</ele>
        <time>2018-12-27T16:57:36Z</time>
      </trkpt>
      <trkpt lat="42.78325" lon="-0.48598">
        <ele>1823</ele>
        <time>2018-12-27T16:57:37Z</time>
      </trkpt>
      <trkpt lat="42.78332" lon="-0.48596">
        <ele>1821</ele>
        <time>2018-12-27T16:57:39Z</time>
      </trkpt>
      <trkpt lat="42.78337" lon="-0.48619">
        <ele>1814</ele>
        <time>2018-12-27T16:57:44Z</time>
      </trkpt>
      <trkpt lat="42.78346" lon="-0.48624">
        <ele>1810</ele>
        <time>2018-12-27T16:57:46Z</time>
      </trkpt>
      <trkpt lat="42.78351" lon="-0.48622">
        <ele>1808</ele>
        <time>2018-12-27T16:57:48Z</time>
      </trkpt>
      <trkpt lat="42.78357" lon="-0.48624">
        <ele>1805</ele>
        <time>2018-12-27T16:57:50Z</time>
      </trkpt>
      <trkpt lat="42.78359" lon="-0.48632">
        <ele>1803</ele>
        <time>2018-12-27T16:57:51Z</time>
      </trkpt>
      <trkpt lat="42.78363" lon="-0.48639">
        <ele>1800</ele>
        <time>2018-12-27T16:57:53Z</time>
      </trkpt>
      <trkpt lat="42.78378" lon="-0.48654">
        <ele>1791</ele>
        <time>2018-12-27T16:57:58Z</time>
      </trkpt>
      <trkpt lat="42.78382" lon="-0.48663">
        <ele>1786</ele>
        <time>2018-12-27T16:58:00Z</time>
      </trkpt>
      <trkpt lat="42.78383" lon="-0.48671">
        <ele>1783</ele>
        <time>2018-12-27T16:58:02Z</time>
      </trkpt>
      <trkpt lat="42.78402" lon="-0.48687">
        <ele>1773</ele>
        <time>2018-12-27T16:58:08Z</time>
      </trkpt>
      <trkpt lat="42.78403" lon="-0.48696">
        <ele>1770</ele>
        <time>2018-12-27T16:58:09Z</time>
      </trkpt>
      <trkpt lat="42.78414" lon="-0.48707">
        <ele>1764</ele>
        <time>2018-12-27T16:58:13Z</time>
      </trkpt>
      <trkpt lat="42.78401" lon="-0.48722">
        <ele>1764</ele>
        <time>2018-12-27T16:58:17Z</time>
      </trkpt>
      <trkpt lat="42.78399" lon="-0.4873">
        <ele>1763</ele>
        <time>2018-12-27T16:58:19Z</time>
      </trkpt>
      <trkpt lat="42.78406" lon="-0.48742">
        <ele>1759</ele>
        <time>2018-12-27T16:58:22Z</time>
      </trkpt>
      <trkpt lat="42.78411" lon="-0.48745">
        <ele>1758</ele>
        <time>2018-12-27T16:58:24Z</time>
      </trkpt>
      <trkpt lat="42.78419" lon="-0.48745">
        <ele>1755</ele>
        <time>2018-12-27T16:58:26Z</time>
      </trkpt>
      <trkpt lat="42.78441" lon="-0.48756">
        <ele>1742</ele>
        <time>2018-12-27T16:58:32Z</time>
      </trkpt>
      <trkpt lat="42.78447" lon="-0.48756">
        <ele>1739</ele>
        <time>2018-12-27T16:58:33Z</time>
      </trkpt>
      <trkpt lat="42.78459" lon="-0.48744">
        <ele>1736</ele>
        <time>2018-12-27T16:58:37Z</time>
      </trkpt>
      <trkpt lat="42.78469" lon="-0.48745">
        <ele>1731</ele>
        <time>2018-12-27T16:58:40Z</time>
      </trkpt>
      <trkpt lat="42.7848" lon="-0.48737">
        <ele>1728</ele>
        <time>2018-12-27T16:58:43Z</time>
      </trkpt>
      <trkpt lat="42.78488" lon="-0.48741">
        <ele>1725</ele>
        <time>2018-12-27T16:58:46Z</time>
      </trkpt>
      <trkpt lat="42.78498" lon="-0.48735">
        <ele>1721</ele>
        <time>2018-12-27T16:58:49Z</time>
      </trkpt>
      <trkpt lat="42.78517" lon="-0.4873">
        <ele>1713</ele>
        <time>2018-12-27T16:58:54Z</time>
      </trkpt>
      <trkpt lat="42.78527" lon="-0.48732">
        <ele>1708</ele>
        <time>2018-12-27T16:58:57Z</time>
      </trkpt>
      <trkpt lat="42.78541" lon="-0.48723">
        <ele>1705</ele>
        <time>2018-12-27T16:59:01Z</time>
      </trkpt>
      <trkpt lat="42.78547" lon="-0.48715">
        <ele>1704</ele>
        <time>2018-12-27T16:59:03Z</time>
      </trkpt>
      <trkpt lat="42.78553" lon="-0.48708">
        <ele>1703</ele>
        <time>2018-12-27T16:59:05Z</time>
      </trkpt>
      <trkpt lat="42.78557" lon="-0.48702">
        <ele>1702</ele>
        <time>2018-12-27T16:59:07Z</time>
      </trkpt>
      <trkpt lat="42.78569" lon="-0.48661">
        <ele>1704</ele>
        <time>2018-12-27T16:59:15Z</time>
      </trkpt>
      <trkpt lat="42.78579" lon="-0.48632">
        <ele>1706</ele>
        <time>2018-12-27T16:59:21Z</time>
      </trkpt>
      <trkpt lat="42.7859" lon="-0.48615">
        <ele>1707</ele>
        <time>2018-12-27T16:59:26Z</time>
      </trkpt>
      <trkpt lat="42.78596" lon="-0.4858">
        <ele>1707</ele>
        <time>2018-12-27T16:59:33Z</time>
      </trkpt>
      <trkpt lat="42.786" lon="-0.48561">
        <ele>1707</ele>
        <time>2018-12-27T16:59:37Z</time>
      </trkpt>
      <trkpt lat="42.78615" lon="-0.48538">
        <ele>1708</ele>
        <time>2018-12-27T16:59:43Z</time>
      </trkpt>
      <trkpt lat="42.78624" lon="-0.48538">
        <ele>1708</ele>
        <time>2018-12-27T16:59:45Z</time>
      </trkpt>
      <trkpt lat="42.7864" lon="-0.48555">
        <ele>1706</ele>
        <time>2018-12-27T16:59:51Z</time>
      </trkpt>
      <trkpt lat="42.78645" lon="-0.48571">
        <ele>1705</ele>
        <time>2018-12-27T16:59:54Z</time>
      </trkpt>
      <trkpt lat="42.78652" lon="-0.48585">
        <ele>1701</ele>
        <time>2018-12-27T16:59:57Z</time>
      </trkpt>
      <trkpt lat="42.78659" lon="-0.48594">
        <ele>1696</ele>
        <time>2018-12-27T17:00:00Z</time>
      </trkpt>
      <trkpt lat="42.78675" lon="-0.48606">
        <ele>1686</ele>
        <time>2018-12-27T17:00:05Z</time>
      </trkpt>
      <trkpt lat="42.7868" lon="-0.48596">
        <ele>1685</ele>
        <time>2018-12-27T17:00:07Z</time>
      </trkpt>
      <trkpt lat="42.7868" lon="-0.48588">
        <ele>1686</ele>
        <time>2018-12-27T17:00:09Z</time>
      </trkpt>
      <trkpt lat="42.78686" lon="-0.48579">
        <ele>1684</ele>
        <time>2018-12-27T17:00:11Z</time>
      </trkpt>
      <trkpt lat="42.78691" lon="-0.48579">
        <ele>1680</ele>
        <time>2018-12-27T17:00:12Z</time>
      </trkpt>
      <trkpt lat="42.78709" lon="-0.48583">
        <ele>1666</ele>
        <time>2018-12-27T17:00:17Z</time>
      </trkpt>
      <trkpt lat="42.78713" lon="-0.48587">
        <ele>1663</ele>
        <time>2018-12-27T17:00:19Z</time>
      </trkpt>
      <trkpt lat="42.78743" lon="-0.486">
        <ele>1649</ele>
        <time>2018-12-27T17:00:27Z</time>
      </trkpt>
      <trkpt lat="42.78751" lon="-0.48596">
        <ele>1644</ele>
        <time>2018-12-27T17:00:29Z</time>
      </trkpt>
      <trkpt lat="42.78753" lon="-0.48586">
        <ele>1642</ele>
        <time>2018-12-27T17:00:31Z</time>
      </trkpt>
      <trkpt lat="42.78748" lon="-0.48575">
        <ele>1643</ele>
        <time>2018-12-27T17:00:34Z</time>
      </trkpt>
      <trkpt lat="42.78743" lon="-0.48553">
        <ele>1643</ele>
        <time>2018-12-27T17:00:38Z</time>
      </trkpt>
      <trkpt lat="42.78742" lon="-0.48547">
        <ele>1643</ele>
        <time>2018-12-27T17:00:40Z</time>
      </trkpt>
      <trkpt lat="42.78743" lon="-0.48535">
        <ele>1641</ele>
        <time>2018-12-27T17:00:42Z</time>
      </trkpt>
      <trkpt lat="42.78755" lon="-0.48518">
        <ele>1635</ele>
        <time>2018-12-27T17:00:47Z</time>
      </trkpt>
      <trkpt lat="42.78766" lon="-0.48476">
        <ele>1628</ele>
        <time>2018-12-27T17:00:55Z</time>
      </trkpt>
      <trkpt lat="42.78776" lon="-0.48466">
        <ele>1623</ele>
        <time>2018-12-27T17:00:58Z</time>
      </trkpt>
      <trkpt lat="42.78788" lon="-0.48467">
        <ele>1614</ele>
        <time>2018-12-27T17:01:02Z</time>
      </trkpt>
      <trkpt lat="42.78795" lon="-0.48458">
        <ele>1611</ele>
        <time>2018-12-27T17:01:04Z</time>
      </trkpt>
      <trkpt lat="42.78798" lon="-0.4845">
        <ele>1610</ele>
        <time>2018-12-27T17:01:06Z</time>
      </trkpt>
      <trkpt lat="42.78808" lon="-0.4843">
        <ele>1608</ele>
        <time>2018-12-27T17:01:11Z</time>
      </trkpt>
      <trkpt lat="42.78821" lon="-0.48425">
        <ele>1602</ele>
        <time>2018-12-27T17:01:14Z</time>
      </trkpt>
      <trkpt lat="42.78826" lon="-0.48419">
        <ele>1600</ele>
        <time>2018-12-27T17:01:16Z</time>
      </trkpt>
      <trkpt lat="42.78836" lon="-0.4842">
        <ele>1594</ele>
        <time>2018-12-27T17:01:19Z</time>
      </trkpt>
      <trkpt lat="42.78856" lon="-0.48416">
        <ele>1589</ele>
        <time>2018-12-27T17:01:24Z</time>
      </trkpt>
      <trkpt lat="42.78878" lon="-0.48379">
        <ele>1580</ele>
        <time>2018-12-27T17:01:34Z</time>
      </trkpt>
      <trkpt lat="42.78885" lon="-0.48372">
        <ele>1576</ele>
        <time>2018-12-27T17:01:36Z</time>
      </trkpt>
      <trkpt lat="42.78887" lon="-0.48362">
        <ele>1576</ele>
        <time>2018-12-27T17:01:38Z</time>
      </trkpt>
      <trkpt lat="42.78903" lon="-0.48361">
        <ele>1568</ele>
        <time>2018-12-27T17:01:42Z</time>
      </trkpt>
      <trkpt lat="42.78908" lon="-0.48367">
        <ele>1565</ele>
        <time>2018-12-27T17:01:44Z</time>
      </trkpt>
      <trkpt lat="42.78913" lon="-0.48362">
        <ele>1563</ele>
        <time>2018-12-27T17:01:45Z</time>
      </trkpt>
      <trkpt lat="42.78913" lon="-0.48347">
        <ele>1565</ele>
        <time>2018-12-27T17:01:49Z</time>
      </trkpt>
      <trkpt lat="42.78932" lon="-0.48341">
        <ele>1560</ele>
        <time>2018-12-27T17:01:54Z</time>
      </trkpt>
      <trkpt lat="42.7894" lon="-0.48341">
        <ele>1557</ele>
        <time>2018-12-27T17:01:56Z</time>
      </trkpt>
      <trkpt lat="42.78951" lon="-0.48336">
        <ele>1555</ele>
        <time>2018-12-27T17:01:59Z</time>
      </trkpt>
      <trkpt lat="42.78955" lon="-0.48347">
        <ele>1553</ele>
        <time>2018-12-27T17:02:01Z</time>
      </trkpt>
      <trkpt lat="42.78968" lon="-0.48347">
        <ele>1550</ele>
        <time>2018-12-27T17:02:05Z</time>
      </trkpt>
      <trkpt lat="42.78973" lon="-0.48356">
        <ele>1548</ele>
        <time>2018-12-27T17:02:07Z</time>
      </trkpt>
      <trkpt lat="42.78972" lon="-0.48369">
        <ele>1547</ele>
        <time>2018-12-27T17:02:10Z</time>
      </trkpt>
      <trkpt lat="42.78957" lon="-0.48401">
        <ele>1547</ele>
        <time>2018-12-27T17:02:17Z</time>
      </trkpt>
      <trkpt lat="42.7895" lon="-0.4841">
        <ele>1549</ele>
        <time>2018-12-27T17:02:20Z</time>
      </trkpt>
      <trkpt lat="42.78937" lon="-0.48474">
        <ele>1547</ele>
        <time>2018-12-27T17:02:33Z</time>
      </trkpt>
      <trkpt lat="42.78926" lon="-0.48502">
        <ele>1550</ele>
        <time>2018-12-27T17:02:39Z</time>
      </trkpt>
      <trkpt lat="42.78932" lon="-0.48544">
        <ele>1538</ele>
        <time>2018-12-27T17:02:47Z</time>
      </trkpt>
      <trkpt lat="42.78932" lon="-0.48556">
        <ele>1536</ele>
        <time>2018-12-27T17:02:50Z</time>
      </trkpt>
      <trkpt lat="42.78928" lon="-0.4857">
        <ele>1535</ele>
        <time>2018-12-27T17:02:52Z</time>
      </trkpt>
      <trkpt lat="42.78898" lon="-0.48622">
        <ele>1545</ele>
        <time>2018-12-27T17:03:06Z</time>
      </trkpt>
      <trkpt lat="42.78891" lon="-0.48655">
        <ele>1542</ele>
        <time>2018-12-27T17:03:12Z</time>
      </trkpt>
      <trkpt lat="42.78889" lon="-0.48674">
        <ele>1541</ele>
        <time>2018-12-27T17:03:16Z</time>
      </trkpt>
      <trkpt lat="42.78888" lon="-0.48708">
        <ele>1538</ele>
        <time>2018-12-27T17:03:23Z</time>
      </trkpt>
      <trkpt lat="42.78893" lon="-0.48738">
        <ele>1534</ele>
        <time>2018-12-27T17:03:29Z</time>
      </trkpt>
      <trkpt lat="42.78892" lon="-0.48753">
        <ele>1536</ele>
        <time>2018-12-27T17:03:32Z</time>
      </trkpt>
      <trkpt lat="42.78894" lon="-0.48766">
        <ele>1531</ele>
        <time>2018-12-27T17:03:34Z</time>
      </trkpt>
      <trkpt lat="42.78894" lon="-0.48785">
        <ele>1528</ele>
        <time>2018-12-27T17:03:38Z</time>
      </trkpt>
      <trkpt lat="42.78897" lon="-0.48811">
        <ele>1525</ele>
        <time>2018-12-27T17:03:43Z</time>
      </trkpt>
      <trkpt lat="42.789" lon="-0.48826">
        <ele>1522</ele>
        <time>2018-12-27T17:03:46Z</time>
      </trkpt>
      <trkpt lat="42.78885" lon="-0.48919">
        <ele>1518</ele>
        <time>2018-12-27T17:04:05Z</time>
      </trkpt>
      <trkpt lat="42.78869" lon="-0.48951">
        <ele>1520</ele>
        <time>2018-12-27T17:04:12Z</time>
      </trkpt>
      <trkpt lat="42.78868" lon="-0.48989">
        <ele>1516</ele>
        <time>2018-12-27T17:04:20Z</time>
      </trkpt>
      <trkpt lat="42.78863" lon="-0.49032">
        <ele>1513</ele>
        <time>2018-12-27T17:04:28Z</time>
      </trkpt>
      <trkpt lat="42.78848" lon="-0.49059">
        <ele>1509</ele>
        <time>2018-12-27T17:04:35Z</time>
      </trkpt>
      <trkpt lat="42.78827" lon="-0.49087">
        <ele>1508</ele>
        <time>2018-12-27T17:04:43Z</time>
      </trkpt>
      <trkpt lat="42.78813" lon="-0.49102">
        <ele>1510</ele>
        <time>2018-12-27T17:04:47Z</time>
      </trkpt>
      <trkpt lat="42.78801" lon="-0.49112">
        <ele>1509</ele>
        <time>2018-12-27T17:04:51Z</time>
      </trkpt>
      <trkpt lat="42.78775" lon="-0.49141">
        <ele>1509</ele>
        <time>2018-12-27T17:05:00Z</time>
      </trkpt>
      <trkpt lat="42.78757" lon="-0.49151">
        <ele>1512</ele>
        <time>2018-12-27T17:05:05Z</time>
      </trkpt>
      <trkpt lat="42.7875" lon="-0.49171">
        <ele>1511</ele>
        <time>2018-12-27T17:05:10Z</time>
      </trkpt>
      <trkpt lat="42.7875" lon="-0.49187">
        <ele>1507</ele>
        <time>2018-12-27T17:05:13Z</time>
      </trkpt>
      <trkpt lat="42.78737" lon="-0.49219">
        <ele>1502</ele>
        <time>2018-12-27T17:05:20Z</time>
      </trkpt>
      <trkpt lat="42.78711" lon="-0.49252">
        <ele>1499</ele>
        <time>2018-12-27T17:05:30Z</time>
      </trkpt>
      <trkpt lat="42.78676" lon="-0.49285">
        <ele>1503</ele>
        <time>2018-12-27T17:05:41Z</time>
      </trkpt>
      <trkpt lat="42.7867" lon="-0.49294">
        <ele>1502</ele>
        <time>2018-12-27T17:05:43Z</time>
      </trkpt>
      <trkpt lat="42.78642" lon="-0.49373">
        <ele>1493</ele>
        <time>2018-12-27T17:06:01Z</time>
      </trkpt>
      <trkpt lat="42.78633" lon="-0.49379">
        <ele>1492</ele>
        <time>2018-12-27T17:06:03Z</time>
      </trkpt>
      <trkpt lat="42.78604" lon="-0.49391">
        <ele>1491</ele>
        <time>2018-12-27T17:06:11Z</time>
      </trkpt>
      <trkpt lat="42.78598" lon="-0.49407">
        <ele>1489</ele>
        <time>2018-12-27T17:06:15Z</time>
      </trkpt>
      <trkpt lat="42.78581" lon="-0.49433">
        <ele>1488</ele>
        <time>2018-12-27T17:06:22Z</time>
      </trkpt>
      <trkpt lat="42.7856" lon="-0.4944">
        <ele>1486</ele>
        <time>2018-12-27T17:06:27Z</time>
      </trkpt>
      <trkpt lat="42.78555" lon="-0.49438">
        <ele>1486</ele>
        <time>2018-12-27T17:06:29Z</time>
      </trkpt>
      <trkpt lat="42.78542" lon="-0.49438">
        <ele>1486</ele>
        <time>2018-12-27T17:06:32Z</time>
      </trkpt>
      <trkpt lat="42.78519" lon="-0.49452">
        <ele>1486</ele>
        <time>2018-12-27T17:06:39Z</time>
      </trkpt>
      <trkpt lat="42.78499" lon="-0.49486">
        <ele>1486</ele>
        <time>2018-12-27T17:06:48Z</time>
      </trkpt>
      <trkpt lat="42.7849" lon="-0.49487">
        <ele>1488</ele>
        <time>2018-12-27T17:06:50Z</time>
      </trkpt>
      <trkpt lat="42.78489" lon="-0.49499">
        <ele>1486</ele>
        <time>2018-12-27T17:06:52Z</time>
      </trkpt>
      <trkpt lat="42.7847" lon="-0.49526">
        <ele>1482</ele>
        <time>2018-12-27T17:07:00Z</time>
      </trkpt>
      <trkpt lat="42.78461" lon="-0.49534">
        <ele>1483</ele>
        <time>2018-12-27T17:07:02Z</time>
      </trkpt>
      <trkpt lat="42.78454" lon="-0.49545">
        <ele>1482</ele>
        <time>2018-12-27T17:07:05Z</time>
      </trkpt>
      <trkpt lat="42.78438" lon="-0.49581">
        <ele>1476</ele>
        <time>2018-12-27T17:07:14Z</time>
      </trkpt>
      <trkpt lat="42.78437" lon="-0.49595">
        <ele>1473</ele>
        <time>2018-12-27T17:07:16Z</time>
      </trkpt>
      <trkpt lat="42.78423" lon="-0.49638">
        <ele>1472</ele>
        <time>2018-12-27T17:07:26Z</time>
      </trkpt>
      <trkpt lat="42.78449" lon="-0.49606">
        <ele>1469</ele>
        <time>2018-12-27T17:07:35Z</time>
      </trkpt>
      <trkpt lat="42.78444" lon="-0.49635">
        <ele>1469</ele>
        <time>2018-12-27T17:07:41Z</time>
      </trkpt>
      <trkpt lat="42.78448" lon="-0.49651">
        <ele>1470</ele>
        <time>2018-12-27T17:07:44Z</time>
      </trkpt>
      <trkpt lat="42.78449" lon="-0.49663">
        <ele>1471</ele>
        <time>2018-12-27T17:07:46Z</time>
      </trkpt>
      <trkpt lat="42.78455" lon="-0.49688">
        <ele>1475</ele>
        <time>2018-12-27T17:07:51Z</time>
      </trkpt>
      <trkpt lat="42.78453" lon="-0.49733">
        <ele>1477</ele>
        <time>2018-12-27T17:08:00Z</time>
      </trkpt>
      <trkpt lat="42.78438" lon="-0.49773">
        <ele>1479</ele>
        <time>2018-12-27T17:08:09Z</time>
      </trkpt>
      <trkpt lat="42.78428" lon="-0.49794">
        <ele>1479</ele>
        <time>2018-12-27T17:08:14Z</time>
      </trkpt>
      <trkpt lat="42.78398" lon="-0.49848">
        <ele>1474</ele>
        <time>2018-12-27T17:08:27Z</time>
      </trkpt>
      <trkpt lat="42.78387" lon="-0.49859">
        <ele>1472</ele>
        <time>2018-12-27T17:08:31Z</time>
      </trkpt>
      <trkpt lat="42.7836" lon="-0.49868">
        <ele>1467</ele>
        <time>2018-12-27T17:08:38Z</time>
      </trkpt>
      <trkpt lat="42.78348" lon="-0.49888">
        <ele>1471</ele>
        <time>2018-12-27T17:08:43Z</time>
      </trkpt>
      <trkpt lat="42.78328" lon="-0.49911">
        <ele>1466</ele>
        <time>2018-12-27T17:08:50Z</time>
      </trkpt>
      <trkpt lat="42.78309" lon="-0.49926">
        <ele>1460</ele>
        <time>2018-12-27T17:08:56Z</time>
      </trkpt>
      <trkpt lat="42.78293" lon="-0.49963">
        <ele>1460</ele>
        <time>2018-12-27T17:09:05Z</time>
      </trkpt>
      <trkpt lat="42.78271" lon="-0.49991">
        <ele>1456</ele>
        <time>2018-12-27T17:09:13Z</time>
      </trkpt>
      <trkpt lat="42.78248" lon="-0.49997">
        <ele>1452</ele>
        <time>2018-12-27T17:09:19Z</time>
      </trkpt>
      <trkpt lat="42.78228" lon="-0.5002">
        <ele>1450</ele>
        <time>2018-12-27T17:09:26Z</time>
      </trkpt>
      <trkpt lat="42.78213" lon="-0.50034">
        <ele>1447</ele>
        <time>2018-12-27T17:09:31Z</time>
      </trkpt>
      <trkpt lat="42.78212" lon="-0.50042">
        <ele>1449</ele>
        <time>2018-12-27T17:09:32Z</time>
      </trkpt>
      <trkpt lat="42.78215" lon="-0.50062">
        <ele>1455</ele>
        <time>2018-12-27T17:09:36Z</time>
      </trkpt>
      <trkpt lat="42.78201" lon="-0.50082">
        <ele>1453</ele>
        <time>2018-12-27T17:09:42Z</time>
      </trkpt>
      <trkpt lat="42.78189" lon="-0.50116">
        <ele>1458</ele>
        <time>2018-12-27T17:09:49Z</time>
      </trkpt>
      <trkpt lat="42.78183" lon="-0.50118">
        <ele>1456</ele>
        <time>2018-12-27T17:09:51Z</time>
      </trkpt>
      <trkpt lat="42.78163" lon="-0.50134">
        <ele>1453</ele>
        <time>2018-12-27T17:09:57Z</time>
      </trkpt>
      <trkpt lat="42.78156" lon="-0.50143">
        <ele>1452</ele>
        <time>2018-12-27T17:10:00Z</time>
      </trkpt>
      <trkpt lat="42.7813" lon="-0.50157">
        <ele>1449</ele>
        <time>2018-12-27T17:10:07Z</time>
      </trkpt>
      <trkpt lat="42.78095" lon="-0.50168">
        <ele>1444</ele>
        <time>2018-12-27T17:10:17Z</time>
      </trkpt>
      <trkpt lat="42.78073" lon="-0.5017">
        <ele>1436</ele>
        <time>2018-12-27T17:10:22Z</time>
      </trkpt>
      <trkpt lat="42.78064" lon="-0.50176">
        <ele>1434</ele>
        <time>2018-12-27T17:10:25Z</time>
      </trkpt>
      <trkpt lat="42.78044" lon="-0.50176">
        <ele>1426</ele>
        <time>2018-12-27T17:10:30Z</time>
      </trkpt>
      <trkpt lat="42.7803" lon="-0.50186">
        <ele>1424</ele>
        <time>2018-12-27T17:10:35Z</time>
      </trkpt>
      <trkpt lat="42.78018" lon="-0.50197">
        <ele>1422</ele>
        <time>2018-12-27T17:10:38Z</time>
      </trkpt>
      <trkpt lat="42.78001" lon="-0.5022">
        <ele>1422</ele>
        <time>2018-12-27T17:10:45Z</time>
      </trkpt>
      <trkpt lat="42.77982" lon="-0.50241">
        <ele>1425</ele>
        <time>2018-12-27T17:10:51Z</time>
      </trkpt>
      <trkpt lat="42.77958" lon="-0.50259">
        <ele>1424</ele>
        <time>2018-12-27T17:10:58Z</time>
      </trkpt>
      <trkpt lat="42.77933" lon="-0.50287">
        <ele>1420</ele>
        <time>2018-12-27T17:11:07Z</time>
      </trkpt>
      <trkpt lat="42.77919" lon="-0.50301">
        <ele>1417</ele>
        <time>2018-12-27T17:11:12Z</time>
      </trkpt>
      <trkpt lat="42.77904" lon="-0.50326">
        <ele>1413</ele>
        <time>2018-12-27T17:11:18Z</time>
      </trkpt>
      <trkpt lat="42.77898" lon="-0.50362">
        <ele>1415</ele>
        <time>2018-12-27T17:11:25Z</time>
      </trkpt>
      <trkpt lat="42.77888" lon="-0.50384">
        <ele>1415</ele>
        <time>2018-12-27T17:11:31Z</time>
      </trkpt>
      <trkpt lat="42.77881" lon="-0.50387">
        <ele>1413</ele>
        <time>2018-12-27T17:11:33Z</time>
      </trkpt>
      <trkpt lat="42.77843" lon="-0.50377">
        <ele>1400</ele>
        <time>2018-12-27T17:11:43Z</time>
      </trkpt>
      <trkpt lat="42.77809" lon="-0.50378">
        <ele>1393</ele>
        <time>2018-12-27T17:11:52Z</time>
      </trkpt>
      <trkpt lat="42.778" lon="-0.50382">
        <ele>1392</ele>
        <time>2018-12-27T17:11:54Z</time>
      </trkpt>
      <trkpt lat="42.77767" lon="-0.50405">
        <ele>1389</ele>
        <time>2018-12-27T17:12:04Z</time>
      </trkpt>
      <trkpt lat="42.77756" lon="-0.50418">
        <ele>1388</ele>
        <time>2018-12-27T17:12:08Z</time>
      </trkpt>
      <trkpt lat="42.77747" lon="-0.50432">
        <ele>1388</ele>
        <time>2018-12-27T17:12:12Z</time>
      </trkpt>
      <trkpt lat="42.77738" lon="-0.50474">
        <ele>1388</ele>
        <time>2018-12-27T17:12:20Z</time>
      </trkpt>
      <trkpt lat="42.77742" lon="-0.50508">
        <ele>1392</ele>
        <time>2018-12-27T17:12:27Z</time>
      </trkpt>
      <trkpt lat="42.77739" lon="-0.50524">
        <ele>1393</ele>
        <time>2018-12-27T17:12:31Z</time>
      </trkpt>
      <trkpt lat="42.77725" lon="-0.5055">
        <ele>1394</ele>
        <time>2018-12-27T17:12:37Z</time>
      </trkpt>
      <trkpt lat="42.7772" lon="-0.50551">
        <ele>1391</ele>
        <time>2018-12-27T17:12:38Z</time>
      </trkpt>
      <trkpt lat="42.77702" lon="-0.50559">
        <ele>1385</ele>
        <time>2018-12-27T17:12:43Z</time>
      </trkpt>
      <trkpt lat="42.77682" lon="-0.50577">
        <ele>1382</ele>
        <time>2018-12-27T17:12:50Z</time>
      </trkpt>
      <trkpt lat="42.77662" lon="-0.50605">
        <ele>1380</ele>
        <time>2018-12-27T17:12:57Z</time>
      </trkpt>
      <trkpt lat="42.77661" lon="-0.50621">
        <ele>1382</ele>
        <time>2018-12-27T17:13:01Z</time>
      </trkpt>
      <trkpt lat="42.77653" lon="-0.50647">
        <ele>1381</ele>
        <time>2018-12-27T17:13:06Z</time>
      </trkpt>
      <trkpt lat="42.7762" lon="-0.50731">
        <ele>1382</ele>
        <time>2018-12-27T17:13:25Z</time>
      </trkpt>
      <trkpt lat="42.77617" lon="-0.50737">
        <ele>1382</ele>
        <time>2018-12-27T17:13:26Z</time>
      </trkpt>
      <trkpt lat="42.7759" lon="-0.50766">
        <ele>1377</ele>
        <time>2018-12-27T17:13:35Z</time>
      </trkpt>
      <trkpt lat="42.77599" lon="-0.50855">
        <ele>1379</ele>
        <time>2018-12-27T17:13:53Z</time>
      </trkpt>
      <trkpt lat="42.776" lon="-0.50846">
        <ele>1380</ele>
        <time>2018-12-27T17:13:55Z</time>
      </trkpt>
      <trkpt lat="42.77598" lon="-0.50831">
        <ele>1380</ele>
        <time>2018-12-27T17:13:58Z</time>
      </trkpt>
      <trkpt lat="42.77608" lon="-0.50782">
        <ele>1386</ele>
        <time>2018-12-27T17:14:07Z</time>
      </trkpt>
      <trkpt lat="42.77616" lon="-0.50788">
        <ele>1390</ele>
        <time>2018-12-27T17:14:10Z</time>
      </trkpt>
      <trkpt lat="42.7762" lon="-0.50781">
        <ele>1392</ele>
        <time>2018-12-27T17:14:12Z</time>
      </trkpt>
      <trkpt lat="42.77631" lon="-0.50768">
        <ele>1396</ele>
        <time>2018-12-27T17:14:15Z</time>
      </trkpt>
      <trkpt lat="42.77639" lon="-0.50761">
        <ele>1399</ele>
        <time>2018-12-27T17:14:18Z</time>
      </trkpt>
      <trkpt lat="42.77648" lon="-0.5076">
        <ele>1403</ele>
        <time>2018-12-27T17:14:20Z</time>
      </trkpt>
      <trkpt lat="42.77664" lon="-0.50739">
        <ele>1406</ele>
        <time>2018-12-27T17:14:26Z</time>
      </trkpt>
      <trkpt lat="42.77668" lon="-0.50735">
        <ele>1407</ele>
        <time>2018-12-27T17:14:28Z</time>
      </trkpt>
      <trkpt lat="42.77677" lon="-0.5073">
        <ele>1410</ele>
        <time>2018-12-27T17:14:30Z</time>
      </trkpt>
      <trkpt lat="42.77684" lon="-0.50722">
        <ele>1411</ele>
        <time>2018-12-27T17:14:33Z</time>
      </trkpt>
      <trkpt lat="42.77692" lon="-0.50716">
        <ele>1413</ele>
        <time>2018-12-27T17:14:35Z</time>
      </trkpt>
      <trkpt lat="42.77697" lon="-0.50711">
        <ele>1414</ele>
        <time>2018-12-27T17:14:37Z</time>
      </trkpt>
      <trkpt lat="42.77707" lon="-0.50711">
        <ele>1418</ele>
        <time>2018-12-27T17:14:39Z</time>
      </trkpt>
      <trkpt lat="42.77709" lon="-0.50717">
        <ele>1420</ele>
        <time>2018-12-27T17:14:41Z</time>
      </trkpt>
      <trkpt lat="42.7772" lon="-0.50722">
        <ele>1425</ele>
        <time>2018-12-27T17:14:44Z</time>
      </trkpt>
      <trkpt lat="42.77745" lon="-0.50669">
        <ele>1421</ele>
        <time>2018-12-27T17:14:56Z</time>
      </trkpt>
      <trkpt lat="42.77753" lon="-0.5066">
        <ele>1422</ele>
        <time>2018-12-27T17:14:59Z</time>
      </trkpt>
      <trkpt lat="42.77762" lon="-0.50668">
        <ele>1428</ele>
        <time>2018-12-27T17:15:02Z</time>
      </trkpt>
      <trkpt lat="42.77766" lon="-0.50685">
        <ele>1435</ele>
        <time>2018-12-27T17:15:05Z</time>
      </trkpt>
      <trkpt lat="42.77765" lon="-0.50698">
        <ele>1438</ele>
        <time>2018-12-27T17:15:08Z</time>
      </trkpt>
      <trkpt lat="42.77774" lon="-0.50683">
        <ele>1437</ele>
        <time>2018-12-27T17:15:12Z</time>
      </trkpt>
      <trkpt lat="42.77795" lon="-0.50669">
        <ele>1442</ele>
        <time>2018-12-27T17:15:18Z</time>
      </trkpt>
      <trkpt lat="42.77812" lon="-0.50653">
        <ele>1444</ele>
        <time>2018-12-27T17:15:23Z</time>
      </trkpt>
      <trkpt lat="42.77822" lon="-0.50636">
        <ele>1442</ele>
        <time>2018-12-27T17:15:28Z</time>
      </trkpt>
      <trkpt lat="42.77829" lon="-0.50613">
        <ele>1439</ele>
        <time>2018-12-27T17:15:32Z</time>
      </trkpt>
      <trkpt lat="42.77832" lon="-0.50606">
        <ele>1439</ele>
        <time>2018-12-27T17:15:34Z</time>
      </trkpt>
      <trkpt lat="42.7784" lon="-0.50646">
        <ele>1451</ele>
        <time>2018-12-27T17:15:42Z</time>
      </trkpt>
      <trkpt lat="42.77838" lon="-0.50659">
        <ele>1454</ele>
        <time>2018-12-27T17:15:45Z</time>
      </trkpt>
      <trkpt lat="42.77832" lon="-0.5067">
        <ele>1457</ele>
        <time>2018-12-27T17:15:48Z</time>
      </trkpt>
      <trkpt lat="42.77825" lon="-0.50695">
        <ele>1466</ele>
        <time>2018-12-27T17:15:53Z</time>
      </trkpt>
      <trkpt lat="42.77834" lon="-0.50678">
        <ele>1461</ele>
        <time>2018-12-27T17:15:57Z</time>
      </trkpt>
      <trkpt lat="42.77843" lon="-0.50671">
        <ele>1460</ele>
        <time>2018-12-27T17:15:59Z</time>
      </trkpt>
      <trkpt lat="42.7785" lon="-0.5066">
        <ele>1458</ele>
        <time>2018-12-27T17:16:02Z</time>
      </trkpt>
      <trkpt lat="42.77859" lon="-0.50653">
        <ele>1458</ele>
        <time>2018-12-27T17:16:05Z</time>
      </trkpt>
      <trkpt lat="42.77872" lon="-0.50649">
        <ele>1459</ele>
        <time>2018-12-27T17:16:09Z</time>
      </trkpt>
      <trkpt lat="42.77882" lon="-0.5065">
        <ele>1460</ele>
        <time>2018-12-27T17:16:11Z</time>
      </trkpt>
      <trkpt lat="42.77888" lon="-0.50648">
        <ele>1460</ele>
        <time>2018-12-27T17:16:13Z</time>
      </trkpt>
      <trkpt lat="42.77893" lon="-0.50648">
        <ele>1461</ele>
        <time>2018-12-27T17:16:14Z</time>
      </trkpt>
      <trkpt lat="42.77916" lon="-0.50649">
        <ele>1465</ele>
        <time>2018-12-27T17:16:21Z</time>
      </trkpt>
      <trkpt lat="42.77923" lon="-0.50657">
        <ele>1470</ele>
        <time>2018-12-27T17:16:23Z</time>
      </trkpt>
      <trkpt lat="42.77927" lon="-0.50671">
        <ele>1476</ele>
        <time>2018-12-27T17:16:26Z</time>
      </trkpt>
      <trkpt lat="42.7793" lon="-0.50676">
        <ele>1478</ele>
        <time>2018-12-27T17:16:27Z</time>
      </trkpt>
      <trkpt lat="42.7794" lon="-0.50679">
        <ele>1482</ele>
        <time>2018-12-27T17:16:30Z</time>
      </trkpt>
      <trkpt lat="42.77941" lon="-0.50687">
        <ele>1484</ele>
        <time>2018-12-27T17:16:31Z</time>
      </trkpt>
      <trkpt lat="42.77945" lon="-0.50691">
        <ele>1485</ele>
        <time>2018-12-27T17:16:33Z</time>
      </trkpt>
      <trkpt lat="42.77951" lon="-0.50693">
        <ele>1486</ele>
        <time>2018-12-27T17:16:34Z</time>
      </trkpt>
      <trkpt lat="42.77956" lon="-0.50693">
        <ele>1487</ele>
        <time>2018-12-27T17:16:36Z</time>
      </trkpt>
      <trkpt lat="42.77963" lon="-0.50698">
        <ele>1489</ele>
        <time>2018-12-27T17:16:38Z</time>
      </trkpt>
      <trkpt lat="42.77968" lon="-0.50698">
        <ele>1490</ele>
        <time>2018-12-27T17:16:39Z</time>
      </trkpt>
      <trkpt lat="42.77973" lon="-0.50709">
        <ele>1492</ele>
        <time>2018-12-27T17:16:42Z</time>
      </trkpt>
      <trkpt lat="42.77969" lon="-0.50724">
        <ele>1492</ele>
        <time>2018-12-27T17:16:45Z</time>
      </trkpt>
      <trkpt lat="42.77959" lon="-0.50733">
        <ele>1493</ele>
        <time>2018-12-27T17:16:48Z</time>
      </trkpt>
      <trkpt lat="42.77959" lon="-0.50742">
        <ele>1496</ele>
        <time>2018-12-27T17:16:50Z</time>
      </trkpt>
      <trkpt lat="42.77957" lon="-0.50757">
        <ele>1503</ele>
        <time>2018-12-27T17:16:53Z</time>
      </trkpt>
      <trkpt lat="42.7796" lon="-0.50762">
        <ele>1505</ele>
        <time>2018-12-27T17:16:54Z</time>
      </trkpt>
      <trkpt lat="42.77954" lon="-0.5077">
        <ele>1508</ele>
        <time>2018-12-27T17:16:57Z</time>
      </trkpt>
      <trkpt lat="42.77932" lon="-0.50783">
        <ele>1515</ele>
        <time>2018-12-27T17:17:03Z</time>
      </trkpt>
      <trkpt lat="42.7793" lon="-0.50794">
        <ele>1518</ele>
        <time>2018-12-27T17:17:05Z</time>
      </trkpt>
      <trkpt lat="42.77942" lon="-0.50788">
        <ele>1516</ele>
        <time>2018-12-27T17:17:08Z</time>
      </trkpt>
      <trkpt lat="42.77948" lon="-0.50793">
        <ele>1517</ele>
        <time>2018-12-27T17:17:10Z</time>
      </trkpt>
      <trkpt lat="42.77959" lon="-0.50793">
        <ele>1517</ele>
        <time>2018-12-27T17:17:13Z</time>
      </trkpt>
      <trkpt lat="42.77964" lon="-0.50795">
        <ele>1518</ele>
        <time>2018-12-27T17:17:15Z</time>
      </trkpt>
      <trkpt lat="42.77976" lon="-0.50802">
        <ele>1521</ele>
        <time>2018-12-27T17:17:18Z</time>
      </trkpt>
      <trkpt lat="42.7798" lon="-0.50802">
        <ele>1523</ele>
        <time>2018-12-27T17:17:19Z</time>
      </trkpt>
      <trkpt lat="42.77984" lon="-0.50799">
        <ele>1523</ele>
        <time>2018-12-27T17:17:20Z</time>
      </trkpt>
      <trkpt lat="42.77994" lon="-0.50796">
        <ele>1525</ele>
        <time>2018-12-27T17:17:23Z</time>
      </trkpt>
      <trkpt lat="42.78021" lon="-0.50802">
        <ele>1538</ele>
        <time>2018-12-27T17:17:30Z</time>
      </trkpt>
      <trkpt lat="42.78027" lon="-0.50801">
        <ele>1540</ele>
        <time>2018-12-27T17:17:32Z</time>
      </trkpt>
      <trkpt lat="42.78036" lon="-0.50789">
        <ele>1539</ele>
        <time>2018-12-27T17:17:35Z</time>
      </trkpt>
      <trkpt lat="42.78039" lon="-0.50784">
        <ele>1538</ele>
        <time>2018-12-27T17:17:37Z</time>
      </trkpt>
      <trkpt lat="42.7804" lon="-0.5079">
        <ele>1540</ele>
        <time>2018-12-27T17:17:38Z</time>
      </trkpt>
      <trkpt lat="42.78048" lon="-0.50802">
        <ele>1547</ele>
        <time>2018-12-27T17:17:41Z</time>
      </trkpt>
      <trkpt lat="42.78041" lon="-0.50825">
        <ele>1557</ele>
        <time>2018-12-27T17:17:46Z</time>
      </trkpt>
      <trkpt lat="42.78047" lon="-0.50837">
        <ele>1567</ele>
        <time>2018-12-27T17:17:49Z</time>
      </trkpt>
      <trkpt lat="42.78049" lon="-0.50843">
        <ele>1571</ele>
        <time>2018-12-27T17:17:50Z</time>
      </trkpt>
      <trkpt lat="42.78045" lon="-0.5085">
        <ele>1574</ele>
        <time>2018-12-27T17:17:52Z</time>
      </trkpt>
      <trkpt lat="42.78038" lon="-0.50858">
        <ele>1573</ele>
        <time>2018-12-27T17:17:54Z</time>
      </trkpt>
      <trkpt lat="42.78033" lon="-0.50869">
        <ele>1574</ele>
        <time>2018-12-27T17:17:57Z</time>
      </trkpt>
      <trkpt lat="42.78028" lon="-0.50888">
        <ele>1580</ele>
        <time>2018-12-27T17:18:01Z</time>
      </trkpt>
      <trkpt lat="42.78024" lon="-0.50891">
        <ele>1580</ele>
        <time>2018-12-27T17:18:02Z</time>
      </trkpt>
      <trkpt lat="42.78015" lon="-0.50893">
        <ele>1577</ele>
        <time>2018-12-27T17:18:04Z</time>
      </trkpt>
      <trkpt lat="42.78004" lon="-0.50891">
        <ele>1572</ele>
        <time>2018-12-27T17:18:07Z</time>
      </trkpt>
      <trkpt lat="42.77996" lon="-0.50895">
        <ele>1569</ele>
        <time>2018-12-27T17:18:10Z</time>
      </trkpt>
      <trkpt lat="42.7799" lon="-0.50904">
        <ele>1569</ele>
        <time>2018-12-27T17:18:12Z</time>
      </trkpt>
      <trkpt lat="42.77974" lon="-0.50912">
        <ele>1564</ele>
        <time>2018-12-27T17:18:17Z</time>
      </trkpt>
      <trkpt lat="42.7798" lon="-0.50918">
        <ele>1568</ele>
        <time>2018-12-27T17:18:19Z</time>
      </trkpt>
      <trkpt lat="42.77986" lon="-0.50921">
        <ele>1571</ele>
        <time>2018-12-27T17:18:20Z</time>
      </trkpt>
      <trkpt lat="42.77992" lon="-0.50958">
        <ele>1579</ele>
        <time>2018-12-27T17:18:28Z</time>
      </trkpt>
      <trkpt lat="42.77995" lon="-0.5097">
        <ele>1583</ele>
        <time>2018-12-27T17:18:30Z</time>
      </trkpt>
      <trkpt lat="42.77999" lon="-0.5098">
        <ele>1586</ele>
        <time>2018-12-27T17:18:33Z</time>
      </trkpt>
      <trkpt lat="42.77999" lon="-0.50988">
        <ele>1587</ele>
        <time>2018-12-27T17:18:34Z</time>
      </trkpt>
      <trkpt lat="42.78004" lon="-0.51011">
        <ele>1592</ele>
        <time>2018-12-27T17:18:39Z</time>
      </trkpt>
      <trkpt lat="42.78011" lon="-0.5103">
        <ele>1597</ele>
        <time>2018-12-27T17:18:43Z</time>
      </trkpt>
      <trkpt lat="42.78012" lon="-0.51045">
        <ele>1600</ele>
        <time>2018-12-27T17:18:46Z</time>
      </trkpt>
      <trkpt lat="42.78015" lon="-0.51053">
        <ele>1604</ele>
        <time>2018-12-27T17:18:48Z</time>
      </trkpt>
      <trkpt lat="42.78015" lon="-0.51062">
        <ele>1607</ele>
        <time>2018-12-27T17:18:50Z</time>
      </trkpt>
      <trkpt lat="42.78022" lon="-0.51092">
        <ele>1621</ele>
        <time>2018-12-27T17:18:56Z</time>
      </trkpt>
      <trkpt lat="42.78024" lon="-0.51097">
        <ele>1624</ele>
        <time>2018-12-27T17:18:57Z</time>
      </trkpt>
      <trkpt lat="42.78024" lon="-0.51111">
        <ele>1627</ele>
        <time>2018-12-27T17:19:00Z</time>
      </trkpt>
      <trkpt lat="42.78021" lon="-0.51118">
        <ele>1627</ele>
        <time>2018-12-27T17:19:01Z</time>
      </trkpt>
      <trkpt lat="42.78017" lon="-0.51123">
        <ele>1626</ele>
        <time>2018-12-27T17:19:03Z</time>
      </trkpt>
      <trkpt lat="42.78008" lon="-0.51138">
        <ele>1628</ele>
        <time>2018-12-27T17:19:07Z</time>
      </trkpt>
      <trkpt lat="42.78013" lon="-0.51137">
        <ele>1629</ele>
        <time>2018-12-27T17:19:08Z</time>
      </trkpt>
      <trkpt lat="42.7801" lon="-0.51147">
        <ele>1629</ele>
        <time>2018-12-27T17:19:10Z</time>
      </trkpt>
      <trkpt lat="42.78006" lon="-0.5115">
        <ele>1628</ele>
        <time>2018-12-27T17:19:11Z</time>
      </trkpt>
      <trkpt lat="42.78014" lon="-0.5115">
        <ele>1630</ele>
        <time>2018-12-27T17:19:13Z</time>
      </trkpt>
      <trkpt lat="42.78024" lon="-0.5114">
        <ele>1633</ele>
        <time>2018-12-27T17:19:17Z</time>
      </trkpt>
      <trkpt lat="42.78034" lon="-0.51129">
        <ele>1635</ele>
        <time>2018-12-27T17:19:20Z</time>
      </trkpt>
      <trkpt lat="42.78037" lon="-0.51131">
        <ele>1636</ele>
        <time>2018-12-27T17:19:21Z</time>
      </trkpt>
      <trkpt lat="42.7803" lon="-0.51155">
        <ele>1635</ele>
        <time>2018-12-27T17:19:26Z</time>
      </trkpt>
      <trkpt lat="42.78027" lon="-0.51161">
        <ele>1634</ele>
        <time>2018-12-27T17:19:27Z</time>
      </trkpt>
      <trkpt lat="42.78026" lon="-0.51168">
        <ele>1634</ele>
        <time>2018-12-27T17:19:29Z</time>
      </trkpt>
      <trkpt lat="42.78023" lon="-0.51175">
        <ele>1632</ele>
        <time>2018-12-27T17:19:30Z</time>
      </trkpt>
      <trkpt lat="42.78005" lon="-0.51187">
        <ele>1625</ele>
        <time>2018-12-27T17:19:36Z</time>
      </trkpt>
      <trkpt lat="42.77995" lon="-0.51191">
        <ele>1623</ele>
        <time>2018-12-27T17:19:38Z</time>
      </trkpt>
      <trkpt lat="42.7799" lon="-0.51195">
        <ele>1622</ele>
        <time>2018-12-27T17:19:40Z</time>
      </trkpt>
      <trkpt lat="42.77986" lon="-0.51201">
        <ele>1621</ele>
        <time>2018-12-27T17:19:42Z</time>
      </trkpt>
      <trkpt lat="42.77991" lon="-0.51209">
        <ele>1622</ele>
        <time>2018-12-27T17:19:44Z</time>
      </trkpt>
      <trkpt lat="42.77996" lon="-0.51212">
        <ele>1622</ele>
        <time>2018-12-27T17:19:45Z</time>
      </trkpt>
      <trkpt lat="42.78002" lon="-0.51214">
        <ele>1624</ele>
        <time>2018-12-27T17:19:47Z</time>
      </trkpt>
      <trkpt lat="42.78012" lon="-0.51215">
        <ele>1627</ele>
        <time>2018-12-27T17:19:49Z</time>
      </trkpt>
      <trkpt lat="42.78024" lon="-0.51223">
        <ele>1631</ele>
        <time>2018-12-27T17:19:53Z</time>
      </trkpt>
      <trkpt lat="42.78038" lon="-0.51249">
        <ele>1638</ele>
        <time>2018-12-27T17:19:59Z</time>
      </trkpt>
      <trkpt lat="42.78045" lon="-0.51278">
        <ele>1641</ele>
        <time>2018-12-27T17:20:05Z</time>
      </trkpt>
      <trkpt lat="42.7805" lon="-0.5127">
        <ele>1643</ele>
        <time>2018-12-27T17:20:07Z</time>
      </trkpt>
      <trkpt lat="42.7806" lon="-0.5125">
        <ele>1647</ele>
        <time>2018-12-27T17:20:12Z</time>
      </trkpt>
      <trkpt lat="42.7807" lon="-0.51215">
        <ele>1647</ele>
        <time>2018-12-27T17:20:19Z</time>
      </trkpt>
      <trkpt lat="42.78078" lon="-0.51205">
        <ele>1650</ele>
        <time>2018-12-27T17:20:22Z</time>
      </trkpt>
      <trkpt lat="42.78081" lon="-0.51212">
        <ele>1652</ele>
        <time>2018-12-27T17:20:24Z</time>
      </trkpt>
      <trkpt lat="42.78082" lon="-0.5122">
        <ele>1653</ele>
        <time>2018-12-27T17:20:25Z</time>
      </trkpt>
      <trkpt lat="42.78085" lon="-0.51225">
        <ele>1656</ele>
        <time>2018-12-27T17:20:27Z</time>
      </trkpt>
      <trkpt lat="42.78088" lon="-0.5124">
        <ele>1660</ele>
        <time>2018-12-27T17:20:30Z</time>
      </trkpt>
      <trkpt lat="42.78096" lon="-0.51255">
        <ele>1667</ele>
        <time>2018-12-27T17:20:34Z</time>
      </trkpt>
      <trkpt lat="42.78101" lon="-0.51248">
        <ele>1670</ele>
        <time>2018-12-27T17:20:35Z</time>
      </trkpt>
      <trkpt lat="42.78105" lon="-0.51234">
        <ele>1672</ele>
        <time>2018-12-27T17:20:38Z</time>
      </trkpt>
      <trkpt lat="42.78108" lon="-0.51218">
        <ele>1674</ele>
        <time>2018-12-27T17:20:42Z</time>
      </trkpt>
      <trkpt lat="42.78113" lon="-0.51222">
        <ele>1678</ele>
        <time>2018-12-27T17:20:43Z</time>
      </trkpt>
      <trkpt lat="42.78118" lon="-0.51234">
        <ele>1680</ele>
        <time>2018-12-27T17:20:46Z</time>
      </trkpt>
      <trkpt lat="42.7812" lon="-0.51243">
        <ele>1681</ele>
        <time>2018-12-27T17:20:48Z</time>
      </trkpt>
      <trkpt lat="42.78123" lon="-0.51232">
        <ele>1682</ele>
        <time>2018-12-27T17:20:50Z</time>
      </trkpt>
      <trkpt lat="42.78124" lon="-0.51209">
        <ele>1683</ele>
        <time>2018-12-27T17:20:54Z</time>
      </trkpt>
      <trkpt lat="42.7812" lon="-0.51136">
        <ele>1689</ele>
        <time>2018-12-27T17:21:09Z</time>
      </trkpt>
      <trkpt lat="42.78121" lon="-0.51121">
        <ele>1691</ele>
        <time>2018-12-27T17:21:12Z</time>
      </trkpt>
      <trkpt lat="42.7812" lon="-0.51106">
        <ele>1691</ele>
        <time>2018-12-27T17:21:15Z</time>
      </trkpt>
      <trkpt lat="42.78125" lon="-0.5111">
        <ele>1694</ele>
        <time>2018-12-27T17:21:16Z</time>
      </trkpt>
      <trkpt lat="42.7813" lon="-0.5112">
        <ele>1697</ele>
        <time>2018-12-27T17:21:19Z</time>
      </trkpt>
      <trkpt lat="42.78132" lon="-0.51133">
        <ele>1696</ele>
        <time>2018-12-27T17:21:21Z</time>
      </trkpt>
      <trkpt lat="42.7814" lon="-0.51151">
        <ele>1698</ele>
        <time>2018-12-27T17:21:25Z</time>
      </trkpt>
      <trkpt lat="42.78152" lon="-0.51188">
        <ele>1699</ele>
        <time>2018-12-27T17:21:33Z</time>
      </trkpt>
      <trkpt lat="42.78154" lon="-0.51178">
        <ele>1701</ele>
        <time>2018-12-27T17:21:35Z</time>
      </trkpt>
      <trkpt lat="42.78152" lon="-0.51165">
        <ele>1701</ele>
        <time>2018-12-27T17:21:38Z</time>
      </trkpt>
      <trkpt lat="42.78142" lon="-0.51129">
        <ele>1703</ele>
        <time>2018-12-27T17:21:45Z</time>
      </trkpt>
      <trkpt lat="42.78144" lon="-0.51113">
        <ele>1705</ele>
        <time>2018-12-27T17:21:48Z</time>
      </trkpt>
      <trkpt lat="42.78153" lon="-0.5108">
        <ele>1712</ele>
        <time>2018-12-27T17:21:55Z</time>
      </trkpt>
      <trkpt lat="42.78157" lon="-0.51081">
        <ele>1715</ele>
        <time>2018-12-27T17:21:57Z</time>
      </trkpt>
      <trkpt lat="42.78164" lon="-0.51093">
        <ele>1717</ele>
        <time>2018-12-27T17:22:00Z</time>
      </trkpt>
      <trkpt lat="42.78167" lon="-0.51069">
        <ele>1720</ele>
        <time>2018-12-27T17:22:05Z</time>
      </trkpt>
      <trkpt lat="42.78172" lon="-0.51046">
        <ele>1722</ele>
        <time>2018-12-27T17:22:09Z</time>
      </trkpt>
      <trkpt lat="42.78175" lon="-0.51042">
        <ele>1723</ele>
        <time>2018-12-27T17:22:10Z</time>
      </trkpt>
      <trkpt lat="42.7818" lon="-0.51041">
        <ele>1725</ele>
        <time>2018-12-27T17:22:12Z</time>
      </trkpt>
      <trkpt lat="42.78191" lon="-0.51048">
        <ele>1729</ele>
        <time>2018-12-27T17:22:15Z</time>
      </trkpt>
      <trkpt lat="42.78201" lon="-0.5106">
        <ele>1732</ele>
        <time>2018-12-27T17:22:18Z</time>
      </trkpt>
      <trkpt lat="42.78206" lon="-0.51063">
        <ele>1734</ele>
        <time>2018-12-27T17:22:20Z</time>
      </trkpt>
      <trkpt lat="42.78223" lon="-0.51062">
        <ele>1740</ele>
        <time>2018-12-27T17:22:25Z</time>
      </trkpt>
      <trkpt lat="42.78235" lon="-0.51066">
        <ele>1743</ele>
        <time>2018-12-27T17:22:28Z</time>
      </trkpt>
      <trkpt lat="42.78239" lon="-0.51063">
        <ele>1745</ele>
        <time>2018-12-27T17:22:29Z</time>
      </trkpt>
      <trkpt lat="42.78242" lon="-0.51057">
        <ele>1746</ele>
        <time>2018-12-27T17:22:31Z</time>
      </trkpt>
      <trkpt lat="42.78242" lon="-0.51035">
        <ele>1747</ele>
        <time>2018-12-27T17:22:35Z</time>
      </trkpt>
      <trkpt lat="42.78247" lon="-0.51014">
        <ele>1751</ele>
        <time>2018-12-27T17:22:39Z</time>
      </trkpt>
      <trkpt lat="42.78248" lon="-0.51001">
        <ele>1752</ele>
        <time>2018-12-27T17:22:42Z</time>
      </trkpt>
      <trkpt lat="42.78258" lon="-0.50974">
        <ele>1759</ele>
        <time>2018-12-27T17:22:48Z</time>
      </trkpt>
      <trkpt lat="42.7826" lon="-0.50964">
        <ele>1760</ele>
        <time>2018-12-27T17:22:50Z</time>
      </trkpt>
      <trkpt lat="42.78266" lon="-0.5097">
        <ele>1766</ele>
        <time>2018-12-27T17:22:52Z</time>
      </trkpt>
      <trkpt lat="42.78271" lon="-0.50983">
        <ele>1769</ele>
        <time>2018-12-27T17:22:55Z</time>
      </trkpt>
      <trkpt lat="42.78274" lon="-0.50998">
        <ele>1770</ele>
        <time>2018-12-27T17:22:58Z</time>
      </trkpt>
      <trkpt lat="42.78278" lon="-0.51006">
        <ele>1771</ele>
        <time>2018-12-27T17:22:59Z</time>
      </trkpt>
      <trkpt lat="42.78288" lon="-0.51019">
        <ele>1775</ele>
        <time>2018-12-27T17:23:03Z</time>
      </trkpt>
      <trkpt lat="42.78291" lon="-0.51014">
        <ele>1777</ele>
        <time>2018-12-27T17:23:05Z</time>
      </trkpt>
      <trkpt lat="42.78291" lon="-0.51001">
        <ele>1779</ele>
        <time>2018-12-27T17:23:07Z</time>
      </trkpt>
      <trkpt lat="42.78298" lon="-0.51002">
        <ele>1782</ele>
        <time>2018-12-27T17:23:09Z</time>
      </trkpt>
      <trkpt lat="42.78295" lon="-0.50986">
        <ele>1783</ele>
        <time>2018-12-27T17:23:12Z</time>
      </trkpt>
      <trkpt lat="42.78294" lon="-0.50964">
        <ele>1785</ele>
        <time>2018-12-27T17:23:16Z</time>
      </trkpt>
      <trkpt lat="42.783" lon="-0.50956">
        <ele>1789</ele>
        <time>2018-12-27T17:23:19Z</time>
      </trkpt>
      <trkpt lat="42.78299" lon="-0.50924">
        <ele>1788</ele>
        <time>2018-12-27T17:23:25Z</time>
      </trkpt>
      <trkpt lat="42.78307" lon="-0.5093">
        <ele>1793</ele>
        <time>2018-12-27T17:23:27Z</time>
      </trkpt>
      <trkpt lat="42.78314" lon="-0.50952">
        <ele>1796</ele>
        <time>2018-12-27T17:23:32Z</time>
      </trkpt>
      <trkpt lat="42.78316" lon="-0.50943">
        <ele>1797</ele>
        <time>2018-12-27T17:23:34Z</time>
      </trkpt>
      <trkpt lat="42.78312" lon="-0.50929">
        <ele>1795</ele>
        <time>2018-12-27T17:23:37Z</time>
      </trkpt>
      <trkpt lat="42.78312" lon="-0.50922">
        <ele>1795</ele>
        <time>2018-12-27T17:23:38Z</time>
      </trkpt>
      <trkpt lat="42.78317" lon="-0.50925">
        <ele>1797</ele>
        <time>2018-12-27T17:23:40Z</time>
      </trkpt>
      <trkpt lat="42.78319" lon="-0.50931">
        <ele>1798</ele>
        <time>2018-12-27T17:23:41Z</time>
      </trkpt>
      <trkpt lat="42.78322" lon="-0.5092">
        <ele>1799</ele>
        <time>2018-12-27T17:23:43Z</time>
      </trkpt>
      <trkpt lat="42.78328" lon="-0.50917">
        <ele>1801</ele>
        <time>2018-12-27T17:23:45Z</time>
      </trkpt>
      <trkpt lat="42.78328" lon="-0.5091">
        <ele>1802</ele>
        <time>2018-12-27T17:23:46Z</time>
      </trkpt>
      <trkpt lat="42.78335" lon="-0.50915">
        <ele>1804</ele>
        <time>2018-12-27T17:23:48Z</time>
      </trkpt>
      <trkpt lat="42.78337" lon="-0.50891">
        <ele>1807</ele>
        <time>2018-12-27T17:23:53Z</time>
      </trkpt>
      <trkpt lat="42.78355" lon="-0.50866">
        <ele>1817</ele>
        <time>2018-12-27T17:24:00Z</time>
      </trkpt>
      <trkpt lat="42.7836" lon="-0.50866">
        <ele>1820</ele>
        <time>2018-12-27T17:24:01Z</time>
      </trkpt>
      <trkpt lat="42.78363" lon="-0.50879">
        <ele>1820</ele>
        <time>2018-12-27T17:24:04Z</time>
      </trkpt>
      <trkpt lat="42.78373" lon="-0.50901">
        <ele>1823</ele>
        <time>2018-12-27T17:24:09Z</time>
      </trkpt>
      <trkpt lat="42.7838" lon="-0.50927">
        <ele>1824</ele>
        <time>2018-12-27T17:24:14Z</time>
      </trkpt>
      <trkpt lat="42.78384" lon="-0.50932">
        <ele>1826</ele>
        <time>2018-12-27T17:24:16Z</time>
      </trkpt>
      <trkpt lat="42.78394" lon="-0.50915">
        <ele>1832</ele>
        <time>2018-12-27T17:24:20Z</time>
      </trkpt>
      <trkpt lat="42.78406" lon="-0.50875">
        <ele>1843</ele>
        <time>2018-12-27T17:24:28Z</time>
      </trkpt>
      <trkpt lat="42.7841" lon="-0.50878">
        <ele>1845</ele>
        <time>2018-12-27T17:24:30Z</time>
      </trkpt>
      <trkpt lat="42.78425" lon="-0.50911">
        <ele>1848</ele>
        <time>2018-12-27T17:24:37Z</time>
      </trkpt>
      <trkpt lat="42.78431" lon="-0.50921">
        <ele>1850</ele>
        <time>2018-12-27T17:24:40Z</time>
      </trkpt>
      <trkpt lat="42.78439" lon="-0.50915">
        <ele>1855</ele>
        <time>2018-12-27T17:24:42Z</time>
      </trkpt>
      <trkpt lat="42.78442" lon="-0.50923">
        <ele>1855</ele>
        <time>2018-12-27T17:24:44Z</time>
      </trkpt>
      <trkpt lat="42.78454" lon="-0.50939">
        <ele>1856</ele>
        <time>2018-12-27T17:24:48Z</time>
      </trkpt>
      <trkpt lat="42.78453" lon="-0.50927">
        <ele>1859</ele>
        <time>2018-12-27T17:24:51Z</time>
      </trkpt>
      <trkpt lat="42.78448" lon="-0.50908">
        <ele>1860</ele>
        <time>2018-12-27T17:24:55Z</time>
      </trkpt>
      <trkpt lat="42.78455" lon="-0.50915">
        <ele>1863</ele>
        <time>2018-12-27T17:24:57Z</time>
      </trkpt>
      <trkpt lat="42.78459" lon="-0.50926">
        <ele>1863</ele>
        <time>2018-12-27T17:25:00Z</time>
      </trkpt>
      <trkpt lat="42.78472" lon="-0.50944">
        <ele>1865</ele>
        <time>2018-12-27T17:25:04Z</time>
      </trkpt>
      <trkpt lat="42.78477" lon="-0.50949">
        <ele>1866</ele>
        <time>2018-12-27T17:25:06Z</time>
      </trkpt>
      <trkpt lat="42.78494" lon="-0.50972">
        <ele>1866</ele>
        <time>2018-12-27T17:25:12Z</time>
      </trkpt>
      <trkpt lat="42.78499" lon="-0.50983">
        <ele>1867</ele>
        <time>2018-12-27T17:25:15Z</time>
      </trkpt>
      <trkpt lat="42.78511" lon="-0.51019">
        <ele>1867</ele>
        <time>2018-12-27T17:25:23Z</time>
      </trkpt>
      <trkpt lat="42.78519" lon="-0.51037">
        <ele>1866</ele>
        <time>2018-12-27T17:25:27Z</time>
      </trkpt>
      <trkpt lat="42.78539" lon="-0.51065">
        <ele>1862</ele>
        <time>2018-12-27T17:25:34Z</time>
      </trkpt>
      <trkpt lat="42.78556" lon="-0.51081">
        <ele>1861</ele>
        <time>2018-12-27T17:25:40Z</time>
      </trkpt>
      <trkpt lat="42.78548" lon="-0.51049">
        <ele>1869</ele>
        <time>2018-12-27T17:25:46Z</time>
      </trkpt>
      <trkpt lat="42.78537" lon="-0.5103">
        <ele>1872</ele>
        <time>2018-12-27T17:25:51Z</time>
      </trkpt>
      <trkpt lat="42.7853" lon="-0.51001">
        <ele>1877</ele>
        <time>2018-12-27T17:25:57Z</time>
      </trkpt>
      <trkpt lat="42.78524" lon="-0.50986">
        <ele>1878</ele>
        <time>2018-12-27T17:26:00Z</time>
      </trkpt>
      <trkpt lat="42.78519" lon="-0.50962">
        <ele>1881</ele>
        <time>2018-12-27T17:26:05Z</time>
      </trkpt>
      <trkpt lat="42.78489" lon="-0.50899">
        <ele>1883</ele>
        <time>2018-12-27T17:26:20Z</time>
      </trkpt>
      <trkpt lat="42.78494" lon="-0.50894">
        <ele>1886</ele>
        <time>2018-12-27T17:26:22Z</time>
      </trkpt>
      <trkpt lat="42.78501" lon="-0.50869">
        <ele>1893</ele>
        <time>2018-12-27T17:26:27Z</time>
      </trkpt>
      <trkpt lat="42.78508" lon="-0.50858">
        <ele>1896</ele>
        <time>2018-12-27T17:26:30Z</time>
      </trkpt>
      <trkpt lat="42.7851" lon="-0.50851">
        <ele>1897</ele>
        <time>2018-12-27T17:26:31Z</time>
      </trkpt>
      <trkpt lat="42.78513" lon="-0.50825">
        <ele>1900</ele>
        <time>2018-12-27T17:26:36Z</time>
      </trkpt>
      <trkpt lat="42.78515" lon="-0.5082">
        <ele>1901</ele>
        <time>2018-12-27T17:26:37Z</time>
      </trkpt>
      <trkpt lat="42.7852" lon="-0.50814">
        <ele>1902</ele>
        <time>2018-12-27T17:26:39Z</time>
      </trkpt>
      <trkpt lat="42.78529" lon="-0.50806">
        <ele>1905</ele>
        <time>2018-12-27T17:26:42Z</time>
      </trkpt>
      <trkpt lat="42.78531" lon="-0.5082">
        <ele>1906</ele>
        <time>2018-12-27T17:26:45Z</time>
      </trkpt>
      <trkpt lat="42.78536" lon="-0.5082">
        <ele>1907</ele>
        <time>2018-12-27T17:26:46Z</time>
      </trkpt>
      <trkpt lat="42.78546" lon="-0.50814">
        <ele>1910</ele>
        <time>2018-12-27T17:26:49Z</time>
      </trkpt>
      <trkpt lat="42.78565" lon="-0.50795">
        <ele>1916</ele>
        <time>2018-12-27T17:26:55Z</time>
      </trkpt>
      <trkpt lat="42.78575" lon="-0.5077">
        <ele>1921</ele>
        <time>2018-12-27T17:27:01Z</time>
      </trkpt>
      <trkpt lat="42.78583" lon="-0.50756">
        <ele>1923</ele>
        <time>2018-12-27T17:27:04Z</time>
      </trkpt>
      <trkpt lat="42.78584" lon="-0.50764">
        <ele>1923</ele>
        <time>2018-12-27T17:27:06Z</time>
      </trkpt>
      <trkpt lat="42.78588" lon="-0.50778">
        <ele>1924</ele>
        <time>2018-12-27T17:27:09Z</time>
      </trkpt>
      <trkpt lat="42.78594" lon="-0.50793">
        <ele>1924</ele>
        <time>2018-12-27T17:27:12Z</time>
      </trkpt>
      <trkpt lat="42.78599" lon="-0.50788">
        <ele>1926</ele>
        <time>2018-12-27T17:27:14Z</time>
      </trkpt>
      <trkpt lat="42.78602" lon="-0.50775">
        <ele>1928</ele>
        <time>2018-12-27T17:27:16Z</time>
      </trkpt>
      <trkpt lat="42.78607" lon="-0.50786">
        <ele>1929</ele>
        <time>2018-12-27T17:27:19Z</time>
      </trkpt>
      <trkpt lat="42.78615" lon="-0.50807">
        <ele>1931</ele>
        <time>2018-12-27T17:27:24Z</time>
      </trkpt>
      <trkpt lat="42.78624" lon="-0.50825">
        <ele>1933</ele>
        <time>2018-12-27T17:27:28Z</time>
      </trkpt>
      <trkpt lat="42.78628" lon="-0.50822">
        <ele>1935</ele>
        <time>2018-12-27T17:27:29Z</time>
      </trkpt>
      <trkpt lat="42.78629" lon="-0.5079">
        <ele>1938</ele>
        <time>2018-12-27T17:27:35Z</time>
      </trkpt>
      <trkpt lat="42.78632" lon="-0.50796">
        <ele>1939</ele>
        <time>2018-12-27T17:27:37Z</time>
      </trkpt>
      <trkpt lat="42.78643" lon="-0.50831">
        <ele>1939</ele>
        <time>2018-12-27T17:27:44Z</time>
      </trkpt>
      <trkpt lat="42.78652" lon="-0.50838">
        <ele>1942</ele>
        <time>2018-12-27T17:27:47Z</time>
      </trkpt>
      <trkpt lat="42.7865" lon="-0.50823">
        <ele>1943</ele>
        <time>2018-12-27T17:27:50Z</time>
      </trkpt>
      <trkpt lat="42.7866" lon="-0.50832">
        <ele>1945</ele>
        <time>2018-12-27T17:27:53Z</time>
      </trkpt>
      <trkpt lat="42.78665" lon="-0.50832">
        <ele>1947</ele>
        <time>2018-12-27T17:27:54Z</time>
      </trkpt>
      <trkpt lat="42.7866" lon="-0.50821">
        <ele>1947</ele>
        <time>2018-12-27T17:27:57Z</time>
      </trkpt>
      <trkpt lat="42.78667" lon="-0.50826">
        <ele>1949</ele>
        <time>2018-12-27T17:27:59Z</time>
      </trkpt>
      <trkpt lat="42.78676" lon="-0.5084">
        <ele>1951</ele>
        <time>2018-12-27T17:28:02Z</time>
      </trkpt>
      <trkpt lat="42.78676" lon="-0.50827">
        <ele>1954</ele>
        <time>2018-12-27T17:28:05Z</time>
      </trkpt>
      <trkpt lat="42.78671" lon="-0.50811">
        <ele>1954</ele>
        <time>2018-12-27T17:28:08Z</time>
      </trkpt>
      <trkpt lat="42.78672" lon="-0.50803">
        <ele>1957</ele>
        <time>2018-12-27T17:28:10Z</time>
      </trkpt>
      <trkpt lat="42.78677" lon="-0.50806">
        <ele>1958</ele>
        <time>2018-12-27T17:28:11Z</time>
      </trkpt>
      <trkpt lat="42.78692" lon="-0.50825">
        <ele>1963</ele>
        <time>2018-12-27T17:28:17Z</time>
      </trkpt>
      <trkpt lat="42.78704" lon="-0.50828">
        <ele>1967</ele>
        <time>2018-12-27T17:28:20Z</time>
      </trkpt>
      <trkpt lat="42.78718" lon="-0.50839">
        <ele>1970</ele>
        <time>2018-12-27T17:28:24Z</time>
      </trkpt>
      <trkpt lat="42.78722" lon="-0.50845">
        <ele>1970</ele>
        <time>2018-12-27T17:28:26Z</time>
      </trkpt>
      <trkpt lat="42.78729" lon="-0.50868">
        <ele>1970</ele>
        <time>2018-12-27T17:28:31Z</time>
      </trkpt>
      <trkpt lat="42.78736" lon="-0.50881">
        <ele>1971</ele>
        <time>2018-12-27T17:28:34Z</time>
      </trkpt>
      <trkpt lat="42.78739" lon="-0.50879">
        <ele>1973</ele>
        <time>2018-12-27T17:28:35Z</time>
      </trkpt>
      <trkpt lat="42.78738" lon="-0.50864">
        <ele>1974</ele>
        <time>2018-12-27T17:28:38Z</time>
      </trkpt>
      <trkpt lat="42.78743" lon="-0.50866">
        <ele>1976</ele>
        <time>2018-12-27T17:28:39Z</time>
      </trkpt>
      <trkpt lat="42.78749" lon="-0.50878">
        <ele>1978</ele>
        <time>2018-12-27T17:28:42Z</time>
      </trkpt>
      <trkpt lat="42.78749" lon="-0.50855">
        <ele>1978</ele>
        <time>2018-12-27T17:28:46Z</time>
      </trkpt>
      <trkpt lat="42.78747" lon="-0.50847">
        <ele>1978</ele>
        <time>2018-12-27T17:28:48Z</time>
      </trkpt>
      <trkpt lat="42.78746" lon="-0.50816">
        <ele>1979</ele>
        <time>2018-12-27T17:28:54Z</time>
      </trkpt>
      <trkpt lat="42.78744" lon="-0.50795">
        <ele>1982</ele>
        <time>2018-12-27T17:28:58Z</time>
      </trkpt>
      <trkpt lat="42.7874" lon="-0.50779">
        <ele>1984</ele>
        <time>2018-12-27T17:29:02Z</time>
      </trkpt>
      <trkpt lat="42.78738" lon="-0.50765">
        <ele>1984</ele>
        <time>2018-12-27T17:29:04Z</time>
      </trkpt>
      <trkpt lat="42.7873" lon="-0.5075">
        <ele>1982</ele>
        <time>2018-12-27T17:29:08Z</time>
      </trkpt>
      <trkpt lat="42.78728" lon="-0.50742">
        <ele>1981</ele>
        <time>2018-12-27T17:29:10Z</time>
      </trkpt>
      <trkpt lat="42.78735" lon="-0.50745">
        <ele>1984</ele>
        <time>2018-12-27T17:29:11Z</time>
      </trkpt>
      <trkpt lat="42.78745" lon="-0.50753">
        <ele>1988</ele>
        <time>2018-12-27T17:29:14Z</time>
      </trkpt>
      <trkpt lat="42.7874" lon="-0.50739">
        <ele>1986</ele>
        <time>2018-12-27T17:29:18Z</time>
      </trkpt>
      <trkpt lat="42.78747" lon="-0.50741">
        <ele>1990</ele>
        <time>2018-12-27T17:29:20Z</time>
      </trkpt>
      <trkpt lat="42.78753" lon="-0.50746">
        <ele>1992</ele>
        <time>2018-12-27T17:29:21Z</time>
      </trkpt>
      <trkpt lat="42.78754" lon="-0.50738">
        <ele>1994</ele>
        <time>2018-12-27T17:29:23Z</time>
      </trkpt>
      <trkpt lat="42.78759" lon="-0.50742">
        <ele>1996</ele>
        <time>2018-12-27T17:29:24Z</time>
      </trkpt>
      <trkpt lat="42.78765" lon="-0.50743">
        <ele>1999</ele>
        <time>2018-12-27T17:29:26Z</time>
      </trkpt>
      <trkpt lat="42.78766" lon="-0.50735">
        <ele>2000</ele>
        <time>2018-12-27T17:29:27Z</time>
      </trkpt>
      <trkpt lat="42.78763" lon="-0.5073">
        <ele>1999</ele>
        <time>2018-12-27T17:29:29Z</time>
      </trkpt>
      <trkpt lat="42.78771" lon="-0.50732">
        <ele>2003</ele>
        <time>2018-12-27T17:29:31Z</time>
      </trkpt>
      <trkpt lat="42.7878" lon="-0.50741">
        <ele>2007</ele>
        <time>2018-12-27T17:29:34Z</time>
      </trkpt>
      <trkpt lat="42.78774" lon="-0.50727">
        <ele>2006</ele>
        <time>2018-12-27T17:29:37Z</time>
      </trkpt>
      <trkpt lat="42.78779" lon="-0.50727">
        <ele>2008</ele>
        <time>2018-12-27T17:29:38Z</time>
      </trkpt>
      <trkpt lat="42.78789" lon="-0.50732">
        <ele>2012</ele>
        <time>2018-12-27T17:29:41Z</time>
      </trkpt>
      <trkpt lat="42.78784" lon="-0.5072">
        <ele>2011</ele>
        <time>2018-12-27T17:29:44Z</time>
      </trkpt>
      <trkpt lat="42.78792" lon="-0.50724">
        <ele>2015</ele>
        <time>2018-12-27T17:29:47Z</time>
      </trkpt>
      <trkpt lat="42.78791" lon="-0.50712">
        <ele>2015</ele>
        <time>2018-12-27T17:29:49Z</time>
      </trkpt>
      <trkpt lat="42.78802" lon="-0.50721">
        <ele>2020</ele>
        <time>2018-12-27T17:29:52Z</time>
      </trkpt>
      <trkpt lat="42.78801" lon="-0.50711">
        <ele>2020</ele>
        <time>2018-12-27T17:29:54Z</time>
      </trkpt>
      <trkpt lat="42.78801" lon="-0.50705">
        <ele>2022</ele>
        <time>2018-12-27T17:29:55Z</time>
      </trkpt>
      <trkpt lat="42.7881" lon="-0.50715">
        <ele>2024</ele>
        <time>2018-12-27T17:29:58Z</time>
      </trkpt>
      <trkpt lat="42.78808" lon="-0.50699">
        <ele>2026</ele>
        <time>2018-12-27T17:30:01Z</time>
      </trkpt>
      <trkpt lat="42.78818" lon="-0.50711">
        <ele>2028</ele>
        <time>2018-12-27T17:30:05Z</time>
      </trkpt>
      <trkpt lat="42.78819" lon="-0.50705">
        <ele>2030</ele>
        <time>2018-12-27T17:30:06Z</time>
      </trkpt>
      <trkpt lat="42.78816" lon="-0.50696">
        <ele>2030</ele>
        <time>2018-12-27T17:30:08Z</time>
      </trkpt>
      <trkpt lat="42.78824" lon="-0.50699">
        <ele>2033</ele>
        <time>2018-12-27T17:30:10Z</time>
      </trkpt>
      <trkpt lat="42.78841" lon="-0.50711">
        <ele>2037</ele>
        <time>2018-12-27T17:30:16Z</time>
      </trkpt>
      <trkpt lat="42.78859" lon="-0.50715">
        <ele>2044</ele>
        <time>2018-12-27T17:30:20Z</time>
      </trkpt>
      <trkpt lat="42.78864" lon="-0.50715">
        <ele>2045</ele>
        <time>2018-12-27T17:30:22Z</time>
      </trkpt>
      <trkpt lat="42.78869" lon="-0.50713">
        <ele>2048</ele>
        <time>2018-12-27T17:30:23Z</time>
      </trkpt>
      <trkpt lat="42.78848" lon="-0.50702">
        <ele>2043</ele>
        <time>2018-12-27T17:30:29Z</time>
      </trkpt>
      <trkpt lat="42.78851" lon="-0.50697">
        <ele>2046</ele>
        <time>2018-12-27T17:30:30Z</time>
      </trkpt>
      <trkpt lat="42.78856" lon="-0.50696">
        <ele>2048</ele>
        <time>2018-12-27T17:30:32Z</time>
      </trkpt>
      <trkpt lat="42.78868" lon="-0.50695">
        <ele>2052</ele>
        <time>2018-12-27T17:30:35Z</time>
      </trkpt>
      <trkpt lat="42.78887" lon="-0.507">
        <ele>2056</ele>
        <time>2018-12-27T17:30:40Z</time>
      </trkpt>
      <trkpt lat="42.78908" lon="-0.50701">
        <ele>2064</ele>
        <time>2018-12-27T17:30:46Z</time>
      </trkpt>
      <trkpt lat="42.78914" lon="-0.50702">
        <ele>2067</ele>
        <time>2018-12-27T17:30:47Z</time>
      </trkpt>
      <trkpt lat="42.78911" lon="-0.50696">
        <ele>2067</ele>
        <time>2018-12-27T17:30:49Z</time>
      </trkpt>
      <trkpt lat="42.78899" lon="-0.50687">
        <ele>2062</ele>
        <time>2018-12-27T17:30:53Z</time>
      </trkpt>
      <trkpt lat="42.78904" lon="-0.50684">
        <ele>2065</ele>
        <time>2018-12-27T17:30:54Z</time>
      </trkpt>
      <trkpt lat="42.78924" lon="-0.50684">
        <ele>2074</ele>
        <time>2018-12-27T17:30:59Z</time>
      </trkpt>
      <trkpt lat="42.78929" lon="-0.50684">
        <ele>2077</ele>
        <time>2018-12-27T17:31:01Z</time>
      </trkpt>
      <trkpt lat="42.78933" lon="-0.50687">
        <ele>2079</ele>
        <time>2018-12-27T17:31:02Z</time>
      </trkpt>
      <trkpt lat="42.78939" lon="-0.50692">
        <ele>2082</ele>
        <time>2018-12-27T17:31:04Z</time>
      </trkpt>
      <trkpt lat="42.78947" lon="-0.50703">
        <ele>2086</ele>
        <time>2018-12-27T17:31:07Z</time>
      </trkpt>
      <trkpt lat="42.78958" lon="-0.50725">
        <ele>2092</ele>
        <time>2018-12-27T17:31:12Z</time>
      </trkpt>
      <trkpt lat="42.78962" lon="-0.50717">
        <ele>2095</ele>
        <time>2018-12-27T17:31:14Z</time>
      </trkpt>
      <trkpt lat="42.78961" lon="-0.50709">
        <ele>2094</ele>
        <time>2018-12-27T17:31:15Z</time>
      </trkpt>
      <trkpt lat="42.78962" lon="-0.50702">
        <ele>2095</ele>
        <time>2018-12-27T17:31:17Z</time>
      </trkpt>
      <trkpt lat="42.78973" lon="-0.50728">
        <ele>2102</ele>
        <time>2018-12-27T17:31:23Z</time>
      </trkpt>
      <trkpt lat="42.78974" lon="-0.50714">
        <ele>2102</ele>
        <time>2018-12-27T17:31:25Z</time>
      </trkpt>
      <trkpt lat="42.78971" lon="-0.50691">
        <ele>2099</ele>
        <time>2018-12-27T17:31:30Z</time>
      </trkpt>
      <trkpt lat="42.78976" lon="-0.50691">
        <ele>2102</ele>
        <time>2018-12-27T17:31:31Z</time>
      </trkpt>
      <trkpt lat="42.78988" lon="-0.50712">
        <ele>2109</ele>
        <time>2018-12-27T17:31:37Z</time>
      </trkpt>
      <trkpt lat="42.78993" lon="-0.50727">
        <ele>2114</ele>
        <time>2018-12-27T17:31:40Z</time>
      </trkpt>
      <trkpt lat="42.78983" lon="-0.50767">
        <ele>2106</ele>
        <time>2018-12-27T17:31:48Z</time>
      </trkpt>
      <trkpt lat="42.78983" lon="-0.50776">
        <ele>2106</ele>
        <time>2018-12-27T17:31:50Z</time>
      </trkpt>
      <trkpt lat="42.78986" lon="-0.50784">
        <ele>2105</ele>
        <time>2018-12-27T17:31:52Z</time>
      </trkpt>
      <trkpt lat="42.78996" lon="-0.50796">
        <ele>2106</ele>
        <time>2018-12-27T17:31:55Z</time>
      </trkpt>
      <trkpt lat="42.78997" lon="-0.5079">
        <ele>2108</ele>
        <time>2018-12-27T17:31:57Z</time>
      </trkpt>
      <trkpt lat="42.78997" lon="-0.50784">
        <ele>2109</ele>
        <time>2018-12-27T17:31:58Z</time>
      </trkpt>
      <trkpt lat="42.79" lon="-0.50769">
        <ele>2113</ele>
        <time>2018-12-27T17:32:01Z</time>
      </trkpt>
      <trkpt lat="42.79007" lon="-0.50749">
        <ele>2120</ele>
        <time>2018-12-27T17:32:05Z</time>
      </trkpt>
      <trkpt lat="42.79014" lon="-0.50726">
        <ele>2123</ele>
        <time>2018-12-27T17:32:10Z</time>
      </trkpt>
      <trkpt lat="42.79018" lon="-0.50732">
        <ele>2125</ele>
        <time>2018-12-27T17:32:12Z</time>
      </trkpt>
      <trkpt lat="42.7902" lon="-0.50762">
        <ele>2124</ele>
        <time>2018-12-27T17:32:17Z</time>
      </trkpt>
      <trkpt lat="42.79019" lon="-0.50779">
        <ele>2120</ele>
        <time>2018-12-27T17:32:21Z</time>
      </trkpt>
      <trkpt lat="42.79022" lon="-0.50794">
        <ele>2119</ele>
        <time>2018-12-27T17:32:24Z</time>
      </trkpt>
      <trkpt lat="42.79034" lon="-0.50817">
        <ele>2124</ele>
        <time>2018-12-27T17:32:29Z</time>
      </trkpt>
      <trkpt lat="42.7904" lon="-0.50831">
        <ele>2129</ele>
        <time>2018-12-27T17:32:33Z</time>
      </trkpt>
      <trkpt lat="42.79043" lon="-0.50838">
        <ele>2132</ele>
        <time>2018-12-27T17:32:34Z</time>
      </trkpt>
      <trkpt lat="42.79047" lon="-0.50828">
        <ele>2135</ele>
        <time>2018-12-27T17:32:37Z</time>
      </trkpt>
      <trkpt lat="42.79047" lon="-0.50819">
        <ele>2135</ele>
        <time>2018-12-27T17:32:38Z</time>
      </trkpt>
      <trkpt lat="42.79047" lon="-0.50796">
        <ele>2135</ele>
        <time>2018-12-27T17:32:43Z</time>
      </trkpt>
      <trkpt lat="42.79052" lon="-0.50807">
        <ele>2138</ele>
        <time>2018-12-27T17:32:45Z</time>
      </trkpt>
      <trkpt lat="42.79055" lon="-0.50814">
        <ele>2141</ele>
        <time>2018-12-27T17:32:47Z</time>
      </trkpt>
      <trkpt lat="42.79059" lon="-0.50839">
        <ele>2144</ele>
        <time>2018-12-27T17:32:52Z</time>
      </trkpt>
      <trkpt lat="42.7906" lon="-0.50857">
        <ele>2143</ele>
        <time>2018-12-27T17:32:55Z</time>
      </trkpt>
      <trkpt lat="42.79063" lon="-0.50865">
        <ele>2143</ele>
        <time>2018-12-27T17:32:57Z</time>
      </trkpt>
      <trkpt lat="42.79064" lon="-0.50872">
        <ele>2142</ele>
        <time>2018-12-27T17:32:59Z</time>
      </trkpt>
      <trkpt lat="42.79063" lon="-0.50879">
        <ele>2141</ele>
        <time>2018-12-27T17:33:00Z</time>
      </trkpt>
      <trkpt lat="42.79068" lon="-0.50882">
        <ele>2141</ele>
        <time>2018-12-27T17:33:01Z</time>
      </trkpt>
      <trkpt lat="42.79086" lon="-0.50863">
        <ele>2147</ele>
        <time>2018-12-27T17:33:08Z</time>
      </trkpt>
      <trkpt lat="42.79102" lon="-0.50839">
        <ele>2154</ele>
        <time>2018-12-27T17:33:14Z</time>
      </trkpt>
      <trkpt lat="42.79118" lon="-0.50805">
        <ele>2169</ele>
        <time>2018-12-27T17:33:22Z</time>
      </trkpt>
      <trkpt lat="42.79125" lon="-0.50778">
        <ele>2173</ele>
        <time>2018-12-27T17:33:27Z</time>
      </trkpt>
      <trkpt lat="42.79129" lon="-0.50768">
        <ele>2175</ele>
        <time>2018-12-27T17:33:30Z</time>
      </trkpt>
      <trkpt lat="42.79135" lon="-0.50747">
        <ele>2179</ele>
        <time>2018-12-27T17:33:34Z</time>
      </trkpt>
      <trkpt lat="42.79139" lon="-0.50742">
        <ele>2181</ele>
        <time>2018-12-27T17:33:35Z</time>
      </trkpt>
      <trkpt lat="42.79148" lon="-0.50722">
        <ele>2191</ele>
        <time>2018-12-27T17:33:40Z</time>
      </trkpt>
      <trkpt lat="42.79154" lon="-0.50715">
        <ele>2196</ele>
        <time>2018-12-27T17:33:42Z</time>
      </trkpt>
      <trkpt lat="42.79163" lon="-0.50701">
        <ele>2203</ele>
        <time>2018-12-27T17:33:46Z</time>
      </trkpt>
      <trkpt lat="42.79169" lon="-0.50698">
        <ele>2207</ele>
        <time>2018-12-27T17:33:47Z</time>
      </trkpt>
      <trkpt lat="42.79178" lon="-0.50688">
        <ele>2212</ele>
        <time>2018-12-27T17:33:51Z</time>
      </trkpt>
      <trkpt lat="42.7918" lon="-0.50682">
        <ele>2215</ele>
        <time>2018-12-27T17:33:52Z</time>
      </trkpt>
      <trkpt lat="42.79189" lon="-0.50674">
        <ele>2220</ele>
        <time>2018-12-27T17:33:55Z</time>
      </trkpt>
      <trkpt lat="42.79201" lon="-0.50656">
        <ele>2227</ele>
        <time>2018-12-27T17:33:59Z</time>
      </trkpt>
      <trkpt lat="42.79204" lon="-0.50646">
        <ele>2230</ele>
        <time>2018-12-27T17:34:02Z</time>
      </trkpt>
      <trkpt lat="42.79211" lon="-0.50628">
        <ele>2235</ele>
        <time>2018-12-27T17:34:06Z</time>
      </trkpt>
      <trkpt lat="42.79225" lon="-0.50618">
        <ele>2244</ele>
        <time>2018-12-27T17:34:10Z</time>
      </trkpt>
      <trkpt lat="42.79231" lon="-0.5061">
        <ele>2247</ele>
        <time>2018-12-27T17:34:12Z</time>
      </trkpt>
      <trkpt lat="42.79233" lon="-0.50593">
        <ele>2252</ele>
        <time>2018-12-27T17:34:16Z</time>
      </trkpt>
      <trkpt lat="42.79235" lon="-0.50587">
        <ele>2254</ele>
        <time>2018-12-27T17:34:17Z</time>
      </trkpt>
      <trkpt lat="42.79238" lon="-0.50582">
        <ele>2255</ele>
        <time>2018-12-27T17:34:18Z</time>
      </trkpt>
      <trkpt lat="42.79244" lon="-0.50578">
        <ele>2258</ele>
        <time>2018-12-27T17:34:20Z</time>
      </trkpt>
      <trkpt lat="42.79268" lon="-0.50572">
        <ele>2262</ele>
        <time>2018-12-27T17:34:26Z</time>
      </trkpt>
      <trkpt lat="42.79306" lon="-0.50557">
        <ele>2264</ele>
        <time>2018-12-27T17:34:37Z</time>
      </trkpt>
      <trkpt lat="42.79332" lon="-0.50534">
        <ele>2269</ele>
        <time>2018-12-27T17:34:45Z</time>
      </trkpt>
      <trkpt lat="42.79337" lon="-0.50532">
        <ele>2269</ele>
        <time>2018-12-27T17:34:46Z</time>
      </trkpt>
      <trkpt lat="42.79355" lon="-0.5052">
        <ele>2268</ele>
        <time>2018-12-27T17:34:52Z</time>
      </trkpt>
      <trkpt lat="42.79372" lon="-0.5049">
        <ele>2271</ele>
        <time>2018-12-27T17:34:59Z</time>
      </trkpt>
      <trkpt lat="42.79377" lon="-0.50484">
        <ele>2271</ele>
        <time>2018-12-27T17:35:01Z</time>
      </trkpt>
      <trkpt lat="42.79397" lon="-0.50471">
        <ele>2272</ele>
        <time>2018-12-27T17:35:07Z</time>
      </trkpt>
      <trkpt lat="42.79406" lon="-0.5046">
        <ele>2271</ele>
        <time>2018-12-27T17:35:10Z</time>
      </trkpt>
      <trkpt lat="42.79411" lon="-0.50457">
        <ele>2271</ele>
        <time>2018-12-27T17:35:11Z</time>
      </trkpt>
      <trkpt lat="42.79417" lon="-0.50455">
        <ele>2270</ele>
        <time>2018-12-27T17:35:13Z</time>
      </trkpt>
      <trkpt lat="42.79423" lon="-0.50452">
        <ele>2268</ele>
        <time>2018-12-27T17:35:15Z</time>
      </trkpt>
      <trkpt lat="42.79431" lon="-0.50443">
        <ele>2266</ele>
        <time>2018-12-27T17:35:18Z</time>
      </trkpt>
      <trkpt lat="42.79434" lon="-0.50435">
        <ele>2264</ele>
        <time>2018-12-27T17:35:19Z</time>
      </trkpt>
      <trkpt lat="42.79433" lon="-0.50427">
        <ele>2263</ele>
        <time>2018-12-27T17:35:21Z</time>
      </trkpt>
      <trkpt lat="42.7943" lon="-0.50413">
        <ele>2261</ele>
        <time>2018-12-27T17:35:24Z</time>
      </trkpt>
      <trkpt lat="42.79429" lon="-0.504">
        <ele>2257</ele>
        <time>2018-12-27T17:35:26Z</time>
      </trkpt>
      <trkpt lat="42.79427" lon="-0.50392">
        <ele>2255</ele>
        <time>2018-12-27T17:35:28Z</time>
      </trkpt>
      <trkpt lat="42.79426" lon="-0.50383">
        <ele>2253</ele>
        <time>2018-12-27T17:35:30Z</time>
      </trkpt>
      <trkpt lat="42.79432" lon="-0.50354">
        <ele>2248</ele>
        <time>2018-12-27T17:35:36Z</time>
      </trkpt>
      <trkpt lat="42.79437" lon="-0.50344">
        <ele>2248</ele>
        <time>2018-12-27T17:35:38Z</time>
      </trkpt>
      <trkpt lat="42.79436" lon="-0.50322">
        <ele>2247</ele>
        <time>2018-12-27T17:35:42Z</time>
      </trkpt>
      <trkpt lat="42.79443" lon="-0.50293">
        <ele>2253</ele>
        <time>2018-12-27T17:35:48Z</time>
      </trkpt>
      <trkpt lat="42.79444" lon="-0.50271">
        <ele>2255</ele>
        <time>2018-12-27T17:35:53Z</time>
      </trkpt>
      <trkpt lat="42.7945" lon="-0.50252">
        <ele>2252</ele>
        <time>2018-12-27T17:35:57Z</time>
      </trkpt>
      <trkpt lat="42.79467" lon="-0.50233">
        <ele>2250</ele>
        <time>2018-12-27T17:36:03Z</time>
      </trkpt>
      <trkpt lat="42.79483" lon="-0.50176">
        <ele>2241</ele>
        <time>2018-12-27T17:36:14Z</time>
      </trkpt>
      <trkpt lat="42.79486" lon="-0.50171">
        <ele>2240</ele>
        <time>2018-12-27T17:36:16Z</time>
      </trkpt>
      <trkpt lat="42.79491" lon="-0.50168">
        <ele>2239</ele>
        <time>2018-12-27T17:36:17Z</time>
      </trkpt>
      <trkpt lat="42.79495" lon="-0.50152">
        <ele>2236</ele>
        <time>2018-12-27T17:36:20Z</time>
      </trkpt>
      <trkpt lat="42.79494" lon="-0.50131">
        <ele>2231</ele>
        <time>2018-12-27T17:36:25Z</time>
      </trkpt>
      <trkpt lat="42.79496" lon="-0.50123">
        <ele>2231</ele>
        <time>2018-12-27T17:36:26Z</time>
      </trkpt>
      <trkpt lat="42.79494" lon="-0.50113">
        <ele>2228</ele>
        <time>2018-12-27T17:36:28Z</time>
      </trkpt>
      <trkpt lat="42.79497" lon="-0.50098">
        <ele>2226</ele>
        <time>2018-12-27T17:36:31Z</time>
      </trkpt>
      <trkpt lat="42.795" lon="-0.5007">
        <ele>2225</ele>
        <time>2018-12-27T17:36:37Z</time>
      </trkpt>
      <trkpt lat="42.79506" lon="-0.50026">
        <ele>2213</ele>
        <time>2018-12-27T17:36:46Z</time>
      </trkpt>
      <trkpt lat="42.79519" lon="-0.49997">
        <ele>2207</ele>
        <time>2018-12-27T17:36:52Z</time>
      </trkpt>
      <trkpt lat="42.79525" lon="-0.49977">
        <ele>2206</ele>
        <time>2018-12-27T17:36:56Z</time>
      </trkpt>
      <trkpt lat="42.79531" lon="-0.49946">
        <ele>2206</ele>
        <time>2018-12-27T17:37:03Z</time>
      </trkpt>
      <trkpt lat="42.79541" lon="-0.49926">
        <ele>2202</ele>
        <time>2018-12-27T17:37:08Z</time>
      </trkpt>
      <trkpt lat="42.79547" lon="-0.4989">
        <ele>2203</ele>
        <time>2018-12-27T17:37:15Z</time>
      </trkpt>
      <trkpt lat="42.79553" lon="-0.49878">
        <ele>2204</ele>
        <time>2018-12-27T17:37:18Z</time>
      </trkpt>
      <trkpt lat="42.79558" lon="-0.49875">
        <ele>2204</ele>
        <time>2018-12-27T17:37:19Z</time>
      </trkpt>
      <trkpt lat="42.79563" lon="-0.49855">
        <ele>2201</ele>
        <time>2018-12-27T17:37:23Z</time>
      </trkpt>
      <trkpt lat="42.79568" lon="-0.49853">
        <ele>2199</ele>
        <time>2018-12-27T17:37:25Z</time>
      </trkpt>
      <trkpt lat="42.79572" lon="-0.49848">
        <ele>2198</ele>
        <time>2018-12-27T17:37:26Z</time>
      </trkpt>
      <trkpt lat="42.79595" lon="-0.49795">
        <ele>2193</ele>
        <time>2018-12-27T17:37:38Z</time>
      </trkpt>
      <trkpt lat="42.79611" lon="-0.49763">
        <ele>2192</ele>
        <time>2018-12-27T17:37:46Z</time>
      </trkpt>
      <trkpt lat="42.79629" lon="-0.49748">
        <ele>2191</ele>
        <time>2018-12-27T17:37:51Z</time>
      </trkpt>
      <trkpt lat="42.79638" lon="-0.49737">
        <ele>2192</ele>
        <time>2018-12-27T17:37:54Z</time>
      </trkpt>
      <trkpt lat="42.79645" lon="-0.49709">
        <ele>2193</ele>
        <time>2018-12-27T17:38:00Z</time>
      </trkpt>
      <trkpt lat="42.79653" lon="-0.497">
        <ele>2192</ele>
        <time>2018-12-27T17:38:03Z</time>
      </trkpt>
      <trkpt lat="42.79656" lon="-0.49684">
        <ele>2193</ele>
        <time>2018-12-27T17:38:06Z</time>
      </trkpt>
      <trkpt lat="42.79657" lon="-0.49669">
        <ele>2194</ele>
        <time>2018-12-27T17:38:09Z</time>
      </trkpt>
      <trkpt lat="42.79665" lon="-0.4965">
        <ele>2197</ele>
        <time>2018-12-27T17:38:13Z</time>
      </trkpt>
      <trkpt lat="42.7967" lon="-0.4963">
        <ele>2199</ele>
        <time>2018-12-27T17:38:18Z</time>
      </trkpt>
      <trkpt lat="42.79671" lon="-0.49614">
        <ele>2201</ele>
        <time>2018-12-27T17:38:21Z</time>
      </trkpt>
      <trkpt lat="42.79675" lon="-0.49601">
        <ele>2203</ele>
        <time>2018-12-27T17:38:23Z</time>
      </trkpt>
      <trkpt lat="42.7968" lon="-0.49589">
        <ele>2204</ele>
        <time>2018-12-27T17:38:26Z</time>
      </trkpt>
      <trkpt lat="42.79688" lon="-0.49559">
        <ele>2205</ele>
        <time>2018-12-27T17:38:32Z</time>
      </trkpt>
      <trkpt lat="42.79705" lon="-0.49535">
        <ele>2205</ele>
        <time>2018-12-27T17:38:39Z</time>
      </trkpt>
      <trkpt lat="42.7972" lon="-0.49521">
        <ele>2205</ele>
        <time>2018-12-27T17:38:44Z</time>
      </trkpt>
      <trkpt lat="42.79736" lon="-0.49503">
        <ele>2208</ele>
        <time>2018-12-27T17:38:49Z</time>
      </trkpt>
      <trkpt lat="42.7974" lon="-0.49498">
        <ele>2209</ele>
        <time>2018-12-27T17:38:51Z</time>
      </trkpt>
      <trkpt lat="42.79739" lon="-0.49446">
        <ele>2220</ele>
        <time>2018-12-27T17:39:01Z</time>
      </trkpt>
      <trkpt lat="42.79737" lon="-0.4943">
        <ele>2216</ele>
        <time>2018-12-27T17:39:04Z</time>
      </trkpt>
      <trkpt lat="42.79729" lon="-0.49404">
        <ele>2210</ele>
        <time>2018-12-27T17:39:10Z</time>
      </trkpt>
      <trkpt lat="42.79728" lon="-0.49395">
        <ele>2207</ele>
        <time>2018-12-27T17:39:11Z</time>
      </trkpt>
      <trkpt lat="42.79728" lon="-0.49382">
        <ele>2203</ele>
        <time>2018-12-27T17:39:14Z</time>
      </trkpt>
      <trkpt lat="42.79735" lon="-0.49352">
        <ele>2196</ele>
        <time>2018-12-27T17:39:20Z</time>
      </trkpt>
      <trkpt lat="42.79742" lon="-0.4933">
        <ele>2192</ele>
        <time>2018-12-27T17:39:25Z</time>
      </trkpt>
      <trkpt lat="42.79743" lon="-0.49322">
        <ele>2187</ele>
        <time>2018-12-27T17:39:26Z</time>
      </trkpt>
      <trkpt lat="42.79742" lon="-0.49305">
        <ele>2179</ele>
        <time>2018-12-27T17:39:30Z</time>
      </trkpt>
      <trkpt lat="42.7974" lon="-0.49297">
        <ele>2178</ele>
        <time>2018-12-27T17:39:31Z</time>
      </trkpt>
      <trkpt lat="42.79746" lon="-0.49277">
        <ele>2174</ele>
        <time>2018-12-27T17:39:36Z</time>
      </trkpt>
      <trkpt lat="42.79752" lon="-0.49277">
        <ele>2173</ele>
        <time>2018-12-27T17:39:37Z</time>
      </trkpt>
      <trkpt lat="42.79754" lon="-0.49262">
        <ele>2173</ele>
        <time>2018-12-27T17:39:40Z</time>
      </trkpt>
      <trkpt lat="42.79753" lon="-0.49256">
        <ele>2173</ele>
        <time>2018-12-27T17:39:41Z</time>
      </trkpt>
      <trkpt lat="42.79756" lon="-0.49243">
        <ele>2172</ele>
        <time>2018-12-27T17:39:44Z</time>
      </trkpt>
      <trkpt lat="42.79766" lon="-0.49224">
        <ele>2167</ele>
        <time>2018-12-27T17:39:49Z</time>
      </trkpt>
      <trkpt lat="42.79793" lon="-0.49151">
        <ele>2153</ele>
        <time>2018-12-27T17:40:05Z</time>
      </trkpt>
      <trkpt lat="42.79804" lon="-0.49126">
        <ele>2149</ele>
        <time>2018-12-27T17:40:10Z</time>
      </trkpt>
      <trkpt lat="42.79818" lon="-0.49112">
        <ele>2147</ele>
        <time>2018-12-27T17:40:15Z</time>
      </trkpt>
      <trkpt lat="42.79826" lon="-0.49095">
        <ele>2145</ele>
        <time>2018-12-27T17:40:19Z</time>
      </trkpt>
      <trkpt lat="42.79834" lon="-0.49084">
        <ele>2143</ele>
        <time>2018-12-27T17:40:22Z</time>
      </trkpt>
      <trkpt lat="42.79842" lon="-0.49077">
        <ele>2142</ele>
        <time>2018-12-27T17:40:24Z</time>
      </trkpt>
      <trkpt lat="42.79852" lon="-0.49063">
        <ele>2140</ele>
        <time>2018-12-27T17:40:28Z</time>
      </trkpt>
      <trkpt lat="42.79868" lon="-0.49053">
        <ele>2138</ele>
        <time>2018-12-27T17:40:33Z</time>
      </trkpt>
      <trkpt lat="42.7988" lon="-0.49032">
        <ele>2133</ele>
        <time>2018-12-27T17:40:38Z</time>
      </trkpt>
      <trkpt lat="42.79896" lon="-0.49017">
        <ele>2128</ele>
        <time>2018-12-27T17:40:43Z</time>
      </trkpt>
      <trkpt lat="42.799" lon="-0.4901">
        <ele>2126</ele>
        <time>2018-12-27T17:40:45Z</time>
      </trkpt>
      <trkpt lat="42.79904" lon="-0.49006">
        <ele>2125</ele>
        <time>2018-12-27T17:40:46Z</time>
      </trkpt>
      <trkpt lat="42.7991" lon="-0.49011">
        <ele>2123</ele>
        <time>2018-12-27T17:40:48Z</time>
      </trkpt>
      <trkpt lat="42.79915" lon="-0.49008">
        <ele>2122</ele>
        <time>2018-12-27T17:40:50Z</time>
      </trkpt>
      <trkpt lat="42.79918" lon="-0.48993">
        <ele>2120</ele>
        <time>2018-12-27T17:40:53Z</time>
      </trkpt>
      <trkpt lat="42.79918" lon="-0.48985">
        <ele>2120</ele>
        <time>2018-12-27T17:40:54Z</time>
      </trkpt>
      <trkpt lat="42.7992" lon="-0.48978">
        <ele>2119</ele>
        <time>2018-12-27T17:40:56Z</time>
      </trkpt>
      <trkpt lat="42.79925" lon="-0.48973">
        <ele>2117</ele>
        <time>2018-12-27T17:40:57Z</time>
      </trkpt>
      <trkpt lat="42.79935" lon="-0.48967">
        <ele>2112</ele>
        <time>2018-12-27T17:41:00Z</time>
      </trkpt>
      <trkpt lat="42.79944" lon="-0.4896">
        <ele>2109</ele>
        <time>2018-12-27T17:41:03Z</time>
      </trkpt>
      <trkpt lat="42.79978" lon="-0.48928">
        <ele>2101</ele>
        <time>2018-12-27T17:41:14Z</time>
      </trkpt>
      <trkpt lat="42.79993" lon="-0.48918">
        <ele>2100</ele>
        <time>2018-12-27T17:41:19Z</time>
      </trkpt>
      <trkpt lat="42.8" lon="-0.4891">
        <ele>2100</ele>
        <time>2018-12-27T17:41:21Z</time>
      </trkpt>
      <trkpt lat="42.80014" lon="-0.48899">
        <ele>2103</ele>
        <time>2018-12-27T17:41:25Z</time>
      </trkpt>
      <trkpt lat="42.80023" lon="-0.48888">
        <ele>2106</ele>
        <time>2018-12-27T17:41:28Z</time>
      </trkpt>
      <trkpt lat="42.80032" lon="-0.48882">
        <ele>2109</ele>
        <time>2018-12-27T17:41:31Z</time>
      </trkpt>
      <trkpt lat="42.80037" lon="-0.48877">
        <ele>2110</ele>
        <time>2018-12-27T17:41:33Z</time>
      </trkpt>
      <trkpt lat="42.80046" lon="-0.48862">
        <ele>2114</ele>
        <time>2018-12-27T17:41:37Z</time>
      </trkpt>
      <trkpt lat="42.80051" lon="-0.48857">
        <ele>2116</ele>
        <time>2018-12-27T17:41:38Z</time>
      </trkpt>
      <trkpt lat="42.80057" lon="-0.48855">
        <ele>2117</ele>
        <time>2018-12-27T17:41:40Z</time>
      </trkpt>
      <trkpt lat="42.80069" lon="-0.48841">
        <ele>2117</ele>
        <time>2018-12-27T17:41:44Z</time>
      </trkpt>
      <trkpt lat="42.80086" lon="-0.48827">
        <ele>2121</ele>
        <time>2018-12-27T17:41:49Z</time>
      </trkpt>
      <trkpt lat="42.80092" lon="-0.48814">
        <ele>2125</ele>
        <time>2018-12-27T17:41:52Z</time>
      </trkpt>
      <trkpt lat="42.80096" lon="-0.48798">
        <ele>2127</ele>
        <time>2018-12-27T17:41:56Z</time>
      </trkpt>
      <trkpt lat="42.80099" lon="-0.48794">
        <ele>2128</ele>
        <time>2018-12-27T17:41:57Z</time>
      </trkpt>
      <trkpt lat="42.80106" lon="-0.4877">
        <ele>2128</ele>
        <time>2018-12-27T17:42:02Z</time>
      </trkpt>
      <trkpt lat="42.80107" lon="-0.48756">
        <ele>2125</ele>
        <time>2018-12-27T17:42:05Z</time>
      </trkpt>
      <trkpt lat="42.80115" lon="-0.48736">
        <ele>2122</ele>
        <time>2018-12-27T17:42:09Z</time>
      </trkpt>
      <trkpt lat="42.8013" lon="-0.48717">
        <ele>2119</ele>
        <time>2018-12-27T17:42:15Z</time>
      </trkpt>
      <trkpt lat="42.80156" lon="-0.48697">
        <ele>2116</ele>
        <time>2018-12-27T17:42:22Z</time>
      </trkpt>
      <trkpt lat="42.80165" lon="-0.48688">
        <ele>2115</ele>
        <time>2018-12-27T17:42:25Z</time>
      </trkpt>
      <trkpt lat="42.80189" lon="-0.48652">
        <ele>2108</ele>
        <time>2018-12-27T17:42:35Z</time>
      </trkpt>
      <trkpt lat="42.80196" lon="-0.48642">
        <ele>2107</ele>
        <time>2018-12-27T17:42:38Z</time>
      </trkpt>
      <trkpt lat="42.80205" lon="-0.48635">
        <ele>2106</ele>
        <time>2018-12-27T17:42:40Z</time>
      </trkpt>
      <trkpt lat="42.80224" lon="-0.48611">
        <ele>2103</ele>
        <time>2018-12-27T17:42:47Z</time>
      </trkpt>
      <trkpt lat="42.80229" lon="-0.48593">
        <ele>2102</ele>
        <time>2018-12-27T17:42:51Z</time>
      </trkpt>
      <trkpt lat="42.80233" lon="-0.48568">
        <ele>2104</ele>
        <time>2018-12-27T17:42:56Z</time>
      </trkpt>
      <trkpt lat="42.80238" lon="-0.48552">
        <ele>2107</ele>
        <time>2018-12-27T17:42:59Z</time>
      </trkpt>
      <trkpt lat="42.80252" lon="-0.4852">
        <ele>2114</ele>
        <time>2018-12-27T17:43:07Z</time>
      </trkpt>
      <trkpt lat="42.80271" lon="-0.48492">
        <ele>2116</ele>
        <time>2018-12-27T17:43:14Z</time>
      </trkpt>
      <trkpt lat="42.80278" lon="-0.48479">
        <ele>2117</ele>
        <time>2018-12-27T17:43:17Z</time>
      </trkpt>
      <trkpt lat="42.80293" lon="-0.48443">
        <ele>2117</ele>
        <time>2018-12-27T17:43:26Z</time>
      </trkpt>
      <trkpt lat="42.80299" lon="-0.4842">
        <ele>2119</ele>
        <time>2018-12-27T17:43:30Z</time>
      </trkpt>
      <trkpt lat="42.80304" lon="-0.48417">
        <ele>2119</ele>
        <time>2018-12-27T17:43:32Z</time>
      </trkpt>
      <trkpt lat="42.80308" lon="-0.48389">
        <ele>2121</ele>
        <time>2018-12-27T17:43:37Z</time>
      </trkpt>
      <trkpt lat="42.80324" lon="-0.48344">
        <ele>2122</ele>
        <time>2018-12-27T17:43:47Z</time>
      </trkpt>
      <trkpt lat="42.80327" lon="-0.48337">
        <ele>2124</ele>
        <time>2018-12-27T17:43:49Z</time>
      </trkpt>
      <trkpt lat="42.80344" lon="-0.48311">
        <ele>2128</ele>
        <time>2018-12-27T17:43:55Z</time>
      </trkpt>
      <trkpt lat="42.80355" lon="-0.48304">
        <ele>2132</ele>
        <time>2018-12-27T17:43:59Z</time>
      </trkpt>
      <trkpt lat="42.80361" lon="-0.48304">
        <ele>2134</ele>
        <time>2018-12-27T17:44:00Z</time>
      </trkpt>
      <trkpt lat="42.8037" lon="-0.483">
        <ele>2137</ele>
        <time>2018-12-27T17:44:03Z</time>
      </trkpt>
      <trkpt lat="42.80383" lon="-0.48299">
        <ele>2142</ele>
        <time>2018-12-27T17:44:06Z</time>
      </trkpt>
      <trkpt lat="42.80399" lon="-0.48295">
        <ele>2149</ele>
        <time>2018-12-27T17:44:11Z</time>
      </trkpt>
      <trkpt lat="42.80412" lon="-0.48296">
        <ele>2153</ele>
        <time>2018-12-27T17:44:14Z</time>
      </trkpt>
      <trkpt lat="42.80424" lon="-0.48292">
        <ele>2157</ele>
        <time>2018-12-27T17:44:17Z</time>
      </trkpt>
      <trkpt lat="42.80435" lon="-0.48291">
        <ele>2159</ele>
        <time>2018-12-27T17:44:20Z</time>
      </trkpt>
      <trkpt lat="42.80446" lon="-0.48288">
        <ele>2163</ele>
        <time>2018-12-27T17:44:23Z</time>
      </trkpt>
      <trkpt lat="42.80452" lon="-0.48288">
        <ele>2164</ele>
        <time>2018-12-27T17:44:25Z</time>
      </trkpt>
      <trkpt lat="42.80459" lon="-0.48285">
        <ele>2167</ele>
        <time>2018-12-27T17:44:27Z</time>
      </trkpt>
      <trkpt lat="42.80464" lon="-0.48285">
        <ele>2168</ele>
        <time>2018-12-27T17:44:28Z</time>
      </trkpt>
      <trkpt lat="42.8047" lon="-0.48282">
        <ele>2170</ele>
        <time>2018-12-27T17:44:30Z</time>
      </trkpt>
      <trkpt lat="42.80482" lon="-0.48286">
        <ele>2173</ele>
        <time>2018-12-27T17:44:33Z</time>
      </trkpt>
      <trkpt lat="42.80495" lon="-0.48293">
        <ele>2176</ele>
        <time>2018-12-27T17:44:37Z</time>
      </trkpt>
      <trkpt lat="42.80524" lon="-0.48292">
        <ele>2182</ele>
        <time>2018-12-27T17:44:45Z</time>
      </trkpt>
      <trkpt lat="42.80535" lon="-0.48294">
        <ele>2181</ele>
        <time>2018-12-27T17:44:48Z</time>
      </trkpt>
      <trkpt lat="42.80541" lon="-0.48296">
        <ele>2180</ele>
        <time>2018-12-27T17:44:49Z</time>
      </trkpt>
      <trkpt lat="42.80552" lon="-0.48303">
        <ele>2177</ele>
        <time>2018-12-27T17:44:53Z</time>
      </trkpt>
      <trkpt lat="42.80557" lon="-0.483">
        <ele>2177</ele>
        <time>2018-12-27T17:44:54Z</time>
      </trkpt>
      <trkpt lat="42.80567" lon="-0.48297">
        <ele>2176</ele>
        <time>2018-12-27T17:44:57Z</time>
      </trkpt>
      <trkpt lat="42.80574" lon="-0.48297">
        <ele>2175</ele>
        <time>2018-12-27T17:44:59Z</time>
      </trkpt>
      <trkpt lat="42.80585" lon="-0.483">
        <ele>2173</ele>
        <time>2018-12-27T17:45:02Z</time>
      </trkpt>
      <trkpt lat="42.80598" lon="-0.48299">
        <ele>2172</ele>
        <time>2018-12-27T17:45:05Z</time>
      </trkpt>
      <trkpt lat="42.80608" lon="-0.48295">
        <ele>2174</ele>
        <time>2018-12-27T17:45:08Z</time>
      </trkpt>
      <trkpt lat="42.80622" lon="-0.48279">
        <ele>2184</ele>
        <time>2018-12-27T17:45:13Z</time>
      </trkpt>
      <trkpt lat="42.80638" lon="-0.48249">
        <ele>2197</ele>
        <time>2018-12-27T17:45:20Z</time>
      </trkpt>
      <trkpt lat="42.80653" lon="-0.48235">
        <ele>2195</ele>
        <time>2018-12-27T17:45:25Z</time>
      </trkpt>
      <trkpt lat="42.80665" lon="-0.48219">
        <ele>2197</ele>
        <time>2018-12-27T17:45:29Z</time>
      </trkpt>
      <trkpt lat="42.80676" lon="-0.48196">
        <ele>2205</ele>
        <time>2018-12-27T17:45:35Z</time>
      </trkpt>
      <trkpt lat="42.8068" lon="-0.48184">
        <ele>2207</ele>
        <time>2018-12-27T17:45:37Z</time>
      </trkpt>
      <trkpt lat="42.80683" lon="-0.48178">
        <ele>2209</ele>
        <time>2018-12-27T17:45:39Z</time>
      </trkpt>
      <trkpt lat="42.80697" lon="-0.48144">
        <ele>2212</ele>
        <time>2018-12-27T17:45:46Z</time>
      </trkpt>
      <trkpt lat="42.80704" lon="-0.48133">
        <ele>2212</ele>
        <time>2018-12-27T17:45:49Z</time>
      </trkpt>
      <trkpt lat="42.80714" lon="-0.48122">
        <ele>2212</ele>
        <time>2018-12-27T17:45:53Z</time>
      </trkpt>
      <trkpt lat="42.80724" lon="-0.48093">
        <ele>2211</ele>
        <time>2018-12-27T17:45:59Z</time>
      </trkpt>
      <trkpt lat="42.80729" lon="-0.48085">
        <ele>2210</ele>
        <time>2018-12-27T17:46:01Z</time>
      </trkpt>
      <trkpt lat="42.80753" lon="-0.48065">
        <ele>2203</ele>
        <time>2018-12-27T17:46:08Z</time>
      </trkpt>
      <trkpt lat="42.80772" lon="-0.48038">
        <ele>2198</ele>
        <time>2018-12-27T17:46:16Z</time>
      </trkpt>
      <trkpt lat="42.80778" lon="-0.48034">
        <ele>2198</ele>
        <time>2018-12-27T17:46:18Z</time>
      </trkpt>
      <trkpt lat="42.80797" lon="-0.48026">
        <ele>2201</ele>
        <time>2018-12-27T17:46:23Z</time>
      </trkpt>
      <trkpt lat="42.80819" lon="-0.48001">
        <ele>2210</ele>
        <time>2018-12-27T17:46:31Z</time>
      </trkpt>
      <trkpt lat="42.80847" lon="-0.47987">
        <ele>2221</ele>
        <time>2018-12-27T17:46:38Z</time>
      </trkpt>
      <trkpt lat="42.80857" lon="-0.47985">
        <ele>2224</ele>
        <time>2018-12-27T17:46:41Z</time>
      </trkpt>
      <trkpt lat="42.80862" lon="-0.47982">
        <ele>2227</ele>
        <time>2018-12-27T17:46:43Z</time>
      </trkpt>
      <trkpt lat="42.80868" lon="-0.4798">
        <ele>2228</ele>
        <time>2018-12-27T17:46:44Z</time>
      </trkpt>
      <trkpt lat="42.80872" lon="-0.47975">
        <ele>2230</ele>
        <time>2018-12-27T17:46:46Z</time>
      </trkpt>
      <trkpt lat="42.80878" lon="-0.47972">
        <ele>2232</ele>
        <time>2018-12-27T17:46:47Z</time>
      </trkpt>
      <trkpt lat="42.80883" lon="-0.47966">
        <ele>2234</ele>
        <time>2018-12-27T17:46:49Z</time>
      </trkpt>
      <trkpt lat="42.80893" lon="-0.4796">
        <ele>2236</ele>
        <time>2018-12-27T17:46:52Z</time>
      </trkpt>
      <trkpt lat="42.80898" lon="-0.47956">
        <ele>2237</ele>
        <time>2018-12-27T17:46:54Z</time>
      </trkpt>
      <trkpt lat="42.80895" lon="-0.47951">
        <ele>2239</ele>
        <time>2018-12-27T17:46:55Z</time>
      </trkpt>
      <trkpt lat="42.80897" lon="-0.47936">
        <ele>2241</ele>
        <time>2018-12-27T17:46:58Z</time>
      </trkpt>
      <trkpt lat="42.80897" lon="-0.4792">
        <ele>2241</ele>
        <time>2018-12-27T17:47:01Z</time>
      </trkpt>
      <trkpt lat="42.80899" lon="-0.47904">
        <ele>2240</ele>
        <time>2018-12-27T17:47:04Z</time>
      </trkpt>
      <trkpt lat="42.80903" lon="-0.47884">
        <ele>2240</ele>
        <time>2018-12-27T17:47:08Z</time>
      </trkpt>
      <trkpt lat="42.80928" lon="-0.47834">
        <ele>2246</ele>
        <time>2018-12-27T17:47:20Z</time>
      </trkpt>
      <trkpt lat="42.80939" lon="-0.47818">
        <ele>2248</ele>
        <time>2018-12-27T17:47:24Z</time>
      </trkpt>
      <trkpt lat="42.80944" lon="-0.47814">
        <ele>2249</ele>
        <time>2018-12-27T17:47:26Z</time>
      </trkpt>
      <trkpt lat="42.8095" lon="-0.47813">
        <ele>2248</ele>
        <time>2018-12-27T17:47:28Z</time>
      </trkpt>
      <trkpt lat="42.80965" lon="-0.47816">
        <ele>2243</ele>
        <time>2018-12-27T17:47:32Z</time>
      </trkpt>
      <trkpt lat="42.80992" lon="-0.47824">
        <ele>2238</ele>
        <time>2018-12-27T17:47:39Z</time>
      </trkpt>
      <trkpt lat="42.81007" lon="-0.47824">
        <ele>2234</ele>
        <time>2018-12-27T17:47:43Z</time>
      </trkpt>
      <trkpt lat="42.81011" lon="-0.47841">
        <ele>2229</ele>
        <time>2018-12-27T17:47:47Z</time>
      </trkpt>
      <trkpt lat="42.81017" lon="-0.4784">
        <ele>2226</ele>
        <time>2018-12-27T17:47:48Z</time>
      </trkpt>
      <trkpt lat="42.81022" lon="-0.47837">
        <ele>2224</ele>
        <time>2018-12-27T17:47:50Z</time>
      </trkpt>
      <trkpt lat="42.81027" lon="-0.47837">
        <ele>2221</ele>
        <time>2018-12-27T17:47:51Z</time>
      </trkpt>
      <trkpt lat="42.81034" lon="-0.47847">
        <ele>2218</ele>
        <time>2018-12-27T17:47:54Z</time>
      </trkpt>
      <trkpt lat="42.8104" lon="-0.47844">
        <ele>2216</ele>
        <time>2018-12-27T17:47:55Z</time>
      </trkpt>
      <trkpt lat="42.81048" lon="-0.47852">
        <ele>2213</ele>
        <time>2018-12-27T17:47:58Z</time>
      </trkpt>
      <trkpt lat="42.81061" lon="-0.47852">
        <ele>2211</ele>
        <time>2018-12-27T17:48:01Z</time>
      </trkpt>
      <trkpt lat="42.81077" lon="-0.47861">
        <ele>2209</ele>
        <time>2018-12-27T17:48:06Z</time>
      </trkpt>
      <trkpt lat="42.81087" lon="-0.47865">
        <ele>2208</ele>
        <time>2018-12-27T17:48:09Z</time>
      </trkpt>
      <trkpt lat="42.81097" lon="-0.47867">
        <ele>2207</ele>
        <time>2018-12-27T17:48:12Z</time>
      </trkpt>
      <trkpt lat="42.81101" lon="-0.47871">
        <ele>2205</ele>
        <time>2018-12-27T17:48:13Z</time>
      </trkpt>
      <trkpt lat="42.81108" lon="-0.47871">
        <ele>2205</ele>
        <time>2018-12-27T17:48:15Z</time>
      </trkpt>
      <trkpt lat="42.81112" lon="-0.47872">
        <ele>2204</ele>
        <time>2018-12-27T17:48:16Z</time>
      </trkpt>
      <trkpt lat="42.81116" lon="-0.47876">
        <ele>2202</ele>
        <time>2018-12-27T17:48:17Z</time>
      </trkpt>
      <trkpt lat="42.81123" lon="-0.47878">
        <ele>2200</ele>
        <time>2018-12-27T17:48:19Z</time>
      </trkpt>
      <trkpt lat="42.81147" lon="-0.4788">
        <ele>2197</ele>
        <time>2018-12-27T17:48:25Z</time>
      </trkpt>
      <trkpt lat="42.81161" lon="-0.47885">
        <ele>2197</ele>
        <time>2018-12-27T17:48:29Z</time>
      </trkpt>
      <trkpt lat="42.81182" lon="-0.47896">
        <ele>2193</ele>
        <time>2018-12-27T17:48:35Z</time>
      </trkpt>
      <trkpt lat="42.81188" lon="-0.47898">
        <ele>2192</ele>
        <time>2018-12-27T17:48:37Z</time>
      </trkpt>
      <trkpt lat="42.81195" lon="-0.47898">
        <ele>2191</ele>
        <time>2018-12-27T17:48:39Z</time>
      </trkpt>
      <trkpt lat="42.81203" lon="-0.47907">
        <ele>2191</ele>
        <time>2018-12-27T17:48:42Z</time>
      </trkpt>
      <trkpt lat="42.81204" lon="-0.47914">
        <ele>2191</ele>
        <time>2018-12-27T17:48:43Z</time>
      </trkpt>
      <trkpt lat="42.81208" lon="-0.47916">
        <ele>2191</ele>
        <time>2018-12-27T17:48:44Z</time>
      </trkpt>
      <trkpt lat="42.81214" lon="-0.47913">
        <ele>2190</ele>
        <time>2018-12-27T17:48:46Z</time>
      </trkpt>
      <trkpt lat="42.81218" lon="-0.47907">
        <ele>2189</ele>
        <time>2018-12-27T17:48:47Z</time>
      </trkpt>
      <trkpt lat="42.81224" lon="-0.47907">
        <ele>2188</ele>
        <time>2018-12-27T17:48:49Z</time>
      </trkpt>
      <trkpt lat="42.81228" lon="-0.47911">
        <ele>2189</ele>
        <time>2018-12-27T17:48:50Z</time>
      </trkpt>
      <trkpt lat="42.81234" lon="-0.47913">
        <ele>2189</ele>
        <time>2018-12-27T17:48:52Z</time>
      </trkpt>
      <trkpt lat="42.81234" lon="-0.47952">
        <ele>2192</ele>
        <time>2018-12-27T17:49:00Z</time>
      </trkpt>
      <trkpt lat="42.81236" lon="-0.47965">
        <ele>2191</ele>
        <time>2018-12-27T17:49:02Z</time>
      </trkpt>
      <trkpt lat="42.81239" lon="-0.47972">
        <ele>2192</ele>
        <time>2018-12-27T17:49:04Z</time>
      </trkpt>
      <trkpt lat="42.81247" lon="-0.48007">
        <ele>2182</ele>
        <time>2018-12-27T17:49:11Z</time>
      </trkpt>
      <trkpt lat="42.81252" lon="-0.48038">
        <ele>2169</ele>
        <time>2018-12-27T17:49:17Z</time>
      </trkpt>
      <trkpt lat="42.81259" lon="-0.48052">
        <ele>2165</ele>
        <time>2018-12-27T17:49:21Z</time>
      </trkpt>
      <trkpt lat="42.81263" lon="-0.48066">
        <ele>2163</ele>
        <time>2018-12-27T17:49:24Z</time>
      </trkpt>
      <trkpt lat="42.81277" lon="-0.48089">
        <ele>2163</ele>
        <time>2018-12-27T17:49:29Z</time>
      </trkpt>
      <trkpt lat="42.81286" lon="-0.48101">
        <ele>2165</ele>
        <time>2018-12-27T17:49:33Z</time>
      </trkpt>
      <trkpt lat="42.81292" lon="-0.48115">
        <ele>2164</ele>
        <time>2018-12-27T17:49:36Z</time>
      </trkpt>
      <trkpt lat="42.81296" lon="-0.48121">
        <ele>2164</ele>
        <time>2018-12-27T17:49:37Z</time>
      </trkpt>
      <trkpt lat="42.81309" lon="-0.4815">
        <ele>2164</ele>
        <time>2018-12-27T17:49:44Z</time>
      </trkpt>
      <trkpt lat="42.81322" lon="-0.48185">
        <ele>2162</ele>
        <time>2018-12-27T17:49:52Z</time>
      </trkpt>
      <trkpt lat="42.81329" lon="-0.48195">
        <ele>2164</ele>
        <time>2018-12-27T17:49:55Z</time>
      </trkpt>
      <trkpt lat="42.81334" lon="-0.48214">
        <ele>2164</ele>
        <time>2018-12-27T17:49:58Z</time>
      </trkpt>
      <trkpt lat="42.81333" lon="-0.48228">
        <ele>2162</ele>
        <time>2018-12-27T17:50:01Z</time>
      </trkpt>
      <trkpt lat="42.81337" lon="-0.48245">
        <ele>2162</ele>
        <time>2018-12-27T17:50:05Z</time>
      </trkpt>
      <trkpt lat="42.81354" lon="-0.48291">
        <ele>2157</ele>
        <time>2018-12-27T17:50:15Z</time>
      </trkpt>
      <trkpt lat="42.81362" lon="-0.48318">
        <ele>2155</ele>
        <time>2018-12-27T17:50:21Z</time>
      </trkpt>
      <trkpt lat="42.81369" lon="-0.48352">
        <ele>2151</ele>
        <time>2018-12-27T17:50:27Z</time>
      </trkpt>
      <trkpt lat="42.81387" lon="-0.48374">
        <ele>2153</ele>
        <time>2018-12-27T17:50:34Z</time>
      </trkpt>
      <trkpt lat="42.81395" lon="-0.48387">
        <ele>2153</ele>
        <time>2018-12-27T17:50:37Z</time>
      </trkpt>
      <trkpt lat="42.81408" lon="-0.48419">
        <ele>2147</ele>
        <time>2018-12-27T17:50:44Z</time>
      </trkpt>
      <trkpt lat="42.81415" lon="-0.48451">
        <ele>2144</ele>
        <time>2018-12-27T17:50:51Z</time>
      </trkpt>
      <trkpt lat="42.81418" lon="-0.48479">
        <ele>2142</ele>
        <time>2018-12-27T17:50:56Z</time>
      </trkpt>
      <trkpt lat="42.8142" lon="-0.48513">
        <ele>2138</ele>
        <time>2018-12-27T17:51:03Z</time>
      </trkpt>
      <trkpt lat="42.81415" lon="-0.48585">
        <ele>2128</ele>
        <time>2018-12-27T17:51:17Z</time>
      </trkpt>
      <trkpt lat="42.81418" lon="-0.48615">
        <ele>2124</ele>
        <time>2018-12-27T17:51:23Z</time>
      </trkpt>
      <trkpt lat="42.8142" lon="-0.48623">
        <ele>2123</ele>
        <time>2018-12-27T17:51:25Z</time>
      </trkpt>
      <trkpt lat="42.81426" lon="-0.48634">
        <ele>2121</ele>
        <time>2018-12-27T17:51:28Z</time>
      </trkpt>
      <trkpt lat="42.81425" lon="-0.4865">
        <ele>2119</ele>
        <time>2018-12-27T17:51:31Z</time>
      </trkpt>
      <trkpt lat="42.81431" lon="-0.48666">
        <ele>2118</ele>
        <time>2018-12-27T17:51:34Z</time>
      </trkpt>
      <trkpt lat="42.81432" lon="-0.48675">
        <ele>2117</ele>
        <time>2018-12-27T17:51:36Z</time>
      </trkpt>
      <trkpt lat="42.81431" lon="-0.48681">
        <ele>2116</ele>
        <time>2018-12-27T17:51:37Z</time>
      </trkpt>
      <trkpt lat="42.81427" lon="-0.48693">
        <ele>2114</ele>
        <time>2018-12-27T17:51:40Z</time>
      </trkpt>
      <trkpt lat="42.81415" lon="-0.48706">
        <ele>2113</ele>
        <time>2018-12-27T17:51:44Z</time>
      </trkpt>
      <trkpt lat="42.81412" lon="-0.48711">
        <ele>2113</ele>
        <time>2018-12-27T17:51:45Z</time>
      </trkpt>
      <trkpt lat="42.81411" lon="-0.4872">
        <ele>2113</ele>
        <time>2018-12-27T17:51:47Z</time>
      </trkpt>
      <trkpt lat="42.81406" lon="-0.48742">
        <ele>2114</ele>
        <time>2018-12-27T17:51:51Z</time>
      </trkpt>
      <trkpt lat="42.81408" lon="-0.48759">
        <ele>2114</ele>
        <time>2018-12-27T17:51:55Z</time>
      </trkpt>
      <trkpt lat="42.81413" lon="-0.48781">
        <ele>2115</ele>
        <time>2018-12-27T17:51:59Z</time>
      </trkpt>
      <trkpt lat="42.81415" lon="-0.48798">
        <ele>2115</ele>
        <time>2018-12-27T17:52:03Z</time>
      </trkpt>
      <trkpt lat="42.81412" lon="-0.48816">
        <ele>2114</ele>
        <time>2018-12-27T17:52:06Z</time>
      </trkpt>
      <trkpt lat="42.81407" lon="-0.48835">
        <ele>2112</ele>
        <time>2018-12-27T17:52:10Z</time>
      </trkpt>
      <trkpt lat="42.81406" lon="-0.48847">
        <ele>2112</ele>
        <time>2018-12-27T17:52:13Z</time>
      </trkpt>
      <trkpt lat="42.8141" lon="-0.48873">
        <ele>2113</ele>
        <time>2018-12-27T17:52:18Z</time>
      </trkpt>
      <trkpt lat="42.81408" lon="-0.48886">
        <ele>2115</ele>
        <time>2018-12-27T17:52:20Z</time>
      </trkpt>
      <trkpt lat="42.81404" lon="-0.48895">
        <ele>2116</ele>
        <time>2018-12-27T17:52:22Z</time>
      </trkpt>
      <trkpt lat="42.81404" lon="-0.48903">
        <ele>2118</ele>
        <time>2018-12-27T17:52:24Z</time>
      </trkpt>
      <trkpt lat="42.81424" lon="-0.48933">
        <ele>2121</ele>
        <time>2018-12-27T17:52:32Z</time>
      </trkpt>
      <trkpt lat="42.81427" lon="-0.48945">
        <ele>2122</ele>
        <time>2018-12-27T17:52:34Z</time>
      </trkpt>
      <trkpt lat="42.8143" lon="-0.48963">
        <ele>2125</ele>
        <time>2018-12-27T17:52:38Z</time>
      </trkpt>
      <trkpt lat="42.81427" lon="-0.48975">
        <ele>2128</ele>
        <time>2018-12-27T17:52:41Z</time>
      </trkpt>
      <trkpt lat="42.81427" lon="-0.48999">
        <ele>2132</ele>
        <time>2018-12-27T17:52:45Z</time>
      </trkpt>
      <trkpt lat="42.81421" lon="-0.4901">
        <ele>2134</ele>
        <time>2018-12-27T17:52:48Z</time>
      </trkpt>
      <trkpt lat="42.81406" lon="-0.49017">
        <ele>2132</ele>
        <time>2018-12-27T17:52:52Z</time>
      </trkpt>
      <trkpt lat="42.81401" lon="-0.4902">
        <ele>2131</ele>
        <time>2018-12-27T17:52:54Z</time>
      </trkpt>
      <trkpt lat="42.81398" lon="-0.49025">
        <ele>2131</ele>
        <time>2018-12-27T17:52:55Z</time>
      </trkpt>
      <trkpt lat="42.81396" lon="-0.49032">
        <ele>2130</ele>
        <time>2018-12-27T17:52:56Z</time>
      </trkpt>
      <trkpt lat="42.81397" lon="-0.4905">
        <ele>2131</ele>
        <time>2018-12-27T17:53:00Z</time>
      </trkpt>
      <trkpt lat="42.81402" lon="-0.49067">
        <ele>2133</ele>
        <time>2018-12-27T17:53:03Z</time>
      </trkpt>
      <trkpt lat="42.81404" lon="-0.49083">
        <ele>2134</ele>
        <time>2018-12-27T17:53:07Z</time>
      </trkpt>
      <trkpt lat="42.81407" lon="-0.49091">
        <ele>2135</ele>
        <time>2018-12-27T17:53:08Z</time>
      </trkpt>
      <trkpt lat="42.8142" lon="-0.49115">
        <ele>2138</ele>
        <time>2018-12-27T17:53:14Z</time>
      </trkpt>
      <trkpt lat="42.81425" lon="-0.49127">
        <ele>2138</ele>
        <time>2018-12-27T17:53:17Z</time>
      </trkpt>
      <trkpt lat="42.81437" lon="-0.4915">
        <ele>2138</ele>
        <time>2018-12-27T17:53:22Z</time>
      </trkpt>
      <trkpt lat="42.8145" lon="-0.49164">
        <ele>2141</ele>
        <time>2018-12-27T17:53:27Z</time>
      </trkpt>
      <trkpt lat="42.81464" lon="-0.49175">
        <ele>2145</ele>
        <time>2018-12-27T17:53:31Z</time>
      </trkpt>
      <trkpt lat="42.81471" lon="-0.49183">
        <ele>2145</ele>
        <time>2018-12-27T17:53:34Z</time>
      </trkpt>
      <trkpt lat="42.81477" lon="-0.49195">
        <ele>2144</ele>
        <time>2018-12-27T17:53:36Z</time>
      </trkpt>
      <trkpt lat="42.81479" lon="-0.49212">
        <ele>2141</ele>
        <time>2018-12-27T17:53:40Z</time>
      </trkpt>
      <trkpt lat="42.81477" lon="-0.49234">
        <ele>2137</ele>
        <time>2018-12-27T17:53:44Z</time>
      </trkpt>
      <trkpt lat="42.81478" lon="-0.49248">
        <ele>2136</ele>
        <time>2018-12-27T17:53:47Z</time>
      </trkpt>
      <trkpt lat="42.81482" lon="-0.49269">
        <ele>2135</ele>
        <time>2018-12-27T17:53:51Z</time>
      </trkpt>
      <trkpt lat="42.81494" lon="-0.493">
        <ele>2133</ele>
        <time>2018-12-27T17:53:58Z</time>
      </trkpt>
      <trkpt lat="42.81497" lon="-0.4935">
        <ele>2129</ele>
        <time>2018-12-27T17:54:08Z</time>
      </trkpt>
      <trkpt lat="42.81501" lon="-0.49363">
        <ele>2130</ele>
        <time>2018-12-27T17:54:11Z</time>
      </trkpt>
      <trkpt lat="42.81505" lon="-0.49387">
        <ele>2129</ele>
        <time>2018-12-27T17:54:15Z</time>
      </trkpt>
      <trkpt lat="42.81504" lon="-0.49414">
        <ele>2125</ele>
        <time>2018-12-27T17:54:21Z</time>
      </trkpt>
      <trkpt lat="42.81506" lon="-0.49424">
        <ele>2123</ele>
        <time>2018-12-27T17:54:23Z</time>
      </trkpt>
      <trkpt lat="42.81515" lon="-0.49443">
        <ele>2121</ele>
        <time>2018-12-27T17:54:27Z</time>
      </trkpt>
      <trkpt lat="42.81524" lon="-0.49458">
        <ele>2118</ele>
        <time>2018-12-27T17:54:31Z</time>
      </trkpt>
      <trkpt lat="42.81542" lon="-0.49499">
        <ele>2117</ele>
        <time>2018-12-27T17:54:40Z</time>
      </trkpt>
      <trkpt lat="42.81552" lon="-0.49514">
        <ele>2120</ele>
        <time>2018-12-27T17:54:44Z</time>
      </trkpt>
      <trkpt lat="42.81572" lon="-0.49536">
        <ele>2124</ele>
        <time>2018-12-27T17:54:51Z</time>
      </trkpt>
      <trkpt lat="42.81593" lon="-0.49554">
        <ele>2127</ele>
        <time>2018-12-27T17:54:58Z</time>
      </trkpt>
      <trkpt lat="42.81609" lon="-0.49581">
        <ele>2125</ele>
        <time>2018-12-27T17:55:04Z</time>
      </trkpt>
      <trkpt lat="42.81616" lon="-0.4959">
        <ele>2124</ele>
        <time>2018-12-27T17:55:07Z</time>
      </trkpt>
      <trkpt lat="42.81649" lon="-0.4962">
        <ele>2123</ele>
        <time>2018-12-27T17:55:18Z</time>
      </trkpt>
      <trkpt lat="42.81658" lon="-0.49626">
        <ele>2123</ele>
        <time>2018-12-27T17:55:20Z</time>
      </trkpt>
      <trkpt lat="42.81674" lon="-0.49642">
        <ele>2123</ele>
        <time>2018-12-27T17:55:26Z</time>
      </trkpt>
      <trkpt lat="42.81697" lon="-0.49672">
        <ele>2124</ele>
        <time>2018-12-27T17:55:34Z</time>
      </trkpt>
      <trkpt lat="42.8171" lon="-0.49695">
        <ele>2126</ele>
        <time>2018-12-27T17:55:40Z</time>
      </trkpt>
      <trkpt lat="42.81715" lon="-0.49707">
        <ele>2126</ele>
        <time>2018-12-27T17:55:42Z</time>
      </trkpt>
      <trkpt lat="42.81718" lon="-0.49725">
        <ele>2125</ele>
        <time>2018-12-27T17:55:46Z</time>
      </trkpt>
      <trkpt lat="42.8172" lon="-0.49745">
        <ele>2122</ele>
        <time>2018-12-27T17:55:50Z</time>
      </trkpt>
      <trkpt lat="42.81723" lon="-0.49753">
        <ele>2121</ele>
        <time>2018-12-27T17:55:52Z</time>
      </trkpt>
      <trkpt lat="42.81731" lon="-0.4976">
        <ele>2122</ele>
        <time>2018-12-27T17:55:54Z</time>
      </trkpt>
      <trkpt lat="42.81756" lon="-0.49773">
        <ele>2123</ele>
        <time>2018-12-27T17:56:02Z</time>
      </trkpt>
      <trkpt lat="42.81789" lon="-0.49803">
        <ele>2118</ele>
        <time>2018-12-27T17:56:12Z</time>
      </trkpt>
      <trkpt lat="42.81812" lon="-0.49818">
        <ele>2120</ele>
        <time>2018-12-27T17:56:19Z</time>
      </trkpt>
      <trkpt lat="42.81825" lon="-0.4983">
        <ele>2121</ele>
        <time>2018-12-27T17:56:23Z</time>
      </trkpt>
      <trkpt lat="42.81841" lon="-0.49865">
        <ele>2121</ele>
        <time>2018-12-27T17:56:31Z</time>
      </trkpt>
      <trkpt lat="42.81864" lon="-0.49904">
        <ele>2123</ele>
        <time>2018-12-27T17:56:41Z</time>
      </trkpt>
      <trkpt lat="42.8187" lon="-0.49915">
        <ele>2125</ele>
        <time>2018-12-27T17:56:44Z</time>
      </trkpt>
      <trkpt lat="42.81873" lon="-0.49935">
        <ele>2121</ele>
        <time>2018-12-27T17:56:48Z</time>
      </trkpt>
      <trkpt lat="42.81877" lon="-0.49947">
        <ele>2120</ele>
        <time>2018-12-27T17:56:50Z</time>
      </trkpt>
      <trkpt lat="42.81892" lon="-0.49984">
        <ele>2116</ele>
        <time>2018-12-27T17:56:58Z</time>
      </trkpt>
      <trkpt lat="42.81907" lon="-0.50001">
        <ele>2115</ele>
        <time>2018-12-27T17:57:04Z</time>
      </trkpt>
      <trkpt lat="42.81949" lon="-0.50036">
        <ele>2120</ele>
        <time>2018-12-27T17:57:17Z</time>
      </trkpt>
      <trkpt lat="42.82" lon="-0.50085">
        <ele>2121</ele>
        <time>2018-12-27T17:57:33Z</time>
      </trkpt>
      <trkpt lat="42.82021" lon="-0.50103">
        <ele>2125</ele>
        <time>2018-12-27T17:57:40Z</time>
      </trkpt>
      <trkpt lat="42.82028" lon="-0.50113">
        <ele>2124</ele>
        <time>2018-12-27T17:57:43Z</time>
      </trkpt>
      <trkpt lat="42.82036" lon="-0.5013">
        <ele>2123</ele>
        <time>2018-12-27T17:57:47Z</time>
      </trkpt>
      <trkpt lat="42.82043" lon="-0.50149">
        <ele>2120</ele>
        <time>2018-12-27T17:57:51Z</time>
      </trkpt>
      <trkpt lat="42.82065" lon="-0.50198">
        <ele>2112</ele>
        <time>2018-12-27T17:58:02Z</time>
      </trkpt>
      <trkpt lat="42.82076" lon="-0.50211">
        <ele>2112</ele>
        <time>2018-12-27T17:58:06Z</time>
      </trkpt>
      <trkpt lat="42.82085" lon="-0.50216">
        <ele>2112</ele>
        <time>2018-12-27T17:58:09Z</time>
      </trkpt>
      <trkpt lat="42.821" lon="-0.50219">
        <ele>2112</ele>
        <time>2018-12-27T17:58:12Z</time>
      </trkpt>
      <trkpt lat="42.82105" lon="-0.50223">
        <ele>2111</ele>
        <time>2018-12-27T17:58:14Z</time>
      </trkpt>
      <trkpt lat="42.8211" lon="-0.50224">
        <ele>2111</ele>
        <time>2018-12-27T17:58:15Z</time>
      </trkpt>
      <trkpt lat="42.82117" lon="-0.50223">
        <ele>2111</ele>
        <time>2018-12-27T17:58:17Z</time>
      </trkpt>
      <trkpt lat="42.82136" lon="-0.50232">
        <ele>2105</ele>
        <time>2018-12-27T17:58:23Z</time>
      </trkpt>
      <trkpt lat="42.8215" lon="-0.50235">
        <ele>2102</ele>
        <time>2018-12-27T17:58:26Z</time>
      </trkpt>
      <trkpt lat="42.82189" lon="-0.50228">
        <ele>2099</ele>
        <time>2018-12-27T17:58:37Z</time>
      </trkpt>
      <trkpt lat="42.82199" lon="-0.50231">
        <ele>2096</ele>
        <time>2018-12-27T17:58:40Z</time>
      </trkpt>
      <trkpt lat="42.82215" lon="-0.50233">
        <ele>2095</ele>
        <time>2018-12-27T17:58:44Z</time>
      </trkpt>
      <trkpt lat="42.82238" lon="-0.50232">
        <ele>2096</ele>
        <time>2018-12-27T17:58:50Z</time>
      </trkpt>
      <trkpt lat="42.8225" lon="-0.50235">
        <ele>2096</ele>
        <time>2018-12-27T17:58:53Z</time>
      </trkpt>
      <trkpt lat="42.82266" lon="-0.50242">
        <ele>2096</ele>
        <time>2018-12-27T17:58:58Z</time>
      </trkpt>
      <trkpt lat="42.82294" lon="-0.50248">
        <ele>2096</ele>
        <time>2018-12-27T17:59:05Z</time>
      </trkpt>
      <trkpt lat="42.82305" lon="-0.50252">
        <ele>2095</ele>
        <time>2018-12-27T17:59:08Z</time>
      </trkpt>
      <trkpt lat="42.82315" lon="-0.50253">
        <ele>2095</ele>
        <time>2018-12-27T17:59:11Z</time>
      </trkpt>
      <trkpt lat="42.82319" lon="-0.50257">
        <ele>2095</ele>
        <time>2018-12-27T17:59:12Z</time>
      </trkpt>
      <trkpt lat="42.82325" lon="-0.50267">
        <ele>2092</ele>
        <time>2018-12-27T17:59:15Z</time>
      </trkpt>
      <trkpt lat="42.8233" lon="-0.5027">
        <ele>2092</ele>
        <time>2018-12-27T17:59:16Z</time>
      </trkpt>
      <trkpt lat="42.82354" lon="-0.50266">
        <ele>2096</ele>
        <time>2018-12-27T17:59:23Z</time>
      </trkpt>
      <trkpt lat="42.82365" lon="-0.50268">
        <ele>2097</ele>
        <time>2018-12-27T17:59:26Z</time>
      </trkpt>
      <trkpt lat="42.82393" lon="-0.50268">
        <ele>2104</ele>
        <time>2018-12-27T17:59:33Z</time>
      </trkpt>
      <trkpt lat="42.82414" lon="-0.50278">
        <ele>2105</ele>
        <time>2018-12-27T17:59:39Z</time>
      </trkpt>
      <trkpt lat="42.82419" lon="-0.50278">
        <ele>2106</ele>
        <time>2018-12-27T17:59:41Z</time>
      </trkpt>
      <trkpt lat="42.82426" lon="-0.50276">
        <ele>2107</ele>
        <time>2018-12-27T17:59:42Z</time>
      </trkpt>
      <trkpt lat="42.8246" lon="-0.50291">
        <ele>2108</ele>
        <time>2018-12-27T17:59:52Z</time>
      </trkpt>
      <trkpt lat="42.82466" lon="-0.5029">
        <ele>2109</ele>
        <time>2018-12-27T17:59:54Z</time>
      </trkpt>
      <trkpt lat="42.82471" lon="-0.50285">
        <ele>2110</ele>
        <time>2018-12-27T17:59:55Z</time>
      </trkpt>
      <trkpt lat="42.82479" lon="-0.50273">
        <ele>2113</ele>
        <time>2018-12-27T17:59:59Z</time>
      </trkpt>
      <trkpt lat="42.82483" lon="-0.50258">
        <ele>2118</ele>
        <time>2018-12-27T18:00:02Z</time>
      </trkpt>
      <trkpt lat="42.82477" lon="-0.50241">
        <ele>2120</ele>
        <time>2018-12-27T18:00:05Z</time>
      </trkpt>
      <trkpt lat="42.82477" lon="-0.50225">
        <ele>2127</ele>
        <time>2018-12-27T18:00:09Z</time>
      </trkpt>
      <trkpt lat="42.82476" lon="-0.50217">
        <ele>2128</ele>
        <time>2018-12-27T18:00:10Z</time>
      </trkpt>
      <trkpt lat="42.82473" lon="-0.50211">
        <ele>2128</ele>
        <time>2018-12-27T18:00:11Z</time>
      </trkpt>
      <trkpt lat="42.82473" lon="-0.50203">
        <ele>2130</ele>
        <time>2018-12-27T18:00:13Z</time>
      </trkpt>
      <trkpt lat="42.82466" lon="-0.50183">
        <ele>2134</ele>
        <time>2018-12-27T18:00:17Z</time>
      </trkpt>
      <trkpt lat="42.82465" lon="-0.50165">
        <ele>2140</ele>
        <time>2018-12-27T18:00:21Z</time>
      </trkpt>
      <trkpt lat="42.82464" lon="-0.50158">
        <ele>2141</ele>
        <time>2018-12-27T18:00:22Z</time>
      </trkpt>
      <trkpt lat="42.82463" lon="-0.5015">
        <ele>2143</ele>
        <time>2018-12-27T18:00:24Z</time>
      </trkpt>
      <trkpt lat="42.82466" lon="-0.50142">
        <ele>2146</ele>
        <time>2018-12-27T18:00:26Z</time>
      </trkpt>
      <trkpt lat="42.82465" lon="-0.50111">
        <ele>2153</ele>
        <time>2018-12-27T18:00:32Z</time>
      </trkpt>
      <trkpt lat="42.82461" lon="-0.50095">
        <ele>2154</ele>
        <time>2018-12-27T18:00:35Z</time>
      </trkpt>
      <trkpt lat="42.8246" lon="-0.50081">
        <ele>2155</ele>
        <time>2018-12-27T18:00:38Z</time>
      </trkpt>
      <trkpt lat="42.82457" lon="-0.50073">
        <ele>2155</ele>
        <time>2018-12-27T18:00:40Z</time>
      </trkpt>
      <trkpt lat="42.82456" lon="-0.50064">
        <ele>2155</ele>
        <time>2018-12-27T18:00:41Z</time>
      </trkpt>
      <trkpt lat="42.8246" lon="-0.50051">
        <ele>2158</ele>
        <time>2018-12-27T18:00:44Z</time>
      </trkpt>
      <trkpt lat="42.82458" lon="-0.50036">
        <ele>2160</ele>
        <time>2018-12-27T18:00:47Z</time>
      </trkpt>
      <trkpt lat="42.8246" lon="-0.50028">
        <ele>2161</ele>
        <time>2018-12-27T18:00:49Z</time>
      </trkpt>
      <trkpt lat="42.82459" lon="-0.50015">
        <ele>2163</ele>
        <time>2018-12-27T18:00:51Z</time>
      </trkpt>
      <trkpt lat="42.82458" lon="-0.50002">
        <ele>2164</ele>
        <time>2018-12-27T18:00:54Z</time>
      </trkpt>
      <trkpt lat="42.82453" lon="-0.4999">
        <ele>2165</ele>
        <time>2018-12-27T18:00:56Z</time>
      </trkpt>
      <trkpt lat="42.82451" lon="-0.49975">
        <ele>2166</ele>
        <time>2018-12-27T18:00:59Z</time>
      </trkpt>
      <trkpt lat="42.82447" lon="-0.49968">
        <ele>2167</ele>
        <time>2018-12-27T18:01:01Z</time>
      </trkpt>
      <trkpt lat="42.82445" lon="-0.49959">
        <ele>2168</ele>
        <time>2018-12-27T18:01:03Z</time>
      </trkpt>
      <trkpt lat="42.82448" lon="-0.49952">
        <ele>2169</ele>
        <time>2018-12-27T18:01:04Z</time>
      </trkpt>
      <trkpt lat="42.82448" lon="-0.49938">
        <ele>2170</ele>
        <time>2018-12-27T18:01:07Z</time>
      </trkpt>
      <trkpt lat="42.82446" lon="-0.49923">
        <ele>2170</ele>
        <time>2018-12-27T18:01:10Z</time>
      </trkpt>
      <trkpt lat="42.82447" lon="-0.49915">
        <ele>2170</ele>
        <time>2018-12-27T18:01:12Z</time>
      </trkpt>
      <trkpt lat="42.82453" lon="-0.49913">
        <ele>2171</ele>
        <time>2018-12-27T18:01:13Z</time>
      </trkpt>
      <trkpt lat="42.82458" lon="-0.49917">
        <ele>2171</ele>
        <time>2018-12-27T18:01:15Z</time>
      </trkpt>
      <trkpt lat="42.82463" lon="-0.49913">
        <ele>2172</ele>
        <time>2018-12-27T18:01:16Z</time>
      </trkpt>
      <trkpt lat="42.8247" lon="-0.49914">
        <ele>2173</ele>
        <time>2018-12-27T18:01:18Z</time>
      </trkpt>
      <trkpt lat="42.8248" lon="-0.49919">
        <ele>2177</ele>
        <time>2018-12-27T18:01:21Z</time>
      </trkpt>
      <trkpt lat="42.8249" lon="-0.4992">
        <ele>2181</ele>
        <time>2018-12-27T18:01:24Z</time>
      </trkpt>
      <trkpt lat="42.82496" lon="-0.49923">
        <ele>2184</ele>
        <time>2018-12-27T18:01:25Z</time>
      </trkpt>
      <trkpt lat="42.82512" lon="-0.49925">
        <ele>2190</ele>
        <time>2018-12-27T18:01:30Z</time>
      </trkpt>
      <trkpt lat="42.82516" lon="-0.49931">
        <ele>2192</ele>
        <time>2018-12-27T18:01:31Z</time>
      </trkpt>
      <trkpt lat="42.82534" lon="-0.49945">
        <ele>2199</ele>
        <time>2018-12-27T18:01:37Z</time>
      </trkpt>
      <trkpt lat="42.82541" lon="-0.49955">
        <ele>2201</ele>
        <time>2018-12-27T18:01:40Z</time>
      </trkpt>
      <trkpt lat="42.82546" lon="-0.49959">
        <ele>2202</ele>
        <time>2018-12-27T18:01:41Z</time>
      </trkpt>
      <trkpt lat="42.82553" lon="-0.4996">
        <ele>2204</ele>
        <time>2018-12-27T18:01:43Z</time>
      </trkpt>
      <trkpt lat="42.82563" lon="-0.49969">
        <ele>2208</ele>
        <time>2018-12-27T18:01:46Z</time>
      </trkpt>
      <trkpt lat="42.8257" lon="-0.4997">
        <ele>2210</ele>
        <time>2018-12-27T18:01:48Z</time>
      </trkpt>
      <trkpt lat="42.82577" lon="-0.49963">
        <ele>2212</ele>
        <time>2018-12-27T18:01:50Z</time>
      </trkpt>
      <trkpt lat="42.82582" lon="-0.49961">
        <ele>2213</ele>
        <time>2018-12-27T18:01:52Z</time>
      </trkpt>
      <trkpt lat="42.82593" lon="-0.49968">
        <ele>2217</ele>
        <time>2018-12-27T18:01:55Z</time>
      </trkpt>
      <trkpt lat="42.82604" lon="-0.49971">
        <ele>2221</ele>
        <time>2018-12-27T18:01:58Z</time>
      </trkpt>
      <trkpt lat="42.8261" lon="-0.49975">
        <ele>2223</ele>
        <time>2018-12-27T18:02:00Z</time>
      </trkpt>
      <trkpt lat="42.82616" lon="-0.49976">
        <ele>2224</ele>
        <time>2018-12-27T18:02:01Z</time>
      </trkpt>
      <trkpt lat="42.82628" lon="-0.49983">
        <ele>2227</ele>
        <time>2018-12-27T18:02:05Z</time>
      </trkpt>
      <trkpt lat="42.82654" lon="-0.50018">
        <ele>2235</ele>
        <time>2018-12-27T18:02:15Z</time>
      </trkpt>
      <trkpt lat="42.82663" lon="-0.50026">
        <ele>2240</ele>
        <time>2018-12-27T18:02:17Z</time>
      </trkpt>
      <trkpt lat="42.82675" lon="-0.50031">
        <ele>2243</ele>
        <time>2018-12-27T18:02:21Z</time>
      </trkpt>
      <trkpt lat="42.82683" lon="-0.50044">
        <ele>2246</ele>
        <time>2018-12-27T18:02:24Z</time>
      </trkpt>
      <trkpt lat="42.82688" lon="-0.50047">
        <ele>2248</ele>
        <time>2018-12-27T18:02:26Z</time>
      </trkpt>
      <trkpt lat="42.82692" lon="-0.50051">
        <ele>2251</ele>
        <time>2018-12-27T18:02:27Z</time>
      </trkpt>
      <trkpt lat="42.82697" lon="-0.50051">
        <ele>2252</ele>
        <time>2018-12-27T18:02:28Z</time>
      </trkpt>
      <trkpt lat="42.82706" lon="-0.5006">
        <ele>2255</ele>
        <time>2018-12-27T18:02:31Z</time>
      </trkpt>
      <trkpt lat="42.82719" lon="-0.50084">
        <ele>2260</ele>
        <time>2018-12-27T18:02:37Z</time>
      </trkpt>
      <trkpt lat="42.82722" lon="-0.50098">
        <ele>2262</ele>
        <time>2018-12-27T18:02:40Z</time>
      </trkpt>
      <trkpt lat="42.82746" lon="-0.50132">
        <ele>2269</ele>
        <time>2018-12-27T18:02:49Z</time>
      </trkpt>
      <trkpt lat="42.82752" lon="-0.50143">
        <ele>2269</ele>
        <time>2018-12-27T18:02:52Z</time>
      </trkpt>
      <trkpt lat="42.82773" lon="-0.50171">
        <ele>2263</ele>
        <time>2018-12-27T18:03:00Z</time>
      </trkpt>
      <trkpt lat="42.82769" lon="-0.50184">
        <ele>2260</ele>
        <time>2018-12-27T18:03:02Z</time>
      </trkpt>
      <trkpt lat="42.82766" lon="-0.5019">
        <ele>2258</ele>
        <time>2018-12-27T18:03:04Z</time>
      </trkpt>
      <trkpt lat="42.82762" lon="-0.50212">
        <ele>2253</ele>
        <time>2018-12-27T18:03:08Z</time>
      </trkpt>
      <trkpt lat="42.82757" lon="-0.50225">
        <ele>2251</ele>
        <time>2018-12-27T18:03:11Z</time>
      </trkpt>
      <trkpt lat="42.82756" lon="-0.50232">
        <ele>2250</ele>
        <time>2018-12-27T18:03:13Z</time>
      </trkpt>
      <trkpt lat="42.82757" lon="-0.50246">
        <ele>2248</ele>
        <time>2018-12-27T18:03:15Z</time>
      </trkpt>
      <trkpt lat="42.82754" lon="-0.50266">
        <ele>2248</ele>
        <time>2018-12-27T18:03:19Z</time>
      </trkpt>
      <trkpt lat="42.82755" lon="-0.50281">
        <ele>2249</ele>
        <time>2018-12-27T18:03:22Z</time>
      </trkpt>
      <trkpt lat="42.82753" lon="-0.503">
        <ele>2248</ele>
        <time>2018-12-27T18:03:26Z</time>
      </trkpt>
      <trkpt lat="42.82755" lon="-0.50322">
        <ele>2248</ele>
        <time>2018-12-27T18:03:30Z</time>
      </trkpt>
      <trkpt lat="42.82758" lon="-0.50336">
        <ele>2246</ele>
        <time>2018-12-27T18:03:33Z</time>
      </trkpt>
      <trkpt lat="42.82758" lon="-0.50355">
        <ele>2247</ele>
        <time>2018-12-27T18:03:37Z</time>
      </trkpt>
      <trkpt lat="42.82761" lon="-0.50372">
        <ele>2247</ele>
        <time>2018-12-27T18:03:40Z</time>
      </trkpt>
      <trkpt lat="42.8276" lon="-0.5038">
        <ele>2248</ele>
        <time>2018-12-27T18:03:42Z</time>
      </trkpt>
      <trkpt lat="42.82755" lon="-0.50386">
        <ele>2250</ele>
        <time>2018-12-27T18:03:44Z</time>
      </trkpt>
      <trkpt lat="42.82753" lon="-0.50398">
        <ele>2253</ele>
        <time>2018-12-27T18:03:46Z</time>
      </trkpt>
      <trkpt lat="42.82752" lon="-0.50411">
        <ele>2256</ele>
        <time>2018-12-27T18:03:49Z</time>
      </trkpt>
      <trkpt lat="42.82754" lon="-0.50426">
        <ele>2257</ele>
        <time>2018-12-27T18:03:52Z</time>
      </trkpt>
      <trkpt lat="42.82749" lon="-0.50437">
        <ele>2261</ele>
        <time>2018-12-27T18:03:54Z</time>
      </trkpt>
      <trkpt lat="42.82747" lon="-0.50474">
        <ele>2264</ele>
        <time>2018-12-27T18:04:01Z</time>
      </trkpt>
      <trkpt lat="42.82748" lon="-0.50481">
        <ele>2264</ele>
        <time>2018-12-27T18:04:03Z</time>
      </trkpt>
      <trkpt lat="42.82746" lon="-0.50488">
        <ele>2265</ele>
        <time>2018-12-27T18:04:04Z</time>
      </trkpt>
      <trkpt lat="42.82742" lon="-0.50491">
        <ele>2265</ele>
        <time>2018-12-27T18:04:05Z</time>
      </trkpt>
      <trkpt lat="42.82736" lon="-0.50501">
        <ele>2267</ele>
        <time>2018-12-27T18:04:08Z</time>
      </trkpt>
      <trkpt lat="42.82721" lon="-0.50538">
        <ele>2270</ele>
        <time>2018-12-27T18:04:16Z</time>
      </trkpt>
      <trkpt lat="42.82714" lon="-0.50547">
        <ele>2267</ele>
        <time>2018-12-27T18:04:19Z</time>
      </trkpt>
      <trkpt lat="42.82711" lon="-0.50562">
        <ele>2265</ele>
        <time>2018-12-27T18:04:22Z</time>
      </trkpt>
      <trkpt lat="42.82705" lon="-0.50573">
        <ele>2264</ele>
        <time>2018-12-27T18:04:25Z</time>
      </trkpt>
      <trkpt lat="42.82686" lon="-0.50598">
        <ele>2259</ele>
        <time>2018-12-27T18:04:32Z</time>
      </trkpt>
      <trkpt lat="42.82683" lon="-0.50611">
        <ele>2257</ele>
        <time>2018-12-27T18:04:34Z</time>
      </trkpt>
      <trkpt lat="42.82679" lon="-0.50618">
        <ele>2253</ele>
        <time>2018-12-27T18:04:36Z</time>
      </trkpt>
      <trkpt lat="42.82678" lon="-0.50625">
        <ele>2250</ele>
        <time>2018-12-27T18:04:38Z</time>
      </trkpt>
      <trkpt lat="42.8267" lon="-0.50639">
        <ele>2243</ele>
        <time>2018-12-27T18:04:41Z</time>
      </trkpt>
      <trkpt lat="42.82662" lon="-0.5064">
        <ele>2240</ele>
        <time>2018-12-27T18:04:43Z</time>
      </trkpt>
      <trkpt lat="42.82658" lon="-0.50636">
        <ele>2241</ele>
        <time>2018-12-27T18:04:44Z</time>
      </trkpt>
      <trkpt lat="42.82654" lon="-0.5066">
        <ele>2232</ele>
        <time>2018-12-27T18:04:49Z</time>
      </trkpt>
      <trkpt lat="42.82651" lon="-0.50696">
        <ele>2222</ele>
        <time>2018-12-27T18:04:56Z</time>
      </trkpt>
      <trkpt lat="42.82642" lon="-0.507">
        <ele>2222</ele>
        <time>2018-12-27T18:04:59Z</time>
      </trkpt>
      <trkpt lat="42.82634" lon="-0.50716">
        <ele>2220</ele>
        <time>2018-12-27T18:05:03Z</time>
      </trkpt>
      <trkpt lat="42.82629" lon="-0.50721">
        <ele>2220</ele>
        <time>2018-12-27T18:05:04Z</time>
      </trkpt>
      <trkpt lat="42.82628" lon="-0.50738">
        <ele>2217</ele>
        <time>2018-12-27T18:05:08Z</time>
      </trkpt>
      <trkpt lat="42.82622" lon="-0.50748">
        <ele>2216</ele>
        <time>2018-12-27T18:05:10Z</time>
      </trkpt>
      <trkpt lat="42.82616" lon="-0.50751">
        <ele>2216</ele>
        <time>2018-12-27T18:05:12Z</time>
      </trkpt>
      <trkpt lat="42.82615" lon="-0.50757">
        <ele>2216</ele>
        <time>2018-12-27T18:05:13Z</time>
      </trkpt>
      <trkpt lat="42.82615" lon="-0.50774">
        <ele>2214</ele>
        <time>2018-12-27T18:05:16Z</time>
      </trkpt>
      <trkpt lat="42.82602" lon="-0.5079">
        <ele>2213</ele>
        <time>2018-12-27T18:05:21Z</time>
      </trkpt>
      <trkpt lat="42.826" lon="-0.50798">
        <ele>2213</ele>
        <time>2018-12-27T18:05:23Z</time>
      </trkpt>
      <trkpt lat="42.82602" lon="-0.50804">
        <ele>2212</ele>
        <time>2018-12-27T18:05:24Z</time>
      </trkpt>
      <trkpt lat="42.826" lon="-0.50811">
        <ele>2213</ele>
        <time>2018-12-27T18:05:25Z</time>
      </trkpt>
      <trkpt lat="42.82597" lon="-0.50816">
        <ele>2214</ele>
        <time>2018-12-27T18:05:27Z</time>
      </trkpt>
      <trkpt lat="42.82588" lon="-0.50824">
        <ele>2217</ele>
        <time>2018-12-27T18:05:29Z</time>
      </trkpt>
      <trkpt lat="42.82573" lon="-0.50847">
        <ele>2220</ele>
        <time>2018-12-27T18:05:36Z</time>
      </trkpt>
      <trkpt lat="42.82568" lon="-0.50852">
        <ele>2219</ele>
        <time>2018-12-27T18:05:37Z</time>
      </trkpt>
      <trkpt lat="42.82558" lon="-0.50871">
        <ele>2217</ele>
        <time>2018-12-27T18:05:42Z</time>
      </trkpt>
      <trkpt lat="42.82548" lon="-0.50886">
        <ele>2214</ele>
        <time>2018-12-27T18:05:46Z</time>
      </trkpt>
      <trkpt lat="42.82542" lon="-0.50899">
        <ele>2213</ele>
        <time>2018-12-27T18:05:49Z</time>
      </trkpt>
      <trkpt lat="42.82537" lon="-0.50923">
        <ele>2215</ele>
        <time>2018-12-27T18:05:54Z</time>
      </trkpt>
      <trkpt lat="42.8254" lon="-0.5096">
        <ele>2221</ele>
        <time>2018-12-27T18:06:01Z</time>
      </trkpt>
      <trkpt lat="42.82543" lon="-0.50984">
        <ele>2221</ele>
        <time>2018-12-27T18:06:06Z</time>
      </trkpt>
      <trkpt lat="42.82541" lon="-0.51007">
        <ele>2221</ele>
        <time>2018-12-27T18:06:10Z</time>
      </trkpt>
      <trkpt lat="42.82538" lon="-0.51014">
        <ele>2220</ele>
        <time>2018-12-27T18:06:12Z</time>
      </trkpt>
      <trkpt lat="42.82538" lon="-0.51023">
        <ele>2219</ele>
        <time>2018-12-27T18:06:14Z</time>
      </trkpt>
      <trkpt lat="42.82534" lon="-0.51034">
        <ele>2218</ele>
        <time>2018-12-27T18:06:16Z</time>
      </trkpt>
      <trkpt lat="42.82522" lon="-0.5101">
        <ele>2222</ele>
        <time>2018-12-27T18:06:22Z</time>
      </trkpt>
      <trkpt lat="42.8252" lon="-0.51002">
        <ele>2223</ele>
        <time>2018-12-27T18:06:24Z</time>
      </trkpt>
      <trkpt lat="42.82513" lon="-0.51008">
        <ele>2222</ele>
        <time>2018-12-27T18:06:26Z</time>
      </trkpt>
      <trkpt lat="42.82511" lon="-0.51016">
        <ele>2220</ele>
        <time>2018-12-27T18:06:27Z</time>
      </trkpt>
      <trkpt lat="42.8251" lon="-0.51038">
        <ele>2216</ele>
        <time>2018-12-27T18:06:32Z</time>
      </trkpt>
      <trkpt lat="42.82501" lon="-0.51051">
        <ele>2215</ele>
        <time>2018-12-27T18:06:35Z</time>
      </trkpt>
      <trkpt lat="42.82496" lon="-0.51064">
        <ele>2215</ele>
        <time>2018-12-27T18:06:38Z</time>
      </trkpt>
      <trkpt lat="42.82491" lon="-0.51067">
        <ele>2217</ele>
        <time>2018-12-27T18:06:39Z</time>
      </trkpt>
      <trkpt lat="42.82485" lon="-0.51068">
        <ele>2219</ele>
        <time>2018-12-27T18:06:41Z</time>
      </trkpt>
      <trkpt lat="42.8248" lon="-0.51063">
        <ele>2221</ele>
        <time>2018-12-27T18:06:43Z</time>
      </trkpt>
      <trkpt lat="42.82475" lon="-0.5107">
        <ele>2222</ele>
        <time>2018-12-27T18:06:44Z</time>
      </trkpt>
      <trkpt lat="42.82456" lon="-0.5108">
        <ele>2221</ele>
        <time>2018-12-27T18:06:50Z</time>
      </trkpt>
      <trkpt lat="42.82452" lon="-0.51087">
        <ele>2219</ele>
        <time>2018-12-27T18:06:52Z</time>
      </trkpt>
      <trkpt lat="42.82449" lon="-0.51104">
        <ele>2213</ele>
        <time>2018-12-27T18:06:55Z</time>
      </trkpt>
      <trkpt lat="42.82444" lon="-0.51106">
        <ele>2212</ele>
        <time>2018-12-27T18:06:56Z</time>
      </trkpt>
      <trkpt lat="42.82436" lon="-0.51115">
        <ele>2208</ele>
        <time>2018-12-27T18:06:59Z</time>
      </trkpt>
      <trkpt lat="42.8242" lon="-0.51122">
        <ele>2204</ele>
        <time>2018-12-27T18:07:04Z</time>
      </trkpt>
      <trkpt lat="42.82416" lon="-0.51118">
        <ele>2204</ele>
        <time>2018-12-27T18:07:05Z</time>
      </trkpt>
      <trkpt lat="42.82408" lon="-0.51126">
        <ele>2201</ele>
        <time>2018-12-27T18:07:08Z</time>
      </trkpt>
      <trkpt lat="42.82401" lon="-0.51129">
        <ele>2200</ele>
        <time>2018-12-27T18:07:09Z</time>
      </trkpt>
      <trkpt lat="42.82397" lon="-0.51127">
        <ele>2200</ele>
        <time>2018-12-27T18:07:11Z</time>
      </trkpt>
      <trkpt lat="42.82387" lon="-0.51127">
        <ele>2199</ele>
        <time>2018-12-27T18:07:13Z</time>
      </trkpt>
      <trkpt lat="42.82383" lon="-0.51131">
        <ele>2199</ele>
        <time>2018-12-27T18:07:14Z</time>
      </trkpt>
      <trkpt lat="42.82376" lon="-0.51132">
        <ele>2199</ele>
        <time>2018-12-27T18:07:16Z</time>
      </trkpt>
      <trkpt lat="42.82371" lon="-0.51131">
        <ele>2199</ele>
        <time>2018-12-27T18:07:18Z</time>
      </trkpt>
      <trkpt lat="42.82366" lon="-0.51127">
        <ele>2198</ele>
        <time>2018-12-27T18:07:19Z</time>
      </trkpt>
      <trkpt lat="42.8236" lon="-0.51129">
        <ele>2198</ele>
        <time>2018-12-27T18:07:21Z</time>
      </trkpt>
      <trkpt lat="42.82355" lon="-0.51133">
        <ele>2199</ele>
        <time>2018-12-27T18:07:22Z</time>
      </trkpt>
      <trkpt lat="42.8235" lon="-0.51141">
        <ele>2200</ele>
        <time>2018-12-27T18:07:24Z</time>
      </trkpt>
      <trkpt lat="42.82347" lon="-0.51149">
        <ele>2201</ele>
        <time>2018-12-27T18:07:26Z</time>
      </trkpt>
      <trkpt lat="42.82344" lon="-0.51163">
        <ele>2203</ele>
        <time>2018-12-27T18:07:29Z</time>
      </trkpt>
      <trkpt lat="42.82341" lon="-0.51168">
        <ele>2204</ele>
        <time>2018-12-27T18:07:30Z</time>
      </trkpt>
      <trkpt lat="42.82335" lon="-0.51171">
        <ele>2205</ele>
        <time>2018-12-27T18:07:32Z</time>
      </trkpt>
      <trkpt lat="42.82332" lon="-0.51179">
        <ele>2207</ele>
        <time>2018-12-27T18:07:34Z</time>
      </trkpt>
      <trkpt lat="42.8233" lon="-0.51189">
        <ele>2208</ele>
        <time>2018-12-27T18:07:36Z</time>
      </trkpt>
      <trkpt lat="42.82307" lon="-0.51221">
        <ele>2224</ele>
        <time>2018-12-27T18:07:44Z</time>
      </trkpt>
      <trkpt lat="42.82286" lon="-0.51256">
        <ele>2239</ele>
        <time>2018-12-27T18:07:53Z</time>
      </trkpt>
      <trkpt lat="42.82266" lon="-0.5128">
        <ele>2250</ele>
        <time>2018-12-27T18:08:01Z</time>
      </trkpt>
      <trkpt lat="42.82256" lon="-0.51289">
        <ele>2257</ele>
        <time>2018-12-27T18:08:04Z</time>
      </trkpt>
      <trkpt lat="42.82246" lon="-0.51304">
        <ele>2265</ele>
        <time>2018-12-27T18:08:08Z</time>
      </trkpt>
      <trkpt lat="42.82238" lon="-0.51307">
        <ele>2267</ele>
        <time>2018-12-27T18:08:10Z</time>
      </trkpt>
      <trkpt lat="42.82217" lon="-0.51321">
        <ele>2269</ele>
        <time>2018-12-27T18:08:16Z</time>
      </trkpt>
      <trkpt lat="42.82199" lon="-0.51321">
        <ele>2272</ele>
        <time>2018-12-27T18:08:21Z</time>
      </trkpt>
      <trkpt lat="42.82186" lon="-0.51317">
        <ele>2274</ele>
        <time>2018-12-27T18:08:24Z</time>
      </trkpt>
      <trkpt lat="42.8218" lon="-0.51317">
        <ele>2274</ele>
        <time>2018-12-27T18:08:26Z</time>
      </trkpt>
      <trkpt lat="42.82161" lon="-0.51312">
        <ele>2276</ele>
        <time>2018-12-27T18:08:31Z</time>
      </trkpt>
      <trkpt lat="42.82137" lon="-0.5131">
        <ele>2275</ele>
        <time>2018-12-27T18:08:38Z</time>
      </trkpt>
      <trkpt lat="42.82125" lon="-0.51311">
        <ele>2272</ele>
        <time>2018-12-27T18:08:41Z</time>
      </trkpt>
      <trkpt lat="42.82113" lon="-0.51315">
        <ele>2268</ele>
        <time>2018-12-27T18:08:44Z</time>
      </trkpt>
      <trkpt lat="42.82101" lon="-0.51317">
        <ele>2265</ele>
        <time>2018-12-27T18:08:47Z</time>
      </trkpt>
      <trkpt lat="42.82091" lon="-0.51317">
        <ele>2263</ele>
        <time>2018-12-27T18:08:50Z</time>
      </trkpt>
      <trkpt lat="42.82077" lon="-0.51314">
        <ele>2260</ele>
        <time>2018-12-27T18:08:54Z</time>
      </trkpt>
      <trkpt lat="42.82072" lon="-0.51316">
        <ele>2259</ele>
        <time>2018-12-27T18:08:55Z</time>
      </trkpt>
      <trkpt lat="42.82061" lon="-0.51325">
        <ele>2254</ele>
        <time>2018-12-27T18:08:59Z</time>
      </trkpt>
      <trkpt lat="42.82046" lon="-0.51328">
        <ele>2248</ele>
        <time>2018-12-27T18:09:03Z</time>
      </trkpt>
      <trkpt lat="42.8204" lon="-0.5133">
        <ele>2246</ele>
        <time>2018-12-27T18:09:04Z</time>
      </trkpt>
      <trkpt lat="42.82028" lon="-0.51329">
        <ele>2242</ele>
        <time>2018-12-27T18:09:07Z</time>
      </trkpt>
      <trkpt lat="42.82023" lon="-0.51331">
        <ele>2241</ele>
        <time>2018-12-27T18:09:09Z</time>
      </trkpt>
      <trkpt lat="42.82019" lon="-0.51327">
        <ele>2242</ele>
        <time>2018-12-27T18:09:10Z</time>
      </trkpt>
      <trkpt lat="42.82002" lon="-0.51331">
        <ele>2242</ele>
        <time>2018-12-27T18:09:15Z</time>
      </trkpt>
      <trkpt lat="42.81994" lon="-0.51335">
        <ele>2242</ele>
        <time>2018-12-27T18:09:17Z</time>
      </trkpt>
      <trkpt lat="42.8199" lon="-0.51338">
        <ele>2241</ele>
        <time>2018-12-27T18:09:18Z</time>
      </trkpt>
      <trkpt lat="42.81979" lon="-0.51341">
        <ele>2241</ele>
        <time>2018-12-27T18:09:21Z</time>
      </trkpt>
      <trkpt lat="42.81963" lon="-0.51349">
        <ele>2240</ele>
        <time>2018-12-27T18:09:26Z</time>
      </trkpt>
      <trkpt lat="42.81943" lon="-0.51353">
        <ele>2238</ele>
        <time>2018-12-27T18:09:31Z</time>
      </trkpt>
      <trkpt lat="42.81931" lon="-0.51354">
        <ele>2239</ele>
        <time>2018-12-27T18:09:34Z</time>
      </trkpt>
      <trkpt lat="42.81915" lon="-0.51362">
        <ele>2240</ele>
        <time>2018-12-27T18:09:39Z</time>
      </trkpt>
      <trkpt lat="42.81903" lon="-0.51363">
        <ele>2241</ele>
        <time>2018-12-27T18:09:42Z</time>
      </trkpt>
      <trkpt lat="42.81898" lon="-0.51365">
        <ele>2242</ele>
        <time>2018-12-27T18:09:44Z</time>
      </trkpt>
      <trkpt lat="42.81888" lon="-0.51374">
        <ele>2243</ele>
        <time>2018-12-27T18:09:47Z</time>
      </trkpt>
      <trkpt lat="42.81881" lon="-0.51374">
        <ele>2243</ele>
        <time>2018-12-27T18:09:49Z</time>
      </trkpt>
      <trkpt lat="42.81877" lon="-0.51377">
        <ele>2243</ele>
        <time>2018-12-27T18:09:50Z</time>
      </trkpt>
      <trkpt lat="42.81874" lon="-0.51382">
        <ele>2244</ele>
        <time>2018-12-27T18:09:51Z</time>
      </trkpt>
      <trkpt lat="42.81875" lon="-0.51391">
        <ele>2244</ele>
        <time>2018-12-27T18:09:53Z</time>
      </trkpt>
      <trkpt lat="42.8187" lon="-0.51424">
        <ele>2239</ele>
        <time>2018-12-27T18:10:00Z</time>
      </trkpt>
      <trkpt lat="42.81865" lon="-0.51432">
        <ele>2239</ele>
        <time>2018-12-27T18:10:02Z</time>
      </trkpt>
      <trkpt lat="42.81862" lon="-0.5144">
        <ele>2237</ele>
        <time>2018-12-27T18:10:03Z</time>
      </trkpt>
      <trkpt lat="42.81857" lon="-0.51447">
        <ele>2235</ele>
        <time>2018-12-27T18:10:05Z</time>
      </trkpt>
      <trkpt lat="42.81853" lon="-0.51463">
        <ele>2229</ele>
        <time>2018-12-27T18:10:09Z</time>
      </trkpt>
      <trkpt lat="42.81847" lon="-0.51475">
        <ele>2225</ele>
        <time>2018-12-27T18:10:12Z</time>
      </trkpt>
      <trkpt lat="42.81847" lon="-0.51481">
        <ele>2223</ele>
        <time>2018-12-27T18:10:13Z</time>
      </trkpt>
      <trkpt lat="42.81836" lon="-0.51505">
        <ele>2220</ele>
        <time>2018-12-27T18:10:18Z</time>
      </trkpt>
      <trkpt lat="42.81832" lon="-0.51518">
        <ele>2218</ele>
        <time>2018-12-27T18:10:21Z</time>
      </trkpt>
      <trkpt lat="42.81828" lon="-0.51533">
        <ele>2216</ele>
        <time>2018-12-27T18:10:24Z</time>
      </trkpt>
      <trkpt lat="42.81828" lon="-0.5154">
        <ele>2215</ele>
        <time>2018-12-27T18:10:25Z</time>
      </trkpt>
      <trkpt lat="42.81826" lon="-0.51556">
        <ele>2214</ele>
        <time>2018-12-27T18:10:29Z</time>
      </trkpt>
      <trkpt lat="42.8182" lon="-0.51578">
        <ele>2208</ele>
        <time>2018-12-27T18:10:33Z</time>
      </trkpt>
      <trkpt lat="42.81821" lon="-0.51593">
        <ele>2204</ele>
        <time>2018-12-27T18:10:36Z</time>
      </trkpt>
      <trkpt lat="42.81816" lon="-0.51613">
        <ele>2201</ele>
        <time>2018-12-27T18:10:40Z</time>
      </trkpt>
      <trkpt lat="42.81816" lon="-0.51621">
        <ele>2200</ele>
        <time>2018-12-27T18:10:42Z</time>
      </trkpt>
      <trkpt lat="42.81812" lon="-0.51627">
        <ele>2201</ele>
        <time>2018-12-27T18:10:44Z</time>
      </trkpt>
      <trkpt lat="42.81806" lon="-0.51649">
        <ele>2202</ele>
        <time>2018-12-27T18:10:48Z</time>
      </trkpt>
      <trkpt lat="42.81784" lon="-0.5169">
        <ele>2206</ele>
        <time>2018-12-27T18:10:58Z</time>
      </trkpt>
      <trkpt lat="42.8178" lon="-0.51702">
        <ele>2208</ele>
        <time>2018-12-27T18:11:01Z</time>
      </trkpt>
      <trkpt lat="42.81759" lon="-0.51729">
        <ele>2213</ele>
        <time>2018-12-27T18:11:08Z</time>
      </trkpt>
      <trkpt lat="42.8175" lon="-0.51749">
        <ele>2218</ele>
        <time>2018-12-27T18:11:13Z</time>
      </trkpt>
      <trkpt lat="42.81736" lon="-0.51762">
        <ele>2219</ele>
        <time>2018-12-27T18:11:18Z</time>
      </trkpt>
      <trkpt lat="42.81714" lon="-0.51779">
        <ele>2218</ele>
        <time>2018-12-27T18:11:24Z</time>
      </trkpt>
      <trkpt lat="42.81679" lon="-0.51794">
        <ele>2213</ele>
        <time>2018-12-27T18:11:34Z</time>
      </trkpt>
      <trkpt lat="42.8167" lon="-0.51801">
        <ele>2211</ele>
        <time>2018-12-27T18:11:37Z</time>
      </trkpt>
      <trkpt lat="42.81643" lon="-0.51812">
        <ele>2214</ele>
        <time>2018-12-27T18:11:44Z</time>
      </trkpt>
      <trkpt lat="42.81627" lon="-0.51811">
        <ele>2215</ele>
        <time>2018-12-27T18:11:49Z</time>
      </trkpt>
      <trkpt lat="42.81615" lon="-0.51813">
        <ele>2218</ele>
        <time>2018-12-27T18:11:52Z</time>
      </trkpt>
      <trkpt lat="42.81597" lon="-0.51822">
        <ele>2223</ele>
        <time>2018-12-27T18:11:57Z</time>
      </trkpt>
      <trkpt lat="42.81586" lon="-0.51823">
        <ele>2224</ele>
        <time>2018-12-27T18:12:00Z</time>
      </trkpt>
      <trkpt lat="42.81566" lon="-0.51827">
        <ele>2223</ele>
        <time>2018-12-27T18:12:05Z</time>
      </trkpt>
      <trkpt lat="42.81568" lon="-0.51849">
        <ele>2227</ele>
        <time>2018-12-27T18:12:10Z</time>
      </trkpt>
      <trkpt lat="42.81563" lon="-0.51869">
        <ele>2227</ele>
        <time>2018-12-27T18:12:14Z</time>
      </trkpt>
      <trkpt lat="42.81565" lon="-0.51883">
        <ele>2229</ele>
        <time>2018-12-27T18:12:17Z</time>
      </trkpt>
      <trkpt lat="42.8156" lon="-0.51899">
        <ele>2226</ele>
        <time>2018-12-27T18:12:20Z</time>
      </trkpt>
      <trkpt lat="42.81556" lon="-0.51923">
        <ele>2225</ele>
        <time>2018-12-27T18:12:25Z</time>
      </trkpt>
      <trkpt lat="42.81558" lon="-0.51954">
        <ele>2228</ele>
        <time>2018-12-27T18:12:31Z</time>
      </trkpt>
      <trkpt lat="42.81549" lon="-0.52028">
        <ele>2206</ele>
        <time>2018-12-27T18:12:45Z</time>
      </trkpt>
      <trkpt lat="42.81539" lon="-0.52045">
        <ele>2198</ele>
        <time>2018-12-27T18:12:50Z</time>
      </trkpt>
      <trkpt lat="42.81538" lon="-0.52052">
        <ele>2196</ele>
        <time>2018-12-27T18:12:51Z</time>
      </trkpt>
      <trkpt lat="42.81531" lon="-0.52063">
        <ele>2192</ele>
        <time>2018-12-27T18:12:54Z</time>
      </trkpt>
      <trkpt lat="42.81522" lon="-0.52071">
        <ele>2188</ele>
        <time>2018-12-27T18:12:57Z</time>
      </trkpt>
      <trkpt lat="42.81513" lon="-0.52076">
        <ele>2184</ele>
        <time>2018-12-27T18:12:59Z</time>
      </trkpt>
      <trkpt lat="42.8151" lon="-0.52081">
        <ele>2183</ele>
        <time>2018-12-27T18:13:01Z</time>
      </trkpt>
      <trkpt lat="42.81508" lon="-0.52089">
        <ele>2180</ele>
        <time>2018-12-27T18:13:02Z</time>
      </trkpt>
      <trkpt lat="42.81509" lon="-0.52098">
        <ele>2178</ele>
        <time>2018-12-27T18:13:04Z</time>
      </trkpt>
      <trkpt lat="42.81499" lon="-0.52108">
        <ele>2174</ele>
        <time>2018-12-27T18:13:08Z</time>
      </trkpt>
      <trkpt lat="42.81494" lon="-0.52109">
        <ele>2172</ele>
        <time>2018-12-27T18:13:09Z</time>
      </trkpt>
      <trkpt lat="42.8149" lon="-0.52114">
        <ele>2170</ele>
        <time>2018-12-27T18:13:10Z</time>
      </trkpt>
      <trkpt lat="42.81489" lon="-0.52121">
        <ele>2168</ele>
        <time>2018-12-27T18:13:12Z</time>
      </trkpt>
      <trkpt lat="42.81482" lon="-0.52133">
        <ele>2163</ele>
        <time>2018-12-27T18:13:15Z</time>
      </trkpt>
      <trkpt lat="42.81479" lon="-0.52148">
        <ele>2160</ele>
        <time>2018-12-27T18:13:18Z</time>
      </trkpt>
      <trkpt lat="42.81473" lon="-0.5216">
        <ele>2158</ele>
        <time>2018-12-27T18:13:20Z</time>
      </trkpt>
      <trkpt lat="42.81469" lon="-0.5218">
        <ele>2155</ele>
        <time>2018-12-27T18:13:25Z</time>
      </trkpt>
      <trkpt lat="42.81465" lon="-0.52186">
        <ele>2154</ele>
        <time>2018-12-27T18:13:26Z</time>
      </trkpt>
      <trkpt lat="42.81455" lon="-0.52188">
        <ele>2153</ele>
        <time>2018-12-27T18:13:29Z</time>
      </trkpt>
      <trkpt lat="42.81455" lon="-0.52196">
        <ele>2152</ele>
        <time>2018-12-27T18:13:30Z</time>
      </trkpt>
      <trkpt lat="42.81441" lon="-0.52195">
        <ele>2150</ele>
        <time>2018-12-27T18:13:34Z</time>
      </trkpt>
      <trkpt lat="42.81436" lon="-0.52193">
        <ele>2148</ele>
        <time>2018-12-27T18:13:36Z</time>
      </trkpt>
      <trkpt lat="42.81425" lon="-0.52201">
        <ele>2141</ele>
        <time>2018-12-27T18:13:39Z</time>
      </trkpt>
      <trkpt lat="42.81419" lon="-0.52201">
        <ele>2138</ele>
        <time>2018-12-27T18:13:40Z</time>
      </trkpt>
      <trkpt lat="42.81408" lon="-0.52206">
        <ele>2131</ele>
        <time>2018-12-27T18:13:44Z</time>
      </trkpt>
      <trkpt lat="42.81402" lon="-0.52205">
        <ele>2128</ele>
        <time>2018-12-27T18:13:45Z</time>
      </trkpt>
      <trkpt lat="42.81396" lon="-0.52201">
        <ele>2124</ele>
        <time>2018-12-27T18:13:47Z</time>
      </trkpt>
      <trkpt lat="42.81391" lon="-0.52202">
        <ele>2121</ele>
        <time>2018-12-27T18:13:48Z</time>
      </trkpt>
      <trkpt lat="42.81382" lon="-0.522">
        <ele>2117</ele>
        <time>2018-12-27T18:13:51Z</time>
      </trkpt>
      <trkpt lat="42.81377" lon="-0.52197">
        <ele>2115</ele>
        <time>2018-12-27T18:13:52Z</time>
      </trkpt>
      <trkpt lat="42.81362" lon="-0.52196">
        <ele>2108</ele>
        <time>2018-12-27T18:13:56Z</time>
      </trkpt>
      <trkpt lat="42.81357" lon="-0.52192">
        <ele>2107</ele>
        <time>2018-12-27T18:13:58Z</time>
      </trkpt>
      <trkpt lat="42.81352" lon="-0.52191">
        <ele>2106</ele>
        <time>2018-12-27T18:13:59Z</time>
      </trkpt>
      <trkpt lat="42.81337" lon="-0.52197">
        <ele>2103</ele>
        <time>2018-12-27T18:14:03Z</time>
      </trkpt>
      <trkpt lat="42.81319" lon="-0.52218">
        <ele>2101</ele>
        <time>2018-12-27T18:14:09Z</time>
      </trkpt>
      <trkpt lat="42.8132" lon="-0.52256">
        <ele>2097</ele>
        <time>2018-12-27T18:14:17Z</time>
      </trkpt>
      <trkpt lat="42.81315" lon="-0.5226">
        <ele>2096</ele>
        <time>2018-12-27T18:14:19Z</time>
      </trkpt>
      <trkpt lat="42.81312" lon="-0.52266">
        <ele>2096</ele>
        <time>2018-12-27T18:14:20Z</time>
      </trkpt>
      <trkpt lat="42.81308" lon="-0.52288">
        <ele>2093</ele>
        <time>2018-12-27T18:14:24Z</time>
      </trkpt>
      <trkpt lat="42.81282" lon="-0.5233">
        <ele>2084</ele>
        <time>2018-12-27T18:14:35Z</time>
      </trkpt>
      <trkpt lat="42.81262" lon="-0.52371">
        <ele>2078</ele>
        <time>2018-12-27T18:14:45Z</time>
      </trkpt>
      <trkpt lat="42.81249" lon="-0.52407">
        <ele>2076</ele>
        <time>2018-12-27T18:14:53Z</time>
      </trkpt>
      <trkpt lat="42.8124" lon="-0.52415">
        <ele>2077</ele>
        <time>2018-12-27T18:14:55Z</time>
      </trkpt>
      <trkpt lat="42.81235" lon="-0.52418">
        <ele>2077</ele>
        <time>2018-12-27T18:14:57Z</time>
      </trkpt>
      <trkpt lat="42.81211" lon="-0.52407">
        <ele>2078</ele>
        <time>2018-12-27T18:15:04Z</time>
      </trkpt>
      <trkpt lat="42.81177" lon="-0.524">
        <ele>2077</ele>
        <time>2018-12-27T18:15:13Z</time>
      </trkpt>
      <trkpt lat="42.81158" lon="-0.52388">
        <ele>2070</ele>
        <time>2018-12-27T18:15:18Z</time>
      </trkpt>
      <trkpt lat="42.81141" lon="-0.52371">
        <ele>2065</ele>
        <time>2018-12-27T18:15:24Z</time>
      </trkpt>
      <trkpt lat="42.81122" lon="-0.52363">
        <ele>2064</ele>
        <time>2018-12-27T18:15:29Z</time>
      </trkpt>
      <trkpt lat="42.81118" lon="-0.52359">
        <ele>2064</ele>
        <time>2018-12-27T18:15:31Z</time>
      </trkpt>
      <trkpt lat="42.81106" lon="-0.52359">
        <ele>2064</ele>
        <time>2018-12-27T18:15:34Z</time>
      </trkpt>
      <trkpt lat="42.81101" lon="-0.52361">
        <ele>2064</ele>
        <time>2018-12-27T18:15:35Z</time>
      </trkpt>
      <trkpt lat="42.81089" lon="-0.52355">
        <ele>2063</ele>
        <time>2018-12-27T18:15:39Z</time>
      </trkpt>
      <trkpt lat="42.81085" lon="-0.52348">
        <ele>2063</ele>
        <time>2018-12-27T18:15:40Z</time>
      </trkpt>
      <trkpt lat="42.81081" lon="-0.52345">
        <ele>2063</ele>
        <time>2018-12-27T18:15:42Z</time>
      </trkpt>
      <trkpt lat="42.81075" lon="-0.52343">
        <ele>2063</ele>
        <time>2018-12-27T18:15:43Z</time>
      </trkpt>
      <trkpt lat="42.81064" lon="-0.5233">
        <ele>2061</ele>
        <time>2018-12-27T18:15:47Z</time>
      </trkpt>
      <trkpt lat="42.81055" lon="-0.52323">
        <ele>2059</ele>
        <time>2018-12-27T18:15:50Z</time>
      </trkpt>
      <trkpt lat="42.8104" lon="-0.52316">
        <ele>2058</ele>
        <time>2018-12-27T18:15:54Z</time>
      </trkpt>
      <trkpt lat="42.81024" lon="-0.52319">
        <ele>2057</ele>
        <time>2018-12-27T18:15:58Z</time>
      </trkpt>
      <trkpt lat="42.81019" lon="-0.52322">
        <ele>2056</ele>
        <time>2018-12-27T18:16:00Z</time>
      </trkpt>
      <trkpt lat="42.8099" lon="-0.52319">
        <ele>2051</ele>
        <time>2018-12-27T18:16:08Z</time>
      </trkpt>
      <trkpt lat="42.80976" lon="-0.52325">
        <ele>2048</ele>
        <time>2018-12-27T18:16:12Z</time>
      </trkpt>
      <trkpt lat="42.80973" lon="-0.52333">
        <ele>2048</ele>
        <time>2018-12-27T18:16:13Z</time>
      </trkpt>
      <trkpt lat="42.80964" lon="-0.52335">
        <ele>2046</ele>
        <time>2018-12-27T18:16:16Z</time>
      </trkpt>
      <trkpt lat="42.80959" lon="-0.52325">
        <ele>2045</ele>
        <time>2018-12-27T18:16:18Z</time>
      </trkpt>
      <trkpt lat="42.80957" lon="-0.52308">
        <ele>2044</ele>
        <time>2018-12-27T18:16:22Z</time>
      </trkpt>
      <trkpt lat="42.80954" lon="-0.52301">
        <ele>2043</ele>
        <time>2018-12-27T18:16:23Z</time>
      </trkpt>
      <trkpt lat="42.80947" lon="-0.52304">
        <ele>2042</ele>
        <time>2018-12-27T18:16:25Z</time>
      </trkpt>
      <trkpt lat="42.80945" lon="-0.5231">
        <ele>2042</ele>
        <time>2018-12-27T18:16:26Z</time>
      </trkpt>
      <trkpt lat="42.80941" lon="-0.52311">
        <ele>2041</ele>
        <time>2018-12-27T18:16:28Z</time>
      </trkpt>
      <trkpt lat="42.80922" lon="-0.52297">
        <ele>2035</ele>
        <time>2018-12-27T18:16:33Z</time>
      </trkpt>
      <trkpt lat="42.80907" lon="-0.52289">
        <ele>2032</ele>
        <time>2018-12-27T18:16:38Z</time>
      </trkpt>
      <trkpt lat="42.80898" lon="-0.5228">
        <ele>2029</ele>
        <time>2018-12-27T18:16:40Z</time>
      </trkpt>
      <trkpt lat="42.80881" lon="-0.5228">
        <ele>2028</ele>
        <time>2018-12-27T18:16:45Z</time>
      </trkpt>
      <trkpt lat="42.80859" lon="-0.52266">
        <ele>2026</ele>
        <time>2018-12-27T18:16:51Z</time>
      </trkpt>
      <trkpt lat="42.80856" lon="-0.52262">
        <ele>2026</ele>
        <time>2018-12-27T18:16:53Z</time>
      </trkpt>
      <trkpt lat="42.80845" lon="-0.52256">
        <ele>2025</ele>
        <time>2018-12-27T18:16:56Z</time>
      </trkpt>
      <trkpt lat="42.80841" lon="-0.52244">
        <ele>2023</ele>
        <time>2018-12-27T18:16:58Z</time>
      </trkpt>
      <trkpt lat="42.80825" lon="-0.52241">
        <ele>2023</ele>
        <time>2018-12-27T18:17:03Z</time>
      </trkpt>
      <trkpt lat="42.80814" lon="-0.52237">
        <ele>2022</ele>
        <time>2018-12-27T18:17:06Z</time>
      </trkpt>
      <trkpt lat="42.80809" lon="-0.5223">
        <ele>2019</ele>
        <time>2018-12-27T18:17:08Z</time>
      </trkpt>
      <trkpt lat="42.80808" lon="-0.52205">
        <ele>2011</ele>
        <time>2018-12-27T18:17:12Z</time>
      </trkpt>
      <trkpt lat="42.80805" lon="-0.5219">
        <ele>2007</ele>
        <time>2018-12-27T18:17:16Z</time>
      </trkpt>
      <trkpt lat="42.80802" lon="-0.52182">
        <ele>2006</ele>
        <time>2018-12-27T18:17:17Z</time>
      </trkpt>
      <trkpt lat="42.80802" lon="-0.52175">
        <ele>2005</ele>
        <time>2018-12-27T18:17:19Z</time>
      </trkpt>
      <trkpt lat="42.80803" lon="-0.52168">
        <ele>2004</ele>
        <time>2018-12-27T18:17:20Z</time>
      </trkpt>
      <trkpt lat="42.80808" lon="-0.52163">
        <ele>2003</ele>
        <time>2018-12-27T18:17:22Z</time>
      </trkpt>
      <trkpt lat="42.80812" lon="-0.52149">
        <ele>1998</ele>
        <time>2018-12-27T18:17:25Z</time>
      </trkpt>
      <trkpt lat="42.80815" lon="-0.52143">
        <ele>1996</ele>
        <time>2018-12-27T18:17:26Z</time>
      </trkpt>
      <trkpt lat="42.80815" lon="-0.52133">
        <ele>1992</ele>
        <time>2018-12-27T18:17:28Z</time>
      </trkpt>
      <trkpt lat="42.80819" lon="-0.52117">
        <ele>1985</ele>
        <time>2018-12-27T18:17:31Z</time>
      </trkpt>
      <trkpt lat="42.80827" lon="-0.52098">
        <ele>1979</ele>
        <time>2018-12-27T18:17:36Z</time>
      </trkpt>
      <trkpt lat="42.80831" lon="-0.52092">
        <ele>1977</ele>
        <time>2018-12-27T18:17:37Z</time>
      </trkpt>
      <trkpt lat="42.80833" lon="-0.52083">
        <ele>1974</ele>
        <time>2018-12-27T18:17:39Z</time>
      </trkpt>
      <trkpt lat="42.80835" lon="-0.52068">
        <ele>1972</ele>
        <time>2018-12-27T18:17:42Z</time>
      </trkpt>
      <trkpt lat="42.80833" lon="-0.52055">
        <ele>1969</ele>
        <time>2018-12-27T18:17:45Z</time>
      </trkpt>
      <trkpt lat="42.80837" lon="-0.52049">
        <ele>1967</ele>
        <time>2018-12-27T18:17:46Z</time>
      </trkpt>
      <trkpt lat="42.80839" lon="-0.52041">
        <ele>1965</ele>
        <time>2018-12-27T18:17:48Z</time>
      </trkpt>
      <trkpt lat="42.80844" lon="-0.52039">
        <ele>1964</ele>
        <time>2018-12-27T18:17:49Z</time>
      </trkpt>
      <trkpt lat="42.8085" lon="-0.5203">
        <ele>1962</ele>
        <time>2018-12-27T18:17:52Z</time>
      </trkpt>
      <trkpt lat="42.80862" lon="-0.52004">
        <ele>1957</ele>
        <time>2018-12-27T18:17:58Z</time>
      </trkpt>
      <trkpt lat="42.80864" lon="-0.51997">
        <ele>1955</ele>
        <time>2018-12-27T18:17:59Z</time>
      </trkpt>
      <trkpt lat="42.80871" lon="-0.51985">
        <ele>1951</ele>
        <time>2018-12-27T18:18:02Z</time>
      </trkpt>
      <trkpt lat="42.80877" lon="-0.51969">
        <ele>1946</ele>
        <time>2018-12-27T18:18:05Z</time>
      </trkpt>
      <trkpt lat="42.80877" lon="-0.51963">
        <ele>1944</ele>
        <time>2018-12-27T18:18:07Z</time>
      </trkpt>
      <trkpt lat="42.80884" lon="-0.51952">
        <ele>1940</ele>
        <time>2018-12-27T18:18:10Z</time>
      </trkpt>
      <trkpt lat="42.80884" lon="-0.51943">
        <ele>1937</ele>
        <time>2018-12-27T18:18:11Z</time>
      </trkpt>
      <trkpt lat="42.80891" lon="-0.51929">
        <ele>1926</ele>
        <time>2018-12-27T18:18:15Z</time>
      </trkpt>
      <trkpt lat="42.8089" lon="-0.51922">
        <ele>1921</ele>
        <time>2018-12-27T18:18:16Z</time>
      </trkpt>
      <trkpt lat="42.80896" lon="-0.51908">
        <ele>1914</ele>
        <time>2018-12-27T18:18:19Z</time>
      </trkpt>
      <trkpt lat="42.80909" lon="-0.51898">
        <ele>1913</ele>
        <time>2018-12-27T18:18:23Z</time>
      </trkpt>
      <trkpt lat="42.80912" lon="-0.51893">
        <ele>1913</ele>
        <time>2018-12-27T18:18:24Z</time>
      </trkpt>
      <trkpt lat="42.80913" lon="-0.51885">
        <ele>1904</ele>
        <time>2018-12-27T18:18:26Z</time>
      </trkpt>
      <trkpt lat="42.80912" lon="-0.51879">
        <ele>1892</ele>
        <time>2018-12-27T18:18:27Z</time>
      </trkpt>
      <trkpt lat="42.80914" lon="-0.51866">
        <ele>1870</ele>
        <time>2018-12-27T18:18:30Z</time>
      </trkpt>
      <trkpt lat="42.8092" lon="-0.51857">
        <ele>1860</ele>
        <time>2018-12-27T18:18:32Z</time>
      </trkpt>
      <trkpt lat="42.80923" lon="-0.51843">
        <ele>1855</ele>
        <time>2018-12-27T18:18:35Z</time>
      </trkpt>
      <trkpt lat="42.80919" lon="-0.51841">
        <ele>1854</ele>
        <time>2018-12-27T18:18:36Z</time>
      </trkpt>
      <trkpt lat="42.80918" lon="-0.51833">
        <ele>1851</ele>
        <time>2018-12-27T18:18:38Z</time>
      </trkpt>
      <trkpt lat="42.80919" lon="-0.51826">
        <ele>1851</ele>
        <time>2018-12-27T18:18:39Z</time>
      </trkpt>
      <trkpt lat="42.80917" lon="-0.51803">
        <ele>1853</ele>
        <time>2018-12-27T18:18:44Z</time>
      </trkpt>
      <trkpt lat="42.80925" lon="-0.51793">
        <ele>1848</ele>
        <time>2018-12-27T18:18:47Z</time>
      </trkpt>
      <trkpt lat="42.80926" lon="-0.51785">
        <ele>1846</ele>
        <time>2018-12-27T18:18:48Z</time>
      </trkpt>
      <trkpt lat="42.80923" lon="-0.51777">
        <ele>1844</ele>
        <time>2018-12-27T18:18:50Z</time>
      </trkpt>
      <trkpt lat="42.80931" lon="-0.5177">
        <ele>1839</ele>
        <time>2018-12-27T18:18:52Z</time>
      </trkpt>
      <trkpt lat="42.80934" lon="-0.51754">
        <ele>1829</ele>
        <time>2018-12-27T18:18:56Z</time>
      </trkpt>
      <trkpt lat="42.80941" lon="-0.51745">
        <ele>1823</ele>
        <time>2018-12-27T18:18:58Z</time>
      </trkpt>
      <trkpt lat="42.8094" lon="-0.51738">
        <ele>1824</ele>
        <time>2018-12-27T18:19:00Z</time>
      </trkpt>
      <trkpt lat="42.80918" lon="-0.51727">
        <ele>1825</ele>
        <time>2018-12-27T18:19:06Z</time>
      </trkpt>
      <trkpt lat="42.80911" lon="-0.51716">
        <ele>1822</ele>
        <time>2018-12-27T18:19:09Z</time>
      </trkpt>
      <trkpt lat="42.80905" lon="-0.51712">
        <ele>1821</ele>
        <time>2018-12-27T18:19:11Z</time>
      </trkpt>
      <trkpt lat="42.80899" lon="-0.51711">
        <ele>1820</ele>
        <time>2018-12-27T18:19:12Z</time>
      </trkpt>
      <trkpt lat="42.80894" lon="-0.51712">
        <ele>1820</ele>
        <time>2018-12-27T18:19:14Z</time>
      </trkpt>
      <trkpt lat="42.8089" lon="-0.51715">
        <ele>1820</ele>
        <time>2018-12-27T18:19:15Z</time>
      </trkpt>
      <trkpt lat="42.80879" lon="-0.51731">
        <ele>1824</ele>
        <time>2018-12-27T18:19:19Z</time>
      </trkpt>
      <trkpt lat="42.80859" lon="-0.51749">
        <ele>1829</ele>
        <time>2018-12-27T18:19:25Z</time>
      </trkpt>
      <trkpt lat="42.80848" lon="-0.51756">
        <ele>1827</ele>
        <time>2018-12-27T18:19:29Z</time>
      </trkpt>
      <trkpt lat="42.80842" lon="-0.51757">
        <ele>1825</ele>
        <time>2018-12-27T18:19:30Z</time>
      </trkpt>
      <trkpt lat="42.80827" lon="-0.51765">
        <ele>1822</ele>
        <time>2018-12-27T18:19:35Z</time>
      </trkpt>
      <trkpt lat="42.80806" lon="-0.51778">
        <ele>1816</ele>
        <time>2018-12-27T18:19:41Z</time>
      </trkpt>
      <trkpt lat="42.80793" lon="-0.51794">
        <ele>1819</ele>
        <time>2018-12-27T18:19:45Z</time>
      </trkpt>
      <trkpt lat="42.80773" lon="-0.51811">
        <ele>1819</ele>
        <time>2018-12-27T18:19:52Z</time>
      </trkpt>
      <trkpt lat="42.80765" lon="-0.51823">
        <ele>1822</ele>
        <time>2018-12-27T18:19:55Z</time>
      </trkpt>
      <trkpt lat="42.8075" lon="-0.51829">
        <ele>1816</ele>
        <time>2018-12-27T18:19:59Z</time>
      </trkpt>
      <trkpt lat="42.80739" lon="-0.51831">
        <ele>1818</ele>
        <time>2018-12-27T18:20:02Z</time>
      </trkpt>
      <trkpt lat="42.80695" lon="-0.51831">
        <ele>1812</ele>
        <time>2018-12-27T18:20:14Z</time>
      </trkpt>
      <trkpt lat="42.80672" lon="-0.51843">
        <ele>1808</ele>
        <time>2018-12-27T18:20:20Z</time>
      </trkpt>
      <trkpt lat="42.80663" lon="-0.5185">
        <ele>1807</ele>
        <time>2018-12-27T18:20:23Z</time>
      </trkpt>
      <trkpt lat="42.8065" lon="-0.51864">
        <ele>1806</ele>
        <time>2018-12-27T18:20:27Z</time>
      </trkpt>
      <trkpt lat="42.80638" lon="-0.51888">
        <ele>1808</ele>
        <time>2018-12-27T18:20:33Z</time>
      </trkpt>
      <trkpt lat="42.80633" lon="-0.51893">
        <ele>1809</ele>
        <time>2018-12-27T18:20:35Z</time>
      </trkpt>
      <trkpt lat="42.80619" lon="-0.51905">
        <ele>1809</ele>
        <time>2018-12-27T18:20:39Z</time>
      </trkpt>
      <trkpt lat="42.80609" lon="-0.51911">
        <ele>1807</ele>
        <time>2018-12-27T18:20:42Z</time>
      </trkpt>
      <trkpt lat="42.80595" lon="-0.51921">
        <ele>1802</ele>
        <time>2018-12-27T18:20:46Z</time>
      </trkpt>
      <trkpt lat="42.80567" lon="-0.51954">
        <ele>1789</ele>
        <time>2018-12-27T18:20:56Z</time>
      </trkpt>
      <trkpt lat="42.80561" lon="-0.51957">
        <ele>1786</ele>
        <time>2018-12-27T18:20:58Z</time>
      </trkpt>
      <trkpt lat="42.80545" lon="-0.51963">
        <ele>1780</ele>
        <time>2018-12-27T18:21:02Z</time>
      </trkpt>
      <trkpt lat="42.8053" lon="-0.51989">
        <ele>1782</ele>
        <time>2018-12-27T18:21:09Z</time>
      </trkpt>
      <trkpt lat="42.80497" lon="-0.52031">
        <ele>1781</ele>
        <time>2018-12-27T18:21:21Z</time>
      </trkpt>
      <trkpt lat="42.80486" lon="-0.52051">
        <ele>1777</ele>
        <time>2018-12-27T18:21:26Z</time>
      </trkpt>
      <trkpt lat="42.80485" lon="-0.52058">
        <ele>1779</ele>
        <time>2018-12-27T18:21:27Z</time>
      </trkpt>
      <trkpt lat="42.80473" lon="-0.52075">
        <ele>1773</ele>
        <time>2018-12-27T18:21:32Z</time>
      </trkpt>
      <trkpt lat="42.8047" lon="-0.52091">
        <ele>1777</ele>
        <time>2018-12-27T18:21:35Z</time>
      </trkpt>
      <trkpt lat="42.80467" lon="-0.52096">
        <ele>1778</ele>
        <time>2018-12-27T18:21:36Z</time>
      </trkpt>
      <trkpt lat="42.8046" lon="-0.52097">
        <ele>1776</ele>
        <time>2018-12-27T18:21:38Z</time>
      </trkpt>
      <trkpt lat="42.8045" lon="-0.52094">
        <ele>1772</ele>
        <time>2018-12-27T18:21:41Z</time>
      </trkpt>
      <trkpt lat="42.8044" lon="-0.52086">
        <ele>1767</ele>
        <time>2018-12-27T18:21:44Z</time>
      </trkpt>
      <trkpt lat="42.80428" lon="-0.52084">
        <ele>1768</ele>
        <time>2018-12-27T18:21:47Z</time>
      </trkpt>
      <trkpt lat="42.80416" lon="-0.52109">
        <ele>1773</ele>
        <time>2018-12-27T18:21:53Z</time>
      </trkpt>
      <trkpt lat="42.80411" lon="-0.52113">
        <ele>1773</ele>
        <time>2018-12-27T18:21:55Z</time>
      </trkpt>
      <trkpt lat="42.80406" lon="-0.52114">
        <ele>1772</ele>
        <time>2018-12-27T18:21:56Z</time>
      </trkpt>
      <trkpt lat="42.80401" lon="-0.52118">
        <ele>1772</ele>
        <time>2018-12-27T18:21:57Z</time>
      </trkpt>
      <trkpt lat="42.80397" lon="-0.52123">
        <ele>1773</ele>
        <time>2018-12-27T18:21:59Z</time>
      </trkpt>
      <trkpt lat="42.80382" lon="-0.52126">
        <ele>1771</ele>
        <time>2018-12-27T18:22:03Z</time>
      </trkpt>
      <trkpt lat="42.80376" lon="-0.52123">
        <ele>1769</ele>
        <time>2018-12-27T18:22:05Z</time>
      </trkpt>
      <trkpt lat="42.80369" lon="-0.52123">
        <ele>1767</ele>
        <time>2018-12-27T18:22:06Z</time>
      </trkpt>
      <trkpt lat="42.80358" lon="-0.52127">
        <ele>1766</ele>
        <time>2018-12-27T18:22:09Z</time>
      </trkpt>
      <trkpt lat="42.80351" lon="-0.52125">
        <ele>1764</ele>
        <time>2018-12-27T18:22:11Z</time>
      </trkpt>
      <trkpt lat="42.80337" lon="-0.52128">
        <ele>1764</ele>
        <time>2018-12-27T18:22:15Z</time>
      </trkpt>
      <trkpt lat="42.80328" lon="-0.52133">
        <ele>1765</ele>
        <time>2018-12-27T18:22:18Z</time>
      </trkpt>
      <trkpt lat="42.80314" lon="-0.52144">
        <ele>1767</ele>
        <time>2018-12-27T18:22:22Z</time>
      </trkpt>
      <trkpt lat="42.80302" lon="-0.52157">
        <ele>1769</ele>
        <time>2018-12-27T18:22:26Z</time>
      </trkpt>
      <trkpt lat="42.80288" lon="-0.52165">
        <ele>1767</ele>
        <time>2018-12-27T18:22:30Z</time>
      </trkpt>
      <trkpt lat="42.80272" lon="-0.52169">
        <ele>1764</ele>
        <time>2018-12-27T18:22:34Z</time>
      </trkpt>
      <trkpt lat="42.80245" lon="-0.52173">
        <ele>1761</ele>
        <time>2018-12-27T18:22:42Z</time>
      </trkpt>
      <trkpt lat="42.8023" lon="-0.52172">
        <ele>1754</ele>
        <time>2018-12-27T18:22:46Z</time>
      </trkpt>
      <trkpt lat="42.80219" lon="-0.52169">
        <ele>1748</ele>
        <time>2018-12-27T18:22:49Z</time>
      </trkpt>
      <trkpt lat="42.80212" lon="-0.52172">
        <ele>1748</ele>
        <time>2018-12-27T18:22:51Z</time>
      </trkpt>
      <trkpt lat="42.80197" lon="-0.52184">
        <ele>1752</ele>
        <time>2018-12-27T18:22:55Z</time>
      </trkpt>
      <trkpt lat="42.80174" lon="-0.52196">
        <ele>1752</ele>
        <time>2018-12-27T18:23:02Z</time>
      </trkpt>
      <trkpt lat="42.80163" lon="-0.52199">
        <ele>1750</ele>
        <time>2018-12-27T18:23:05Z</time>
      </trkpt>
      <trkpt lat="42.80128" lon="-0.52224">
        <ele>1743</ele>
        <time>2018-12-27T18:23:15Z</time>
      </trkpt>
      <trkpt lat="42.80112" lon="-0.5223">
        <ele>1735</ele>
        <time>2018-12-27T18:23:20Z</time>
      </trkpt>
      <trkpt lat="42.80099" lon="-0.52238">
        <ele>1732</ele>
        <time>2018-12-27T18:23:24Z</time>
      </trkpt>
      <trkpt lat="42.80087" lon="-0.52242">
        <ele>1727</ele>
        <time>2018-12-27T18:23:27Z</time>
      </trkpt>
      <trkpt lat="42.80065" lon="-0.52243">
        <ele>1719</ele>
        <time>2018-12-27T18:23:33Z</time>
      </trkpt>
      <trkpt lat="42.80059" lon="-0.52255">
        <ele>1720</ele>
        <time>2018-12-27T18:23:35Z</time>
      </trkpt>
      <trkpt lat="42.80046" lon="-0.52266">
        <ele>1718</ele>
        <time>2018-12-27T18:23:40Z</time>
      </trkpt>
      <trkpt lat="42.80038" lon="-0.52269">
        <ele>1715</ele>
        <time>2018-12-27T18:23:42Z</time>
      </trkpt>
      <trkpt lat="42.80022" lon="-0.52271">
        <ele>1711</ele>
        <time>2018-12-27T18:23:46Z</time>
      </trkpt>
      <trkpt lat="42.80018" lon="-0.52273">
        <ele>1710</ele>
        <time>2018-12-27T18:23:47Z</time>
      </trkpt>
      <trkpt lat="42.8" lon="-0.52288">
        <ele>1709</ele>
        <time>2018-12-27T18:23:53Z</time>
      </trkpt>
      <trkpt lat="42.79994" lon="-0.52293">
        <ele>1707</ele>
        <time>2018-12-27T18:23:55Z</time>
      </trkpt>
      <trkpt lat="42.79989" lon="-0.52294">
        <ele>1704</ele>
        <time>2018-12-27T18:23:56Z</time>
      </trkpt>
      <trkpt lat="42.79972" lon="-0.52292">
        <ele>1697</ele>
        <time>2018-12-27T18:24:01Z</time>
      </trkpt>
      <trkpt lat="42.79955" lon="-0.52296">
        <ele>1688</ele>
        <time>2018-12-27T18:24:05Z</time>
      </trkpt>
      <trkpt lat="42.79943" lon="-0.52295">
        <ele>1683</ele>
        <time>2018-12-27T18:24:09Z</time>
      </trkpt>
      <trkpt lat="42.79939" lon="-0.52292">
        <ele>1682</ele>
        <time>2018-12-27T18:24:10Z</time>
      </trkpt>
      <trkpt lat="42.79936" lon="-0.52286">
        <ele>1683</ele>
        <time>2018-12-27T18:24:11Z</time>
      </trkpt>
      <trkpt lat="42.79924" lon="-0.52269">
        <ele>1682</ele>
        <time>2018-12-27T18:24:16Z</time>
      </trkpt>
      <trkpt lat="42.79919" lon="-0.52271">
        <ele>1680</ele>
        <time>2018-12-27T18:24:17Z</time>
      </trkpt>
      <trkpt lat="42.79906" lon="-0.52285">
        <ele>1678</ele>
        <time>2018-12-27T18:24:22Z</time>
      </trkpt>
      <trkpt lat="42.79901" lon="-0.52286">
        <ele>1677</ele>
        <time>2018-12-27T18:24:23Z</time>
      </trkpt>
      <trkpt lat="42.79876" lon="-0.52313">
        <ele>1674</ele>
        <time>2018-12-27T18:24:32Z</time>
      </trkpt>
      <trkpt lat="42.79869" lon="-0.52313">
        <ele>1673</ele>
        <time>2018-12-27T18:24:33Z</time>
      </trkpt>
      <trkpt lat="42.79853" lon="-0.52322">
        <ele>1674</ele>
        <time>2018-12-27T18:24:38Z</time>
      </trkpt>
      <trkpt lat="42.79848" lon="-0.52323">
        <ele>1675</ele>
        <time>2018-12-27T18:24:39Z</time>
      </trkpt>
      <trkpt lat="42.79839" lon="-0.52329">
        <ele>1677</ele>
        <time>2018-12-27T18:24:42Z</time>
      </trkpt>
      <trkpt lat="42.79833" lon="-0.52327">
        <ele>1677</ele>
        <time>2018-12-27T18:24:44Z</time>
      </trkpt>
      <trkpt lat="42.79817" lon="-0.52318">
        <ele>1678</ele>
        <time>2018-12-27T18:24:48Z</time>
      </trkpt>
      <trkpt lat="42.79811" lon="-0.52322">
        <ele>1679</ele>
        <time>2018-12-27T18:24:50Z</time>
      </trkpt>
      <trkpt lat="42.79807" lon="-0.52327">
        <ele>1679</ele>
        <time>2018-12-27T18:24:52Z</time>
      </trkpt>
      <trkpt lat="42.79794" lon="-0.52352">
        <ele>1675</ele>
        <time>2018-12-27T18:24:58Z</time>
      </trkpt>
      <trkpt lat="42.79788" lon="-0.52355">
        <ele>1674</ele>
        <time>2018-12-27T18:24:59Z</time>
      </trkpt>
      <trkpt lat="42.79782" lon="-0.5236">
        <ele>1673</ele>
        <time>2018-12-27T18:25:01Z</time>
      </trkpt>
      <trkpt lat="42.79779" lon="-0.52365">
        <ele>1673</ele>
        <time>2018-12-27T18:25:02Z</time>
      </trkpt>
      <trkpt lat="42.79776" lon="-0.52378">
        <ele>1673</ele>
        <time>2018-12-27T18:25:05Z</time>
      </trkpt>
      <trkpt lat="42.79772" lon="-0.52383">
        <ele>1672</ele>
        <time>2018-12-27T18:25:06Z</time>
      </trkpt>
      <trkpt lat="42.79766" lon="-0.52382">
        <ele>1672</ele>
        <time>2018-12-27T18:25:08Z</time>
      </trkpt>
      <trkpt lat="42.79761" lon="-0.52388">
        <ele>1671</ele>
        <time>2018-12-27T18:25:10Z</time>
      </trkpt>
      <trkpt lat="42.79752" lon="-0.5239">
        <ele>1670</ele>
        <time>2018-12-27T18:25:12Z</time>
      </trkpt>
      <trkpt lat="42.79729" lon="-0.52391">
        <ele>1665</ele>
        <time>2018-12-27T18:25:19Z</time>
      </trkpt>
      <trkpt lat="42.79724" lon="-0.52395">
        <ele>1664</ele>
        <time>2018-12-27T18:25:20Z</time>
      </trkpt>
      <trkpt lat="42.79721" lon="-0.52402">
        <ele>1663</ele>
        <time>2018-12-27T18:25:22Z</time>
      </trkpt>
      <trkpt lat="42.79718" lon="-0.52416">
        <ele>1662</ele>
        <time>2018-12-27T18:25:24Z</time>
      </trkpt>
      <trkpt lat="42.79711" lon="-0.52441">
        <ele>1660</ele>
        <time>2018-12-27T18:25:30Z</time>
      </trkpt>
      <trkpt lat="42.79708" lon="-0.52446">
        <ele>1659</ele>
        <time>2018-12-27T18:25:31Z</time>
      </trkpt>
      <trkpt lat="42.7971" lon="-0.52458">
        <ele>1660</ele>
        <time>2018-12-27T18:25:33Z</time>
      </trkpt>
      <trkpt lat="42.79717" lon="-0.52481">
        <ele>1661</ele>
        <time>2018-12-27T18:25:38Z</time>
      </trkpt>
      <trkpt lat="42.79717" lon="-0.52488">
        <ele>1660</ele>
        <time>2018-12-27T18:25:40Z</time>
      </trkpt>
      <trkpt lat="42.7971" lon="-0.52491">
        <ele>1660</ele>
        <time>2018-12-27T18:25:41Z</time>
      </trkpt>
      <trkpt lat="42.79705" lon="-0.52487">
        <ele>1659</ele>
        <time>2018-12-27T18:25:43Z</time>
      </trkpt>
      <trkpt lat="42.79694" lon="-0.52471">
        <ele>1658</ele>
        <time>2018-12-27T18:25:47Z</time>
      </trkpt>
      <trkpt lat="42.79686" lon="-0.52462">
        <ele>1656</ele>
        <time>2018-12-27T18:25:50Z</time>
      </trkpt>
      <trkpt lat="42.79676" lon="-0.52445">
        <ele>1652</ele>
        <time>2018-12-27T18:25:54Z</time>
      </trkpt>
      <trkpt lat="42.79668" lon="-0.52439">
        <ele>1650</ele>
        <time>2018-12-27T18:25:57Z</time>
      </trkpt>
      <trkpt lat="42.79657" lon="-0.52446">
        <ele>1645</ele>
        <time>2018-12-27T18:26:00Z</time>
      </trkpt>
      <trkpt lat="42.79652" lon="-0.52446">
        <ele>1643</ele>
        <time>2018-12-27T18:26:01Z</time>
      </trkpt>
      <trkpt lat="42.79639" lon="-0.52455">
        <ele>1638</ele>
        <time>2018-12-27T18:26:05Z</time>
      </trkpt>
      <trkpt lat="42.79627" lon="-0.52458">
        <ele>1635</ele>
        <time>2018-12-27T18:26:08Z</time>
      </trkpt>
      <trkpt lat="42.79614" lon="-0.52476">
        <ele>1633</ele>
        <time>2018-12-27T18:26:13Z</time>
      </trkpt>
      <trkpt lat="42.79613" lon="-0.52483">
        <ele>1633</ele>
        <time>2018-12-27T18:26:15Z</time>
      </trkpt>
      <trkpt lat="42.79609" lon="-0.52489">
        <ele>1633</ele>
        <time>2018-12-27T18:26:16Z</time>
      </trkpt>
      <trkpt lat="42.79604" lon="-0.52488">
        <ele>1632</ele>
        <time>2018-12-27T18:26:18Z</time>
      </trkpt>
      <trkpt lat="42.796" lon="-0.52483">
        <ele>1632</ele>
        <time>2018-12-27T18:26:19Z</time>
      </trkpt>
      <trkpt lat="42.79595" lon="-0.52482">
        <ele>1631</ele>
        <time>2018-12-27T18:26:20Z</time>
      </trkpt>
      <trkpt lat="42.79584" lon="-0.52483">
        <ele>1631</ele>
        <time>2018-12-27T18:26:23Z</time>
      </trkpt>
      <trkpt lat="42.79574" lon="-0.52486">
        <ele>1630</ele>
        <time>2018-12-27T18:26:26Z</time>
      </trkpt>
      <trkpt lat="42.79568" lon="-0.52493">
        <ele>1631</ele>
        <time>2018-12-27T18:26:28Z</time>
      </trkpt>
      <trkpt lat="42.79563" lon="-0.52504">
        <ele>1632</ele>
        <time>2018-12-27T18:26:31Z</time>
      </trkpt>
      <trkpt lat="42.7956" lon="-0.52515">
        <ele>1633</ele>
        <time>2018-12-27T18:26:33Z</time>
      </trkpt>
      <trkpt lat="42.79559" lon="-0.52529">
        <ele>1635</ele>
        <time>2018-12-27T18:26:36Z</time>
      </trkpt>
      <trkpt lat="42.79555" lon="-0.52536">
        <ele>1635</ele>
        <time>2018-12-27T18:26:38Z</time>
      </trkpt>
      <trkpt lat="42.79544" lon="-0.52538">
        <ele>1634</ele>
        <time>2018-12-27T18:26:40Z</time>
      </trkpt>
      <trkpt lat="42.79543" lon="-0.52546">
        <ele>1635</ele>
        <time>2018-12-27T18:26:42Z</time>
      </trkpt>
      <trkpt lat="42.79538" lon="-0.52549">
        <ele>1634</ele>
        <time>2018-12-27T18:26:43Z</time>
      </trkpt>
      <trkpt lat="42.79533" lon="-0.52549">
        <ele>1634</ele>
        <time>2018-12-27T18:26:45Z</time>
      </trkpt>
      <trkpt lat="42.79529" lon="-0.52553">
        <ele>1634</ele>
        <time>2018-12-27T18:26:46Z</time>
      </trkpt>
      <trkpt lat="42.79527" lon="-0.52558">
        <ele>1634</ele>
        <time>2018-12-27T18:26:47Z</time>
      </trkpt>
      <trkpt lat="42.79527" lon="-0.52565">
        <ele>1634</ele>
        <time>2018-12-27T18:26:49Z</time>
      </trkpt>
      <trkpt lat="42.79524" lon="-0.52572">
        <ele>1634</ele>
        <time>2018-12-27T18:26:50Z</time>
      </trkpt>
      <trkpt lat="42.79522" lon="-0.52586">
        <ele>1634</ele>
        <time>2018-12-27T18:26:53Z</time>
      </trkpt>
      <trkpt lat="42.79519" lon="-0.52592">
        <ele>1634</ele>
        <time>2018-12-27T18:26:54Z</time>
      </trkpt>
      <trkpt lat="42.79509" lon="-0.52598">
        <ele>1634</ele>
        <time>2018-12-27T18:26:57Z</time>
      </trkpt>
      <trkpt lat="42.79503" lon="-0.52596">
        <ele>1634</ele>
        <time>2018-12-27T18:26:59Z</time>
      </trkpt>
      <trkpt lat="42.79492" lon="-0.52596">
        <ele>1634</ele>
        <time>2018-12-27T18:27:02Z</time>
      </trkpt>
      <trkpt lat="42.79488" lon="-0.52599">
        <ele>1634</ele>
        <time>2018-12-27T18:27:03Z</time>
      </trkpt>
      <trkpt lat="42.79475" lon="-0.5262">
        <ele>1637</ele>
        <time>2018-12-27T18:27:08Z</time>
      </trkpt>
      <trkpt lat="42.79466" lon="-0.52631">
        <ele>1639</ele>
        <time>2018-12-27T18:27:12Z</time>
      </trkpt>
      <trkpt lat="42.79461" lon="-0.52635">
        <ele>1639</ele>
        <time>2018-12-27T18:27:13Z</time>
      </trkpt>
      <trkpt lat="42.79445" lon="-0.52642">
        <ele>1640</ele>
        <time>2018-12-27T18:27:18Z</time>
      </trkpt>
      <trkpt lat="42.79439" lon="-0.52642">
        <ele>1640</ele>
        <time>2018-12-27T18:27:19Z</time>
      </trkpt>
      <trkpt lat="42.79429" lon="-0.5264">
        <ele>1640</ele>
        <time>2018-12-27T18:27:22Z</time>
      </trkpt>
      <trkpt lat="42.7942" lon="-0.52644">
        <ele>1641</ele>
        <time>2018-12-27T18:27:24Z</time>
      </trkpt>
      <trkpt lat="42.79415" lon="-0.5265">
        <ele>1641</ele>
        <time>2018-12-27T18:27:26Z</time>
      </trkpt>
      <trkpt lat="42.79412" lon="-0.52664">
        <ele>1643</ele>
        <time>2018-12-27T18:27:29Z</time>
      </trkpt>
      <trkpt lat="42.79415" lon="-0.52711">
        <ele>1649</ele>
        <time>2018-12-27T18:27:38Z</time>
      </trkpt>
      <trkpt lat="42.79412" lon="-0.5274">
        <ele>1652</ele>
        <time>2018-12-27T18:27:44Z</time>
      </trkpt>
      <trkpt lat="42.79406" lon="-0.52753">
        <ele>1655</ele>
        <time>2018-12-27T18:27:47Z</time>
      </trkpt>
      <trkpt lat="42.79396" lon="-0.52765">
        <ele>1659</ele>
        <time>2018-12-27T18:27:51Z</time>
      </trkpt>
      <trkpt lat="42.79393" lon="-0.52781">
        <ele>1660</ele>
        <time>2018-12-27T18:27:54Z</time>
      </trkpt>
      <trkpt lat="42.79393" lon="-0.52794">
        <ele>1660</ele>
        <time>2018-12-27T18:27:56Z</time>
      </trkpt>
      <trkpt lat="42.79389" lon="-0.52797">
        <ele>1661</ele>
        <time>2018-12-27T18:27:58Z</time>
      </trkpt>
      <trkpt lat="42.79386" lon="-0.52802">
        <ele>1662</ele>
        <time>2018-12-27T18:27:59Z</time>
      </trkpt>
      <trkpt lat="42.79377" lon="-0.52804">
        <ele>1666</ele>
        <time>2018-12-27T18:28:02Z</time>
      </trkpt>
      <trkpt lat="42.79373" lon="-0.5281">
        <ele>1667</ele>
        <time>2018-12-27T18:28:03Z</time>
      </trkpt>
      <trkpt lat="42.79364" lon="-0.52816">
        <ele>1670</ele>
        <time>2018-12-27T18:28:06Z</time>
      </trkpt>
      <trkpt lat="42.79359" lon="-0.52821">
        <ele>1671</ele>
        <time>2018-12-27T18:28:07Z</time>
      </trkpt>
      <trkpt lat="42.79355" lon="-0.52835">
        <ele>1671</ele>
        <time>2018-12-27T18:28:10Z</time>
      </trkpt>
      <trkpt lat="42.79344" lon="-0.52853">
        <ele>1672</ele>
        <time>2018-12-27T18:28:15Z</time>
      </trkpt>
      <trkpt lat="42.79341" lon="-0.52859">
        <ele>1672</ele>
        <time>2018-12-27T18:28:16Z</time>
      </trkpt>
      <trkpt lat="42.79337" lon="-0.52894">
        <ele>1670</ele>
        <time>2018-12-27T18:28:23Z</time>
      </trkpt>
      <trkpt lat="42.79335" lon="-0.529">
        <ele>1670</ele>
        <time>2018-12-27T18:28:25Z</time>
      </trkpt>
      <trkpt lat="42.79331" lon="-0.52904">
        <ele>1670</ele>
        <time>2018-12-27T18:28:26Z</time>
      </trkpt>
      <trkpt lat="42.79321" lon="-0.52905">
        <ele>1672</ele>
        <time>2018-12-27T18:28:29Z</time>
      </trkpt>
      <trkpt lat="42.79309" lon="-0.52904">
        <ele>1674</ele>
        <time>2018-12-27T18:28:32Z</time>
      </trkpt>
      <trkpt lat="42.79292" lon="-0.52904">
        <ele>1676</ele>
        <time>2018-12-27T18:28:36Z</time>
      </trkpt>
      <trkpt lat="42.79281" lon="-0.52911">
        <ele>1677</ele>
        <time>2018-12-27T18:28:39Z</time>
      </trkpt>
      <trkpt lat="42.79256" lon="-0.52939">
        <ele>1678</ele>
        <time>2018-12-27T18:28:48Z</time>
      </trkpt>
      <trkpt lat="42.79251" lon="-0.52941">
        <ele>1678</ele>
        <time>2018-12-27T18:28:49Z</time>
      </trkpt>
      <trkpt lat="42.7924" lon="-0.52943">
        <ele>1680</ele>
        <time>2018-12-27T18:28:52Z</time>
      </trkpt>
      <trkpt lat="42.79229" lon="-0.52941">
        <ele>1681</ele>
        <time>2018-12-27T18:28:55Z</time>
      </trkpt>
      <trkpt lat="42.79223" lon="-0.52942">
        <ele>1682</ele>
        <time>2018-12-27T18:28:57Z</time>
      </trkpt>
      <trkpt lat="42.79213" lon="-0.52943">
        <ele>1683</ele>
        <time>2018-12-27T18:29:00Z</time>
      </trkpt>
      <trkpt lat="42.79203" lon="-0.52946">
        <ele>1685</ele>
        <time>2018-12-27T18:29:02Z</time>
      </trkpt>
      <trkpt lat="42.79191" lon="-0.52957">
        <ele>1687</ele>
        <time>2018-12-27T18:29:06Z</time>
      </trkpt>
      <trkpt lat="42.79166" lon="-0.52966">
        <ele>1689</ele>
        <time>2018-12-27T18:29:13Z</time>
      </trkpt>
      <trkpt lat="42.79161" lon="-0.52971">
        <ele>1689</ele>
        <time>2018-12-27T18:29:15Z</time>
      </trkpt>
      <trkpt lat="42.79159" lon="-0.52977">
        <ele>1689</ele>
        <time>2018-12-27T18:29:16Z</time>
      </trkpt>
      <trkpt lat="42.79148" lon="-0.53035">
        <ele>1690</ele>
        <time>2018-12-27T18:29:28Z</time>
      </trkpt>
      <trkpt lat="42.79144" lon="-0.53081">
        <ele>1691</ele>
        <time>2018-12-27T18:29:37Z</time>
      </trkpt>
      <trkpt lat="42.79139" lon="-0.53102">
        <ele>1690</ele>
        <time>2018-12-27T18:29:41Z</time>
      </trkpt>
      <trkpt lat="42.79136" lon="-0.53124">
        <ele>1690</ele>
        <time>2018-12-27T18:29:46Z</time>
      </trkpt>
      <trkpt lat="42.7913" lon="-0.53145">
        <ele>1688</ele>
        <time>2018-12-27T18:29:50Z</time>
      </trkpt>
      <trkpt lat="42.79127" lon="-0.5316">
        <ele>1687</ele>
        <time>2018-12-27T18:29:53Z</time>
      </trkpt>
      <trkpt lat="42.79126" lon="-0.53168">
        <ele>1686</ele>
        <time>2018-12-27T18:29:55Z</time>
      </trkpt>
      <trkpt lat="42.79128" lon="-0.53175">
        <ele>1687</ele>
        <time>2018-12-27T18:29:56Z</time>
      </trkpt>
      <trkpt lat="42.79137" lon="-0.53194">
        <ele>1689</ele>
        <time>2018-12-27T18:30:00Z</time>
      </trkpt>
      <trkpt lat="42.79137" lon="-0.53203">
        <ele>1688</ele>
        <time>2018-12-27T18:30:02Z</time>
      </trkpt>
      <trkpt lat="42.79124" lon="-0.53239">
        <ele>1680</ele>
        <time>2018-12-27T18:30:10Z</time>
      </trkpt>
      <trkpt lat="42.7912" lon="-0.53244">
        <ele>1677</ele>
        <time>2018-12-27T18:30:12Z</time>
      </trkpt>
      <trkpt lat="42.79115" lon="-0.53257">
        <ele>1674</ele>
        <time>2018-12-27T18:30:14Z</time>
      </trkpt>
      <trkpt lat="42.79111" lon="-0.53262">
        <ele>1672</ele>
        <time>2018-12-27T18:30:16Z</time>
      </trkpt>
      <trkpt lat="42.79107" lon="-0.53298">
        <ele>1669</ele>
        <time>2018-12-27T18:30:23Z</time>
      </trkpt>
      <trkpt lat="42.79097" lon="-0.53347">
        <ele>1662</ele>
        <time>2018-12-27T18:30:33Z</time>
      </trkpt>
      <trkpt lat="42.79095" lon="-0.53385">
        <ele>1661</ele>
        <time>2018-12-27T18:30:40Z</time>
      </trkpt>
      <trkpt lat="42.79079" lon="-0.53447">
        <ele>1655</ele>
        <time>2018-12-27T18:30:53Z</time>
      </trkpt>
      <trkpt lat="42.79079" lon="-0.53465">
        <ele>1654</ele>
        <time>2018-12-27T18:30:57Z</time>
      </trkpt>
      <trkpt lat="42.79076" lon="-0.53487">
        <ele>1651</ele>
        <time>2018-12-27T18:31:01Z</time>
      </trkpt>
      <trkpt lat="42.79078" lon="-0.5352">
        <ele>1650</ele>
        <time>2018-12-27T18:31:08Z</time>
      </trkpt>
      <trkpt lat="42.79083" lon="-0.53569">
        <ele>1649</ele>
        <time>2018-12-27T18:31:17Z</time>
      </trkpt>
      <trkpt lat="42.79083" lon="-0.53593">
        <ele>1649</ele>
        <time>2018-12-27T18:31:22Z</time>
      </trkpt>
      <trkpt lat="42.79078" lon="-0.53607">
        <ele>1647</ele>
        <time>2018-12-27T18:31:25Z</time>
      </trkpt>
      <trkpt lat="42.79064" lon="-0.53635">
        <ele>1642</ele>
        <time>2018-12-27T18:31:32Z</time>
      </trkpt>
      <trkpt lat="42.79047" lon="-0.53641">
        <ele>1636</ele>
        <time>2018-12-27T18:31:36Z</time>
      </trkpt>
      <trkpt lat="42.79029" lon="-0.53639">
        <ele>1631</ele>
        <time>2018-12-27T18:31:41Z</time>
      </trkpt>
      <trkpt lat="42.79026" lon="-0.53625">
        <ele>1631</ele>
        <time>2018-12-27T18:31:44Z</time>
      </trkpt>
      <trkpt lat="42.79016" lon="-0.53604">
        <ele>1631</ele>
        <time>2018-12-27T18:31:49Z</time>
      </trkpt>
      <trkpt lat="42.79013" lon="-0.53597">
        <ele>1630</ele>
        <time>2018-12-27T18:31:51Z</time>
      </trkpt>
      <trkpt lat="42.79011" lon="-0.5358">
        <ele>1629</ele>
        <time>2018-12-27T18:31:54Z</time>
      </trkpt>
      <trkpt lat="42.79005" lon="-0.53558">
        <ele>1628</ele>
        <time>2018-12-27T18:31:59Z</time>
      </trkpt>
      <trkpt lat="42.79002" lon="-0.53538">
        <ele>1628</ele>
        <time>2018-12-27T18:32:03Z</time>
      </trkpt>
      <trkpt lat="42.78986" lon="-0.53484">
        <ele>1624</ele>
        <time>2018-12-27T18:32:14Z</time>
      </trkpt>
      <trkpt lat="42.78977" lon="-0.53442">
        <ele>1623</ele>
        <time>2018-12-27T18:32:23Z</time>
      </trkpt>
      <trkpt lat="42.78967" lon="-0.5342">
        <ele>1620</ele>
        <time>2018-12-27T18:32:28Z</time>
      </trkpt>
      <trkpt lat="42.78961" lon="-0.53398">
        <ele>1618</ele>
        <time>2018-12-27T18:32:32Z</time>
      </trkpt>
      <trkpt lat="42.78956" lon="-0.53394">
        <ele>1617</ele>
        <time>2018-12-27T18:32:34Z</time>
      </trkpt>
      <trkpt lat="42.78951" lon="-0.53392">
        <ele>1615</ele>
        <time>2018-12-27T18:32:35Z</time>
      </trkpt>
      <trkpt lat="42.78934" lon="-0.53392">
        <ele>1610</ele>
        <time>2018-12-27T18:32:40Z</time>
      </trkpt>
      <trkpt lat="42.78923" lon="-0.53397">
        <ele>1607</ele>
        <time>2018-12-27T18:32:43Z</time>
      </trkpt>
      <trkpt lat="42.78908" lon="-0.53408">
        <ele>1604</ele>
        <time>2018-12-27T18:32:47Z</time>
      </trkpt>
      <trkpt lat="42.78888" lon="-0.53415">
        <ele>1600</ele>
        <time>2018-12-27T18:32:53Z</time>
      </trkpt>
      <trkpt lat="42.78864" lon="-0.53417">
        <ele>1592</ele>
        <time>2018-12-27T18:32:59Z</time>
      </trkpt>
      <trkpt lat="42.78857" lon="-0.53428">
        <ele>1591</ele>
        <time>2018-12-27T18:33:02Z</time>
      </trkpt>
      <trkpt lat="42.78846" lon="-0.53456">
        <ele>1590</ele>
        <time>2018-12-27T18:33:09Z</time>
      </trkpt>
      <trkpt lat="42.78839" lon="-0.53496">
        <ele>1593</ele>
        <time>2018-12-27T18:33:17Z</time>
      </trkpt>
      <trkpt lat="42.78819" lon="-0.53535">
        <ele>1593</ele>
        <time>2018-12-27T18:33:26Z</time>
      </trkpt>
      <trkpt lat="42.78811" lon="-0.53547">
        <ele>1591</ele>
        <time>2018-12-27T18:33:29Z</time>
      </trkpt>
      <trkpt lat="42.78806" lon="-0.53551">
        <ele>1590</ele>
        <time>2018-12-27T18:33:31Z</time>
      </trkpt>
      <trkpt lat="42.78801" lon="-0.53553">
        <ele>1589</ele>
        <time>2018-12-27T18:33:32Z</time>
      </trkpt>
      <trkpt lat="42.78796" lon="-0.53551">
        <ele>1588</ele>
        <time>2018-12-27T18:33:33Z</time>
      </trkpt>
      <trkpt lat="42.78795" lon="-0.53544">
        <ele>1587</ele>
        <time>2018-12-27T18:33:35Z</time>
      </trkpt>
      <trkpt lat="42.78795" lon="-0.53536">
        <ele>1586</ele>
        <time>2018-12-27T18:33:36Z</time>
      </trkpt>
      <trkpt lat="42.78803" lon="-0.53497">
        <ele>1585</ele>
        <time>2018-12-27T18:33:44Z</time>
      </trkpt>
      <trkpt lat="42.78804" lon="-0.53489">
        <ele>1584</ele>
        <time>2018-12-27T18:33:46Z</time>
      </trkpt>
      <trkpt lat="42.78801" lon="-0.53475">
        <ele>1582</ele>
        <time>2018-12-27T18:33:49Z</time>
      </trkpt>
      <trkpt lat="42.78801" lon="-0.5346">
        <ele>1580</ele>
        <time>2018-12-27T18:33:52Z</time>
      </trkpt>
      <trkpt lat="42.78797" lon="-0.53455">
        <ele>1579</ele>
        <time>2018-12-27T18:33:53Z</time>
      </trkpt>
      <trkpt lat="42.78791" lon="-0.53454">
        <ele>1578</ele>
        <time>2018-12-27T18:33:55Z</time>
      </trkpt>
      <trkpt lat="42.78773" lon="-0.53455">
        <ele>1575</ele>
        <time>2018-12-27T18:33:59Z</time>
      </trkpt>
      <trkpt lat="42.7876" lon="-0.53466">
        <ele>1575</ele>
        <time>2018-12-27T18:34:03Z</time>
      </trkpt>
      <trkpt lat="42.78757" lon="-0.53472">
        <ele>1575</ele>
        <time>2018-12-27T18:34:05Z</time>
      </trkpt>
      <trkpt lat="42.78746" lon="-0.53535">
        <ele>1577</ele>
        <time>2018-12-27T18:34:18Z</time>
      </trkpt>
      <trkpt lat="42.78745" lon="-0.53575">
        <ele>1579</ele>
        <time>2018-12-27T18:34:25Z</time>
      </trkpt>
      <trkpt lat="42.7873" lon="-0.53672">
        <ele>1579</ele>
        <time>2018-12-27T18:34:45Z</time>
      </trkpt>
      <trkpt lat="42.78726" lon="-0.53688">
        <ele>1580</ele>
        <time>2018-12-27T18:34:48Z</time>
      </trkpt>
      <trkpt lat="42.78721" lon="-0.53703">
        <ele>1580</ele>
        <time>2018-12-27T18:34:51Z</time>
      </trkpt>
      <trkpt lat="42.78696" lon="-0.53752">
        <ele>1583</ele>
        <time>2018-12-27T18:35:03Z</time>
      </trkpt>
      <trkpt lat="42.78692" lon="-0.53766">
        <ele>1585</ele>
        <time>2018-12-27T18:35:06Z</time>
      </trkpt>
      <trkpt lat="42.78687" lon="-0.53806">
        <ele>1590</ele>
        <time>2018-12-27T18:35:14Z</time>
      </trkpt>
      <trkpt lat="42.78666" lon="-0.53871">
        <ele>1593</ele>
        <time>2018-12-27T18:35:28Z</time>
      </trkpt>
      <trkpt lat="42.78644" lon="-0.53905">
        <ele>1593</ele>
        <time>2018-12-27T18:35:37Z</time>
      </trkpt>
      <trkpt lat="42.78635" lon="-0.53926">
        <ele>1593</ele>
        <time>2018-12-27T18:35:42Z</time>
      </trkpt>
      <trkpt lat="42.7863" lon="-0.53945">
        <ele>1593</ele>
        <time>2018-12-27T18:35:46Z</time>
      </trkpt>
      <trkpt lat="42.78621" lon="-0.54081">
        <ele>1604</ele>
        <time>2018-12-27T18:36:12Z</time>
      </trkpt>
      <trkpt lat="42.78612" lon="-0.54112">
        <ele>1606</ele>
        <time>2018-12-27T18:36:19Z</time>
      </trkpt>
      <trkpt lat="42.78593" lon="-0.54191">
        <ele>1611</ele>
        <time>2018-12-27T18:36:35Z</time>
      </trkpt>
      <trkpt lat="42.78575" lon="-0.54275">
        <ele>1614</ele>
        <time>2018-12-27T18:36:52Z</time>
      </trkpt>
      <trkpt lat="42.7856" lon="-0.54329">
        <ele>1615</ele>
        <time>2018-12-27T18:37:04Z</time>
      </trkpt>
      <trkpt lat="42.78548" lon="-0.54355">
        <ele>1614</ele>
        <time>2018-12-27T18:37:10Z</time>
      </trkpt>
      <trkpt lat="42.7853" lon="-0.54389">
        <ele>1612</ele>
        <time>2018-12-27T18:37:18Z</time>
      </trkpt>
      <trkpt lat="42.78497" lon="-0.54484">
        <ele>1623</ele>
        <time>2018-12-27T18:37:38Z</time>
      </trkpt>
      <trkpt lat="42.78495" lon="-0.54525">
        <ele>1623</ele>
        <time>2018-12-27T18:37:46Z</time>
      </trkpt>
      <trkpt lat="42.78495" lon="-0.54552">
        <ele>1623</ele>
        <time>2018-12-27T18:37:52Z</time>
      </trkpt>
      <trkpt lat="42.7849" lon="-0.5458">
        <ele>1623</ele>
        <time>2018-12-27T18:37:57Z</time>
      </trkpt>
      <trkpt lat="42.78478" lon="-0.54625">
        <ele>1623</ele>
        <time>2018-12-27T18:38:07Z</time>
      </trkpt>
      <trkpt lat="42.78469" lon="-0.54651">
        <ele>1621</ele>
        <time>2018-12-27T18:38:12Z</time>
      </trkpt>
      <trkpt lat="42.78459" lon="-0.54688">
        <ele>1620</ele>
        <time>2018-12-27T18:38:20Z</time>
      </trkpt>
      <trkpt lat="42.78445" lon="-0.54725">
        <ele>1626</ele>
        <time>2018-12-27T18:38:28Z</time>
      </trkpt>
      <trkpt lat="42.78436" lon="-0.54753">
        <ele>1630</ele>
        <time>2018-12-27T18:38:34Z</time>
      </trkpt>
      <trkpt lat="42.78435" lon="-0.54777">
        <ele>1632</ele>
        <time>2018-12-27T18:38:39Z</time>
      </trkpt>
      <trkpt lat="42.78438" lon="-0.5479">
        <ele>1633</ele>
        <time>2018-12-27T18:38:42Z</time>
      </trkpt>
      <trkpt lat="42.78439" lon="-0.54805">
        <ele>1635</ele>
        <time>2018-12-27T18:38:44Z</time>
      </trkpt>
      <trkpt lat="42.78439" lon="-0.54813">
        <ele>1637</ele>
        <time>2018-12-27T18:38:46Z</time>
      </trkpt>
      <trkpt lat="42.78438" lon="-0.5482">
        <ele>1638</ele>
        <time>2018-12-27T18:38:48Z</time>
      </trkpt>
      <trkpt lat="42.78434" lon="-0.54827">
        <ele>1640</ele>
        <time>2018-12-27T18:38:49Z</time>
      </trkpt>
      <trkpt lat="42.78426" lon="-0.54837">
        <ele>1643</ele>
        <time>2018-12-27T18:38:52Z</time>
      </trkpt>
      <trkpt lat="42.7842" lon="-0.54842">
        <ele>1644</ele>
        <time>2018-12-27T18:38:54Z</time>
      </trkpt>
      <trkpt lat="42.78415" lon="-0.54842">
        <ele>1645</ele>
        <time>2018-12-27T18:38:55Z</time>
      </trkpt>
      <trkpt lat="42.78407" lon="-0.54866">
        <ele>1649</ele>
        <time>2018-12-27T18:39:01Z</time>
      </trkpt>
      <trkpt lat="42.78408" lon="-0.5489">
        <ele>1651</ele>
        <time>2018-12-27T18:39:05Z</time>
      </trkpt>
      <trkpt lat="42.78412" lon="-0.54897">
        <ele>1651</ele>
        <time>2018-12-27T18:39:07Z</time>
      </trkpt>
      <trkpt lat="42.78411" lon="-0.54908">
        <ele>1653</ele>
        <time>2018-12-27T18:39:09Z</time>
      </trkpt>
      <trkpt lat="42.78407" lon="-0.54932">
        <ele>1656</ele>
        <time>2018-12-27T18:39:14Z</time>
      </trkpt>
      <trkpt lat="42.78412" lon="-0.54957">
        <ele>1656</ele>
        <time>2018-12-27T18:39:19Z</time>
      </trkpt>
      <trkpt lat="42.78402" lon="-0.54983">
        <ele>1659</ele>
        <time>2018-12-27T18:39:25Z</time>
      </trkpt>
      <trkpt lat="42.7839" lon="-0.54985">
        <ele>1662</ele>
        <time>2018-12-27T18:39:28Z</time>
      </trkpt>
      <trkpt lat="42.78377" lon="-0.54992">
        <ele>1667</ele>
        <time>2018-12-27T18:39:32Z</time>
      </trkpt>
      <trkpt lat="42.7837" lon="-0.54992">
        <ele>1670</ele>
        <time>2018-12-27T18:39:34Z</time>
      </trkpt>
      <trkpt lat="42.78366" lon="-0.54995">
        <ele>1672</ele>
        <time>2018-12-27T18:39:35Z</time>
      </trkpt>
      <trkpt lat="42.78358" lon="-0.54999">
        <ele>1674</ele>
        <time>2018-12-27T18:39:37Z</time>
      </trkpt>
      <trkpt lat="42.78338" lon="-0.55005">
        <ele>1676</ele>
        <time>2018-12-27T18:39:43Z</time>
      </trkpt>
      <trkpt lat="42.78331" lon="-0.5501">
        <ele>1676</ele>
        <time>2018-12-27T18:39:45Z</time>
      </trkpt>
      <trkpt lat="42.78316" lon="-0.5501">
        <ele>1679</ele>
        <time>2018-12-27T18:39:49Z</time>
      </trkpt>
      <trkpt lat="42.78308" lon="-0.55016">
        <ele>1680</ele>
        <time>2018-12-27T18:39:51Z</time>
      </trkpt>
      <trkpt lat="42.783" lon="-0.55027">
        <ele>1679</ele>
        <time>2018-12-27T18:39:54Z</time>
      </trkpt>
      <trkpt lat="42.78272" lon="-0.55038">
        <ele>1681</ele>
        <time>2018-12-27T18:40:02Z</time>
      </trkpt>
      <trkpt lat="42.78261" lon="-0.55045">
        <ele>1683</ele>
        <time>2018-12-27T18:40:05Z</time>
      </trkpt>
      <trkpt lat="42.78237" lon="-0.55056">
        <ele>1689</ele>
        <time>2018-12-27T18:40:12Z</time>
      </trkpt>
      <trkpt lat="42.78234" lon="-0.55064">
        <ele>1689</ele>
        <time>2018-12-27T18:40:14Z</time>
      </trkpt>
      <trkpt lat="42.78235" lon="-0.5508">
        <ele>1687</ele>
        <time>2018-12-27T18:40:17Z</time>
      </trkpt>
      <trkpt lat="42.78217" lon="-0.55098">
        <ele>1690</ele>
        <time>2018-12-27T18:40:23Z</time>
      </trkpt>
      <trkpt lat="42.78199" lon="-0.55109">
        <ele>1692</ele>
        <time>2018-12-27T18:40:28Z</time>
      </trkpt>
      <trkpt lat="42.78186" lon="-0.55125">
        <ele>1693</ele>
        <time>2018-12-27T18:40:33Z</time>
      </trkpt>
      <trkpt lat="42.78173" lon="-0.55148">
        <ele>1695</ele>
        <time>2018-12-27T18:40:39Z</time>
      </trkpt>
      <trkpt lat="42.78173" lon="-0.55155">
        <ele>1695</ele>
        <time>2018-12-27T18:40:40Z</time>
      </trkpt>
      <trkpt lat="42.78175" lon="-0.55176">
        <ele>1694</ele>
        <time>2018-12-27T18:40:44Z</time>
      </trkpt>
      <trkpt lat="42.78174" lon="-0.552">
        <ele>1699</ele>
        <time>2018-12-27T18:40:49Z</time>
      </trkpt>
      <trkpt lat="42.78165" lon="-0.5522">
        <ele>1707</ele>
        <time>2018-12-27T18:40:53Z</time>
      </trkpt>
      <trkpt lat="42.78156" lon="-0.55231">
        <ele>1710</ele>
        <time>2018-12-27T18:40:57Z</time>
      </trkpt>
      <trkpt lat="42.78149" lon="-0.55246">
        <ele>1712</ele>
        <time>2018-12-27T18:41:00Z</time>
      </trkpt>
      <trkpt lat="42.78133" lon="-0.55267">
        <ele>1717</ele>
        <time>2018-12-27T18:41:06Z</time>
      </trkpt>
      <trkpt lat="42.78121" lon="-0.55278">
        <ele>1722</ele>
        <time>2018-12-27T18:41:10Z</time>
      </trkpt>
      <trkpt lat="42.78115" lon="-0.55287">
        <ele>1724</ele>
        <time>2018-12-27T18:41:12Z</time>
      </trkpt>
      <trkpt lat="42.78113" lon="-0.55304">
        <ele>1725</ele>
        <time>2018-12-27T18:41:16Z</time>
      </trkpt>
      <trkpt lat="42.78106" lon="-0.55332">
        <ele>1729</ele>
        <time>2018-12-27T18:41:22Z</time>
      </trkpt>
      <trkpt lat="42.78106" lon="-0.55346">
        <ele>1729</ele>
        <time>2018-12-27T18:41:24Z</time>
      </trkpt>
      <trkpt lat="42.78103" lon="-0.55352">
        <ele>1731</ele>
        <time>2018-12-27T18:41:26Z</time>
      </trkpt>
      <trkpt lat="42.78101" lon="-0.55366">
        <ele>1733</ele>
        <time>2018-12-27T18:41:29Z</time>
      </trkpt>
      <trkpt lat="42.78099" lon="-0.55427">
        <ele>1751</ele>
        <time>2018-12-27T18:41:41Z</time>
      </trkpt>
      <trkpt lat="42.78101" lon="-0.55456">
        <ele>1764</ele>
        <time>2018-12-27T18:41:46Z</time>
      </trkpt>
      <trkpt lat="42.78105" lon="-0.55467">
        <ele>1766</ele>
        <time>2018-12-27T18:41:49Z</time>
      </trkpt>
      <trkpt lat="42.78105" lon="-0.55481">
        <ele>1772</ele>
        <time>2018-12-27T18:41:51Z</time>
      </trkpt>
      <trkpt lat="42.78101" lon="-0.55499">
        <ele>1784</ele>
        <time>2018-12-27T18:41:55Z</time>
      </trkpt>
      <trkpt lat="42.78102" lon="-0.55508">
        <ele>1788</ele>
        <time>2018-12-27T18:41:57Z</time>
      </trkpt>
      <trkpt lat="42.7811" lon="-0.55523">
        <ele>1785</ele>
        <time>2018-12-27T18:42:00Z</time>
      </trkpt>
      <trkpt lat="42.78111" lon="-0.55551">
        <ele>1797</ele>
        <time>2018-12-27T18:42:06Z</time>
      </trkpt>
      <trkpt lat="42.78119" lon="-0.55559">
        <ele>1795</ele>
        <time>2018-12-27T18:42:08Z</time>
      </trkpt>
      <trkpt lat="42.78125" lon="-0.55563">
        <ele>1793</ele>
        <time>2018-12-27T18:42:10Z</time>
      </trkpt>
      <trkpt lat="42.7813" lon="-0.55573">
        <ele>1796</ele>
        <time>2018-12-27T18:42:12Z</time>
      </trkpt>
      <trkpt lat="42.78142" lon="-0.55584">
        <ele>1795</ele>
        <time>2018-12-27T18:42:16Z</time>
      </trkpt>
      <trkpt lat="42.78146" lon="-0.5559">
        <ele>1797</ele>
        <time>2018-12-27T18:42:18Z</time>
      </trkpt>
      <trkpt lat="42.78155" lon="-0.556">
        <ele>1798</ele>
        <time>2018-12-27T18:42:21Z</time>
      </trkpt>
      <trkpt lat="42.78161" lon="-0.55611">
        <ele>1800</ele>
        <time>2018-12-27T18:42:24Z</time>
      </trkpt>
      <trkpt lat="42.78176" lon="-0.55614">
        <ele>1795</ele>
        <time>2018-12-27T18:42:28Z</time>
      </trkpt>
      <trkpt lat="42.78182" lon="-0.55626">
        <ele>1798</ele>
        <time>2018-12-27T18:42:31Z</time>
      </trkpt>
      <trkpt lat="42.78192" lon="-0.55629">
        <ele>1797</ele>
        <time>2018-12-27T18:42:33Z</time>
      </trkpt>
      <trkpt lat="42.78208" lon="-0.55651">
        <ele>1811</ele>
        <time>2018-12-27T18:42:39Z</time>
      </trkpt>
      <trkpt lat="42.78217" lon="-0.55654">
        <ele>1814</ele>
        <time>2018-12-27T18:42:42Z</time>
      </trkpt>
      <trkpt lat="42.78229" lon="-0.55663">
        <ele>1817</ele>
        <time>2018-12-27T18:42:45Z</time>
      </trkpt>
      <trkpt lat="42.78236" lon="-0.5567">
        <ele>1819</ele>
        <time>2018-12-27T18:42:48Z</time>
      </trkpt>
      <trkpt lat="42.78234" lon="-0.55679">
        <ele>1825</ele>
        <time>2018-12-27T18:42:50Z</time>
      </trkpt>
      <trkpt lat="42.78219" lon="-0.55682">
        <ele>1828</ele>
        <time>2018-12-27T18:42:54Z</time>
      </trkpt>
      <trkpt lat="42.78211" lon="-0.55689">
        <ele>1829</ele>
        <time>2018-12-27T18:42:56Z</time>
      </trkpt>
      <trkpt lat="42.78206" lon="-0.55689">
        <ele>1829</ele>
        <time>2018-12-27T18:42:58Z</time>
      </trkpt>
      <trkpt lat="42.78188" lon="-0.5568">
        <ele>1824</ele>
        <time>2018-12-27T18:43:03Z</time>
      </trkpt>
      <trkpt lat="42.78178" lon="-0.55685">
        <ele>1826</ele>
        <time>2018-12-27T18:43:06Z</time>
      </trkpt>
      <trkpt lat="42.78169" lon="-0.55685">
        <ele>1825</ele>
        <time>2018-12-27T18:43:08Z</time>
      </trkpt>
      <trkpt lat="42.78156" lon="-0.55693">
        <ele>1831</ele>
        <time>2018-12-27T18:43:12Z</time>
      </trkpt>
      <trkpt lat="42.78148" lon="-0.55713">
        <ele>1841</ele>
        <time>2018-12-27T18:43:16Z</time>
      </trkpt>
      <trkpt lat="42.78149" lon="-0.55733">
        <ele>1846</ele>
        <time>2018-12-27T18:43:20Z</time>
      </trkpt>
      <trkpt lat="42.78156" lon="-0.55748">
        <ele>1847</ele>
        <time>2018-12-27T18:43:24Z</time>
      </trkpt>
      <trkpt lat="42.78159" lon="-0.55767">
        <ele>1850</ele>
        <time>2018-12-27T18:43:28Z</time>
      </trkpt>
      <trkpt lat="42.78166" lon="-0.55799">
        <ele>1856</ele>
        <time>2018-12-27T18:43:34Z</time>
      </trkpt>
      <trkpt lat="42.78167" lon="-0.55809">
        <ele>1856</ele>
        <time>2018-12-27T18:43:36Z</time>
      </trkpt>
      <trkpt lat="42.78154" lon="-0.55839">
        <ele>1853</ele>
        <time>2018-12-27T18:43:43Z</time>
      </trkpt>
      <trkpt lat="42.78153" lon="-0.55848">
        <ele>1853</ele>
        <time>2018-12-27T18:43:45Z</time>
      </trkpt>
      <trkpt lat="42.78159" lon="-0.55879">
        <ele>1852</ele>
        <time>2018-12-27T18:43:51Z</time>
      </trkpt>
      <trkpt lat="42.7816" lon="-0.55914">
        <ele>1851</ele>
        <time>2018-12-27T18:43:58Z</time>
      </trkpt>
      <trkpt lat="42.78157" lon="-0.55923">
        <ele>1851</ele>
        <time>2018-12-27T18:44:00Z</time>
      </trkpt>
      <trkpt lat="42.78149" lon="-0.55925">
        <ele>1852</ele>
        <time>2018-12-27T18:44:02Z</time>
      </trkpt>
      <trkpt lat="42.78142" lon="-0.55917">
        <ele>1851</ele>
        <time>2018-12-27T18:44:04Z</time>
      </trkpt>
      <trkpt lat="42.78138" lon="-0.55909">
        <ele>1852</ele>
        <time>2018-12-27T18:44:06Z</time>
      </trkpt>
      <trkpt lat="42.78118" lon="-0.55888">
        <ele>1852</ele>
        <time>2018-12-27T18:44:13Z</time>
      </trkpt>
      <trkpt lat="42.78109" lon="-0.55882">
        <ele>1854</ele>
        <time>2018-12-27T18:44:16Z</time>
      </trkpt>
      <trkpt lat="42.7808" lon="-0.55843">
        <ele>1864</ele>
        <time>2018-12-27T18:44:27Z</time>
      </trkpt>
      <trkpt lat="42.78075" lon="-0.55833">
        <ele>1868</ele>
        <time>2018-12-27T18:44:29Z</time>
      </trkpt>
      <trkpt lat="42.78058" lon="-0.55811">
        <ele>1878</ele>
        <time>2018-12-27T18:44:35Z</time>
      </trkpt>
      <trkpt lat="42.7805" lon="-0.55796">
        <ele>1877</ele>
        <time>2018-12-27T18:44:39Z</time>
      </trkpt>
      <trkpt lat="42.78045" lon="-0.55797">
        <ele>1881</ele>
        <time>2018-12-27T18:44:40Z</time>
      </trkpt>
      <trkpt lat="42.78038" lon="-0.55793">
        <ele>1885</ele>
        <time>2018-12-27T18:44:42Z</time>
      </trkpt>
      <trkpt lat="42.78031" lon="-0.55796">
        <ele>1891</ele>
        <time>2018-12-27T18:44:44Z</time>
      </trkpt>
      <trkpt lat="42.78031" lon="-0.55802">
        <ele>1895</ele>
        <time>2018-12-27T18:44:45Z</time>
      </trkpt>
      <trkpt lat="42.78025" lon="-0.55806">
        <ele>1901</ele>
        <time>2018-12-27T18:44:47Z</time>
      </trkpt>
      <trkpt lat="42.78022" lon="-0.55817">
        <ele>1905</ele>
        <time>2018-12-27T18:44:49Z</time>
      </trkpt>
      <trkpt lat="42.78014" lon="-0.55814">
        <ele>1907</ele>
        <time>2018-12-27T18:44:51Z</time>
      </trkpt>
      <trkpt lat="42.78011" lon="-0.5582">
        <ele>1910</ele>
        <time>2018-12-27T18:44:53Z</time>
      </trkpt>
      <trkpt lat="42.7801" lon="-0.55851">
        <ele>1917</ele>
        <time>2018-12-27T18:44:59Z</time>
      </trkpt>
      <trkpt lat="42.78006" lon="-0.55856">
        <ele>1919</ele>
        <time>2018-12-27T18:45:00Z</time>
      </trkpt>
      <trkpt lat="42.78" lon="-0.55882">
        <ele>1925</ele>
        <time>2018-12-27T18:45:05Z</time>
      </trkpt>
      <trkpt lat="42.77999" lon="-0.55889">
        <ele>1927</ele>
        <time>2018-12-27T18:45:07Z</time>
      </trkpt>
      <trkpt lat="42.78" lon="-0.55893">
        <ele>1927</ele>
        <time>2018-12-27T18:45:08Z</time>
      </trkpt>
      <trkpt lat="42.77997" lon="-0.55903">
        <ele>1930</ele>
        <time>2018-12-27T18:45:10Z</time>
      </trkpt>
      <trkpt lat="42.77997" lon="-0.55912">
        <ele>1932</ele>
        <time>2018-12-27T18:45:12Z</time>
      </trkpt>
      <trkpt lat="42.78013" lon="-0.55957">
        <ele>1935</ele>
        <time>2018-12-27T18:45:21Z</time>
      </trkpt>
      <trkpt lat="42.78014" lon="-0.55963">
        <ele>1936</ele>
        <time>2018-12-27T18:45:23Z</time>
      </trkpt>
      <trkpt lat="42.78013" lon="-0.5598">
        <ele>1940</ele>
        <time>2018-12-27T18:45:26Z</time>
      </trkpt>
      <trkpt lat="42.78021" lon="-0.55997">
        <ele>1940</ele>
        <time>2018-12-27T18:45:30Z</time>
      </trkpt>
      <trkpt lat="42.78023" lon="-0.56006">
        <ele>1942</ele>
        <time>2018-12-27T18:45:32Z</time>
      </trkpt>
      <trkpt lat="42.78022" lon="-0.56046">
        <ele>1953</ele>
        <time>2018-12-27T18:45:40Z</time>
      </trkpt>
      <trkpt lat="42.78024" lon="-0.56071">
        <ele>1957</ele>
        <time>2018-12-27T18:45:45Z</time>
      </trkpt>
      <trkpt lat="42.78021" lon="-0.56086">
        <ele>1960</ele>
        <time>2018-12-27T18:45:48Z</time>
      </trkpt>
      <trkpt lat="42.78014" lon="-0.561">
        <ele>1966</ele>
        <time>2018-12-27T18:45:51Z</time>
      </trkpt>
      <trkpt lat="42.7801" lon="-0.56122">
        <ele>1970</ele>
        <time>2018-12-27T18:45:56Z</time>
      </trkpt>
      <trkpt lat="42.7799" lon="-0.56167">
        <ele>1981</ele>
        <time>2018-12-27T18:46:06Z</time>
      </trkpt>
      <trkpt lat="42.77986" lon="-0.56173">
        <ele>1983</ele>
        <time>2018-12-27T18:46:07Z</time>
      </trkpt>
      <trkpt lat="42.7798" lon="-0.56171">
        <ele>1986</ele>
        <time>2018-12-27T18:46:09Z</time>
      </trkpt>
      <trkpt lat="42.77953" lon="-0.562">
        <ele>1995</ele>
        <time>2018-12-27T18:46:18Z</time>
      </trkpt>
      <trkpt lat="42.77949" lon="-0.56209">
        <ele>1996</ele>
        <time>2018-12-27T18:46:20Z</time>
      </trkpt>
      <trkpt lat="42.77942" lon="-0.56217">
        <ele>1999</ele>
        <time>2018-12-27T18:46:23Z</time>
      </trkpt>
      <trkpt lat="42.77934" lon="-0.5623">
        <ele>2001</ele>
        <time>2018-12-27T18:46:26Z</time>
      </trkpt>
      <trkpt lat="42.77924" lon="-0.56253">
        <ele>2004</ele>
        <time>2018-12-27T18:46:31Z</time>
      </trkpt>
      <trkpt lat="42.77917" lon="-0.56264">
        <ele>2009</ele>
        <time>2018-12-27T18:46:34Z</time>
      </trkpt>
      <trkpt lat="42.77911" lon="-0.56276">
        <ele>2015</ele>
        <time>2018-12-27T18:46:37Z</time>
      </trkpt>
      <trkpt lat="42.77914" lon="-0.56285">
        <ele>2014</ele>
        <time>2018-12-27T18:46:39Z</time>
      </trkpt>
      <trkpt lat="42.7791" lon="-0.56294">
        <ele>2019</ele>
        <time>2018-12-27T18:46:41Z</time>
      </trkpt>
      <trkpt lat="42.77911" lon="-0.56304">
        <ele>2021</ele>
        <time>2018-12-27T18:46:43Z</time>
      </trkpt>
      <trkpt lat="42.77908" lon="-0.56319">
        <ele>2027</ele>
        <time>2018-12-27T18:46:46Z</time>
      </trkpt>
      <trkpt lat="42.77905" lon="-0.56324">
        <ele>2031</ele>
        <time>2018-12-27T18:46:47Z</time>
      </trkpt>
      <trkpt lat="42.779" lon="-0.56343">
        <ele>2037</ele>
        <time>2018-12-27T18:46:51Z</time>
      </trkpt>
      <trkpt lat="42.779" lon="-0.56351">
        <ele>2038</ele>
        <time>2018-12-27T18:46:53Z</time>
      </trkpt>
      <trkpt lat="42.77902" lon="-0.56357">
        <ele>2038</ele>
        <time>2018-12-27T18:46:54Z</time>
      </trkpt>
      <trkpt lat="42.77898" lon="-0.56369">
        <ele>2041</ele>
        <time>2018-12-27T18:46:57Z</time>
      </trkpt>
      <trkpt lat="42.77885" lon="-0.5638">
        <ele>2046</ele>
        <time>2018-12-27T18:47:01Z</time>
      </trkpt>
      <trkpt lat="42.77883" lon="-0.56388">
        <ele>2046</ele>
        <time>2018-12-27T18:47:02Z</time>
      </trkpt>
      <trkpt lat="42.77883" lon="-0.56399">
        <ele>2045</ele>
        <time>2018-12-27T18:47:04Z</time>
      </trkpt>
      <trkpt lat="42.77862" lon="-0.56442">
        <ele>2041</ele>
        <time>2018-12-27T18:47:14Z</time>
      </trkpt>
      <trkpt lat="42.77858" lon="-0.56456">
        <ele>2034</ele>
        <time>2018-12-27T18:47:17Z</time>
      </trkpt>
      <trkpt lat="42.7785" lon="-0.56474">
        <ele>2025</ele>
        <time>2018-12-27T18:47:22Z</time>
      </trkpt>
      <trkpt lat="42.77839" lon="-0.56487">
        <ele>2019</ele>
        <time>2018-12-27T18:47:26Z</time>
      </trkpt>
      <trkpt lat="42.7782" lon="-0.56493">
        <ele>2018</ele>
        <time>2018-12-27T18:47:31Z</time>
      </trkpt>
      <trkpt lat="42.77811" lon="-0.565">
        <ele>2016</ele>
        <time>2018-12-27T18:47:33Z</time>
      </trkpt>
      <trkpt lat="42.77788" lon="-0.56512">
        <ele>2011</ele>
        <time>2018-12-27T18:47:40Z</time>
      </trkpt>
      <trkpt lat="42.77777" lon="-0.56507">
        <ele>2012</ele>
        <time>2018-12-27T18:47:43Z</time>
      </trkpt>
      <trkpt lat="42.77769" lon="-0.56512">
        <ele>2009</ele>
        <time>2018-12-27T18:47:45Z</time>
      </trkpt>
      <trkpt lat="42.77761" lon="-0.56507">
        <ele>2009</ele>
        <time>2018-12-27T18:47:48Z</time>
      </trkpt>
      <trkpt lat="42.7775" lon="-0.5651">
        <ele>2007</ele>
        <time>2018-12-27T18:47:51Z</time>
      </trkpt>
      <trkpt lat="42.77747" lon="-0.56502">
        <ele>2010</ele>
        <time>2018-12-27T18:47:53Z</time>
      </trkpt>
      <trkpt lat="42.77739" lon="-0.56491">
        <ele>2016</ele>
        <time>2018-12-27T18:47:56Z</time>
      </trkpt>
      <trkpt lat="42.77736" lon="-0.56496">
        <ele>2014</ele>
        <time>2018-12-27T18:47:57Z</time>
      </trkpt>
      <trkpt lat="42.77728" lon="-0.56492">
        <ele>2017</ele>
        <time>2018-12-27T18:47:59Z</time>
      </trkpt>
      <trkpt lat="42.77723" lon="-0.56483">
        <ele>2021</ele>
        <time>2018-12-27T18:48:01Z</time>
      </trkpt>
      <trkpt lat="42.77715" lon="-0.5648">
        <ele>2023</ele>
        <time>2018-12-27T18:48:04Z</time>
      </trkpt>
      <trkpt lat="42.77708" lon="-0.56491">
        <ele>2020</ele>
        <time>2018-12-27T18:48:07Z</time>
      </trkpt>
      <trkpt lat="42.77702" lon="-0.56483">
        <ele>2023</ele>
        <time>2018-12-27T18:48:09Z</time>
      </trkpt>
      <trkpt lat="42.7768" lon="-0.56494">
        <ele>2023</ele>
        <time>2018-12-27T18:48:15Z</time>
      </trkpt>
      <trkpt lat="42.77672" lon="-0.56493">
        <ele>2024</ele>
        <time>2018-12-27T18:48:17Z</time>
      </trkpt>
      <trkpt lat="42.77663" lon="-0.56483">
        <ele>2028</ele>
        <time>2018-12-27T18:48:20Z</time>
      </trkpt>
      <trkpt lat="42.77657" lon="-0.56481">
        <ele>2030</ele>
        <time>2018-12-27T18:48:22Z</time>
      </trkpt>
      <trkpt lat="42.77642" lon="-0.56482">
        <ele>2034</ele>
        <time>2018-12-27T18:48:26Z</time>
      </trkpt>
      <trkpt lat="42.77631" lon="-0.5651">
        <ele>2037</ele>
        <time>2018-12-27T18:48:32Z</time>
      </trkpt>
      <trkpt lat="42.7762" lon="-0.5652">
        <ele>2041</ele>
        <time>2018-12-27T18:48:36Z</time>
      </trkpt>
      <trkpt lat="42.77613" lon="-0.56529">
        <ele>2042</ele>
        <time>2018-12-27T18:48:38Z</time>
      </trkpt>
      <trkpt lat="42.7761" lon="-0.56537">
        <ele>2044</ele>
        <time>2018-12-27T18:48:40Z</time>
      </trkpt>
      <trkpt lat="42.77611" lon="-0.56555">
        <ele>2042</ele>
        <time>2018-12-27T18:48:44Z</time>
      </trkpt>
      <trkpt lat="42.7761" lon="-0.56565">
        <ele>2042</ele>
        <time>2018-12-27T18:48:46Z</time>
      </trkpt>
      <trkpt lat="42.77601" lon="-0.56567">
        <ele>2049</ele>
        <time>2018-12-27T18:48:48Z</time>
      </trkpt>
      <trkpt lat="42.77596" lon="-0.56584">
        <ele>2052</ele>
        <time>2018-12-27T18:48:52Z</time>
      </trkpt>
      <trkpt lat="42.7759" lon="-0.56628">
        <ele>2058</ele>
        <time>2018-12-27T18:49:00Z</time>
      </trkpt>
      <trkpt lat="42.77583" lon="-0.56648">
        <ele>2062</ele>
        <time>2018-12-27T18:49:05Z</time>
      </trkpt>
      <trkpt lat="42.77563" lon="-0.56681">
        <ele>2067</ele>
        <time>2018-12-27T18:49:13Z</time>
      </trkpt>
      <trkpt lat="42.77563" lon="-0.56696">
        <ele>2065</ele>
        <time>2018-12-27T18:49:16Z</time>
      </trkpt>
      <trkpt lat="42.77559" lon="-0.56709">
        <ele>2063</ele>
        <time>2018-12-27T18:49:19Z</time>
      </trkpt>
      <trkpt lat="42.7755" lon="-0.56714">
        <ele>2067</ele>
        <time>2018-12-27T18:49:21Z</time>
      </trkpt>
      <trkpt lat="42.77534" lon="-0.56733">
        <ele>2069</ele>
        <time>2018-12-27T18:49:27Z</time>
      </trkpt>
      <trkpt lat="42.77508" lon="-0.56746">
        <ele>2076</ele>
        <time>2018-12-27T18:49:34Z</time>
      </trkpt>
      <trkpt lat="42.775" lon="-0.56752">
        <ele>2078</ele>
        <time>2018-12-27T18:49:37Z</time>
      </trkpt>
      <trkpt lat="42.77476" lon="-0.56749">
        <ele>2087</ele>
        <time>2018-12-27T18:49:43Z</time>
      </trkpt>
      <trkpt lat="42.77469" lon="-0.56745">
        <ele>2090</ele>
        <time>2018-12-27T18:49:45Z</time>
      </trkpt>
      <trkpt lat="42.77458" lon="-0.5675">
        <ele>2091</ele>
        <time>2018-12-27T18:49:48Z</time>
      </trkpt>
      <trkpt lat="42.77451" lon="-0.56749">
        <ele>2093</ele>
        <time>2018-12-27T18:49:50Z</time>
      </trkpt>
      <trkpt lat="42.77443" lon="-0.56753">
        <ele>2092</ele>
        <time>2018-12-27T18:49:52Z</time>
      </trkpt>
      <trkpt lat="42.77418" lon="-0.56752">
        <ele>2091</ele>
        <time>2018-12-27T18:49:59Z</time>
      </trkpt>
      <trkpt lat="42.77409" lon="-0.56744">
        <ele>2094</ele>
        <time>2018-12-27T18:50:02Z</time>
      </trkpt>
      <trkpt lat="42.77393" lon="-0.56744">
        <ele>2093</ele>
        <time>2018-12-27T18:50:06Z</time>
      </trkpt>
      <trkpt lat="42.77373" lon="-0.56746">
        <ele>2093</ele>
        <time>2018-12-27T18:50:12Z</time>
      </trkpt>
      <trkpt lat="42.77368" lon="-0.56747">
        <ele>2092</ele>
        <time>2018-12-27T18:50:13Z</time>
      </trkpt>
      <trkpt lat="42.77353" lon="-0.56744">
        <ele>2098</ele>
        <time>2018-12-27T18:50:17Z</time>
      </trkpt>
      <trkpt lat="42.77335" lon="-0.56749">
        <ele>2100</ele>
        <time>2018-12-27T18:50:22Z</time>
      </trkpt>
      <trkpt lat="42.7733" lon="-0.56756">
        <ele>2097</ele>
        <time>2018-12-27T18:50:24Z</time>
      </trkpt>
      <trkpt lat="42.77308" lon="-0.56757">
        <ele>2103</ele>
        <time>2018-12-27T18:50:30Z</time>
      </trkpt>
      <trkpt lat="42.77262" lon="-0.56772">
        <ele>2110</ele>
        <time>2018-12-27T18:50:42Z</time>
      </trkpt>
      <trkpt lat="42.77244" lon="-0.56787">
        <ele>2106</ele>
        <time>2018-12-27T18:50:48Z</time>
      </trkpt>
      <trkpt lat="42.77238" lon="-0.56787">
        <ele>2108</ele>
        <time>2018-12-27T18:50:49Z</time>
      </trkpt>
      <trkpt lat="42.77218" lon="-0.56801">
        <ele>2113</ele>
        <time>2018-12-27T18:50:56Z</time>
      </trkpt>
      <trkpt lat="42.77201" lon="-0.56805">
        <ele>2120</ele>
        <time>2018-12-27T18:51:00Z</time>
      </trkpt>
      <trkpt lat="42.77182" lon="-0.56817">
        <ele>2119</ele>
        <time>2018-12-27T18:51:06Z</time>
      </trkpt>
      <trkpt lat="42.77179" lon="-0.56822">
        <ele>2115</ele>
        <time>2018-12-27T18:51:07Z</time>
      </trkpt>
      <trkpt lat="42.77166" lon="-0.56823">
        <ele>2117</ele>
        <time>2018-12-27T18:51:10Z</time>
      </trkpt>
      <trkpt lat="42.77152" lon="-0.56831">
        <ele>2111</ele>
        <time>2018-12-27T18:51:14Z</time>
      </trkpt>
      <trkpt lat="42.7713" lon="-0.56834">
        <ele>2116</ele>
        <time>2018-12-27T18:51:20Z</time>
      </trkpt>
      <trkpt lat="42.77117" lon="-0.56839">
        <ele>2118</ele>
        <time>2018-12-27T18:51:24Z</time>
      </trkpt>
      <trkpt lat="42.77101" lon="-0.56853">
        <ele>2113</ele>
        <time>2018-12-27T18:51:29Z</time>
      </trkpt>
      <trkpt lat="42.77084" lon="-0.56859">
        <ele>2110</ele>
        <time>2018-12-27T18:51:34Z</time>
      </trkpt>
      <trkpt lat="42.7707" lon="-0.56856">
        <ele>2112</ele>
        <time>2018-12-27T18:51:38Z</time>
      </trkpt>
      <trkpt lat="42.77049" lon="-0.56855">
        <ele>2114</ele>
        <time>2018-12-27T18:51:43Z</time>
      </trkpt>
      <trkpt lat="42.77037" lon="-0.56857">
        <ele>2116</ele>
        <time>2018-12-27T18:51:46Z</time>
      </trkpt>
      <trkpt lat="42.77028" lon="-0.56855">
        <ele>2120</ele>
        <time>2018-12-27T18:51:49Z</time>
      </trkpt>
      <trkpt lat="42.77007" lon="-0.56858">
        <ele>2123</ele>
        <time>2018-12-27T18:51:54Z</time>
      </trkpt>
      <trkpt lat="42.76993" lon="-0.56865">
        <ele>2123</ele>
        <time>2018-12-27T18:51:58Z</time>
      </trkpt>
      <trkpt lat="42.76986" lon="-0.56874">
        <ele>2118</ele>
        <time>2018-12-27T18:52:01Z</time>
      </trkpt>
      <trkpt lat="42.76959" lon="-0.56885">
        <ele>2112</ele>
        <time>2018-12-27T18:52:08Z</time>
      </trkpt>
      <trkpt lat="42.76945" lon="-0.56902">
        <ele>2108</ele>
        <time>2018-12-27T18:52:14Z</time>
      </trkpt>
      <trkpt lat="42.76935" lon="-0.56902">
        <ele>2111</ele>
        <time>2018-12-27T18:52:16Z</time>
      </trkpt>
      <trkpt lat="42.76917" lon="-0.56912">
        <ele>2118</ele>
        <time>2018-12-27T18:52:21Z</time>
      </trkpt>
      <trkpt lat="42.76908" lon="-0.56909">
        <ele>2118</ele>
        <time>2018-12-27T18:52:24Z</time>
      </trkpt>
      <trkpt lat="42.76903" lon="-0.56909">
        <ele>2118</ele>
        <time>2018-12-27T18:52:25Z</time>
      </trkpt>
      <trkpt lat="42.76888" lon="-0.5692">
        <ele>2118</ele>
        <time>2018-12-27T18:52:30Z</time>
      </trkpt>
      <trkpt lat="42.76868" lon="-0.5693">
        <ele>2125</ele>
        <time>2018-12-27T18:52:35Z</time>
      </trkpt>
      <trkpt lat="42.76863" lon="-0.56941">
        <ele>2127</ele>
        <time>2018-12-27T18:52:38Z</time>
      </trkpt>
      <trkpt lat="42.76851" lon="-0.5694">
        <ele>2127</ele>
        <time>2018-12-27T18:52:41Z</time>
      </trkpt>
      <trkpt lat="42.76844" lon="-0.56945">
        <ele>2127</ele>
        <time>2018-12-27T18:52:43Z</time>
      </trkpt>
      <trkpt lat="42.76828" lon="-0.56945">
        <ele>2128</ele>
        <time>2018-12-27T18:52:47Z</time>
      </trkpt>
      <trkpt lat="42.76824" lon="-0.56949">
        <ele>2129</ele>
        <time>2018-12-27T18:52:49Z</time>
      </trkpt>
      <trkpt lat="42.76811" lon="-0.56945">
        <ele>2132</ele>
        <time>2018-12-27T18:52:52Z</time>
      </trkpt>
      <trkpt lat="42.76804" lon="-0.56944">
        <ele>2134</ele>
        <time>2018-12-27T18:52:54Z</time>
      </trkpt>
      <trkpt lat="42.76794" lon="-0.56949">
        <ele>2140</ele>
        <time>2018-12-27T18:52:57Z</time>
      </trkpt>
      <trkpt lat="42.76787" lon="-0.56961">
        <ele>2143</ele>
        <time>2018-12-27T18:53:00Z</time>
      </trkpt>
      <trkpt lat="42.76778" lon="-0.5697">
        <ele>2147</ele>
        <time>2018-12-27T18:53:03Z</time>
      </trkpt>
      <trkpt lat="42.76773" lon="-0.56969">
        <ele>2151</ele>
        <time>2018-12-27T18:53:04Z</time>
      </trkpt>
      <trkpt lat="42.76768" lon="-0.56978">
        <ele>2154</ele>
        <time>2018-12-27T18:53:06Z</time>
      </trkpt>
      <trkpt lat="42.76763" lon="-0.56982">
        <ele>2158</ele>
        <time>2018-12-27T18:53:08Z</time>
      </trkpt>
      <trkpt lat="42.76756" lon="-0.56993">
        <ele>2164</ele>
        <time>2018-12-27T18:53:11Z</time>
      </trkpt>
      <trkpt lat="42.76751" lon="-0.56995">
        <ele>2169</ele>
        <time>2018-12-27T18:53:12Z</time>
      </trkpt>
      <trkpt lat="42.76748" lon="-0.57001">
        <ele>2173</ele>
        <time>2018-12-27T18:53:14Z</time>
      </trkpt>
      <trkpt lat="42.76735" lon="-0.57003">
        <ele>2179</ele>
        <time>2018-12-27T18:53:17Z</time>
      </trkpt>
      <trkpt lat="42.7673" lon="-0.57">
        <ele>2181</ele>
        <time>2018-12-27T18:53:19Z</time>
      </trkpt>
      <trkpt lat="42.76725" lon="-0.57007">
        <ele>2183</ele>
        <time>2018-12-27T18:53:21Z</time>
      </trkpt>
      <trkpt lat="42.76728" lon="-0.57015">
        <ele>2182</ele>
        <time>2018-12-27T18:53:22Z</time>
      </trkpt>
      <trkpt lat="42.76724" lon="-0.57023">
        <ele>2183</ele>
        <time>2018-12-27T18:53:24Z</time>
      </trkpt>
      <trkpt lat="42.76706" lon="-0.57023">
        <ele>2193</ele>
        <time>2018-12-27T18:53:29Z</time>
      </trkpt>
      <trkpt lat="42.76697" lon="-0.57029">
        <ele>2198</ele>
        <time>2018-12-27T18:53:32Z</time>
      </trkpt>
      <trkpt lat="42.76689" lon="-0.57044">
        <ele>2201</ele>
        <time>2018-12-27T18:53:35Z</time>
      </trkpt>
      <trkpt lat="42.76676" lon="-0.5705">
        <ele>2203</ele>
        <time>2018-12-27T18:53:39Z</time>
      </trkpt>
      <trkpt lat="42.76666" lon="-0.57047">
        <ele>2205</ele>
        <time>2018-12-27T18:53:42Z</time>
      </trkpt>
      <trkpt lat="42.76654" lon="-0.57051">
        <ele>2208</ele>
        <time>2018-12-27T18:53:45Z</time>
      </trkpt>
      <trkpt lat="42.76649" lon="-0.5705">
        <ele>2209</ele>
        <time>2018-12-27T18:53:46Z</time>
      </trkpt>
      <trkpt lat="42.76622" lon="-0.57031">
        <ele>2217</ele>
        <time>2018-12-27T18:53:55Z</time>
      </trkpt>
      <trkpt lat="42.76604" lon="-0.57052">
        <ele>2223</ele>
        <time>2018-12-27T18:54:01Z</time>
      </trkpt>
      <trkpt lat="42.76587" lon="-0.57043">
        <ele>2237</ele>
        <time>2018-12-27T18:54:05Z</time>
      </trkpt>
      <trkpt lat="42.76575" lon="-0.57042">
        <ele>2237</ele>
        <time>2018-12-27T18:54:09Z</time>
      </trkpt>
      <trkpt lat="42.76564" lon="-0.57054">
        <ele>2234</ele>
        <time>2018-12-27T18:54:13Z</time>
      </trkpt>
      <trkpt lat="42.76558" lon="-0.57047">
        <ele>2232</ele>
        <time>2018-12-27T18:54:15Z</time>
      </trkpt>
      <trkpt lat="42.76549" lon="-0.5705">
        <ele>2239</ele>
        <time>2018-12-27T18:54:17Z</time>
      </trkpt>
      <trkpt lat="42.76539" lon="-0.5705">
        <ele>2251</ele>
        <time>2018-12-27T18:54:20Z</time>
      </trkpt>
      <trkpt lat="42.76532" lon="-0.5706">
        <ele>2265</ele>
        <time>2018-12-27T18:54:22Z</time>
      </trkpt>
      <trkpt lat="42.76529" lon="-0.57067">
        <ele>2270</ele>
        <time>2018-12-27T18:54:24Z</time>
      </trkpt>
      <trkpt lat="42.76521" lon="-0.57063">
        <ele>2277</ele>
        <time>2018-12-27T18:54:26Z</time>
      </trkpt>
      <trkpt lat="42.76513" lon="-0.57067">
        <ele>2287</ele>
        <time>2018-12-27T18:54:29Z</time>
      </trkpt>
      <trkpt lat="42.76505" lon="-0.57074">
        <ele>2297</ele>
        <time>2018-12-27T18:54:31Z</time>
      </trkpt>
      <trkpt lat="42.76493" lon="-0.57073">
        <ele>2312</ele>
        <time>2018-12-27T18:54:34Z</time>
      </trkpt>
      <trkpt lat="42.76487" lon="-0.57075">
        <ele>2322</ele>
        <time>2018-12-27T18:54:36Z</time>
      </trkpt>
      <trkpt lat="42.76483" lon="-0.57079">
        <ele>2329</ele>
        <time>2018-12-27T18:54:37Z</time>
      </trkpt>
      <trkpt lat="42.76475" lon="-0.5708">
        <ele>2341</ele>
        <time>2018-12-27T18:54:39Z</time>
      </trkpt>
      <trkpt lat="42.7647" lon="-0.57086">
        <ele>2343</ele>
        <time>2018-12-27T18:54:41Z</time>
      </trkpt>
      <trkpt lat="42.7647" lon="-0.57094">
        <ele>2334</ele>
        <time>2018-12-27T18:54:43Z</time>
      </trkpt>
      <trkpt lat="42.76461" lon="-0.57094">
        <ele>2340</ele>
        <time>2018-12-27T18:54:45Z</time>
      </trkpt>
      <trkpt lat="42.76435" lon="-0.57105">
        <ele>2355</ele>
        <time>2018-12-27T18:54:52Z</time>
      </trkpt>
      <trkpt lat="42.76422" lon="-0.57112">
        <ele>2362</ele>
        <time>2018-12-27T18:54:56Z</time>
      </trkpt>
      <trkpt lat="42.76431" lon="-0.57121">
        <ele>2354</ele>
        <time>2018-12-27T18:54:59Z</time>
      </trkpt>
      <trkpt lat="42.76443" lon="-0.57127">
        <ele>2348</ele>
        <time>2018-12-27T18:55:02Z</time>
      </trkpt>
      <trkpt lat="42.76447" lon="-0.57131">
        <ele>2344</ele>
        <time>2018-12-27T18:55:04Z</time>
      </trkpt>
      <trkpt lat="42.7644" lon="-0.57139">
        <ele>2347</ele>
        <time>2018-12-27T18:55:06Z</time>
      </trkpt>
      <trkpt lat="42.76435" lon="-0.5714">
        <ele>2349</ele>
        <time>2018-12-27T18:55:07Z</time>
      </trkpt>
      <trkpt lat="42.76431" lon="-0.57148">
        <ele>2353</ele>
        <time>2018-12-27T18:55:09Z</time>
      </trkpt>
      <trkpt lat="42.7642" lon="-0.57153">
        <ele>2356</ele>
        <time>2018-12-27T18:55:12Z</time>
      </trkpt>
      <trkpt lat="42.76405" lon="-0.57153">
        <ele>2367</ele>
        <time>2018-12-27T18:55:16Z</time>
      </trkpt>
      <trkpt lat="42.76395" lon="-0.57165">
        <ele>2376</ele>
        <time>2018-12-27T18:55:20Z</time>
      </trkpt>
      <trkpt lat="42.76387" lon="-0.57168">
        <ele>2382</ele>
        <time>2018-12-27T18:55:22Z</time>
      </trkpt>
      <trkpt lat="42.76381" lon="-0.57162">
        <ele>2384</ele>
        <time>2018-12-27T18:55:24Z</time>
      </trkpt>
      <trkpt lat="42.76376" lon="-0.57165">
        <ele>2386</ele>
        <time>2018-12-27T18:55:26Z</time>
      </trkpt>
      <trkpt lat="42.76371" lon="-0.57164">
        <ele>2388</ele>
        <time>2018-12-27T18:55:27Z</time>
      </trkpt>
      <trkpt lat="42.76366" lon="-0.57169">
        <ele>2391</ele>
        <time>2018-12-27T18:55:29Z</time>
      </trkpt>
      <trkpt lat="42.7636" lon="-0.57169">
        <ele>2393</ele>
        <time>2018-12-27T18:55:30Z</time>
      </trkpt>
      <trkpt lat="42.76354" lon="-0.57175">
        <ele>2397</ele>
        <time>2018-12-27T18:55:32Z</time>
      </trkpt>
      <trkpt lat="42.76344" lon="-0.57181">
        <ele>2401</ele>
        <time>2018-12-27T18:55:35Z</time>
      </trkpt>
      <trkpt lat="42.7634" lon="-0.57195">
        <ele>2404</ele>
        <time>2018-12-27T18:55:38Z</time>
      </trkpt>
      <trkpt lat="42.76332" lon="-0.57194">
        <ele>2407</ele>
        <time>2018-12-27T18:55:40Z</time>
      </trkpt>
      <trkpt lat="42.76329" lon="-0.57201">
        <ele>2409</ele>
        <time>2018-12-27T18:55:42Z</time>
      </trkpt>
      <trkpt lat="42.76325" lon="-0.57198">
        <ele>2409</ele>
        <time>2018-12-27T18:55:43Z</time>
      </trkpt>
      <trkpt lat="42.76317" lon="-0.57196">
        <ele>2411</ele>
        <time>2018-12-27T18:55:45Z</time>
      </trkpt>
      <trkpt lat="42.76314" lon="-0.57205">
        <ele>2414</ele>
        <time>2018-12-27T18:55:47Z</time>
      </trkpt>
      <trkpt lat="42.76309" lon="-0.57205">
        <ele>2415</ele>
        <time>2018-12-27T18:55:48Z</time>
      </trkpt>
      <trkpt lat="42.76296" lon="-0.57211">
        <ele>2421</ele>
        <time>2018-12-27T18:55:52Z</time>
      </trkpt>
      <trkpt lat="42.76293" lon="-0.57217">
        <ele>2423</ele>
        <time>2018-12-27T18:55:54Z</time>
      </trkpt>
      <trkpt lat="42.76288" lon="-0.5722">
        <ele>2425</ele>
        <time>2018-12-27T18:55:55Z</time>
      </trkpt>
      <trkpt lat="42.76275" lon="-0.57218">
        <ele>2427</ele>
        <time>2018-12-27T18:55:59Z</time>
      </trkpt>
      <trkpt lat="42.76267" lon="-0.57212">
        <ele>2424</ele>
        <time>2018-12-27T18:56:01Z</time>
      </trkpt>
      <trkpt lat="42.7627" lon="-0.57203">
        <ele>2424</ele>
        <time>2018-12-27T18:56:03Z</time>
      </trkpt>
      <trkpt lat="42.7627" lon="-0.57188">
        <ele>2424</ele>
        <time>2018-12-27T18:56:06Z</time>
      </trkpt>
      <trkpt lat="42.76273" lon="-0.57166">
        <ele>2424</ele>
        <time>2018-12-27T18:56:10Z</time>
      </trkpt>
      <trkpt lat="42.7627" lon="-0.57123">
        <ele>2431</ele>
        <time>2018-12-27T18:56:19Z</time>
      </trkpt>
      <trkpt lat="42.76272" lon="-0.57111">
        <ele>2434</ele>
        <time>2018-12-27T18:56:21Z</time>
      </trkpt>
      <trkpt lat="42.76271" lon="-0.57096">
        <ele>2438</ele>
        <time>2018-12-27T18:56:24Z</time>
      </trkpt>
      <trkpt lat="42.76272" lon="-0.57089">
        <ele>2441</ele>
        <time>2018-12-27T18:56:26Z</time>
      </trkpt>
      <trkpt lat="42.76273" lon="-0.57049">
        <ele>2455</ele>
        <time>2018-12-27T18:56:33Z</time>
      </trkpt>
      <trkpt lat="42.7628" lon="-0.57042">
        <ele>2460</ele>
        <time>2018-12-27T18:56:36Z</time>
      </trkpt>
      <trkpt lat="42.76287" lon="-0.57037">
        <ele>2462</ele>
        <time>2018-12-27T18:56:38Z</time>
      </trkpt>
      <trkpt lat="42.76302" lon="-0.57037">
        <ele>2464</ele>
        <time>2018-12-27T18:56:42Z</time>
      </trkpt>
      <trkpt lat="42.76313" lon="-0.57027">
        <ele>2465</ele>
        <time>2018-12-27T18:56:45Z</time>
      </trkpt>
      <trkpt lat="42.76317" lon="-0.5702">
        <ele>2466</ele>
        <time>2018-12-27T18:56:47Z</time>
      </trkpt>
      <trkpt lat="42.76313" lon="-0.57012">
        <ele>2471</ele>
        <time>2018-12-27T18:56:49Z</time>
      </trkpt>
      <trkpt lat="42.76311" lon="-0.56991">
        <ele>2482</ele>
        <time>2018-12-27T18:56:53Z</time>
      </trkpt>
      <trkpt lat="42.76318" lon="-0.56981">
        <ele>2487</ele>
        <time>2018-12-27T18:56:56Z</time>
      </trkpt>
      <trkpt lat="42.76316" lon="-0.56973">
        <ele>2491</ele>
        <time>2018-12-27T18:56:57Z</time>
      </trkpt>
      <trkpt lat="42.76319" lon="-0.56968">
        <ele>2494</ele>
        <time>2018-12-27T18:56:59Z</time>
      </trkpt>
      <trkpt lat="42.7632" lon="-0.56947">
        <ele>2509</ele>
        <time>2018-12-27T18:57:03Z</time>
      </trkpt>
      <trkpt lat="42.76318" lon="-0.56938">
        <ele>2512</ele>
        <time>2018-12-27T18:57:05Z</time>
      </trkpt>
      <trkpt lat="42.7632" lon="-0.5692">
        <ele>2520</ele>
        <time>2018-12-27T18:57:08Z</time>
      </trkpt>
      <trkpt lat="42.76313" lon="-0.56876">
        <ele>2531</ele>
        <time>2018-12-27T18:57:17Z</time>
      </trkpt>
      <trkpt lat="42.76316" lon="-0.56866">
        <ele>2534</ele>
        <time>2018-12-27T18:57:19Z</time>
      </trkpt>
      <trkpt lat="42.76325" lon="-0.56864">
        <ele>2539</ele>
        <time>2018-12-27T18:57:22Z</time>
      </trkpt>
      <trkpt lat="42.76319" lon="-0.56849">
        <ele>2539</ele>
        <time>2018-12-27T18:57:25Z</time>
      </trkpt>
      <trkpt lat="42.76329" lon="-0.56853">
        <ele>2543</ele>
        <time>2018-12-27T18:57:28Z</time>
      </trkpt>
      <trkpt lat="42.76341" lon="-0.56849">
        <ele>2548</ele>
        <time>2018-12-27T18:57:31Z</time>
      </trkpt>
      <trkpt lat="42.76341" lon="-0.56842">
        <ele>2550</ele>
        <time>2018-12-27T18:57:32Z</time>
      </trkpt>
      <trkpt lat="42.76339" lon="-0.56831">
        <ele>2553</ele>
        <time>2018-12-27T18:57:35Z</time>
      </trkpt>
      <trkpt lat="42.76345" lon="-0.56825">
        <ele>2557</ele>
        <time>2018-12-27T18:57:37Z</time>
      </trkpt>
      <trkpt lat="42.76351" lon="-0.56825">
        <ele>2560</ele>
        <time>2018-12-27T18:57:38Z</time>
      </trkpt>
      <trkpt lat="42.76351" lon="-0.56813">
        <ele>2565</ele>
        <time>2018-12-27T18:57:41Z</time>
      </trkpt>
      <trkpt lat="42.76358" lon="-0.56797">
        <ele>2573</ele>
        <time>2018-12-27T18:57:44Z</time>
      </trkpt>
      <trkpt lat="42.76357" lon="-0.56759">
        <ele>2572</ele>
        <time>2018-12-27T18:57:52Z</time>
      </trkpt>
      <trkpt lat="42.76353" lon="-0.56733">
        <ele>2563</ele>
        <time>2018-12-27T18:57:57Z</time>
      </trkpt>
      <trkpt lat="42.76353" lon="-0.56719">
        <ele>2559</ele>
        <time>2018-12-27T18:58:00Z</time>
      </trkpt>
      <trkpt lat="42.76329" lon="-0.56672">
        <ele>2588</ele>
        <time>2018-12-27T18:58:11Z</time>
      </trkpt>
      <trkpt lat="42.76328" lon="-0.56664">
        <ele>2593</ele>
        <time>2018-12-27T18:58:12Z</time>
      </trkpt>
      <trkpt lat="42.76324" lon="-0.56658">
        <ele>2595</ele>
        <time>2018-12-27T18:58:14Z</time>
      </trkpt>
      <trkpt lat="42.76319" lon="-0.5665">
        <ele>2596</ele>
        <time>2018-12-27T18:58:16Z</time>
      </trkpt>
      <trkpt lat="42.76319" lon="-0.56621">
        <ele>2605</ele>
        <time>2018-12-27T18:58:22Z</time>
      </trkpt>
      <trkpt lat="42.76327" lon="-0.566">
        <ele>2605</ele>
        <time>2018-12-27T18:58:27Z</time>
      </trkpt>
      <trkpt lat="42.76333" lon="-0.56587">
        <ele>2601</ele>
        <time>2018-12-27T18:58:30Z</time>
      </trkpt>
      <trkpt lat="42.7634" lon="-0.56576">
        <ele>2596</ele>
        <time>2018-12-27T18:58:32Z</time>
      </trkpt>
      <trkpt lat="42.76346" lon="-0.56577">
        <ele>2594</ele>
        <time>2018-12-27T18:58:34Z</time>
      </trkpt>
      <trkpt lat="42.76336" lon="-0.56594">
        <ele>2601</ele>
        <time>2018-12-27T18:58:38Z</time>
      </trkpt>
      <trkpt lat="42.76333" lon="-0.56603">
        <ele>2605</ele>
        <time>2018-12-27T18:58:40Z</time>
      </trkpt>
      <trkpt lat="42.76329" lon="-0.56609">
        <ele>2606</ele>
        <time>2018-12-27T18:58:42Z</time>
      </trkpt>
      <trkpt lat="42.76323" lon="-0.56623">
        <ele>2605</ele>
        <time>2018-12-27T18:58:45Z</time>
      </trkpt>
      <trkpt lat="42.76324" lon="-0.56645">
        <ele>2600</ele>
        <time>2018-12-27T18:58:49Z</time>
      </trkpt>
      <trkpt lat="42.7633" lon="-0.56653">
        <ele>2598</ele>
        <time>2018-12-27T18:58:51Z</time>
      </trkpt>
      <trkpt lat="42.76335" lon="-0.56666">
        <ele>2593</ele>
        <time>2018-12-27T18:58:55Z</time>
      </trkpt>
      <trkpt lat="42.76337" lon="-0.56679">
        <ele>2581</ele>
        <time>2018-12-27T18:58:57Z</time>
      </trkpt>
      <trkpt lat="42.76347" lon="-0.56693">
        <ele>2564</ele>
        <time>2018-12-27T18:59:01Z</time>
      </trkpt>
      <trkpt lat="42.76353" lon="-0.56709">
        <ele>2559</ele>
        <time>2018-12-27T18:59:04Z</time>
      </trkpt>
      <trkpt lat="42.76359" lon="-0.56714">
        <ele>2557</ele>
        <time>2018-12-27T18:59:06Z</time>
      </trkpt>
      <trkpt lat="42.76369" lon="-0.56703">
        <ele>2553</ele>
        <time>2018-12-27T18:59:10Z</time>
      </trkpt>
      <trkpt lat="42.76376" lon="-0.56689">
        <ele>2550</ele>
        <time>2018-12-27T18:59:13Z</time>
      </trkpt>
      <trkpt lat="42.7639" lon="-0.56695">
        <ele>2538</ele>
        <time>2018-12-27T18:59:17Z</time>
      </trkpt>
      <trkpt lat="42.76395" lon="-0.56691">
        <ele>2540</ele>
        <time>2018-12-27T18:59:19Z</time>
      </trkpt>
      <trkpt lat="42.764" lon="-0.56691">
        <ele>2540</ele>
        <time>2018-12-27T18:59:20Z</time>
      </trkpt>
      <trkpt lat="42.76406" lon="-0.56683">
        <ele>2540</ele>
        <time>2018-12-27T18:59:22Z</time>
      </trkpt>
      <trkpt lat="42.76415" lon="-0.56691">
        <ele>2541</ele>
        <time>2018-12-27T18:59:25Z</time>
      </trkpt>
      <trkpt lat="42.76425" lon="-0.56676">
        <ele>2517</ele>
        <time>2018-12-27T18:59:29Z</time>
      </trkpt>
      <trkpt lat="42.76429" lon="-0.56673">
        <ele>2509</ele>
        <time>2018-12-27T18:59:30Z</time>
      </trkpt>
      <trkpt lat="42.76438" lon="-0.56665">
        <ele>2495</ele>
        <time>2018-12-27T18:59:33Z</time>
      </trkpt>
      <trkpt lat="42.76448" lon="-0.56659">
        <ele>2484</ele>
        <time>2018-12-27T18:59:36Z</time>
      </trkpt>
      <trkpt lat="42.76453" lon="-0.56653">
        <ele>2481</ele>
        <time>2018-12-27T18:59:38Z</time>
      </trkpt>
      <trkpt lat="42.76462" lon="-0.5665">
        <ele>2473</ele>
        <time>2018-12-27T18:59:40Z</time>
      </trkpt>
      <trkpt lat="42.76471" lon="-0.56641">
        <ele>2468</ele>
        <time>2018-12-27T18:59:43Z</time>
      </trkpt>
      <trkpt lat="42.76472" lon="-0.56633">
        <ele>2471</ele>
        <time>2018-12-27T18:59:45Z</time>
      </trkpt>
      <trkpt lat="42.76484" lon="-0.56629">
        <ele>2452</ele>
        <time>2018-12-27T18:59:48Z</time>
      </trkpt>
      <trkpt lat="42.76484" lon="-0.56609">
        <ele>2469</ele>
        <time>2018-12-27T18:59:52Z</time>
      </trkpt>
      <trkpt lat="42.76487" lon="-0.56598">
        <ele>2470</ele>
        <time>2018-12-27T18:59:55Z</time>
      </trkpt>
      <trkpt lat="42.76509" lon="-0.56565">
        <ele>2455</ele>
        <time>2018-12-27T19:00:03Z</time>
      </trkpt>
      <trkpt lat="42.76515" lon="-0.56562">
        <ele>2453</ele>
        <time>2018-12-27T19:00:05Z</time>
      </trkpt>
      <trkpt lat="42.76521" lon="-0.56553">
        <ele>2452</ele>
        <time>2018-12-27T19:00:07Z</time>
      </trkpt>
      <trkpt lat="42.76522" lon="-0.56546">
        <ele>2449</ele>
        <time>2018-12-27T19:00:09Z</time>
      </trkpt>
      <trkpt lat="42.76527" lon="-0.56549">
        <ele>2448</ele>
        <time>2018-12-27T19:00:10Z</time>
      </trkpt>
      <trkpt lat="42.76529" lon="-0.56557">
        <ele>2449</ele>
        <time>2018-12-27T19:00:12Z</time>
      </trkpt>
      <trkpt lat="42.76535" lon="-0.56559">
        <ele>2444</ele>
        <time>2018-12-27T19:00:13Z</time>
      </trkpt>
      <trkpt lat="42.76549" lon="-0.5656">
        <ele>2434</ele>
        <time>2018-12-27T19:00:17Z</time>
      </trkpt>
      <trkpt lat="42.76566" lon="-0.56552">
        <ele>2433</ele>
        <time>2018-12-27T19:00:22Z</time>
      </trkpt>
      <trkpt lat="42.76576" lon="-0.56554">
        <ele>2432</ele>
        <time>2018-12-27T19:00:25Z</time>
      </trkpt>
      <trkpt lat="42.76572" lon="-0.5658">
        <ele>2420</ele>
        <time>2018-12-27T19:00:30Z</time>
      </trkpt>
      <trkpt lat="42.76573" lon="-0.56597">
        <ele>2412</ele>
        <time>2018-12-27T19:00:33Z</time>
      </trkpt>
      <trkpt lat="42.76567" lon="-0.56602">
        <ele>2412</ele>
        <time>2018-12-27T19:00:35Z</time>
      </trkpt>
      <trkpt lat="42.76565" lon="-0.56609">
        <ele>2410</ele>
        <time>2018-12-27T19:00:37Z</time>
      </trkpt>
      <trkpt lat="42.76577" lon="-0.56613">
        <ele>2403</ele>
        <time>2018-12-27T19:00:40Z</time>
      </trkpt>
      <trkpt lat="42.76604" lon="-0.56595">
        <ele>2403</ele>
        <time>2018-12-27T19:00:48Z</time>
      </trkpt>
      <trkpt lat="42.76615" lon="-0.56589">
        <ele>2400</ele>
        <time>2018-12-27T19:00:51Z</time>
      </trkpt>
      <trkpt lat="42.76623" lon="-0.56587">
        <ele>2397</ele>
        <time>2018-12-27T19:00:53Z</time>
      </trkpt>
      <trkpt lat="42.76633" lon="-0.56587">
        <ele>2392</ele>
        <time>2018-12-27T19:00:56Z</time>
      </trkpt>
      <trkpt lat="42.76637" lon="-0.56582">
        <ele>2391</ele>
        <time>2018-12-27T19:00:57Z</time>
      </trkpt>
      <trkpt lat="42.76643" lon="-0.56579">
        <ele>2389</ele>
        <time>2018-12-27T19:00:59Z</time>
      </trkpt>
      <trkpt lat="42.76646" lon="-0.56572">
        <ele>2389</ele>
        <time>2018-12-27T19:01:01Z</time>
      </trkpt>
      <trkpt lat="42.76655" lon="-0.56567">
        <ele>2385</ele>
        <time>2018-12-27T19:01:03Z</time>
      </trkpt>
      <trkpt lat="42.76661" lon="-0.56567">
        <ele>2382</ele>
        <time>2018-12-27T19:01:05Z</time>
      </trkpt>
      <trkpt lat="42.76667" lon="-0.56565">
        <ele>2379</ele>
        <time>2018-12-27T19:01:07Z</time>
      </trkpt>
      <trkpt lat="42.76673" lon="-0.56566">
        <ele>2377</ele>
        <time>2018-12-27T19:01:08Z</time>
      </trkpt>
      <trkpt lat="42.76683" lon="-0.56572">
        <ele>2376</ele>
        <time>2018-12-27T19:01:11Z</time>
      </trkpt>
      <trkpt lat="42.7669" lon="-0.56571">
        <ele>2374</ele>
        <time>2018-12-27T19:01:13Z</time>
      </trkpt>
      <trkpt lat="42.76698" lon="-0.56565">
        <ele>2369</ele>
        <time>2018-12-27T19:01:15Z</time>
      </trkpt>
      <trkpt lat="42.76706" lon="-0.56546">
        <ele>2368</ele>
        <time>2018-12-27T19:01:20Z</time>
      </trkpt>
      <trkpt lat="42.7673" lon="-0.56523">
        <ele>2367</ele>
        <time>2018-12-27T19:01:28Z</time>
      </trkpt>
      <trkpt lat="42.76757" lon="-0.56514">
        <ele>2355</ele>
        <time>2018-12-27T19:01:35Z</time>
      </trkpt>
      <trkpt lat="42.76762" lon="-0.56517">
        <ele>2355</ele>
        <time>2018-12-27T19:01:36Z</time>
      </trkpt>
      <trkpt lat="42.76764" lon="-0.56511">
        <ele>2351</ele>
        <time>2018-12-27T19:01:38Z</time>
      </trkpt>
      <trkpt lat="42.76768" lon="-0.56516">
        <ele>2353</ele>
        <time>2018-12-27T19:01:39Z</time>
      </trkpt>
      <trkpt lat="42.76775" lon="-0.56514">
        <ele>2350</ele>
        <time>2018-12-27T19:01:41Z</time>
      </trkpt>
      <trkpt lat="42.7678" lon="-0.56501">
        <ele>2340</ele>
        <time>2018-12-27T19:01:44Z</time>
      </trkpt>
      <trkpt lat="42.76785" lon="-0.56498">
        <ele>2338</ele>
        <time>2018-12-27T19:01:45Z</time>
      </trkpt>
      <trkpt lat="42.76781" lon="-0.56487">
        <ele>2334</ele>
        <time>2018-12-27T19:01:48Z</time>
      </trkpt>
      <trkpt lat="42.76799" lon="-0.56471">
        <ele>2325</ele>
        <time>2018-12-27T19:01:53Z</time>
      </trkpt>
      <trkpt lat="42.76806" lon="-0.56459">
        <ele>2319</ele>
        <time>2018-12-27T19:01:56Z</time>
      </trkpt>
      <trkpt lat="42.76806" lon="-0.56446">
        <ele>2313</ele>
        <time>2018-12-27T19:01:59Z</time>
      </trkpt>
      <trkpt lat="42.76798" lon="-0.56435">
        <ele>2312</ele>
        <time>2018-12-27T19:02:02Z</time>
      </trkpt>
      <trkpt lat="42.76798" lon="-0.56427">
        <ele>2309</ele>
        <time>2018-12-27T19:02:04Z</time>
      </trkpt>
      <trkpt lat="42.76794" lon="-0.56422">
        <ele>2308</ele>
        <time>2018-12-27T19:02:05Z</time>
      </trkpt>
      <trkpt lat="42.76807" lon="-0.56386">
        <ele>2298</ele>
        <time>2018-12-27T19:02:13Z</time>
      </trkpt>
      <trkpt lat="42.76815" lon="-0.56376">
        <ele>2289</ele>
        <time>2018-12-27T19:02:16Z</time>
      </trkpt>
      <trkpt lat="42.76826" lon="-0.56374">
        <ele>2289</ele>
        <time>2018-12-27T19:02:19Z</time>
      </trkpt>
      <trkpt lat="42.7683" lon="-0.56358">
        <ele>2279</ele>
        <time>2018-12-27T19:02:22Z</time>
      </trkpt>
      <trkpt lat="42.76833" lon="-0.56334">
        <ele>2249</ele>
        <time>2018-12-27T19:02:27Z</time>
      </trkpt>
      <trkpt lat="42.76837" lon="-0.56327">
        <ele>2248</ele>
        <time>2018-12-27T19:02:29Z</time>
      </trkpt>
      <trkpt lat="42.76836" lon="-0.56317">
        <ele>2244</ele>
        <time>2018-12-27T19:02:31Z</time>
      </trkpt>
      <trkpt lat="42.76843" lon="-0.56311">
        <ele>2248</ele>
        <time>2018-12-27T19:02:33Z</time>
      </trkpt>
      <trkpt lat="42.76841" lon="-0.56286">
        <ele>2244</ele>
        <time>2018-12-27T19:02:38Z</time>
      </trkpt>
      <trkpt lat="42.76843" lon="-0.56276">
        <ele>2245</ele>
        <time>2018-12-27T19:02:40Z</time>
      </trkpt>
      <trkpt lat="42.76846" lon="-0.56258">
        <ele>2241</ele>
        <time>2018-12-27T19:02:43Z</time>
      </trkpt>
      <trkpt lat="42.7685" lon="-0.56247">
        <ele>2239</ele>
        <time>2018-12-27T19:02:46Z</time>
      </trkpt>
      <trkpt lat="42.76862" lon="-0.5623">
        <ele>2235</ele>
        <time>2018-12-27T19:02:50Z</time>
      </trkpt>
      <trkpt lat="42.76865" lon="-0.56222">
        <ele>2233</ele>
        <time>2018-12-27T19:02:52Z</time>
      </trkpt>
      <trkpt lat="42.76871" lon="-0.56194">
        <ele>2229</ele>
        <time>2018-12-27T19:02:58Z</time>
      </trkpt>
      <trkpt lat="42.76869" lon="-0.56172">
        <ele>2212</ele>
        <time>2018-12-27T19:03:02Z</time>
      </trkpt>
      <trkpt lat="42.76882" lon="-0.56162">
        <ele>2213</ele>
        <time>2018-12-27T19:03:06Z</time>
      </trkpt>
      <trkpt lat="42.76884" lon="-0.56154">
        <ele>2212</ele>
        <time>2018-12-27T19:03:08Z</time>
      </trkpt>
      <trkpt lat="42.7688" lon="-0.56143">
        <ele>2207</ele>
        <time>2018-12-27T19:03:10Z</time>
      </trkpt>
      <trkpt lat="42.76881" lon="-0.56131">
        <ele>2207</ele>
        <time>2018-12-27T19:03:12Z</time>
      </trkpt>
      <trkpt lat="42.7688" lon="-0.56123">
        <ele>2206</ele>
        <time>2018-12-27T19:03:14Z</time>
      </trkpt>
      <trkpt lat="42.76872" lon="-0.56116">
        <ele>2204</ele>
        <time>2018-12-27T19:03:17Z</time>
      </trkpt>
      <trkpt lat="42.76873" lon="-0.56108">
        <ele>2204</ele>
        <time>2018-12-27T19:03:18Z</time>
      </trkpt>
      <trkpt lat="42.76867" lon="-0.56109">
        <ele>2203</ele>
        <time>2018-12-27T19:03:20Z</time>
      </trkpt>
      <trkpt lat="42.76861" lon="-0.56107">
        <ele>2202</ele>
        <time>2018-12-27T19:03:22Z</time>
      </trkpt>
      <trkpt lat="42.76855" lon="-0.56095">
        <ele>2193</ele>
        <time>2018-12-27T19:03:24Z</time>
      </trkpt>
      <trkpt lat="42.76851" lon="-0.56083">
        <ele>2185</ele>
        <time>2018-12-27T19:03:27Z</time>
      </trkpt>
      <trkpt lat="42.76848" lon="-0.56078">
        <ele>2179</ele>
        <time>2018-12-27T19:03:28Z</time>
      </trkpt>
      <trkpt lat="42.76843" lon="-0.56078">
        <ele>2172</ele>
        <time>2018-12-27T19:03:30Z</time>
      </trkpt>
      <trkpt lat="42.76842" lon="-0.56068">
        <ele>2167</ele>
        <time>2018-12-27T19:03:32Z</time>
      </trkpt>
      <trkpt lat="42.76846" lon="-0.56057">
        <ele>2167</ele>
        <time>2018-12-27T19:03:34Z</time>
      </trkpt>
      <trkpt lat="42.76831" lon="-0.56023">
        <ele>2133</ele>
        <time>2018-12-27T19:03:42Z</time>
      </trkpt>
      <trkpt lat="42.7683" lon="-0.56015">
        <ele>2133</ele>
        <time>2018-12-27T19:03:43Z</time>
      </trkpt>
      <trkpt lat="42.76819" lon="-0.55981">
        <ele>2128</ele>
        <time>2018-12-27T19:03:51Z</time>
      </trkpt>
      <trkpt lat="42.7682" lon="-0.55962">
        <ele>2131</ele>
        <time>2018-12-27T19:03:54Z</time>
      </trkpt>
      <trkpt lat="42.7682" lon="-0.55946">
        <ele>2134</ele>
        <time>2018-12-27T19:03:57Z</time>
      </trkpt>
      <trkpt lat="42.76816" lon="-0.55929">
        <ele>2132</ele>
        <time>2018-12-27T19:04:01Z</time>
      </trkpt>
      <trkpt lat="42.76815" lon="-0.55917">
        <ele>2132</ele>
        <time>2018-12-27T19:04:03Z</time>
      </trkpt>
      <trkpt lat="42.76812" lon="-0.5591">
        <ele>2130</ele>
        <time>2018-12-27T19:04:05Z</time>
      </trkpt>
      <trkpt lat="42.76807" lon="-0.55906">
        <ele>2124</ele>
        <time>2018-12-27T19:04:07Z</time>
      </trkpt>
      <trkpt lat="42.76805" lon="-0.55892">
        <ele>2123</ele>
        <time>2018-12-27T19:04:09Z</time>
      </trkpt>
      <trkpt lat="42.76799" lon="-0.5588">
        <ele>2118</ele>
        <time>2018-12-27T19:04:12Z</time>
      </trkpt>
      <trkpt lat="42.7679" lon="-0.55864">
        <ele>2108</ele>
        <time>2018-12-27T19:04:16Z</time>
      </trkpt>
      <trkpt lat="42.76784" lon="-0.5584">
        <ele>2111</ele>
        <time>2018-12-27T19:04:21Z</time>
      </trkpt>
      <trkpt lat="42.76783" lon="-0.55821">
        <ele>2116</ele>
        <time>2018-12-27T19:04:25Z</time>
      </trkpt>
      <trkpt lat="42.76781" lon="-0.55814">
        <ele>2117</ele>
        <time>2018-12-27T19:04:26Z</time>
      </trkpt>
      <trkpt lat="42.76781" lon="-0.55807">
        <ele>2119</ele>
        <time>2018-12-27T19:04:28Z</time>
      </trkpt>
      <trkpt lat="42.76776" lon="-0.55795">
        <ele>2112</ele>
        <time>2018-12-27T19:04:30Z</time>
      </trkpt>
      <trkpt lat="42.76778" lon="-0.55775">
        <ele>2105</ele>
        <time>2018-12-27T19:04:34Z</time>
      </trkpt>
      <trkpt lat="42.76785" lon="-0.55744">
        <ele>2115</ele>
        <time>2018-12-27T19:04:41Z</time>
      </trkpt>
      <trkpt lat="42.76783" lon="-0.55725">
        <ele>2109</ele>
        <time>2018-12-27T19:04:44Z</time>
      </trkpt>
      <trkpt lat="42.76786" lon="-0.55698">
        <ele>2107</ele>
        <time>2018-12-27T19:04:50Z</time>
      </trkpt>
      <trkpt lat="42.7679" lon="-0.55693">
        <ele>2107</ele>
        <time>2018-12-27T19:04:51Z</time>
      </trkpt>
      <trkpt lat="42.76805" lon="-0.55682">
        <ele>2107</ele>
        <time>2018-12-27T19:04:56Z</time>
      </trkpt>
      <trkpt lat="42.76811" lon="-0.5566">
        <ele>2097</ele>
        <time>2018-12-27T19:05:00Z</time>
      </trkpt>
      <trkpt lat="42.76815" lon="-0.55652">
        <ele>2095</ele>
        <time>2018-12-27T19:05:02Z</time>
      </trkpt>
      <trkpt lat="42.76821" lon="-0.55628">
        <ele>2093</ele>
        <time>2018-12-27T19:05:07Z</time>
      </trkpt>
      <trkpt lat="42.76825" lon="-0.55602">
        <ele>2093</ele>
        <time>2018-12-27T19:05:12Z</time>
      </trkpt>
      <trkpt lat="42.76823" lon="-0.55548">
        <ele>2106</ele>
        <time>2018-12-27T19:05:23Z</time>
      </trkpt>
      <trkpt lat="42.76827" lon="-0.55511">
        <ele>2115</ele>
        <time>2018-12-27T19:05:30Z</time>
      </trkpt>
      <trkpt lat="42.76825" lon="-0.55479">
        <ele>2119</ele>
        <time>2018-12-27T19:05:37Z</time>
      </trkpt>
      <trkpt lat="42.76823" lon="-0.5547">
        <ele>2119</ele>
        <time>2018-12-27T19:05:38Z</time>
      </trkpt>
      <trkpt lat="42.76823" lon="-0.55458">
        <ele>2120</ele>
        <time>2018-12-27T19:05:41Z</time>
      </trkpt>
      <trkpt lat="42.76819" lon="-0.55438">
        <ele>2119</ele>
        <time>2018-12-27T19:05:45Z</time>
      </trkpt>
      <trkpt lat="42.76813" lon="-0.5543">
        <ele>2117</ele>
        <time>2018-12-27T19:05:47Z</time>
      </trkpt>
      <trkpt lat="42.76809" lon="-0.55413">
        <ele>2116</ele>
        <time>2018-12-27T19:05:50Z</time>
      </trkpt>
      <trkpt lat="42.76805" lon="-0.55406">
        <ele>2115</ele>
        <time>2018-12-27T19:05:52Z</time>
      </trkpt>
      <trkpt lat="42.76802" lon="-0.55391">
        <ele>2114</ele>
        <time>2018-12-27T19:05:55Z</time>
      </trkpt>
      <trkpt lat="42.76804" lon="-0.55385">
        <ele>2114</ele>
        <time>2018-12-27T19:05:57Z</time>
      </trkpt>
      <trkpt lat="42.76804" lon="-0.55375">
        <ele>2114</ele>
        <time>2018-12-27T19:05:58Z</time>
      </trkpt>
      <trkpt lat="42.7681" lon="-0.55328">
        <ele>2114</ele>
        <time>2018-12-27T19:06:08Z</time>
      </trkpt>
      <trkpt lat="42.76814" lon="-0.55336">
        <ele>2117</ele>
        <time>2018-12-27T19:06:10Z</time>
      </trkpt>
      <trkpt lat="42.76816" lon="-0.55346">
        <ele>2117</ele>
        <time>2018-12-27T19:06:12Z</time>
      </trkpt>
      <trkpt lat="42.7682" lon="-0.55343">
        <ele>2118</ele>
        <time>2018-12-27T19:06:13Z</time>
      </trkpt>
      <trkpt lat="42.76823" lon="-0.55324">
        <ele>2114</ele>
        <time>2018-12-27T19:06:17Z</time>
      </trkpt>
      <trkpt lat="42.76827" lon="-0.55318">
        <ele>2112</ele>
        <time>2018-12-27T19:06:18Z</time>
      </trkpt>
      <trkpt lat="42.7684" lon="-0.553">
        <ele>2107</ele>
        <time>2018-12-27T19:06:23Z</time>
      </trkpt>
      <trkpt lat="42.76867" lon="-0.55275">
        <ele>2098</ele>
        <time>2018-12-27T19:06:32Z</time>
      </trkpt>
      <trkpt lat="42.76872" lon="-0.55257">
        <ele>2091</ele>
        <time>2018-12-27T19:06:36Z</time>
      </trkpt>
      <trkpt lat="42.76865" lon="-0.55245">
        <ele>2085</ele>
        <time>2018-12-27T19:06:39Z</time>
      </trkpt>
      <trkpt lat="42.76865" lon="-0.55237">
        <ele>2077</ele>
        <time>2018-12-27T19:06:40Z</time>
      </trkpt>
      <trkpt lat="42.76855" lon="-0.55223">
        <ele>2059</ele>
        <time>2018-12-27T19:06:44Z</time>
      </trkpt>
      <trkpt lat="42.76853" lon="-0.55209">
        <ele>2052</ele>
        <time>2018-12-27T19:06:47Z</time>
      </trkpt>
      <trkpt lat="42.76856" lon="-0.55201">
        <ele>2050</ele>
        <time>2018-12-27T19:06:48Z</time>
      </trkpt>
      <trkpt lat="42.7686" lon="-0.55198">
        <ele>2051</ele>
        <time>2018-12-27T19:06:50Z</time>
      </trkpt>
      <trkpt lat="42.76862" lon="-0.55192">
        <ele>2050</ele>
        <time>2018-12-27T19:06:51Z</time>
      </trkpt>
      <trkpt lat="42.76869" lon="-0.55141">
        <ele>2035</ele>
        <time>2018-12-27T19:07:01Z</time>
      </trkpt>
      <trkpt lat="42.76859" lon="-0.55126">
        <ele>2024</ele>
        <time>2018-12-27T19:07:05Z</time>
      </trkpt>
      <trkpt lat="42.76863" lon="-0.55104">
        <ele>2018</ele>
        <time>2018-12-27T19:07:10Z</time>
      </trkpt>
      <trkpt lat="42.76878" lon="-0.55067">
        <ele>2023</ele>
        <time>2018-12-27T19:07:18Z</time>
      </trkpt>
      <trkpt lat="42.76891" lon="-0.55061">
        <ele>2029</ele>
        <time>2018-12-27T19:07:22Z</time>
      </trkpt>
      <trkpt lat="42.76899" lon="-0.55051">
        <ele>2034</ele>
        <time>2018-12-27T19:07:25Z</time>
      </trkpt>
      <trkpt lat="42.76907" lon="-0.55023">
        <ele>2041</ele>
        <time>2018-12-27T19:07:30Z</time>
      </trkpt>
      <trkpt lat="42.76913" lon="-0.54998">
        <ele>2044</ele>
        <time>2018-12-27T19:07:36Z</time>
      </trkpt>
      <trkpt lat="42.76917" lon="-0.54967">
        <ele>2045</ele>
        <time>2018-12-27T19:07:42Z</time>
      </trkpt>
      <trkpt lat="42.76934" lon="-0.54945">
        <ele>2043</ele>
        <time>2018-12-27T19:07:48Z</time>
      </trkpt>
      <trkpt lat="42.76908" lon="-0.54771">
        <ele>2023</ele>
        <time>2018-12-27T19:08:23Z</time>
      </trkpt>
      <trkpt lat="42.76909" lon="-0.5475">
        <ele>2024</ele>
        <time>2018-12-27T19:08:27Z</time>
      </trkpt>
      <trkpt lat="42.76906" lon="-0.54737">
        <ele>2024</ele>
        <time>2018-12-27T19:08:30Z</time>
      </trkpt>
      <trkpt lat="42.76895" lon="-0.54712">
        <ele>2023</ele>
        <time>2018-12-27T19:08:35Z</time>
      </trkpt>
      <trkpt lat="42.76896" lon="-0.54693">
        <ele>2022</ele>
        <time>2018-12-27T19:08:39Z</time>
      </trkpt>
      <trkpt lat="42.76891" lon="-0.54672">
        <ele>2018</ele>
        <time>2018-12-27T19:08:43Z</time>
      </trkpt>
      <trkpt lat="42.76886" lon="-0.5464">
        <ele>2011</ele>
        <time>2018-12-27T19:08:50Z</time>
      </trkpt>
      <trkpt lat="42.76887" lon="-0.5461">
        <ele>2006</ele>
        <time>2018-12-27T19:08:55Z</time>
      </trkpt>
      <trkpt lat="42.76896" lon="-0.54589">
        <ele>1999</ele>
        <time>2018-12-27T19:09:00Z</time>
      </trkpt>
      <trkpt lat="42.76896" lon="-0.54572">
        <ele>1993</ele>
        <time>2018-12-27T19:09:04Z</time>
      </trkpt>
      <trkpt lat="42.76903" lon="-0.54565">
        <ele>1987</ele>
        <time>2018-12-27T19:09:06Z</time>
      </trkpt>
      <trkpt lat="42.7691" lon="-0.54551">
        <ele>1976</ele>
        <time>2018-12-27T19:09:09Z</time>
      </trkpt>
      <trkpt lat="42.76915" lon="-0.54547">
        <ele>1971</ele>
        <time>2018-12-27T19:09:11Z</time>
      </trkpt>
      <trkpt lat="42.76936" lon="-0.54524">
        <ele>1952</ele>
        <time>2018-12-27T19:09:18Z</time>
      </trkpt>
      <trkpt lat="42.76934" lon="-0.545">
        <ele>1947</ele>
        <time>2018-12-27T19:09:23Z</time>
      </trkpt>
      <trkpt lat="42.76952" lon="-0.54492">
        <ele>1938</ele>
        <time>2018-12-27T19:09:28Z</time>
      </trkpt>
      <trkpt lat="42.76949" lon="-0.54481">
        <ele>1939</ele>
        <time>2018-12-27T19:09:30Z</time>
      </trkpt>
      <trkpt lat="42.76949" lon="-0.54471">
        <ele>1939</ele>
        <time>2018-12-27T19:09:32Z</time>
      </trkpt>
      <trkpt lat="42.76956" lon="-0.5446">
        <ele>1937</ele>
        <time>2018-12-27T19:09:35Z</time>
      </trkpt>
      <trkpt lat="42.76971" lon="-0.5445">
        <ele>1932</ele>
        <time>2018-12-27T19:09:39Z</time>
      </trkpt>
      <trkpt lat="42.76986" lon="-0.54447">
        <ele>1927</ele>
        <time>2018-12-27T19:09:43Z</time>
      </trkpt>
      <trkpt lat="42.76994" lon="-0.5444">
        <ele>1924</ele>
        <time>2018-12-27T19:09:46Z</time>
      </trkpt>
      <trkpt lat="42.77007" lon="-0.54437">
        <ele>1920</ele>
        <time>2018-12-27T19:09:49Z</time>
      </trkpt>
      <trkpt lat="42.77027" lon="-0.54429">
        <ele>1915</ele>
        <time>2018-12-27T19:09:55Z</time>
      </trkpt>
      <trkpt lat="42.77032" lon="-0.54404">
        <ele>1912</ele>
        <time>2018-12-27T19:10:00Z</time>
      </trkpt>
      <trkpt lat="42.77024" lon="-0.54358">
        <ele>1909</ele>
        <time>2018-12-27T19:10:09Z</time>
      </trkpt>
      <trkpt lat="42.77019" lon="-0.54343">
        <ele>1909</ele>
        <time>2018-12-27T19:10:12Z</time>
      </trkpt>
      <trkpt lat="42.77016" lon="-0.54315">
        <ele>1910</ele>
        <time>2018-12-27T19:10:18Z</time>
      </trkpt>
      <trkpt lat="42.77015" lon="-0.54301">
        <ele>1911</ele>
        <time>2018-12-27T19:10:21Z</time>
      </trkpt>
      <trkpt lat="42.77017" lon="-0.54278">
        <ele>1911</ele>
        <time>2018-12-27T19:10:25Z</time>
      </trkpt>
      <trkpt lat="42.77008" lon="-0.54258">
        <ele>1912</ele>
        <time>2018-12-27T19:10:30Z</time>
      </trkpt>
      <trkpt lat="42.77003" lon="-0.54255">
        <ele>1911</ele>
        <time>2018-12-27T19:10:31Z</time>
      </trkpt>
      <trkpt lat="42.76996" lon="-0.54241">
        <ele>1910</ele>
        <time>2018-12-27T19:10:35Z</time>
      </trkpt>
      <trkpt lat="42.7698" lon="-0.5422">
        <ele>1907</ele>
        <time>2018-12-27T19:10:41Z</time>
      </trkpt>
      <trkpt lat="42.76969" lon="-0.54212">
        <ele>1906</ele>
        <time>2018-12-27T19:10:44Z</time>
      </trkpt>
      <trkpt lat="42.76952" lon="-0.54204">
        <ele>1904</ele>
        <time>2018-12-27T19:10:49Z</time>
      </trkpt>
      <trkpt lat="42.76926" lon="-0.54196">
        <ele>1904</ele>
        <time>2018-12-27T19:10:56Z</time>
      </trkpt>
      <trkpt lat="42.76902" lon="-0.54184">
        <ele>1909</ele>
        <time>2018-12-27T19:11:03Z</time>
      </trkpt>
      <trkpt lat="42.7688" lon="-0.54177">
        <ele>1913</ele>
        <time>2018-12-27T19:11:09Z</time>
      </trkpt>
      <trkpt lat="42.76865" lon="-0.54153">
        <ele>1913</ele>
        <time>2018-12-27T19:11:15Z</time>
      </trkpt>
      <trkpt lat="42.76852" lon="-0.54119">
        <ele>1910</ele>
        <time>2018-12-27T19:11:22Z</time>
      </trkpt>
      <trkpt lat="42.76837" lon="-0.54092">
        <ele>1908</ele>
        <time>2018-12-27T19:11:29Z</time>
      </trkpt>
      <trkpt lat="42.7682" lon="-0.54066">
        <ele>1902</ele>
        <time>2018-12-27T19:11:36Z</time>
      </trkpt>
      <trkpt lat="42.768" lon="-0.54053">
        <ele>1894</ele>
        <time>2018-12-27T19:11:42Z</time>
      </trkpt>
      <trkpt lat="42.76758" lon="-0.54017">
        <ele>1888</ele>
        <time>2018-12-27T19:11:55Z</time>
      </trkpt>
      <trkpt lat="42.76739" lon="-0.54023">
        <ele>1884</ele>
        <time>2018-12-27T19:12:00Z</time>
      </trkpt>
      <trkpt lat="42.76721" lon="-0.54044">
        <ele>1886</ele>
        <time>2018-12-27T19:12:06Z</time>
      </trkpt>
      <trkpt lat="42.76706" lon="-0.54045">
        <ele>1884</ele>
        <time>2018-12-27T19:12:10Z</time>
      </trkpt>
      <trkpt lat="42.76701" lon="-0.54041">
        <ele>1881</ele>
        <time>2018-12-27T19:12:12Z</time>
      </trkpt>
      <trkpt lat="42.76697" lon="-0.54032">
        <ele>1878</ele>
        <time>2018-12-27T19:12:14Z</time>
      </trkpt>
      <trkpt lat="42.76703" lon="-0.54012">
        <ele>1874</ele>
        <time>2018-12-27T19:12:18Z</time>
      </trkpt>
      <trkpt lat="42.76701" lon="-0.53993">
        <ele>1868</ele>
        <time>2018-12-27T19:12:22Z</time>
      </trkpt>
      <trkpt lat="42.76703" lon="-0.53955">
        <ele>1855</ele>
        <time>2018-12-27T19:12:30Z</time>
      </trkpt>
      <trkpt lat="42.76699" lon="-0.53952">
        <ele>1854</ele>
        <time>2018-12-27T19:12:31Z</time>
      </trkpt>
      <trkpt lat="42.76696" lon="-0.53946">
        <ele>1853</ele>
        <time>2018-12-27T19:12:32Z</time>
      </trkpt>
      <trkpt lat="42.76694" lon="-0.53922">
        <ele>1848</ele>
        <time>2018-12-27T19:12:37Z</time>
      </trkpt>
      <trkpt lat="42.76689" lon="-0.53905">
        <ele>1845</ele>
        <time>2018-12-27T19:12:41Z</time>
      </trkpt>
      <trkpt lat="42.76678" lon="-0.53906">
        <ele>1844</ele>
        <time>2018-12-27T19:12:44Z</time>
      </trkpt>
      <trkpt lat="42.7667" lon="-0.5391">
        <ele>1844</ele>
        <time>2018-12-27T19:12:46Z</time>
      </trkpt>
      <trkpt lat="42.76661" lon="-0.5391">
        <ele>1841</ele>
        <time>2018-12-27T19:12:48Z</time>
      </trkpt>
      <trkpt lat="42.76656" lon="-0.53912">
        <ele>1841</ele>
        <time>2018-12-27T19:12:50Z</time>
      </trkpt>
      <trkpt lat="42.76651" lon="-0.5391">
        <ele>1839</ele>
        <time>2018-12-27T19:12:51Z</time>
      </trkpt>
      <trkpt lat="42.76629" lon="-0.53942">
        <ele>1833</ele>
        <time>2018-12-27T19:13:00Z</time>
      </trkpt>
      <trkpt lat="42.76605" lon="-0.5399">
        <ele>1823</ele>
        <time>2018-12-27T19:13:11Z</time>
      </trkpt>
      <trkpt lat="42.76595" lon="-0.54004">
        <ele>1820</ele>
        <time>2018-12-27T19:13:15Z</time>
      </trkpt>
      <trkpt lat="42.76589" lon="-0.53999">
        <ele>1816</ele>
        <time>2018-12-27T19:13:17Z</time>
      </trkpt>
      <trkpt lat="42.76576" lon="-0.53981">
        <ele>1809</ele>
        <time>2018-12-27T19:13:22Z</time>
      </trkpt>
      <trkpt lat="42.76571" lon="-0.53978">
        <ele>1807</ele>
        <time>2018-12-27T19:13:23Z</time>
      </trkpt>
      <trkpt lat="42.76566" lon="-0.53979">
        <ele>1806</ele>
        <time>2018-12-27T19:13:25Z</time>
      </trkpt>
      <trkpt lat="42.76561" lon="-0.53983">
        <ele>1804</ele>
        <time>2018-12-27T19:13:26Z</time>
      </trkpt>
      <trkpt lat="42.76557" lon="-0.53979">
        <ele>1802</ele>
        <time>2018-12-27T19:13:28Z</time>
      </trkpt>
      <trkpt lat="42.76542" lon="-0.53972">
        <ele>1795</ele>
        <time>2018-12-27T19:13:32Z</time>
      </trkpt>
      <trkpt lat="42.7653" lon="-0.53962">
        <ele>1790</ele>
        <time>2018-12-27T19:13:36Z</time>
      </trkpt>
      <trkpt lat="42.7652" lon="-0.53959">
        <ele>1787</ele>
        <time>2018-12-27T19:13:38Z</time>
      </trkpt>
      <trkpt lat="42.76515" lon="-0.53956">
        <ele>1786</ele>
        <time>2018-12-27T19:13:40Z</time>
      </trkpt>
      <trkpt lat="42.76501" lon="-0.53955">
        <ele>1782</ele>
        <time>2018-12-27T19:13:44Z</time>
      </trkpt>
      <trkpt lat="42.76488" lon="-0.5397">
        <ele>1778</ele>
        <time>2018-12-27T19:13:48Z</time>
      </trkpt>
      <trkpt lat="42.76476" lon="-0.53967">
        <ele>1775</ele>
        <time>2018-12-27T19:13:51Z</time>
      </trkpt>
      <trkpt lat="42.76472" lon="-0.53947">
        <ele>1774</ele>
        <time>2018-12-27T19:13:55Z</time>
      </trkpt>
      <trkpt lat="42.76466" lon="-0.53943">
        <ele>1772</ele>
        <time>2018-12-27T19:13:57Z</time>
      </trkpt>
      <trkpt lat="42.76461" lon="-0.53946">
        <ele>1770</ele>
        <time>2018-12-27T19:13:59Z</time>
      </trkpt>
      <trkpt lat="42.76457" lon="-0.53952">
        <ele>1769</ele>
        <time>2018-12-27T19:14:00Z</time>
      </trkpt>
      <trkpt lat="42.76452" lon="-0.53952">
        <ele>1768</ele>
        <time>2018-12-27T19:14:02Z</time>
      </trkpt>
      <trkpt lat="42.76438" lon="-0.53954">
        <ele>1764</ele>
        <time>2018-12-27T19:14:05Z</time>
      </trkpt>
      <trkpt lat="42.76418" lon="-0.53961">
        <ele>1760</ele>
        <time>2018-12-27T19:14:11Z</time>
      </trkpt>
      <trkpt lat="42.7641" lon="-0.5396">
        <ele>1759</ele>
        <time>2018-12-27T19:14:13Z</time>
      </trkpt>
      <trkpt lat="42.76391" lon="-0.53929">
        <ele>1755</ele>
        <time>2018-12-27T19:14:21Z</time>
      </trkpt>
      <trkpt lat="42.76384" lon="-0.53932">
        <ele>1753</ele>
        <time>2018-12-27T19:14:23Z</time>
      </trkpt>
      <trkpt lat="42.76359" lon="-0.53909">
        <ele>1743</ele>
        <time>2018-12-27T19:14:31Z</time>
      </trkpt>
      <trkpt lat="42.76348" lon="-0.53911">
        <ele>1743</ele>
        <time>2018-12-27T19:14:34Z</time>
      </trkpt>
      <trkpt lat="42.76328" lon="-0.5391">
        <ele>1742</ele>
        <time>2018-12-27T19:14:39Z</time>
      </trkpt>
      <trkpt lat="42.76318" lon="-0.53896">
        <ele>1741</ele>
        <time>2018-12-27T19:14:43Z</time>
      </trkpt>
      <trkpt lat="42.76315" lon="-0.53861">
        <ele>1736</ele>
        <time>2018-12-27T19:14:50Z</time>
      </trkpt>
      <trkpt lat="42.76288" lon="-0.53862">
        <ele>1735</ele>
        <time>2018-12-27T19:14:57Z</time>
      </trkpt>
      <trkpt lat="42.76282" lon="-0.53851">
        <ele>1732</ele>
        <time>2018-12-27T19:15:00Z</time>
      </trkpt>
      <trkpt lat="42.7628" lon="-0.53826">
        <ele>1727</ele>
        <time>2018-12-27T19:15:05Z</time>
      </trkpt>
      <trkpt lat="42.76265" lon="-0.53797">
        <ele>1725</ele>
        <time>2018-12-27T19:15:12Z</time>
      </trkpt>
      <trkpt lat="42.76255" lon="-0.53781">
        <ele>1724</ele>
        <time>2018-12-27T19:15:16Z</time>
      </trkpt>
      <trkpt lat="42.7624" lon="-0.53766">
        <ele>1722</ele>
        <time>2018-12-27T19:15:21Z</time>
      </trkpt>
      <trkpt lat="42.76214" lon="-0.53745">
        <ele>1721</ele>
        <time>2018-12-27T19:15:29Z</time>
      </trkpt>
      <trkpt lat="42.76208" lon="-0.5372">
        <ele>1721</ele>
        <time>2018-12-27T19:15:34Z</time>
      </trkpt>
      <trkpt lat="42.76218" lon="-0.53682">
        <ele>1725</ele>
        <time>2018-12-27T19:15:42Z</time>
      </trkpt>
      <trkpt lat="42.76215" lon="-0.53675">
        <ele>1730</ele>
        <time>2018-12-27T19:15:43Z</time>
      </trkpt>
      <trkpt lat="42.76199" lon="-0.53658">
        <ele>1744</ele>
        <time>2018-12-27T19:15:49Z</time>
      </trkpt>
      <trkpt lat="42.76189" lon="-0.53653">
        <ele>1749</ele>
        <time>2018-12-27T19:15:52Z</time>
      </trkpt>
      <trkpt lat="42.76182" lon="-0.53643">
        <ele>1753</ele>
        <time>2018-12-27T19:15:54Z</time>
      </trkpt>
      <trkpt lat="42.76179" lon="-0.53632">
        <ele>1755</ele>
        <time>2018-12-27T19:15:57Z</time>
      </trkpt>
      <trkpt lat="42.76181" lon="-0.53625">
        <ele>1756</ele>
        <time>2018-12-27T19:15:58Z</time>
      </trkpt>
      <trkpt lat="42.76177" lon="-0.53603">
        <ele>1759</ele>
        <time>2018-12-27T19:16:02Z</time>
      </trkpt>
      <trkpt lat="42.76166" lon="-0.53574">
        <ele>1762</ele>
        <time>2018-12-27T19:16:09Z</time>
      </trkpt>
      <trkpt lat="42.7616" lon="-0.53549">
        <ele>1767</ele>
        <time>2018-12-27T19:16:14Z</time>
      </trkpt>
      <trkpt lat="42.76152" lon="-0.5354">
        <ele>1771</ele>
        <time>2018-12-27T19:16:17Z</time>
      </trkpt>
      <trkpt lat="42.76139" lon="-0.53541">
        <ele>1770</ele>
        <time>2018-12-27T19:16:20Z</time>
      </trkpt>
      <trkpt lat="42.76136" lon="-0.53533">
        <ele>1775</ele>
        <time>2018-12-27T19:16:22Z</time>
      </trkpt>
      <trkpt lat="42.76125" lon="-0.53535">
        <ele>1777</ele>
        <time>2018-12-27T19:16:25Z</time>
      </trkpt>
      <trkpt lat="42.76118" lon="-0.53543">
        <ele>1776</ele>
        <time>2018-12-27T19:16:27Z</time>
      </trkpt>
      <trkpt lat="42.76115" lon="-0.53526">
        <ele>1785</ele>
        <time>2018-12-27T19:16:30Z</time>
      </trkpt>
      <trkpt lat="42.76108" lon="-0.53507">
        <ele>1802</ele>
        <time>2018-12-27T19:16:35Z</time>
      </trkpt>
      <trkpt lat="42.761" lon="-0.53508">
        <ele>1806</ele>
        <time>2018-12-27T19:16:37Z</time>
      </trkpt>
      <trkpt lat="42.76096" lon="-0.53496">
        <ele>1814</ele>
        <time>2018-12-27T19:16:39Z</time>
      </trkpt>
      <trkpt lat="42.76087" lon="-0.53497">
        <ele>1819</ele>
        <time>2018-12-27T19:16:42Z</time>
      </trkpt>
      <trkpt lat="42.76086" lon="-0.53476">
        <ele>1821</ele>
        <time>2018-12-27T19:16:46Z</time>
      </trkpt>
      <trkpt lat="42.76081" lon="-0.5347">
        <ele>1823</ele>
        <time>2018-12-27T19:16:48Z</time>
      </trkpt>
      <trkpt lat="42.76075" lon="-0.53467">
        <ele>1825</ele>
        <time>2018-12-27T19:16:49Z</time>
      </trkpt>
      <trkpt lat="42.76069" lon="-0.53469">
        <ele>1827</ele>
        <time>2018-12-27T19:16:51Z</time>
      </trkpt>
      <trkpt lat="42.76061" lon="-0.5347">
        <ele>1830</ele>
        <time>2018-12-27T19:16:53Z</time>
      </trkpt>
      <trkpt lat="42.76045" lon="-0.53454">
        <ele>1843</ele>
        <time>2018-12-27T19:16:59Z</time>
      </trkpt>
      <trkpt lat="42.76044" lon="-0.53444">
        <ele>1848</ele>
        <time>2018-12-27T19:17:01Z</time>
      </trkpt>
      <trkpt lat="42.76029" lon="-0.53444">
        <ele>1857</ele>
        <time>2018-12-27T19:17:05Z</time>
      </trkpt>
      <trkpt lat="42.76025" lon="-0.53448">
        <ele>1857</ele>
        <time>2018-12-27T19:17:06Z</time>
      </trkpt>
      <trkpt lat="42.76021" lon="-0.53433">
        <ele>1864</ele>
        <time>2018-12-27T19:17:09Z</time>
      </trkpt>
      <trkpt lat="42.76015" lon="-0.53431">
        <ele>1867</ele>
        <time>2018-12-27T19:17:11Z</time>
      </trkpt>
      <trkpt lat="42.75983" lon="-0.53447">
        <ele>1878</ele>
        <time>2018-12-27T19:17:20Z</time>
      </trkpt>
      <trkpt lat="42.75977" lon="-0.53453">
        <ele>1881</ele>
        <time>2018-12-27T19:17:22Z</time>
      </trkpt>
      <trkpt lat="42.75975" lon="-0.53449">
        <ele>1884</ele>
        <time>2018-12-27T19:17:23Z</time>
      </trkpt>
      <trkpt lat="42.75969" lon="-0.53449">
        <ele>1888</ele>
        <time>2018-12-27T19:17:24Z</time>
      </trkpt>
      <trkpt lat="42.75964" lon="-0.53445">
        <ele>1893</ele>
        <time>2018-12-27T19:17:26Z</time>
      </trkpt>
      <trkpt lat="42.75957" lon="-0.53453">
        <ele>1898</ele>
        <time>2018-12-27T19:17:28Z</time>
      </trkpt>
      <trkpt lat="42.75957" lon="-0.53462">
        <ele>1898</ele>
        <time>2018-12-27T19:17:30Z</time>
      </trkpt>
      <trkpt lat="42.75952" lon="-0.53483">
        <ele>1900</ele>
        <time>2018-12-27T19:17:34Z</time>
      </trkpt>
      <trkpt lat="42.75954" lon="-0.53504">
        <ele>1897</ele>
        <time>2018-12-27T19:17:38Z</time>
      </trkpt>
      <trkpt lat="42.75927" lon="-0.53522">
        <ele>1908</ele>
        <time>2018-12-27T19:17:46Z</time>
      </trkpt>
      <trkpt lat="42.75915" lon="-0.53525">
        <ele>1913</ele>
        <time>2018-12-27T19:17:50Z</time>
      </trkpt>
      <trkpt lat="42.75905" lon="-0.53521">
        <ele>1917</ele>
        <time>2018-12-27T19:17:52Z</time>
      </trkpt>
      <trkpt lat="42.75893" lon="-0.53524">
        <ele>1922</ele>
        <time>2018-12-27T19:17:56Z</time>
      </trkpt>
      <trkpt lat="42.75878" lon="-0.53535">
        <ele>1927</ele>
        <time>2018-12-27T19:18:00Z</time>
      </trkpt>
      <trkpt lat="42.75869" lon="-0.53536">
        <ele>1930</ele>
        <time>2018-12-27T19:18:03Z</time>
      </trkpt>
      <trkpt lat="42.75857" lon="-0.53545">
        <ele>1934</ele>
        <time>2018-12-27T19:18:06Z</time>
      </trkpt>
      <trkpt lat="42.75853" lon="-0.53552">
        <ele>1934</ele>
        <time>2018-12-27T19:18:08Z</time>
      </trkpt>
      <trkpt lat="42.75846" lon="-0.53557">
        <ele>1937</ele>
        <time>2018-12-27T19:18:10Z</time>
      </trkpt>
      <trkpt lat="42.75834" lon="-0.5356">
        <ele>1942</ele>
        <time>2018-12-27T19:18:13Z</time>
      </trkpt>
      <trkpt lat="42.75827" lon="-0.53564">
        <ele>1944</ele>
        <time>2018-12-27T19:18:16Z</time>
      </trkpt>
      <trkpt lat="42.75808" lon="-0.53578">
        <ele>1949</ele>
        <time>2018-12-27T19:18:21Z</time>
      </trkpt>
      <trkpt lat="42.75803" lon="-0.53589">
        <ele>1950</ele>
        <time>2018-12-27T19:18:24Z</time>
      </trkpt>
      <trkpt lat="42.75796" lon="-0.53596">
        <ele>1954</ele>
        <time>2018-12-27T19:18:26Z</time>
      </trkpt>
      <trkpt lat="42.7579" lon="-0.536">
        <ele>1961</ele>
        <time>2018-12-27T19:18:28Z</time>
      </trkpt>
      <trkpt lat="42.75785" lon="-0.53613">
        <ele>1961</ele>
        <time>2018-12-27T19:18:31Z</time>
      </trkpt>
      <trkpt lat="42.75768" lon="-0.5363">
        <ele>1969</ele>
        <time>2018-12-27T19:18:36Z</time>
      </trkpt>
      <trkpt lat="42.7575" lon="-0.53658">
        <ele>1972</ele>
        <time>2018-12-27T19:18:44Z</time>
      </trkpt>
      <trkpt lat="42.7574" lon="-0.53686">
        <ele>1969</ele>
        <time>2018-12-27T19:18:50Z</time>
      </trkpt>
      <trkpt lat="42.75732" lon="-0.53694">
        <ele>1974</ele>
        <time>2018-12-27T19:18:52Z</time>
      </trkpt>
      <trkpt lat="42.75718" lon="-0.53702">
        <ele>1981</ele>
        <time>2018-12-27T19:18:56Z</time>
      </trkpt>
      <trkpt lat="42.75714" lon="-0.53702">
        <ele>1984</ele>
        <time>2018-12-27T19:18:58Z</time>
      </trkpt>
      <trkpt lat="42.75705" lon="-0.53694">
        <ele>1992</ele>
        <time>2018-12-27T19:19:00Z</time>
      </trkpt>
      <trkpt lat="42.75696" lon="-0.53685">
        <ele>2000</ele>
        <time>2018-12-27T19:19:03Z</time>
      </trkpt>
      <trkpt lat="42.75692" lon="-0.53677">
        <ele>2005</ele>
        <time>2018-12-27T19:19:05Z</time>
      </trkpt>
      <trkpt lat="42.75691" lon="-0.53669">
        <ele>2009</ele>
        <time>2018-12-27T19:19:07Z</time>
      </trkpt>
      <trkpt lat="42.75697" lon="-0.53659">
        <ele>2010</ele>
        <time>2018-12-27T19:19:09Z</time>
      </trkpt>
      <trkpt lat="42.75708" lon="-0.53645">
        <ele>2010</ele>
        <time>2018-12-27T19:19:13Z</time>
      </trkpt>
      <trkpt lat="42.75705" lon="-0.53639">
        <ele>2014</ele>
        <time>2018-12-27T19:19:15Z</time>
      </trkpt>
      <trkpt lat="42.75706" lon="-0.53623">
        <ele>2021</ele>
        <time>2018-12-27T19:19:18Z</time>
      </trkpt>
      <trkpt lat="42.75715" lon="-0.5361">
        <ele>2023</ele>
        <time>2018-12-27T19:19:21Z</time>
      </trkpt>
      <trkpt lat="42.7571" lon="-0.53608">
        <ele>2026</ele>
        <time>2018-12-27T19:19:23Z</time>
      </trkpt>
      <trkpt lat="42.75716" lon="-0.53593">
        <ele>2029</ele>
        <time>2018-12-27T19:19:26Z</time>
      </trkpt>
      <trkpt lat="42.75719" lon="-0.53573">
        <ele>2036</ele>
        <time>2018-12-27T19:19:30Z</time>
      </trkpt>
      <trkpt lat="42.75725" lon="-0.5356">
        <ele>2038</ele>
        <time>2018-12-27T19:19:33Z</time>
      </trkpt>
      <trkpt lat="42.75716" lon="-0.53561">
        <ele>2043</ele>
        <time>2018-12-27T19:19:36Z</time>
      </trkpt>
      <trkpt lat="42.75718" lon="-0.53543">
        <ele>2049</ele>
        <time>2018-12-27T19:19:39Z</time>
      </trkpt>
      <trkpt lat="42.7572" lon="-0.53538">
        <ele>2050</ele>
        <time>2018-12-27T19:19:40Z</time>
      </trkpt>
      <trkpt lat="42.75698" lon="-0.53546">
        <ele>2058</ele>
        <time>2018-12-27T19:19:46Z</time>
      </trkpt>
      <trkpt lat="42.757" lon="-0.53538">
        <ele>2060</ele>
        <time>2018-12-27T19:19:48Z</time>
      </trkpt>
      <trkpt lat="42.75707" lon="-0.53529">
        <ele>2059</ele>
        <time>2018-12-27T19:19:50Z</time>
      </trkpt>
      <trkpt lat="42.75709" lon="-0.53512">
        <ele>2063</ele>
        <time>2018-12-27T19:19:54Z</time>
      </trkpt>
      <trkpt lat="42.7573" lon="-0.5347">
        <ele>2061</ele>
        <time>2018-12-27T19:20:04Z</time>
      </trkpt>
      <trkpt lat="42.75742" lon="-0.53453">
        <ele>2056</ele>
        <time>2018-12-27T19:20:08Z</time>
      </trkpt>
      <trkpt lat="42.75746" lon="-0.53441">
        <ele>2056</ele>
        <time>2018-12-27T19:20:11Z</time>
      </trkpt>
      <trkpt lat="42.75753" lon="-0.5343">
        <ele>2055</ele>
        <time>2018-12-27T19:20:14Z</time>
      </trkpt>
      <trkpt lat="42.75765" lon="-0.53414">
        <ele>2052</ele>
        <time>2018-12-27T19:20:18Z</time>
      </trkpt>
      <trkpt lat="42.75783" lon="-0.53396">
        <ele>2049</ele>
        <time>2018-12-27T19:20:24Z</time>
      </trkpt>
      <trkpt lat="42.75811" lon="-0.53351">
        <ele>2050</ele>
        <time>2018-12-27T19:20:36Z</time>
      </trkpt>
      <trkpt lat="42.75852" lon="-0.53312">
        <ele>2046</ele>
        <time>2018-12-27T19:20:49Z</time>
      </trkpt>
      <trkpt lat="42.75879" lon="-0.53243">
        <ele>2055</ele>
        <time>2018-12-27T19:21:04Z</time>
      </trkpt>
      <trkpt lat="42.75885" lon="-0.5323">
        <ele>2056</ele>
        <time>2018-12-27T19:21:07Z</time>
      </trkpt>
      <trkpt lat="42.75891" lon="-0.53181">
        <ele>2055</ele>
        <time>2018-12-27T19:21:17Z</time>
      </trkpt>
      <trkpt lat="42.75905" lon="-0.53123">
        <ele>2050</ele>
        <time>2018-12-27T19:21:29Z</time>
      </trkpt>
      <trkpt lat="42.75908" lon="-0.53091">
        <ele>2043</ele>
        <time>2018-12-27T19:21:36Z</time>
      </trkpt>
      <trkpt lat="42.75905" lon="-0.53044">
        <ele>2035</ele>
        <time>2018-12-27T19:21:45Z</time>
      </trkpt>
      <trkpt lat="42.75901" lon="-0.53082">
        <ele>2035</ele>
        <time>2018-12-27T19:21:52Z</time>
      </trkpt>
      <trkpt lat="42.75894" lon="-0.53113">
        <ele>2036</ele>
        <time>2018-12-27T19:21:59Z</time>
      </trkpt>
      <trkpt lat="42.75887" lon="-0.53132">
        <ele>2039</ele>
        <time>2018-12-27T19:22:03Z</time>
      </trkpt>
      <trkpt lat="42.75884" lon="-0.5312">
        <ele>2032</ele>
        <time>2018-12-27T19:22:05Z</time>
      </trkpt>
      <trkpt lat="42.75889" lon="-0.53075">
        <ele>2028</ele>
        <time>2018-12-27T19:22:14Z</time>
      </trkpt>
      <trkpt lat="42.75891" lon="-0.53047">
        <ele>2027</ele>
        <time>2018-12-27T19:22:20Z</time>
      </trkpt>
      <trkpt lat="42.75897" lon="-0.53022">
        <ele>2027</ele>
        <time>2018-12-27T19:22:25Z</time>
      </trkpt>
      <trkpt lat="42.75893" lon="-0.52988">
        <ele>2018</ele>
        <time>2018-12-27T19:22:32Z</time>
      </trkpt>
      <trkpt lat="42.75893" lon="-0.52969">
        <ele>2015</ele>
        <time>2018-12-27T19:22:36Z</time>
      </trkpt>
      <trkpt lat="42.75882" lon="-0.52959">
        <ele>2008</ele>
        <time>2018-12-27T19:22:39Z</time>
      </trkpt>
      <trkpt lat="42.75873" lon="-0.52959">
        <ele>2004</ele>
        <time>2018-12-27T19:22:41Z</time>
      </trkpt>
      <trkpt lat="42.75872" lon="-0.52952">
        <ele>2002</ele>
        <time>2018-12-27T19:22:43Z</time>
      </trkpt>
      <trkpt lat="42.75868" lon="-0.52947">
        <ele>1999</ele>
        <time>2018-12-27T19:22:44Z</time>
      </trkpt>
      <trkpt lat="42.75868" lon="-0.5296">
        <ele>2002</ele>
        <time>2018-12-27T19:22:47Z</time>
      </trkpt>
      <trkpt lat="42.75863" lon="-0.52946">
        <ele>1997</ele>
        <time>2018-12-27T19:22:50Z</time>
      </trkpt>
      <trkpt lat="42.75865" lon="-0.52969">
        <ele>2003</ele>
        <time>2018-12-27T19:22:54Z</time>
      </trkpt>
      <trkpt lat="42.75855" lon="-0.52954">
        <ele>1996</ele>
        <time>2018-12-27T19:22:58Z</time>
      </trkpt>
      <trkpt lat="42.75852" lon="-0.5294">
        <ele>1991</ele>
        <time>2018-12-27T19:23:01Z</time>
      </trkpt>
      <trkpt lat="42.75852" lon="-0.52902">
        <ele>1976</ele>
        <time>2018-12-27T19:23:09Z</time>
      </trkpt>
      <trkpt lat="42.75849" lon="-0.52924">
        <ele>1982</ele>
        <time>2018-12-27T19:23:13Z</time>
      </trkpt>
      <trkpt lat="42.75845" lon="-0.52906">
        <ele>1978</ele>
        <time>2018-12-27T19:23:17Z</time>
      </trkpt>
      <trkpt lat="42.75846" lon="-0.52878">
        <ele>1972</ele>
        <time>2018-12-27T19:23:22Z</time>
      </trkpt>
      <trkpt lat="42.75849" lon="-0.52872">
        <ele>1970</ele>
        <time>2018-12-27T19:23:24Z</time>
      </trkpt>
      <trkpt lat="42.75843" lon="-0.52875">
        <ele>1970</ele>
        <time>2018-12-27T19:23:26Z</time>
      </trkpt>
      <trkpt lat="42.7584" lon="-0.52881">
        <ele>1972</ele>
        <time>2018-12-27T19:23:27Z</time>
      </trkpt>
      <trkpt lat="42.75834" lon="-0.52871">
        <ele>1967</ele>
        <time>2018-12-27T19:23:30Z</time>
      </trkpt>
      <trkpt lat="42.75847" lon="-0.52844">
        <ele>1959</ele>
        <time>2018-12-27T19:23:36Z</time>
      </trkpt>
      <trkpt lat="42.75858" lon="-0.52847">
        <ele>1964</ele>
        <time>2018-12-27T19:23:39Z</time>
      </trkpt>
      <trkpt lat="42.75856" lon="-0.52838">
        <ele>1960</ele>
        <time>2018-12-27T19:23:41Z</time>
      </trkpt>
      <trkpt lat="42.75849" lon="-0.5283">
        <ele>1955</ele>
        <time>2018-12-27T19:23:43Z</time>
      </trkpt>
      <trkpt lat="42.75839" lon="-0.5284">
        <ele>1956</ele>
        <time>2018-12-27T19:23:47Z</time>
      </trkpt>
      <trkpt lat="42.75827" lon="-0.52864">
        <ele>1960</ele>
        <time>2018-12-27T19:23:52Z</time>
      </trkpt>
      <trkpt lat="42.7582" lon="-0.52874">
        <ele>1960</ele>
        <time>2018-12-27T19:23:55Z</time>
      </trkpt>
      <trkpt lat="42.75814" lon="-0.5289">
        <ele>1961</ele>
        <time>2018-12-27T19:23:58Z</time>
      </trkpt>
      <trkpt lat="42.7581" lon="-0.52883">
        <ele>1956</ele>
        <time>2018-12-27T19:24:00Z</time>
      </trkpt>
      <trkpt lat="42.75809" lon="-0.52892">
        <ele>1958</ele>
        <time>2018-12-27T19:24:02Z</time>
      </trkpt>
      <trkpt lat="42.75811" lon="-0.52951">
        <ele>1976</ele>
        <time>2018-12-27T19:24:13Z</time>
      </trkpt>
      <trkpt lat="42.75801" lon="-0.52994">
        <ele>1965</ele>
        <time>2018-12-27T19:24:22Z</time>
      </trkpt>
      <trkpt lat="42.75787" lon="-0.5303">
        <ele>1943</ele>
        <time>2018-12-27T19:24:30Z</time>
      </trkpt>
      <trkpt lat="42.75779" lon="-0.53">
        <ele>1938</ele>
        <time>2018-12-27T19:24:37Z</time>
      </trkpt>
      <trkpt lat="42.75774" lon="-0.5298">
        <ele>1940</ele>
        <time>2018-12-27T19:24:41Z</time>
      </trkpt>
      <trkpt lat="42.75764" lon="-0.52945">
        <ele>1925</ele>
        <time>2018-12-27T19:24:48Z</time>
      </trkpt>
      <trkpt lat="42.75761" lon="-0.52928">
        <ele>1920</ele>
        <time>2018-12-27T19:24:51Z</time>
      </trkpt>
      <trkpt lat="42.75762" lon="-0.52976">
        <ele>1922</ele>
        <time>2018-12-27T19:25:01Z</time>
      </trkpt>
      <trkpt lat="42.75748" lon="-0.53034">
        <ele>1904</ele>
        <time>2018-12-27T19:25:13Z</time>
      </trkpt>
      <trkpt lat="42.75747" lon="-0.53025">
        <ele>1903</ele>
        <time>2018-12-27T19:25:15Z</time>
      </trkpt>
      <trkpt lat="42.75747" lon="-0.52979">
        <ele>1905</ele>
        <time>2018-12-27T19:25:24Z</time>
      </trkpt>
      <trkpt lat="42.75738" lon="-0.52947">
        <ele>1900</ele>
        <time>2018-12-27T19:25:31Z</time>
      </trkpt>
      <trkpt lat="42.75746" lon="-0.52873">
        <ele>1899</ele>
        <time>2018-12-27T19:25:45Z</time>
      </trkpt>
      <trkpt lat="42.75737" lon="-0.52897">
        <ele>1897</ele>
        <time>2018-12-27T19:25:50Z</time>
      </trkpt>
      <trkpt lat="42.7574" lon="-0.52868">
        <ele>1892</ele>
        <time>2018-12-27T19:25:56Z</time>
      </trkpt>
      <trkpt lat="42.75735" lon="-0.52886">
        <ele>1894</ele>
        <time>2018-12-27T19:26:00Z</time>
      </trkpt>
      <trkpt lat="42.75737" lon="-0.52857">
        <ele>1887</ele>
        <time>2018-12-27T19:26:05Z</time>
      </trkpt>
      <trkpt lat="42.75729" lon="-0.52889">
        <ele>1890</ele>
        <time>2018-12-27T19:26:12Z</time>
      </trkpt>
      <trkpt lat="42.75725" lon="-0.5287">
        <ele>1880</ele>
        <time>2018-12-27T19:26:16Z</time>
      </trkpt>
      <trkpt lat="42.75727" lon="-0.52852">
        <ele>1876</ele>
        <time>2018-12-27T19:26:19Z</time>
      </trkpt>
      <trkpt lat="42.75729" lon="-0.52842">
        <ele>1876</ele>
        <time>2018-12-27T19:26:22Z</time>
      </trkpt>
      <trkpt lat="42.75726" lon="-0.52848">
        <ele>1874</ele>
        <time>2018-12-27T19:26:23Z</time>
      </trkpt>
      <trkpt lat="42.75717" lon="-0.52876">
        <ele>1877</ele>
        <time>2018-12-27T19:26:29Z</time>
      </trkpt>
      <trkpt lat="42.75714" lon="-0.52895">
        <ele>1880</ele>
        <time>2018-12-27T19:26:33Z</time>
      </trkpt>
      <trkpt lat="42.75711" lon="-0.52904">
        <ele>1878</ele>
        <time>2018-12-27T19:26:35Z</time>
      </trkpt>
      <trkpt lat="42.75707" lon="-0.5292">
        <ele>1877</ele>
        <time>2018-12-27T19:26:38Z</time>
      </trkpt>
      <trkpt lat="42.7569" lon="-0.52972">
        <ele>1865</ele>
        <time>2018-12-27T19:26:49Z</time>
      </trkpt>
      <trkpt lat="42.75692" lon="-0.5286">
        <ele>1858</ele>
        <time>2018-12-27T19:27:11Z</time>
      </trkpt>
      <trkpt lat="42.75694" lon="-0.52849">
        <ele>1855</ele>
        <time>2018-12-27T19:27:14Z</time>
      </trkpt>
      <trkpt lat="42.75698" lon="-0.52817">
        <ele>1849</ele>
        <time>2018-12-27T19:27:20Z</time>
      </trkpt>
      <trkpt lat="42.75691" lon="-0.52836">
        <ele>1850</ele>
        <time>2018-12-27T19:27:24Z</time>
      </trkpt>
      <trkpt lat="42.7568" lon="-0.52879">
        <ele>1851</ele>
        <time>2018-12-27T19:27:33Z</time>
      </trkpt>
      <trkpt lat="42.75677" lon="-0.52872">
        <ele>1849</ele>
        <time>2018-12-27T19:27:35Z</time>
      </trkpt>
      <trkpt lat="42.75676" lon="-0.52838">
        <ele>1845</ele>
        <time>2018-12-27T19:27:41Z</time>
      </trkpt>
      <trkpt lat="42.75677" lon="-0.52824">
        <ele>1843</ele>
        <time>2018-12-27T19:27:44Z</time>
      </trkpt>
      <trkpt lat="42.75682" lon="-0.52804">
        <ele>1841</ele>
        <time>2018-12-27T19:27:48Z</time>
      </trkpt>
      <trkpt lat="42.75675" lon="-0.5282">
        <ele>1842</ele>
        <time>2018-12-27T19:27:52Z</time>
      </trkpt>
      <trkpt lat="42.75667" lon="-0.5285">
        <ele>1842</ele>
        <time>2018-12-27T19:27:58Z</time>
      </trkpt>
      <trkpt lat="42.75668" lon="-0.52809">
        <ele>1837</ele>
        <time>2018-12-27T19:28:07Z</time>
      </trkpt>
      <trkpt lat="42.75671" lon="-0.52789">
        <ele>1835</ele>
        <time>2018-12-27T19:28:10Z</time>
      </trkpt>
      <trkpt lat="42.75655" lon="-0.52805">
        <ele>1832</ele>
        <time>2018-12-27T19:28:15Z</time>
      </trkpt>
      <trkpt lat="42.75651" lon="-0.52817">
        <ele>1832</ele>
        <time>2018-12-27T19:28:18Z</time>
      </trkpt>
      <trkpt lat="42.7564" lon="-0.52855">
        <ele>1827</ele>
        <time>2018-12-27T19:28:26Z</time>
      </trkpt>
      <trkpt lat="42.7563" lon="-0.52898">
        <ele>1825</ele>
        <time>2018-12-27T19:28:35Z</time>
      </trkpt>
      <trkpt lat="42.75621" lon="-0.52953">
        <ele>1829</ele>
        <time>2018-12-27T19:28:46Z</time>
      </trkpt>
      <trkpt lat="42.75614" lon="-0.52971">
        <ele>1825</ele>
        <time>2018-12-27T19:28:50Z</time>
      </trkpt>
      <trkpt lat="42.75609" lon="-0.52943">
        <ele>1820</ele>
        <time>2018-12-27T19:28:56Z</time>
      </trkpt>
      <trkpt lat="42.75607" lon="-0.52898">
        <ele>1815</ele>
        <time>2018-12-27T19:29:05Z</time>
      </trkpt>
      <trkpt lat="42.75608" lon="-0.52887">
        <ele>1814</ele>
        <time>2018-12-27T19:29:07Z</time>
      </trkpt>
      <trkpt lat="42.75602" lon="-0.52857">
        <ele>1809</ele>
        <time>2018-12-27T19:29:13Z</time>
      </trkpt>
      <trkpt lat="42.75597" lon="-0.52905">
        <ele>1810</ele>
        <time>2018-12-27T19:29:22Z</time>
      </trkpt>
      <trkpt lat="42.75583" lon="-0.52958">
        <ele>1805</ele>
        <time>2018-12-27T19:29:33Z</time>
      </trkpt>
      <trkpt lat="42.75574" lon="-0.52949">
        <ele>1799</ele>
        <time>2018-12-27T19:29:36Z</time>
      </trkpt>
      <trkpt lat="42.75569" lon="-0.52903">
        <ele>1794</ele>
        <time>2018-12-27T19:29:45Z</time>
      </trkpt>
      <trkpt lat="42.75562" lon="-0.52935">
        <ele>1791</ele>
        <time>2018-12-27T19:29:52Z</time>
      </trkpt>
      <trkpt lat="42.75554" lon="-0.5296">
        <ele>1790</ele>
        <time>2018-12-27T19:29:57Z</time>
      </trkpt>
      <trkpt lat="42.7555" lon="-0.52933">
        <ele>1784</ele>
        <time>2018-12-27T19:30:02Z</time>
      </trkpt>
      <trkpt lat="42.75549" lon="-0.5289">
        <ele>1781</ele>
        <time>2018-12-27T19:30:11Z</time>
      </trkpt>
      <trkpt lat="42.75554" lon="-0.52858">
        <ele>1780</ele>
        <time>2018-12-27T19:30:17Z</time>
      </trkpt>
      <trkpt lat="42.75549" lon="-0.52876">
        <ele>1779</ele>
        <time>2018-12-27T19:30:21Z</time>
      </trkpt>
      <trkpt lat="42.75544" lon="-0.52904">
        <ele>1780</ele>
        <time>2018-12-27T19:30:27Z</time>
      </trkpt>
      <trkpt lat="42.75535" lon="-0.52929">
        <ele>1775</ele>
        <time>2018-12-27T19:30:33Z</time>
      </trkpt>
      <trkpt lat="42.75526" lon="-0.52974">
        <ele>1777</ele>
        <time>2018-12-27T19:30:42Z</time>
      </trkpt>
      <trkpt lat="42.75526" lon="-0.52984">
        <ele>1780</ele>
        <time>2018-12-27T19:30:44Z</time>
      </trkpt>
      <trkpt lat="42.75524" lon="-0.5299">
        <ele>1780</ele>
        <time>2018-12-27T19:30:45Z</time>
      </trkpt>
      <trkpt lat="42.75518" lon="-0.52995">
        <ele>1778</ele>
        <time>2018-12-27T19:30:47Z</time>
      </trkpt>
      <trkpt lat="42.75513" lon="-0.53012">
        <ele>1780</ele>
        <time>2018-12-27T19:30:50Z</time>
      </trkpt>
      <trkpt lat="42.75498" lon="-0.53022">
        <ele>1774</ele>
        <time>2018-12-27T19:30:55Z</time>
      </trkpt>
      <trkpt lat="42.75488" lon="-0.53035">
        <ele>1771</ele>
        <time>2018-12-27T19:30:59Z</time>
      </trkpt>
      <trkpt lat="42.75476" lon="-0.53045">
        <ele>1767</ele>
        <time>2018-12-27T19:31:02Z</time>
      </trkpt>
      <trkpt lat="42.75466" lon="-0.53046">
        <ele>1764</ele>
        <time>2018-12-27T19:31:05Z</time>
      </trkpt>
      <trkpt lat="42.75469" lon="-0.53038">
        <ele>1762</ele>
        <time>2018-12-27T19:31:07Z</time>
      </trkpt>
      <trkpt lat="42.75479" lon="-0.53023">
        <ele>1763</ele>
        <time>2018-12-27T19:31:11Z</time>
      </trkpt>
      <trkpt lat="42.75492" lon="-0.52996">
        <ele>1763</ele>
        <time>2018-12-27T19:31:17Z</time>
      </trkpt>
      <trkpt lat="42.75494" lon="-0.52984">
        <ele>1761</ele>
        <time>2018-12-27T19:31:19Z</time>
      </trkpt>
      <trkpt lat="42.75489" lon="-0.52995">
        <ele>1761</ele>
        <time>2018-12-27T19:31:22Z</time>
      </trkpt>
      <trkpt lat="42.75474" lon="-0.53017">
        <ele>1759</ele>
        <time>2018-12-27T19:31:28Z</time>
      </trkpt>
      <trkpt lat="42.75465" lon="-0.53022">
        <ele>1756</ele>
        <time>2018-12-27T19:31:30Z</time>
      </trkpt>
      <trkpt lat="42.75464" lon="-0.53012">
        <ele>1753</ele>
        <time>2018-12-27T19:31:32Z</time>
      </trkpt>
      <trkpt lat="42.75468" lon="-0.53001">
        <ele>1752</ele>
        <time>2018-12-27T19:31:35Z</time>
      </trkpt>
      <trkpt lat="42.75488" lon="-0.52969">
        <ele>1754</ele>
        <time>2018-12-27T19:31:43Z</time>
      </trkpt>
      <trkpt lat="42.75478" lon="-0.52974">
        <ele>1750</ele>
        <time>2018-12-27T19:31:46Z</time>
      </trkpt>
      <trkpt lat="42.75465" lon="-0.52969">
        <ele>1742</ele>
        <time>2018-12-27T19:31:49Z</time>
      </trkpt>
      <trkpt lat="42.75474" lon="-0.52955">
        <ele>1743</ele>
        <time>2018-12-27T19:31:53Z</time>
      </trkpt>
      <trkpt lat="42.75458" lon="-0.52965">
        <ele>1738</ele>
        <time>2018-12-27T19:31:58Z</time>
      </trkpt>
      <trkpt lat="42.7547" lon="-0.52946">
        <ele>1738</ele>
        <time>2018-12-27T19:32:03Z</time>
      </trkpt>
      <trkpt lat="42.75448" lon="-0.52962">
        <ele>1733</ele>
        <time>2018-12-27T19:32:09Z</time>
      </trkpt>
      <trkpt lat="42.75446" lon="-0.52954">
        <ele>1729</ele>
        <time>2018-12-27T19:32:11Z</time>
      </trkpt>
      <trkpt lat="42.75456" lon="-0.52926">
        <ele>1725</ele>
        <time>2018-12-27T19:32:17Z</time>
      </trkpt>
      <trkpt lat="42.7545" lon="-0.52923">
        <ele>1721</ele>
        <time>2018-12-27T19:32:19Z</time>
      </trkpt>
      <trkpt lat="42.75437" lon="-0.52934">
        <ele>1721</ele>
        <time>2018-12-27T19:32:23Z</time>
      </trkpt>
      <trkpt lat="42.75453" lon="-0.52904">
        <ele>1715</ele>
        <time>2018-12-27T19:32:30Z</time>
      </trkpt>
      <trkpt lat="42.75462" lon="-0.52899">
        <ele>1717</ele>
        <time>2018-12-27T19:32:33Z</time>
      </trkpt>
      <trkpt lat="42.75476" lon="-0.52855">
        <ele>1711</ele>
        <time>2018-12-27T19:32:42Z</time>
      </trkpt>
      <trkpt lat="42.75494" lon="-0.52831">
        <ele>1720</ele>
        <time>2018-12-27T19:32:49Z</time>
      </trkpt>
      <trkpt lat="42.7551" lon="-0.52803">
        <ele>1722</ele>
        <time>2018-12-27T19:32:56Z</time>
      </trkpt>
      <trkpt lat="42.75493" lon="-0.52822">
        <ele>1715</ele>
        <time>2018-12-27T19:33:02Z</time>
      </trkpt>
      <trkpt lat="42.75494" lon="-0.52813">
        <ele>1712</ele>
        <time>2018-12-27T19:33:03Z</time>
      </trkpt>
      <trkpt lat="42.75511" lon="-0.52764">
        <ele>1698</ele>
        <time>2018-12-27T19:33:14Z</time>
      </trkpt>
      <trkpt lat="42.75527" lon="-0.52724">
        <ele>1682</ele>
        <time>2018-12-27T19:33:23Z</time>
      </trkpt>
      <trkpt lat="42.75514" lon="-0.52735">
        <ele>1680</ele>
        <time>2018-12-27T19:33:27Z</time>
      </trkpt>
      <trkpt lat="42.75516" lon="-0.52717">
        <ele>1668</ele>
        <time>2018-12-27T19:33:30Z</time>
      </trkpt>
      <trkpt lat="42.7551" lon="-0.52726">
        <ele>1670</ele>
        <time>2018-12-27T19:33:33Z</time>
      </trkpt>
      <trkpt lat="42.75508" lon="-0.5272">
        <ele>1663</ele>
        <time>2018-12-27T19:33:34Z</time>
      </trkpt>
      <trkpt lat="42.7553" lon="-0.52657">
        <ele>1647</ele>
        <time>2018-12-27T19:33:48Z</time>
      </trkpt>
      <trkpt lat="42.75567" lon="-0.52627">
        <ele>1658</ele>
        <time>2018-12-27T19:33:59Z</time>
      </trkpt>
      <trkpt lat="42.75575" lon="-0.52594">
        <ele>1650</ele>
        <time>2018-12-27T19:34:06Z</time>
      </trkpt>
      <trkpt lat="42.75558" lon="-0.52626">
        <ele>1652</ele>
        <time>2018-12-27T19:34:14Z</time>
      </trkpt>
      <trkpt lat="42.75566" lon="-0.52601">
        <ele>1647</ele>
        <time>2018-12-27T19:34:19Z</time>
      </trkpt>
      <trkpt lat="42.75562" lon="-0.52605">
        <ele>1646</ele>
        <time>2018-12-27T19:34:20Z</time>
      </trkpt>
      <trkpt lat="42.75557" lon="-0.52587">
        <ele>1638</ele>
        <time>2018-12-27T19:34:24Z</time>
      </trkpt>
      <trkpt lat="42.75551" lon="-0.5262">
        <ele>1645</ele>
        <time>2018-12-27T19:34:31Z</time>
      </trkpt>
      <trkpt lat="42.7555" lon="-0.52609">
        <ele>1640</ele>
        <time>2018-12-27T19:34:33Z</time>
      </trkpt>
      <trkpt lat="42.75547" lon="-0.52619">
        <ele>1642</ele>
        <time>2018-12-27T19:34:35Z</time>
      </trkpt>
      <trkpt lat="42.7554" lon="-0.52624">
        <ele>1639</ele>
        <time>2018-12-27T19:34:37Z</time>
      </trkpt>
      <trkpt lat="42.75539" lon="-0.52614">
        <ele>1635</ele>
        <time>2018-12-27T19:34:39Z</time>
      </trkpt>
      <trkpt lat="42.75541" lon="-0.52597">
        <ele>1631</ele>
        <time>2018-12-27T19:34:43Z</time>
      </trkpt>
      <trkpt lat="42.75531" lon="-0.52612">
        <ele>1628</ele>
        <time>2018-12-27T19:34:47Z</time>
      </trkpt>
      <trkpt lat="42.75524" lon="-0.52618">
        <ele>1625</ele>
        <time>2018-12-27T19:34:49Z</time>
      </trkpt>
      <trkpt lat="42.75529" lon="-0.52572">
        <ele>1615</ele>
        <time>2018-12-27T19:34:58Z</time>
      </trkpt>
      <trkpt lat="42.75526" lon="-0.52578">
        <ele>1615</ele>
        <time>2018-12-27T19:34:59Z</time>
      </trkpt>
      <trkpt lat="42.75485" lon="-0.52631">
        <ele>1600</ele>
        <time>2018-12-27T19:35:14Z</time>
      </trkpt>
      <trkpt lat="42.75491" lon="-0.52614">
        <ele>1599</ele>
        <time>2018-12-27T19:35:18Z</time>
      </trkpt>
      <trkpt lat="42.75486" lon="-0.52616">
        <ele>1596</ele>
        <time>2018-12-27T19:35:19Z</time>
      </trkpt>
      <trkpt lat="42.75461" lon="-0.52681">
        <ele>1605</ele>
        <time>2018-12-27T19:35:34Z</time>
      </trkpt>
      <trkpt lat="42.7546" lon="-0.5267">
        <ele>1598</ele>
        <time>2018-12-27T19:35:36Z</time>
      </trkpt>
      <trkpt lat="42.75462" lon="-0.52644">
        <ele>1589</ele>
        <time>2018-12-27T19:35:41Z</time>
      </trkpt>
      <trkpt lat="42.75456" lon="-0.5267">
        <ele>1595</ele>
        <time>2018-12-27T19:35:46Z</time>
      </trkpt>
      <trkpt lat="42.75461" lon="-0.52631">
        <ele>1585</ele>
        <time>2018-12-27T19:35:54Z</time>
      </trkpt>
      <trkpt lat="42.75448" lon="-0.52669">
        <ele>1589</ele>
        <time>2018-12-27T19:36:02Z</time>
      </trkpt>
      <trkpt lat="42.75439" lon="-0.52701">
        <ele>1598</ele>
        <time>2018-12-27T19:36:09Z</time>
      </trkpt>
      <trkpt lat="42.7543" lon="-0.52721">
        <ele>1601</ele>
        <time>2018-12-27T19:36:14Z</time>
      </trkpt>
      <trkpt lat="42.75429" lon="-0.52712">
        <ele>1596</ele>
        <time>2018-12-27T19:36:16Z</time>
      </trkpt>
      <trkpt lat="42.75432" lon="-0.52674">
        <ele>1580</ele>
        <time>2018-12-27T19:36:23Z</time>
      </trkpt>
      <trkpt lat="42.75435" lon="-0.52651">
        <ele>1574</ele>
        <time>2018-12-27T19:36:28Z</time>
      </trkpt>
      <trkpt lat="42.7543" lon="-0.52663">
        <ele>1574</ele>
        <time>2018-12-27T19:36:31Z</time>
      </trkpt>
      <trkpt lat="42.75432" lon="-0.52634">
        <ele>1568</ele>
        <time>2018-12-27T19:36:36Z</time>
      </trkpt>
      <trkpt lat="42.75421" lon="-0.52667">
        <ele>1569</ele>
        <time>2018-12-27T19:36:44Z</time>
      </trkpt>
      <trkpt lat="42.7542" lon="-0.52641">
        <ele>1562</ele>
        <time>2018-12-27T19:36:49Z</time>
      </trkpt>
      <trkpt lat="42.75432" lon="-0.52597">
        <ele>1556</ele>
        <time>2018-12-27T19:36:58Z</time>
      </trkpt>
      <trkpt lat="42.75447" lon="-0.52547">
        <ele>1549</ele>
        <time>2018-12-27T19:37:09Z</time>
      </trkpt>
      <trkpt lat="42.7543" lon="-0.52579">
        <ele>1549</ele>
        <time>2018-12-27T19:37:16Z</time>
      </trkpt>
      <trkpt lat="42.75409" lon="-0.52611">
        <ele>1547</ele>
        <time>2018-12-27T19:37:25Z</time>
      </trkpt>
      <trkpt lat="42.75411" lon="-0.52597">
        <ele>1543</ele>
        <time>2018-12-27T19:37:28Z</time>
      </trkpt>
      <trkpt lat="42.75433" lon="-0.52528">
        <ele>1534</ele>
        <time>2018-12-27T19:37:42Z</time>
      </trkpt>
      <trkpt lat="42.75434" lon="-0.52513">
        <ele>1528</ele>
        <time>2018-12-27T19:37:45Z</time>
      </trkpt>
      <trkpt lat="42.75431" lon="-0.52486">
        <ele>1517</ele>
        <time>2018-12-27T19:37:51Z</time>
      </trkpt>
      <trkpt lat="42.75435" lon="-0.52462">
        <ele>1509</ele>
        <time>2018-12-27T19:37:55Z</time>
      </trkpt>
      <trkpt lat="42.75459" lon="-0.52445">
        <ele>1517</ele>
        <time>2018-12-27T19:38:03Z</time>
      </trkpt>
      <trkpt lat="42.75485" lon="-0.52437">
        <ele>1527</ele>
        <time>2018-12-27T19:38:10Z</time>
      </trkpt>
      <trkpt lat="42.75493" lon="-0.52394">
        <ele>1510</ele>
        <time>2018-12-27T19:38:18Z</time>
      </trkpt>
      <trkpt lat="42.75502" lon="-0.52377">
        <ele>1507</ele>
        <time>2018-12-27T19:38:22Z</time>
      </trkpt>
      <trkpt lat="42.75509" lon="-0.52368">
        <ele>1506</ele>
        <time>2018-12-27T19:38:25Z</time>
      </trkpt>
      <trkpt lat="42.75493" lon="-0.52377">
        <ele>1504</ele>
        <time>2018-12-27T19:38:30Z</time>
      </trkpt>
      <trkpt lat="42.75481" lon="-0.52398">
        <ele>1506</ele>
        <time>2018-12-27T19:38:35Z</time>
      </trkpt>
      <trkpt lat="42.75472" lon="-0.52406">
        <ele>1506</ele>
        <time>2018-12-27T19:38:38Z</time>
      </trkpt>
      <trkpt lat="42.75477" lon="-0.52383">
        <ele>1499</ele>
        <time>2018-12-27T19:38:42Z</time>
      </trkpt>
      <trkpt lat="42.75487" lon="-0.5235">
        <ele>1493</ele>
        <time>2018-12-27T19:38:49Z</time>
      </trkpt>
      <trkpt lat="42.75476" lon="-0.52364">
        <ele>1494</ele>
        <time>2018-12-27T19:38:53Z</time>
      </trkpt>
      <trkpt lat="42.75471" lon="-0.52366">
        <ele>1493</ele>
        <time>2018-12-27T19:38:55Z</time>
      </trkpt>
      <trkpt lat="42.75486" lon="-0.52342">
        <ele>1491</ele>
        <time>2018-12-27T19:39:01Z</time>
      </trkpt>
      <trkpt lat="42.75483" lon="-0.52336">
        <ele>1488</ele>
        <time>2018-12-27T19:39:03Z</time>
      </trkpt>
      <trkpt lat="42.75461" lon="-0.52358">
        <ele>1487</ele>
        <time>2018-12-27T19:39:10Z</time>
      </trkpt>
      <trkpt lat="42.75467" lon="-0.52345">
        <ele>1487</ele>
        <time>2018-12-27T19:39:13Z</time>
      </trkpt>
      <trkpt lat="42.75452" lon="-0.52349">
        <ele>1483</ele>
        <time>2018-12-27T19:39:17Z</time>
      </trkpt>
      <trkpt lat="42.75438" lon="-0.52334">
        <ele>1476</ele>
        <time>2018-12-27T19:39:22Z</time>
      </trkpt>
      <trkpt lat="42.75415" lon="-0.52346">
        <ele>1468</ele>
        <time>2018-12-27T19:39:29Z</time>
      </trkpt>
      <trkpt lat="42.75406" lon="-0.52362">
        <ele>1464</ele>
        <time>2018-12-27T19:39:33Z</time>
      </trkpt>
      <trkpt lat="42.75399" lon="-0.52363">
        <ele>1461</ele>
        <time>2018-12-27T19:39:35Z</time>
      </trkpt>
      <trkpt lat="42.754" lon="-0.52337">
        <ele>1460</ele>
        <time>2018-12-27T19:39:40Z</time>
      </trkpt>
      <trkpt lat="42.75411" lon="-0.52306">
        <ele>1461</ele>
        <time>2018-12-27T19:39:47Z</time>
      </trkpt>
      <trkpt lat="42.75427" lon="-0.52292">
        <ele>1465</ele>
        <time>2018-12-27T19:39:52Z</time>
      </trkpt>
      <trkpt lat="42.75444" lon="-0.52267">
        <ele>1467</ele>
        <time>2018-12-27T19:39:58Z</time>
      </trkpt>
      <trkpt lat="42.7546" lon="-0.52247">
        <ele>1464</ele>
        <time>2018-12-27T19:40:04Z</time>
      </trkpt>
      <trkpt lat="42.75481" lon="-0.52244">
        <ele>1464</ele>
        <time>2018-12-27T19:40:10Z</time>
      </trkpt>
      <trkpt lat="42.7547" lon="-0.52236">
        <ele>1460</ele>
        <time>2018-12-27T19:40:13Z</time>
      </trkpt>
      <trkpt lat="42.75453" lon="-0.52232">
        <ele>1456</ele>
        <time>2018-12-27T19:40:18Z</time>
      </trkpt>
      <trkpt lat="42.75437" lon="-0.52244">
        <ele>1459</ele>
        <time>2018-12-27T19:40:23Z</time>
      </trkpt>
      <trkpt lat="42.75422" lon="-0.52246">
        <ele>1456</ele>
        <time>2018-12-27T19:40:26Z</time>
      </trkpt>
      <trkpt lat="42.7541" lon="-0.52255">
        <ele>1453</ele>
        <time>2018-12-27T19:40:30Z</time>
      </trkpt>
      <trkpt lat="42.75371" lon="-0.52255">
        <ele>1434</ele>
        <time>2018-12-27T19:40:41Z</time>
      </trkpt>
      <trkpt lat="42.75354" lon="-0.52264">
        <ele>1426</ele>
        <time>2018-12-27T19:40:45Z</time>
      </trkpt>
      <trkpt lat="42.75363" lon="-0.52249">
        <ele>1428</ele>
        <time>2018-12-27T19:40:49Z</time>
      </trkpt>
      <trkpt lat="42.75375" lon="-0.52239">
        <ele>1433</ele>
        <time>2018-12-27T19:40:53Z</time>
      </trkpt>
      <trkpt lat="42.75407" lon="-0.52223">
        <ele>1443</ele>
        <time>2018-12-27T19:41:02Z</time>
      </trkpt>
      <trkpt lat="42.75425" lon="-0.5221">
        <ele>1440</ele>
        <time>2018-12-27T19:41:07Z</time>
      </trkpt>
      <trkpt lat="42.75443" lon="-0.52183">
        <ele>1432</ele>
        <time>2018-12-27T19:41:15Z</time>
      </trkpt>
      <trkpt lat="42.75472" lon="-0.5215">
        <ele>1423</ele>
        <time>2018-12-27T19:41:24Z</time>
      </trkpt>
      <trkpt lat="42.75431" lon="-0.52177">
        <ele>1426</ele>
        <time>2018-12-27T19:41:36Z</time>
      </trkpt>
      <trkpt lat="42.754" lon="-0.52187">
        <ele>1422</ele>
        <time>2018-12-27T19:41:45Z</time>
      </trkpt>
      <trkpt lat="42.75376" lon="-0.52177">
        <ele>1411</ele>
        <time>2018-12-27T19:41:52Z</time>
      </trkpt>
      <trkpt lat="42.75355" lon="-0.52158">
        <ele>1399</ele>
        <time>2018-12-27T19:41:58Z</time>
      </trkpt>
      <trkpt lat="42.75321" lon="-0.52149">
        <ele>1382</ele>
        <time>2018-12-27T19:42:08Z</time>
      </trkpt>
      <trkpt lat="42.75354" lon="-0.52122">
        <ele>1391</ele>
        <time>2018-12-27T19:42:18Z</time>
      </trkpt>
      <trkpt lat="42.754" lon="-0.52127">
        <ele>1399</ele>
        <time>2018-12-27T19:42:30Z</time>
      </trkpt>
      <trkpt lat="42.7542" lon="-0.5211">
        <ele>1395</ele>
        <time>2018-12-27T19:42:37Z</time>
      </trkpt>
      <trkpt lat="42.75433" lon="-0.52093">
        <ele>1390</ele>
        <time>2018-12-27T19:42:42Z</time>
      </trkpt>
      <trkpt lat="42.75441" lon="-0.52057">
        <ele>1376</ele>
        <time>2018-12-27T19:42:49Z</time>
      </trkpt>
      <trkpt lat="42.75462" lon="-0.52042">
        <ele>1372</ele>
        <time>2018-12-27T19:42:55Z</time>
      </trkpt>
      <trkpt lat="42.75489" lon="-0.5205">
        <ele>1376</ele>
        <time>2018-12-27T19:43:03Z</time>
      </trkpt>
      <trkpt lat="42.7551" lon="-0.52049">
        <ele>1374</ele>
        <time>2018-12-27T19:43:08Z</time>
      </trkpt>
      <trkpt lat="42.7554" lon="-0.52023">
        <ele>1369</ele>
        <time>2018-12-27T19:43:18Z</time>
      </trkpt>
      <trkpt lat="42.75565" lon="-0.51966">
        <ele>1355</ele>
        <time>2018-12-27T19:43:31Z</time>
      </trkpt>
      <trkpt lat="42.75573" lon="-0.51957">
        <ele>1354</ele>
        <time>2018-12-27T19:43:33Z</time>
      </trkpt>
      <trkpt lat="42.75582" lon="-0.51953">
        <ele>1356</ele>
        <time>2018-12-27T19:43:36Z</time>
      </trkpt>
      <trkpt lat="42.756" lon="-0.51942">
        <ele>1354</ele>
        <time>2018-12-27T19:43:41Z</time>
      </trkpt>
      <trkpt lat="42.75607" lon="-0.51932">
        <ele>1351</ele>
        <time>2018-12-27T19:43:44Z</time>
      </trkpt>
      <trkpt lat="42.75616" lon="-0.51925">
        <ele>1351</ele>
        <time>2018-12-27T19:43:47Z</time>
      </trkpt>
      <trkpt lat="42.75624" lon="-0.51915">
        <ele>1349</ele>
        <time>2018-12-27T19:43:49Z</time>
      </trkpt>
      <trkpt lat="42.75634" lon="-0.51911">
        <ele>1351</ele>
        <time>2018-12-27T19:43:52Z</time>
      </trkpt>
      <trkpt lat="42.75651" lon="-0.51901">
        <ele>1355</ele>
        <time>2018-12-27T19:43:57Z</time>
      </trkpt>
      <trkpt lat="42.75641" lon="-0.51897">
        <ele>1346</ele>
        <time>2018-12-27T19:44:00Z</time>
      </trkpt>
      <trkpt lat="42.75605" lon="-0.51912">
        <ele>1342</ele>
        <time>2018-12-27T19:44:10Z</time>
      </trkpt>
      <trkpt lat="42.75598" lon="-0.51903">
        <ele>1337</ele>
        <time>2018-12-27T19:44:13Z</time>
      </trkpt>
      <trkpt lat="42.75604" lon="-0.51892">
        <ele>1333</ele>
        <time>2018-12-27T19:44:15Z</time>
      </trkpt>
      <trkpt lat="42.75612" lon="-0.51883">
        <ele>1329</ele>
        <time>2018-12-27T19:44:18Z</time>
      </trkpt>
      <trkpt lat="42.75622" lon="-0.51878">
        <ele>1329</ele>
        <time>2018-12-27T19:44:21Z</time>
      </trkpt>
      <trkpt lat="42.75632" lon="-0.51875">
        <ele>1330</ele>
        <time>2018-12-27T19:44:24Z</time>
      </trkpt>
      <trkpt lat="42.7564" lon="-0.51868">
        <ele>1328</ele>
        <time>2018-12-27T19:44:26Z</time>
      </trkpt>
      <trkpt lat="42.75647" lon="-0.51859">
        <ele>1328</ele>
        <time>2018-12-27T19:44:29Z</time>
      </trkpt>
      <trkpt lat="42.75638" lon="-0.51863">
        <ele>1324</ele>
        <time>2018-12-27T19:44:32Z</time>
      </trkpt>
      <trkpt lat="42.7563" lon="-0.51868">
        <ele>1326</ele>
        <time>2018-12-27T19:44:34Z</time>
      </trkpt>
      <trkpt lat="42.7562" lon="-0.51867">
        <ele>1324</ele>
        <time>2018-12-27T19:44:36Z</time>
      </trkpt>
      <trkpt lat="42.75599" lon="-0.51875">
        <ele>1325</ele>
        <time>2018-12-27T19:44:42Z</time>
      </trkpt>
      <trkpt lat="42.7559" lon="-0.51872">
        <ele>1323</ele>
        <time>2018-12-27T19:44:45Z</time>
      </trkpt>
      <trkpt lat="42.75595" lon="-0.5186">
        <ele>1318</ele>
        <time>2018-12-27T19:44:47Z</time>
      </trkpt>
      <trkpt lat="42.75607" lon="-0.51839">
        <ele>1315</ele>
        <time>2018-12-27T19:44:53Z</time>
      </trkpt>
      <trkpt lat="42.75616" lon="-0.51832">
        <ele>1315</ele>
        <time>2018-12-27T19:44:55Z</time>
      </trkpt>
      <trkpt lat="42.75642" lon="-0.51793">
        <ele>1311</ele>
        <time>2018-12-27T19:45:06Z</time>
      </trkpt>
      <trkpt lat="42.75634" lon="-0.51798">
        <ele>1310</ele>
        <time>2018-12-27T19:45:08Z</time>
      </trkpt>
      <trkpt lat="42.75624" lon="-0.51801">
        <ele>1309</ele>
        <time>2018-12-27T19:45:11Z</time>
      </trkpt>
      <trkpt lat="42.75614" lon="-0.518">
        <ele>1306</ele>
        <time>2018-12-27T19:45:14Z</time>
      </trkpt>
      <trkpt lat="42.75606" lon="-0.51806">
        <ele>1306</ele>
        <time>2018-12-27T19:45:16Z</time>
      </trkpt>
      <trkpt lat="42.75608" lon="-0.51791">
        <ele>1302</ele>
        <time>2018-12-27T19:45:19Z</time>
      </trkpt>
      <trkpt lat="42.75613" lon="-0.51781">
        <ele>1300</ele>
        <time>2018-12-27T19:45:22Z</time>
      </trkpt>
      <trkpt lat="42.75605" lon="-0.51773">
        <ele>1297</ele>
        <time>2018-12-27T19:45:24Z</time>
      </trkpt>
      <trkpt lat="42.75611" lon="-0.51761">
        <ele>1296</ele>
        <time>2018-12-27T19:45:27Z</time>
      </trkpt>
      <trkpt lat="42.75617" lon="-0.51752">
        <ele>1295</ele>
        <time>2018-12-27T19:45:29Z</time>
      </trkpt>
      <trkpt lat="42.75616" lon="-0.5174">
        <ele>1290</ele>
        <time>2018-12-27T19:45:32Z</time>
      </trkpt>
      <trkpt lat="42.75608" lon="-0.51732">
        <ele>1285</ele>
        <time>2018-12-27T19:45:35Z</time>
      </trkpt>
      <trkpt lat="42.75598" lon="-0.51734">
        <ele>1282</ele>
        <time>2018-12-27T19:45:37Z</time>
      </trkpt>
      <trkpt lat="42.75593" lon="-0.51722">
        <ele>1276</ele>
        <time>2018-12-27T19:45:40Z</time>
      </trkpt>
      <trkpt lat="42.75598" lon="-0.51712">
        <ele>1274</ele>
        <time>2018-12-27T19:45:42Z</time>
      </trkpt>
      <trkpt lat="42.75615" lon="-0.51692">
        <ele>1272</ele>
        <time>2018-12-27T19:45:48Z</time>
      </trkpt>
      <trkpt lat="42.75615" lon="-0.51678">
        <ele>1266</ele>
        <time>2018-12-27T19:45:51Z</time>
      </trkpt>
      <trkpt lat="42.75622" lon="-0.5167">
        <ele>1266</ele>
        <time>2018-12-27T19:45:53Z</time>
      </trkpt>
      <trkpt lat="42.75611" lon="-0.51671">
        <ele>1261</ele>
        <time>2018-12-27T19:45:56Z</time>
      </trkpt>
      <trkpt lat="42.75601" lon="-0.5167">
        <ele>1258</ele>
        <time>2018-12-27T19:45:59Z</time>
      </trkpt>
      <trkpt lat="42.7557" lon="-0.5167">
        <ele>1254</ele>
        <time>2018-12-27T19:46:07Z</time>
      </trkpt>
      <trkpt lat="42.75571" lon="-0.51655">
        <ele>1249</ele>
        <time>2018-12-27T19:46:10Z</time>
      </trkpt>
      <trkpt lat="42.75578" lon="-0.51645">
        <ele>1245</ele>
        <time>2018-12-27T19:46:13Z</time>
      </trkpt>
      <trkpt lat="42.75572" lon="-0.51635">
        <ele>1243</ele>
        <time>2018-12-27T19:46:15Z</time>
      </trkpt>
      <trkpt lat="42.75576" lon="-0.51622">
        <ele>1239</ele>
        <time>2018-12-27T19:46:18Z</time>
      </trkpt>
      <trkpt lat="42.75585" lon="-0.51612">
        <ele>1237</ele>
        <time>2018-12-27T19:46:21Z</time>
      </trkpt>
      <trkpt lat="42.7559" lon="-0.51602">
        <ele>1238</ele>
        <time>2018-12-27T19:46:24Z</time>
      </trkpt>
      <trkpt lat="42.75581" lon="-0.51603">
        <ele>1236</ele>
        <time>2018-12-27T19:46:26Z</time>
      </trkpt>
      <trkpt lat="42.75587" lon="-0.5159">
        <ele>1236</ele>
        <time>2018-12-27T19:46:29Z</time>
      </trkpt>
      <trkpt lat="42.75577" lon="-0.51585">
        <ele>1233</ele>
        <time>2018-12-27T19:46:32Z</time>
      </trkpt>
      <trkpt lat="42.75575" lon="-0.51571">
        <ele>1230</ele>
        <time>2018-12-27T19:46:35Z</time>
      </trkpt>
      <trkpt lat="42.75579" lon="-0.51557">
        <ele>1229</ele>
        <time>2018-12-27T19:46:38Z</time>
      </trkpt>
      <trkpt lat="42.75587" lon="-0.51547">
        <ele>1231</ele>
        <time>2018-12-27T19:46:41Z</time>
      </trkpt>
      <trkpt lat="42.75596" lon="-0.51523">
        <ele>1235</ele>
        <time>2018-12-27T19:46:46Z</time>
      </trkpt>
      <trkpt lat="42.75592" lon="-0.51495">
        <ele>1230</ele>
        <time>2018-12-27T19:46:52Z</time>
      </trkpt>
      <trkpt lat="42.75581" lon="-0.51455">
        <ele>1216</ele>
        <time>2018-12-27T19:47:00Z</time>
      </trkpt>
      <trkpt lat="42.75571" lon="-0.51448">
        <ele>1211</ele>
        <time>2018-12-27T19:47:03Z</time>
      </trkpt>
      <trkpt lat="42.75562" lon="-0.51451">
        <ele>1207</ele>
        <time>2018-12-27T19:47:06Z</time>
      </trkpt>
      <trkpt lat="42.75547" lon="-0.51471">
        <ele>1206</ele>
        <time>2018-12-27T19:47:11Z</time>
      </trkpt>
      <trkpt lat="42.75537" lon="-0.51477">
        <ele>1205</ele>
        <time>2018-12-27T19:47:14Z</time>
      </trkpt>
      <trkpt lat="42.75526" lon="-0.51477">
        <ele>1203</ele>
        <time>2018-12-27T19:47:17Z</time>
      </trkpt>
      <trkpt lat="42.75504" lon="-0.51475">
        <ele>1199</ele>
        <time>2018-12-27T19:47:23Z</time>
      </trkpt>
      <trkpt lat="42.75496" lon="-0.51475">
        <ele>1199</ele>
        <time>2018-12-27T19:47:25Z</time>
      </trkpt>
      <trkpt lat="42.75486" lon="-0.51473">
        <ele>1198</ele>
        <time>2018-12-27T19:47:28Z</time>
      </trkpt>
      <trkpt lat="42.75454" lon="-0.51476">
        <ele>1196</ele>
        <time>2018-12-27T19:47:36Z</time>
      </trkpt>
      <trkpt lat="42.7538" lon="-0.51478">
        <ele>1196</ele>
        <time>2018-12-27T19:47:56Z</time>
      </trkpt>
      <trkpt lat="42.75373" lon="-0.51468">
        <ele>1196</ele>
        <time>2018-12-27T19:47:59Z</time>
      </trkpt>
      <trkpt lat="42.75348" lon="-0.51469">
        <ele>1196</ele>
        <time>2018-12-27T19:48:05Z</time>
      </trkpt>
      <trkpt lat="42.75269" lon="-0.51476">
        <ele>1200</ele>
        <time>2018-12-27T19:48:26Z</time>
      </trkpt>
      <trkpt lat="42.75246" lon="-0.5148">
        <ele>1201</ele>
        <time>2018-12-27T19:48:33Z</time>
      </trkpt>
      <trkpt lat="42.75193" lon="-0.51492">
        <ele>1199</ele>
        <time>2018-12-27T19:48:47Z</time>
      </trkpt>
      <trkpt lat="42.75186" lon="-0.51495">
        <ele>1198</ele>
        <time>2018-12-27T19:48:49Z</time>
      </trkpt>
      <trkpt lat="42.75177" lon="-0.515">
        <ele>1198</ele>
        <time>2018-12-27T19:48:51Z</time>
      </trkpt>
      <trkpt lat="42.75155" lon="-0.51509">
        <ele>1198</ele>
        <time>2018-12-27T19:48:58Z</time>
      </trkpt>
      <trkpt lat="42.75147" lon="-0.51504">
        <ele>1196</ele>
        <time>2018-12-27T19:49:00Z</time>
      </trkpt>
      <trkpt lat="42.75145" lon="-0.51497">
        <ele>1195</ele>
        <time>2018-12-27T19:49:01Z</time>
      </trkpt>
    </trkseg>
  </trk>
</gpx>